<?xml version="1.0" encoding="UTF-8"?>
<gpx version="1.1" creator="https://www.youtrack.es" xsi:schemaLocation="http://www.topografix.com/GPX/1/1 http://www.topografix.com/GPX/1/1/gpx.xsd http://www.garmin.com/xmlschemas/GpxExtensions/v3 http://www.garmin.com/xmlschemas/GpxExtensionsv3.xsd http://www.garmin.com/xmlschemas/TrackPointExtension/v1 http://www.garmin.com/xmlschemas/TrackPointExtensionv1.xsd" xmlns:gpxtpx="http://www.garmin.com/xmlschemas/TrackPointExtension/v1" xmlns:gpxx="http://www.garmin.com/xmlschemas/GpxExtensions/v3" xmlns:xsi="http://www.w3.org/2001/XMLSchema-instance">
  <metadata>
    <link href="https://www.youtrack.es">
      <text>YouTrack.es</text>
    </link>
    <time>2026-05-10T17:03:53Z</time>
  </metadata>
  <trk>
    <src>https://www.youtrack.es</src>
    <link href="https://www.youtrack.es/ruta/6932-ultra-btt-ripolles--polrecasens">
      <text>YouTrack.es</text>
    </link>
    <trkseg>
      <trkpt lat="42.310120" lon="2.173356">
        <ele>922.06</ele>
        <time>2011-05-15T04:38:25Z</time>
      </trkpt>
      <trkpt lat="42.309780" lon="2.172468">
        <ele>919.69</ele>
        <time>2011-05-16T03:39:56.97Z</time>
      </trkpt>
      <trkpt lat="42.309582" lon="2.172162">
        <ele>918.77</ele>
        <time>2011-05-16T13:01:42.10Z</time>
      </trkpt>
      <trkpt lat="42.309341" lon="2.171756">
        <ele>917.26</ele>
        <time>2011-05-17T01:00:58.75Z</time>
      </trkpt>
      <trkpt lat="42.309322" lon="2.171692">
        <ele>917.26</ele>
        <time>2011-05-17T02:36:15.62Z</time>
      </trkpt>
      <trkpt lat="42.309204" lon="2.171531">
        <ele>916.31</ele>
        <time>2011-05-17T07:49:26Z</time>
      </trkpt>
      <trkpt lat="42.308819" lon="2.170896">
        <ele>915.31</ele>
        <time>2011-05-18T02:43:54.65Z</time>
      </trkpt>
      <trkpt lat="42.308735" lon="2.170790">
        <ele>915.33</ele>
        <time>2011-05-18T06:18:33.75Z</time>
      </trkpt>
      <trkpt lat="42.308468" lon="2.170649">
        <ele>914.48</ele>
        <time>2011-05-18T15:14:04.28Z</time>
      </trkpt>
      <trkpt lat="42.308182" lon="2.170717">
        <ele>913.00</ele>
        <time>2011-05-19T00:16:34.98Z</time>
      </trkpt>
      <trkpt lat="42.307892" lon="2.170878">
        <ele>910.59</ele>
        <time>2011-05-19T10:02:15.44Z</time>
      </trkpt>
      <trkpt lat="42.307365" lon="2.170838">
        <ele>909.14</ele>
        <time>2011-05-20T02:28:21.97Z</time>
      </trkpt>
      <trkpt lat="42.307293" lon="2.170811">
        <ele>911.52</ele>
        <time>2011-05-20T04:47:57.36Z</time>
      </trkpt>
      <trkpt lat="42.306637" lon="2.170503">
        <ele>910.57</ele>
        <time>2011-05-21T02:25:17.77Z</time>
      </trkpt>
      <trkpt lat="42.306553" lon="2.170449">
        <ele>910.60</ele>
        <time>2011-05-21T05:19:03.65Z</time>
      </trkpt>
      <trkpt lat="42.306412" lon="2.170301">
        <ele>910.02</ele>
        <time>2011-05-21T10:52:32.10Z</time>
      </trkpt>
      <trkpt lat="42.305988" lon="2.169336">
        <ele>907.63</ele>
        <time>2011-05-22T12:43:24.05Z</time>
      </trkpt>
      <trkpt lat="42.305775" lon="2.169275">
        <ele>909.51</ele>
        <time>2011-05-22T19:30:09.72Z</time>
      </trkpt>
      <trkpt lat="42.305565" lon="2.169252">
        <ele>912.99</ele>
        <time>2011-05-23T02:03:46.56Z</time>
      </trkpt>
      <trkpt lat="42.305542" lon="2.169247">
        <ele>913.45</ele>
        <time>2011-05-23T02:47:17.83Z</time>
      </trkpt>
      <trkpt lat="42.305401" lon="2.169147">
        <ele>916.37</ele>
        <time>2011-05-23T07:44:45.29Z</time>
      </trkpt>
      <trkpt lat="42.305222" lon="2.169001">
        <ele>919.29</ele>
        <time>2011-05-23T14:15:18.04Z</time>
      </trkpt>
      <trkpt lat="42.304920" lon="2.169087">
        <ele>922.10</ele>
        <time>2011-05-23T23:51:53.05Z</time>
      </trkpt>
      <trkpt lat="42.304680" lon="2.169210">
        <ele>924.97</ele>
        <time>2011-05-24T07:51:23.27Z</time>
      </trkpt>
      <trkpt lat="42.304287" lon="2.169222">
        <ele>928.39</ele>
        <time>2011-05-24T20:05:47.44Z</time>
      </trkpt>
      <trkpt lat="42.303761" lon="2.169155">
        <ele>928.34</ele>
        <time>2011-05-25T12:32:49.95Z</time>
      </trkpt>
      <trkpt lat="42.303173" lon="2.169048">
        <ele>930.22</ele>
        <time>2011-05-26T07:01:15.48Z</time>
      </trkpt>
      <trkpt lat="42.302540" lon="2.168968">
        <ele>929.71</ele>
        <time>2011-05-27T02:49:00.28Z</time>
      </trkpt>
      <trkpt lat="42.302231" lon="2.168897">
        <ele>933.11</ele>
        <time>2011-05-27T12:34:33.92Z</time>
      </trkpt>
      <trkpt lat="42.302208" lon="2.168896">
        <ele>933.14</ele>
        <time>2011-05-27T13:17:33.42Z</time>
      </trkpt>
      <trkpt lat="42.301888" lon="2.168870">
        <ele>936.06</ele>
        <time>2011-05-27T23:16:28.21Z</time>
      </trkpt>
      <trkpt lat="42.301552" lon="2.168856">
        <ele>938.96</ele>
        <time>2011-05-28T09:44:29.68Z</time>
      </trkpt>
      <trkpt lat="42.301197" lon="2.168922">
        <ele>940.36</ele>
        <time>2011-05-28T20:53:57.49Z</time>
      </trkpt>
      <trkpt lat="42.300701" lon="2.168998">
        <ele>940.81</ele>
        <time>2011-05-29T12:26:32.02Z</time>
      </trkpt>
      <trkpt lat="42.300022" lon="2.169065">
        <ele>939.42</ele>
        <time>2011-05-30T09:38:26.28Z</time>
      </trkpt>
      <trkpt lat="42.299713" lon="2.169168">
        <ele>942.26</ele>
        <time>2011-05-30T19:33:00.49Z</time>
      </trkpt>
      <trkpt lat="42.299412" lon="2.169252">
        <ele>945.67</ele>
        <time>2011-05-31T05:07:12.05Z</time>
      </trkpt>
      <trkpt lat="42.299160" lon="2.169514">
        <ele>947.54</ele>
        <time>2011-05-31T15:01:06.10Z</time>
      </trkpt>
      <trkpt lat="42.299137" lon="2.169822">
        <ele>949.41</ele>
        <time>2011-05-31T22:08:51.99Z</time>
      </trkpt>
      <trkpt lat="42.299370" lon="2.169953">
        <ele>952.31</ele>
        <time>2011-06-01T06:00:18.18Z</time>
      </trkpt>
      <trkpt lat="42.299534" lon="2.170006">
        <ele>955.74</ele>
        <time>2011-06-01T11:15:19.47Z</time>
      </trkpt>
      <trkpt lat="42.299568" lon="2.170020">
        <ele>956.77</ele>
        <time>2011-06-01T12:21:43.50Z</time>
      </trkpt>
      <trkpt lat="42.299759" lon="2.170108">
        <ele>959.56</ele>
        <time>2011-06-01T18:38:42.46Z</time>
      </trkpt>
      <trkpt lat="42.299957" lon="2.170148">
        <ele>962.94</ele>
        <time>2011-06-02T00:52:43.47Z</time>
      </trkpt>
      <trkpt lat="42.300068" lon="2.170137">
        <ele>964.33</ele>
        <time>2011-06-02T04:20:39.29Z</time>
      </trkpt>
      <trkpt lat="42.300392" lon="2.170092">
        <ele>967.28</ele>
        <time>2011-06-02T14:29:08.87Z</time>
      </trkpt>
      <trkpt lat="42.300823" lon="2.170079">
        <ele>969.69</ele>
        <time>2011-06-03T03:54:33.41Z</time>
      </trkpt>
      <trkpt lat="42.301258" lon="2.170045">
        <ele>971.13</ele>
        <time>2011-06-03T17:28:35.71Z</time>
      </trkpt>
      <trkpt lat="42.301640" lon="2.170308">
        <ele>973.57</ele>
        <time>2011-06-04T06:49:27.50Z</time>
      </trkpt>
      <trkpt lat="42.301933" lon="2.170649">
        <ele>976.41</ele>
        <time>2011-06-04T18:51:42.73Z</time>
      </trkpt>
      <trkpt lat="42.301914" lon="2.170766">
        <ele>977.81</ele>
        <time>2011-06-04T21:37:13.76Z</time>
      </trkpt>
      <trkpt lat="42.301842" lon="2.170735">
        <ele>978.86</ele>
        <time>2011-06-04T23:58:23.86Z</time>
      </trkpt>
      <trkpt lat="42.301548" lon="2.170736">
        <ele>982.16</ele>
        <time>2011-06-05T09:07:39.60Z</time>
      </trkpt>
      <trkpt lat="42.301273" lon="2.170727">
        <ele>985.04</ele>
        <time>2011-06-05T17:41:34.48Z</time>
      </trkpt>
      <trkpt lat="42.301029" lon="2.170750">
        <ele>987.93</ele>
        <time>2011-06-06T01:18:31.81Z</time>
      </trkpt>
      <trkpt lat="42.300858" lon="2.170830">
        <ele>991.39</ele>
        <time>2011-06-06T06:56:34.96Z</time>
      </trkpt>
      <trkpt lat="42.300777" lon="2.170904">
        <ele>992.77</ele>
        <time>2011-06-06T09:59:13.02Z</time>
      </trkpt>
      <trkpt lat="42.300758" lon="2.171056">
        <ele>995.19</ele>
        <time>2011-06-06T13:32:13.62Z</time>
      </trkpt>
      <trkpt lat="42.300892" lon="2.171073">
        <ele>997.59</ele>
        <time>2011-06-06T17:43:40.20Z</time>
      </trkpt>
      <trkpt lat="42.300934" lon="2.171071">
        <ele>998.01</ele>
        <time>2011-06-06T19:02:11.07Z</time>
      </trkpt>
      <trkpt lat="42.300972" lon="2.171066">
        <ele>998.53</ele>
        <time>2011-06-06T20:13:30.76Z</time>
      </trkpt>
      <trkpt lat="42.301304" lon="2.171159">
        <ele>999.41</ele>
        <time>2011-06-07T06:46:56.30Z</time>
      </trkpt>
      <trkpt lat="42.301567" lon="2.171311">
        <ele>1001.46</ele>
        <time>2011-06-07T15:41:17.45Z</time>
      </trkpt>
      <trkpt lat="42.301712" lon="2.171526">
        <ele>1004.72</ele>
        <time>2011-06-07T22:23:20.14Z</time>
      </trkpt>
      <trkpt lat="42.301754" lon="2.171609">
        <ele>1006.67</ele>
        <time>2011-06-08T00:42:17.74Z</time>
      </trkpt>
      <trkpt lat="42.301769" lon="2.171716">
        <ele>1008.67</ele>
        <time>2011-06-08T03:12:46.62Z</time>
      </trkpt>
      <trkpt lat="42.301788" lon="2.171975">
        <ele>1011.48</ele>
        <time>2011-06-08T09:12:24.60Z</time>
      </trkpt>
      <trkpt lat="42.301773" lon="2.172206">
        <ele>1014.87</ele>
        <time>2011-06-08T14:32:49.52Z</time>
      </trkpt>
      <trkpt lat="42.301701" lon="2.172422">
        <ele>1018.27</ele>
        <time>2011-06-08T20:00:11.88Z</time>
      </trkpt>
      <trkpt lat="42.301666" lon="2.172601">
        <ele>1021.60</ele>
        <time>2011-06-09T00:16:01.90Z</time>
      </trkpt>
      <trkpt lat="42.301662" lon="2.172618">
        <ele>1021.11</ele>
        <time>2011-06-09T00:40:40.90Z</time>
      </trkpt>
      <trkpt lat="42.301598" lon="2.172777">
        <ele>1024.93</ele>
        <time>2011-06-09T04:50:48.68Z</time>
      </trkpt>
      <trkpt lat="42.301548" lon="2.173003">
        <ele>1026.81</ele>
        <time>2011-06-09T10:16:45.77Z</time>
      </trkpt>
      <trkpt lat="42.301529" lon="2.173138">
        <ele>1028.83</ele>
        <time>2011-06-09T13:26:38.95Z</time>
      </trkpt>
      <trkpt lat="42.301506" lon="2.173222">
        <ele>1028.88</ele>
        <time>2011-06-09T15:30:24.98Z</time>
      </trkpt>
      <trkpt lat="42.301491" lon="2.173299">
        <ele>1029.73</ele>
        <time>2011-06-09T17:20:26.47Z</time>
      </trkpt>
      <trkpt lat="42.301353" lon="2.173615">
        <ele>1032.14</ele>
        <time>2011-06-10T01:47:30.90Z</time>
      </trkpt>
      <trkpt lat="42.301109" lon="2.173610">
        <ele>1034.07</ele>
        <time>2011-06-10T09:23:24.98Z</time>
      </trkpt>
      <trkpt lat="42.300842" lon="2.173668">
        <ele>1036.96</ele>
        <time>2011-06-10T17:48:37.91Z</time>
      </trkpt>
      <trkpt lat="42.300804" lon="2.173742">
        <ele>1037.50</ele>
        <time>2011-06-10T19:53:06.76Z</time>
      </trkpt>
      <trkpt lat="42.300747" lon="2.174092">
        <ele>1040.39</ele>
        <time>2011-06-11T04:08:19.38Z</time>
      </trkpt>
      <trkpt lat="42.300724" lon="2.174384">
        <ele>1043.21</ele>
        <time>2011-06-11T10:54:05.20Z</time>
      </trkpt>
      <trkpt lat="42.300735" lon="2.174705">
        <ele>1046.53</ele>
        <time>2011-06-11T18:18:06.97Z</time>
      </trkpt>
      <trkpt lat="42.300900" lon="2.174787">
        <ele>1049.41</ele>
        <time>2011-06-11T23:46:32.35Z</time>
      </trkpt>
      <trkpt lat="42.300930" lon="2.174791">
        <ele>1050.99</ele>
        <time>2011-06-12T00:42:51.48Z</time>
      </trkpt>
      <trkpt lat="42.300953" lon="2.174802">
        <ele>1051.83</ele>
        <time>2011-06-12T01:28:26.19Z</time>
      </trkpt>
      <trkpt lat="42.301140" lon="2.174986">
        <ele>1053.78</ele>
        <time>2011-06-12T08:40:31.05Z</time>
      </trkpt>
      <trkpt lat="42.301281" lon="2.175176">
        <ele>1055.25</ele>
        <time>2011-06-12T14:52:25.62Z</time>
      </trkpt>
      <trkpt lat="42.301334" lon="2.175195">
        <ele>1055.73</ele>
        <time>2011-06-12T16:34:51.88Z</time>
      </trkpt>
      <trkpt lat="42.301434" lon="2.175153">
        <ele>1056.22</ele>
        <time>2011-06-12T19:50:29.66Z</time>
      </trkpt>
      <trkpt lat="42.301540" lon="2.174846">
        <ele>1059.03</ele>
        <time>2011-06-13T03:38:38.75Z</time>
      </trkpt>
      <trkpt lat="42.301563" lon="2.174563">
        <ele>1061.97</ele>
        <time>2011-06-13T10:12:02.42Z</time>
      </trkpt>
      <trkpt lat="42.301720" lon="2.174292">
        <ele>1064.88</ele>
        <time>2011-06-13T18:07:41.98Z</time>
      </trkpt>
      <trkpt lat="42.301903" lon="2.174141">
        <ele>1067.72</ele>
        <time>2011-06-14T00:48:13.45Z</time>
      </trkpt>
      <trkpt lat="42.302059" lon="2.174041">
        <ele>1071.11</ele>
        <time>2011-06-14T06:10:45.89Z</time>
      </trkpt>
      <trkpt lat="42.302246" lon="2.173979">
        <ele>1073.59</ele>
        <time>2011-06-14T12:10:28.49Z</time>
      </trkpt>
      <trkpt lat="42.302456" lon="2.173916">
        <ele>1075.93</ele>
        <time>2011-06-14T18:52:20.71Z</time>
      </trkpt>
      <trkpt lat="42.302654" lon="2.173945">
        <ele>1078.80</ele>
        <time>2011-06-15T01:04:25.17Z</time>
      </trkpt>
      <trkpt lat="42.302876" lon="2.174087">
        <ele>1082.15</ele>
        <time>2011-06-15T08:43:14.19Z</time>
      </trkpt>
      <trkpt lat="42.303013" lon="2.174288">
        <ele>1084.55</ele>
        <time>2011-06-15T15:00:55.06Z</time>
      </trkpt>
      <trkpt lat="42.303146" lon="2.174588">
        <ele>1086.92</ele>
        <time>2011-06-15T23:04:12.35Z</time>
      </trkpt>
      <trkpt lat="42.303162" lon="2.174811">
        <ele>1088.87</ele>
        <time>2011-06-16T04:13:46.74Z</time>
      </trkpt>
      <trkpt lat="42.303150" lon="2.174912">
        <ele>1089.88</ele>
        <time>2011-06-16T06:35:07.41Z</time>
      </trkpt>
      <trkpt lat="42.303143" lon="2.174973">
        <ele>1089.83</ele>
        <time>2011-06-16T08:00:25.07Z</time>
      </trkpt>
      <trkpt lat="42.303192" lon="2.175092">
        <ele>1090.82</ele>
        <time>2011-06-16T11:08:36.59Z</time>
      </trkpt>
      <trkpt lat="42.303337" lon="2.175413">
        <ele>1093.61</ele>
        <time>2011-06-16T19:48:19.72Z</time>
      </trkpt>
      <trkpt lat="42.303520" lon="2.175736">
        <ele>1095.16</ele>
        <time>2011-06-17T05:10:31.71Z</time>
      </trkpt>
      <trkpt lat="42.303696" lon="2.175740">
        <ele>1097.04</ele>
        <time>2011-06-17T10:39:23.04Z</time>
      </trkpt>
      <trkpt lat="42.303753" lon="2.175725">
        <ele>1097.03</ele>
        <time>2011-06-17T12:27:52.29Z</time>
      </trkpt>
      <trkpt lat="42.304043" lon="2.175753">
        <ele>1100.43</ele>
        <time>2011-06-17T21:31:02.32Z</time>
      </trkpt>
      <trkpt lat="42.304295" lon="2.175843">
        <ele>1102.36</ele>
        <time>2011-06-18T05:37:58.79Z</time>
      </trkpt>
      <trkpt lat="42.304447" lon="2.176029">
        <ele>1105.28</ele>
        <time>2011-06-18T12:00:58.68Z</time>
      </trkpt>
      <trkpt lat="42.304565" lon="2.176232">
        <ele>1108.57</ele>
        <time>2011-06-18T17:57:43.74Z</time>
      </trkpt>
      <trkpt lat="42.304684" lon="2.176404">
        <ele>1111.93</ele>
        <time>2011-06-18T23:23:09.57Z</time>
      </trkpt>
      <trkpt lat="42.304787" lon="2.176686">
        <ele>1113.89</ele>
        <time>2011-06-19T06:37:43.51Z</time>
      </trkpt>
      <trkpt lat="42.304905" lon="2.176961">
        <ele>1115.81</ele>
        <time>2011-06-19T13:57:00.76Z</time>
      </trkpt>
      <trkpt lat="42.304932" lon="2.177023">
        <ele>1116.21</ele>
        <time>2011-06-19T15:36:25.54Z</time>
      </trkpt>
      <trkpt lat="42.304993" lon="2.177342">
        <ele>1119.62</ele>
        <time>2011-06-19T23:11:40.85Z</time>
      </trkpt>
      <trkpt lat="42.305080" lon="2.177603">
        <ele>1122.55</ele>
        <time>2011-06-20T05:47:14.34Z</time>
      </trkpt>
      <trkpt lat="42.305157" lon="2.177880">
        <ele>1125.45</ele>
        <time>2011-06-20T12:36:06.57Z</time>
      </trkpt>
      <trkpt lat="42.305210" lon="2.178075">
        <ele>1127.86</ele>
        <time>2011-06-20T17:23:09.44Z</time>
      </trkpt>
      <trkpt lat="42.305313" lon="2.178341">
        <ele>1129.79</ele>
        <time>2011-06-21T00:18:00.85Z</time>
      </trkpt>
      <trkpt lat="42.305408" lon="2.178615">
        <ele>1132.20</ele>
        <time>2011-06-21T07:16:08.04Z</time>
      </trkpt>
      <trkpt lat="42.305424" lon="2.178705">
        <ele>1132.69</ele>
        <time>2011-06-21T09:24:01.67Z</time>
      </trkpt>
      <trkpt lat="42.305508" lon="2.178972">
        <ele>1135.52</ele>
        <time>2011-06-21T16:04:55.74Z</time>
      </trkpt>
      <trkpt lat="42.305538" lon="2.179177">
        <ele>1138.37</ele>
        <time>2011-06-21T20:53:39.95Z</time>
      </trkpt>
      <trkpt lat="42.305542" lon="2.179249">
        <ele>1139.81</ele>
        <time>2011-06-21T22:33:25.63Z</time>
      </trkpt>
      <trkpt lat="42.305573" lon="2.179468">
        <ele>1142.71</ele>
        <time>2011-06-22T03:41:30.49Z</time>
      </trkpt>
      <trkpt lat="42.305588" lon="2.179677">
        <ele>1144.68</ele>
        <time>2011-06-22T08:31:38.16Z</time>
      </trkpt>
      <trkpt lat="42.305561" lon="2.179793">
        <ele>1146.09</ele>
        <time>2011-06-22T11:19:39.68Z</time>
      </trkpt>
      <trkpt lat="42.305473" lon="2.179853">
        <ele>1147.55</ele>
        <time>2011-06-22T14:23:47.08Z</time>
      </trkpt>
      <trkpt lat="42.305428" lon="2.179868">
        <ele>1148.43</ele>
        <time>2011-06-22T15:50:22.33Z</time>
      </trkpt>
      <trkpt lat="42.305351" lon="2.179674">
        <ele>1151.84</ele>
        <time>2011-06-22T20:54:34.87Z</time>
      </trkpt>
      <trkpt lat="42.305347" lon="2.179657">
        <ele>1152.38</ele>
        <time>2011-06-22T21:19:13.80Z</time>
      </trkpt>
      <trkpt lat="42.305241" lon="2.179550">
        <ele>1154.22</ele>
        <time>2011-06-23T01:26:21.67Z</time>
      </trkpt>
      <trkpt lat="42.305126" lon="2.179357">
        <ele>1158.19</ele>
        <time>2011-06-23T07:08:48.49Z</time>
      </trkpt>
      <trkpt lat="42.304974" lon="2.179077">
        <ele>1160.01</ele>
        <time>2011-06-23T15:08:42.94Z</time>
      </trkpt>
      <trkpt lat="42.304821" lon="2.178803">
        <ele>1162.43</ele>
        <time>2011-06-23T23:03:05.39Z</time>
      </trkpt>
      <trkpt lat="42.304688" lon="2.178586">
        <ele>1165.71</ele>
        <time>2011-06-24T05:32:29.75Z</time>
      </trkpt>
      <trkpt lat="42.304581" lon="2.178418">
        <ele>1166.77</ele>
        <time>2011-06-24T10:38:50.02Z</time>
      </trkpt>
      <trkpt lat="42.304581" lon="2.178418">
        <ele>1165.78</ele>
        <time>2011-06-24T10:55:38.87Z</time>
      </trkpt>
      <trkpt lat="42.304577" lon="2.178423">
        <ele>1165.75</ele>
        <time>2011-06-24T11:12:27.71Z</time>
      </trkpt>
      <trkpt lat="42.304577" lon="2.178423">
        <ele>1165.71</ele>
        <time>2011-06-24T11:29:16.56Z</time>
      </trkpt>
      <trkpt lat="42.304577" lon="2.178424">
        <ele>1165.38</ele>
        <time>2011-06-24T11:46:05.40Z</time>
      </trkpt>
      <trkpt lat="42.304577" lon="2.178425">
        <ele>1165.38</ele>
        <time>2011-06-24T12:02:54.25Z</time>
      </trkpt>
      <trkpt lat="42.304573" lon="2.178418">
        <ele>1165.38</ele>
        <time>2011-06-24T12:19:43.10Z</time>
      </trkpt>
      <trkpt lat="42.304497" lon="2.178322">
        <ele>1166.25</ele>
        <time>2011-06-24T15:34:01.37Z</time>
      </trkpt>
      <trkpt lat="42.304310" lon="2.178196">
        <ele>1169.16</ele>
        <time>2011-06-24T22:04:21.46Z</time>
      </trkpt>
      <trkpt lat="42.304150" lon="2.178207">
        <ele>1172.02</ele>
        <time>2011-06-25T03:03:39.67Z</time>
      </trkpt>
      <trkpt lat="42.304020" lon="2.178247">
        <ele>1174.41</ele>
        <time>2011-06-25T07:12:44.44Z</time>
      </trkpt>
      <trkpt lat="42.303993" lon="2.178281">
        <ele>1175.46</ele>
        <time>2011-06-25T08:21:40.26Z</time>
      </trkpt>
      <trkpt lat="42.304031" lon="2.178396">
        <ele>1178.26</ele>
        <time>2011-06-25T11:15:42.39Z</time>
      </trkpt>
      <trkpt lat="42.304138" lon="2.178504">
        <ele>1181.19</ele>
        <time>2011-06-25T15:25:09.78Z</time>
      </trkpt>
      <trkpt lat="42.304111" lon="2.178589">
        <ele>1182.65</ele>
        <time>2011-06-25T17:32:58.97Z</time>
      </trkpt>
      <trkpt lat="42.304054" lon="2.178575">
        <ele>1183.07</ele>
        <time>2011-06-25T19:21:12.88Z</time>
      </trkpt>
      <trkpt lat="42.304020" lon="2.178550">
        <ele>1183.52</ele>
        <time>2011-06-25T20:33:31.18Z</time>
      </trkpt>
      <trkpt lat="42.303951" lon="2.178545">
        <ele>1184.58</ele>
        <time>2011-06-25T22:42:36.76Z</time>
      </trkpt>
      <trkpt lat="42.303753" lon="2.178586">
        <ele>1186.93</ele>
        <time>2011-06-26T04:56:50.14Z</time>
      </trkpt>
      <trkpt lat="42.303596" lon="2.178639">
        <ele>1189.89</ele>
        <time>2011-06-26T09:59:09.12Z</time>
      </trkpt>
      <trkpt lat="42.303570" lon="2.178636">
        <ele>1190.31</ele>
        <time>2011-06-26T10:47:54.16Z</time>
      </trkpt>
      <trkpt lat="42.303497" lon="2.178649">
        <ele>1190.71</ele>
        <time>2011-06-26T13:05:27.69Z</time>
      </trkpt>
      <trkpt lat="42.303471" lon="2.178700">
        <ele>1192.24</ele>
        <time>2011-06-26T14:31:02.93Z</time>
      </trkpt>
      <trkpt lat="42.303509" lon="2.178767">
        <ele>1193.67</ele>
        <time>2011-06-26T16:27:42.71Z</time>
      </trkpt>
      <trkpt lat="42.303585" lon="2.178831">
        <ele>1195.13</ele>
        <time>2011-06-26T19:14:59.02Z</time>
      </trkpt>
      <trkpt lat="42.303631" lon="2.178904">
        <ele>1197.09</ele>
        <time>2011-06-26T21:27:29.73Z</time>
      </trkpt>
      <trkpt lat="42.303741" lon="2.179080">
        <ele>1198.94</ele>
        <time>2011-06-27T02:45:52.99Z</time>
      </trkpt>
      <trkpt lat="42.303772" lon="2.179340">
        <ele>1202.35</ele>
        <time>2011-06-27T08:49:46.14Z</time>
      </trkpt>
      <trkpt lat="42.303764" lon="2.179415">
        <ele>1202.86</ele>
        <time>2011-06-27T10:34:28.22Z</time>
      </trkpt>
      <trkpt lat="42.303753" lon="2.179481">
        <ele>1204.22</ele>
        <time>2011-06-27T12:07:57.05Z</time>
      </trkpt>
      <trkpt lat="42.303757" lon="2.179512">
        <ele>1204.80</ele>
        <time>2011-06-27T12:51:25.87Z</time>
      </trkpt>
      <trkpt lat="42.303764" lon="2.179756">
        <ele>1207.62</ele>
        <time>2011-06-27T18:28:49.47Z</time>
      </trkpt>
      <trkpt lat="42.303776" lon="2.179790">
        <ele>1208.01</ele>
        <time>2011-06-27T19:20:52.69Z</time>
      </trkpt>
      <trkpt lat="42.303738" lon="2.179909">
        <ele>1210.47</ele>
        <time>2011-06-27T22:19:58.48Z</time>
      </trkpt>
      <trkpt lat="42.303631" lon="2.179704">
        <ele>1212.89</ele>
        <time>2011-06-28T04:06:39.77Z</time>
      </trkpt>
      <trkpt lat="42.303493" lon="2.179614">
        <ele>1216.25</ele>
        <time>2011-06-28T08:52:54.18Z</time>
      </trkpt>
      <trkpt lat="42.303482" lon="2.179613">
        <ele>1216.73</ele>
        <time>2011-06-28T09:13:30Z</time>
      </trkpt>
      <trkpt lat="42.303326" lon="2.179591">
        <ele>1219.68</ele>
        <time>2011-06-28T14:06:31.52Z</time>
      </trkpt>
      <trkpt lat="42.303310" lon="2.179589">
        <ele>1219.67</ele>
        <time>2011-06-28T14:36:32.68Z</time>
      </trkpt>
      <trkpt lat="42.303135" lon="2.179592">
        <ele>1223.47</ele>
        <time>2011-06-28T20:03:30.70Z</time>
      </trkpt>
      <trkpt lat="42.302959" lon="2.179591">
        <ele>1225.82</ele>
        <time>2011-06-29T01:32:19.42Z</time>
      </trkpt>
      <trkpt lat="42.302811" lon="2.179666">
        <ele>1228.78</ele>
        <time>2011-06-29T06:27:36.27Z</time>
      </trkpt>
      <trkpt lat="42.302795" lon="2.179705">
        <ele>1229.71</ele>
        <time>2011-06-29T07:29:13.67Z</time>
      </trkpt>
      <trkpt lat="42.302879" lon="2.179754">
        <ele>1231.11</ele>
        <time>2011-06-29T10:20:08.50Z</time>
      </trkpt>
      <trkpt lat="42.302994" lon="2.179905">
        <ele>1234.07</ele>
        <time>2011-06-29T15:19:37.56Z</time>
      </trkpt>
      <trkpt lat="42.303123" lon="2.180081">
        <ele>1235.93</ele>
        <time>2011-06-29T21:02:00.11Z</time>
      </trkpt>
      <trkpt lat="42.303158" lon="2.180314">
        <ele>1238.35</ele>
        <time>2011-06-30T02:30:31.16Z</time>
      </trkpt>
      <trkpt lat="42.303162" lon="2.180462">
        <ele>1241.29</ele>
        <time>2011-06-30T05:55:09.15Z</time>
      </trkpt>
      <trkpt lat="42.303123" lon="2.180597">
        <ele>1243.15</ele>
        <time>2011-06-30T09:15:24.70Z</time>
      </trkpt>
      <trkpt lat="42.303062" lon="2.180478">
        <ele>1245.57</ele>
        <time>2011-06-30T12:35:28.22Z</time>
      </trkpt>
      <trkpt lat="42.302929" lon="2.180337">
        <ele>1248.99</ele>
        <time>2011-06-30T17:51:13.08Z</time>
      </trkpt>
      <trkpt lat="42.302849" lon="2.180294">
        <ele>1249.97</ele>
        <time>2011-06-30T20:32:03.21Z</time>
      </trkpt>
      <trkpt lat="42.302780" lon="2.180257">
        <ele>1251.30</ele>
        <time>2011-06-30T22:50:43.76Z</time>
      </trkpt>
      <trkpt lat="42.302731" lon="2.180295">
        <ele>1252.32</ele>
        <time>2011-07-01T00:36:15.71Z</time>
      </trkpt>
      <trkpt lat="42.302750" lon="2.180353">
        <ele>1252.71</ele>
        <time>2011-07-01T02:03:54.74Z</time>
      </trkpt>
      <trkpt lat="42.302742" lon="2.180265">
        <ele>1251.32</ele>
        <time>2011-07-01T04:06:25.25Z</time>
      </trkpt>
      <trkpt lat="42.302742" lon="2.180276">
        <ele>1251.85</ele>
        <time>2011-07-01T04:23:14.09Z</time>
      </trkpt>
      <trkpt lat="42.302742" lon="2.180321">
        <ele>1251.90</ele>
        <time>2011-07-01T05:25:24.80Z</time>
      </trkpt>
      <trkpt lat="42.302822" lon="2.180466">
        <ele>1255.11</ele>
        <time>2011-07-01T09:35:22.29Z</time>
      </trkpt>
      <trkpt lat="42.302845" lon="2.180653">
        <ele>1257.59</ele>
        <time>2011-07-01T13:57:18.34Z</time>
      </trkpt>
      <trkpt lat="42.302799" lon="2.180849">
        <ele>1260.49</ele>
        <time>2011-07-01T18:41:26.12Z</time>
      </trkpt>
      <trkpt lat="42.302780" lon="2.180914">
        <ele>1261.46</ele>
        <time>2011-07-01T20:18:00.52Z</time>
      </trkpt>
      <trkpt lat="42.302757" lon="2.180980">
        <ele>1262.44</ele>
        <time>2011-07-01T21:58:49.20Z</time>
      </trkpt>
      <trkpt lat="42.302727" lon="2.181132">
        <ele>1264.32</ele>
        <time>2011-07-02T01:36:11.68Z</time>
      </trkpt>
      <trkpt lat="42.302708" lon="2.181215">
        <ele>1265.21</ele>
        <time>2011-07-02T03:36:14.82Z</time>
      </trkpt>
      <trkpt lat="42.302677" lon="2.181262">
        <ele>1265.71</ele>
        <time>2011-07-02T05:03:15.73Z</time>
      </trkpt>
      <trkpt lat="42.302681" lon="2.181309">
        <ele>1265.76</ele>
        <time>2011-07-02T06:08:37.97Z</time>
      </trkpt>
      <trkpt lat="42.302666" lon="2.181367">
        <ele>1266.77</ele>
        <time>2011-07-02T07:33:31.94Z</time>
      </trkpt>
      <trkpt lat="42.302639" lon="2.181509">
        <ele>1268.15</ele>
        <time>2011-07-02T10:56:07.22Z</time>
      </trkpt>
      <trkpt lat="42.302631" lon="2.181513">
        <ele>1267.64</ele>
        <time>2011-07-02T11:12:56.07Z</time>
      </trkpt>
      <trkpt lat="42.302597" lon="2.181679">
        <ele>1270.01</ele>
        <time>2011-07-02T15:10:56.24Z</time>
      </trkpt>
      <trkpt lat="42.302593" lon="2.181740">
        <ele>1271.04</ele>
        <time>2011-07-02T16:35:33.27Z</time>
      </trkpt>
      <trkpt lat="42.302525" lon="2.181948">
        <ele>1274.94</ele>
        <time>2011-07-02T21:49:47.01Z</time>
      </trkpt>
      <trkpt lat="42.302509" lon="2.182013">
        <ele>1275.89</ele>
        <time>2011-07-02T23:24:26.45Z</time>
      </trkpt>
      <trkpt lat="42.302483" lon="2.182108">
        <ele>1277.37</ele>
        <time>2011-07-03T01:44:24.35Z</time>
      </trkpt>
      <trkpt lat="42.302479" lon="2.182138">
        <ele>1277.72</ele>
        <time>2011-07-03T02:26:31.60Z</time>
      </trkpt>
      <trkpt lat="42.302464" lon="2.182168">
        <ele>1278.71</ele>
        <time>2011-07-03T03:16:33.77Z</time>
      </trkpt>
      <trkpt lat="42.302441" lon="2.182347">
        <ele>1282.16</ele>
        <time>2011-07-03T07:27:36.05Z</time>
      </trkpt>
      <trkpt lat="42.302441" lon="2.182353">
        <ele>1282.16</ele>
        <time>2011-07-03T07:44:24.90Z</time>
      </trkpt>
      <trkpt lat="42.302402" lon="2.182519">
        <ele>1284.51</ele>
        <time>2011-07-03T11:45:04.79Z</time>
      </trkpt>
      <trkpt lat="42.302368" lon="2.182617">
        <ele>1285.97</ele>
        <time>2011-07-03T14:14:38.97Z</time>
      </trkpt>
      <trkpt lat="42.302326" lon="2.182748">
        <ele>1288.34</ele>
        <time>2011-07-03T17:31:56.07Z</time>
      </trkpt>
      <trkpt lat="42.302319" lon="2.182832">
        <ele>1288.88</ele>
        <time>2011-07-03T19:28:44.16Z</time>
      </trkpt>
      <trkpt lat="42.302280" lon="2.182882">
        <ele>1290.28</ele>
        <time>2011-07-03T21:09:08.67Z</time>
      </trkpt>
      <trkpt lat="42.302254" lon="2.182957">
        <ele>1291.29</ele>
        <time>2011-07-03T23:03:35.70Z</time>
      </trkpt>
      <trkpt lat="42.302189" lon="2.183141">
        <ele>1294.61</ele>
        <time>2011-07-04T03:45:21.01Z</time>
      </trkpt>
      <trkpt lat="42.302143" lon="2.183219">
        <ele>1296.03</ele>
        <time>2011-07-04T06:03:11.73Z</time>
      </trkpt>
      <trkpt lat="42.302074" lon="2.183384">
        <ele>1299.41</ele>
        <time>2011-07-04T10:25:06.32Z</time>
      </trkpt>
      <trkpt lat="42.302071" lon="2.183475">
        <ele>1299.42</ele>
        <time>2011-07-04T12:30:58.21Z</time>
      </trkpt>
      <trkpt lat="42.302040" lon="2.183537">
        <ele>1300.81</ele>
        <time>2011-07-04T14:14:22.73Z</time>
      </trkpt>
      <trkpt lat="42.301987" lon="2.183707">
        <ele>1304.27</ele>
        <time>2011-07-04T18:29:17.65Z</time>
      </trkpt>
      <trkpt lat="42.301987" lon="2.183745">
        <ele>1304.76</ele>
        <time>2011-07-04T19:21:48.06Z</time>
      </trkpt>
      <trkpt lat="42.301941" lon="2.183874">
        <ele>1307.14</ele>
        <time>2011-07-04T22:39:41.01Z</time>
      </trkpt>
      <trkpt lat="42.301884" lon="2.184065">
        <ele>1310.43</ele>
        <time>2011-07-05T03:24:16.45Z</time>
      </trkpt>
      <trkpt lat="42.301834" lon="2.184250">
        <ele>1312.39</ele>
        <time>2011-07-05T07:56:25.99Z</time>
      </trkpt>
      <trkpt lat="42.301834" lon="2.184274">
        <ele>1313.34</ele>
        <time>2011-07-05T08:29:35.72Z</time>
      </trkpt>
      <trkpt lat="42.301819" lon="2.184329">
        <ele>1314.32</ele>
        <time>2011-07-05T09:50:35.67Z</time>
      </trkpt>
      <trkpt lat="42.301815" lon="2.184366">
        <ele>1314.71</ele>
        <time>2011-07-05T10:42:15.78Z</time>
      </trkpt>
      <trkpt lat="42.301743" lon="2.184580">
        <ele>1319.11</ele>
        <time>2011-07-05T16:07:07.08Z</time>
      </trkpt>
      <trkpt lat="42.301720" lon="2.184714">
        <ele>1321.02</ele>
        <time>2011-07-05T19:17:11.71Z</time>
      </trkpt>
      <trkpt lat="42.301640" lon="2.184849">
        <ele>1323.96</ele>
        <time>2011-07-05T23:16:13.41Z</time>
      </trkpt>
      <trkpt lat="42.301533" lon="2.184990">
        <ele>1326.83</ele>
        <time>2011-07-06T03:55:21.78Z</time>
      </trkpt>
      <trkpt lat="42.301464" lon="2.185133">
        <ele>1328.73</ele>
        <time>2011-07-06T07:51:17.25Z</time>
      </trkpt>
      <trkpt lat="42.301441" lon="2.185179">
        <ele>1329.67</ele>
        <time>2011-07-06T09:08:00.64Z</time>
      </trkpt>
      <trkpt lat="42.301327" lon="2.185355">
        <ele>1332.59</ele>
        <time>2011-07-06T14:31:16.73Z</time>
      </trkpt>
      <trkpt lat="42.301289" lon="2.185393">
        <ele>1333.03</ele>
        <time>2011-07-06T15:59:34.77Z</time>
      </trkpt>
      <trkpt lat="42.301220" lon="2.185538">
        <ele>1334.92</ele>
        <time>2011-07-06T19:57:49.44Z</time>
      </trkpt>
      <trkpt lat="42.301220" lon="2.185538">
        <ele>1334.96</ele>
        <time>2011-07-06T20:14:38.29Z</time>
      </trkpt>
      <trkpt lat="42.301216" lon="2.185535">
        <ele>1334.51</ele>
        <time>2011-07-06T20:31:27.13Z</time>
      </trkpt>
      <trkpt lat="42.301216" lon="2.185535">
        <ele>1334.51</ele>
        <time>2011-07-06T20:48:15.98Z</time>
      </trkpt>
      <trkpt lat="42.301147" lon="2.185634">
        <ele>1335.44</ele>
        <time>2011-07-06T23:56:13.81Z</time>
      </trkpt>
      <trkpt lat="42.301064" lon="2.185821">
        <ele>1337.39</ele>
        <time>2011-07-07T04:57:34.78Z</time>
      </trkpt>
      <trkpt lat="42.301052" lon="2.185871">
        <ele>1338.36</ele>
        <time>2011-07-07T06:10:12.90Z</time>
      </trkpt>
      <trkpt lat="42.301014" lon="2.186058">
        <ele>1340.24</ele>
        <time>2011-07-07T10:38:10.99Z</time>
      </trkpt>
      <trkpt lat="42.300991" lon="2.186245">
        <ele>1343.19</ele>
        <time>2011-07-07T15:00:07.48Z</time>
      </trkpt>
      <trkpt lat="42.300972" lon="2.186390">
        <ele>1345.57</ele>
        <time>2011-07-07T18:23:36.19Z</time>
      </trkpt>
      <trkpt lat="42.300945" lon="2.186481">
        <ele>1346.98</ele>
        <time>2011-07-07T20:39:05.15Z</time>
      </trkpt>
      <trkpt lat="42.300865" lon="2.186650">
        <ele>1350.36</ele>
        <time>2011-07-08T01:16:20.43Z</time>
      </trkpt>
      <trkpt lat="42.300823" lon="2.186747">
        <ele>1351.82</ele>
        <time>2011-07-08T03:51:39.14Z</time>
      </trkpt>
      <trkpt lat="42.300755" lon="2.186824">
        <ele>1353.21</ele>
        <time>2011-07-08T06:37:21.69Z</time>
      </trkpt>
      <trkpt lat="42.300724" lon="2.186870">
        <ele>1354.21</ele>
        <time>2011-07-08T08:03:21.11Z</time>
      </trkpt>
      <trkpt lat="42.300613" lon="2.187029">
        <ele>1356.20</ele>
        <time>2011-07-08T13:05:28.06Z</time>
      </trkpt>
      <trkpt lat="42.300518" lon="2.187185">
        <ele>1358.54</ele>
        <time>2011-07-08T17:44:41.47Z</time>
      </trkpt>
      <trkpt lat="42.300419" lon="2.187375">
        <ele>1361.82</ele>
        <time>2011-07-08T23:05:50.35Z</time>
      </trkpt>
      <trkpt lat="42.300304" lon="2.187530">
        <ele>1364.71</ele>
        <time>2011-07-09T04:09:12.37Z</time>
      </trkpt>
      <trkpt lat="42.300251" lon="2.187600">
        <ele>1366.23</ele>
        <time>2011-07-09T06:27:37.58Z</time>
      </trkpt>
      <trkpt lat="42.300217" lon="2.187665">
        <ele>1367.17</ele>
        <time>2011-07-09T08:17:38.08Z</time>
      </trkpt>
      <trkpt lat="42.300129" lon="2.187839">
        <ele>1369.58</ele>
        <time>2011-07-09T13:08:54.16Z</time>
      </trkpt>
      <trkpt lat="42.300114" lon="2.187910">
        <ele>1370.54</ele>
        <time>2011-07-09T14:50:56.06Z</time>
      </trkpt>
      <trkpt lat="42.300076" lon="2.188012">
        <ele>1371.98</ele>
        <time>2011-07-09T17:28:44.87Z</time>
      </trkpt>
      <trkpt lat="42.300056" lon="2.188171">
        <ele>1373.91</ele>
        <time>2011-07-09T21:11:36.54Z</time>
      </trkpt>
      <trkpt lat="42.300011" lon="2.188237">
        <ele>1374.81</ele>
        <time>2011-07-09T23:15:38.74Z</time>
      </trkpt>
      <trkpt lat="42.299995" lon="2.188280">
        <ele>1376.33</ele>
        <time>2011-07-10T00:22:09.51Z</time>
      </trkpt>
      <trkpt lat="42.299938" lon="2.188436">
        <ele>1376.86</ele>
        <time>2011-07-10T04:22:35.33Z</time>
      </trkpt>
      <trkpt lat="42.299942" lon="2.188516">
        <ele>1377.22</ele>
        <time>2011-07-10T06:13:23.13Z</time>
      </trkpt>
      <trkpt lat="42.299961" lon="2.188637">
        <ele>1378.27</ele>
        <time>2011-07-10T09:04:18.62Z</time>
      </trkpt>
      <trkpt lat="42.299984" lon="2.188863">
        <ele>1377.71</ele>
        <time>2011-07-10T14:19:32.43Z</time>
      </trkpt>
      <trkpt lat="42.300007" lon="2.189157">
        <ele>1377.77</ele>
        <time>2011-07-10T21:08:03.41Z</time>
      </trkpt>
      <trkpt lat="42.300011" lon="2.189214">
        <ele>1378.79</ele>
        <time>2011-07-10T22:27:10.40Z</time>
      </trkpt>
      <trkpt lat="42.299969" lon="2.189275">
        <ele>1379.24</ele>
        <time>2011-07-11T00:22:19.97Z</time>
      </trkpt>
      <trkpt lat="42.299911" lon="2.189065">
        <ele>1381.62</ele>
        <time>2011-07-11T05:32:04.98Z</time>
      </trkpt>
      <trkpt lat="42.299862" lon="2.188963">
        <ele>1383.51</ele>
        <time>2011-07-11T08:20:08.81Z</time>
      </trkpt>
      <trkpt lat="42.299839" lon="2.188931">
        <ele>1384.41</ele>
        <time>2011-07-11T09:21:48.23Z</time>
      </trkpt>
      <trkpt lat="42.299694" lon="2.188810">
        <ele>1387.32</ele>
        <time>2011-07-11T14:40:08.50Z</time>
      </trkpt>
      <trkpt lat="42.299526" lon="2.188722">
        <ele>1390.79</ele>
        <time>2011-07-11T20:16:44.23Z</time>
      </trkpt>
      <trkpt lat="42.299412" lon="2.188668">
        <ele>1394.17</ele>
        <time>2011-07-12T00:02:24.54Z</time>
      </trkpt>
      <trkpt lat="42.299278" lon="2.188641">
        <ele>1396.56</ele>
        <time>2011-07-12T04:15:31.02Z</time>
      </trkpt>
      <trkpt lat="42.299114" lon="2.188638">
        <ele>1398.94</ele>
        <time>2011-07-12T09:21:56.12Z</time>
      </trkpt>
      <trkpt lat="42.298962" lon="2.188651">
        <ele>1401.75</ele>
        <time>2011-07-12T14:06:28.47Z</time>
      </trkpt>
      <trkpt lat="42.298878" lon="2.188649">
        <ele>1402.78</ele>
        <time>2011-07-12T16:43:25.83Z</time>
      </trkpt>
      <trkpt lat="42.298843" lon="2.188623">
        <ele>1403.25</ele>
        <time>2011-07-12T17:58:02.33Z</time>
      </trkpt>
      <trkpt lat="42.298672" lon="2.188613">
        <ele>1405.15</ele>
        <time>2011-07-12T23:17:48.32Z</time>
      </trkpt>
      <trkpt lat="42.298637" lon="2.188624">
        <ele>1406.11</ele>
        <time>2011-07-13T00:24:56.22Z</time>
      </trkpt>
      <trkpt lat="42.298595" lon="2.188651">
        <ele>1406.61</ele>
        <time>2011-07-13T01:51:49.28Z</time>
      </trkpt>
      <trkpt lat="42.298443" lon="2.188806">
        <ele>1408.52</ele>
        <time>2011-07-13T07:47:30.64Z</time>
      </trkpt>
      <trkpt lat="42.298389" lon="2.188859">
        <ele>1409.96</ele>
        <time>2011-07-13T09:52:10.55Z</time>
      </trkpt>
      <trkpt lat="42.298298" lon="2.189039">
        <ele>1411.90</ele>
        <time>2011-07-13T14:53:27.42Z</time>
      </trkpt>
      <trkpt lat="42.298141" lon="2.189222">
        <ele>1414.21</ele>
        <time>2011-07-13T21:20:43.71Z</time>
      </trkpt>
      <trkpt lat="42.298008" lon="2.189398">
        <ele>1416.67</ele>
        <time>2011-07-14T03:08:25.12Z</time>
      </trkpt>
      <trkpt lat="42.297935" lon="2.189484">
        <ele>1418.68</ele>
        <time>2011-07-14T06:09:18.73Z</time>
      </trkpt>
      <trkpt lat="42.297836" lon="2.189616">
        <ele>1420.57</ele>
        <time>2011-07-14T10:29:04.84Z</time>
      </trkpt>
      <trkpt lat="42.297817" lon="2.189741">
        <ele>1421.56</ele>
        <time>2011-07-14T13:25:25.30Z</time>
      </trkpt>
      <trkpt lat="42.297817" lon="2.189741">
        <ele>1421.94</ele>
        <time>2011-07-14T13:42:14.15Z</time>
      </trkpt>
      <trkpt lat="42.297817" lon="2.189739">
        <ele>1422.42</ele>
        <time>2011-07-14T13:59:02.99Z</time>
      </trkpt>
      <trkpt lat="42.297817" lon="2.189739">
        <ele>1421.91</ele>
        <time>2011-07-14T14:15:51.84Z</time>
      </trkpt>
      <trkpt lat="42.297817" lon="2.189739">
        <ele>1421.99</ele>
        <time>2011-07-14T14:32:40.69Z</time>
      </trkpt>
      <trkpt lat="42.297821" lon="2.189771">
        <ele>1421.92</ele>
        <time>2011-07-14T15:17:31.46Z</time>
      </trkpt>
      <trkpt lat="42.297836" lon="2.189786">
        <ele>1421.96</ele>
        <time>2011-07-14T15:52:22.84Z</time>
      </trkpt>
      <trkpt lat="42.297836" lon="2.189851">
        <ele>1421.02</ele>
        <time>2011-07-14T17:22:12.06Z</time>
      </trkpt>
      <trkpt lat="42.297848" lon="2.189903">
        <ele>1420.04</ele>
        <time>2011-07-14T18:37:28.39Z</time>
      </trkpt>
      <trkpt lat="42.297832" lon="2.190220">
        <ele>1417.64</ele>
        <time>2011-07-15T01:56:32.32Z</time>
      </trkpt>
      <trkpt lat="42.297764" lon="2.190664">
        <ele>1416.22</ele>
        <time>2011-07-15T12:23:05.72Z</time>
      </trkpt>
      <trkpt lat="42.297684" lon="2.191097">
        <ele>1416.30</ele>
        <time>2011-07-15T22:39:49.32Z</time>
      </trkpt>
      <trkpt lat="42.297752" lon="2.191505">
        <ele>1416.63</ele>
        <time>2011-07-16T08:17:45.24Z</time>
      </trkpt>
      <trkpt lat="42.298031" lon="2.191873">
        <ele>1415.22</ele>
        <time>2011-07-16T20:25:57.49Z</time>
      </trkpt>
      <trkpt lat="42.298065" lon="2.191941">
        <ele>1414.71</ele>
        <time>2011-07-16T22:19:22.75Z</time>
      </trkpt>
      <trkpt lat="42.298088" lon="2.192057">
        <ele>1414.28</ele>
        <time>2011-07-17T01:05:19.96Z</time>
      </trkpt>
      <trkpt lat="42.298111" lon="2.192155">
        <ele>1413.86</ele>
        <time>2011-07-17T03:27:24.43Z</time>
      </trkpt>
      <trkpt lat="42.298065" lon="2.192536">
        <ele>1412.34</ele>
        <time>2011-07-17T12:20:51.49Z</time>
      </trkpt>
      <trkpt lat="42.298012" lon="2.193152">
        <ele>1410.94</ele>
        <time>2011-07-18T02:37:48.92Z</time>
      </trkpt>
      <trkpt lat="42.297974" lon="2.193655">
        <ele>1408.54</ele>
        <time>2011-07-18T14:16:30.05Z</time>
      </trkpt>
      <trkpt lat="42.297962" lon="2.193828">
        <ele>1408.54</ele>
        <time>2011-07-18T18:16:36.56Z</time>
      </trkpt>
      <trkpt lat="42.298016" lon="2.193885">
        <ele>1408.52</ele>
        <time>2011-07-18T20:24:36.02Z</time>
      </trkpt>
      <trkpt lat="42.298244" lon="2.194065">
        <ele>1407.08</ele>
        <time>2011-07-19T04:37:51.73Z</time>
      </trkpt>
      <trkpt lat="42.298283" lon="2.194294">
        <ele>1405.19</ele>
        <time>2011-07-19T10:02:35.02Z</time>
      </trkpt>
      <trkpt lat="42.298164" lon="2.194597">
        <ele>1403.22</ele>
        <time>2011-07-19T17:56:38.71Z</time>
      </trkpt>
      <trkpt lat="42.298164" lon="2.194597">
        <ele>1403.71</ele>
        <time>2011-07-19T18:13:27.56Z</time>
      </trkpt>
      <trkpt lat="42.298164" lon="2.194595">
        <ele>1403.75</ele>
        <time>2011-07-19T18:30:16.41Z</time>
      </trkpt>
      <trkpt lat="42.298168" lon="2.194584">
        <ele>1403.76</ele>
        <time>2011-07-19T18:47:12.68Z</time>
      </trkpt>
      <trkpt lat="42.298157" lon="2.194577">
        <ele>1404.11</ele>
        <time>2011-07-19T19:09:55.48Z</time>
      </trkpt>
      <trkpt lat="42.298176" lon="2.194573">
        <ele>1404.17</ele>
        <time>2011-07-19T19:45:50.93Z</time>
      </trkpt>
      <trkpt lat="42.298176" lon="2.194596">
        <ele>1404.18</ele>
        <time>2011-07-19T20:17:37.87Z</time>
      </trkpt>
      <trkpt lat="42.298206" lon="2.194695">
        <ele>1404.12</ele>
        <time>2011-07-19T22:45:28.18Z</time>
      </trkpt>
      <trkpt lat="42.298206" lon="2.194695">
        <ele>1403.76</ele>
        <time>2011-07-19T23:02:17.02Z</time>
      </trkpt>
      <trkpt lat="42.298225" lon="2.194925">
        <ele>1402.76</ele>
        <time>2011-07-20T04:22:05.02Z</time>
      </trkpt>
      <trkpt lat="42.298302" lon="2.195055">
        <ele>1400.32</ele>
        <time>2011-07-20T08:12:13.40Z</time>
      </trkpt>
      <trkpt lat="42.298355" lon="2.195164">
        <ele>1397.91</ele>
        <time>2011-07-20T11:12:28.52Z</time>
      </trkpt>
      <trkpt lat="42.298401" lon="2.195346">
        <ele>1395.51</ele>
        <time>2011-07-20T15:38:14.88Z</time>
      </trkpt>
      <trkpt lat="42.298412" lon="2.195373">
        <ele>1394.58</ele>
        <time>2011-07-20T16:20:50.58Z</time>
      </trkpt>
      <trkpt lat="42.298443" lon="2.195436">
        <ele>1394.18</ele>
        <time>2011-07-20T18:05:24.20Z</time>
      </trkpt>
      <trkpt lat="42.298462" lon="2.195504">
        <ele>1394.13</ele>
        <time>2011-07-20T19:45:50.97Z</time>
      </trkpt>
      <trkpt lat="42.298470" lon="2.195533">
        <ele>1393.66</ele>
        <time>2011-07-20T20:28:37.15Z</time>
      </trkpt>
      <trkpt lat="42.298481" lon="2.195667">
        <ele>1393.68</ele>
        <time>2011-07-20T23:34:55.33Z</time>
      </trkpt>
      <trkpt lat="42.298557" lon="2.195667">
        <ele>1394.15</ele>
        <time>2011-07-21T01:56:54.48Z</time>
      </trkpt>
      <trkpt lat="42.298634" lon="2.195637">
        <ele>1394.59</ele>
        <time>2011-07-21T04:26:36.96Z</time>
      </trkpt>
      <trkpt lat="42.298832" lon="2.195499">
        <ele>1395.10</ele>
        <time>2011-07-21T11:22:47.14Z</time>
      </trkpt>
      <trkpt lat="42.298855" lon="2.195481">
        <ele>1394.52</ele>
        <time>2011-07-21T12:12:26.09Z</time>
      </trkpt>
      <trkpt lat="42.298912" lon="2.195469">
        <ele>1391.73</ele>
        <time>2011-07-21T14:00:12.44Z</time>
      </trkpt>
      <trkpt lat="42.298977" lon="2.195482">
        <ele>1390.21</ele>
        <time>2011-07-21T16:02:57.84Z</time>
      </trkpt>
      <trkpt lat="42.299030" lon="2.195508">
        <ele>1389.23</ele>
        <time>2011-07-21T17:48:17.82Z</time>
      </trkpt>
      <trkpt lat="42.299126" lon="2.195584">
        <ele>1386.83</ele>
        <time>2011-07-21T21:16:07.93Z</time>
      </trkpt>
      <trkpt lat="42.299171" lon="2.195645">
        <ele>1385.41</ele>
        <time>2011-07-21T23:15:10.92Z</time>
      </trkpt>
      <trkpt lat="42.299339" lon="2.195837">
        <ele>1382.08</ele>
        <time>2011-07-22T06:06:09.33Z</time>
      </trkpt>
      <trkpt lat="42.299385" lon="2.195862">
        <ele>1382.08</ele>
        <time>2011-07-22T07:38:46.65Z</time>
      </trkpt>
      <trkpt lat="42.299660" lon="2.196061">
        <ele>1378.74</ele>
        <time>2011-07-22T17:21:30.14Z</time>
      </trkpt>
      <trkpt lat="42.299755" lon="2.196118">
        <ele>1376.32</ele>
        <time>2011-07-22T20:35:40.59Z</time>
      </trkpt>
      <trkpt lat="42.299908" lon="2.196162">
        <ele>1372.48</ele>
        <time>2011-07-23T01:27:54.65Z</time>
      </trkpt>
      <trkpt lat="42.299931" lon="2.196166">
        <ele>1371.96</ele>
        <time>2011-07-23T02:11:14.05Z</time>
      </trkpt>
      <trkpt lat="42.300018" lon="2.196173">
        <ele>1368.63</ele>
        <time>2011-07-23T04:54:03.48Z</time>
      </trkpt>
      <trkpt lat="42.300106" lon="2.196171">
        <ele>1364.71</ele>
        <time>2011-07-23T07:38:29.15Z</time>
      </trkpt>
      <trkpt lat="42.300198" lon="2.196171">
        <ele>1360.98</ele>
        <time>2011-07-23T10:30:21.80Z</time>
      </trkpt>
      <trkpt lat="42.300343" lon="2.196228">
        <ele>1358.60</ele>
        <time>2011-07-23T15:12:28.50Z</time>
      </trkpt>
      <trkpt lat="42.300369" lon="2.196528">
        <ele>1354.64</ele>
        <time>2011-07-23T22:09:50.99Z</time>
      </trkpt>
      <trkpt lat="42.300316" lon="2.196911">
        <ele>1353.75</ele>
        <time>2011-07-24T07:08:15.65Z</time>
      </trkpt>
      <trkpt lat="42.300228" lon="2.197519">
        <ele>1352.76</ele>
        <time>2011-07-24T21:24:19.72Z</time>
      </trkpt>
      <trkpt lat="42.300220" lon="2.197710">
        <ele>1351.33</ele>
        <time>2011-07-25T01:48:40.51Z</time>
      </trkpt>
      <trkpt lat="42.300247" lon="2.197691">
        <ele>1349.81</ele>
        <time>2011-07-25T02:45:32.45Z</time>
      </trkpt>
      <trkpt lat="42.300365" lon="2.197476">
        <ele>1349.43</ele>
        <time>2011-07-25T08:55:29.14Z</time>
      </trkpt>
      <trkpt lat="42.300396" lon="2.197412">
        <ele>1348.99</ele>
        <time>2011-07-25T10:41:11.82Z</time>
      </trkpt>
      <trkpt lat="42.300510" lon="2.197158">
        <ele>1346.91</ele>
        <time>2011-07-25T17:31:44.27Z</time>
      </trkpt>
      <trkpt lat="42.300549" lon="2.197083">
        <ele>1346.51</ele>
        <time>2011-07-25T19:38:25.31Z</time>
      </trkpt>
      <trkpt lat="42.300678" lon="2.197071">
        <ele>1342.63</ele>
        <time>2011-07-25T23:39:59.62Z</time>
      </trkpt>
      <trkpt lat="42.300713" lon="2.197069">
        <ele>1342.68</ele>
        <time>2011-07-26T00:45:26.41Z</time>
      </trkpt>
      <trkpt lat="42.300922" lon="2.196925">
        <ele>1338.37</ele>
        <time>2011-07-26T08:03:40.63Z</time>
      </trkpt>
      <trkpt lat="42.301121" lon="2.196838">
        <ele>1335.99</ele>
        <time>2011-07-26T14:34:24.50Z</time>
      </trkpt>
      <trkpt lat="42.301311" lon="2.196882">
        <ele>1333.53</ele>
        <time>2011-07-26T20:34:32.50Z</time>
      </trkpt>
      <trkpt lat="42.301529" lon="2.197185">
        <ele>1330.64</ele>
        <time>2011-07-27T06:18:38.02Z</time>
      </trkpt>
      <trkpt lat="42.301701" lon="2.197223">
        <ele>1327.27</ele>
        <time>2011-07-27T11:44:13.88Z</time>
      </trkpt>
      <trkpt lat="42.301785" lon="2.197320">
        <ele>1324.45</ele>
        <time>2011-07-27T15:10:36.57Z</time>
      </trkpt>
      <trkpt lat="42.301800" lon="2.197303">
        <ele>1323.40</ele>
        <time>2011-07-27T15:47:10.55Z</time>
      </trkpt>
      <trkpt lat="42.302010" lon="2.197175">
        <ele>1319.11</ele>
        <time>2011-07-27T22:57:31.71Z</time>
      </trkpt>
      <trkpt lat="42.302094" lon="2.197101">
        <ele>1317.11</ele>
        <time>2011-07-28T02:04:49.92Z</time>
      </trkpt>
      <trkpt lat="42.302162" lon="2.197102">
        <ele>1315.73</ele>
        <time>2011-07-28T04:11:52.77Z</time>
      </trkpt>
      <trkpt lat="42.302197" lon="2.197131">
        <ele>1315.22</ele>
        <time>2011-07-28T05:28:34.14Z</time>
      </trkpt>
      <trkpt lat="42.302197" lon="2.197131">
        <ele>1314.80</ele>
        <time>2011-07-28T05:45:22.99Z</time>
      </trkpt>
      <trkpt lat="42.302200" lon="2.197135">
        <ele>1314.78</ele>
        <time>2011-07-28T06:02:11.83Z</time>
      </trkpt>
      <trkpt lat="42.302250" lon="2.197374">
        <ele>1311.92</ele>
        <time>2011-07-28T11:45:23.62Z</time>
      </trkpt>
      <trkpt lat="42.302349" lon="2.197532">
        <ele>1309.52</ele>
        <time>2011-07-28T16:31:31.45Z</time>
      </trkpt>
      <trkpt lat="42.302547" lon="2.197863">
        <ele>1307.55</ele>
        <time>2011-07-29T02:19:45.07Z</time>
      </trkpt>
      <trkpt lat="42.302441" lon="2.198112">
        <ele>1310.47</ele>
        <time>2011-07-29T08:56:43.72Z</time>
      </trkpt>
      <trkpt lat="42.302406" lon="2.198120">
        <ele>1310.40</ele>
        <time>2011-07-29T10:03:02.68Z</time>
      </trkpt>
      <trkpt lat="42.302414" lon="2.198128">
        <ele>1310.42</ele>
        <time>2011-07-29T10:21:38.05Z</time>
      </trkpt>
      <trkpt lat="42.302296" lon="2.198311">
        <ele>1309.91</ele>
        <time>2011-07-29T15:57:06Z</time>
      </trkpt>
      <trkpt lat="42.302074" lon="2.198482">
        <ele>1309.95</ele>
        <time>2011-07-29T23:54:25.81Z</time>
      </trkpt>
      <trkpt lat="42.301907" lon="2.198657">
        <ele>1309.96</ele>
        <time>2011-07-30T06:29:09.63Z</time>
      </trkpt>
      <trkpt lat="42.301819" lon="2.198774">
        <ele>1311.44</ele>
        <time>2011-07-30T10:19:44.13Z</time>
      </trkpt>
      <trkpt lat="42.301785" lon="2.198863">
        <ele>1313.82</ele>
        <time>2011-07-30T12:38:08.90Z</time>
      </trkpt>
      <trkpt lat="42.301735" lon="2.198927">
        <ele>1315.71</ele>
        <time>2011-07-30T14:46:46.81Z</time>
      </trkpt>
      <trkpt lat="42.301682" lon="2.199093">
        <ele>1318.63</ele>
        <time>2011-07-30T18:56:36.76Z</time>
      </trkpt>
      <trkpt lat="42.301685" lon="2.199094">
        <ele>1318.61</ele>
        <time>2011-07-30T19:13:25.60Z</time>
      </trkpt>
      <trkpt lat="42.301586" lon="2.199234">
        <ele>1320.04</ele>
        <time>2011-07-30T23:41:03.91Z</time>
      </trkpt>
      <trkpt lat="42.301418" lon="2.199449">
        <ele>1322.06</ele>
        <time>2011-07-31T06:53:13.84Z</time>
      </trkpt>
      <trkpt lat="42.301304" lon="2.199670">
        <ele>1325.81</ele>
        <time>2011-07-31T13:05:32.22Z</time>
      </trkpt>
      <trkpt lat="42.301292" lon="2.199688">
        <ele>1325.81</ele>
        <time>2011-07-31T13:39:01.29Z</time>
      </trkpt>
      <trkpt lat="42.301128" lon="2.199835">
        <ele>1327.72</ele>
        <time>2011-07-31T19:46:37.57Z</time>
      </trkpt>
      <trkpt lat="42.301105" lon="2.199897">
        <ele>1328.74</ele>
        <time>2011-07-31T21:22:28.12Z</time>
      </trkpt>
      <trkpt lat="42.301094" lon="2.200267">
        <ele>1331.19</ele>
        <time>2011-08-01T05:54:08.39Z</time>
      </trkpt>
      <trkpt lat="42.301018" lon="2.200674">
        <ele>1333.58</ele>
        <time>2011-08-01T15:34:10.28Z</time>
      </trkpt>
      <trkpt lat="42.300865" lon="2.201013">
        <ele>1336.44</ele>
        <time>2011-08-02T00:42:55.23Z</time>
      </trkpt>
      <trkpt lat="42.300686" lon="2.201291">
        <ele>1339.39</ele>
        <time>2011-08-02T09:12:13.65Z</time>
      </trkpt>
      <trkpt lat="42.300659" lon="2.201318">
        <ele>1339.78</ele>
        <time>2011-08-02T10:14:58.06Z</time>
      </trkpt>
      <trkpt lat="42.300503" lon="2.201352">
        <ele>1341.26</ele>
        <time>2011-08-02T15:10:10.47Z</time>
      </trkpt>
      <trkpt lat="42.300392" lon="2.201335">
        <ele>1343.61</ele>
        <time>2011-08-02T18:38:52.48Z</time>
      </trkpt>
      <trkpt lat="42.300247" lon="2.201271">
        <ele>1346.52</ele>
        <time>2011-08-02T23:23:50.29Z</time>
      </trkpt>
      <trkpt lat="42.300079" lon="2.201195">
        <ele>1349.41</ele>
        <time>2011-08-03T04:54:48.26Z</time>
      </trkpt>
      <trkpt lat="42.299911" lon="2.201208">
        <ele>1352.78</ele>
        <time>2011-08-03T10:09:10.88Z</time>
      </trkpt>
      <trkpt lat="42.299805" lon="2.201216">
        <ele>1354.66</ele>
        <time>2011-08-03T13:27:31.34Z</time>
      </trkpt>
      <trkpt lat="42.299664" lon="2.201255">
        <ele>1356.16</ele>
        <time>2011-08-03T17:56:23.95Z</time>
      </trkpt>
      <trkpt lat="42.299469" lon="2.201334">
        <ele>1359.06</ele>
        <time>2011-08-04T00:16:42.51Z</time>
      </trkpt>
      <trkpt lat="42.299309" lon="2.201475">
        <ele>1359.45</ele>
        <time>2011-08-04T06:13:31.05Z</time>
      </trkpt>
      <trkpt lat="42.299297" lon="2.201485">
        <ele>1359.44</ele>
        <time>2011-08-04T06:39:51.17Z</time>
      </trkpt>
      <trkpt lat="42.299057" lon="2.201710">
        <ele>1360.44</ele>
        <time>2011-08-04T15:45:28.63Z</time>
      </trkpt>
      <trkpt lat="42.298897" lon="2.202080">
        <ele>1360.46</ele>
        <time>2011-08-05T01:37:43.34Z</time>
      </trkpt>
      <trkpt lat="42.298874" lon="2.202431">
        <ele>1361.44</ele>
        <time>2011-08-05T09:44:38.62Z</time>
      </trkpt>
      <trkpt lat="42.298767" lon="2.202718">
        <ele>1359.02</ele>
        <time>2011-08-05T17:08:45.65Z</time>
      </trkpt>
      <trkpt lat="42.298775" lon="2.203087">
        <ele>1360.41</ele>
        <time>2011-08-06T01:38:52.52Z</time>
      </trkpt>
      <trkpt lat="42.298904" lon="2.203395">
        <ele>1362.86</ele>
        <time>2011-08-06T09:47:58.61Z</time>
      </trkpt>
      <trkpt lat="42.298943" lon="2.203424">
        <ele>1363.33</ele>
        <time>2011-08-06T11:11:07.85Z</time>
      </trkpt>
      <trkpt lat="42.299274" lon="2.203652">
        <ele>1363.84</ele>
        <time>2011-08-06T22:45:08.90Z</time>
      </trkpt>
      <trkpt lat="42.299606" lon="2.203946">
        <ele>1365.71</ele>
        <time>2011-08-07T11:06:36.25Z</time>
      </trkpt>
      <trkpt lat="42.299934" lon="2.204063">
        <ele>1365.74</ele>
        <time>2011-08-07T21:40:21.18Z</time>
      </trkpt>
      <trkpt lat="42.300125" lon="2.204305">
        <ele>1364.74</ele>
        <time>2011-08-08T05:49:22.99Z</time>
      </trkpt>
      <trkpt lat="42.300098" lon="2.204641">
        <ele>1365.24</ele>
        <time>2011-08-08T13:36:24.02Z</time>
      </trkpt>
      <trkpt lat="42.300045" lon="2.205036">
        <ele>1366.29</ele>
        <time>2011-08-08T22:51:07.25Z</time>
      </trkpt>
      <trkpt lat="42.299915" lon="2.205144">
        <ele>1367.11</ele>
        <time>2011-08-09T03:36:10.62Z</time>
      </trkpt>
      <trkpt lat="42.299885" lon="2.205577">
        <ele>1365.73</ele>
        <time>2011-08-09T13:37:07.09Z</time>
      </trkpt>
      <trkpt lat="42.299885" lon="2.206188">
        <ele>1363.31</ele>
        <time>2011-08-10T03:41:24.11Z</time>
      </trkpt>
      <trkpt lat="42.299831" lon="2.206518">
        <ele>1360.96</ele>
        <time>2011-08-10T11:28:25.47Z</time>
      </trkpt>
      <trkpt lat="42.299679" lon="2.206929">
        <ele>1362.33</ele>
        <time>2011-08-10T22:03:23.20Z</time>
      </trkpt>
      <trkpt lat="42.299427" lon="2.207279">
        <ele>1362.83</ele>
        <time>2011-08-11T09:18:19.87Z</time>
      </trkpt>
      <trkpt lat="42.299229" lon="2.207580">
        <ele>1359.02</ele>
        <time>2011-08-11T18:34:57.25Z</time>
      </trkpt>
      <trkpt lat="42.299286" lon="2.207692">
        <ele>1357.57</ele>
        <time>2011-08-11T21:42:48.92Z</time>
      </trkpt>
      <trkpt lat="42.299335" lon="2.207724">
        <ele>1357.03</ele>
        <time>2011-08-11T23:24:28.73Z</time>
      </trkpt>
      <trkpt lat="42.299507" lon="2.207860">
        <ele>1355.19</ele>
        <time>2011-08-12T05:36:44Z</time>
      </trkpt>
      <trkpt lat="42.299587" lon="2.207924">
        <ele>1355.69</ele>
        <time>2011-08-12T08:30:23.78Z</time>
      </trkpt>
      <trkpt lat="42.299706" lon="2.208025">
        <ele>1355.11</ele>
        <time>2011-08-12T12:52:53.51Z</time>
      </trkpt>
      <trkpt lat="42.299984" lon="2.208355">
        <ele>1355.13</ele>
        <time>2011-08-13T00:24:02.01Z</time>
      </trkpt>
      <trkpt lat="42.300140" lon="2.208734">
        <ele>1356.61</ele>
        <time>2011-08-13T10:23:22.22Z</time>
      </trkpt>
      <trkpt lat="42.300224" lon="2.208987">
        <ele>1359.93</ele>
        <time>2011-08-13T16:46:34.39Z</time>
      </trkpt>
      <trkpt lat="42.300251" lon="2.209176">
        <ele>1363.37</ele>
        <time>2011-08-13T21:12:33.59Z</time>
      </trkpt>
      <trkpt lat="42.300316" lon="2.209398">
        <ele>1366.22</ele>
        <time>2011-08-14T02:42:28.83Z</time>
      </trkpt>
      <trkpt lat="42.300526" lon="2.209539">
        <ele>1369.11</ele>
        <time>2011-08-14T10:00:31.43Z</time>
      </trkpt>
      <trkpt lat="42.300663" lon="2.209631">
        <ele>1372.45</ele>
        <time>2011-08-14T14:46:18.21Z</time>
      </trkpt>
      <trkpt lat="42.300812" lon="2.209794">
        <ele>1373.48</ele>
        <time>2011-08-14T20:44:22.67Z</time>
      </trkpt>
      <trkpt lat="42.301014" lon="2.210178">
        <ele>1374.33</ele>
        <time>2011-08-15T07:35:29.98Z</time>
      </trkpt>
      <trkpt lat="42.301105" lon="2.210659">
        <ele>1374.00</ele>
        <time>2011-08-15T19:01:32.10Z</time>
      </trkpt>
      <trkpt lat="42.301033" lon="2.211055">
        <ele>1374.32</ele>
        <time>2011-08-16T04:25:00.65Z</time>
      </trkpt>
      <trkpt lat="42.300884" lon="2.211431">
        <ele>1374.83</ele>
        <time>2011-08-16T14:14:26.09Z</time>
      </trkpt>
      <trkpt lat="42.300690" lon="2.211886">
        <ele>1374.31</ele>
        <time>2011-08-17T02:20:08.09Z</time>
      </trkpt>
      <trkpt lat="42.300533" lon="2.212420">
        <ele>1375.83</ele>
        <time>2011-08-17T15:34:10.25Z</time>
      </trkpt>
      <trkpt lat="42.300488" lon="2.212800">
        <ele>1378.29</ele>
        <time>2011-08-18T00:25:56.37Z</time>
      </trkpt>
      <trkpt lat="42.300411" lon="2.213198">
        <ele>1381.13</ele>
        <time>2011-08-18T09:54:23.79Z</time>
      </trkpt>
      <trkpt lat="42.300385" lon="2.213509">
        <ele>1384.04</ele>
        <time>2011-08-18T17:06:52.27Z</time>
      </trkpt>
      <trkpt lat="42.300362" lon="2.213690">
        <ele>1387.34</ele>
        <time>2011-08-18T21:20:38.43Z</time>
      </trkpt>
      <trkpt lat="42.300339" lon="2.213836">
        <ele>1388.36</ele>
        <time>2011-08-19T00:46:54.48Z</time>
      </trkpt>
      <trkpt lat="42.300327" lon="2.213948">
        <ele>1388.86</ele>
        <time>2011-08-19T03:23:17.07Z</time>
      </trkpt>
      <trkpt lat="42.300365" lon="2.214307">
        <ele>1391.23</ele>
        <time>2011-08-19T11:44:24.21Z</time>
      </trkpt>
      <trkpt lat="42.300373" lon="2.214591">
        <ele>1394.59</ele>
        <time>2011-08-19T18:17:07.07Z</time>
      </trkpt>
      <trkpt lat="42.300369" lon="2.214803">
        <ele>1395.02</ele>
        <time>2011-08-19T23:10:09.23Z</time>
      </trkpt>
      <trkpt lat="42.300179" lon="2.215022">
        <ele>1398.91</ele>
        <time>2011-08-20T06:56:36.17Z</time>
      </trkpt>
      <trkpt lat="42.299973" lon="2.215280">
        <ele>1400.33</ele>
        <time>2011-08-20T15:41:12.45Z</time>
      </trkpt>
      <trkpt lat="42.299683" lon="2.215392">
        <ele>1401.78</ele>
        <time>2011-08-21T01:04:39.95Z</time>
      </trkpt>
      <trkpt lat="42.299488" lon="2.215330">
        <ele>1404.67</ele>
        <time>2011-08-21T07:18:54.56Z</time>
      </trkpt>
      <trkpt lat="42.299229" lon="2.215339">
        <ele>1407.03</ele>
        <time>2011-08-21T15:22:56.50Z</time>
      </trkpt>
      <trkpt lat="42.299026" lon="2.215380">
        <ele>1410.43</ele>
        <time>2011-08-21T21:46:24.08Z</time>
      </trkpt>
      <trkpt lat="42.298752" lon="2.215286">
        <ele>1411.89</ele>
        <time>2011-08-22T06:34:31.21Z</time>
      </trkpt>
      <trkpt lat="42.298450" lon="2.215165">
        <ele>1410.93</ele>
        <time>2011-08-22T16:22:58.82Z</time>
      </trkpt>
      <trkpt lat="42.298264" lon="2.215045">
        <ele>1408.56</ele>
        <time>2011-08-22T22:48:00.52Z</time>
      </trkpt>
      <trkpt lat="42.297958" lon="2.214985">
        <ele>1408.52</ele>
        <time>2011-08-23T08:25:40.15Z</time>
      </trkpt>
      <trkpt lat="42.297729" lon="2.215187">
        <ele>1410.91</ele>
        <time>2011-08-23T16:56:30.13Z</time>
      </trkpt>
      <trkpt lat="42.297535" lon="2.215404">
        <ele>1414.21</ele>
        <time>2011-08-24T00:46:54.27Z</time>
      </trkpt>
      <trkpt lat="42.297268" lon="2.215607">
        <ele>1412.82</ele>
        <time>2011-08-24T10:19:11.36Z</time>
      </trkpt>
      <trkpt lat="42.297005" lon="2.215699">
        <ele>1410.46</ele>
        <time>2011-08-24T18:46:42.92Z</time>
      </trkpt>
      <trkpt lat="42.296608" lon="2.215843">
        <ele>1410.92</ele>
        <time>2011-08-25T07:34:38.04Z</time>
      </trkpt>
      <trkpt lat="42.296413" lon="2.215858">
        <ele>1414.26</ele>
        <time>2011-08-25T13:39:31.73Z</time>
      </trkpt>
      <trkpt lat="42.296288" lon="2.215917">
        <ele>1417.64</ele>
        <time>2011-08-25T17:46:52.87Z</time>
      </trkpt>
      <trkpt lat="42.296135" lon="2.215972">
        <ele>1420.52</ele>
        <time>2011-08-25T22:42:39.18Z</time>
      </trkpt>
      <trkpt lat="42.295815" lon="2.215962">
        <ele>1421.92</ele>
        <time>2011-08-26T08:40:38.84Z</time>
      </trkpt>
      <trkpt lat="42.295662" lon="2.215897">
        <ele>1424.36</ele>
        <time>2011-08-26T13:40:16.08Z</time>
      </trkpt>
      <trkpt lat="42.295670" lon="2.215837">
        <ele>1425.38</ele>
        <time>2011-08-26T15:04:31.09Z</time>
      </trkpt>
      <trkpt lat="42.295723" lon="2.215745">
        <ele>1427.21</ele>
        <time>2011-08-26T17:45:39.75Z</time>
      </trkpt>
      <trkpt lat="42.295761" lon="2.215707">
        <ele>1428.21</ele>
        <time>2011-08-26T19:13:57.96Z</time>
      </trkpt>
      <trkpt lat="42.295868" lon="2.215618">
        <ele>1431.60</ele>
        <time>2011-08-26T23:08:40.28Z</time>
      </trkpt>
      <trkpt lat="42.295891" lon="2.215585">
        <ele>1432.06</ele>
        <time>2011-08-27T00:11:19.73Z</time>
      </trkpt>
      <trkpt lat="42.295948" lon="2.215547">
        <ele>1433.98</ele>
        <time>2011-08-27T02:10:03.69Z</time>
      </trkpt>
      <trkpt lat="42.295979" lon="2.215533">
        <ele>1434.98</ele>
        <time>2011-08-27T03:11:07.36Z</time>
      </trkpt>
      <trkpt lat="42.296101" lon="2.215410">
        <ele>1437.83</ele>
        <time>2011-08-27T07:55:26.81Z</time>
      </trkpt>
      <trkpt lat="42.296188" lon="2.215340">
        <ele>1441.29</ele>
        <time>2011-08-27T11:04:35.40Z</time>
      </trkpt>
      <trkpt lat="42.296227" lon="2.215318">
        <ele>1442.68</ele>
        <time>2011-08-27T12:23:32.36Z</time>
      </trkpt>
      <trkpt lat="42.296276" lon="2.215280">
        <ele>1444.04</ele>
        <time>2011-08-27T14:09:04.47Z</time>
      </trkpt>
      <trkpt lat="42.296341" lon="2.215222">
        <ele>1446.06</ele>
        <time>2011-08-27T16:34:34.51Z</time>
      </trkpt>
      <trkpt lat="42.296246" lon="2.215121">
        <ele>1449.31</ele>
        <time>2011-08-27T20:20:21.73Z</time>
      </trkpt>
      <trkpt lat="42.296230" lon="2.215122">
        <ele>1449.31</ele>
        <time>2011-08-27T20:50:17.15Z</time>
      </trkpt>
      <trkpt lat="42.296104" lon="2.215090">
        <ele>1450.83</ele>
        <time>2011-08-28T00:49:48.05Z</time>
      </trkpt>
      <trkpt lat="42.296032" lon="2.215060">
        <ele>1451.39</ele>
        <time>2011-08-28T03:10:33.43Z</time>
      </trkpt>
      <trkpt lat="42.295876" lon="2.215041">
        <ele>1455.62</ele>
        <time>2011-08-28T08:03:10.91Z</time>
      </trkpt>
      <trkpt lat="42.295849" lon="2.215050">
        <ele>1456.16</ele>
        <time>2011-08-28T08:55:08.09Z</time>
      </trkpt>
      <trkpt lat="42.295769" lon="2.215054">
        <ele>1457.01</ele>
        <time>2011-08-28T11:24:41.74Z</time>
      </trkpt>
      <trkpt lat="42.295609" lon="2.215107">
        <ele>1460.50</ele>
        <time>2011-08-28T16:32:27.30Z</time>
      </trkpt>
      <trkpt lat="42.295452" lon="2.215240">
        <ele>1460.95</ele>
        <time>2011-08-28T22:18:35.63Z</time>
      </trkpt>
      <trkpt lat="42.295200" lon="2.215471">
        <ele>1462.86</ele>
        <time>2011-08-29T07:47:24.47Z</time>
      </trkpt>
      <trkpt lat="42.295040" lon="2.215566">
        <ele>1465.21</ele>
        <time>2011-08-29T13:13:53.02Z</time>
      </trkpt>
      <trkpt lat="42.294910" lon="2.215642">
        <ele>1468.12</ele>
        <time>2011-08-29T17:38:29.38Z</time>
      </trkpt>
      <trkpt lat="42.294819" lon="2.215670">
        <ele>1470.01</ele>
        <time>2011-08-29T20:32:50.79Z</time>
      </trkpt>
      <trkpt lat="42.294727" lon="2.215692">
        <ele>1471.92</ele>
        <time>2011-08-29T23:27:23.53Z</time>
      </trkpt>
      <trkpt lat="42.294701" lon="2.215682">
        <ele>1472.98</ele>
        <time>2011-08-30T00:17:53.62Z</time>
      </trkpt>
      <trkpt lat="42.294498" lon="2.215621">
        <ele>1475.82</ele>
        <time>2011-08-30T06:46:24.04Z</time>
      </trkpt>
      <trkpt lat="42.294292" lon="2.215622">
        <ele>1475.33</ele>
        <time>2011-08-30T13:11:15.56Z</time>
      </trkpt>
      <trkpt lat="42.293999" lon="2.215712">
        <ele>1476.78</ele>
        <time>2011-08-30T22:32:36.21Z</time>
      </trkpt>
      <trkpt lat="42.293793" lon="2.215708">
        <ele>1479.16</ele>
        <time>2011-08-31T04:57:29.95Z</time>
      </trkpt>
      <trkpt lat="42.293728" lon="2.215698">
        <ele>1479.62</ele>
        <time>2011-08-31T06:59:43.09Z</time>
      </trkpt>
      <trkpt lat="42.293575" lon="2.215777">
        <ele>1483.04</ele>
        <time>2011-08-31T12:05:41.84Z</time>
      </trkpt>
      <trkpt lat="42.293446" lon="2.215831">
        <ele>1486.37</ele>
        <time>2011-08-31T16:17:59.32Z</time>
      </trkpt>
      <trkpt lat="42.293427" lon="2.215827">
        <ele>1486.32</ele>
        <time>2011-08-31T16:53:54.77Z</time>
      </trkpt>
      <trkpt lat="42.293343" lon="2.215693">
        <ele>1489.21</ele>
        <time>2011-08-31T20:56:38.79Z</time>
      </trkpt>
      <trkpt lat="42.293339" lon="2.215649">
        <ele>1490.28</ele>
        <time>2011-08-31T21:57:54.58Z</time>
      </trkpt>
      <trkpt lat="42.293331" lon="2.215617">
        <ele>1490.74</ele>
        <time>2011-08-31T22:44:35.37Z</time>
      </trkpt>
      <trkpt lat="42.293365" lon="2.215488">
        <ele>1492.13</ele>
        <time>2011-09-01T01:53:50.36Z</time>
      </trkpt>
      <trkpt lat="42.293434" lon="2.215320">
        <ele>1495.54</ele>
        <time>2011-09-01T06:19:23.61Z</time>
      </trkpt>
      <trkpt lat="42.293453" lon="2.215272">
        <ele>1496.07</ele>
        <time>2011-09-01T07:34:37.63Z</time>
      </trkpt>
      <trkpt lat="42.293541" lon="2.215083">
        <ele>1499.85</ele>
        <time>2011-09-01T12:43:14.99Z</time>
      </trkpt>
      <trkpt lat="42.293652" lon="2.214971">
        <ele>1502.76</ele>
        <time>2011-09-01T17:02:00.98Z</time>
      </trkpt>
      <trkpt lat="42.293762" lon="2.214938">
        <ele>1503.70</ele>
        <time>2011-09-01T20:32:31.28Z</time>
      </trkpt>
      <trkpt lat="42.293949" lon="2.214855">
        <ele>1506.53</ele>
        <time>2011-09-02T02:40:13.70Z</time>
      </trkpt>
      <trkpt lat="42.294155" lon="2.214748">
        <ele>1509.42</ele>
        <time>2011-09-02T09:32:30.79Z</time>
      </trkpt>
      <trkpt lat="42.294350" lon="2.214599">
        <ele>1512.31</ele>
        <time>2011-09-02T16:30:58.94Z</time>
      </trkpt>
      <trkpt lat="42.294518" lon="2.214509">
        <ele>1510.49</ele>
        <time>2011-09-02T22:08:35.39Z</time>
      </trkpt>
      <trkpt lat="42.294735" lon="2.214364">
        <ele>1512.87</ele>
        <time>2011-09-03T05:40:48.81Z</time>
      </trkpt>
      <trkpt lat="42.294941" lon="2.214152">
        <ele>1515.74</ele>
        <time>2011-09-03T13:44:29.43Z</time>
      </trkpt>
      <trkpt lat="42.294952" lon="2.214137">
        <ele>1515.72</ele>
        <time>2011-09-03T14:13:40.78Z</time>
      </trkpt>
      <trkpt lat="42.295094" lon="2.213957">
        <ele>1519.04</ele>
        <time>2011-09-03T20:17:20.66Z</time>
      </trkpt>
      <trkpt lat="42.295231" lon="2.213763">
        <ele>1521.93</ele>
        <time>2011-09-04T02:27:59.70Z</time>
      </trkpt>
      <trkpt lat="42.295486" lon="2.213636">
        <ele>1523.48</ele>
        <time>2011-09-04T10:55:41.59Z</time>
      </trkpt>
      <trkpt lat="42.295731" lon="2.213460">
        <ele>1525.84</ele>
        <time>2011-09-04T19:34:00.95Z</time>
      </trkpt>
      <trkpt lat="42.295750" lon="2.213353">
        <ele>1526.79</ele>
        <time>2011-09-04T22:06:04.79Z</time>
      </trkpt>
      <trkpt lat="42.295757" lon="2.213156">
        <ele>1530.11</ele>
        <time>2011-09-05T02:38:37.64Z</time>
      </trkpt>
      <trkpt lat="42.295734" lon="2.212925">
        <ele>1533.41</ele>
        <time>2011-09-05T08:00:43.47Z</time>
      </trkpt>
      <trkpt lat="42.295658" lon="2.212747">
        <ele>1536.32</ele>
        <time>2011-09-05T12:44:44.43Z</time>
      </trkpt>
      <trkpt lat="42.295597" lon="2.212657">
        <ele>1538.72</ele>
        <time>2011-09-05T15:33:25.69Z</time>
      </trkpt>
      <trkpt lat="42.295540" lon="2.212584">
        <ele>1540.30</ele>
        <time>2011-09-05T18:00:06.79Z</time>
      </trkpt>
      <trkpt lat="42.295345" lon="2.212593">
        <ele>1543.13</ele>
        <time>2011-09-06T00:04:37.86Z</time>
      </trkpt>
      <trkpt lat="42.295288" lon="2.212586">
        <ele>1544.53</ele>
        <time>2011-09-06T01:51:33.52Z</time>
      </trkpt>
      <trkpt lat="42.295132" lon="2.212596">
        <ele>1547.48</ele>
        <time>2011-09-06T06:43:19.83Z</time>
      </trkpt>
      <trkpt lat="42.295021" lon="2.212609">
        <ele>1550.78</ele>
        <time>2011-09-06T10:11:28.87Z</time>
      </trkpt>
      <trkpt lat="42.295010" lon="2.212610">
        <ele>1551.29</ele>
        <time>2011-09-06T10:32:04.69Z</time>
      </trkpt>
      <trkpt lat="42.294895" lon="2.212636">
        <ele>1554.11</ele>
        <time>2011-09-06T14:09:54.52Z</time>
      </trkpt>
      <trkpt lat="42.294762" lon="2.212680">
        <ele>1557.53</ele>
        <time>2011-09-06T18:25:42.92Z</time>
      </trkpt>
      <trkpt lat="42.294655" lon="2.212767">
        <ele>1560.41</ele>
        <time>2011-09-06T22:18:59.12Z</time>
      </trkpt>
      <trkpt lat="42.294647" lon="2.212780">
        <ele>1560.83</ele>
        <time>2011-09-06T22:42:21.27Z</time>
      </trkpt>
      <trkpt lat="42.294533" lon="2.212868">
        <ele>1563.71</ele>
        <time>2011-09-07T02:47:36.41Z</time>
      </trkpt>
      <trkpt lat="42.294498" lon="2.212893">
        <ele>1563.77</ele>
        <time>2011-09-07T04:01:33.64Z</time>
      </trkpt>
      <trkpt lat="42.294331" lon="2.212981">
        <ele>1567.16</ele>
        <time>2011-09-07T09:36:25.11Z</time>
      </trkpt>
      <trkpt lat="42.294270" lon="2.213034">
        <ele>1567.68</ele>
        <time>2011-09-07T11:51:53.24Z</time>
      </trkpt>
      <trkpt lat="42.294167" lon="2.213128">
        <ele>1570.91</ele>
        <time>2011-09-07T15:44:03.45Z</time>
      </trkpt>
      <trkpt lat="42.294022" lon="2.213248">
        <ele>1574.34</ele>
        <time>2011-09-07T21:01:40.77Z</time>
      </trkpt>
      <trkpt lat="42.293945" lon="2.213270">
        <ele>1575.77</ele>
        <time>2011-09-07T23:28:42.66Z</time>
      </trkpt>
      <trkpt lat="42.293800" lon="2.213250">
        <ele>1580.16</ele>
        <time>2011-09-08T04:01:00.67Z</time>
      </trkpt>
      <trkpt lat="42.293697" lon="2.213180">
        <ele>1583.42</ele>
        <time>2011-09-08T07:36:23.17Z</time>
      </trkpt>
      <trkpt lat="42.293552" lon="2.212978">
        <ele>1586.31</ele>
        <time>2011-09-08T14:05:22.29Z</time>
      </trkpt>
      <trkpt lat="42.293404" lon="2.212820">
        <ele>1588.27</ele>
        <time>2011-09-08T19:57:41.30Z</time>
      </trkpt>
      <trkpt lat="42.293377" lon="2.212797">
        <ele>1588.76</ele>
        <time>2011-09-08T20:57:18.58Z</time>
      </trkpt>
      <trkpt lat="42.293324" lon="2.212769">
        <ele>1588.71</ele>
        <time>2011-09-08T22:43:37.09Z</time>
      </trkpt>
      <trkpt lat="42.293182" lon="2.212632">
        <ele>1589.74</ele>
        <time>2011-09-09T04:09:32.23Z</time>
      </trkpt>
      <trkpt lat="42.293053" lon="2.212527">
        <ele>1590.26</ele>
        <time>2011-09-09T08:50:51.07Z</time>
      </trkpt>
      <trkpt lat="42.293083" lon="2.212394">
        <ele>1591.19</ele>
        <time>2011-09-09T12:03:00.40Z</time>
      </trkpt>
      <trkpt lat="42.293102" lon="2.212364">
        <ele>1592.15</ele>
        <time>2011-09-09T12:57:35.11Z</time>
      </trkpt>
      <trkpt lat="42.293171" lon="2.212356">
        <ele>1592.62</ele>
        <time>2011-09-09T15:06:57.99Z</time>
      </trkpt>
      <trkpt lat="42.293461" lon="2.212448">
        <ele>1592.60</ele>
        <time>2011-09-10T00:23:28.32Z</time>
      </trkpt>
      <trkpt lat="42.293625" lon="2.212330">
        <ele>1594.51</ele>
        <time>2011-09-10T06:10:33.31Z</time>
      </trkpt>
      <trkpt lat="42.293713" lon="2.212083">
        <ele>1597.41</ele>
        <time>2011-09-10T12:29:25.45Z</time>
      </trkpt>
      <trkpt lat="42.293705" lon="2.211995">
        <ele>1599.36</ele>
        <time>2011-09-10T14:31:57Z</time>
      </trkpt>
      <trkpt lat="42.293633" lon="2.211832">
        <ele>1601.27</ele>
        <time>2011-09-10T18:54:18.77Z</time>
      </trkpt>
      <trkpt lat="42.293633" lon="2.211832">
        <ele>1601.21</ele>
        <time>2011-09-10T19:11:07.61Z</time>
      </trkpt>
      <trkpt lat="42.293633" lon="2.211835">
        <ele>1601.78</ele>
        <time>2011-09-10T19:27:56.46Z</time>
      </trkpt>
      <trkpt lat="42.293633" lon="2.211836">
        <ele>1601.72</ele>
        <time>2011-09-10T19:44:45.31Z</time>
      </trkpt>
      <trkpt lat="42.293633" lon="2.211837">
        <ele>1602.23</ele>
        <time>2011-09-10T20:01:34.15Z</time>
      </trkpt>
      <trkpt lat="42.293633" lon="2.211838">
        <ele>1602.24</ele>
        <time>2011-09-10T20:18:23Z</time>
      </trkpt>
      <trkpt lat="42.293633" lon="2.211838">
        <ele>1602.25</ele>
        <time>2011-09-10T20:35:11.84Z</time>
      </trkpt>
      <trkpt lat="42.293636" lon="2.211843">
        <ele>1602.70</ele>
        <time>2011-09-10T20:52:00.69Z</time>
      </trkpt>
      <trkpt lat="42.293636" lon="2.211841">
        <ele>1603.11</ele>
        <time>2011-09-10T21:08:49.54Z</time>
      </trkpt>
      <trkpt lat="42.293636" lon="2.211840">
        <ele>1603.11</ele>
        <time>2011-09-10T21:25:38.38Z</time>
      </trkpt>
      <trkpt lat="42.293636" lon="2.211840">
        <ele>1601.80</ele>
        <time>2011-09-10T21:42:27.23Z</time>
      </trkpt>
      <trkpt lat="42.293636" lon="2.211840">
        <ele>1601.79</ele>
        <time>2011-09-10T21:59:16.07Z</time>
      </trkpt>
      <trkpt lat="42.293640" lon="2.211837">
        <ele>1602.26</ele>
        <time>2011-09-10T22:16:04.92Z</time>
      </trkpt>
      <trkpt lat="42.293640" lon="2.211837">
        <ele>1602.23</ele>
        <time>2011-09-10T22:32:53.77Z</time>
      </trkpt>
      <trkpt lat="42.293598" lon="2.211823">
        <ele>1602.24</ele>
        <time>2011-09-10T23:53:42.72Z</time>
      </trkpt>
      <trkpt lat="42.293598" lon="2.211823">
        <ele>1602.21</ele>
        <time>2011-09-11T00:10:31.56Z</time>
      </trkpt>
      <trkpt lat="42.293575" lon="2.211815">
        <ele>1601.71</ele>
        <time>2011-09-11T00:54:53.69Z</time>
      </trkpt>
      <trkpt lat="42.293556" lon="2.211814">
        <ele>1601.73</ele>
        <time>2011-09-11T01:30:25.09Z</time>
      </trkpt>
      <trkpt lat="42.293468" lon="2.211778">
        <ele>1601.79</ele>
        <time>2011-09-11T04:22:11.11Z</time>
      </trkpt>
      <trkpt lat="42.293098" lon="2.211702">
        <ele>1601.71</ele>
        <time>2011-09-11T16:01:21.91Z</time>
      </trkpt>
      <trkpt lat="42.292767" lon="2.211714">
        <ele>1602.71</ele>
        <time>2011-09-12T02:19:58.36Z</time>
      </trkpt>
      <trkpt lat="42.292439" lon="2.211751">
        <ele>1604.67</ele>
        <time>2011-09-12T12:34:52.98Z</time>
      </trkpt>
      <trkpt lat="42.292206" lon="2.211691">
        <ele>1606.04</ele>
        <time>2011-09-12T19:58:00.50Z</time>
      </trkpt>
      <trkpt lat="42.292084" lon="2.211575">
        <ele>1609.48</ele>
        <time>2011-09-13T00:36:39.80Z</time>
      </trkpt>
      <trkpt lat="42.292053" lon="2.211503">
        <ele>1610.85</ele>
        <time>2011-09-13T02:31:47.60Z</time>
      </trkpt>
      <trkpt lat="42.292072" lon="2.211329">
        <ele>1613.27</ele>
        <time>2011-09-13T06:34:51.79Z</time>
      </trkpt>
      <trkpt lat="42.292126" lon="2.211303">
        <ele>1613.76</ele>
        <time>2011-09-13T08:21:57.33Z</time>
      </trkpt>
      <trkpt lat="42.292194" lon="2.211310">
        <ele>1613.79</ele>
        <time>2011-09-13T10:29:21.79Z</time>
      </trkpt>
      <trkpt lat="42.292233" lon="2.211357">
        <ele>1614.27</ele>
        <time>2011-09-13T12:06:58.36Z</time>
      </trkpt>
      <trkpt lat="42.292419" lon="2.211325">
        <ele>1615.68</ele>
        <time>2011-09-13T17:57:16.01Z</time>
      </trkpt>
      <trkpt lat="42.292660" lon="2.211281">
        <ele>1616.62</ele>
        <time>2011-09-14T01:31:35.91Z</time>
      </trkpt>
      <trkpt lat="42.292889" lon="2.211278">
        <ele>1616.11</ele>
        <time>2011-09-14T08:39:26.65Z</time>
      </trkpt>
      <trkpt lat="42.293106" lon="2.211169">
        <ele>1615.28</ele>
        <time>2011-09-14T15:51:55.86Z</time>
      </trkpt>
      <trkpt lat="42.293324" lon="2.211023">
        <ele>1618.59</ele>
        <time>2011-09-14T23:26:26.64Z</time>
      </trkpt>
      <trkpt lat="42.293400" lon="2.210995">
        <ele>1620.47</ele>
        <time>2011-09-15T01:53:36.47Z</time>
      </trkpt>
      <trkpt lat="42.293583" lon="2.210983">
        <ele>1624.37</ele>
        <time>2011-09-15T07:35:53.79Z</time>
      </trkpt>
      <trkpt lat="42.293816" lon="2.211000">
        <ele>1626.22</ele>
        <time>2011-09-15T14:51:49.71Z</time>
      </trkpt>
      <trkpt lat="42.293991" lon="2.210992">
        <ele>1628.64</ele>
        <time>2011-09-15T20:18:57.37Z</time>
      </trkpt>
      <trkpt lat="42.294056" lon="2.210972">
        <ele>1629.66</ele>
        <time>2011-09-15T22:23:29.81Z</time>
      </trkpt>
      <trkpt lat="42.294003" lon="2.210838">
        <ele>1632.07</ele>
        <time>2011-09-16T01:53:29.18Z</time>
      </trkpt>
      <trkpt lat="42.293999" lon="2.210833">
        <ele>1632.03</ele>
        <time>2011-09-16T02:10:18.03Z</time>
      </trkpt>
      <trkpt lat="42.294003" lon="2.210760">
        <ele>1632.92</ele>
        <time>2011-09-16T03:51:27.49Z</time>
      </trkpt>
      <trkpt lat="42.294056" lon="2.210637">
        <ele>1635.81</ele>
        <time>2011-09-16T07:08:10.38Z</time>
      </trkpt>
      <trkpt lat="42.294109" lon="2.210631">
        <ele>1636.36</ele>
        <time>2011-09-16T08:47:32.16Z</time>
      </trkpt>
      <trkpt lat="42.294178" lon="2.210594">
        <ele>1638.26</ele>
        <time>2011-09-16T11:06:12.87Z</time>
      </trkpt>
      <trkpt lat="42.294224" lon="2.210560">
        <ele>1639.23</ele>
        <time>2011-09-16T12:44:09.54Z</time>
      </trkpt>
      <trkpt lat="42.294273" lon="2.210473">
        <ele>1640.22</ele>
        <time>2011-09-16T15:15:16.28Z</time>
      </trkpt>
      <trkpt lat="42.294323" lon="2.210259">
        <ele>1642.19</ele>
        <time>2011-09-16T20:25:24.37Z</time>
      </trkpt>
      <trkpt lat="42.294334" lon="2.210166">
        <ele>1644.07</ele>
        <time>2011-09-16T22:35:33.49Z</time>
      </trkpt>
      <trkpt lat="42.294350" lon="2.210045">
        <ele>1646.49</ele>
        <time>2011-09-17T01:25:25.33Z</time>
      </trkpt>
      <trkpt lat="42.294403" lon="2.209955">
        <ele>1646.99</ele>
        <time>2011-09-17T04:04:23.82Z</time>
      </trkpt>
      <trkpt lat="42.294525" lon="2.209912">
        <ele>1649.36</ele>
        <time>2011-09-17T07:59:56.41Z</time>
      </trkpt>
      <trkpt lat="42.294643" lon="2.209919">
        <ele>1651.23</ele>
        <time>2011-09-17T11:40:36.24Z</time>
      </trkpt>
      <trkpt lat="42.294785" lon="2.209893">
        <ele>1654.11</ele>
        <time>2011-09-17T16:08:18.91Z</time>
      </trkpt>
      <trkpt lat="42.294888" lon="2.209813">
        <ele>1655.56</ele>
        <time>2011-09-17T19:50:14.39Z</time>
      </trkpt>
      <trkpt lat="42.295025" lon="2.209615">
        <ele>1658.42</ele>
        <time>2011-09-18T02:04:54.52Z</time>
      </trkpt>
      <trkpt lat="42.295033" lon="2.209600">
        <ele>1658.46</ele>
        <time>2011-09-18T02:30:27.82Z</time>
      </trkpt>
      <trkpt lat="42.295033" lon="2.209547">
        <ele>1659.92</ele>
        <time>2011-09-18T03:43:42.30Z</time>
      </trkpt>
      <trkpt lat="42.295013" lon="2.209484">
        <ele>1660.90</ele>
        <time>2011-09-18T05:18:26.70Z</time>
      </trkpt>
      <trkpt lat="42.294899" lon="2.209458">
        <ele>1661.37</ele>
        <time>2011-09-18T08:54:25.98Z</time>
      </trkpt>
      <trkpt lat="42.294735" lon="2.209437">
        <ele>1662.78</ele>
        <time>2011-09-18T14:02:11.68Z</time>
      </trkpt>
      <trkpt lat="42.294617" lon="2.209330">
        <ele>1665.18</ele>
        <time>2011-09-18T18:27:38.61Z</time>
      </trkpt>
      <trkpt lat="42.294464" lon="2.209199">
        <ele>1667.11</ele>
        <time>2011-09-19T00:05:59.27Z</time>
      </trkpt>
      <trkpt lat="42.294395" lon="2.209159">
        <ele>1669.03</ele>
        <time>2011-09-19T02:26:14.87Z</time>
      </trkpt>
      <trkpt lat="42.294235" lon="2.209190">
        <ele>1672.41</ele>
        <time>2011-09-19T07:28:13.16Z</time>
      </trkpt>
      <trkpt lat="42.294083" lon="2.209306">
        <ele>1674.86</ele>
        <time>2011-09-19T12:54:18.79Z</time>
      </trkpt>
      <trkpt lat="42.293915" lon="2.209380">
        <ele>1678.15</ele>
        <time>2011-09-19T18:24:24.96Z</time>
      </trkpt>
      <trkpt lat="42.293816" lon="2.209422">
        <ele>1679.13</ele>
        <time>2011-09-19T21:38:15.87Z</time>
      </trkpt>
      <trkpt lat="42.293766" lon="2.209414">
        <ele>1680.02</ele>
        <time>2011-09-19T23:12:19.68Z</time>
      </trkpt>
      <trkpt lat="42.293606" lon="2.209424">
        <ele>1682.93</ele>
        <time>2011-09-20T04:11:33.88Z</time>
      </trkpt>
      <trkpt lat="42.293564" lon="2.209432">
        <ele>1683.99</ele>
        <time>2011-09-20T05:30:48.33Z</time>
      </trkpt>
      <trkpt lat="42.293434" lon="2.209405">
        <ele>1687.76</ele>
        <time>2011-09-20T09:36:31.52Z</time>
      </trkpt>
      <trkpt lat="42.293285" lon="2.209341">
        <ele>1690.17</ele>
        <time>2011-09-20T14:28:36.30Z</time>
      </trkpt>
      <trkpt lat="42.293171" lon="2.209310">
        <ele>1693.08</ele>
        <time>2011-09-20T18:05:50.97Z</time>
      </trkpt>
      <trkpt lat="42.293041" lon="2.209283">
        <ele>1695.92</ele>
        <time>2011-09-20T22:11:34.17Z</time>
      </trkpt>
      <trkpt lat="42.292984" lon="2.209249">
        <ele>1697.81</ele>
        <time>2011-09-21T00:07:57.84Z</time>
      </trkpt>
      <trkpt lat="42.292969" lon="2.209232">
        <ele>1698.32</ele>
        <time>2011-09-21T00:44:31.95Z</time>
      </trkpt>
      <trkpt lat="42.292831" lon="2.209181">
        <ele>1701.75</ele>
        <time>2011-09-21T05:11:48.53Z</time>
      </trkpt>
      <trkpt lat="42.292747" lon="2.209146">
        <ele>1704.18</ele>
        <time>2011-09-21T07:56:01.52Z</time>
      </trkpt>
      <trkpt lat="42.292618" lon="2.209121">
        <ele>1705.56</ele>
        <time>2011-09-21T11:59:29.47Z</time>
      </trkpt>
      <trkpt lat="42.292576" lon="2.209125">
        <ele>1706.59</ele>
        <time>2011-09-21T13:18:09.09Z</time>
      </trkpt>
      <trkpt lat="42.292416" lon="2.209080">
        <ele>1709.87</ele>
        <time>2011-09-21T18:23:28.16Z</time>
      </trkpt>
      <trkpt lat="42.292274" lon="2.209025">
        <ele>1713.26</ele>
        <time>2011-09-21T22:59:25.95Z</time>
      </trkpt>
      <trkpt lat="42.292141" lon="2.208994">
        <ele>1716.69</ele>
        <time>2011-09-22T03:11:34.42Z</time>
      </trkpt>
      <trkpt lat="42.292130" lon="2.208988">
        <ele>1716.67</ele>
        <time>2011-09-22T03:33:44.04Z</time>
      </trkpt>
      <trkpt lat="42.291996" lon="2.208963">
        <ele>1719.92</ele>
        <time>2011-09-22T07:46:27.01Z</time>
      </trkpt>
      <trkpt lat="42.291962" lon="2.208963">
        <ele>1719.91</ele>
        <time>2011-09-22T08:49:58.20Z</time>
      </trkpt>
      <trkpt lat="42.291916" lon="2.208951">
        <ele>1721.48</ele>
        <time>2011-09-22T10:17:29.66Z</time>
      </trkpt>
      <trkpt lat="42.291771" lon="2.208933">
        <ele>1724.74</ele>
        <time>2011-09-22T14:49:31.67Z</time>
      </trkpt>
      <trkpt lat="42.291656" lon="2.208923">
        <ele>1726.78</ele>
        <time>2011-09-22T18:24:49.13Z</time>
      </trkpt>
      <trkpt lat="42.291595" lon="2.208921">
        <ele>1728.16</ele>
        <time>2011-09-22T20:18:48.87Z</time>
      </trkpt>
      <trkpt lat="42.291576" lon="2.208915">
        <ele>1728.62</ele>
        <time>2011-09-22T20:55:15.99Z</time>
      </trkpt>
      <trkpt lat="42.291527" lon="2.208915">
        <ele>1729.62</ele>
        <time>2011-09-22T22:26:48.60Z</time>
      </trkpt>
      <trkpt lat="42.291374" lon="2.208927">
        <ele>1733.50</ele>
        <time>2011-09-23T03:13:07.82Z</time>
      </trkpt>
      <trkpt lat="42.291367" lon="2.208923">
        <ele>1733.93</ele>
        <time>2011-09-23T03:29:56.67Z</time>
      </trkpt>
      <trkpt lat="42.291225" lon="2.208897">
        <ele>1736.33</ele>
        <time>2011-09-23T07:57:39.36Z</time>
      </trkpt>
      <trkpt lat="42.291084" lon="2.208819">
        <ele>1739.61</ele>
        <time>2011-09-23T12:42:16.77Z</time>
      </trkpt>
      <trkpt lat="42.290947" lon="2.208784">
        <ele>1742.51</ele>
        <time>2011-09-23T17:02:45.47Z</time>
      </trkpt>
      <trkpt lat="42.290810" lon="2.208820">
        <ele>1745.99</ele>
        <time>2011-09-23T21:23:29.79Z</time>
      </trkpt>
      <trkpt lat="42.290646" lon="2.208850">
        <ele>1748.89</ele>
        <time>2011-09-24T02:32:40.76Z</time>
      </trkpt>
      <trkpt lat="42.290482" lon="2.208898">
        <ele>1751.27</ele>
        <time>2011-09-24T07:46:10.12Z</time>
      </trkpt>
      <trkpt lat="42.290325" lon="2.208892">
        <ele>1753.19</ele>
        <time>2011-09-24T12:39:35.91Z</time>
      </trkpt>
      <trkpt lat="42.290218" lon="2.208893">
        <ele>1754.18</ele>
        <time>2011-09-24T15:59:30.25Z</time>
      </trkpt>
      <trkpt lat="42.290169" lon="2.208906">
        <ele>1754.53</ele>
        <time>2011-09-24T17:32:47.64Z</time>
      </trkpt>
      <trkpt lat="42.290119" lon="2.208908">
        <ele>1755.59</ele>
        <time>2011-09-24T19:06:14.79Z</time>
      </trkpt>
      <trkpt lat="42.289944" lon="2.208895">
        <ele>1757.97</ele>
        <time>2011-09-25T00:33:40.84Z</time>
      </trkpt>
      <trkpt lat="42.289761" lon="2.208881">
        <ele>1758.90</ele>
        <time>2011-09-25T06:16:06.87Z</time>
      </trkpt>
      <trkpt lat="42.289722" lon="2.208887">
        <ele>1759.82</ele>
        <time>2011-09-25T07:29:26.75Z</time>
      </trkpt>
      <trkpt lat="42.289661" lon="2.208862">
        <ele>1760.31</ele>
        <time>2011-09-25T09:28:31.83Z</time>
      </trkpt>
      <trkpt lat="42.289608" lon="2.208832">
        <ele>1761.34</ele>
        <time>2011-09-25T11:15:52.62Z</time>
      </trkpt>
      <trkpt lat="42.289566" lon="2.208839">
        <ele>1762.77</ele>
        <time>2011-09-25T12:34:56.21Z</time>
      </trkpt>
      <trkpt lat="42.289501" lon="2.208858">
        <ele>1763.76</ele>
        <time>2011-09-25T14:39:10.72Z</time>
      </trkpt>
      <trkpt lat="42.289425" lon="2.208833">
        <ele>1765.69</ele>
        <time>2011-09-25T17:05:18.46Z</time>
      </trkpt>
      <trkpt lat="42.289356" lon="2.208854">
        <ele>1766.17</ele>
        <time>2011-09-25T19:17:26.56Z</time>
      </trkpt>
      <trkpt lat="42.289177" lon="2.208870">
        <ele>1768.57</ele>
        <time>2011-09-26T00:52:35.20Z</time>
      </trkpt>
      <trkpt lat="42.289108" lon="2.208897">
        <ele>1769.05</ele>
        <time>2011-09-26T03:06:47.22Z</time>
      </trkpt>
      <trkpt lat="42.288841" lon="2.208904">
        <ele>1772.00</ele>
        <time>2011-09-26T11:25:41.95Z</time>
      </trkpt>
      <trkpt lat="42.288574" lon="2.208979">
        <ele>1774.72</ele>
        <time>2011-09-26T19:55:10.39Z</time>
      </trkpt>
      <trkpt lat="42.288353" lon="2.209091">
        <ele>1776.72</ele>
        <time>2011-09-27T03:16:06.90Z</time>
      </trkpt>
      <trkpt lat="42.288174" lon="2.209164">
        <ele>1780.01</ele>
        <time>2011-09-27T09:05:24.98Z</time>
      </trkpt>
      <trkpt lat="42.287968" lon="2.209272">
        <ele>1781.55</ele>
        <time>2011-09-27T15:58:12.24Z</time>
      </trkpt>
      <trkpt lat="42.287685" lon="2.209379">
        <ele>1784.37</ele>
        <time>2011-09-28T01:07:12.37Z</time>
      </trkpt>
      <trkpt lat="42.287495" lon="2.209466">
        <ele>1786.81</ele>
        <time>2011-09-28T07:21:58.96Z</time>
      </trkpt>
      <trkpt lat="42.287434" lon="2.209496">
        <ele>1787.77</ele>
        <time>2011-09-28T09:23:15.19Z</time>
      </trkpt>
      <trkpt lat="42.287258" lon="2.209576">
        <ele>1789.28</ele>
        <time>2011-09-28T15:10:09.25Z</time>
      </trkpt>
      <trkpt lat="42.287170" lon="2.209639">
        <ele>1789.66</ele>
        <time>2011-09-28T18:16:11.55Z</time>
      </trkpt>
      <trkpt lat="42.287102" lon="2.209715">
        <ele>1790.66</ele>
        <time>2011-09-28T21:01:01.95Z</time>
      </trkpt>
      <trkpt lat="42.287064" lon="2.209795">
        <ele>1791.17</ele>
        <time>2011-09-28T23:12:25.74Z</time>
      </trkpt>
      <trkpt lat="42.286938" lon="2.209957">
        <ele>1792.54</ele>
        <time>2011-09-29T04:37:18.12Z</time>
      </trkpt>
      <trkpt lat="42.286755" lon="2.210218">
        <ele>1795.43</ele>
        <time>2011-09-29T12:54:18.17Z</time>
      </trkpt>
      <trkpt lat="42.286690" lon="2.210309">
        <ele>1795.41</ele>
        <time>2011-09-29T15:49:07.84Z</time>
      </trkpt>
      <trkpt lat="42.286427" lon="2.210507">
        <ele>1796.85</ele>
        <time>2011-09-30T01:11:32.58Z</time>
      </trkpt>
      <trkpt lat="42.286186" lon="2.210583">
        <ele>1798.35</ele>
        <time>2011-09-30T08:53:52.65Z</time>
      </trkpt>
      <trkpt lat="42.286068" lon="2.210593">
        <ele>1798.82</ele>
        <time>2011-09-30T12:34:45.71Z</time>
      </trkpt>
      <trkpt lat="42.285942" lon="2.210686">
        <ele>1798.89</ele>
        <time>2011-09-30T17:02:57.97Z</time>
      </trkpt>
      <trkpt lat="42.285934" lon="2.210690">
        <ele>1798.87</ele>
        <time>2011-09-30T17:19:46.82Z</time>
      </trkpt>
      <trkpt lat="42.285885" lon="2.210720">
        <ele>1797.85</ele>
        <time>2011-09-30T19:00:16.57Z</time>
      </trkpt>
      <trkpt lat="42.285732" lon="2.210857">
        <ele>1796.86</ele>
        <time>2011-10-01T00:43:08.58Z</time>
      </trkpt>
      <trkpt lat="42.285690" lon="2.211001">
        <ele>1796.46</ele>
        <time>2011-10-01T04:17:04.62Z</time>
      </trkpt>
      <trkpt lat="42.285503" lon="2.211260">
        <ele>1796.40</ele>
        <time>2011-10-01T12:37:16.25Z</time>
      </trkpt>
      <trkpt lat="42.285450" lon="2.211382">
        <ele>1795.42</ele>
        <time>2011-10-01T15:52:48.76Z</time>
      </trkpt>
      <trkpt lat="42.285255" lon="2.211759">
        <ele>1795.91</ele>
        <time>2011-10-02T02:28:35.89Z</time>
      </trkpt>
      <trkpt lat="42.285187" lon="2.212023">
        <ele>1795.97</ele>
        <time>2011-10-02T08:54:57.78Z</time>
      </trkpt>
      <trkpt lat="42.285168" lon="2.212204">
        <ele>1795.99</ele>
        <time>2011-10-02T13:07:38.05Z</time>
      </trkpt>
      <trkpt lat="42.285168" lon="2.212305">
        <ele>1795.49</ele>
        <time>2011-10-02T15:27:13.75Z</time>
      </trkpt>
      <trkpt lat="42.285183" lon="2.212416">
        <ele>1795.43</ele>
        <time>2011-10-02T18:03:11.03Z</time>
      </trkpt>
      <trkpt lat="42.285160" lon="2.212779">
        <ele>1796.42</ele>
        <time>2011-10-03T02:26:44Z</time>
      </trkpt>
      <trkpt lat="42.285122" lon="2.213045">
        <ele>1796.86</ele>
        <time>2011-10-03T08:41:10.29Z</time>
      </trkpt>
      <trkpt lat="42.285072" lon="2.213274">
        <ele>1799.23</ele>
        <time>2011-10-03T14:11:10.56Z</time>
      </trkpt>
      <trkpt lat="42.285019" lon="2.213379">
        <ele>1799.74</ele>
        <time>2011-10-03T17:06:51.65Z</time>
      </trkpt>
      <trkpt lat="42.284958" lon="2.213477">
        <ele>1801.25</ele>
        <time>2011-10-03T20:03:52.47Z</time>
      </trkpt>
      <trkpt lat="42.284916" lon="2.213513">
        <ele>1801.21</ele>
        <time>2011-10-03T21:36:47.19Z</time>
      </trkpt>
      <trkpt lat="42.284966" lon="2.213837">
        <ele>1802.11</ele>
        <time>2011-10-04T05:14:14.21Z</time>
      </trkpt>
      <trkpt lat="42.284973" lon="2.213938">
        <ele>1802.14</ele>
        <time>2011-10-04T07:34:26.61Z</time>
      </trkpt>
      <trkpt lat="42.284966" lon="2.214020">
        <ele>1803.18</ele>
        <time>2011-10-04T09:28:31.83Z</time>
      </trkpt>
      <trkpt lat="42.284935" lon="2.214086">
        <ele>1804.58</ele>
        <time>2011-10-04T11:16:35Z</time>
      </trkpt>
      <trkpt lat="42.284901" lon="2.214154">
        <ele>1805.10</ele>
        <time>2011-10-04T13:10:01.23Z</time>
      </trkpt>
      <trkpt lat="42.284863" lon="2.214241">
        <ele>1806.53</ele>
        <time>2011-10-04T15:29:39.56Z</time>
      </trkpt>
      <trkpt lat="42.284828" lon="2.214303">
        <ele>1806.58</ele>
        <time>2011-10-04T17:17:27Z</time>
      </trkpt>
      <trkpt lat="42.284775" lon="2.214407">
        <ele>1807.93</ele>
        <time>2011-10-04T20:11:59.72Z</time>
      </trkpt>
      <trkpt lat="42.284691" lon="2.214578">
        <ele>1808.94</ele>
        <time>2011-10-05T00:55:41.84Z</time>
      </trkpt>
      <trkpt lat="42.284557" lon="2.214840">
        <ele>1810.31</ele>
        <time>2011-10-05T08:15:55.69Z</time>
      </trkpt>
      <trkpt lat="42.284542" lon="2.214946">
        <ele>1810.82</ele>
        <time>2011-10-05T10:45:05.48Z</time>
      </trkpt>
      <trkpt lat="42.284523" lon="2.215090">
        <ele>1811.71</ele>
        <time>2011-10-05T14:07:15.64Z</time>
      </trkpt>
      <trkpt lat="42.284550" lon="2.215239">
        <ele>1813.75</ele>
        <time>2011-10-05T17:39:17.25Z</time>
      </trkpt>
      <trkpt lat="42.284538" lon="2.215422">
        <ele>1814.29</ele>
        <time>2011-10-05T21:53:12.67Z</time>
      </trkpt>
      <trkpt lat="42.284485" lon="2.215703">
        <ele>1816.12</ele>
        <time>2011-10-06T04:34:01Z</time>
      </trkpt>
      <trkpt lat="42.284454" lon="2.216003">
        <ele>1817.54</ele>
        <time>2011-10-06T11:32:41.11Z</time>
      </trkpt>
      <trkpt lat="42.284401" lon="2.216243">
        <ele>1820.43</ele>
        <time>2011-10-06T17:18:51.77Z</time>
      </trkpt>
      <trkpt lat="42.284306" lon="2.216553">
        <ele>1821.43</ele>
        <time>2011-10-07T01:02:37.97Z</time>
      </trkpt>
      <trkpt lat="42.284203" lon="2.216874">
        <ele>1821.87</ele>
        <time>2011-10-07T09:06:14.13Z</time>
      </trkpt>
      <trkpt lat="42.284092" lon="2.217269">
        <ele>1820.49</ele>
        <time>2011-10-07T18:50:14.60Z</time>
      </trkpt>
      <trkpt lat="42.283958" lon="2.217582">
        <ele>1819.02</ele>
        <time>2011-10-08T03:10:04.20Z</time>
      </trkpt>
      <trkpt lat="42.283894" lon="2.217705">
        <ele>1818.53</ele>
        <time>2011-10-08T06:37:54.68Z</time>
      </trkpt>
      <trkpt lat="42.283779" lon="2.217971">
        <ele>1816.61</ele>
        <time>2011-10-08T13:43:44.31Z</time>
      </trkpt>
      <trkpt lat="42.283726" lon="2.218010">
        <ele>1816.63</ele>
        <time>2011-10-08T15:36:28.60Z</time>
      </trkpt>
      <trkpt lat="42.283489" lon="2.218053">
        <ele>1816.64</ele>
        <time>2011-10-08T23:03:13.14Z</time>
      </trkpt>
      <trkpt lat="42.283199" lon="2.218032">
        <ele>1815.13</ele>
        <time>2011-10-09T08:05:47.02Z</time>
      </trkpt>
      <trkpt lat="42.283039" lon="2.218087">
        <ele>1815.14</ele>
        <time>2011-10-09T13:14:12.97Z</time>
      </trkpt>
      <trkpt lat="42.283005" lon="2.218222">
        <ele>1815.67</ele>
        <time>2011-10-09T16:31:19.52Z</time>
      </trkpt>
      <trkpt lat="42.283006" lon="2.218221">
        <ele>1818.58</ele>
        <time>2011-10-09T16:48:08.36Z</time>
      </trkpt>
      <trkpt lat="42.283250" lon="2.219440">
        <ele>1802.89</ele>
        <time>2011-10-10T21:53:35.17Z</time>
      </trkpt>
      <trkpt lat="42.283170" lon="2.220370">
        <ele>1787.82</ele>
        <time>2011-10-11T19:27:39.95Z</time>
      </trkpt>
      <trkpt lat="42.283055" lon="2.221285">
        <ele>1777.07</ele>
        <time>2011-10-12T16:50:28.48Z</time>
      </trkpt>
      <trkpt lat="42.282940" lon="2.222200">
        <ele>1769.54</ele>
        <time>2011-10-13T14:13:17.13Z</time>
      </trkpt>
      <trkpt lat="42.283030" lon="2.222880">
        <ele>1762.20</ele>
        <time>2011-10-14T06:08:05.24Z</time>
      </trkpt>
      <trkpt lat="42.283120" lon="2.223560">
        <ele>1756.72</ele>
        <time>2011-10-14T22:02:53.26Z</time>
      </trkpt>
      <trkpt lat="42.283150" lon="2.223730">
        <ele>1756.05</ele>
        <time>2011-10-15T02:04:26.95Z</time>
      </trkpt>
      <trkpt lat="42.283353" lon="2.224710">
        <ele>1750.72</ele>
        <time>2011-10-16T01:31:04.08Z</time>
      </trkpt>
      <trkpt lat="42.283557" lon="2.225690">
        <ele>1747.01</ele>
        <time>2011-10-17T00:58:11.26Z</time>
      </trkpt>
      <trkpt lat="42.283760" lon="2.226670">
        <ele>1741.85</ele>
        <time>2011-10-18T00:24:47.88Z</time>
      </trkpt>
      <trkpt lat="42.283910" lon="2.227700">
        <ele>1737.75</ele>
        <time>2011-10-19T00:35:44.43Z</time>
      </trkpt>
      <trkpt lat="42.284060" lon="2.228730">
        <ele>1739.63</ele>
        <time>2011-10-20T00:46:40.78Z</time>
      </trkpt>
      <trkpt lat="42.284305" lon="2.229605">
        <ele>1741.99</ele>
        <time>2011-10-20T22:19:46.82Z</time>
      </trkpt>
      <trkpt lat="42.284550" lon="2.230480">
        <ele>1744.11</ele>
        <time>2011-10-21T19:52:52.60Z</time>
      </trkpt>
      <trkpt lat="42.284600" lon="2.230640">
        <ele>1743.68</ele>
        <time>2011-10-21T23:52:56.33Z</time>
      </trkpt>
      <trkpt lat="42.284897" lon="2.231380">
        <ele>1741.89</ele>
        <time>2011-10-22T19:16:32.18Z</time>
      </trkpt>
      <trkpt lat="42.285193" lon="2.232120">
        <ele>1742.86</ele>
        <time>2011-10-23T14:39:14.39Z</time>
      </trkpt>
      <trkpt lat="42.285490" lon="2.232860">
        <ele>1736.56</ele>
        <time>2011-10-24T10:02:49.73Z</time>
      </trkpt>
      <trkpt lat="42.285610" lon="2.233100">
        <ele>1735.51</ele>
        <time>2011-10-24T16:43:11.55Z</time>
      </trkpt>
      <trkpt lat="42.286060" lon="2.233740">
        <ele>1737.30</ele>
        <time>2011-10-25T13:03:31.70Z</time>
      </trkpt>
      <trkpt lat="42.286310" lon="2.234110">
        <ele>1736.48</ele>
        <time>2011-10-26T00:36:05.87Z</time>
      </trkpt>
      <trkpt lat="42.286400" lon="2.234240">
        <ele>1735.48</ele>
        <time>2011-10-26T04:42:10.49Z</time>
      </trkpt>
      <trkpt lat="42.286610" lon="2.234710">
        <ele>1732.78</ele>
        <time>2011-10-26T17:21:02.75Z</time>
      </trkpt>
      <trkpt lat="42.286550" lon="2.235470">
        <ele>1736.89</ele>
        <time>2011-10-27T10:57:24.27Z</time>
      </trkpt>
      <trkpt lat="42.286490" lon="2.236230">
        <ele>1735.76</ele>
        <time>2011-10-28T04:33:45.85Z</time>
      </trkpt>
      <trkpt lat="42.286480" lon="2.236855">
        <ele>1732.27</ele>
        <time>2011-10-28T18:57:46.72Z</time>
      </trkpt>
      <trkpt lat="42.286470" lon="2.237480">
        <ele>1729.14</ele>
        <time>2011-10-29T09:21:47.61Z</time>
      </trkpt>
      <trkpt lat="42.286660" lon="2.238200">
        <ele>1718.56</ele>
        <time>2011-10-30T02:58:19.11Z</time>
      </trkpt>
      <trkpt lat="42.286895" lon="2.239325">
        <ele>1703.05</ele>
        <time>2011-10-31T05:53:58.15Z</time>
      </trkpt>
      <trkpt lat="42.287130" lon="2.240450">
        <ele>1684.01</ele>
        <time>2011-11-01T08:49:36.85Z</time>
      </trkpt>
      <trkpt lat="42.287160" lon="2.240560">
        <ele>1682.52</ele>
        <time>2011-11-01T11:31:38.74Z</time>
      </trkpt>
      <trkpt lat="42.287200" lon="2.240680">
        <ele>1680.83</ele>
        <time>2011-11-01T14:33:33.26Z</time>
      </trkpt>
      <trkpt lat="42.287310" lon="2.240980">
        <ele>1675.31</ele>
        <time>2011-11-01T22:16:18.83Z</time>
      </trkpt>
      <trkpt lat="42.287650" lon="2.241680">
        <ele>1661.75</ele>
        <time>2011-11-02T17:33:39.52Z</time>
      </trkpt>
      <trkpt lat="42.287720" lon="2.241830">
        <ele>1658.98</ele>
        <time>2011-11-02T21:38:46.30Z</time>
      </trkpt>
      <trkpt lat="42.287880" lon="2.242230">
        <ele>1650.41</ele>
        <time>2011-11-03T08:07:14.32Z</time>
      </trkpt>
      <trkpt lat="42.288310" lon="2.243000">
        <ele>1637.29</ele>
        <time>2011-11-04T06:20:36.08Z</time>
      </trkpt>
      <trkpt lat="42.288675" lon="2.243595">
        <ele>1630.70</ele>
        <time>2011-11-05T00:08:52.55Z</time>
      </trkpt>
      <trkpt lat="42.289040" lon="2.244190">
        <ele>1625.75</ele>
        <time>2011-11-05T17:57:08.80Z</time>
      </trkpt>
      <trkpt lat="42.289130" lon="2.244330">
        <ele>1625.32</ele>
        <time>2011-11-05T22:13:28.97Z</time>
      </trkpt>
      <trkpt lat="42.289490" lon="2.244780">
        <ele>1624.82</ele>
        <time>2011-11-06T13:29:31.18Z</time>
      </trkpt>
      <trkpt lat="42.289890" lon="2.245070">
        <ele>1623.35</ele>
        <time>2011-11-07T03:37:30.29Z</time>
      </trkpt>
      <trkpt lat="42.290630" lon="2.245610">
        <ele>1619.68</ele>
        <time>2011-11-08T05:48:33.98Z</time>
      </trkpt>
      <trkpt lat="42.290740" lon="2.245690">
        <ele>1618.80</ele>
        <time>2011-11-08T09:41:55.49Z</time>
      </trkpt>
      <trkpt lat="42.291180" lon="2.246290">
        <ele>1611.48</ele>
        <time>2011-11-09T05:09:31.65Z</time>
      </trkpt>
      <trkpt lat="42.291270" lon="2.246860">
        <ele>1603.46</ele>
        <time>2011-11-09T18:35:00.61Z</time>
      </trkpt>
      <trkpt lat="42.291180" lon="2.247650">
        <ele>1595.50</ele>
        <time>2011-11-10T12:59:39.52Z</time>
      </trkpt>
      <trkpt lat="42.291370" lon="2.247980">
        <ele>1592.60</ele>
        <time>2011-11-10T22:37:34.58Z</time>
      </trkpt>
      <trkpt lat="42.291630" lon="2.247950">
        <ele>1590.23</ele>
        <time>2011-11-11T06:45:04.99Z</time>
      </trkpt>
      <trkpt lat="42.291710" lon="2.247950">
        <ele>1589.35</ele>
        <time>2011-11-11T09:14:32.51Z</time>
      </trkpt>
      <trkpt lat="42.291697" lon="2.247952">
        <ele>1587.18</ele>
        <time>2019-07-19T05:06:00Z</time>
      </trkpt>
      <trkpt lat="42.292010" lon="2.247370">
        <ele>1584.40</ele>
        <time>2019-07-19T05:06:11.09Z</time>
      </trkpt>
      <trkpt lat="42.292370" lon="2.246750">
        <ele>1584.82</ele>
        <time>2019-07-19T05:06:27.75Z</time>
      </trkpt>
      <trkpt lat="42.292800" lon="2.246210">
        <ele>1584.92</ele>
        <time>2019-07-19T05:06:44.52Z</time>
      </trkpt>
      <trkpt lat="42.293380" lon="2.245880">
        <ele>1578.49</ele>
        <time>2019-07-19T05:07:02.50Z</time>
      </trkpt>
      <trkpt lat="42.293820" lon="2.245310">
        <ele>1571.04</ele>
        <time>2019-07-19T05:07:19.91Z</time>
      </trkpt>
      <trkpt lat="42.294170" lon="2.245050">
        <ele>1569.49</ele>
        <time>2019-07-19T05:07:31.32Z</time>
      </trkpt>
      <trkpt lat="42.294490" lon="2.245070">
        <ele>1569.17</ele>
        <time>2019-07-19T05:07:40.47Z</time>
      </trkpt>
      <trkpt lat="42.294740" lon="2.245040">
        <ele>1569.36</ele>
        <time>2019-07-19T05:07:47.64Z</time>
      </trkpt>
      <trkpt lat="42.294900" lon="2.244850">
        <ele>1568.04</ele>
        <time>2019-07-19T05:07:53.73Z</time>
      </trkpt>
      <trkpt lat="42.295170" lon="2.244600">
        <ele>1563.74</ele>
        <time>2019-07-19T05:08:03.08Z</time>
      </trkpt>
      <trkpt lat="42.295220" lon="2.244600">
        <ele>1563.74</ele>
        <time>2019-07-19T05:08:04.51Z</time>
      </trkpt>
      <trkpt lat="42.295480" lon="2.244610">
        <ele>1560.53</ele>
        <time>2019-07-19T05:08:11.94Z</time>
      </trkpt>
      <trkpt lat="42.295610" lon="2.244790">
        <ele>1557.91</ele>
        <time>2019-07-19T05:08:17.25Z</time>
      </trkpt>
      <trkpt lat="42.295600" lon="2.245080">
        <ele>1556.73</ele>
        <time>2019-07-19T05:08:23.39Z</time>
      </trkpt>
      <trkpt lat="42.295460" lon="2.245600">
        <ele>1555.15</ele>
        <time>2019-07-19T05:08:35.08Z</time>
      </trkpt>
      <trkpt lat="42.295370" lon="2.246000">
        <ele>1553.50</ele>
        <time>2019-07-19T05:08:43.92Z</time>
      </trkpt>
      <trkpt lat="42.295360" lon="2.246240">
        <ele>1551.67</ele>
        <time>2019-07-19T05:08:49Z</time>
      </trkpt>
      <trkpt lat="42.295230" lon="2.246490">
        <ele>1550.29</ele>
        <time>2019-07-19T05:08:55.46Z</time>
      </trkpt>
      <trkpt lat="42.295250" lon="2.246670">
        <ele>1549.00</ele>
        <time>2019-07-19T05:08:59.31Z</time>
      </trkpt>
      <trkpt lat="42.295450" lon="2.246650">
        <ele>1546.96</ele>
        <time>2019-07-19T05:09:05.04Z</time>
      </trkpt>
      <trkpt lat="42.295590" lon="2.246490">
        <ele>1545.97</ele>
        <time>2019-07-19T05:09:10.27Z</time>
      </trkpt>
      <trkpt lat="42.295660" lon="2.246190">
        <ele>1544.29</ele>
        <time>2019-07-19T05:09:16.92Z</time>
      </trkpt>
      <trkpt lat="42.295720" lon="2.245820">
        <ele>1543.20</ele>
        <time>2019-07-19T05:09:24.93Z</time>
      </trkpt>
      <trkpt lat="42.295900" lon="2.245550">
        <ele>1542.55</ele>
        <time>2019-07-19T05:09:32.61Z</time>
      </trkpt>
      <trkpt lat="42.296010" lon="2.245450">
        <ele>1541.74</ele>
        <time>2019-07-19T05:09:36.40Z</time>
      </trkpt>
      <trkpt lat="42.296490" lon="2.245060">
        <ele>1537.46</ele>
        <time>2019-07-19T05:09:52.40Z</time>
      </trkpt>
      <trkpt lat="42.296710" lon="2.244380">
        <ele>1534.21</ele>
        <time>2019-07-19T05:10:08.08Z</time>
      </trkpt>
      <trkpt lat="42.296670" lon="2.244020">
        <ele>1532.61</ele>
        <time>2019-07-19T05:10:15.78Z</time>
      </trkpt>
      <trkpt lat="42.296750" lon="2.243960">
        <ele>1532.61</ele>
        <time>2019-07-19T05:10:18.39Z</time>
      </trkpt>
      <trkpt lat="42.296840" lon="2.244120">
        <ele>1531.02</ele>
        <time>2019-07-19T05:10:22.64Z</time>
      </trkpt>
      <trkpt lat="42.296830" lon="2.244120">
        <ele>1531.06</ele>
        <time>2019-07-19T05:10:22.92Z</time>
      </trkpt>
      <trkpt lat="42.297000" lon="2.244580">
        <ele>1528.11</ele>
        <time>2019-07-19T05:10:33.79Z</time>
      </trkpt>
      <trkpt lat="42.297230" lon="2.244860">
        <ele>1525.70</ele>
        <time>2019-07-19T05:10:42.63Z</time>
      </trkpt>
      <trkpt lat="42.297370" lon="2.245110">
        <ele>1523.40</ele>
        <time>2019-07-19T05:10:49.26Z</time>
      </trkpt>
      <trkpt lat="42.297520" lon="2.245130">
        <ele>1521.27</ele>
        <time>2019-07-19T05:10:53.57Z</time>
      </trkpt>
      <trkpt lat="42.297910" lon="2.244700">
        <ele>1516.53</ele>
        <time>2019-07-19T05:11:07.94Z</time>
      </trkpt>
      <trkpt lat="42.298080" lon="2.244300">
        <ele>1512.98</ele>
        <time>2019-07-19T05:11:17.69Z</time>
      </trkpt>
      <trkpt lat="42.298110" lon="2.244050">
        <ele>1511.16</ele>
        <time>2019-07-19T05:11:23.05Z</time>
      </trkpt>
      <trkpt lat="42.298190" lon="2.243530">
        <ele>1506.33</ele>
        <time>2019-07-19T05:11:34.27Z</time>
      </trkpt>
      <trkpt lat="42.298230" lon="2.242450">
        <ele>1492.46</ele>
        <time>2019-07-19T05:11:57.12Z</time>
      </trkpt>
      <trkpt lat="42.298310" lon="2.241970">
        <ele>1486.85</ele>
        <time>2019-07-19T05:12:07.52Z</time>
      </trkpt>
      <trkpt lat="42.298280" lon="2.241300">
        <ele>1479.50</ele>
        <time>2019-07-19T05:12:21.71Z</time>
      </trkpt>
      <trkpt lat="42.298400" lon="2.240570">
        <ele>1473.13</ele>
        <time>2019-07-19T05:12:37.51Z</time>
      </trkpt>
      <trkpt lat="42.298550" lon="2.240220">
        <ele>1468.67</ele>
        <time>2019-07-19T05:12:46.06Z</time>
      </trkpt>
      <trkpt lat="42.298690" lon="2.239990">
        <ele>1466.72</ele>
        <time>2019-07-19T05:12:52.35Z</time>
      </trkpt>
      <trkpt lat="42.298820" lon="2.239670">
        <ele>1464.35</ele>
        <time>2019-07-19T05:13:00.07Z</time>
      </trkpt>
      <trkpt lat="42.299420" lon="2.238870">
        <ele>1449.45</ele>
        <time>2019-07-19T05:13:24.14Z</time>
      </trkpt>
      <trkpt lat="42.299630" lon="2.238790">
        <ele>1447.15</ele>
        <time>2019-07-19T05:13:30.38Z</time>
      </trkpt>
      <trkpt lat="42.299980" lon="2.238540">
        <ele>1437.63</ele>
        <time>2019-07-19T05:13:41.69Z</time>
      </trkpt>
      <trkpt lat="42.299990" lon="2.238420">
        <ele>1435.86</ele>
        <time>2019-07-19T05:13:44.24Z</time>
      </trkpt>
      <trkpt lat="42.299800" lon="2.238260">
        <ele>1430.16</ele>
        <time>2019-07-19T05:13:50.64Z</time>
      </trkpt>
      <trkpt lat="42.299670" lon="2.238190">
        <ele>1427.19</ele>
        <time>2019-07-19T05:13:54.63Z</time>
      </trkpt>
      <trkpt lat="42.299420" lon="2.238200">
        <ele>1425.78</ele>
        <time>2019-07-19T05:14:01.78Z</time>
      </trkpt>
      <trkpt lat="42.299390" lon="2.238130">
        <ele>1425.78</ele>
        <time>2019-07-19T05:14:03.49Z</time>
      </trkpt>
      <trkpt lat="42.299690" lon="2.237690">
        <ele>1428.97</ele>
        <time>2019-07-19T05:14:16.14Z</time>
      </trkpt>
      <trkpt lat="42.299790" lon="2.237490">
        <ele>1430.48</ele>
        <time>2019-07-19T05:14:21.24Z</time>
      </trkpt>
      <trkpt lat="42.300000" lon="2.237350">
        <ele>1430.61</ele>
        <time>2019-07-19T05:14:27.93Z</time>
      </trkpt>
      <trkpt lat="42.300400" lon="2.236930">
        <ele>1425.12</ele>
        <time>2019-07-19T05:14:42.40Z</time>
      </trkpt>
      <trkpt lat="42.300610" lon="2.236580">
        <ele>1422.23</ele>
        <time>2019-07-19T05:14:51.92Z</time>
      </trkpt>
      <trkpt lat="42.300700" lon="2.236400">
        <ele>1421.53</ele>
        <time>2019-07-19T05:14:56.51Z</time>
      </trkpt>
      <trkpt lat="42.300620" lon="2.236170">
        <ele>1420.93</ele>
        <time>2019-07-19T05:15:01.88Z</time>
      </trkpt>
      <trkpt lat="42.300670" lon="2.235950">
        <ele>1419.92</ele>
        <time>2019-07-19T05:15:06.75Z</time>
      </trkpt>
      <trkpt lat="42.300800" lon="2.235830">
        <ele>1419.92</ele>
        <time>2019-07-19T05:15:11.24Z</time>
      </trkpt>
      <trkpt lat="42.301000" lon="2.235740">
        <ele>1418.70</ele>
        <time>2019-07-19T05:15:17.27Z</time>
      </trkpt>
      <trkpt lat="42.301230" lon="2.235600">
        <ele>1415.78</ele>
        <time>2019-07-19T05:15:24.47Z</time>
      </trkpt>
      <trkpt lat="42.301360" lon="2.235410">
        <ele>1412.93</ele>
        <time>2019-07-19T05:15:29.94Z</time>
      </trkpt>
      <trkpt lat="42.302010" lon="2.234710">
        <ele>1402.21</ele>
        <time>2019-07-19T05:15:53.69Z</time>
      </trkpt>
      <trkpt lat="42.302360" lon="2.234310">
        <ele>1395.25</ele>
        <time>2019-07-19T05:16:06.78Z</time>
      </trkpt>
      <trkpt lat="42.302820" lon="2.233950">
        <ele>1388.62</ele>
        <time>2019-07-19T05:16:21.97Z</time>
      </trkpt>
      <trkpt lat="42.303180" lon="2.233720">
        <ele>1386.73</ele>
        <time>2019-07-19T05:16:33.34Z</time>
      </trkpt>
      <trkpt lat="42.303440" lon="2.233690">
        <ele>1385.76</ele>
        <time>2019-07-19T05:16:40.80Z</time>
      </trkpt>
      <trkpt lat="42.303570" lon="2.233540">
        <ele>1385.30</ele>
        <time>2019-07-19T05:16:45.68Z</time>
      </trkpt>
      <trkpt lat="42.303700" lon="2.233260">
        <ele>1383.85</ele>
        <time>2019-07-19T05:16:52.67Z</time>
      </trkpt>
      <trkpt lat="42.303820" lon="2.233120">
        <ele>1381.19</ele>
        <time>2019-07-19T05:16:57.19Z</time>
      </trkpt>
      <trkpt lat="42.304030" lon="2.233500">
        <ele>1376.97</ele>
        <time>2019-07-19T05:17:07.22Z</time>
      </trkpt>
      <trkpt lat="42.304120" lon="2.233460">
        <ele>1375.41</ele>
        <time>2019-07-19T05:17:09.92Z</time>
      </trkpt>
      <trkpt lat="42.304440" lon="2.233240">
        <ele>1370.55</ele>
        <time>2019-07-19T05:17:20.18Z</time>
      </trkpt>
      <trkpt lat="42.304590" lon="2.233150">
        <ele>1367.92</ele>
        <time>2019-07-19T05:17:24.87Z</time>
      </trkpt>
      <trkpt lat="42.304920" lon="2.232990">
        <ele>1362.66</ele>
        <time>2019-07-19T05:17:34.89Z</time>
      </trkpt>
      <trkpt lat="42.305430" lon="2.233120">
        <ele>1358.07</ele>
        <time>2019-07-19T05:17:49.71Z</time>
      </trkpt>
      <trkpt lat="42.305860" lon="2.233120">
        <ele>1351.63</ele>
        <time>2019-07-19T05:18:02Z</time>
      </trkpt>
      <trkpt lat="42.306220" lon="2.233190">
        <ele>1348.56</ele>
        <time>2019-07-19T05:18:12.39Z</time>
      </trkpt>
      <trkpt lat="42.306630" lon="2.233480">
        <ele>1341.14</ele>
        <time>2019-07-19T05:18:25.61Z</time>
      </trkpt>
      <trkpt lat="42.306920" lon="2.233750">
        <ele>1334.90</ele>
        <time>2019-07-19T05:18:35.67Z</time>
      </trkpt>
      <trkpt lat="42.307240" lon="2.233510">
        <ele>1329.90</ele>
        <time>2019-07-19T05:18:46.13Z</time>
      </trkpt>
      <trkpt lat="42.307200" lon="2.232980">
        <ele>1324.17</ele>
        <time>2019-07-19T05:18:57.38Z</time>
      </trkpt>
      <trkpt lat="42.307040" lon="2.232420">
        <ele>1320.77</ele>
        <time>2019-07-19T05:19:10.07Z</time>
      </trkpt>
      <trkpt lat="42.307050" lon="2.232020">
        <ele>1319.60</ele>
        <time>2019-07-19T05:19:18.53Z</time>
      </trkpt>
      <trkpt lat="42.307010" lon="2.231480">
        <ele>1316.69</ele>
        <time>2019-07-19T05:19:29.99Z</time>
      </trkpt>
      <trkpt lat="42.306680" lon="2.230870">
        <ele>1309.90</ele>
        <time>2019-07-19T05:19:45.96Z</time>
      </trkpt>
      <trkpt lat="42.306450" lon="2.230090">
        <ele>1301.81</ele>
        <time>2019-07-19T05:20:03.71Z</time>
      </trkpt>
      <trkpt lat="42.306710" lon="2.229940">
        <ele>1300.43</ele>
        <time>2019-07-19T05:20:11.78Z</time>
      </trkpt>
      <trkpt lat="42.306920" lon="2.229760">
        <ele>1300.14</ele>
        <time>2019-07-19T05:20:18.89Z</time>
      </trkpt>
      <trkpt lat="42.307020" lon="2.229580">
        <ele>1300.04</ele>
        <time>2019-07-19T05:20:23.64Z</time>
      </trkpt>
      <trkpt lat="42.307030" lon="2.229360">
        <ele>1299.89</ele>
        <time>2019-07-19T05:20:28.30Z</time>
      </trkpt>
      <trkpt lat="42.306980" lon="2.229210">
        <ele>1299.73</ele>
        <time>2019-07-19T05:20:31.78Z</time>
      </trkpt>
      <trkpt lat="42.307130" lon="2.229020">
        <ele>1297.29</ele>
        <time>2019-07-19T05:20:37.65Z</time>
      </trkpt>
      <trkpt lat="42.307270" lon="2.228750">
        <ele>1293.32</ele>
        <time>2019-07-19T05:20:44.62Z</time>
      </trkpt>
      <trkpt lat="42.307440" lon="2.228580">
        <ele>1291.97</ele>
        <time>2019-07-19T05:20:50.66Z</time>
      </trkpt>
      <trkpt lat="42.307590" lon="2.228540">
        <ele>1289.12</ele>
        <time>2019-07-19T05:20:55.03Z</time>
      </trkpt>
      <trkpt lat="42.307710" lon="2.228570">
        <ele>1286.89</ele>
        <time>2019-07-19T05:20:58.51Z</time>
      </trkpt>
      <trkpt lat="42.307740" lon="2.228490">
        <ele>1286.89</ele>
        <time>2019-07-19T05:21:00.41Z</time>
      </trkpt>
      <trkpt lat="42.307590" lon="2.227980">
        <ele>1279.97</ele>
        <time>2019-07-19T05:21:12.01Z</time>
      </trkpt>
      <trkpt lat="42.307630" lon="2.227890">
        <ele>1279.97</ele>
        <time>2019-07-19T05:21:14.22Z</time>
      </trkpt>
      <trkpt lat="42.308090" lon="2.227340">
        <ele>1271.61</ele>
        <time>2019-07-19T05:21:31.77Z</time>
      </trkpt>
      <trkpt lat="42.308170" lon="2.227150">
        <ele>1269.39</ele>
        <time>2019-07-19T05:21:36.39Z</time>
      </trkpt>
      <trkpt lat="42.308210" lon="2.226930">
        <ele>1268.24</ele>
        <time>2019-07-19T05:21:41.18Z</time>
      </trkpt>
      <trkpt lat="42.308260" lon="2.226710">
        <ele>1266.34</ele>
        <time>2019-07-19T05:21:46.04Z</time>
      </trkpt>
      <trkpt lat="42.308450" lon="2.226390">
        <ele>1260.80</ele>
        <time>2019-07-19T05:21:54.71Z</time>
      </trkpt>
      <trkpt lat="42.308390" lon="2.225770">
        <ele>1258.00</ele>
        <time>2019-07-19T05:22:07.92Z</time>
      </trkpt>
      <trkpt lat="42.308370" lon="2.225190">
        <ele>1253.55</ele>
        <time>2019-07-19T05:22:20.19Z</time>
      </trkpt>
      <trkpt lat="42.308250" lon="2.224730">
        <ele>1248.69</ele>
        <time>2019-07-19T05:22:30.50Z</time>
      </trkpt>
      <trkpt lat="42.308130" lon="2.224450">
        <ele>1244.44</ele>
        <time>2019-07-19T05:22:37.33Z</time>
      </trkpt>
      <trkpt lat="42.308080" lon="2.224190">
        <ele>1241.10</ele>
        <time>2019-07-19T05:22:43.01Z</time>
      </trkpt>
      <trkpt lat="42.308080" lon="2.223910">
        <ele>1237.27</ele>
        <time>2019-07-19T05:22:48.93Z</time>
      </trkpt>
      <trkpt lat="42.307980" lon="2.223540">
        <ele>1231.29</ele>
        <time>2019-07-19T05:22:57.25Z</time>
      </trkpt>
      <trkpt lat="42.307860" lon="2.223290">
        <ele>1224.92</ele>
        <time>2019-07-19T05:23:03.55Z</time>
      </trkpt>
      <trkpt lat="42.307700" lon="2.223220">
        <ele>1220.41</ele>
        <time>2019-07-19T05:23:08.35Z</time>
      </trkpt>
      <trkpt lat="42.307580" lon="2.223220">
        <ele>1217.72</ele>
        <time>2019-07-19T05:23:11.78Z</time>
      </trkpt>
      <trkpt lat="42.307500" lon="2.223300">
        <ele>1216.49</ele>
        <time>2019-07-19T05:23:14.62Z</time>
      </trkpt>
      <trkpt lat="42.307450" lon="2.223490">
        <ele>1215.63</ele>
        <time>2019-07-19T05:23:18.89Z</time>
      </trkpt>
      <trkpt lat="42.307390" lon="2.223560">
        <ele>1213.80</ele>
        <time>2019-07-19T05:23:21.15Z</time>
      </trkpt>
      <trkpt lat="42.307300" lon="2.223470">
        <ele>1213.80</ele>
        <time>2019-07-19T05:23:24.35Z</time>
      </trkpt>
      <trkpt lat="42.307290" lon="2.223320">
        <ele>1213.80</ele>
        <time>2019-07-19T05:23:27.53Z</time>
      </trkpt>
      <trkpt lat="42.307360" lon="2.223070">
        <ele>1210.37</ele>
        <time>2019-07-19T05:23:33.18Z</time>
      </trkpt>
      <trkpt lat="42.307530" lon="2.222830">
        <ele>1206.09</ele>
        <time>2019-07-19T05:23:40.20Z</time>
      </trkpt>
      <trkpt lat="42.307830" lon="2.222530">
        <ele>1200.85</ele>
        <time>2019-07-19T05:23:50.86Z</time>
      </trkpt>
      <trkpt lat="42.308420" lon="2.222090">
        <ele>1190.45</ele>
        <time>2019-07-19T05:24:10.11Z</time>
      </trkpt>
      <trkpt lat="42.308900" lon="2.221880">
        <ele>1182.84</ele>
        <time>2019-07-19T05:24:24.53Z</time>
      </trkpt>
      <trkpt lat="42.309020" lon="2.221780">
        <ele>1179.33</ele>
        <time>2019-07-19T05:24:28.55Z</time>
      </trkpt>
      <trkpt lat="42.309140" lon="2.221730">
        <ele>1176.35</ele>
        <time>2019-07-19T05:24:32.14Z</time>
      </trkpt>
      <trkpt lat="42.309210" lon="2.221660">
        <ele>1175.27</ele>
        <time>2019-07-19T05:24:34.63Z</time>
      </trkpt>
      <trkpt lat="42.309370" lon="2.221250">
        <ele>1170.85</ele>
        <time>2019-07-19T05:24:44.42Z</time>
      </trkpt>
      <trkpt lat="42.309640" lon="2.220750">
        <ele>1167.60</ele>
        <time>2019-07-19T05:24:57.51Z</time>
      </trkpt>
      <trkpt lat="42.309680" lon="2.220640">
        <ele>1167.60</ele>
        <time>2019-07-19T05:25:00.10Z</time>
      </trkpt>
      <trkpt lat="42.309720" lon="2.220420">
        <ele>1166.03</ele>
        <time>2019-07-19T05:25:04.88Z</time>
      </trkpt>
      <trkpt lat="42.309800" lon="2.220140">
        <ele>1163.54</ele>
        <time>2019-07-19T05:25:11.22Z</time>
      </trkpt>
      <trkpt lat="42.309770" lon="2.219970">
        <ele>1162.03</ele>
        <time>2019-07-19T05:25:14.92Z</time>
      </trkpt>
      <trkpt lat="42.309650" lon="2.219860">
        <ele>1160.52</ele>
        <time>2019-07-19T05:25:19.06Z</time>
      </trkpt>
      <trkpt lat="42.309430" lon="2.219870">
        <ele>1157.95</ele>
        <time>2019-07-19T05:25:25.35Z</time>
      </trkpt>
      <trkpt lat="42.309130" lon="2.219980">
        <ele>1156.94</ele>
        <time>2019-07-19T05:25:34.23Z</time>
      </trkpt>
      <trkpt lat="42.309080" lon="2.219920">
        <ele>1157.45</ele>
        <time>2019-07-19T05:25:36.14Z</time>
      </trkpt>
      <trkpt lat="42.309100" lon="2.219740">
        <ele>1158.00</ele>
        <time>2019-07-19T05:25:39.99Z</time>
      </trkpt>
      <trkpt lat="42.309300" lon="2.219400">
        <ele>1159.92</ele>
        <time>2019-07-19T05:25:49.17Z</time>
      </trkpt>
      <trkpt lat="42.309340" lon="2.219180">
        <ele>1160.16</ele>
        <time>2019-07-19T05:25:53.95Z</time>
      </trkpt>
      <trkpt lat="42.309370" lon="2.218550">
        <ele>1157.57</ele>
        <time>2019-07-19T05:26:07.29Z</time>
      </trkpt>
      <trkpt lat="42.309320" lon="2.218020">
        <ele>1153.17</ele>
        <time>2019-07-19T05:26:18.58Z</time>
      </trkpt>
      <trkpt lat="42.309350" lon="2.217660">
        <ele>1148.80</ele>
        <time>2019-07-19T05:26:26.24Z</time>
      </trkpt>
      <trkpt lat="42.309430" lon="2.217410">
        <ele>1145.13</ele>
        <time>2019-07-19T05:26:31.99Z</time>
      </trkpt>
      <trkpt lat="42.309440" lon="2.217090">
        <ele>1141.93</ele>
        <time>2019-07-19T05:26:38.76Z</time>
      </trkpt>
      <trkpt lat="42.309350" lon="2.216520">
        <ele>1135.38</ele>
        <time>2019-07-19T05:26:51.07Z</time>
      </trkpt>
      <trkpt lat="42.309330" lon="2.216150">
        <ele>1131.94</ele>
        <time>2019-07-19T05:26:58.91Z</time>
      </trkpt>
      <trkpt lat="42.309270" lon="2.215710">
        <ele>1128.53</ele>
        <time>2019-07-19T05:27:08.37Z</time>
      </trkpt>
      <trkpt lat="42.309160" lon="2.215370">
        <ele>1125.47</ele>
        <time>2019-07-19T05:27:16.21Z</time>
      </trkpt>
      <trkpt lat="42.308970" lon="2.214970">
        <ele>1123.03</ele>
        <time>2019-07-19T05:27:26.25Z</time>
      </trkpt>
      <trkpt lat="42.308840" lon="2.214800">
        <ele>1120.87</ele>
        <time>2019-07-19T05:27:31.42Z</time>
      </trkpt>
      <trkpt lat="42.308840" lon="2.214720">
        <ele>1120.87</ele>
        <time>2019-07-19T05:27:33.11Z</time>
      </trkpt>
      <trkpt lat="42.309220" lon="2.213990">
        <ele>1113.30</ele>
        <time>2019-07-19T05:27:51.97Z</time>
      </trkpt>
      <trkpt lat="42.309370" lon="2.213960">
        <ele>1112.62</ele>
        <time>2019-07-19T05:27:56.30Z</time>
      </trkpt>
      <trkpt lat="42.309430" lon="2.213930">
        <ele>1112.62</ele>
        <time>2019-07-19T05:27:58.13Z</time>
      </trkpt>
      <trkpt lat="42.309500" lon="2.213840">
        <ele>1112.43</ele>
        <time>2019-07-19T05:28:00.89Z</time>
      </trkpt>
      <trkpt lat="42.309670" lon="2.213110">
        <ele>1109.91</ele>
        <time>2019-07-19T05:28:17.06Z</time>
      </trkpt>
      <trkpt lat="42.309680" lon="2.212720">
        <ele>1110.46</ele>
        <time>2019-07-19T05:28:25.31Z</time>
      </trkpt>
      <trkpt lat="42.309700" lon="2.212610">
        <ele>1110.53</ele>
        <time>2019-07-19T05:28:27.70Z</time>
      </trkpt>
      <trkpt lat="42.309810" lon="2.212280">
        <ele>1110.10</ele>
        <time>2019-07-19T05:28:35.35Z</time>
      </trkpt>
      <trkpt lat="42.309780" lon="2.211970">
        <ele>1110.02</ele>
        <time>2019-07-19T05:28:41.95Z</time>
      </trkpt>
      <trkpt lat="42.309790" lon="2.211890">
        <ele>1110.11</ele>
        <time>2019-07-19T05:28:43.67Z</time>
      </trkpt>
      <trkpt lat="42.309820" lon="2.211830">
        <ele>1110.24</ele>
        <time>2019-07-19T05:28:45.20Z</time>
      </trkpt>
      <trkpt lat="42.310100" lon="2.211520">
        <ele>1112.07</ele>
        <time>2019-07-19T05:28:55.54Z</time>
      </trkpt>
      <trkpt lat="42.310150" lon="2.211360">
        <ele>1113.12</ele>
        <time>2019-07-19T05:28:59.21Z</time>
      </trkpt>
      <trkpt lat="42.310030" lon="2.210850">
        <ele>1116.88</ele>
        <time>2019-07-19T05:29:10.52Z</time>
      </trkpt>
      <trkpt lat="42.310030" lon="2.210700">
        <ele>1117.33</ele>
        <time>2019-07-19T05:29:13.69Z</time>
      </trkpt>
      <trkpt lat="42.310140" lon="2.210110">
        <ele>1121.75</ele>
        <time>2019-07-19T05:29:26.54Z</time>
      </trkpt>
      <trkpt lat="42.310210" lon="2.209760">
        <ele>1124.01</ele>
        <time>2019-07-19T05:29:34.20Z</time>
      </trkpt>
      <trkpt lat="42.310290" lon="2.209540">
        <ele>1125.84</ele>
        <time>2019-07-19T05:29:39.38Z</time>
      </trkpt>
      <trkpt lat="42.310320" lon="2.209190">
        <ele>1127.50</ele>
        <time>2019-07-19T05:29:46.83Z</time>
      </trkpt>
      <trkpt lat="42.310510" lon="2.208740">
        <ele>1130.11</ele>
        <time>2019-07-19T05:29:57.78Z</time>
      </trkpt>
      <trkpt lat="42.310550" lon="2.208710">
        <ele>1130.78</ele>
        <time>2019-07-19T05:29:59.08Z</time>
      </trkpt>
      <trkpt lat="42.310600" lon="2.208710">
        <ele>1131.35</ele>
        <time>2019-07-19T05:30:00.51Z</time>
      </trkpt>
      <trkpt lat="42.310680" lon="2.208770">
        <ele>1132.46</ele>
        <time>2019-07-19T05:30:03.13Z</time>
      </trkpt>
      <trkpt lat="42.310760" lon="2.208880">
        <ele>1132.46</ele>
        <time>2019-07-19T05:30:06.39Z</time>
      </trkpt>
      <trkpt lat="42.310970" lon="2.209240">
        <ele>1136.28</ele>
        <time>2019-07-19T05:30:16.07Z</time>
      </trkpt>
      <trkpt lat="42.311040" lon="2.209310">
        <ele>1137.22</ele>
        <time>2019-07-19T05:30:18.56Z</time>
      </trkpt>
      <trkpt lat="42.311120" lon="2.209350">
        <ele>1139.21</ele>
        <time>2019-07-19T05:30:21Z</time>
      </trkpt>
      <trkpt lat="42.311300" lon="2.209360">
        <ele>1139.21</ele>
        <time>2019-07-19T05:30:26.14Z</time>
      </trkpt>
      <trkpt lat="42.311560" lon="2.209320">
        <ele>1139.53</ele>
        <time>2019-07-19T05:30:33.62Z</time>
      </trkpt>
      <trkpt lat="42.312200" lon="2.209210">
        <ele>1139.56</ele>
        <time>2019-07-19T05:30:52.05Z</time>
      </trkpt>
      <trkpt lat="42.312310" lon="2.209230">
        <ele>1139.56</ele>
        <time>2019-07-19T05:30:55.23Z</time>
      </trkpt>
      <trkpt lat="42.312470" lon="2.209330">
        <ele>1139.56</ele>
        <time>2019-07-19T05:31:00.26Z</time>
      </trkpt>
      <trkpt lat="42.312560" lon="2.209330">
        <ele>1139.46</ele>
        <time>2019-07-19T05:31:02.83Z</time>
      </trkpt>
      <trkpt lat="42.312880" lon="2.209240">
        <ele>1139.16</ele>
        <time>2019-07-19T05:31:12.17Z</time>
      </trkpt>
      <trkpt lat="42.313310" lon="2.209060">
        <ele>1138.45</ele>
        <time>2019-07-19T05:31:25.03Z</time>
      </trkpt>
      <trkpt lat="42.313600" lon="2.209050">
        <ele>1138.31</ele>
        <time>2019-07-19T05:31:33.32Z</time>
      </trkpt>
      <trkpt lat="42.313930" lon="2.208970">
        <ele>1138.31</ele>
        <time>2019-07-19T05:31:42.90Z</time>
      </trkpt>
      <trkpt lat="42.314000" lon="2.208900">
        <ele>1138.36</ele>
        <time>2019-07-19T05:31:45.39Z</time>
      </trkpt>
      <trkpt lat="42.314050" lon="2.208810">
        <ele>1138.44</ele>
        <time>2019-07-19T05:31:47.77Z</time>
      </trkpt>
      <trkpt lat="42.314210" lon="2.208400">
        <ele>1139.71</ele>
        <time>2019-07-19T05:31:57.56Z</time>
      </trkpt>
      <trkpt lat="42.314400" lon="2.208190">
        <ele>1140.34</ele>
        <time>2019-07-19T05:32:04.57Z</time>
      </trkpt>
      <trkpt lat="42.314520" lon="2.208130">
        <ele>1140.56</ele>
        <time>2019-07-19T05:32:08.23Z</time>
      </trkpt>
      <trkpt lat="42.314790" lon="2.208080">
        <ele>1141.14</ele>
        <time>2019-07-19T05:32:16.01Z</time>
      </trkpt>
      <trkpt lat="42.315000" lon="2.207990">
        <ele>1141.85</ele>
        <time>2019-07-19T05:32:22.31Z</time>
      </trkpt>
      <trkpt lat="42.315160" lon="2.207860">
        <ele>1142.42</ele>
        <time>2019-07-19T05:32:27.64Z</time>
      </trkpt>
      <trkpt lat="42.315330" lon="2.207660">
        <ele>1142.71</ele>
        <time>2019-07-19T05:32:34.08Z</time>
      </trkpt>
      <trkpt lat="42.315360" lon="2.207580">
        <ele>1142.71</ele>
        <time>2019-07-19T05:32:35.97Z</time>
      </trkpt>
      <trkpt lat="42.315360" lon="2.207490">
        <ele>1142.80</ele>
        <time>2019-07-19T05:32:37.87Z</time>
      </trkpt>
      <trkpt lat="42.315300" lon="2.207080">
        <ele>1142.82</ele>
        <time>2019-07-19T05:32:46.70Z</time>
      </trkpt>
      <trkpt lat="42.315290" lon="2.206660">
        <ele>1142.64</ele>
        <time>2019-07-19T05:32:55.58Z</time>
      </trkpt>
      <trkpt lat="42.315240" lon="2.206380">
        <ele>1142.62</ele>
        <time>2019-07-19T05:33:01.67Z</time>
      </trkpt>
      <trkpt lat="42.315210" lon="2.205910">
        <ele>1143.06</ele>
        <time>2019-07-19T05:33:11.63Z</time>
      </trkpt>
      <trkpt lat="42.315140" lon="2.205590">
        <ele>1143.99</ele>
        <time>2019-07-19T05:33:18.68Z</time>
      </trkpt>
      <trkpt lat="42.314920" lon="2.205000">
        <ele>1146.49</ele>
        <time>2019-07-19T05:33:32.65Z</time>
      </trkpt>
      <trkpt lat="42.314900" lon="2.204900">
        <ele>1146.49</ele>
        <time>2019-07-19T05:33:34.83Z</time>
      </trkpt>
      <trkpt lat="42.315010" lon="2.203990">
        <ele>1149.47</ele>
        <time>2019-07-19T05:33:54.31Z</time>
      </trkpt>
      <trkpt lat="42.315030" lon="2.203950">
        <ele>1149.47</ele>
        <time>2019-07-19T05:33:55.33Z</time>
      </trkpt>
      <trkpt lat="42.315060" lon="2.203950">
        <ele>1149.87</ele>
        <time>2019-07-19T05:33:56.19Z</time>
      </trkpt>
      <trkpt lat="42.315320" lon="2.204580">
        <ele>1152.39</ele>
        <time>2019-07-19T05:34:11.43Z</time>
      </trkpt>
      <trkpt lat="42.315750" lon="2.205490">
        <ele>1156.98</ele>
        <time>2019-07-19T05:34:34.25Z</time>
      </trkpt>
      <trkpt lat="42.315750" lon="2.205480">
        <ele>1156.95</ele>
        <time>2019-07-19T05:34:34.51Z</time>
      </trkpt>
      <trkpt lat="42.315800" lon="2.205660">
        <ele>1157.81</ele>
        <time>2019-07-19T05:34:38.57Z</time>
      </trkpt>
      <trkpt lat="42.315830" lon="2.205880">
        <ele>1158.20</ele>
        <time>2019-07-19T05:34:43.30Z</time>
      </trkpt>
      <trkpt lat="42.315870" lon="2.206560">
        <ele>1160.60</ele>
        <time>2019-07-19T05:34:57.71Z</time>
      </trkpt>
      <trkpt lat="42.315970" lon="2.207180">
        <ele>1164.42</ele>
        <time>2019-07-19T05:35:11.12Z</time>
      </trkpt>
      <trkpt lat="42.316050" lon="2.207340">
        <ele>1165.12</ele>
        <time>2019-07-19T05:35:15.20Z</time>
      </trkpt>
      <trkpt lat="42.316150" lon="2.207380">
        <ele>1166.32</ele>
        <time>2019-07-19T05:35:18.18Z</time>
      </trkpt>
      <trkpt lat="42.316210" lon="2.207330">
        <ele>1166.85</ele>
        <time>2019-07-19T05:35:20.19Z</time>
      </trkpt>
      <trkpt lat="42.316250" lon="2.207240">
        <ele>1166.85</ele>
        <time>2019-07-19T05:35:22.41Z</time>
      </trkpt>
      <trkpt lat="42.316250" lon="2.207120">
        <ele>1167.96</ele>
        <time>2019-07-19T05:35:24.94Z</time>
      </trkpt>
      <trkpt lat="42.316040" lon="2.206210">
        <ele>1171.90</ele>
        <time>2019-07-19T05:35:45.08Z</time>
      </trkpt>
      <trkpt lat="42.316050" lon="2.206020">
        <ele>1172.98</ele>
        <time>2019-07-19T05:35:49.11Z</time>
      </trkpt>
      <trkpt lat="42.316090" lon="2.205900">
        <ele>1173.51</ele>
        <time>2019-07-19T05:35:51.89Z</time>
      </trkpt>
      <trkpt lat="42.316200" lon="2.205850">
        <ele>1174.87</ele>
        <time>2019-07-19T05:35:55.20Z</time>
      </trkpt>
      <trkpt lat="42.316290" lon="2.205900">
        <ele>1175.38</ele>
        <time>2019-07-19T05:35:57.98Z</time>
      </trkpt>
      <trkpt lat="42.316330" lon="2.206020">
        <ele>1175.90</ele>
        <time>2019-07-19T05:36:00.76Z</time>
      </trkpt>
      <trkpt lat="42.316310" lon="2.206320">
        <ele>1177.30</ele>
        <time>2019-07-19T05:36:07.13Z</time>
      </trkpt>
      <trkpt lat="42.316320" lon="2.206480">
        <ele>1177.85</ele>
        <time>2019-07-19T05:36:10.52Z</time>
      </trkpt>
      <trkpt lat="42.316410" lon="2.206870">
        <ele>1179.36</ele>
        <time>2019-07-19T05:36:19.15Z</time>
      </trkpt>
      <trkpt lat="42.316480" lon="2.207290">
        <ele>1182.71</ele>
        <time>2019-07-19T05:36:28.25Z</time>
      </trkpt>
      <trkpt lat="42.316520" lon="2.207410">
        <ele>1183.73</ele>
        <time>2019-07-19T05:36:31.03Z</time>
      </trkpt>
      <trkpt lat="42.316710" lon="2.207730">
        <ele>1186.17</ele>
        <time>2019-07-19T05:36:39.70Z</time>
      </trkpt>
      <trkpt lat="42.316750" lon="2.207880">
        <ele>1186.17</ele>
        <time>2019-07-19T05:36:43.07Z</time>
      </trkpt>
      <trkpt lat="42.316700" lon="2.208040">
        <ele>1186.78</ele>
        <time>2019-07-19T05:36:46.74Z</time>
      </trkpt>
      <trkpt lat="42.316500" lon="2.208330">
        <ele>1187.97</ele>
        <time>2019-07-19T05:36:55.12Z</time>
      </trkpt>
      <trkpt lat="42.316340" lon="2.208490">
        <ele>1188.57</ele>
        <time>2019-07-19T05:37:00.80Z</time>
      </trkpt>
      <trkpt lat="42.315990" lon="2.208780">
        <ele>1189.64</ele>
        <time>2019-07-19T05:37:12.53Z</time>
      </trkpt>
      <trkpt lat="42.315780" lon="2.209020">
        <ele>1191.40</ele>
        <time>2019-07-19T05:37:20.38Z</time>
      </trkpt>
      <trkpt lat="42.315650" lon="2.209280">
        <ele>1194.35</ele>
        <time>2019-07-19T05:37:27.01Z</time>
      </trkpt>
      <trkpt lat="42.315640" lon="2.209500">
        <ele>1195.62</ele>
        <time>2019-07-19T05:37:31.67Z</time>
      </trkpt>
      <trkpt lat="42.315960" lon="2.210260">
        <ele>1206.43</ele>
        <time>2019-07-19T05:37:50.15Z</time>
      </trkpt>
      <trkpt lat="42.315960" lon="2.210440">
        <ele>1207.33</ele>
        <time>2019-07-19T05:37:53.95Z</time>
      </trkpt>
      <trkpt lat="42.315920" lon="2.210570">
        <ele>1207.33</ele>
        <time>2019-07-19T05:37:56.93Z</time>
      </trkpt>
      <trkpt lat="42.315820" lon="2.210680">
        <ele>1208.23</ele>
        <time>2019-07-19T05:38:00.61Z</time>
      </trkpt>
      <trkpt lat="42.315460" lon="2.210880">
        <ele>1208.94</ele>
        <time>2019-07-19T05:38:11.73Z</time>
      </trkpt>
      <trkpt lat="42.315300" lon="2.210950">
        <ele>1209.22</ele>
        <time>2019-07-19T05:38:16.53Z</time>
      </trkpt>
      <trkpt lat="42.315020" lon="2.211030">
        <ele>1210.54</ele>
        <time>2019-07-19T05:38:24.71Z</time>
      </trkpt>
      <trkpt lat="42.314840" lon="2.211110">
        <ele>1211.93</ele>
        <time>2019-07-19T05:38:30.12Z</time>
      </trkpt>
      <trkpt lat="42.314330" lon="2.211600">
        <ele>1218.55</ele>
        <time>2019-07-19T05:38:48Z</time>
      </trkpt>
      <trkpt lat="42.314170" lon="2.211730">
        <ele>1222.03</ele>
        <time>2019-07-19T05:38:53.33Z</time>
      </trkpt>
      <trkpt lat="42.314020" lon="2.211890">
        <ele>1228.69</ele>
        <time>2019-07-19T05:38:58.79Z</time>
      </trkpt>
      <trkpt lat="42.313950" lon="2.212030">
        <ele>1228.69</ele>
        <time>2019-07-19T05:39:02.36Z</time>
      </trkpt>
      <trkpt lat="42.313890" lon="2.212450">
        <ele>1232.64</ele>
        <time>2019-07-19T05:39:11.40Z</time>
      </trkpt>
      <trkpt lat="42.313900" lon="2.212450">
        <ele>1232.67</ele>
        <time>2019-07-19T05:39:11.68Z</time>
      </trkpt>
      <trkpt lat="42.313860" lon="2.212770">
        <ele>1236.54</ele>
        <time>2019-07-19T05:39:18.54Z</time>
      </trkpt>
      <trkpt lat="42.313790" lon="2.212890">
        <ele>1234.63</ele>
        <time>2019-07-19T05:39:21.77Z</time>
      </trkpt>
      <trkpt lat="42.313650" lon="2.212950">
        <ele>1232.76</ele>
        <time>2019-07-19T05:39:25.97Z</time>
      </trkpt>
      <trkpt lat="42.313300" lon="2.212820">
        <ele>1228.87</ele>
        <time>2019-07-19T05:39:36.34Z</time>
      </trkpt>
      <trkpt lat="42.313150" lon="2.212810">
        <ele>1225.33</ele>
        <time>2019-07-19T05:39:40.63Z</time>
      </trkpt>
      <trkpt lat="42.313020" lon="2.212850">
        <ele>1225.33</ele>
        <time>2019-07-19T05:39:44.44Z</time>
      </trkpt>
      <trkpt lat="42.312890" lon="2.212960">
        <ele>1224.95</ele>
        <time>2019-07-19T05:39:48.82Z</time>
      </trkpt>
      <trkpt lat="42.312620" lon="2.213210">
        <ele>1225.41</ele>
        <time>2019-07-19T05:39:58.17Z</time>
      </trkpt>
      <trkpt lat="42.312510" lon="2.213440">
        <ele>1226.61</ele>
        <time>2019-07-19T05:40:03.95Z</time>
      </trkpt>
      <trkpt lat="42.312370" lon="2.213860">
        <ele>1229.46</ele>
        <time>2019-07-19T05:40:13.69Z</time>
      </trkpt>
      <trkpt lat="42.312300" lon="2.214040">
        <ele>1230.74</ele>
        <time>2019-07-19T05:40:17.98Z</time>
      </trkpt>
      <trkpt lat="42.312290" lon="2.214260">
        <ele>1230.74</ele>
        <time>2019-07-19T05:40:22.64Z</time>
      </trkpt>
      <trkpt lat="42.312320" lon="2.214440">
        <ele>1233.00</ele>
        <time>2019-07-19T05:40:26.54Z</time>
      </trkpt>
      <trkpt lat="42.312400" lon="2.214570">
        <ele>1233.00</ele>
        <time>2019-07-19T05:40:30.11Z</time>
      </trkpt>
      <trkpt lat="42.312330" lon="2.214700">
        <ele>1228.62</ele>
        <time>2019-07-19T05:40:33.51Z</time>
      </trkpt>
      <trkpt lat="42.312300" lon="2.214840">
        <ele>1228.62</ele>
        <time>2019-07-19T05:40:36.59Z</time>
      </trkpt>
      <trkpt lat="42.312830" lon="2.215610">
        <ele>1228.77</ele>
        <time>2019-07-19T05:40:58.82Z</time>
      </trkpt>
      <trkpt lat="42.313240" lon="2.216090">
        <ele>1227.53</ele>
        <time>2019-07-19T05:41:14.31Z</time>
      </trkpt>
      <trkpt lat="42.313340" lon="2.216300">
        <ele>1226.70</ele>
        <time>2019-07-19T05:41:19.59Z</time>
      </trkpt>
      <trkpt lat="42.313340" lon="2.216790">
        <ele>1224.89</ele>
        <time>2019-07-19T05:41:29.94Z</time>
      </trkpt>
      <trkpt lat="42.313240" lon="2.217620">
        <ele>1222.08</ele>
        <time>2019-07-19T05:41:47.71Z</time>
      </trkpt>
      <trkpt lat="42.313210" lon="2.217930">
        <ele>1221.64</ele>
        <time>2019-07-19T05:41:54.31Z</time>
      </trkpt>
      <trkpt lat="42.313240" lon="2.218530">
        <ele>1218.57</ele>
        <time>2019-07-19T05:42:07.02Z</time>
      </trkpt>
      <trkpt lat="42.313205" lon="2.219145">
        <ele>1216.25</ele>
        <time>2019-07-19T05:42:20.05Z</time>
      </trkpt>
      <trkpt lat="42.313170" lon="2.219760">
        <ele>1213.57</ele>
        <time>2019-07-19T05:42:33.08Z</time>
      </trkpt>
      <trkpt lat="42.312990" lon="2.220680">
        <ele>1210.86</ele>
        <time>2019-07-19T05:42:53.19Z</time>
      </trkpt>
      <trkpt lat="42.313130" lon="2.221110">
        <ele>1209.03</ele>
        <time>2019-07-19T05:43:03.12Z</time>
      </trkpt>
      <trkpt lat="42.313360" lon="2.221510">
        <ele>1208.06</ele>
        <time>2019-07-19T05:43:13.82Z</time>
      </trkpt>
      <trkpt lat="42.313300" lon="2.221600">
        <ele>1207.58</ele>
        <time>2019-07-19T05:43:16.38Z</time>
      </trkpt>
      <trkpt lat="42.313090" lon="2.221600">
        <ele>1206.97</ele>
        <time>2019-07-19T05:43:22.38Z</time>
      </trkpt>
      <trkpt lat="42.312930" lon="2.221700">
        <ele>1206.29</ele>
        <time>2019-07-19T05:43:27.42Z</time>
      </trkpt>
      <trkpt lat="42.312720" lon="2.222170">
        <ele>1205.55</ele>
        <time>2019-07-19T05:43:39.02Z</time>
      </trkpt>
      <trkpt lat="42.312780" lon="2.222760">
        <ele>1209.80</ele>
        <time>2019-07-19T05:43:51.60Z</time>
      </trkpt>
      <trkpt lat="42.313065" lon="2.223575">
        <ele>1211.87</ele>
        <time>2019-07-19T05:44:10.65Z</time>
      </trkpt>
      <trkpt lat="42.313350" lon="2.224390">
        <ele>1214.25</ele>
        <time>2019-07-19T05:44:29.70Z</time>
      </trkpt>
      <trkpt lat="42.313360" lon="2.225280">
        <ele>1219.67</ele>
        <time>2019-07-19T05:44:48.50Z</time>
      </trkpt>
      <trkpt lat="42.313200" lon="2.225690">
        <ele>1223.37</ele>
        <time>2019-07-19T05:44:58.30Z</time>
      </trkpt>
      <trkpt lat="42.313100" lon="2.226505">
        <ele>1228.82</ele>
        <time>2019-07-19T05:45:15.75Z</time>
      </trkpt>
      <trkpt lat="42.313000" lon="2.227320">
        <ele>1230.38</ele>
        <time>2019-07-19T05:45:33.21Z</time>
      </trkpt>
      <trkpt lat="42.313080" lon="2.227910">
        <ele>1229.85</ele>
        <time>2019-07-19T05:45:45.88Z</time>
      </trkpt>
      <trkpt lat="42.313080" lon="2.228030">
        <ele>1229.84</ele>
        <time>2019-07-19T05:45:48.42Z</time>
      </trkpt>
      <trkpt lat="42.312810" lon="2.227980">
        <ele>1232.25</ele>
        <time>2019-07-19T05:45:56.20Z</time>
      </trkpt>
      <trkpt lat="42.312750" lon="2.228120">
        <ele>1233.10</ele>
        <time>2019-07-19T05:45:59.62Z</time>
      </trkpt>
      <trkpt lat="42.312360" lon="2.228690">
        <ele>1247.54</ele>
        <time>2019-07-19T05:46:16.03Z</time>
      </trkpt>
      <trkpt lat="42.311850" lon="2.229015">
        <ele>1255.43</ele>
        <time>2019-07-19T05:46:32.14Z</time>
      </trkpt>
      <trkpt lat="42.311340" lon="2.229340">
        <ele>1264.89</ele>
        <time>2019-07-19T05:46:48.25Z</time>
      </trkpt>
      <trkpt lat="42.311110" lon="2.229870">
        <ele>1276.88</ele>
        <time>2019-07-19T05:47:01.23Z</time>
      </trkpt>
      <trkpt lat="42.310460" lon="2.230690">
        <ele>1289.07</ele>
        <time>2019-07-19T05:47:26.63Z</time>
      </trkpt>
      <trkpt lat="42.309810" lon="2.231510">
        <ele>1307.38</ele>
        <time>2019-07-19T05:47:52.03Z</time>
      </trkpt>
      <trkpt lat="42.309710" lon="2.231740">
        <ele>1309.89</ele>
        <time>2019-07-19T05:47:57.66Z</time>
      </trkpt>
      <trkpt lat="42.309890" lon="2.232870">
        <ele>1327.49</ele>
        <time>2019-07-19T05:48:22.09Z</time>
      </trkpt>
      <trkpt lat="42.309740" lon="2.233850">
        <ele>1339.21</ele>
        <time>2019-07-19T05:48:43.23Z</time>
      </trkpt>
      <trkpt lat="42.309760" lon="2.234420">
        <ele>1342.91</ele>
        <time>2019-07-19T05:48:55.29Z</time>
      </trkpt>
      <trkpt lat="42.309840" lon="2.234630">
        <ele>1345.46</ele>
        <time>2019-07-19T05:49:00.28Z</time>
      </trkpt>
      <trkpt lat="42.309660" lon="2.234880">
        <ele>1348.34</ele>
        <time>2019-07-19T05:49:07.65Z</time>
      </trkpt>
      <trkpt lat="42.309340" lon="2.235520">
        <ele>1360.87</ele>
        <time>2019-07-19T05:49:23.98Z</time>
      </trkpt>
      <trkpt lat="42.308760" lon="2.236210">
        <ele>1376.47</ele>
        <time>2019-07-19T05:49:46.05Z</time>
      </trkpt>
      <trkpt lat="42.308430" lon="2.236930">
        <ele>1389.05</ele>
        <time>2019-07-19T05:50:03.95Z</time>
      </trkpt>
      <trkpt lat="42.308390" lon="2.237340">
        <ele>1394.36</ele>
        <time>2019-07-19T05:50:12.68Z</time>
      </trkpt>
      <trkpt lat="42.308120" lon="2.237610">
        <ele>1395.64</ele>
        <time>2019-07-19T05:50:22.28Z</time>
      </trkpt>
      <trkpt lat="42.308200" lon="2.238140">
        <ele>1399.53</ele>
        <time>2019-07-19T05:50:33.71Z</time>
      </trkpt>
      <trkpt lat="42.308115" lon="2.238825">
        <ele>1404.87</ele>
        <time>2019-07-19T05:50:48.38Z</time>
      </trkpt>
      <trkpt lat="42.308030" lon="2.239510">
        <ele>1407.51</ele>
        <time>2019-07-19T05:51:03.06Z</time>
      </trkpt>
      <trkpt lat="42.308130" lon="2.239660">
        <ele>1408.29</ele>
        <time>2019-07-19T05:51:07.33Z</time>
      </trkpt>
      <trkpt lat="42.308590" lon="2.239790">
        <ele>1411.71</ele>
        <time>2019-07-19T05:51:20.75Z</time>
      </trkpt>
      <trkpt lat="42.309050" lon="2.239920">
        <ele>1411.57</ele>
        <time>2019-07-19T05:51:34.18Z</time>
      </trkpt>
      <trkpt lat="42.309540" lon="2.240560">
        <ele>1408.70</ele>
        <time>2019-07-19T05:51:53.65Z</time>
      </trkpt>
      <trkpt lat="42.309680" lon="2.240710">
        <ele>1407.60</ele>
        <time>2019-07-19T05:51:58.75Z</time>
      </trkpt>
      <trkpt lat="42.309610" lon="2.240930">
        <ele>1407.31</ele>
        <time>2019-07-19T05:52:03.81Z</time>
      </trkpt>
      <trkpt lat="42.309440" lon="2.240970">
        <ele>1406.31</ele>
        <time>2019-07-19T05:52:08.74Z</time>
      </trkpt>
      <trkpt lat="42.308760" lon="2.240790">
        <ele>1404.57</ele>
        <time>2019-07-19T05:52:28.54Z</time>
      </trkpt>
      <trkpt lat="42.308325" lon="2.241495">
        <ele>1404.38</ele>
        <time>2019-07-19T05:52:47.94Z</time>
      </trkpt>
      <trkpt lat="42.307890" lon="2.242200">
        <ele>1405.34</ele>
        <time>2019-07-19T05:53:07.34Z</time>
      </trkpt>
      <trkpt lat="42.307750" lon="2.242730">
        <ele>1406.08</ele>
        <time>2019-07-19T05:53:19.23Z</time>
      </trkpt>
      <trkpt lat="42.307820" lon="2.243280">
        <ele>1406.26</ele>
        <time>2019-07-19T05:53:31.02Z</time>
      </trkpt>
      <trkpt lat="42.307620" lon="2.244410">
        <ele>1413.68</ele>
        <time>2019-07-19T05:53:55.57Z</time>
      </trkpt>
      <trkpt lat="42.307320" lon="2.245255">
        <ele>1416.70</ele>
        <time>2019-07-19T05:54:15.38Z</time>
      </trkpt>
      <trkpt lat="42.307020" lon="2.246100">
        <ele>1419.42</ele>
        <time>2019-07-19T05:54:35.18Z</time>
      </trkpt>
      <trkpt lat="42.306750" lon="2.247040">
        <ele>1422.56</ele>
        <time>2019-07-19T05:54:56.49Z</time>
      </trkpt>
      <trkpt lat="42.306480" lon="2.247980">
        <ele>1419.81</ele>
        <time>2019-07-19T05:55:17.80Z</time>
      </trkpt>
      <trkpt lat="42.306560" lon="2.248460">
        <ele>1418.32</ele>
        <time>2019-07-19T05:55:28.20Z</time>
      </trkpt>
      <trkpt lat="42.306950" lon="2.248830">
        <ele>1415.27</ele>
        <time>2019-07-19T05:55:41.81Z</time>
      </trkpt>
      <trkpt lat="42.307160" lon="2.248860">
        <ele>1413.61</ele>
        <time>2019-07-19T05:55:47.84Z</time>
      </trkpt>
      <trkpt lat="42.307310" lon="2.248980">
        <ele>1413.09</ele>
        <time>2019-07-19T05:55:52.82Z</time>
      </trkpt>
      <trkpt lat="42.307470" lon="2.249190">
        <ele>1413.36</ele>
        <time>2019-07-19T05:55:59.19Z</time>
      </trkpt>
      <trkpt lat="42.307470" lon="2.249470">
        <ele>1415.15</ele>
        <time>2019-07-19T05:56:05.11Z</time>
      </trkpt>
      <trkpt lat="42.307580" lon="2.249600">
        <ele>1419.01</ele>
        <time>2019-07-19T05:56:09.28Z</time>
      </trkpt>
      <trkpt lat="42.307650" lon="2.249790">
        <ele>1420.60</ele>
        <time>2019-07-19T05:56:13.77Z</time>
      </trkpt>
      <trkpt lat="42.307550" lon="2.249830">
        <ele>1424.05</ele>
        <time>2019-07-19T05:56:16.75Z</time>
      </trkpt>
      <trkpt lat="42.307030" lon="2.249880">
        <ele>1437.30</ele>
        <time>2019-07-19T05:56:31.64Z</time>
      </trkpt>
      <trkpt lat="42.306770" lon="2.250030">
        <ele>1444.97</ele>
        <time>2019-07-19T05:56:39.72Z</time>
      </trkpt>
      <trkpt lat="42.306580" lon="2.250390">
        <ele>1456.26</ele>
        <time>2019-07-19T05:56:49.06Z</time>
      </trkpt>
      <trkpt lat="42.306480" lon="2.250970">
        <ele>1468.72</ele>
        <time>2019-07-19T05:57:01.65Z</time>
      </trkpt>
      <trkpt lat="42.306300" lon="2.251310">
        <ele>1474.12</ele>
        <time>2019-07-19T05:57:10.48Z</time>
      </trkpt>
      <trkpt lat="42.306130" lon="2.251930">
        <ele>1483.89</ele>
        <time>2019-07-19T05:57:24.45Z</time>
      </trkpt>
      <trkpt lat="42.305710" lon="2.252590">
        <ele>1496.41</ele>
        <time>2019-07-19T05:57:42.85Z</time>
      </trkpt>
      <trkpt lat="42.305580" lon="2.252980">
        <ele>1502.08</ele>
        <time>2019-07-19T05:57:51.89Z</time>
      </trkpt>
      <trkpt lat="42.305580" lon="2.253210">
        <ele>1505.93</ele>
        <time>2019-07-19T05:57:56.75Z</time>
      </trkpt>
      <trkpt lat="42.305910" lon="2.253020">
        <ele>1513.38</ele>
        <time>2019-07-19T05:58:07Z</time>
      </trkpt>
      <trkpt lat="42.306020" lon="2.253030">
        <ele>1514.65</ele>
        <time>2019-07-19T05:58:10.15Z</time>
      </trkpt>
      <trkpt lat="42.306030" lon="2.253160">
        <ele>1516.48</ele>
        <time>2019-07-19T05:58:12.91Z</time>
      </trkpt>
      <trkpt lat="42.305860" lon="2.253380">
        <ele>1521.34</ele>
        <time>2019-07-19T05:58:19.63Z</time>
      </trkpt>
      <trkpt lat="42.305720" lon="2.254310">
        <ele>1530.90</ele>
        <time>2019-07-19T05:58:39.69Z</time>
      </trkpt>
      <trkpt lat="42.305470" lon="2.254600">
        <ele>1535.34</ele>
        <time>2019-07-19T05:58:49.10Z</time>
      </trkpt>
      <trkpt lat="42.305430" lon="2.254730">
        <ele>1536.85</ele>
        <time>2019-07-19T05:58:52.08Z</time>
      </trkpt>
      <trkpt lat="42.305540" lon="2.255060">
        <ele>1540.00</ele>
        <time>2019-07-19T05:58:59.72Z</time>
      </trkpt>
      <trkpt lat="42.305490" lon="2.255160">
        <ele>1542.25</ele>
        <time>2019-07-19T05:59:02.27Z</time>
      </trkpt>
      <trkpt lat="42.305270" lon="2.255280">
        <ele>1546.06</ele>
        <time>2019-07-19T05:59:09.05Z</time>
      </trkpt>
      <trkpt lat="42.305100" lon="2.255750">
        <ele>1552.96</ele>
        <time>2019-07-19T05:59:20.11Z</time>
      </trkpt>
      <trkpt lat="42.305060" lon="2.256760">
        <ele>1564.37</ele>
        <time>2019-07-19T05:59:41.48Z</time>
      </trkpt>
      <trkpt lat="42.305150" lon="2.257280">
        <ele>1569.76</ele>
        <time>2019-07-19T05:59:52.77Z</time>
      </trkpt>
      <trkpt lat="42.305170" lon="2.257960">
        <ele>1578.66</ele>
        <time>2019-07-19T06:00:07.15Z</time>
      </trkpt>
      <trkpt lat="42.305230" lon="2.258180">
        <ele>1580.67</ele>
        <time>2019-07-19T06:00:12.10Z</time>
      </trkpt>
      <trkpt lat="42.305410" lon="2.258620">
        <ele>1586.59</ele>
        <time>2019-07-19T06:00:22.73Z</time>
      </trkpt>
      <trkpt lat="42.305670" lon="2.258810">
        <ele>1587.95</ele>
        <time>2019-07-19T06:00:31.17Z</time>
      </trkpt>
      <trkpt lat="42.306030" lon="2.259290">
        <ele>1591.51</ele>
        <time>2019-07-19T06:00:45.61Z</time>
      </trkpt>
      <trkpt lat="42.305830" lon="2.259690">
        <ele>1592.64</ele>
        <time>2019-07-19T06:00:55.82Z</time>
      </trkpt>
      <trkpt lat="42.305550" lon="2.259810">
        <ele>1593.10</ele>
        <time>2019-07-19T06:01:04.21Z</time>
      </trkpt>
      <trkpt lat="42.305390" lon="2.260010">
        <ele>1593.87</ele>
        <time>2019-07-19T06:01:10.44Z</time>
      </trkpt>
      <trkpt lat="42.305220" lon="2.260440">
        <ele>1594.97</ele>
        <time>2019-07-19T06:01:20.74Z</time>
      </trkpt>
      <trkpt lat="42.305050" lon="2.261160">
        <ele>1595.65</ele>
        <time>2019-07-19T06:01:36.71Z</time>
      </trkpt>
      <trkpt lat="42.304660" lon="2.261810">
        <ele>1595.52</ele>
        <time>2019-07-19T06:01:54.40Z</time>
      </trkpt>
      <trkpt lat="42.304490" lon="2.262240">
        <ele>1595.00</ele>
        <time>2019-07-19T06:02:04.70Z</time>
      </trkpt>
      <trkpt lat="42.304340" lon="2.262360">
        <ele>1594.08</ele>
        <time>2019-07-19T06:02:09.68Z</time>
      </trkpt>
      <trkpt lat="42.304200" lon="2.262780">
        <ele>1593.36</ele>
        <time>2019-07-19T06:02:19.41Z</time>
      </trkpt>
      <trkpt lat="42.303980" lon="2.262810">
        <ele>1593.06</ele>
        <time>2019-07-19T06:02:25.73Z</time>
      </trkpt>
      <trkpt lat="42.303750" lon="2.263060">
        <ele>1592.37</ele>
        <time>2019-07-19T06:02:34.16Z</time>
      </trkpt>
      <trkpt lat="42.303710" lon="2.263320">
        <ele>1591.78</ele>
        <time>2019-07-19T06:02:39.77Z</time>
      </trkpt>
      <trkpt lat="42.303850" lon="2.263600">
        <ele>1591.78</ele>
        <time>2019-07-19T06:02:46.92Z</time>
      </trkpt>
      <trkpt lat="42.303840" lon="2.263600">
        <ele>1591.78</ele>
        <time>2019-07-19T06:02:47.20Z</time>
      </trkpt>
      <trkpt lat="42.304130" lon="2.263940">
        <ele>1592.38</ele>
        <time>2019-07-19T06:02:58.17Z</time>
      </trkpt>
      <trkpt lat="42.304260" lon="2.264440">
        <ele>1593.32</ele>
        <time>2019-07-19T06:03:09.37Z</time>
      </trkpt>
      <trkpt lat="42.303760" lon="2.264950">
        <ele>1596.67</ele>
        <time>2019-07-19T06:03:27.26Z</time>
      </trkpt>
      <trkpt lat="42.303720" lon="2.265600">
        <ele>1599.76</ele>
        <time>2019-07-19T06:03:41.04Z</time>
      </trkpt>
      <trkpt lat="42.303690" lon="2.265790">
        <ele>1600.26</ele>
        <time>2019-07-19T06:03:45.15Z</time>
      </trkpt>
      <trkpt lat="42.303460" lon="2.265860">
        <ele>1601.75</ele>
        <time>2019-07-19T06:03:51.89Z</time>
      </trkpt>
      <trkpt lat="42.303090" lon="2.266235">
        <ele>1604.06</ele>
        <time>2019-07-19T06:04:05.10Z</time>
      </trkpt>
      <trkpt lat="42.302720" lon="2.266610">
        <ele>1605.92</ele>
        <time>2019-07-19T06:04:18.31Z</time>
      </trkpt>
      <trkpt lat="42.302550" lon="2.267210">
        <ele>1605.77</ele>
        <time>2019-07-19T06:04:31.89Z</time>
      </trkpt>
      <trkpt lat="42.302390" lon="2.267865">
        <ele>1605.17</ele>
        <time>2019-07-19T06:04:46.46Z</time>
      </trkpt>
      <trkpt lat="42.302230" lon="2.268520">
        <ele>1606.17</ele>
        <time>2019-07-19T06:05:01.04Z</time>
      </trkpt>
      <trkpt lat="42.302280" lon="2.268680">
        <ele>1606.76</ele>
        <time>2019-07-19T06:05:04.71Z</time>
      </trkpt>
      <trkpt lat="42.302240" lon="2.269010">
        <ele>1609.22</ele>
        <time>2019-07-19T06:05:11.78Z</time>
      </trkpt>
      <trkpt lat="42.302110" lon="2.269220">
        <ele>1610.19</ele>
        <time>2019-07-19T06:05:17.56Z</time>
      </trkpt>
      <trkpt lat="42.301900" lon="2.269400">
        <ele>1614.16</ele>
        <time>2019-07-19T06:05:24.67Z</time>
      </trkpt>
      <trkpt lat="42.301770" lon="2.269670">
        <ele>1616.67</ele>
        <time>2019-07-19T06:05:31.48Z</time>
      </trkpt>
      <trkpt lat="42.301760" lon="2.269800">
        <ele>1617.63</ele>
        <time>2019-07-19T06:05:34.24Z</time>
      </trkpt>
      <trkpt lat="42.301840" lon="2.270030">
        <ele>1620.77</ele>
        <time>2019-07-19T06:05:39.61Z</time>
      </trkpt>
      <trkpt lat="42.301870" lon="2.270490">
        <ele>1625.97</ele>
        <time>2019-07-19T06:05:49.37Z</time>
      </trkpt>
      <trkpt lat="42.302080" lon="2.271610">
        <ele>1633.61</ele>
        <time>2019-07-19T06:06:13.78Z</time>
      </trkpt>
      <trkpt lat="42.302180" lon="2.271960">
        <ele>1636.22</ele>
        <time>2019-07-19T06:06:21.71Z</time>
      </trkpt>
      <trkpt lat="42.302550" lon="2.272290">
        <ele>1643.14</ele>
        <time>2019-07-19T06:06:34.38Z</time>
      </trkpt>
      <trkpt lat="42.302650" lon="2.272250">
        <ele>1644.63</ele>
        <time>2019-07-19T06:06:37.36Z</time>
      </trkpt>
      <trkpt lat="42.302710" lon="2.272280">
        <ele>1646.04</ele>
        <time>2019-07-19T06:06:39.18Z</time>
      </trkpt>
      <trkpt lat="42.302760" lon="2.272380">
        <ele>1647.23</ele>
        <time>2019-07-19T06:06:41.73Z</time>
      </trkpt>
      <trkpt lat="42.302820" lon="2.272650">
        <ele>1652.85</ele>
        <time>2019-07-19T06:06:47.69Z</time>
      </trkpt>
      <trkpt lat="42.302830" lon="2.273050">
        <ele>1659.03</ele>
        <time>2019-07-19T06:06:56.15Z</time>
      </trkpt>
      <trkpt lat="42.302800" lon="2.273650">
        <ele>1660.49</ele>
        <time>2019-07-19T06:07:08.86Z</time>
      </trkpt>
      <trkpt lat="42.302710" lon="2.274720">
        <ele>1666.65</ele>
        <time>2019-07-19T06:07:31.61Z</time>
      </trkpt>
      <trkpt lat="42.302700" lon="2.275050">
        <ele>1668.34</ele>
        <time>2019-07-19T06:07:38.59Z</time>
      </trkpt>
      <trkpt lat="42.302710" lon="2.275785">
        <ele>1668.26</ele>
        <time>2019-07-19T06:07:54.13Z</time>
      </trkpt>
      <trkpt lat="42.302725" lon="2.276463">
        <ele>1662.47</ele>
        <time>2019-07-19T06:08:09.66Z</time>
      </trkpt>
      <trkpt lat="42.302726" lon="2.276461">
        <ele>1640.20</ele>
        <time>2011-12-16T07:32:38.25Z</time>
      </trkpt>
      <trkpt lat="42.302753" lon="2.276562">
        <ele>1639.00</ele>
        <time>2011-12-16T10:01:01.80Z</time>
      </trkpt>
      <trkpt lat="42.302769" lon="2.276619">
        <ele>1638.00</ele>
        <time>2011-12-16T11:25:16.26Z</time>
      </trkpt>
      <trkpt lat="42.302789" lon="2.276686">
        <ele>1637.40</ele>
        <time>2011-12-16T13:05:06.22Z</time>
      </trkpt>
      <trkpt lat="42.302804" lon="2.276755">
        <ele>1636.80</ele>
        <time>2011-12-16T14:44:28.63Z</time>
      </trkpt>
      <trkpt lat="42.302818" lon="2.276821">
        <ele>1636.20</ele>
        <time>2011-12-16T16:19:20.92Z</time>
      </trkpt>
      <trkpt lat="42.302818" lon="2.276879">
        <ele>1635.60</ele>
        <time>2011-12-16T17:39:29.39Z</time>
      </trkpt>
      <trkpt lat="42.302800" lon="2.276966">
        <ele>1635.20</ele>
        <time>2011-12-16T19:44:18.98Z</time>
      </trkpt>
      <trkpt lat="42.302785" lon="2.277054">
        <ele>1634.60</ele>
        <time>2011-12-16T21:49:05.83Z</time>
      </trkpt>
      <trkpt lat="42.302773" lon="2.277287">
        <ele>1634.20</ele>
        <time>2011-12-17T03:11:49.37Z</time>
      </trkpt>
      <trkpt lat="42.302777" lon="2.277343">
        <ele>1633.80</ele>
        <time>2011-12-17T04:29:33.62Z</time>
      </trkpt>
      <trkpt lat="42.302770" lon="2.277405">
        <ele>1632.60</ele>
        <time>2011-12-17T05:56:13.25Z</time>
      </trkpt>
      <trkpt lat="42.302739" lon="2.277529">
        <ele>1631.40</ele>
        <time>2011-12-17T08:57:04.84Z</time>
      </trkpt>
      <trkpt lat="42.302723" lon="2.277589">
        <ele>1631.00</ele>
        <time>2011-12-17T10:25:12.57Z</time>
      </trkpt>
      <trkpt lat="42.302700" lon="2.277708">
        <ele>1630.40</ele>
        <time>2011-12-17T13:15:09.53Z</time>
      </trkpt>
      <trkpt lat="42.302684" lon="2.277764">
        <ele>1630.40</ele>
        <time>2011-12-17T14:38:06.57Z</time>
      </trkpt>
      <trkpt lat="42.302673" lon="2.277826">
        <ele>1630.20</ele>
        <time>2011-12-17T16:06:12.49Z</time>
      </trkpt>
      <trkpt lat="42.302660" lon="2.277884">
        <ele>1630.40</ele>
        <time>2011-12-17T17:29:56.92Z</time>
      </trkpt>
      <trkpt lat="42.302573" lon="2.278247">
        <ele>1629.80</ele>
        <time>2011-12-18T02:17:12.02Z</time>
      </trkpt>
      <trkpt lat="42.302556" lon="2.278309">
        <ele>1629.80</ele>
        <time>2011-12-18T03:48:33.99Z</time>
      </trkpt>
      <trkpt lat="42.302483" lon="2.278555">
        <ele>1629.20</ele>
        <time>2011-12-18T09:54:48.95Z</time>
      </trkpt>
      <trkpt lat="42.302468" lon="2.278618">
        <ele>1629.00</ele>
        <time>2011-12-18T11:26:15.94Z</time>
      </trkpt>
      <trkpt lat="42.302446" lon="2.278744">
        <ele>1628.60</ele>
        <time>2011-12-18T14:25:09.11Z</time>
      </trkpt>
      <trkpt lat="42.302435" lon="2.278937">
        <ele>1628.40</ele>
        <time>2011-12-18T18:52:37.21Z</time>
      </trkpt>
      <trkpt lat="42.302433" lon="2.278996">
        <ele>1628.40</ele>
        <time>2011-12-18T20:14:13.74Z</time>
      </trkpt>
      <trkpt lat="42.302419" lon="2.279205">
        <ele>1628.80</ele>
        <time>2011-12-19T01:04:11.81Z</time>
      </trkpt>
      <trkpt lat="42.302419" lon="2.279259">
        <ele>1628.80</ele>
        <time>2011-12-19T02:18:48.69Z</time>
      </trkpt>
      <trkpt lat="42.302412" lon="2.279504">
        <ele>1628.20</ele>
        <time>2011-12-19T07:57:35.57Z</time>
      </trkpt>
      <trkpt lat="42.302416" lon="2.279568">
        <ele>1628.00</ele>
        <time>2011-12-19T09:26:20.40Z</time>
      </trkpt>
      <trkpt lat="42.302420" lon="2.279629">
        <ele>1627.80</ele>
        <time>2011-12-19T10:50:57.45Z</time>
      </trkpt>
      <trkpt lat="42.302423" lon="2.279945">
        <ele>1628.00</ele>
        <time>2011-12-19T18:07:37.59Z</time>
      </trkpt>
      <trkpt lat="42.302418" lon="2.280194">
        <ele>1628.20</ele>
        <time>2011-12-19T23:51:48.55Z</time>
      </trkpt>
      <trkpt lat="42.302388" lon="2.280520">
        <ele>1628.00</ele>
        <time>2011-12-20T07:25:44Z</time>
      </trkpt>
      <trkpt lat="42.302363" lon="2.280655">
        <ele>1627.80</ele>
        <time>2011-12-20T10:38:01.69Z</time>
      </trkpt>
      <trkpt lat="42.302320" lon="2.280861">
        <ele>1627.20</ele>
        <time>2011-12-20T15:33:47.29Z</time>
      </trkpt>
      <trkpt lat="42.302292" lon="2.281000">
        <ele>1627.00</ele>
        <time>2011-12-20T18:52:50.89Z</time>
      </trkpt>
      <trkpt lat="42.302234" lon="2.281204">
        <ele>1625.80</ele>
        <time>2011-12-20T23:54:50.14Z</time>
      </trkpt>
      <trkpt lat="42.302172" lon="2.281403">
        <ele>1624.60</ele>
        <time>2011-12-21T04:53:12.35Z</time>
      </trkpt>
      <trkpt lat="42.302147" lon="2.281472">
        <ele>1624.20</ele>
        <time>2011-12-21T06:39:22.36Z</time>
      </trkpt>
      <trkpt lat="42.302121" lon="2.281542">
        <ele>1623.80</ele>
        <time>2011-12-21T08:27:36.44Z</time>
      </trkpt>
      <trkpt lat="42.302099" lon="2.281615">
        <ele>1623.60</ele>
        <time>2011-12-21T10:16:31.68Z</time>
      </trkpt>
      <trkpt lat="42.302082" lon="2.281689">
        <ele>1623.60</ele>
        <time>2011-12-21T12:03:35.83Z</time>
      </trkpt>
      <trkpt lat="42.302040" lon="2.281831">
        <ele>1622.40</ele>
        <time>2011-12-21T15:34:54.88Z</time>
      </trkpt>
      <trkpt lat="42.302028" lon="2.281902">
        <ele>1622.00</ele>
        <time>2011-12-21T17:15:32.91Z</time>
      </trkpt>
      <trkpt lat="42.302018" lon="2.281961">
        <ele>1621.60</ele>
        <time>2011-12-21T18:39:11.13Z</time>
      </trkpt>
      <trkpt lat="42.302015" lon="2.282010">
        <ele>1620.80</ele>
        <time>2011-12-21T19:47:07.40Z</time>
      </trkpt>
      <trkpt lat="42.302020" lon="2.282115">
        <ele>1619.80</ele>
        <time>2011-12-21T22:12:30.51Z</time>
      </trkpt>
      <trkpt lat="42.302019" lon="2.282174">
        <ele>1620.00</ele>
        <time>2011-12-21T23:34:03.22Z</time>
      </trkpt>
      <trkpt lat="42.302027" lon="2.282240">
        <ele>1619.60</ele>
        <time>2011-12-22T01:06:27.98Z</time>
      </trkpt>
      <trkpt lat="42.302050" lon="2.282392">
        <ele>1618.80</ele>
        <time>2011-12-22T04:40:50.65Z</time>
      </trkpt>
      <trkpt lat="42.302057" lon="2.282479">
        <ele>1618.60</ele>
        <time>2011-12-22T06:41:45.99Z</time>
      </trkpt>
      <trkpt lat="42.302094" lon="2.282664">
        <ele>1617.20</ele>
        <time>2011-12-22T11:06:34.38Z</time>
      </trkpt>
      <trkpt lat="42.302110" lon="2.282757">
        <ele>1616.40</ele>
        <time>2011-12-22T13:18:30.43Z</time>
      </trkpt>
      <trkpt lat="42.302123" lon="2.282815">
        <ele>1615.60</ele>
        <time>2011-12-22T14:42:14.90Z</time>
      </trkpt>
      <trkpt lat="42.302147" lon="2.282854">
        <ele>1614.80</ele>
        <time>2011-12-22T15:52:21.06Z</time>
      </trkpt>
      <trkpt lat="42.302171" lon="2.282891">
        <ele>1613.80</ele>
        <time>2011-12-22T17:00:21.14Z</time>
      </trkpt>
      <trkpt lat="42.302221" lon="2.282999">
        <ele>1612.60</ele>
        <time>2011-12-22T19:56:24.41Z</time>
      </trkpt>
      <trkpt lat="42.302231" lon="2.283032">
        <ele>1612.20</ele>
        <time>2011-12-22T20:45:41.02Z</time>
      </trkpt>
      <trkpt lat="42.302229" lon="2.283065">
        <ele>1611.60</ele>
        <time>2011-12-22T21:31:26.06Z</time>
      </trkpt>
      <trkpt lat="42.302230" lon="2.283096">
        <ele>1611.20</ele>
        <time>2011-12-22T22:14:18.57Z</time>
      </trkpt>
      <trkpt lat="42.302248" lon="2.283180">
        <ele>1610.40</ele>
        <time>2011-12-23T00:15:09.02Z</time>
      </trkpt>
      <trkpt lat="42.302254" lon="2.283236">
        <ele>1610.00</ele>
        <time>2011-12-23T01:33:20.17Z</time>
      </trkpt>
      <trkpt lat="42.302279" lon="2.283339">
        <ele>1608.60</ele>
        <time>2011-12-23T04:03:07.48Z</time>
      </trkpt>
      <trkpt lat="42.302299" lon="2.283397">
        <ele>1607.60</ele>
        <time>2011-12-23T05:31:32.93Z</time>
      </trkpt>
      <trkpt lat="42.302305" lon="2.283428">
        <ele>1607.20</ele>
        <time>2011-12-23T06:15:49.53Z</time>
      </trkpt>
      <trkpt lat="42.302295" lon="2.283514">
        <ele>1606.00</ele>
        <time>2011-12-23T08:16:06.96Z</time>
      </trkpt>
      <trkpt lat="42.302291" lon="2.283593">
        <ele>1605.40</ele>
        <time>2011-12-23T10:05:31.80Z</time>
      </trkpt>
      <trkpt lat="42.302294" lon="2.283633">
        <ele>1604.80</ele>
        <time>2011-12-23T11:01:05.01Z</time>
      </trkpt>
      <trkpt lat="42.302309" lon="2.283723">
        <ele>1603.40</ele>
        <time>2011-12-23T13:08:33.58Z</time>
      </trkpt>
      <trkpt lat="42.302315" lon="2.283788">
        <ele>1602.80</ele>
        <time>2011-12-23T14:39:04.22Z</time>
      </trkpt>
      <trkpt lat="42.302321" lon="2.283843">
        <ele>1602.00</ele>
        <time>2011-12-23T15:55:53.34Z</time>
      </trkpt>
      <trkpt lat="42.302334" lon="2.283954">
        <ele>1600.00</ele>
        <time>2011-12-23T18:31:10.48Z</time>
      </trkpt>
      <trkpt lat="42.302353" lon="2.284054">
        <ele>1598.00</ele>
        <time>2011-12-23T20:53:50.18Z</time>
      </trkpt>
      <trkpt lat="42.302364" lon="2.284144">
        <ele>1596.00</ele>
        <time>2011-12-23T22:59:52.84Z</time>
      </trkpt>
      <trkpt lat="42.302385" lon="2.284237">
        <ele>1594.20</ele>
        <time>2011-12-24T01:14:14.35Z</time>
      </trkpt>
      <trkpt lat="42.302391" lon="2.284293">
        <ele>1593.60</ele>
        <time>2011-12-24T02:32:25.50Z</time>
      </trkpt>
      <trkpt lat="42.302395" lon="2.284343">
        <ele>1592.80</ele>
        <time>2011-12-24T03:41:54.93Z</time>
      </trkpt>
      <trkpt lat="42.302397" lon="2.284392">
        <ele>1592.00</ele>
        <time>2011-12-24T04:49:43.46Z</time>
      </trkpt>
      <trkpt lat="42.302400" lon="2.284433">
        <ele>1591.00</ele>
        <time>2011-12-24T05:46:39.16Z</time>
      </trkpt>
      <trkpt lat="42.302412" lon="2.284511">
        <ele>1589.60</ele>
        <time>2011-12-24T07:36:44.17Z</time>
      </trkpt>
      <trkpt lat="42.302425" lon="2.284603">
        <ele>1588.20</ele>
        <time>2011-12-24T09:46:09.39Z</time>
      </trkpt>
      <trkpt lat="42.302428" lon="2.284660">
        <ele>1587.80</ele>
        <time>2011-12-24T11:05:06.93Z</time>
      </trkpt>
      <trkpt lat="42.302427" lon="2.284718">
        <ele>1587.00</ele>
        <time>2011-12-24T12:25:16.73Z</time>
      </trkpt>
      <trkpt lat="42.302425" lon="2.284819">
        <ele>1585.20</ele>
        <time>2011-12-24T14:44:53.13Z</time>
      </trkpt>
      <trkpt lat="42.302442" lon="2.284888">
        <ele>1583.60</ele>
        <time>2011-12-24T16:25:22.63Z</time>
      </trkpt>
      <trkpt lat="42.302463" lon="2.284960">
        <ele>1581.80</ele>
        <time>2011-12-24T18:12:19.17Z</time>
      </trkpt>
      <trkpt lat="42.302473" lon="2.285020">
        <ele>1580.00</ele>
        <time>2011-12-24T19:37:18.21Z</time>
      </trkpt>
      <trkpt lat="42.302475" lon="2.285046">
        <ele>1579.40</ele>
        <time>2011-12-24T20:13:25.36Z</time>
      </trkpt>
      <trkpt lat="42.302475" lon="2.285074">
        <ele>1578.80</ele>
        <time>2011-12-24T20:52:06.70Z</time>
      </trkpt>
      <trkpt lat="42.302486" lon="2.285166">
        <ele>1577.40</ele>
        <time>2011-12-24T23:00:52.98Z</time>
      </trkpt>
      <trkpt lat="42.302506" lon="2.285218">
        <ele>1575.80</ele>
        <time>2011-12-25T00:21:52.12Z</time>
      </trkpt>
      <trkpt lat="42.302535" lon="2.285254">
        <ele>1574.40</ele>
        <time>2011-12-25T01:35:25.16Z</time>
      </trkpt>
      <trkpt lat="42.302571" lon="2.285311">
        <ele>1573.00</ele>
        <time>2011-12-25T03:18:59.29Z</time>
      </trkpt>
      <trkpt lat="42.302596" lon="2.285337">
        <ele>1572.60</ele>
        <time>2011-12-25T04:17:54.74Z</time>
      </trkpt>
      <trkpt lat="42.302610" lon="2.285379">
        <ele>1571.80</ele>
        <time>2011-12-25T05:21:34.05Z</time>
      </trkpt>
      <trkpt lat="42.302624" lon="2.285496">
        <ele>1570.20</ele>
        <time>2011-12-25T08:05:20.03Z</time>
      </trkpt>
      <trkpt lat="42.302637" lon="2.285644">
        <ele>1569.20</ele>
        <time>2011-12-25T11:31:16.17Z</time>
      </trkpt>
      <trkpt lat="42.302623" lon="2.285716">
        <ele>1568.80</ele>
        <time>2011-12-25T13:14:08.15Z</time>
      </trkpt>
      <trkpt lat="42.302534" lon="2.285962">
        <ele>1567.80</ele>
        <time>2011-12-25T19:32:32.05Z</time>
      </trkpt>
      <trkpt lat="42.302444" lon="2.286198">
        <ele>1566.80</ele>
        <time>2011-12-26T01:39:25.42Z</time>
      </trkpt>
      <trkpt lat="42.302394" lon="2.286302">
        <ele>1565.60</ele>
        <time>2011-12-26T04:30:49.08Z</time>
      </trkpt>
      <trkpt lat="42.302368" lon="2.286364">
        <ele>1565.20</ele>
        <time>2011-12-26T06:09:17.95Z</time>
      </trkpt>
      <trkpt lat="42.302334" lon="2.286507">
        <ele>1564.20</ele>
        <time>2011-12-26T09:36:50.92Z</time>
      </trkpt>
      <trkpt lat="42.302318" lon="2.286670">
        <ele>1563.20</ele>
        <time>2011-12-26T13:24:02.96Z</time>
      </trkpt>
      <trkpt lat="42.302301" lon="2.286842">
        <ele>1562.00</ele>
        <time>2011-12-26T17:23:49.41Z</time>
      </trkpt>
      <trkpt lat="42.302296" lon="2.286931">
        <ele>1561.00</ele>
        <time>2011-12-26T19:27:09.23Z</time>
      </trkpt>
      <trkpt lat="42.302293" lon="2.287023">
        <ele>1560.60</ele>
        <time>2011-12-26T21:34:23.92Z</time>
      </trkpt>
      <trkpt lat="42.302293" lon="2.287297">
        <ele>1559.20</ele>
        <time>2011-12-27T03:52:59.94Z</time>
      </trkpt>
      <trkpt lat="42.302270" lon="2.287482">
        <ele>1558.40</ele>
        <time>2011-12-27T08:12:12.58Z</time>
      </trkpt>
      <trkpt lat="42.302259" lon="2.287577">
        <ele>1557.60</ele>
        <time>2011-12-27T10:25:04.52Z</time>
      </trkpt>
      <trkpt lat="42.302240" lon="2.287777">
        <ele>1556.20</ele>
        <time>2011-12-27T15:03:41.79Z</time>
      </trkpt>
      <trkpt lat="42.302216" lon="2.287987">
        <ele>1555.20</ele>
        <time>2011-12-27T19:57:18.52Z</time>
      </trkpt>
      <trkpt lat="42.302206" lon="2.288094">
        <ele>1554.20</ele>
        <time>2011-12-27T22:26:19.93Z</time>
      </trkpt>
      <trkpt lat="42.302202" lon="2.288198">
        <ele>1553.60</ele>
        <time>2011-12-28T00:50:13.74Z</time>
      </trkpt>
      <trkpt lat="42.302192" lon="2.288397">
        <ele>1552.40</ele>
        <time>2011-12-28T05:25:49.93Z</time>
      </trkpt>
      <trkpt lat="42.302189" lon="2.288571">
        <ele>1551.40</ele>
        <time>2011-12-28T09:26:19.38Z</time>
      </trkpt>
      <trkpt lat="42.302196" lon="2.288743">
        <ele>1550.20</ele>
        <time>2011-12-28T13:24:20.67Z</time>
      </trkpt>
      <trkpt lat="42.302185" lon="2.289069">
        <ele>1549.60</ele>
        <time>2011-12-28T20:55:15.92Z</time>
      </trkpt>
      <trkpt lat="42.302167" lon="2.289256">
        <ele>1550.20</ele>
        <time>2011-12-29T01:15:49.96Z</time>
      </trkpt>
      <trkpt lat="42.302150" lon="2.289371">
        <ele>1550.60</ele>
        <time>2011-12-29T03:57:52.65Z</time>
      </trkpt>
      <trkpt lat="42.302137" lon="2.289423">
        <ele>1550.80</ele>
        <time>2011-12-29T05:13:43.36Z</time>
      </trkpt>
      <trkpt lat="42.302091" lon="2.289565">
        <ele>1551.60</ele>
        <time>2011-12-29T08:47:55.64Z</time>
      </trkpt>
      <trkpt lat="42.302074" lon="2.289611">
        <ele>1551.80</ele>
        <time>2011-12-29T09:58:58.88Z</time>
      </trkpt>
      <trkpt lat="42.302031" lon="2.289725">
        <ele>1552.40</ele>
        <time>2011-12-29T12:55:48.24Z</time>
      </trkpt>
      <trkpt lat="42.302012" lon="2.289764">
        <ele>1552.60</ele>
        <time>2011-12-29T14:00:19.97Z</time>
      </trkpt>
      <trkpt lat="42.301997" lon="2.289808">
        <ele>1552.80</ele>
        <time>2011-12-29T15:07:16.68Z</time>
      </trkpt>
      <trkpt lat="42.301990" lon="2.289865">
        <ele>1552.80</ele>
        <time>2011-12-29T16:27:07Z</time>
      </trkpt>
      <trkpt lat="42.301965" lon="2.290001">
        <ele>1551.80</ele>
        <time>2011-12-29T19:40:45.19Z</time>
      </trkpt>
      <trkpt lat="42.301954" lon="2.290076">
        <ele>1551.40</ele>
        <time>2011-12-29T21:26:24.19Z</time>
      </trkpt>
      <trkpt lat="42.301911" lon="2.290316">
        <ele>1550.20</ele>
        <time>2011-12-30T03:07:37.05Z</time>
      </trkpt>
      <trkpt lat="42.301893" lon="2.290392">
        <ele>1550.00</ele>
        <time>2011-12-30T04:57:53.06Z</time>
      </trkpt>
      <trkpt lat="42.301869" lon="2.290463">
        <ele>1549.80</ele>
        <time>2011-12-30T06:45:45Z</time>
      </trkpt>
      <trkpt lat="42.301816" lon="2.290589">
        <ele>1549.00</ele>
        <time>2011-12-30T10:06:02.36Z</time>
      </trkpt>
      <trkpt lat="42.301802" lon="2.290638">
        <ele>1548.60</ele>
        <time>2011-12-30T11:18:37.33Z</time>
      </trkpt>
      <trkpt lat="42.301802" lon="2.290690">
        <ele>1548.00</ele>
        <time>2011-12-30T12:30:28.43Z</time>
      </trkpt>
      <trkpt lat="42.301804" lon="2.290750">
        <ele>1547.80</ele>
        <time>2011-12-30T13:53:27.83Z</time>
      </trkpt>
      <trkpt lat="42.301807" lon="2.290813">
        <ele>1547.00</ele>
        <time>2011-12-30T15:20:41.71Z</time>
      </trkpt>
      <trkpt lat="42.301831" lon="2.290870">
        <ele>1546.20</ele>
        <time>2011-12-30T16:51:19.46Z</time>
      </trkpt>
      <trkpt lat="42.301857" lon="2.290929">
        <ele>1545.00</ele>
        <time>2011-12-30T18:26:13.33Z</time>
      </trkpt>
      <trkpt lat="42.301889" lon="2.291006">
        <ele>1544.00</ele>
        <time>2011-12-30T20:28:15.82Z</time>
      </trkpt>
      <trkpt lat="42.301923" lon="2.291102">
        <ele>1543.00</ele>
        <time>2011-12-30T22:55:20.22Z</time>
      </trkpt>
      <trkpt lat="42.301982" lon="2.291311">
        <ele>1541.40</ele>
        <time>2011-12-31T04:04:26.74Z</time>
      </trkpt>
      <trkpt lat="42.302023" lon="2.291418">
        <ele>1540.60</ele>
        <time>2011-12-31T06:50:57.47Z</time>
      </trkpt>
      <trkpt lat="42.302065" lon="2.291522">
        <ele>1539.60</ele>
        <time>2011-12-31T09:34:41.26Z</time>
      </trkpt>
      <trkpt lat="42.302094" lon="2.291625">
        <ele>1538.80</ele>
        <time>2011-12-31T12:06:58.34Z</time>
      </trkpt>
      <trkpt lat="42.302119" lon="2.291722">
        <ele>1538.40</ele>
        <time>2011-12-31T14:28:54.45Z</time>
      </trkpt>
      <trkpt lat="42.302134" lon="2.291812">
        <ele>1538.80</ele>
        <time>2011-12-31T16:36:23.04Z</time>
      </trkpt>
      <trkpt lat="42.302161" lon="2.292055">
        <ele>1539.40</ele>
        <time>2011-12-31T22:15:55.12Z</time>
      </trkpt>
      <trkpt lat="42.302164" lon="2.292121">
        <ele>1539.60</ele>
        <time>2011-12-31T23:47:17.20Z</time>
      </trkpt>
      <trkpt lat="42.302177" lon="2.292284">
        <ele>1538.80</ele>
        <time>2012-01-01T03:33:49.11Z</time>
      </trkpt>
      <trkpt lat="42.302199" lon="2.292335">
        <ele>1538.60</ele>
        <time>2012-01-01T04:55:23.90Z</time>
      </trkpt>
      <trkpt lat="42.302314" lon="2.292470">
        <ele>1537.40</ele>
        <time>2012-01-01T09:39:55.47Z</time>
      </trkpt>
      <trkpt lat="42.302400" lon="2.292535">
        <ele>1536.60</ele>
        <time>2012-01-01T12:43:59.50Z</time>
      </trkpt>
      <trkpt lat="42.302492" lon="2.292597">
        <ele>1536.40</ele>
        <time>2012-01-01T15:56:02.15Z</time>
      </trkpt>
      <trkpt lat="42.302535" lon="2.292606">
        <ele>1536.00</ele>
        <time>2012-01-01T17:17:19.60Z</time>
      </trkpt>
      <trkpt lat="42.302689" lon="2.292599">
        <ele>1535.20</ele>
        <time>2012-01-01T22:05:11.83Z</time>
      </trkpt>
      <trkpt lat="42.302813" lon="2.292560">
        <ele>1534.20</ele>
        <time>2012-01-02T02:03:02.59Z</time>
      </trkpt>
      <trkpt lat="42.302877" lon="2.292542">
        <ele>1533.40</ele>
        <time>2012-01-02T04:05:10.17Z</time>
      </trkpt>
      <trkpt lat="42.302924" lon="2.292529">
        <ele>1532.80</ele>
        <time>2012-01-02T05:34:47.70Z</time>
      </trkpt>
      <trkpt lat="42.302965" lon="2.292503">
        <ele>1532.40</ele>
        <time>2012-01-02T06:59:23.93Z</time>
      </trkpt>
      <trkpt lat="42.302994" lon="2.292478">
        <ele>1532.40</ele>
        <time>2012-01-02T08:03:39.17Z</time>
      </trkpt>
      <trkpt lat="42.303089" lon="2.292380">
        <ele>1531.80</ele>
        <time>2012-01-02T11:46:53.54Z</time>
      </trkpt>
      <trkpt lat="42.303113" lon="2.292331">
        <ele>1531.80</ele>
        <time>2012-01-02T13:08:05.89Z</time>
      </trkpt>
      <trkpt lat="42.303198" lon="2.292129">
        <ele>1530.20</ele>
        <time>2012-01-02T18:29:13.27Z</time>
      </trkpt>
      <trkpt lat="42.303230" lon="2.292050">
        <ele>1529.60</ele>
        <time>2012-01-02T20:33:40.63Z</time>
      </trkpt>
      <trkpt lat="42.303262" lon="2.291972">
        <ele>1528.60</ele>
        <time>2012-01-02T22:36:55.38Z</time>
      </trkpt>
      <trkpt lat="42.303313" lon="2.291843">
        <ele>1526.80</ele>
        <time>2012-01-03T01:59:02.05Z</time>
      </trkpt>
      <trkpt lat="42.303360" lon="2.291702">
        <ele>1524.80</ele>
        <time>2012-01-03T05:32:43.88Z</time>
      </trkpt>
      <trkpt lat="42.303385" lon="2.291630">
        <ele>1524.20</ele>
        <time>2012-01-03T07:22:38.04Z</time>
      </trkpt>
      <trkpt lat="42.303414" lon="2.291559">
        <ele>1523.00</ele>
        <time>2012-01-03T09:14:42.19Z</time>
      </trkpt>
      <trkpt lat="42.303458" lon="2.291467">
        <ele>1521.00</ele>
        <time>2012-01-03T11:46:05.10Z</time>
      </trkpt>
      <trkpt lat="42.303476" lon="2.291425">
        <ele>1520.40</ele>
        <time>2012-01-03T12:53:09.41Z</time>
      </trkpt>
      <trkpt lat="42.303495" lon="2.291379">
        <ele>1519.60</ele>
        <time>2012-01-03T14:05:57.39Z</time>
      </trkpt>
      <trkpt lat="42.303530" lon="2.291266">
        <ele>1517.60</ele>
        <time>2012-01-03T16:55:13.85Z</time>
      </trkpt>
      <trkpt lat="42.303554" lon="2.291193">
        <ele>1515.60</ele>
        <time>2012-01-03T18:45:36.81Z</time>
      </trkpt>
      <trkpt lat="42.303582" lon="2.291134">
        <ele>1515.00</ele>
        <time>2012-01-03T20:22:28.52Z</time>
      </trkpt>
      <trkpt lat="42.303605" lon="2.291079">
        <ele>1514.40</ele>
        <time>2012-01-03T21:49:46.62Z</time>
      </trkpt>
      <trkpt lat="42.303648" lon="2.290977">
        <ele>1513.00</ele>
        <time>2012-01-04T00:32:00.03Z</time>
      </trkpt>
      <trkpt lat="42.303660" lon="2.290938">
        <ele>1512.20</ele>
        <time>2012-01-04T01:30:21.91Z</time>
      </trkpt>
      <trkpt lat="42.303674" lon="2.290906">
        <ele>1511.60</ele>
        <time>2012-01-04T02:21:44.23Z</time>
      </trkpt>
      <trkpt lat="42.303705" lon="2.290846">
        <ele>1510.40</ele>
        <time>2012-01-04T04:02:51.99Z</time>
      </trkpt>
      <trkpt lat="42.303731" lon="2.290794">
        <ele>1509.40</ele>
        <time>2012-01-04T05:29:35.69Z</time>
      </trkpt>
      <trkpt lat="42.303738" lon="2.290792">
        <ele>1509.20</ele>
        <time>2012-01-04T05:46:24.53Z</time>
      </trkpt>
      <trkpt lat="42.303740" lon="2.290790">
        <ele>1509.20</ele>
        <time>2012-01-04T06:03:13.38Z</time>
      </trkpt>
      <trkpt lat="42.303746" lon="2.290789">
        <ele>1509.20</ele>
        <time>2012-01-04T06:20:02.22Z</time>
      </trkpt>
      <trkpt lat="42.303823" lon="2.290839">
        <ele>1507.40</ele>
        <time>2012-01-04T08:59:37.22Z</time>
      </trkpt>
      <trkpt lat="42.303838" lon="2.290840">
        <ele>1506.80</ele>
        <time>2012-01-04T09:27:40.68Z</time>
      </trkpt>
      <trkpt lat="42.303853" lon="2.290857">
        <ele>1506.40</ele>
        <time>2012-01-04T10:04:14.63Z</time>
      </trkpt>
      <trkpt lat="42.303863" lon="2.290888">
        <ele>1506.00</ele>
        <time>2012-01-04T10:50:58.44Z</time>
      </trkpt>
      <trkpt lat="42.303878" lon="2.290932">
        <ele>1505.80</ele>
        <time>2012-01-04T11:57:55.05Z</time>
      </trkpt>
      <trkpt lat="42.303926" lon="2.290993">
        <ele>1505.60</ele>
        <time>2012-01-04T14:00:59.09Z</time>
      </trkpt>
      <trkpt lat="42.303953" lon="2.291002">
        <ele>1505.00</ele>
        <time>2012-01-04T14:52:56.24Z</time>
      </trkpt>
      <trkpt lat="42.303973" lon="2.291033">
        <ele>1504.60</ele>
        <time>2012-01-04T15:49:46.65Z</time>
      </trkpt>
      <trkpt lat="42.304018" lon="2.291194">
        <ele>1504.00</ele>
        <time>2012-01-04T19:47:35.38Z</time>
      </trkpt>
      <trkpt lat="42.304009" lon="2.291333">
        <ele>1503.40</ele>
        <time>2012-01-04T23:00:22.97Z</time>
      </trkpt>
      <trkpt lat="42.304005" lon="2.291415">
        <ele>1503.00</ele>
        <time>2012-01-05T00:53:55.78Z</time>
      </trkpt>
      <trkpt lat="42.304008" lon="2.291494">
        <ele>1502.60</ele>
        <time>2012-01-05T02:43:13.74Z</time>
      </trkpt>
      <trkpt lat="42.304015" lon="2.291595">
        <ele>1502.20</ele>
        <time>2012-01-05T05:03:23.62Z</time>
      </trkpt>
      <trkpt lat="42.304028" lon="2.291799">
        <ele>1500.80</ele>
        <time>2012-01-05T09:46:18.48Z</time>
      </trkpt>
      <trkpt lat="42.304036" lon="2.291917">
        <ele>1499.80</ele>
        <time>2012-01-05T12:30:02.04Z</time>
      </trkpt>
      <trkpt lat="42.304039" lon="2.292043">
        <ele>1498.40</ele>
        <time>2012-01-05T15:24:13.21Z</time>
      </trkpt>
      <trkpt lat="42.304045" lon="2.292151">
        <ele>1497.40</ele>
        <time>2012-01-05T17:53:51.95Z</time>
      </trkpt>
      <trkpt lat="42.304054" lon="2.292252">
        <ele>1496.40</ele>
        <time>2012-01-05T20:14:25.70Z</time>
      </trkpt>
      <trkpt lat="42.304047" lon="2.292356">
        <ele>1495.80</ele>
        <time>2012-01-05T22:38:43.23Z</time>
      </trkpt>
      <trkpt lat="42.304039" lon="2.292467">
        <ele>1494.40</ele>
        <time>2012-01-06T01:12:49.04Z</time>
      </trkpt>
      <trkpt lat="42.304034" lon="2.292588">
        <ele>1493.60</ele>
        <time>2012-01-06T04:00:15.94Z</time>
      </trkpt>
      <trkpt lat="42.304025" lon="2.292715">
        <ele>1492.60</ele>
        <time>2012-01-06T06:56:32.83Z</time>
      </trkpt>
      <trkpt lat="42.304025" lon="2.292848">
        <ele>1491.40</ele>
        <time>2012-01-06T10:00:18.92Z</time>
      </trkpt>
      <trkpt lat="42.304032" lon="2.292979">
        <ele>1490.40</ele>
        <time>2012-01-06T13:01:47.51Z</time>
      </trkpt>
      <trkpt lat="42.304031" lon="2.293110">
        <ele>1489.40</ele>
        <time>2012-01-06T16:02:48.37Z</time>
      </trkpt>
      <trkpt lat="42.304044" lon="2.293367">
        <ele>1487.40</ele>
        <time>2012-01-06T21:58:44.19Z</time>
      </trkpt>
      <trkpt lat="42.304097" lon="2.293633">
        <ele>1485.60</ele>
        <time>2012-01-07T04:19:22.60Z</time>
      </trkpt>
      <trkpt lat="42.304175" lon="2.293883">
        <ele>1483.60</ele>
        <time>2012-01-07T10:34:17.04Z</time>
      </trkpt>
      <trkpt lat="42.304225" lon="2.293985">
        <ele>1482.60</ele>
        <time>2012-01-07T13:23:21.89Z</time>
      </trkpt>
      <trkpt lat="42.304276" lon="2.294076">
        <ele>1481.80</ele>
        <time>2012-01-07T16:01:07.39Z</time>
      </trkpt>
      <trkpt lat="42.304324" lon="2.294240">
        <ele>1480.40</ele>
        <time>2012-01-07T20:04:49.35Z</time>
      </trkpt>
      <trkpt lat="42.304312" lon="2.294327">
        <ele>1480.00</ele>
        <time>2012-01-07T22:07:06.23Z</time>
      </trkpt>
      <trkpt lat="42.304288" lon="2.294407">
        <ele>1479.20</ele>
        <time>2012-01-08T00:06:23.29Z</time>
      </trkpt>
      <trkpt lat="42.304216" lon="2.294566">
        <ele>1478.00</ele>
        <time>2012-01-08T04:23:59.35Z</time>
      </trkpt>
      <trkpt lat="42.304171" lon="2.294644">
        <ele>1477.80</ele>
        <time>2012-01-08T06:40:40.49Z</time>
      </trkpt>
      <trkpt lat="42.304066" lon="2.294808">
        <ele>1476.60</ele>
        <time>2012-01-08T11:40:23.33Z</time>
      </trkpt>
      <trkpt lat="42.303942" lon="2.294956">
        <ele>1475.40</ele>
        <time>2012-01-08T16:49:23.68Z</time>
      </trkpt>
      <trkpt lat="42.303824" lon="2.295094">
        <ele>1474.00</ele>
        <time>2012-01-08T21:40:52.08Z</time>
      </trkpt>
      <trkpt lat="42.303780" lon="2.295158">
        <ele>1473.20</ele>
        <time>2012-01-08T23:41:36.21Z</time>
      </trkpt>
      <trkpt lat="42.303761" lon="2.295242">
        <ele>1472.40</ele>
        <time>2012-01-09T01:42:58.49Z</time>
      </trkpt>
      <trkpt lat="42.303767" lon="2.295391">
        <ele>1471.40</ele>
        <time>2012-01-09T05:09:09.37Z</time>
      </trkpt>
      <trkpt lat="42.303772" lon="2.295482">
        <ele>1470.80</ele>
        <time>2012-01-09T07:15:14.36Z</time>
      </trkpt>
      <trkpt lat="42.303765" lon="2.295580">
        <ele>1470.40</ele>
        <time>2012-01-09T09:31:16.68Z</time>
      </trkpt>
      <trkpt lat="42.303729" lon="2.295777">
        <ele>1469.00</ele>
        <time>2012-01-09T14:11:39.78Z</time>
      </trkpt>
      <trkpt lat="42.303682" lon="2.295946">
        <ele>1467.00</ele>
        <time>2012-01-09T18:21:08.24Z</time>
      </trkpt>
      <trkpt lat="42.303668" lon="2.296011">
        <ele>1466.00</ele>
        <time>2012-01-09T19:54:40.82Z</time>
      </trkpt>
      <trkpt lat="42.303678" lon="2.296077">
        <ele>1464.80</ele>
        <time>2012-01-09T21:27:46.09Z</time>
      </trkpt>
      <trkpt lat="42.303755" lon="2.296192">
        <ele>1463.40</ele>
        <time>2012-01-10T01:02:06.61Z</time>
      </trkpt>
      <trkpt lat="42.303794" lon="2.296275">
        <ele>1462.80</ele>
        <time>2012-01-10T03:17:58.87Z</time>
      </trkpt>
      <trkpt lat="42.303821" lon="2.296362">
        <ele>1461.80</ele>
        <time>2012-01-10T05:28:20.71Z</time>
      </trkpt>
      <trkpt lat="42.303834" lon="2.296454">
        <ele>1461.20</ele>
        <time>2012-01-10T07:37:45.76Z</time>
      </trkpt>
      <trkpt lat="42.303827" lon="2.296550">
        <ele>1460.40</ele>
        <time>2012-01-10T09:51:03.05Z</time>
      </trkpt>
      <trkpt lat="42.303758" lon="2.296750">
        <ele>1458.80</ele>
        <time>2012-01-10T14:55:58.95Z</time>
      </trkpt>
      <trkpt lat="42.303720" lon="2.296861">
        <ele>1457.60</ele>
        <time>2012-01-10T17:44:59.25Z</time>
      </trkpt>
      <trkpt lat="42.303692" lon="2.296979">
        <ele>1455.40</ele>
        <time>2012-01-10T20:36:13.01Z</time>
      </trkpt>
      <trkpt lat="42.303664" lon="2.297145">
        <ele>1453.60</ele>
        <time>2012-01-11T00:31:28.34Z</time>
      </trkpt>
      <trkpt lat="42.303714" lon="2.297244">
        <ele>1452.00</ele>
        <time>2012-01-11T03:17:06.88Z</time>
      </trkpt>
      <trkpt lat="42.303755" lon="2.297264">
        <ele>1451.80</ele>
        <time>2012-01-11T04:38:32.68Z</time>
      </trkpt>
      <trkpt lat="42.303860" lon="2.297311">
        <ele>1451.20</ele>
        <time>2012-01-11T08:05:10.76Z</time>
      </trkpt>
      <trkpt lat="42.303980" lon="2.297417">
        <ele>1450.40</ele>
        <time>2012-01-11T12:32:58.15Z</time>
      </trkpt>
      <trkpt lat="42.304107" lon="2.297530">
        <ele>1449.20</ele>
        <time>2012-01-11T17:16:59.92Z</time>
      </trkpt>
      <trkpt lat="42.304220" lon="2.297673">
        <ele>1449.20</ele>
        <time>2012-01-11T22:06:08.88Z</time>
      </trkpt>
      <trkpt lat="42.304378" lon="2.297940">
        <ele>1448.60</ele>
        <time>2012-01-12T05:58:37.28Z</time>
      </trkpt>
      <trkpt lat="42.304426" lon="2.298036">
        <ele>1448.40</ele>
        <time>2012-01-12T08:38:44.03Z</time>
      </trkpt>
      <trkpt lat="42.304466" lon="2.298144">
        <ele>1448.00</ele>
        <time>2012-01-12T11:25:37.45Z</time>
      </trkpt>
      <trkpt lat="42.304547" lon="2.298357">
        <ele>1447.20</ele>
        <time>2012-01-12T16:56:33.20Z</time>
      </trkpt>
      <trkpt lat="42.304589" lon="2.298466">
        <ele>1446.80</ele>
        <time>2012-01-12T19:46:22.42Z</time>
      </trkpt>
      <trkpt lat="42.304655" lon="2.298686">
        <ele>1445.80</ele>
        <time>2012-01-13T01:14:24.27Z</time>
      </trkpt>
      <trkpt lat="42.304669" lon="2.298790">
        <ele>1444.40</ele>
        <time>2012-01-13T03:40:27.74Z</time>
      </trkpt>
      <trkpt lat="42.304675" lon="2.299013">
        <ele>1443.00</ele>
        <time>2012-01-13T08:48:47.13Z</time>
      </trkpt>
      <trkpt lat="42.304643" lon="2.299256">
        <ele>1441.40</ele>
        <time>2012-01-13T14:29:49.19Z</time>
      </trkpt>
      <trkpt lat="42.304620" lon="2.299375">
        <ele>1440.60</ele>
        <time>2012-01-13T17:19:45.86Z</time>
      </trkpt>
      <trkpt lat="42.304595" lon="2.299496">
        <ele>1439.60</ele>
        <time>2012-01-13T20:13:21.11Z</time>
      </trkpt>
      <trkpt lat="42.304552" lon="2.299679">
        <ele>1437.60</ele>
        <time>2012-01-14T00:38:39.50Z</time>
      </trkpt>
      <trkpt lat="42.304512" lon="2.299818">
        <ele>1435.60</ele>
        <time>2012-01-14T04:04:44.49Z</time>
      </trkpt>
      <trkpt lat="42.304484" lon="2.299869">
        <ele>1434.60</ele>
        <time>2012-01-14T05:32:30.15Z</time>
      </trkpt>
      <trkpt lat="42.304441" lon="2.299897">
        <ele>1433.60</ele>
        <time>2012-01-14T07:01:40.02Z</time>
      </trkpt>
      <trkpt lat="42.304386" lon="2.299905">
        <ele>1432.80</ele>
        <time>2012-01-14T08:45:00.76Z</time>
      </trkpt>
      <trkpt lat="42.304273" lon="2.299929">
        <ele>1431.00</ele>
        <time>2012-01-14T12:18:42.69Z</time>
      </trkpt>
      <trkpt lat="42.304214" lon="2.300052">
        <ele>1429.20</ele>
        <time>2012-01-14T15:41:16.63Z</time>
      </trkpt>
      <trkpt lat="42.304270" lon="2.300179">
        <ele>1427.00</ele>
        <time>2012-01-14T19:05:34.54Z</time>
      </trkpt>
      <trkpt lat="42.304323" lon="2.300239">
        <ele>1426.00</ele>
        <time>2012-01-14T21:14:42.92Z</time>
      </trkpt>
      <trkpt lat="42.304382" lon="2.300302">
        <ele>1425.40</ele>
        <time>2012-01-14T23:35:10.09Z</time>
      </trkpt>
      <trkpt lat="42.304441" lon="2.300383">
        <ele>1424.80</ele>
        <time>2012-01-15T02:12:15.14Z</time>
      </trkpt>
      <trkpt lat="42.304513" lon="2.300545">
        <ele>1422.20</ele>
        <time>2012-01-15T06:33:23.80Z</time>
      </trkpt>
      <trkpt lat="42.304564" lon="2.300597">
        <ele>1421.20</ele>
        <time>2012-01-15T08:32:43.81Z</time>
      </trkpt>
      <trkpt lat="42.304683" lon="2.300655">
        <ele>1419.80</ele>
        <time>2012-01-15T12:29:03.16Z</time>
      </trkpt>
      <trkpt lat="42.304734" lon="2.300692">
        <ele>1418.60</ele>
        <time>2012-01-15T14:17:10.88Z</time>
      </trkpt>
      <trkpt lat="42.304785" lon="2.300738">
        <ele>1417.40</ele>
        <time>2012-01-15T16:11:42.88Z</time>
      </trkpt>
      <trkpt lat="42.304828" lon="2.300813">
        <ele>1416.00</ele>
        <time>2012-01-15T18:22:50.02Z</time>
      </trkpt>
      <trkpt lat="42.304863" lon="2.300905">
        <ele>1415.00</ele>
        <time>2012-01-15T20:45:46.90Z</time>
      </trkpt>
      <trkpt lat="42.304878" lon="2.300996">
        <ele>1414.00</ele>
        <time>2012-01-15T22:54:36.07Z</time>
      </trkpt>
      <trkpt lat="42.304883" lon="2.301083">
        <ele>1412.60</ele>
        <time>2012-01-16T00:55:10.27Z</time>
      </trkpt>
      <trkpt lat="42.304884" lon="2.301167">
        <ele>1411.40</ele>
        <time>2012-01-16T02:51:14.92Z</time>
      </trkpt>
      <trkpt lat="42.304885" lon="2.301226">
        <ele>1410.20</ele>
        <time>2012-01-16T04:12:47.41Z</time>
      </trkpt>
      <trkpt lat="42.304889" lon="2.301294">
        <ele>1409.20</ele>
        <time>2012-01-16T05:47:02.53Z</time>
      </trkpt>
      <trkpt lat="42.304902" lon="2.301361">
        <ele>1408.00</ele>
        <time>2012-01-16T07:22:44.92Z</time>
      </trkpt>
      <trkpt lat="42.304927" lon="2.301433">
        <ele>1406.60</ele>
        <time>2012-01-16T09:12:38.95Z</time>
      </trkpt>
      <trkpt lat="42.304968" lon="2.301500">
        <ele>1405.60</ele>
        <time>2012-01-16T11:12:48.21Z</time>
      </trkpt>
      <trkpt lat="42.305015" lon="2.301561">
        <ele>1404.60</ele>
        <time>2012-01-16T13:14:30.92Z</time>
      </trkpt>
      <trkpt lat="42.305075" lon="2.301596">
        <ele>1403.20</ele>
        <time>2012-01-16T15:16:35.75Z</time>
      </trkpt>
      <trkpt lat="42.305133" lon="2.301645">
        <ele>1402.00</ele>
        <time>2012-01-16T17:24:21.92Z</time>
      </trkpt>
      <trkpt lat="42.305193" lon="2.301694">
        <ele>1400.80</ele>
        <time>2012-01-16T19:35:19.11Z</time>
      </trkpt>
      <trkpt lat="42.305340" lon="2.301817">
        <ele>1399.00</ele>
        <time>2012-01-17T00:58:16.79Z</time>
      </trkpt>
      <trkpt lat="42.305400" lon="2.301860">
        <ele>1397.80</ele>
        <time>2012-01-17T03:05:08.74Z</time>
      </trkpt>
      <trkpt lat="42.305461" lon="2.301885">
        <ele>1396.20</ele>
        <time>2012-01-17T05:04:13.66Z</time>
      </trkpt>
      <trkpt lat="42.305527" lon="2.301927">
        <ele>1393.40</ele>
        <time>2012-01-17T07:20:30.25Z</time>
      </trkpt>
      <trkpt lat="42.305582" lon="2.301992">
        <ele>1391.60</ele>
        <time>2012-01-17T09:36:58.41Z</time>
      </trkpt>
      <trkpt lat="42.305633" lon="2.302075">
        <ele>1390.40</ele>
        <time>2012-01-17T12:06:04.17Z</time>
      </trkpt>
      <trkpt lat="42.305676" lon="2.302181">
        <ele>1389.40</ele>
        <time>2012-01-17T14:53:06.78Z</time>
      </trkpt>
      <trkpt lat="42.305727" lon="2.302304">
        <ele>1388.60</ele>
        <time>2012-01-17T18:07:56.79Z</time>
      </trkpt>
      <trkpt lat="42.305776" lon="2.302428">
        <ele>1387.00</ele>
        <time>2012-01-17T21:22:11.85Z</time>
      </trkpt>
      <trkpt lat="42.305817" lon="2.302544">
        <ele>1385.20</ele>
        <time>2012-01-18T00:19:50.10Z</time>
      </trkpt>
      <trkpt lat="42.305858" lon="2.302642">
        <ele>1383.80</ele>
        <time>2012-01-18T02:55:24.20Z</time>
      </trkpt>
      <trkpt lat="42.305907" lon="2.302742">
        <ele>1382.60</ele>
        <time>2012-01-18T05:41:08.72Z</time>
      </trkpt>
      <trkpt lat="42.305986" lon="2.302970">
        <ele>1381.00</ele>
        <time>2012-01-18T11:29:01.61Z</time>
      </trkpt>
      <trkpt lat="42.306048" lon="2.303197">
        <ele>1379.60</ele>
        <time>2012-01-18T17:03:22.29Z</time>
      </trkpt>
      <trkpt lat="42.306114" lon="2.303445">
        <ele>1377.60</ele>
        <time>2012-01-18T23:07:32.15Z</time>
      </trkpt>
      <trkpt lat="42.306152" lon="2.303559">
        <ele>1376.20</ele>
        <time>2012-01-19T02:00:18.35Z</time>
      </trkpt>
      <trkpt lat="42.306184" lon="2.303670">
        <ele>1374.80</ele>
        <time>2012-01-19T04:44:54.67Z</time>
      </trkpt>
      <trkpt lat="42.306206" lon="2.303781">
        <ele>1373.40</ele>
        <time>2012-01-19T07:23:41.29Z</time>
      </trkpt>
      <trkpt lat="42.306213" lon="2.303997">
        <ele>1371.40</ele>
        <time>2012-01-19T12:22:24.89Z</time>
      </trkpt>
      <trkpt lat="42.306205" lon="2.304093">
        <ele>1370.00</ele>
        <time>2012-01-19T14:35:53.65Z</time>
      </trkpt>
      <trkpt lat="42.306179" lon="2.304170">
        <ele>1368.80</ele>
        <time>2012-01-19T16:32:50.81Z</time>
      </trkpt>
      <trkpt lat="42.306150" lon="2.304236">
        <ele>1367.40</ele>
        <time>2012-01-19T18:18:55.05Z</time>
      </trkpt>
      <trkpt lat="42.306115" lon="2.304315">
        <ele>1366.20</ele>
        <time>2012-01-19T20:26:09.39Z</time>
      </trkpt>
      <trkpt lat="42.306083" lon="2.304399">
        <ele>1364.40</ele>
        <time>2012-01-19T22:36:42.56Z</time>
      </trkpt>
      <trkpt lat="42.306063" lon="2.304507">
        <ele>1363.40</ele>
        <time>2012-01-20T01:10:32.20Z</time>
      </trkpt>
      <trkpt lat="42.306058" lon="2.304625">
        <ele>1362.40</ele>
        <time>2012-01-20T03:53:50.47Z</time>
      </trkpt>
      <trkpt lat="42.306060" lon="2.304744">
        <ele>1361.00</ele>
        <time>2012-01-20T06:38:18.14Z</time>
      </trkpt>
      <trkpt lat="42.306073" lon="2.304849">
        <ele>1359.80</ele>
        <time>2012-01-20T09:05:23.80Z</time>
      </trkpt>
      <trkpt lat="42.306094" lon="2.304947">
        <ele>1358.20</ele>
        <time>2012-01-20T11:26:22.18Z</time>
      </trkpt>
      <trkpt lat="42.306104" lon="2.305035">
        <ele>1356.80</ele>
        <time>2012-01-20T13:29:23.01Z</time>
      </trkpt>
      <trkpt lat="42.306137" lon="2.305104">
        <ele>1355.60</ele>
        <time>2012-01-20T15:22:54.98Z</time>
      </trkpt>
      <trkpt lat="42.306198" lon="2.305147">
        <ele>1354.60</ele>
        <time>2012-01-20T17:31:26.13Z</time>
      </trkpt>
      <trkpt lat="42.306270" lon="2.305161">
        <ele>1354.00</ele>
        <time>2012-01-20T19:47:19.92Z</time>
      </trkpt>
      <trkpt lat="42.306347" lon="2.305176">
        <ele>1353.40</ele>
        <time>2012-01-20T22:12:40.27Z</time>
      </trkpt>
      <trkpt lat="42.306430" lon="2.305198">
        <ele>1352.40</ele>
        <time>2012-01-21T00:50:41.15Z</time>
      </trkpt>
      <trkpt lat="42.306515" lon="2.305216">
        <ele>1351.20</ele>
        <time>2012-01-21T03:31:25.28Z</time>
      </trkpt>
      <trkpt lat="42.306597" lon="2.305235">
        <ele>1349.60</ele>
        <time>2012-01-21T06:06:50.96Z</time>
      </trkpt>
      <trkpt lat="42.306671" lon="2.305262">
        <ele>1348.00</ele>
        <time>2012-01-21T08:30:02.60Z</time>
      </trkpt>
      <trkpt lat="42.306737" lon="2.305296">
        <ele>1347.00</ele>
        <time>2012-01-21T10:41:59.53Z</time>
      </trkpt>
      <trkpt lat="42.306810" lon="2.305329">
        <ele>1345.80</ele>
        <time>2012-01-21T13:05:47.58Z</time>
      </trkpt>
      <trkpt lat="42.306866" lon="2.305368">
        <ele>1344.40</ele>
        <time>2012-01-21T15:03:28.51Z</time>
      </trkpt>
      <trkpt lat="42.306908" lon="2.305443">
        <ele>1342.80</ele>
        <time>2012-01-21T17:13:27.31Z</time>
      </trkpt>
      <trkpt lat="42.306932" lon="2.305549">
        <ele>1341.60</ele>
        <time>2012-01-21T19:46:37.21Z</time>
      </trkpt>
      <trkpt lat="42.306942" lon="2.305637">
        <ele>1340.60</ele>
        <time>2012-01-21T21:49:37.94Z</time>
      </trkpt>
      <trkpt lat="42.306948" lon="2.305721">
        <ele>1339.40</ele>
        <time>2012-01-21T23:46:13.87Z</time>
      </trkpt>
      <trkpt lat="42.306962" lon="2.305810">
        <ele>1338.20</ele>
        <time>2012-01-22T01:51:56.94Z</time>
      </trkpt>
      <trkpt lat="42.306974" lon="2.305892">
        <ele>1337.40</ele>
        <time>2012-01-22T03:47:26.47Z</time>
      </trkpt>
      <trkpt lat="42.306993" lon="2.305986">
        <ele>1335.80</ele>
        <time>2012-01-22T06:02:04.78Z</time>
      </trkpt>
      <trkpt lat="42.307048" lon="2.306169">
        <ele>1334.40</ele>
        <time>2012-01-22T10:35:00.18Z</time>
      </trkpt>
      <trkpt lat="42.307092" lon="2.306233">
        <ele>1333.40</ele>
        <time>2012-01-22T12:35:44.12Z</time>
      </trkpt>
      <trkpt lat="42.307140" lon="2.306259">
        <ele>1332.00</ele>
        <time>2012-01-22T14:12:20.28Z</time>
      </trkpt>
      <trkpt lat="42.307190" lon="2.306247">
        <ele>1331.00</ele>
        <time>2012-01-22T15:47:12.58Z</time>
      </trkpt>
      <trkpt lat="42.307242" lon="2.306181">
        <ele>1330.20</ele>
        <time>2012-01-22T18:00:27.03Z</time>
      </trkpt>
      <trkpt lat="42.307286" lon="2.306112">
        <ele>1329.80</ele>
        <time>2012-01-22T20:06:19.81Z</time>
      </trkpt>
      <trkpt lat="42.307323" lon="2.306048">
        <ele>1329.00</ele>
        <time>2012-01-22T21:58:34.05Z</time>
      </trkpt>
      <trkpt lat="42.307352" lon="2.305996">
        <ele>1328.00</ele>
        <time>2012-01-22T23:28:33.09Z</time>
      </trkpt>
      <trkpt lat="42.307391" lon="2.305961">
        <ele>1327.40</ele>
        <time>2012-01-23T00:55:59.98Z</time>
      </trkpt>
      <trkpt lat="42.307442" lon="2.305956">
        <ele>1326.80</ele>
        <time>2012-01-23T02:31:31.78Z</time>
      </trkpt>
      <trkpt lat="42.307539" lon="2.305946">
        <ele>1325.40</ele>
        <time>2012-01-23T05:33:16.45Z</time>
      </trkpt>
      <trkpt lat="42.307601" lon="2.305956">
        <ele>1324.20</ele>
        <time>2012-01-23T07:29:55.55Z</time>
      </trkpt>
      <trkpt lat="42.307650" lon="2.306002">
        <ele>1323.40</ele>
        <time>2012-01-23T09:21:22.11Z</time>
      </trkpt>
      <trkpt lat="42.307688" lon="2.306054">
        <ele>1322.80</ele>
        <time>2012-01-23T11:02:22.31Z</time>
      </trkpt>
      <trkpt lat="42.307801" lon="2.306083">
        <ele>1321.40</ele>
        <time>2012-01-23T14:37:15.05Z</time>
      </trkpt>
      <trkpt lat="42.307850" lon="2.306078">
        <ele>1320.40</ele>
        <time>2012-01-23T16:09:03.28Z</time>
      </trkpt>
      <trkpt lat="42.307903" lon="2.306070">
        <ele>1319.80</ele>
        <time>2012-01-23T17:48:41.16Z</time>
      </trkpt>
      <trkpt lat="42.307957" lon="2.306056">
        <ele>1318.80</ele>
        <time>2012-01-23T19:31:24.49Z</time>
      </trkpt>
      <trkpt lat="42.307995" lon="2.306040">
        <ele>1317.80</ele>
        <time>2012-01-23T20:45:45.79Z</time>
      </trkpt>
      <trkpt lat="42.308024" lon="2.306039">
        <ele>1317.00</ele>
        <time>2012-01-23T21:39:57.58Z</time>
      </trkpt>
      <trkpt lat="42.308049" lon="2.306035">
        <ele>1315.80</ele>
        <time>2012-01-23T22:26:59.48Z</time>
      </trkpt>
      <trkpt lat="42.308092" lon="2.306054">
        <ele>1315.00</ele>
        <time>2012-01-23T23:51:30.33Z</time>
      </trkpt>
      <trkpt lat="42.308140" lon="2.306129">
        <ele>1315.20</ele>
        <time>2012-01-24T02:08:32.55Z</time>
      </trkpt>
      <trkpt lat="42.308168" lon="2.306135">
        <ele>1315.40</ele>
        <time>2012-01-24T03:01:30.35Z</time>
      </trkpt>
      <trkpt lat="42.308236" lon="2.306166">
        <ele>1315.80</ele>
        <time>2012-01-24T05:15:34.28Z</time>
      </trkpt>
      <trkpt lat="42.308324" lon="2.306207">
        <ele>1316.20</ele>
        <time>2012-01-24T08:09:27.68Z</time>
      </trkpt>
      <trkpt lat="42.308418" lon="2.306274">
        <ele>1316.60</ele>
        <time>2012-01-24T11:27:58.72Z</time>
      </trkpt>
      <trkpt lat="42.308507" lon="2.306387">
        <ele>1317.00</ele>
        <time>2012-01-24T15:16:03.59Z</time>
      </trkpt>
      <trkpt lat="42.308551" lon="2.306450">
        <ele>1317.00</ele>
        <time>2012-01-24T17:15:46.94Z</time>
      </trkpt>
      <trkpt lat="42.308712" lon="2.306616">
        <ele>1316.20</ele>
        <time>2012-01-24T23:34:01.89Z</time>
      </trkpt>
      <trkpt lat="42.308779" lon="2.306617">
        <ele>1315.60</ele>
        <time>2012-01-25T01:39:12.65Z</time>
      </trkpt>
      <trkpt lat="42.308904" lon="2.306547">
        <ele>1314.00</ele>
        <time>2012-01-25T05:51:58.44Z</time>
      </trkpt>
      <trkpt lat="42.308972" lon="2.306522">
        <ele>1313.00</ele>
        <time>2012-01-25T08:03:37.54Z</time>
      </trkpt>
      <trkpt lat="42.309043" lon="2.306534">
        <ele>1311.80</ele>
        <time>2012-01-25T10:17:18.14Z</time>
      </trkpt>
      <trkpt lat="42.309116" lon="2.306555">
        <ele>1310.20</ele>
        <time>2012-01-25T12:36:44.12Z</time>
      </trkpt>
      <trkpt lat="42.309186" lon="2.306569">
        <ele>1310.00</ele>
        <time>2012-01-25T14:48:56.07Z</time>
      </trkpt>
      <trkpt lat="42.309252" lon="2.306564">
        <ele>1309.60</ele>
        <time>2012-01-25T16:52:25.87Z</time>
      </trkpt>
      <trkpt lat="42.309318" lon="2.306557">
        <ele>1309.00</ele>
        <time>2012-01-25T18:56:06.80Z</time>
      </trkpt>
      <trkpt lat="42.309454" lon="2.306591">
        <ele>1307.20</ele>
        <time>2012-01-25T23:14:29.93Z</time>
      </trkpt>
      <trkpt lat="42.309519" lon="2.306634">
        <ele>1306.00</ele>
        <time>2012-01-26T01:29:41.23Z</time>
      </trkpt>
      <trkpt lat="42.309601" lon="2.306668">
        <ele>1304.80</ele>
        <time>2012-01-26T04:09:55.34Z</time>
      </trkpt>
      <trkpt lat="42.309682" lon="2.306696">
        <ele>1304.00</ele>
        <time>2012-01-26T06:46:06.94Z</time>
      </trkpt>
      <trkpt lat="42.309773" lon="2.306728">
        <ele>1303.40</ele>
        <time>2012-01-26T09:41:46.76Z</time>
      </trkpt>
      <trkpt lat="42.309866" lon="2.306743">
        <ele>1302.40</ele>
        <time>2012-01-26T12:36:45.40Z</time>
      </trkpt>
      <trkpt lat="42.309955" lon="2.306748">
        <ele>1301.40</ele>
        <time>2012-01-26T15:23:10.37Z</time>
      </trkpt>
      <trkpt lat="42.310040" lon="2.306760">
        <ele>1300.20</ele>
        <time>2012-01-26T18:02:50.15Z</time>
      </trkpt>
      <trkpt lat="42.310126" lon="2.306782">
        <ele>1299.00</ele>
        <time>2012-01-26T20:46:21.22Z</time>
      </trkpt>
      <trkpt lat="42.310210" lon="2.306826">
        <ele>1297.40</ele>
        <time>2012-01-26T23:34:38.86Z</time>
      </trkpt>
      <trkpt lat="42.310300" lon="2.306901">
        <ele>1295.80</ele>
        <time>2012-01-27T02:52:09.15Z</time>
      </trkpt>
      <trkpt lat="42.310375" lon="2.306979">
        <ele>1294.40</ele>
        <time>2012-01-27T05:48:55.04Z</time>
      </trkpt>
      <trkpt lat="42.310454" lon="2.307051">
        <ele>1293.00</ele>
        <time>2012-01-27T08:46:54.01Z</time>
      </trkpt>
      <trkpt lat="42.310622" lon="2.307177">
        <ele>1290.80</ele>
        <time>2012-01-27T14:45:48.35Z</time>
      </trkpt>
      <trkpt lat="42.310702" lon="2.307266">
        <ele>1290.00</ele>
        <time>2012-01-27T17:59:20.64Z</time>
      </trkpt>
      <trkpt lat="42.310783" lon="2.307352">
        <ele>1288.60</ele>
        <time>2012-01-27T21:11:44.49Z</time>
      </trkpt>
      <trkpt lat="42.310851" lon="2.307433">
        <ele>1286.80</ele>
        <time>2012-01-28T00:01:02.45Z</time>
      </trkpt>
      <trkpt lat="42.310918" lon="2.307517">
        <ele>1285.20</ele>
        <time>2012-01-28T02:51:43.99Z</time>
      </trkpt>
      <trkpt lat="42.310939" lon="2.307592">
        <ele>1282.60</ele>
        <time>2012-01-28T04:42:31.75Z</time>
      </trkpt>
      <trkpt lat="42.310949" lon="2.307672">
        <ele>1281.60</ele>
        <time>2012-01-28T06:34:37.33Z</time>
      </trkpt>
      <trkpt lat="42.310946" lon="2.307746">
        <ele>1280.80</ele>
        <time>2012-01-28T08:17:00.68Z</time>
      </trkpt>
      <trkpt lat="42.310885" lon="2.307864">
        <ele>1279.20</ele>
        <time>2012-01-28T11:35:55.16Z</time>
      </trkpt>
      <trkpt lat="42.310765" lon="2.307917">
        <ele>1277.20</ele>
        <time>2012-01-28T15:31:45.73Z</time>
      </trkpt>
      <trkpt lat="42.310697" lon="2.307943">
        <ele>1276.20</ele>
        <time>2012-01-28T17:43:46.97Z</time>
      </trkpt>
      <trkpt lat="42.310637" lon="2.307978">
        <ele>1274.80</ele>
        <time>2012-01-28T19:45:51.70Z</time>
      </trkpt>
      <trkpt lat="42.310587" lon="2.308030">
        <ele>1274.00</ele>
        <time>2012-01-28T21:43:42.28Z</time>
      </trkpt>
      <trkpt lat="42.310548" lon="2.308095">
        <ele>1273.40</ele>
        <time>2012-01-28T23:39:20.83Z</time>
      </trkpt>
      <trkpt lat="42.310432" lon="2.308367">
        <ele>1271.60</ele>
        <time>2012-01-29T06:53:08.80Z</time>
      </trkpt>
      <trkpt lat="42.310400" lon="2.308466">
        <ele>1270.80</ele>
        <time>2012-01-29T09:22:25.03Z</time>
      </trkpt>
      <trkpt lat="42.310381" lon="2.308554">
        <ele>1270.20</ele>
        <time>2012-01-29T11:29:04.30Z</time>
      </trkpt>
      <trkpt lat="42.310345" lon="2.308677">
        <ele>1268.80</ele>
        <time>2012-01-29T14:31:49.86Z</time>
      </trkpt>
      <trkpt lat="42.310303" lon="2.308785">
        <ele>1267.40</ele>
        <time>2012-01-29T17:20:24.90Z</time>
      </trkpt>
      <trkpt lat="42.310284" lon="2.308870">
        <ele>1266.60</ele>
        <time>2012-01-29T19:23:05.80Z</time>
      </trkpt>
      <trkpt lat="42.310285" lon="2.308943">
        <ele>1266.00</ele>
        <time>2012-01-29T21:03:58.15Z</time>
      </trkpt>
      <trkpt lat="42.310312" lon="2.309097">
        <ele>1265.00</ele>
        <time>2012-01-30T00:42:37.79Z</time>
      </trkpt>
      <trkpt lat="42.310324" lon="2.309182">
        <ele>1263.40</ele>
        <time>2012-01-30T02:42:11.08Z</time>
      </trkpt>
      <trkpt lat="42.310370" lon="2.309253">
        <ele>1262.80</ele>
        <time>2012-01-30T04:52:35.84Z</time>
      </trkpt>
      <trkpt lat="42.310411" lon="2.309315">
        <ele>1261.60</ele>
        <time>2012-01-30T06:47:30.48Z</time>
      </trkpt>
      <trkpt lat="42.310473" lon="2.309437">
        <ele>1260.20</ele>
        <time>2012-01-30T10:12:01.39Z</time>
      </trkpt>
      <trkpt lat="42.310490" lon="2.309522">
        <ele>1259.20</ele>
        <time>2012-01-30T12:13:40.56Z</time>
      </trkpt>
      <trkpt lat="42.310471" lon="2.309644">
        <ele>1257.80</ele>
        <time>2012-01-30T15:05:55.50Z</time>
      </trkpt>
      <trkpt lat="42.310466" lon="2.309753">
        <ele>1256.20</ele>
        <time>2012-01-30T17:36:48.36Z</time>
      </trkpt>
      <trkpt lat="42.310473" lon="2.309866">
        <ele>1255.00</ele>
        <time>2012-01-30T20:13:28.24Z</time>
      </trkpt>
      <trkpt lat="42.310475" lon="2.309964">
        <ele>1253.60</ele>
        <time>2012-01-30T22:28:54.99Z</time>
      </trkpt>
      <trkpt lat="42.310488" lon="2.310061">
        <ele>1252.40</ele>
        <time>2012-01-31T00:45:06.72Z</time>
      </trkpt>
      <trkpt lat="42.310519" lon="2.310125">
        <ele>1251.00</ele>
        <time>2012-01-31T02:30:48.69Z</time>
      </trkpt>
      <trkpt lat="42.310558" lon="2.310174">
        <ele>1249.80</ele>
        <time>2012-01-31T04:10:16.09Z</time>
      </trkpt>
      <trkpt lat="42.310606" lon="2.310218">
        <ele>1248.80</ele>
        <time>2012-01-31T05:58:36.33Z</time>
      </trkpt>
      <trkpt lat="42.310722" lon="2.310291">
        <ele>1247.00</ele>
        <time>2012-01-31T09:57:38.35Z</time>
      </trkpt>
      <trkpt lat="42.310776" lon="2.310359">
        <ele>1246.00</ele>
        <time>2012-01-31T12:15:29.57Z</time>
      </trkpt>
      <trkpt lat="42.310824" lon="2.310439">
        <ele>1244.80</ele>
        <time>2012-01-31T14:37:49.30Z</time>
      </trkpt>
      <trkpt lat="42.310859" lon="2.310536">
        <ele>1243.60</ele>
        <time>2012-01-31T17:06:56.10Z</time>
      </trkpt>
      <trkpt lat="42.310889" lon="2.310629">
        <ele>1242.40</ele>
        <time>2012-01-31T19:27:06.77Z</time>
      </trkpt>
      <trkpt lat="42.310920" lon="2.310711">
        <ele>1241.20</ele>
        <time>2012-01-31T21:34:20.79Z</time>
      </trkpt>
      <trkpt lat="42.310952" lon="2.310780">
        <ele>1240.00</ele>
        <time>2012-01-31T23:26:52.18Z</time>
      </trkpt>
      <trkpt lat="42.310982" lon="2.310835">
        <ele>1238.80</ele>
        <time>2012-02-01T01:01:17.38Z</time>
      </trkpt>
      <trkpt lat="42.311007" lon="2.310875">
        <ele>1237.60</ele>
        <time>2012-02-01T02:13:38.73Z</time>
      </trkpt>
      <trkpt lat="42.311032" lon="2.310900">
        <ele>1235.40</ele>
        <time>2012-02-01T03:11:44.10Z</time>
      </trkpt>
      <trkpt lat="42.311087" lon="2.310951">
        <ele>1233.20</ele>
        <time>2012-02-01T05:16:19.51Z</time>
      </trkpt>
      <trkpt lat="42.311116" lon="2.310962">
        <ele>1232.00</ele>
        <time>2012-02-01T06:12:35.70Z</time>
      </trkpt>
      <trkpt lat="42.311147" lon="2.310961">
        <ele>1230.60</ele>
        <time>2012-02-01T07:10:31.60Z</time>
      </trkpt>
      <trkpt lat="42.311180" lon="2.310957">
        <ele>1229.60</ele>
        <time>2012-02-01T08:12:25.53Z</time>
      </trkpt>
      <trkpt lat="42.311223" lon="2.310933">
        <ele>1228.60</ele>
        <time>2012-02-01T09:39:20Z</time>
      </trkpt>
      <trkpt lat="42.311269" lon="2.310903">
        <ele>1227.60</ele>
        <time>2012-02-01T11:14:44.67Z</time>
      </trkpt>
      <trkpt lat="42.311329" lon="2.310844">
        <ele>1226.20</ele>
        <time>2012-02-01T13:33:20.52Z</time>
      </trkpt>
      <trkpt lat="42.311385" lon="2.310792">
        <ele>1224.80</ele>
        <time>2012-02-01T15:40:15.24Z</time>
      </trkpt>
      <trkpt lat="42.311437" lon="2.310746">
        <ele>1223.40</ele>
        <time>2012-02-01T17:36:20.55Z</time>
      </trkpt>
      <trkpt lat="42.311494" lon="2.310691">
        <ele>1222.40</ele>
        <time>2012-02-01T19:47:09.72Z</time>
      </trkpt>
      <trkpt lat="42.311616" lon="2.310559">
        <ele>1220.60</ele>
        <time>2012-02-02T00:39:03.81Z</time>
      </trkpt>
      <trkpt lat="42.311736" lon="2.310369">
        <ele>1218.20</ele>
        <time>2012-02-02T06:24:15.83Z</time>
      </trkpt>
      <trkpt lat="42.311785" lon="2.310290">
        <ele>1217.00</ele>
        <time>2012-02-02T08:46:42.88Z</time>
      </trkpt>
      <trkpt lat="42.311828" lon="2.310217">
        <ele>1215.60</ele>
        <time>2012-02-02T10:55:39.12Z</time>
      </trkpt>
      <trkpt lat="42.311916" lon="2.310077">
        <ele>1213.80</ele>
        <time>2012-02-02T15:09:29.97Z</time>
      </trkpt>
      <trkpt lat="42.311966" lon="2.310007">
        <ele>1213.00</ele>
        <time>2012-02-02T17:23:57.27Z</time>
      </trkpt>
      <trkpt lat="42.312023" lon="2.309949">
        <ele>1211.80</ele>
        <time>2012-02-02T19:37:13.43Z</time>
      </trkpt>
      <trkpt lat="42.312127" lon="2.309856">
        <ele>1209.60</ele>
        <time>2012-02-02T23:30:09.56Z</time>
      </trkpt>
      <trkpt lat="42.312175" lon="2.309814">
        <ele>1209.00</ele>
        <time>2012-02-03T01:16:58.19Z</time>
      </trkpt>
      <trkpt lat="42.312223" lon="2.309781">
        <ele>1207.40</ele>
        <time>2012-02-03T02:57:34.13Z</time>
      </trkpt>
      <trkpt lat="42.312266" lon="2.309739">
        <ele>1206.80</ele>
        <time>2012-02-03T04:36:40Z</time>
      </trkpt>
      <trkpt lat="42.312303" lon="2.309696">
        <ele>1206.20</ele>
        <time>2012-02-03T06:07:48.66Z</time>
      </trkpt>
      <trkpt lat="42.312340" lon="2.309597">
        <ele>1205.20</ele>
        <time>2012-02-03T08:41:03.50Z</time>
      </trkpt>
      <trkpt lat="42.312354" lon="2.309536">
        <ele>1204.60</ele>
        <time>2012-02-03T10:09:17.84Z</time>
      </trkpt>
      <trkpt lat="42.312378" lon="2.309479">
        <ele>1203.20</ele>
        <time>2012-02-03T11:39:54.90Z</time>
      </trkpt>
      <trkpt lat="42.312457" lon="2.309437">
        <ele>1202.00</ele>
        <time>2012-02-03T14:18:30.10Z</time>
      </trkpt>
      <trkpt lat="42.312597" lon="2.309512">
        <ele>1200.40</ele>
        <time>2012-02-03T18:59:49.82Z</time>
      </trkpt>
      <trkpt lat="42.312762" lon="2.309510">
        <ele>1199.40</ele>
        <time>2012-02-04T00:08:06.07Z</time>
      </trkpt>
      <trkpt lat="42.312813" lon="2.309501">
        <ele>1199.00</ele>
        <time>2012-02-04T01:44:11.34Z</time>
      </trkpt>
      <trkpt lat="42.312874" lon="2.309474">
        <ele>1198.80</ele>
        <time>2012-02-04T03:44:06.03Z</time>
      </trkpt>
      <trkpt lat="42.313003" lon="2.309433">
        <ele>1198.40</ele>
        <time>2012-02-04T07:51:40.16Z</time>
      </trkpt>
      <trkpt lat="42.313130" lon="2.309421">
        <ele>1197.40</ele>
        <time>2012-02-04T11:49:30.81Z</time>
      </trkpt>
      <trkpt lat="42.313279" lon="2.309396">
        <ele>1196.40</ele>
        <time>2012-02-04T16:30:00.88Z</time>
      </trkpt>
      <trkpt lat="42.313351" lon="2.309377">
        <ele>1195.60</ele>
        <time>2012-02-04T18:47:03.88Z</time>
      </trkpt>
      <trkpt lat="42.313413" lon="2.309354">
        <ele>1194.60</ele>
        <time>2012-02-04T20:47:10.46Z</time>
      </trkpt>
      <trkpt lat="42.313592" lon="2.309326">
        <ele>1194.60</ele>
        <time>2012-02-05T02:23:49.07Z</time>
      </trkpt>
      <trkpt lat="42.313750" lon="2.309422">
        <ele>1192.20</ele>
        <time>2012-02-05T07:47:25.45Z</time>
      </trkpt>
      <trkpt lat="42.313817" lon="2.309472">
        <ele>1190.60</ele>
        <time>2012-02-05T10:10:23.41Z</time>
      </trkpt>
      <trkpt lat="42.313869" lon="2.309502">
        <ele>1189.00</ele>
        <time>2012-02-05T11:56:00.57Z</time>
      </trkpt>
      <trkpt lat="42.313928" lon="2.309519">
        <ele>1187.80</ele>
        <time>2012-02-05T13:48:42.57Z</time>
      </trkpt>
      <trkpt lat="42.313988" lon="2.309525">
        <ele>1186.80</ele>
        <time>2012-02-05T15:41:06.58Z</time>
      </trkpt>
      <trkpt lat="42.314121" lon="2.309434">
        <ele>1185.00</ele>
        <time>2012-02-05T20:19:34.65Z</time>
      </trkpt>
      <trkpt lat="42.314198" lon="2.309366">
        <ele>1183.80</ele>
        <time>2012-02-05T23:11:23.30Z</time>
      </trkpt>
      <trkpt lat="42.314269" lon="2.309308">
        <ele>1182.40</ele>
        <time>2012-02-06T01:46:21.34Z</time>
      </trkpt>
      <trkpt lat="42.314329" lon="2.309249">
        <ele>1180.60</ele>
        <time>2012-02-06T04:04:57.04Z</time>
      </trkpt>
      <trkpt lat="42.314371" lon="2.309177">
        <ele>1179.00</ele>
        <time>2012-02-06T06:11:38.50Z</time>
      </trkpt>
      <trkpt lat="42.314381" lon="2.309093">
        <ele>1178.00</ele>
        <time>2012-02-06T08:09:10.85Z</time>
      </trkpt>
      <trkpt lat="42.314372" lon="2.309013">
        <ele>1176.80</ele>
        <time>2012-02-06T10:00:58.30Z</time>
      </trkpt>
      <trkpt lat="42.314348" lon="2.308941">
        <ele>1175.80</ele>
        <time>2012-02-06T11:50:04.66Z</time>
      </trkpt>
      <trkpt lat="42.314314" lon="2.308867">
        <ele>1174.60</ele>
        <time>2012-02-06T13:50:26.08Z</time>
      </trkpt>
      <trkpt lat="42.314254" lon="2.308693">
        <ele>1172.60</ele>
        <time>2012-02-06T18:15:39.91Z</time>
      </trkpt>
      <trkpt lat="42.314223" lon="2.308587">
        <ele>1171.80</ele>
        <time>2012-02-06T20:53:08.39Z</time>
      </trkpt>
      <trkpt lat="42.314147" lon="2.308457">
        <ele>1170.60</ele>
        <time>2012-02-07T00:42:04.85Z</time>
      </trkpt>
      <trkpt lat="42.314063" lon="2.308323">
        <ele>1167.80</ele>
        <time>2012-02-07T04:44:46.07Z</time>
      </trkpt>
      <trkpt lat="42.313995" lon="2.308195">
        <ele>1166.60</ele>
        <time>2012-02-07T08:22:30.17Z</time>
      </trkpt>
      <trkpt lat="42.313842" lon="2.307914">
        <ele>1164.80</ele>
        <time>2012-02-07T16:24:35.17Z</time>
      </trkpt>
      <trkpt lat="42.313711" lon="2.307653">
        <ele>1163.40</ele>
        <time>2012-02-07T23:40:22.30Z</time>
      </trkpt>
      <trkpt lat="42.313616" lon="2.307432">
        <ele>1161.40</ele>
        <time>2012-02-08T05:33:31.35Z</time>
      </trkpt>
      <trkpt lat="42.313574" lon="2.307307">
        <ele>1160.00</ele>
        <time>2012-02-08T08:43:12.08Z</time>
      </trkpt>
      <trkpt lat="42.313545" lon="2.307171">
        <ele>1159.00</ele>
        <time>2012-02-08T11:58:44.51Z</time>
      </trkpt>
      <trkpt lat="42.313536" lon="2.307006">
        <ele>1157.80</ele>
        <time>2012-02-08T15:47:18.58Z</time>
      </trkpt>
      <trkpt lat="42.313536" lon="2.306860">
        <ele>1157.20</ele>
        <time>2012-02-08T19:09:00.57Z</time>
      </trkpt>
      <trkpt lat="42.313536" lon="2.306726">
        <ele>1156.40</ele>
        <time>2012-02-08T22:14:07.89Z</time>
      </trkpt>
      <trkpt lat="42.313548" lon="2.306515">
        <ele>1155.00</ele>
        <time>2012-02-09T03:06:29.41Z</time>
      </trkpt>
      <trkpt lat="42.313583" lon="2.306385">
        <ele>1153.40</ele>
        <time>2012-02-09T06:17:37.14Z</time>
      </trkpt>
      <trkpt lat="42.313608" lon="2.306373">
        <ele>1152.60</ele>
        <time>2012-02-09T07:07:10.78Z</time>
      </trkpt>
      <trkpt lat="42.313640" lon="2.306375">
        <ele>1151.40</ele>
        <time>2012-02-09T08:07:01.62Z</time>
      </trkpt>
      <trkpt lat="42.313791" lon="2.306446">
        <ele>1150.40</ele>
        <time>2012-02-09T13:05:41.77Z</time>
      </trkpt>
      <trkpt lat="42.313990" lon="2.306588">
        <ele>1150.20</ele>
        <time>2012-02-09T20:06:03.40Z</time>
      </trkpt>
      <trkpt lat="42.314062" lon="2.306693">
        <ele>1149.80</ele>
        <time>2012-02-09T23:23:52.98Z</time>
      </trkpt>
      <trkpt lat="42.314158" lon="2.306812">
        <ele>1148.80</ele>
        <time>2012-02-10T03:27:10.77Z</time>
      </trkpt>
      <trkpt lat="42.314349" lon="2.307009">
        <ele>1148.00</ele>
        <time>2012-02-10T10:55:57.14Z</time>
      </trkpt>
      <trkpt lat="42.314437" lon="2.307082">
        <ele>1147.60</ele>
        <time>2012-02-10T14:08:49.41Z</time>
      </trkpt>
      <trkpt lat="42.314707" lon="2.307274">
        <ele>1146.00</ele>
        <time>2012-02-10T23:38:44.02Z</time>
      </trkpt>
      <trkpt lat="42.314788" lon="2.307359">
        <ele>1145.20</ele>
        <time>2012-02-11T02:50:16.59Z</time>
      </trkpt>
      <trkpt lat="42.314877" lon="2.307451">
        <ele>1144.60</ele>
        <time>2012-02-11T06:19:33.66Z</time>
      </trkpt>
      <trkpt lat="42.315046" lon="2.307641">
        <ele>1143.20</ele>
        <time>2012-02-11T13:10:08.92Z</time>
      </trkpt>
      <trkpt lat="42.315231" lon="2.307848">
        <ele>1142.00</ele>
        <time>2012-02-11T20:38:44.19Z</time>
      </trkpt>
      <trkpt lat="42.315409" lon="2.308054">
        <ele>1140.60</ele>
        <time>2012-02-12T03:56:25.67Z</time>
      </trkpt>
      <trkpt lat="42.315566" lon="2.308269">
        <ele>1139.40</ele>
        <time>2012-02-12T10:53:51.63Z</time>
      </trkpt>
      <trkpt lat="42.315649" lon="2.308386">
        <ele>1138.60</ele>
        <time>2012-02-12T14:37:50.72Z</time>
      </trkpt>
      <trkpt lat="42.315733" lon="2.308495">
        <ele>1137.80</ele>
        <time>2012-02-12T18:15:20.08Z</time>
      </trkpt>
      <trkpt lat="42.315894" lon="2.308687">
        <ele>1135.80</ele>
        <time>2012-02-13T00:56:21.80Z</time>
      </trkpt>
      <trkpt lat="42.315968" lon="2.308745">
        <ele>1135.60</ele>
        <time>2012-02-13T03:36:09.19Z</time>
      </trkpt>
      <trkpt lat="42.316213" lon="2.308910">
        <ele>1137.40</ele>
        <time>2012-02-13T12:07:29.16Z</time>
      </trkpt>
      <trkpt lat="42.316353" lon="2.309014">
        <ele>1138.80</ele>
        <time>2012-02-13T17:05:54.01Z</time>
      </trkpt>
      <trkpt lat="42.316412" lon="2.309094">
        <ele>1140.20</ele>
        <time>2012-02-13T19:41:59.28Z</time>
      </trkpt>
      <trkpt lat="42.316431" lon="2.309131">
        <ele>1141.00</ele>
        <time>2012-02-13T20:44:13.08Z</time>
      </trkpt>
      <trkpt lat="42.316450" lon="2.309168">
        <ele>1141.40</ele>
        <time>2012-02-13T21:46:26.88Z</time>
      </trkpt>
      <trkpt lat="42.316499" lon="2.309242">
        <ele>1142.40</ele>
        <time>2012-02-14T00:03:40.34Z</time>
      </trkpt>
      <trkpt lat="42.316550" lon="2.309316">
        <ele>1143.60</ele>
        <time>2012-02-14T02:23:25.01Z</time>
      </trkpt>
      <trkpt lat="42.316576" lon="2.309350">
        <ele>1144.40</ele>
        <time>2012-02-14T03:30:59.13Z</time>
      </trkpt>
      <trkpt lat="42.316594" lon="2.309380">
        <ele>1145.00</ele>
        <time>2012-02-14T04:24:21.35Z</time>
      </trkpt>
      <trkpt lat="42.316635" lon="2.309439">
        <ele>1146.20</ele>
        <time>2012-02-14T06:16:12.30Z</time>
      </trkpt>
      <trkpt lat="42.316679" lon="2.309492">
        <ele>1147.40</ele>
        <time>2012-02-14T08:06:17.16Z</time>
      </trkpt>
      <trkpt lat="42.316719" lon="2.309552">
        <ele>1148.40</ele>
        <time>2012-02-14T09:57:53.17Z</time>
      </trkpt>
      <trkpt lat="42.316764" lon="2.309614">
        <ele>1149.40</ele>
        <time>2012-02-14T11:57:54.07Z</time>
      </trkpt>
      <trkpt lat="42.316801" lon="2.309687">
        <ele>1150.60</ele>
        <time>2012-02-14T14:00:09.76Z</time>
      </trkpt>
      <trkpt lat="42.316818" lon="2.309723">
        <ele>1150.80</ele>
        <time>2012-02-14T14:59:10.24Z</time>
      </trkpt>
      <trkpt lat="42.316835" lon="2.309761">
        <ele>1151.80</ele>
        <time>2012-02-14T16:00:31.50Z</time>
      </trkpt>
      <trkpt lat="42.316909" lon="2.309878">
        <ele>1153.20</ele>
        <time>2012-02-14T19:33:12.81Z</time>
      </trkpt>
      <trkpt lat="42.316933" lon="2.309895">
        <ele>1153.80</ele>
        <time>2012-02-14T20:23:49.74Z</time>
      </trkpt>
      <trkpt lat="42.316983" lon="2.309895">
        <ele>1154.40</ele>
        <time>2012-02-14T21:57:14.44Z</time>
      </trkpt>
      <trkpt lat="42.317037" lon="2.309870">
        <ele>1154.80</ele>
        <time>2012-02-14T23:43:52.37Z</time>
      </trkpt>
      <trkpt lat="42.317092" lon="2.309830">
        <ele>1155.60</ele>
        <time>2012-02-15T01:40:32.47Z</time>
      </trkpt>
      <trkpt lat="42.317167" lon="2.309733">
        <ele>1156.80</ele>
        <time>2012-02-15T04:54:25.12Z</time>
      </trkpt>
      <trkpt lat="42.317182" lon="2.309728">
        <ele>1157.00</ele>
        <time>2012-02-15T05:23:16.85Z</time>
      </trkpt>
      <trkpt lat="42.317238" lon="2.309759">
        <ele>1157.80</ele>
        <time>2012-02-15T07:16:19.64Z</time>
      </trkpt>
      <trkpt lat="42.317284" lon="2.309915">
        <ele>1159.00</ele>
        <time>2012-02-15T11:08:19.98Z</time>
      </trkpt>
      <trkpt lat="42.317276" lon="2.310063">
        <ele>1160.00</ele>
        <time>2012-02-15T14:33:19.77Z</time>
      </trkpt>
      <trkpt lat="42.317276" lon="2.310116">
        <ele>1160.00</ele>
        <time>2012-02-15T15:46:32.70Z</time>
      </trkpt>
      <trkpt lat="42.317287" lon="2.310225">
        <ele>1160.60</ele>
        <time>2012-02-15T18:18:30.96Z</time>
      </trkpt>
      <trkpt lat="42.317310" lon="2.310325">
        <ele>1161.20</ele>
        <time>2012-02-15T20:43:11.22Z</time>
      </trkpt>
      <trkpt lat="42.317391" lon="2.310499">
        <ele>1162.40</ele>
        <time>2012-02-16T01:27:13.38Z</time>
      </trkpt>
      <trkpt lat="42.317450" lon="2.310609">
        <ele>1163.60</ele>
        <time>2012-02-16T04:34:56.84Z</time>
      </trkpt>
      <trkpt lat="42.317513" lon="2.310775">
        <ele>1165.00</ele>
        <time>2012-02-16T08:52:42.26Z</time>
      </trkpt>
      <trkpt lat="42.317569" lon="2.311026">
        <ele>1166.00</ele>
        <time>2012-02-16T14:54:52.82Z</time>
      </trkpt>
      <trkpt lat="42.317574" lon="2.311090">
        <ele>1165.80</ele>
        <time>2012-02-16T16:23:46.99Z</time>
      </trkpt>
      <trkpt lat="42.317574" lon="2.311170">
        <ele>1165.40</ele>
        <time>2012-02-16T18:14:17.80Z</time>
      </trkpt>
      <trkpt lat="42.317576" lon="2.311270">
        <ele>1164.80</ele>
        <time>2012-02-16T20:32:29.34Z</time>
      </trkpt>
      <trkpt lat="42.317582" lon="2.311367">
        <ele>1163.80</ele>
        <time>2012-02-16T22:46:57.27Z</time>
      </trkpt>
      <trkpt lat="42.317593" lon="2.311464">
        <ele>1162.60</ele>
        <time>2012-02-17T01:02:31.12Z</time>
      </trkpt>
      <trkpt lat="42.317623" lon="2.311545">
        <ele>1161.60</ele>
        <time>2012-02-17T03:07:39.93Z</time>
      </trkpt>
      <trkpt lat="42.317682" lon="2.311607">
        <ele>1160.80</ele>
        <time>2012-02-17T05:27:15.31Z</time>
      </trkpt>
      <trkpt lat="42.317748" lon="2.311654">
        <ele>1160.20</ele>
        <time>2012-02-17T07:46:36.47Z</time>
      </trkpt>
      <trkpt lat="42.317847" lon="2.311802">
        <ele>1159.40</ele>
        <time>2012-02-17T12:22:18.18Z</time>
      </trkpt>
      <trkpt lat="42.317874" lon="2.311902">
        <ele>1159.20</ele>
        <time>2012-02-17T14:49:21.93Z</time>
      </trkpt>
      <trkpt lat="42.317900" lon="2.312001">
        <ele>1158.80</ele>
        <time>2012-02-17T17:14:29.72Z</time>
      </trkpt>
      <trkpt lat="42.317926" lon="2.312105">
        <ele>1158.40</ele>
        <time>2012-02-17T19:46:09.08Z</time>
      </trkpt>
      <trkpt lat="42.317935" lon="2.312220">
        <ele>1158.00</ele>
        <time>2012-02-17T22:25:54.05Z</time>
      </trkpt>
      <trkpt lat="42.317922" lon="2.312433">
        <ele>1156.40</ele>
        <time>2012-02-18T03:21:08.51Z</time>
      </trkpt>
      <trkpt lat="42.317923" lon="2.312539">
        <ele>1155.20</ele>
        <time>2012-02-18T05:47:35Z</time>
      </trkpt>
      <trkpt lat="42.317954" lon="2.312642">
        <ele>1154.20</ele>
        <time>2012-02-18T08:21:12.23Z</time>
      </trkpt>
      <trkpt lat="42.318003" lon="2.312740">
        <ele>1153.60</ele>
        <time>2012-02-18T11:04:37.67Z</time>
      </trkpt>
      <trkpt lat="42.318194" lon="2.312965">
        <ele>1152.80</ele>
        <time>2012-02-18T18:57:50.82Z</time>
      </trkpt>
      <trkpt lat="42.318392" lon="2.313052">
        <ele>1154.00</ele>
        <time>2012-02-19T01:26:47.45Z</time>
      </trkpt>
      <trkpt lat="42.318488" lon="2.313127">
        <ele>1155.00</ele>
        <time>2012-02-19T04:53:54.91Z</time>
      </trkpt>
      <trkpt lat="42.318550" lon="2.313238">
        <ele>1155.80</ele>
        <time>2012-02-19T08:06:04.96Z</time>
      </trkpt>
      <trkpt lat="42.318561" lon="2.313308">
        <ele>1156.20</ele>
        <time>2012-02-19T09:44:56.40Z</time>
      </trkpt>
      <trkpt lat="42.318530" lon="2.313439">
        <ele>1156.60</ele>
        <time>2012-02-19T12:54:56.68Z</time>
      </trkpt>
      <trkpt lat="42.318437" lon="2.313632">
        <ele>1157.20</ele>
        <time>2012-02-19T18:13:10.30Z</time>
      </trkpt>
      <trkpt lat="42.318379" lon="2.313801">
        <ele>1157.00</ele>
        <time>2012-02-19T22:30:32.96Z</time>
      </trkpt>
      <trkpt lat="42.318366" lon="2.313891">
        <ele>1156.80</ele>
        <time>2012-02-20T00:37:13.52Z</time>
      </trkpt>
      <trkpt lat="42.318364" lon="2.314061">
        <ele>1156.80</ele>
        <time>2012-02-20T04:32:05.59Z</time>
      </trkpt>
      <trkpt lat="42.318388" lon="2.314294">
        <ele>1157.60</ele>
        <time>2012-02-20T09:57:04.05Z</time>
      </trkpt>
      <trkpt lat="42.318401" lon="2.314362">
        <ele>1157.60</ele>
        <time>2012-02-20T11:34:05.50Z</time>
      </trkpt>
      <trkpt lat="42.318431" lon="2.314530">
        <ele>1158.20</ele>
        <time>2012-02-20T15:32:50.32Z</time>
      </trkpt>
      <trkpt lat="42.318457" lon="2.314623">
        <ele>1159.60</ele>
        <time>2012-02-20T17:50:11.09Z</time>
      </trkpt>
      <trkpt lat="42.318474" lon="2.314717">
        <ele>1161.00</ele>
        <time>2012-02-20T20:03:51.84Z</time>
      </trkpt>
      <trkpt lat="42.318500" lon="2.314814">
        <ele>1162.40</ele>
        <time>2012-02-20T22:26:23.52Z</time>
      </trkpt>
      <trkpt lat="42.318512" lon="2.314863">
        <ele>1163.00</ele>
        <time>2012-02-20T23:37:41.79Z</time>
      </trkpt>
      <trkpt lat="42.318527" lon="2.314913">
        <ele>1163.60</ele>
        <time>2012-02-21T00:52:14.09Z</time>
      </trkpt>
      <trkpt lat="42.318577" lon="2.315064">
        <ele>1165.00</ele>
        <time>2012-02-21T04:40:47.19Z</time>
      </trkpt>
      <trkpt lat="42.318619" lon="2.315203">
        <ele>1166.40</ele>
        <time>2012-02-21T08:08:12.85Z</time>
      </trkpt>
      <trkpt lat="42.318631" lon="2.315246">
        <ele>1166.60</ele>
        <time>2012-02-21T09:11:42.24Z</time>
      </trkpt>
      <trkpt lat="42.318690" lon="2.315391">
        <ele>1167.40</ele>
        <time>2012-02-21T13:00:19.91Z</time>
      </trkpt>
      <trkpt lat="42.318747" lon="2.315503">
        <ele>1167.60</ele>
        <time>2012-02-21T16:08:09.22Z</time>
      </trkpt>
      <trkpt lat="42.318871" lon="2.315606">
        <ele>1168.00</ele>
        <time>2012-02-21T20:40:01.20Z</time>
      </trkpt>
      <trkpt lat="42.318908" lon="2.315638">
        <ele>1168.20</ele>
        <time>2012-02-21T22:02:04.21Z</time>
      </trkpt>
      <trkpt lat="42.318935" lon="2.315670">
        <ele>1168.40</ele>
        <time>2012-02-21T23:09:08.45Z</time>
      </trkpt>
      <trkpt lat="42.318971" lon="2.315660">
        <ele>1169.20</ele>
        <time>2012-02-22T00:17:48.07Z</time>
      </trkpt>
      <trkpt lat="42.319000" lon="2.315634">
        <ele>1169.60</ele>
        <time>2012-02-22T01:22:48.21Z</time>
      </trkpt>
      <trkpt lat="42.319041" lon="2.315559">
        <ele>1171.00</ele>
        <time>2012-02-22T03:31:38.89Z</time>
      </trkpt>
      <trkpt lat="42.319054" lon="2.315545">
        <ele>1171.40</ele>
        <time>2012-02-22T04:02:41.67Z</time>
      </trkpt>
      <trkpt lat="42.319072" lon="2.315532">
        <ele>1172.00</ele>
        <time>2012-02-22T04:40:49.04Z</time>
      </trkpt>
      <trkpt lat="42.319117" lon="2.315546">
        <ele>1173.00</ele>
        <time>2012-02-22T06:07:05.01Z</time>
      </trkpt>
      <trkpt lat="42.319136" lon="2.315570">
        <ele>1173.40</ele>
        <time>2012-02-22T06:55:39.27Z</time>
      </trkpt>
      <trkpt lat="42.319207" lon="2.315671">
        <ele>1174.00</ele>
        <time>2012-02-22T10:08:09.90Z</time>
      </trkpt>
      <trkpt lat="42.319248" lon="2.315763">
        <ele>1174.40</ele>
        <time>2012-02-22T12:36:33.04Z</time>
      </trkpt>
      <trkpt lat="42.319366" lon="2.316001">
        <ele>1175.00</ele>
        <time>2012-02-22T19:12:23.31Z</time>
      </trkpt>
      <trkpt lat="42.319431" lon="2.316159">
        <ele>1175.60</ele>
        <time>2012-02-22T23:22:09.25Z</time>
      </trkpt>
      <trkpt lat="42.319479" lon="2.316264">
        <ele>1176.40</ele>
        <time>2012-02-23T02:12:40.89Z</time>
      </trkpt>
      <trkpt lat="42.319559" lon="2.316529">
        <ele>1176.80</ele>
        <time>2012-02-23T08:48:04.88Z</time>
      </trkpt>
      <trkpt lat="42.319594" lon="2.316686">
        <ele>1176.00</ele>
        <time>2012-02-23T12:34:36Z</time>
      </trkpt>
      <trkpt lat="42.319622" lon="2.316780">
        <ele>1175.20</ele>
        <time>2012-02-23T14:54:35.39Z</time>
      </trkpt>
      <trkpt lat="42.319658" lon="2.316876">
        <ele>1174.80</ele>
        <time>2012-02-23T17:23:16.91Z</time>
      </trkpt>
      <trkpt lat="42.319773" lon="2.317157">
        <ele>1174.20</ele>
        <time>2012-02-24T00:46:56.32Z</time>
      </trkpt>
      <trkpt lat="42.319918" lon="2.317392">
        <ele>1173.60</ele>
        <time>2012-02-24T07:49:44.52Z</time>
      </trkpt>
      <trkpt lat="42.320162" lon="2.317705">
        <ele>1173.40</ele>
        <time>2012-02-24T18:18:01.49Z</time>
      </trkpt>
      <trkpt lat="42.320258" lon="2.317840">
        <ele>1173.20</ele>
        <time>2012-02-24T22:36:45.46Z</time>
      </trkpt>
      <trkpt lat="42.320360" lon="2.317982">
        <ele>1172.60</ele>
        <time>2012-02-25T03:10:14Z</time>
      </trkpt>
      <trkpt lat="42.320422" lon="2.318036">
        <ele>1172.40</ele>
        <time>2012-02-25T05:28:00.26Z</time>
      </trkpt>
      <trkpt lat="42.320597" lon="2.318227">
        <ele>1172.00</ele>
        <time>2012-02-25T12:28:07.48Z</time>
      </trkpt>
      <trkpt lat="42.320790" lon="2.318440">
        <ele>1171.00</ele>
        <time>2012-02-25T20:13:30.36Z</time>
      </trkpt>
      <trkpt lat="42.320859" lon="2.318501">
        <ele>1170.60</ele>
        <time>2012-02-25T22:47:30.64Z</time>
      </trkpt>
      <trkpt lat="42.321000" lon="2.318621">
        <ele>1169.80</ele>
        <time>2012-02-26T03:58:44.75Z</time>
      </trkpt>
      <trkpt lat="42.321135" lon="2.318739">
        <ele>1169.60</ele>
        <time>2012-02-26T08:59:02.65Z</time>
      </trkpt>
      <trkpt lat="42.321271" lon="2.318836">
        <ele>1170.20</ele>
        <time>2012-02-26T13:46:17.36Z</time>
      </trkpt>
      <trkpt lat="42.321388" lon="2.318939">
        <ele>1171.00</ele>
        <time>2012-02-26T18:07:05.93Z</time>
      </trkpt>
      <trkpt lat="42.321449" lon="2.318994">
        <ele>1171.40</ele>
        <time>2012-02-26T20:24:03.81Z</time>
      </trkpt>
      <trkpt lat="42.321558" lon="2.319117">
        <ele>1171.80</ele>
        <time>2012-02-27T00:49:16.32Z</time>
      </trkpt>
      <trkpt lat="42.321608" lon="2.319195">
        <ele>1172.00</ele>
        <time>2012-02-27T03:11:52.25Z</time>
      </trkpt>
      <trkpt lat="42.321712" lon="2.319339">
        <ele>1171.80</ele>
        <time>2012-02-27T07:49:55.79Z</time>
      </trkpt>
      <trkpt lat="42.321755" lon="2.319397">
        <ele>1171.60</ele>
        <time>2012-02-27T09:43:23.15Z</time>
      </trkpt>
      <trkpt lat="42.321805" lon="2.319443">
        <ele>1171.60</ele>
        <time>2012-02-27T11:36:21.61Z</time>
      </trkpt>
      <trkpt lat="42.321855" lon="2.319473">
        <ele>1171.40</ele>
        <time>2012-02-27T13:18:33.07Z</time>
      </trkpt>
      <trkpt lat="42.321947" lon="2.319520">
        <ele>1171.80</ele>
        <time>2012-02-27T16:22:16.87Z</time>
      </trkpt>
      <trkpt lat="42.322029" lon="2.319541">
        <ele>1172.00</ele>
        <time>2012-02-27T18:58:11.91Z</time>
      </trkpt>
      <trkpt lat="42.322099" lon="2.319647">
        <ele>1172.00</ele>
        <time>2012-02-27T22:14:31.06Z</time>
      </trkpt>
      <trkpt lat="42.322117" lon="2.319716">
        <ele>1171.80</ele>
        <time>2012-02-27T23:55:35.23Z</time>
      </trkpt>
      <trkpt lat="42.322098" lon="2.319856">
        <ele>1170.60</ele>
        <time>2012-02-28T03:12:12.15Z</time>
      </trkpt>
      <trkpt lat="42.322099" lon="2.319935">
        <ele>1169.80</ele>
        <time>2012-02-28T05:01:20.56Z</time>
      </trkpt>
      <trkpt lat="42.322117" lon="2.320014">
        <ele>1168.60</ele>
        <time>2012-02-28T06:55:31.85Z</time>
      </trkpt>
      <trkpt lat="42.322147" lon="2.320090">
        <ele>1167.40</ele>
        <time>2012-02-28T08:54:32.12Z</time>
      </trkpt>
      <trkpt lat="42.322187" lon="2.320155">
        <ele>1166.40</ele>
        <time>2012-02-28T10:51:21.07Z</time>
      </trkpt>
      <trkpt lat="42.322294" lon="2.320287">
        <ele>1164.40</ele>
        <time>2012-02-28T15:21:55.03Z</time>
      </trkpt>
      <trkpt lat="42.322340" lon="2.320343">
        <ele>1163.20</ele>
        <time>2012-02-28T17:17:32.51Z</time>
      </trkpt>
      <trkpt lat="42.322386" lon="2.320391">
        <ele>1162.20</ele>
        <time>2012-02-28T19:06:05.08Z</time>
      </trkpt>
      <trkpt lat="42.322484" lon="2.320479">
        <ele>1160.00</ele>
        <time>2012-02-28T22:45:50.96Z</time>
      </trkpt>
      <trkpt lat="42.322504" lon="2.320554">
        <ele>1158.80</ele>
        <time>2012-02-29T00:35:58.79Z</time>
      </trkpt>
      <trkpt lat="42.322511" lon="2.320650">
        <ele>1157.40</ele>
        <time>2012-02-29T02:49:13.73Z</time>
      </trkpt>
      <trkpt lat="42.322513" lon="2.320757">
        <ele>1155.20</ele>
        <time>2012-02-29T05:17:04.57Z</time>
      </trkpt>
      <trkpt lat="42.322516" lon="2.320853">
        <ele>1154.20</ele>
        <time>2012-02-29T07:29:48.01Z</time>
      </trkpt>
      <trkpt lat="42.322525" lon="2.320929">
        <ele>1153.00</ele>
        <time>2012-02-29T09:16:07.06Z</time>
      </trkpt>
      <trkpt lat="42.322524" lon="2.320990">
        <ele>1151.60</ele>
        <time>2012-02-29T10:40:23.90Z</time>
      </trkpt>
      <trkpt lat="42.322515" lon="2.321045">
        <ele>1150.20</ele>
        <time>2012-02-29T11:58:12.52Z</time>
      </trkpt>
      <trkpt lat="42.322494" lon="2.321175">
        <ele>1149.00</ele>
        <time>2012-02-29T15:02:00.89Z</time>
      </trkpt>
      <trkpt lat="42.322488" lon="2.321256">
        <ele>1148.60</ele>
        <time>2012-02-29T16:54:27.66Z</time>
      </trkpt>
      <trkpt lat="42.322488" lon="2.321351">
        <ele>1147.80</ele>
        <time>2012-02-29T19:05:41.13Z</time>
      </trkpt>
      <trkpt lat="42.322476" lon="2.321438">
        <ele>1146.80</ele>
        <time>2012-02-29T21:07:55.96Z</time>
      </trkpt>
      <trkpt lat="42.322479" lon="2.321497">
        <ele>1145.80</ele>
        <time>2012-02-29T22:29:37.35Z</time>
      </trkpt>
      <trkpt lat="42.322473" lon="2.321551">
        <ele>1144.60</ele>
        <time>2012-02-29T23:45:03.05Z</time>
      </trkpt>
      <trkpt lat="42.322486" lon="2.321613">
        <ele>1143.20</ele>
        <time>2012-03-01T01:14:04.15Z</time>
      </trkpt>
      <trkpt lat="42.322501" lon="2.321668">
        <ele>1142.20</ele>
        <time>2012-03-01T02:35:02.70Z</time>
      </trkpt>
      <trkpt lat="42.322504" lon="2.321725">
        <ele>1141.40</ele>
        <time>2012-03-01T03:53:58.73Z</time>
      </trkpt>
      <trkpt lat="42.322519" lon="2.321770">
        <ele>1140.40</ele>
        <time>2012-03-01T05:02:09.77Z</time>
      </trkpt>
      <trkpt lat="42.322528" lon="2.321883">
        <ele>1138.60</ele>
        <time>2012-03-01T07:39:09.22Z</time>
      </trkpt>
      <trkpt lat="42.322527" lon="2.321943">
        <ele>1137.80</ele>
        <time>2012-03-01T09:02:03.20Z</time>
      </trkpt>
      <trkpt lat="42.322540" lon="2.322006">
        <ele>1137.20</ele>
        <time>2012-03-01T10:32:24.08Z</time>
      </trkpt>
      <trkpt lat="42.322544" lon="2.322140">
        <ele>1136.00</ele>
        <time>2012-03-01T13:37:38.85Z</time>
      </trkpt>
      <trkpt lat="42.322568" lon="2.322206">
        <ele>1134.20</ele>
        <time>2012-03-01T15:19:14.60Z</time>
      </trkpt>
      <trkpt lat="42.322589" lon="2.322283">
        <ele>1133.20</ele>
        <time>2012-03-01T17:12:36.56Z</time>
      </trkpt>
      <trkpt lat="42.322610" lon="2.322356">
        <ele>1131.80</ele>
        <time>2012-03-01T19:00:48.49Z</time>
      </trkpt>
      <trkpt lat="42.322598" lon="2.322405">
        <ele>1130.40</ele>
        <time>2012-03-01T20:12:06.51Z</time>
      </trkpt>
      <trkpt lat="42.322579" lon="2.322413">
        <ele>1130.00</ele>
        <time>2012-03-01T20:49:17.11Z</time>
      </trkpt>
      <trkpt lat="42.322513" lon="2.322340">
        <ele>1129.00</ele>
        <time>2012-03-01T23:28:34.18Z</time>
      </trkpt>
      <trkpt lat="42.322444" lon="2.322265">
        <ele>1128.20</ele>
        <time>2012-03-02T02:13:56.86Z</time>
      </trkpt>
      <trkpt lat="42.322417" lon="2.322237">
        <ele>1127.60</ele>
        <time>2012-03-02T03:17:30.67Z</time>
      </trkpt>
      <trkpt lat="42.322395" lon="2.322204">
        <ele>1127.20</ele>
        <time>2012-03-02T04:18:53.29Z</time>
      </trkpt>
      <trkpt lat="42.322363" lon="2.322180">
        <ele>1126.40</ele>
        <time>2012-03-02T05:27:14.89Z</time>
      </trkpt>
      <trkpt lat="42.322296" lon="2.322100">
        <ele>1125.20</ele>
        <time>2012-03-02T08:14:13.15Z</time>
      </trkpt>
      <trkpt lat="42.322248" lon="2.322046">
        <ele>1123.80</ele>
        <time>2012-03-02T10:10:51.70Z</time>
      </trkpt>
      <trkpt lat="42.322205" lon="2.322021">
        <ele>1122.80</ele>
        <time>2012-03-02T11:38:18.21Z</time>
      </trkpt>
      <trkpt lat="42.322190" lon="2.322057">
        <ele>1122.40</ele>
        <time>2012-03-02T12:35:23.01Z</time>
      </trkpt>
      <trkpt lat="42.322183" lon="2.322113">
        <ele>1120.80</ele>
        <time>2012-03-02T13:53:50.10Z</time>
      </trkpt>
      <trkpt lat="42.322201" lon="2.322182">
        <ele>1119.80</ele>
        <time>2012-03-02T15:34:54.26Z</time>
      </trkpt>
      <trkpt lat="42.322229" lon="2.322343">
        <ele>1118.00</ele>
        <time>2012-03-02T19:23:21.93Z</time>
      </trkpt>
      <trkpt lat="42.322238" lon="2.322388">
        <ele>1117.00</ele>
        <time>2012-03-02T20:27:45.52Z</time>
      </trkpt>
      <trkpt lat="42.322244" lon="2.322439">
        <ele>1116.20</ele>
        <time>2012-03-02T21:39:05.52Z</time>
      </trkpt>
      <trkpt lat="42.322263" lon="2.322523">
        <ele>1114.80</ele>
        <time>2012-03-02T23:40:25.84Z</time>
      </trkpt>
      <trkpt lat="42.322284" lon="2.322628">
        <ele>1113.80</ele>
        <time>2012-03-03T02:10:40.88Z</time>
      </trkpt>
      <trkpt lat="42.322311" lon="2.322692">
        <ele>1112.80</ele>
        <time>2012-03-03T03:52:27.84Z</time>
      </trkpt>
      <trkpt lat="42.322327" lon="2.322742">
        <ele>1112.00</ele>
        <time>2012-03-03T05:07:43.24Z</time>
      </trkpt>
      <trkpt lat="42.322344" lon="2.322774">
        <ele>1111.60</ele>
        <time>2012-03-03T06:02:08.98Z</time>
      </trkpt>
      <trkpt lat="42.322348" lon="2.322812">
        <ele>1110.80</ele>
        <time>2012-03-03T06:55:10.13Z</time>
      </trkpt>
      <trkpt lat="42.322355" lon="2.322841">
        <ele>1110.20</ele>
        <time>2012-03-03T07:37:18.46Z</time>
      </trkpt>
      <trkpt lat="42.322362" lon="2.322882">
        <ele>1109.60</ele>
        <time>2012-03-03T08:35:25.91Z</time>
      </trkpt>
      <trkpt lat="42.322367" lon="2.322926">
        <ele>1109.00</ele>
        <time>2012-03-03T09:36:55.39Z</time>
      </trkpt>
      <trkpt lat="42.322378" lon="2.323007">
        <ele>1107.20</ele>
        <time>2012-03-03T11:30:40.87Z</time>
      </trkpt>
      <trkpt lat="42.322393" lon="2.323097">
        <ele>1105.80</ele>
        <time>2012-03-03T13:38:07.12Z</time>
      </trkpt>
      <trkpt lat="42.322402" lon="2.323131">
        <ele>1105.60</ele>
        <time>2012-03-03T14:28:00.14Z</time>
      </trkpt>
      <trkpt lat="42.322413" lon="2.323195">
        <ele>1104.40</ele>
        <time>2012-03-03T15:58:45.81Z</time>
      </trkpt>
      <trkpt lat="42.322426" lon="2.323290">
        <ele>1103.00</ele>
        <time>2012-03-03T18:12:13Z</time>
      </trkpt>
      <trkpt lat="42.322433" lon="2.323324">
        <ele>1102.40</ele>
        <time>2012-03-03T19:00:58.08Z</time>
      </trkpt>
      <trkpt lat="42.322444" lon="2.323367">
        <ele>1101.40</ele>
        <time>2012-03-03T20:03:49.15Z</time>
      </trkpt>
      <trkpt lat="42.322454" lon="2.323419">
        <ele>1100.00</ele>
        <time>2012-03-03T21:18:02.23Z</time>
      </trkpt>
      <trkpt lat="42.322454" lon="2.323451">
        <ele>1099.80</ele>
        <time>2012-03-03T22:02:14.34Z</time>
      </trkpt>
      <trkpt lat="42.322466" lon="2.323524">
        <ele>1099.00</ele>
        <time>2012-03-03T23:45:32.21Z</time>
      </trkpt>
      <trkpt lat="42.322527" lon="2.323671">
        <ele>1098.00</ele>
        <time>2012-03-04T03:38:23.03Z</time>
      </trkpt>
      <trkpt lat="42.322569" lon="2.323803">
        <ele>1096.60</ele>
        <time>2012-03-04T06:56:53.01Z</time>
      </trkpt>
      <trkpt lat="42.322600" lon="2.323967">
        <ele>1095.20</ele>
        <time>2012-03-04T10:50:42.24Z</time>
      </trkpt>
      <trkpt lat="42.322634" lon="2.324046">
        <ele>1094.60</ele>
        <time>2012-03-04T12:56:58.10Z</time>
      </trkpt>
      <trkpt lat="42.322670" lon="2.324225">
        <ele>1093.40</ele>
        <time>2012-03-04T17:13:12.38Z</time>
      </trkpt>
      <trkpt lat="42.322700" lon="2.324299">
        <ele>1091.00</ele>
        <time>2012-03-04T19:09:46.82Z</time>
      </trkpt>
      <trkpt lat="42.322731" lon="2.324486">
        <ele>1089.40</ele>
        <time>2012-03-04T23:34:29.84Z</time>
      </trkpt>
      <trkpt lat="42.322743" lon="2.324590">
        <ele>1088.60</ele>
        <time>2012-03-05T01:59:53.51Z</time>
      </trkpt>
      <trkpt lat="42.322756" lon="2.324691">
        <ele>1087.80</ele>
        <time>2012-03-05T04:21:30.11Z</time>
      </trkpt>
      <trkpt lat="42.322753" lon="2.324800">
        <ele>1087.00</ele>
        <time>2012-03-05T06:52:10.10Z</time>
      </trkpt>
      <trkpt lat="42.322736" lon="2.324917">
        <ele>1085.80</ele>
        <time>2012-03-05T09:36:52.32Z</time>
      </trkpt>
      <trkpt lat="42.322736" lon="2.325034">
        <ele>1084.60</ele>
        <time>2012-03-05T12:18:29.08Z</time>
      </trkpt>
      <trkpt lat="42.322735" lon="2.325281">
        <ele>1083.40</ele>
        <time>2012-03-05T17:59:40.32Z</time>
      </trkpt>
      <trkpt lat="42.322735" lon="2.325536">
        <ele>1081.80</ele>
        <time>2012-03-05T23:51:54.28Z</time>
      </trkpt>
      <trkpt lat="42.322749" lon="2.325647">
        <ele>1080.80</ele>
        <time>2012-03-06T02:27:26.66Z</time>
      </trkpt>
      <trkpt lat="42.322761" lon="2.325864">
        <ele>1079.20</ele>
        <time>2012-03-06T07:28:01.47Z</time>
      </trkpt>
      <trkpt lat="42.322760" lon="2.325962">
        <ele>1078.00</ele>
        <time>2012-03-06T09:43:24.31Z</time>
      </trkpt>
      <trkpt lat="42.322762" lon="2.326063">
        <ele>1076.60</ele>
        <time>2012-03-06T12:02:58.02Z</time>
      </trkpt>
      <trkpt lat="42.322754" lon="2.326165">
        <ele>1075.20</ele>
        <time>2012-03-06T14:24:39.03Z</time>
      </trkpt>
      <trkpt lat="42.322745" lon="2.326270">
        <ele>1073.60</ele>
        <time>2012-03-06T16:50:39.53Z</time>
      </trkpt>
      <trkpt lat="42.322732" lon="2.326385">
        <ele>1071.80</ele>
        <time>2012-03-06T19:31:21.28Z</time>
      </trkpt>
      <trkpt lat="42.322739" lon="2.326504">
        <ele>1070.40</ele>
        <time>2012-03-06T22:16:14.96Z</time>
      </trkpt>
      <trkpt lat="42.322776" lon="2.326746">
        <ele>1068.60</ele>
        <time>2012-03-07T03:57:35.84Z</time>
      </trkpt>
      <trkpt lat="42.322808" lon="2.327021">
        <ele>1066.40</ele>
        <time>2012-03-07T10:22:07.88Z</time>
      </trkpt>
      <trkpt lat="42.322824" lon="2.327312">
        <ele>1064.80</ele>
        <time>2012-03-07T17:05:12.02Z</time>
      </trkpt>
      <trkpt lat="42.322833" lon="2.327611">
        <ele>1062.60</ele>
        <time>2012-03-07T23:58:33.12Z</time>
      </trkpt>
      <trkpt lat="42.322841" lon="2.327765">
        <ele>1061.60</ele>
        <time>2012-03-08T03:31:47.81Z</time>
      </trkpt>
      <trkpt lat="42.322838" lon="2.327923">
        <ele>1060.60</ele>
        <time>2012-03-08T07:10:06.88Z</time>
      </trkpt>
      <trkpt lat="42.322830" lon="2.328236">
        <ele>1058.80</ele>
        <time>2012-03-08T14:22:43.23Z</time>
      </trkpt>
      <trkpt lat="42.322771" lon="2.328541">
        <ele>1056.80</ele>
        <time>2012-03-08T21:38:11.92Z</time>
      </trkpt>
      <trkpt lat="42.322671" lon="2.328843">
        <ele>1055.00</ele>
        <time>2012-03-09T05:15:16.61Z</time>
      </trkpt>
      <trkpt lat="42.322639" lon="2.329005">
        <ele>1054.40</ele>
        <time>2012-03-09T09:06:53.81Z</time>
      </trkpt>
      <trkpt lat="42.322609" lon="2.329160">
        <ele>1053.40</ele>
        <time>2012-03-09T12:48:12.83Z</time>
      </trkpt>
      <trkpt lat="42.322576" lon="2.329313">
        <ele>1052.20</ele>
        <time>2012-03-09T16:28:21.76Z</time>
      </trkpt>
      <trkpt lat="42.322547" lon="2.329454">
        <ele>1051.00</ele>
        <time>2012-03-09T19:50:31.34Z</time>
      </trkpt>
      <trkpt lat="42.322514" lon="2.329588">
        <ele>1049.60</ele>
        <time>2012-03-09T23:05:36.92Z</time>
      </trkpt>
      <trkpt lat="42.322489" lon="2.329732">
        <ele>1048.20</ele>
        <time>2012-03-10T02:29:56.03Z</time>
      </trkpt>
      <trkpt lat="42.322484" lon="2.329885">
        <ele>1047.00</ele>
        <time>2012-03-10T06:01:28.84Z</time>
      </trkpt>
      <trkpt lat="42.322494" lon="2.330041">
        <ele>1045.80</ele>
        <time>2012-03-10T09:37:46.40Z</time>
      </trkpt>
      <trkpt lat="42.322511" lon="2.330200">
        <ele>1044.40</ele>
        <time>2012-03-10T13:19:41.16Z</time>
      </trkpt>
      <trkpt lat="42.322530" lon="2.330359">
        <ele>1042.80</ele>
        <time>2012-03-10T17:02:09.85Z</time>
      </trkpt>
      <trkpt lat="42.322554" lon="2.330653">
        <ele>1039.00</ele>
        <time>2012-03-10T23:50:44.20Z</time>
      </trkpt>
      <trkpt lat="42.322584" lon="2.330776">
        <ele>1036.80</ele>
        <time>2012-03-11T02:49:38.60Z</time>
      </trkpt>
      <trkpt lat="42.322601" lon="2.330865">
        <ele>1035.00</ele>
        <time>2012-03-11T04:56:36.96Z</time>
      </trkpt>
      <trkpt lat="42.322604" lon="2.330920">
        <ele>1033.20</ele>
        <time>2012-03-11T06:12:47.66Z</time>
      </trkpt>
      <trkpt lat="42.322602" lon="2.330953">
        <ele>1032.00</ele>
        <time>2012-03-11T06:58:31.82Z</time>
      </trkpt>
      <trkpt lat="42.322551" lon="2.330959">
        <ele>1030.60</ele>
        <time>2012-03-11T08:34:10.20Z</time>
      </trkpt>
      <trkpt lat="42.322523" lon="2.330906">
        <ele>1030.40</ele>
        <time>2012-03-11T10:04:08.87Z</time>
      </trkpt>
      <trkpt lat="42.322485" lon="2.330850">
        <ele>1030.00</ele>
        <time>2012-03-11T11:49:08.45Z</time>
      </trkpt>
      <trkpt lat="42.322392" lon="2.330717">
        <ele>1029.40</ele>
        <time>2012-03-11T16:02:00.09Z</time>
      </trkpt>
      <trkpt lat="42.322279" lon="2.330568">
        <ele>1028.40</ele>
        <time>2012-03-11T20:56:50.19Z</time>
      </trkpt>
      <trkpt lat="42.322245" lon="2.330491">
        <ele>1027.80</ele>
        <time>2012-03-11T23:00:43.29Z</time>
      </trkpt>
      <trkpt lat="42.322214" lon="2.330414">
        <ele>1027.40</ele>
        <time>2012-03-12T01:01:49.71Z</time>
      </trkpt>
      <trkpt lat="42.322177" lon="2.330315">
        <ele>1027.00</ele>
        <time>2012-03-12T03:35:03.40Z</time>
      </trkpt>
      <trkpt lat="42.322110" lon="2.330093">
        <ele>1026.40</ele>
        <time>2012-03-12T09:06:16.33Z</time>
      </trkpt>
      <trkpt lat="42.322065" lon="2.329994">
        <ele>1026.00</ele>
        <time>2012-03-12T11:46:47.89Z</time>
      </trkpt>
      <trkpt lat="42.321948" lon="2.329765">
        <ele>1024.20</ele>
        <time>2012-03-12T18:11:17.75Z</time>
      </trkpt>
      <trkpt lat="42.321858" lon="2.329502">
        <ele>1022.80</ele>
        <time>2012-03-13T00:51:36.46Z</time>
      </trkpt>
      <trkpt lat="42.321813" lon="2.329376">
        <ele>1022.20</ele>
        <time>2012-03-13T04:04:53.72Z</time>
      </trkpt>
      <trkpt lat="42.321755" lon="2.329252">
        <ele>1020.60</ele>
        <time>2012-03-13T07:27:34.60Z</time>
      </trkpt>
      <trkpt lat="42.321660" lon="2.328992">
        <ele>1018.80</ele>
        <time>2012-03-13T14:08:10.95Z</time>
      </trkpt>
      <trkpt lat="42.321622" lon="2.328886">
        <ele>1017.60</ele>
        <time>2012-03-13T16:50:54.38Z</time>
      </trkpt>
      <trkpt lat="42.321588" lon="2.328805">
        <ele>1016.80</ele>
        <time>2012-03-13T18:59:34.04Z</time>
      </trkpt>
      <trkpt lat="42.321539" lon="2.328720">
        <ele>1015.80</ele>
        <time>2012-03-13T21:28:26.99Z</time>
      </trkpt>
      <trkpt lat="42.321456" lon="2.328559">
        <ele>1013.80</ele>
        <time>2012-03-14T01:59:33.96Z</time>
      </trkpt>
      <trkpt lat="42.321434" lon="2.328481">
        <ele>1013.00</ele>
        <time>2012-03-14T03:54:52.99Z</time>
      </trkpt>
      <trkpt lat="42.321414" lon="2.328409">
        <ele>1012.00</ele>
        <time>2012-03-14T05:41:07.58Z</time>
      </trkpt>
      <trkpt lat="42.321396" lon="2.328356">
        <ele>1011.00</ele>
        <time>2012-03-14T07:01:41.46Z</time>
      </trkpt>
      <trkpt lat="42.321382" lon="2.328317">
        <ele>1009.80</ele>
        <time>2012-03-14T08:01:34.60Z</time>
      </trkpt>
      <trkpt lat="42.321358" lon="2.328290">
        <ele>1009.20</ele>
        <time>2012-03-14T08:59:53.89Z</time>
      </trkpt>
      <trkpt lat="42.321325" lon="2.328264">
        <ele>1008.60</ele>
        <time>2012-03-14T10:11:14.88Z</time>
      </trkpt>
      <trkpt lat="42.321235" lon="2.328278">
        <ele>1008.40</ele>
        <time>2012-03-14T13:00:29.85Z</time>
      </trkpt>
      <trkpt lat="42.321079" lon="2.328353">
        <ele>1008.60</ele>
        <time>2012-03-14T18:09:48.47Z</time>
      </trkpt>
      <trkpt lat="42.321026" lon="2.328368">
        <ele>1009.00</ele>
        <time>2012-03-14T19:50:58.14Z</time>
      </trkpt>
      <trkpt lat="42.320974" lon="2.328380">
        <ele>1009.40</ele>
        <time>2012-03-14T21:29:31.27Z</time>
      </trkpt>
      <trkpt lat="42.320919" lon="2.328350">
        <ele>1009.60</ele>
        <time>2012-03-14T23:20:18.95Z</time>
      </trkpt>
      <trkpt lat="42.320868" lon="2.328330">
        <ele>1009.80</ele>
        <time>2012-03-15T00:59:31.21Z</time>
      </trkpt>
      <trkpt lat="42.320820" lon="2.328308">
        <ele>1009.80</ele>
        <time>2012-03-15T02:34:12.28Z</time>
      </trkpt>
      <trkpt lat="42.320762" lon="2.328281">
        <ele>1008.60</ele>
        <time>2012-03-15T04:28:48.08Z</time>
      </trkpt>
      <trkpt lat="42.320709" lon="2.328281">
        <ele>1008.40</ele>
        <time>2012-03-15T06:07:49.06Z</time>
      </trkpt>
      <trkpt lat="42.320616" lon="2.328277">
        <ele>1008.20</ele>
        <time>2012-03-15T09:01:39.07Z</time>
      </trkpt>
      <trkpt lat="42.320467" lon="2.328362">
        <ele>1008.80</ele>
        <time>2012-03-15T14:03:46.06Z</time>
      </trkpt>
      <trkpt lat="42.320391" lon="2.328483">
        <ele>1009.80</ele>
        <time>2012-03-15T17:43:04.68Z</time>
      </trkpt>
      <trkpt lat="42.320344" lon="2.328542">
        <ele>1010.60</ele>
        <time>2012-03-15T19:42:52.75Z</time>
      </trkpt>
      <trkpt lat="42.320324" lon="2.328568">
        <ele>1011.20</ele>
        <time>2012-03-15T20:34:42.37Z</time>
      </trkpt>
      <trkpt lat="42.320289" lon="2.328626">
        <ele>1012.20</ele>
        <time>2012-03-15T22:18:07.26Z</time>
      </trkpt>
      <trkpt lat="42.320259" lon="2.328680">
        <ele>1013.60</ele>
        <time>2012-03-15T23:51:25.43Z</time>
      </trkpt>
      <trkpt lat="42.320250" lon="2.328710">
        <ele>1014.40</ele>
        <time>2012-03-16T00:36:08.75Z</time>
      </trkpt>
      <trkpt lat="42.320240" lon="2.328735">
        <ele>1015.00</ele>
        <time>2012-03-16T01:15:24.56Z</time>
      </trkpt>
      <trkpt lat="42.320202" lon="2.328816">
        <ele>1016.40</ele>
        <time>2012-03-16T03:27:55.27Z</time>
      </trkpt>
      <trkpt lat="42.320180" lon="2.328869">
        <ele>1018.00</ele>
        <time>2012-03-16T04:51:52.88Z</time>
      </trkpt>
      <trkpt lat="42.320167" lon="2.328894">
        <ele>1018.40</ele>
        <time>2012-03-16T05:34:06.04Z</time>
      </trkpt>
      <trkpt lat="42.320137" lon="2.328939">
        <ele>1019.00</ele>
        <time>2012-03-16T06:57:47.89Z</time>
      </trkpt>
      <trkpt lat="42.320097" lon="2.329017">
        <ele>1020.40</ele>
        <time>2012-03-16T09:08:55.38Z</time>
      </trkpt>
      <trkpt lat="42.320083" lon="2.329088">
        <ele>1021.20</ele>
        <time>2012-03-16T10:50:25.65Z</time>
      </trkpt>
      <trkpt lat="42.320071" lon="2.329148">
        <ele>1021.80</ele>
        <time>2012-03-16T12:16:17.26Z</time>
      </trkpt>
      <trkpt lat="42.320045" lon="2.329247">
        <ele>1023.00</ele>
        <time>2012-03-16T14:41:24.78Z</time>
      </trkpt>
      <trkpt lat="42.320024" lon="2.329304">
        <ele>1023.60</ele>
        <time>2012-03-16T16:09:23.03Z</time>
      </trkpt>
      <trkpt lat="42.320009" lon="2.329380">
        <ele>1024.20</ele>
        <time>2012-03-16T17:58:02.60Z</time>
      </trkpt>
      <trkpt lat="42.319976" lon="2.329526">
        <ele>1025.60</ele>
        <time>2012-03-16T21:28:56.12Z</time>
      </trkpt>
      <trkpt lat="42.319968" lon="2.329555">
        <ele>1025.80</ele>
        <time>2012-03-16T22:11:41.53Z</time>
      </trkpt>
      <trkpt lat="42.319914" lon="2.329745">
        <ele>1025.80</ele>
        <time>2012-03-17T02:52:52.39Z</time>
      </trkpt>
      <trkpt lat="42.319875" lon="2.329871">
        <ele>1027.00</ele>
        <time>2012-03-17T06:01:33.63Z</time>
      </trkpt>
      <trkpt lat="42.319869" lon="2.329966">
        <ele>1027.60</ele>
        <time>2012-03-17T08:13:16.10Z</time>
      </trkpt>
      <trkpt lat="42.319864" lon="2.330007">
        <ele>1028.00</ele>
        <time>2012-03-17T09:10:40.17Z</time>
      </trkpt>
      <trkpt lat="42.319823" lon="2.330179">
        <ele>1029.20</ele>
        <time>2012-03-17T13:20:18.40Z</time>
      </trkpt>
      <trkpt lat="42.319801" lon="2.330265">
        <ele>1029.80</ele>
        <time>2012-03-17T15:26:00.81Z</time>
      </trkpt>
      <trkpt lat="42.319789" lon="2.330312">
        <ele>1030.20</ele>
        <time>2012-03-17T16:34:41.97Z</time>
      </trkpt>
      <trkpt lat="42.319771" lon="2.330408">
        <ele>1031.40</ele>
        <time>2012-03-17T18:51:30.50Z</time>
      </trkpt>
      <trkpt lat="42.319740" lon="2.330540">
        <ele>1032.60</ele>
        <time>2012-03-17T22:02:49.55Z</time>
      </trkpt>
      <trkpt lat="42.319715" lon="2.330628">
        <ele>1033.00</ele>
        <time>2012-03-18T00:13:03.02Z</time>
      </trkpt>
      <trkpt lat="42.319756" lon="2.330884">
        <ele>1033.20</ele>
        <time>2012-03-18T06:14:52.90Z</time>
      </trkpt>
      <trkpt lat="42.319803" lon="2.331338">
        <ele>1033.20</ele>
        <time>2012-03-18T16:48:08.43Z</time>
      </trkpt>
      <trkpt lat="42.319788" lon="2.331545">
        <ele>1033.60</ele>
        <time>2012-03-18T21:35:27.23Z</time>
      </trkpt>
      <trkpt lat="42.319767" lon="2.331697">
        <ele>1033.80</ele>
        <time>2012-03-19T01:09:03.35Z</time>
      </trkpt>
      <trkpt lat="42.319773" lon="2.331784">
        <ele>1033.80</ele>
        <time>2012-03-19T03:09:45.40Z</time>
      </trkpt>
      <trkpt lat="42.319792" lon="2.332085">
        <ele>1034.20</ele>
        <time>2012-03-19T10:07:03.68Z</time>
      </trkpt>
      <trkpt lat="42.319772" lon="2.332503">
        <ele>1034.20</ele>
        <time>2012-03-19T19:45:40.88Z</time>
      </trkpt>
      <trkpt lat="42.319761" lon="2.332588">
        <ele>1034.00</ele>
        <time>2012-03-19T21:44:52.96Z</time>
      </trkpt>
      <trkpt lat="42.319723" lon="2.333078">
        <ele>1034.00</ele>
        <time>2012-03-20T09:05:28.01Z</time>
      </trkpt>
      <trkpt lat="42.319685" lon="2.333245">
        <ele>1033.80</ele>
        <time>2012-03-20T13:06:49.95Z</time>
      </trkpt>
      <trkpt lat="42.319643" lon="2.333493">
        <ele>1033.60</ele>
        <time>2012-03-20T18:58:17.04Z</time>
      </trkpt>
      <trkpt lat="42.319525" lon="2.333834">
        <ele>1033.40</ele>
        <time>2012-03-21T03:38:21.97Z</time>
      </trkpt>
      <trkpt lat="42.319478" lon="2.333986">
        <ele>1033.60</ele>
        <time>2012-03-21T07:25:57.35Z</time>
      </trkpt>
      <trkpt lat="42.319488" lon="2.334114">
        <ele>1033.40</ele>
        <time>2012-03-21T10:23:45.38Z</time>
      </trkpt>
      <trkpt lat="42.319554" lon="2.334549">
        <ele>1033.80</ele>
        <time>2012-03-21T20:37:10.49Z</time>
      </trkpt>
      <trkpt lat="42.319554" lon="2.334644">
        <ele>1033.80</ele>
        <time>2012-03-21T22:48:24.32Z</time>
      </trkpt>
      <trkpt lat="42.319569" lon="2.334918">
        <ele>1033.60</ele>
        <time>2012-03-22T05:07:56.28Z</time>
      </trkpt>
      <trkpt lat="42.319560" lon="2.335011">
        <ele>1033.80</ele>
        <time>2012-03-22T07:17:30.08Z</time>
      </trkpt>
      <trkpt lat="42.319503" lon="2.335555">
        <ele>1033.80</ele>
        <time>2012-03-22T19:56:28.62Z</time>
      </trkpt>
      <trkpt lat="42.319478" lon="2.335634">
        <ele>1034.00</ele>
        <time>2012-03-22T21:55:10.83Z</time>
      </trkpt>
      <trkpt lat="42.319493" lon="2.335898">
        <ele>1033.60</ele>
        <time>2012-03-23T04:00:56.33Z</time>
      </trkpt>
      <trkpt lat="42.319503" lon="2.336406">
        <ele>1034.40</ele>
        <time>2012-03-23T15:42:55.58Z</time>
      </trkpt>
      <trkpt lat="42.319504" lon="2.336459">
        <ele>1035.00</ele>
        <time>2012-03-23T16:56:09.78Z</time>
      </trkpt>
      <trkpt lat="42.319497" lon="2.336512">
        <ele>1036.40</ele>
        <time>2012-03-23T18:10:32.08Z</time>
      </trkpt>
      <trkpt lat="42.319483" lon="2.336625">
        <ele>1037.60</ele>
        <time>2012-03-23T20:48:48.38Z</time>
      </trkpt>
      <trkpt lat="42.319391" lon="2.336810">
        <ele>1038.20</ele>
        <time>2012-03-24T01:56:47.02Z</time>
      </trkpt>
      <trkpt lat="42.319207" lon="2.336994">
        <ele>1036.40</ele>
        <time>2012-03-24T09:04:18.12Z</time>
      </trkpt>
      <trkpt lat="42.319123" lon="2.337023">
        <ele>1035.80</ele>
        <time>2012-03-24T11:46:15.96Z</time>
      </trkpt>
      <trkpt lat="42.319065" lon="2.337022">
        <ele>1035.00</ele>
        <time>2012-03-24T13:34:37.94Z</time>
      </trkpt>
      <trkpt lat="42.319013" lon="2.337019">
        <ele>1034.20</ele>
        <time>2012-03-24T15:11:52.13Z</time>
      </trkpt>
      <trkpt lat="42.318969" lon="2.337026">
        <ele>1033.40</ele>
        <time>2012-03-24T16:34:38.27Z</time>
      </trkpt>
      <trkpt lat="42.318902" lon="2.337081">
        <ele>1032.20</ele>
        <time>2012-03-24T19:01:03.78Z</time>
      </trkpt>
      <trkpt lat="42.318873" lon="2.337135">
        <ele>1031.60</ele>
        <time>2012-03-24T20:33:15.43Z</time>
      </trkpt>
      <trkpt lat="42.318846" lon="2.337200">
        <ele>1031.20</ele>
        <time>2012-03-24T22:16:14.77Z</time>
      </trkpt>
      <trkpt lat="42.318800" lon="2.337344">
        <ele>1030.00</ele>
        <time>2012-03-25T01:52:56.19Z</time>
      </trkpt>
      <trkpt lat="42.318757" lon="2.337439">
        <ele>1029.60</ele>
        <time>2012-03-25T04:26:48.29Z</time>
      </trkpt>
      <trkpt lat="42.318707" lon="2.337553">
        <ele>1028.60</ele>
        <time>2012-03-25T07:29:54.24Z</time>
      </trkpt>
      <trkpt lat="42.318666" lon="2.337596">
        <ele>1027.60</ele>
        <time>2012-03-25T09:06:50.07Z</time>
      </trkpt>
      <trkpt lat="42.318658" lon="2.337619">
        <ele>1027.40</ele>
        <time>2012-03-25T09:41:56.78Z</time>
      </trkpt>
      <trkpt lat="42.318664" lon="2.337664">
        <ele>1026.60</ele>
        <time>2012-03-25T10:45:06.70Z</time>
      </trkpt>
      <trkpt lat="42.318675" lon="2.337683">
        <ele>1026.00</ele>
        <time>2012-03-25T11:18:26.78Z</time>
      </trkpt>
      <trkpt lat="42.318675" lon="2.337746">
        <ele>1024.60</ele>
        <time>2012-03-25T12:45:28.45Z</time>
      </trkpt>
      <trkpt lat="42.318692" lon="2.337773">
        <ele>1023.60</ele>
        <time>2012-03-25T13:34:27.72Z</time>
      </trkpt>
      <trkpt lat="42.318705" lon="2.337765">
        <ele>1023.20</ele>
        <time>2012-03-25T14:01:08.71Z</time>
      </trkpt>
      <trkpt lat="42.318722" lon="2.337731">
        <ele>1022.00</ele>
        <time>2012-03-25T14:57:50.57Z</time>
      </trkpt>
      <trkpt lat="42.318727" lon="2.337728">
        <ele>1021.40</ele>
        <time>2012-03-25T15:14:39.42Z</time>
      </trkpt>
      <trkpt lat="42.318735" lon="2.337725">
        <ele>1021.20</ele>
        <time>2012-03-25T15:31:28.26Z</time>
      </trkpt>
      <trkpt lat="42.318759" lon="2.337765">
        <ele>1021.00</ele>
        <time>2012-03-25T16:42:37.80Z</time>
      </trkpt>
      <trkpt lat="42.318758" lon="2.337784">
        <ele>1020.60</ele>
        <time>2012-03-25T17:08:56.57Z</time>
      </trkpt>
      <trkpt lat="42.318761" lon="2.337803">
        <ele>1020.20</ele>
        <time>2012-03-25T17:35:46.86Z</time>
      </trkpt>
      <trkpt lat="42.318755" lon="2.337821">
        <ele>1019.40</ele>
        <time>2012-03-25T18:03:03.36Z</time>
      </trkpt>
      <trkpt lat="42.318760" lon="2.337851">
        <ele>1018.80</ele>
        <time>2012-03-25T18:45:32.25Z</time>
      </trkpt>
      <trkpt lat="42.318760" lon="2.337848">
        <ele>1018.20</ele>
        <time>2012-03-25T19:02:21.09Z</time>
      </trkpt>
      <trkpt lat="42.318826" lon="2.337950">
        <ele>1014.80</ele>
        <time>2012-03-25T22:09:35.22Z</time>
      </trkpt>
      <trkpt lat="42.318802" lon="2.338040">
        <ele>1013.40</ele>
        <time>2012-03-26T00:21:45.02Z</time>
      </trkpt>
      <trkpt lat="42.318781" lon="2.338085">
        <ele>1012.00</ele>
        <time>2012-03-26T01:35:15.49Z</time>
      </trkpt>
      <trkpt lat="42.318761" lon="2.338109">
        <ele>1010.60</ele>
        <time>2012-03-26T02:25:12.65Z</time>
      </trkpt>
      <trkpt lat="42.318766" lon="2.338138">
        <ele>1010.00</ele>
        <time>2012-03-26T03:06:20.75Z</time>
      </trkpt>
      <trkpt lat="42.318766" lon="2.338203">
        <ele>1009.40</ele>
        <time>2012-03-26T04:36:08.18Z</time>
      </trkpt>
      <trkpt lat="42.318777" lon="2.338266">
        <ele>1008.20</ele>
        <time>2012-03-26T06:05:33.45Z</time>
      </trkpt>
      <trkpt lat="42.318772" lon="2.338352">
        <ele>1007.00</ele>
        <time>2012-03-26T08:04:43.43Z</time>
      </trkpt>
      <trkpt lat="42.318774" lon="2.338420">
        <ele>1005.80</ele>
        <time>2012-03-26T09:38:43.96Z</time>
      </trkpt>
      <trkpt lat="42.318787" lon="2.338471">
        <ele>1005.00</ele>
        <time>2012-03-26T10:53:15.15Z</time>
      </trkpt>
      <trkpt lat="42.318803" lon="2.338493">
        <ele>1004.20</ele>
        <time>2012-03-26T11:35:52.80Z</time>
      </trkpt>
      <trkpt lat="42.318816" lon="2.338608">
        <ele>1003.00</ele>
        <time>2012-03-26T14:16:35.14Z</time>
      </trkpt>
      <trkpt lat="42.318815" lon="2.338682">
        <ele>1001.60</ele>
        <time>2012-03-26T15:58:49.54Z</time>
      </trkpt>
      <trkpt lat="42.318826" lon="2.338754">
        <ele>1000.40</ele>
        <time>2012-03-26T17:40:23.20Z</time>
      </trkpt>
      <trkpt lat="42.318836" lon="2.338828">
        <ele>999.20</ele>
        <time>2012-03-26T19:24:18.17Z</time>
      </trkpt>
      <trkpt lat="42.318844" lon="2.338902">
        <ele>997.60</ele>
        <time>2012-03-26T21:07:36.75Z</time>
      </trkpt>
      <trkpt lat="42.318855" lon="2.338970">
        <ele>996.20</ele>
        <time>2012-03-26T22:43:46.12Z</time>
      </trkpt>
      <trkpt lat="42.318861" lon="2.339044">
        <ele>994.60</ele>
        <time>2012-03-27T00:26:36.26Z</time>
      </trkpt>
      <trkpt lat="42.318863" lon="2.339125">
        <ele>993.40</ele>
        <time>2012-03-27T02:18:33.55Z</time>
      </trkpt>
      <trkpt lat="42.318854" lon="2.339212">
        <ele>992.20</ele>
        <time>2012-03-27T04:19:54.64Z</time>
      </trkpt>
      <trkpt lat="42.318851" lon="2.339286">
        <ele>991.00</ele>
        <time>2012-03-27T06:02:17.22Z</time>
      </trkpt>
      <trkpt lat="42.318844" lon="2.339366">
        <ele>989.80</ele>
        <time>2012-03-27T07:53:34.16Z</time>
      </trkpt>
      <trkpt lat="42.318835" lon="2.339457">
        <ele>988.80</ele>
        <time>2012-03-27T10:00:23.72Z</time>
      </trkpt>
      <trkpt lat="42.318830" lon="2.339561">
        <ele>987.80</ele>
        <time>2012-03-27T12:24:21.79Z</time>
      </trkpt>
      <trkpt lat="42.318834" lon="2.339771">
        <ele>985.40</ele>
        <time>2012-03-27T17:14:33.08Z</time>
      </trkpt>
      <trkpt lat="42.318835" lon="2.339886">
        <ele>984.00</ele>
        <time>2012-03-27T19:53:25.34Z</time>
      </trkpt>
      <trkpt lat="42.318832" lon="2.340003">
        <ele>982.80</ele>
        <time>2012-03-27T22:35:08.52Z</time>
      </trkpt>
      <trkpt lat="42.318839" lon="2.340224">
        <ele>981.60</ele>
        <time>2012-03-28T03:40:42.56Z</time>
      </trkpt>
      <trkpt lat="42.318850" lon="2.340337">
        <ele>980.40</ele>
        <time>2012-03-28T06:18:09.20Z</time>
      </trkpt>
      <trkpt lat="42.318859" lon="2.340458">
        <ele>979.40</ele>
        <time>2012-03-28T09:06:08.70Z</time>
      </trkpt>
      <trkpt lat="42.318867" lon="2.340702">
        <ele>978.00</ele>
        <time>2012-03-28T14:43:32.11Z</time>
      </trkpt>
      <trkpt lat="42.318886" lon="2.340895">
        <ele>977.20</ele>
        <time>2012-03-28T19:12:29.76Z</time>
      </trkpt>
      <trkpt lat="42.318900" lon="2.340997">
        <ele>976.60</ele>
        <time>2012-03-28T21:35:48.28Z</time>
      </trkpt>
      <trkpt lat="42.318906" lon="2.341231">
        <ele>975.40</ele>
        <time>2012-03-29T02:59:14.64Z</time>
      </trkpt>
      <trkpt lat="42.318907" lon="2.341361">
        <ele>974.00</ele>
        <time>2012-03-29T05:58:50.05Z</time>
      </trkpt>
      <trkpt lat="42.318922" lon="2.341485">
        <ele>972.20</ele>
        <time>2012-03-29T08:52:24.21Z</time>
      </trkpt>
      <trkpt lat="42.318952" lon="2.341577">
        <ele>970.60</ele>
        <time>2012-03-29T11:11:18.07Z</time>
      </trkpt>
      <trkpt lat="42.318997" lon="2.341674">
        <ele>969.40</ele>
        <time>2012-03-29T13:49:29.15Z</time>
      </trkpt>
      <trkpt lat="42.319087" lon="2.341789">
        <ele>967.40</ele>
        <time>2012-03-29T17:40:48.19Z</time>
      </trkpt>
      <trkpt lat="42.319125" lon="2.341834">
        <ele>966.80</ele>
        <time>2012-03-29T19:15:09.89Z</time>
      </trkpt>
      <trkpt lat="42.319153" lon="2.342032">
        <ele>966.60</ele>
        <time>2012-03-29T23:53:38.17Z</time>
      </trkpt>
      <trkpt lat="42.319109" lon="2.342268">
        <ele>968.20</ele>
        <time>2012-03-30T05:29:50.80Z</time>
      </trkpt>
      <trkpt lat="42.319093" lon="2.342351">
        <ele>968.60</ele>
        <time>2012-03-30T07:28:20.04Z</time>
      </trkpt>
      <trkpt lat="42.319052" lon="2.342426">
        <ele>968.60</ele>
        <time>2012-03-30T09:37:10.72Z</time>
      </trkpt>
      <trkpt lat="42.318967" lon="2.342578">
        <ele>968.20</ele>
        <time>2012-03-30T14:00:26.24Z</time>
      </trkpt>
      <trkpt lat="42.318934" lon="2.342667">
        <ele>968.20</ele>
        <time>2012-03-30T16:17:58.37Z</time>
      </trkpt>
      <trkpt lat="42.318866" lon="2.342942">
        <ele>967.60</ele>
        <time>2012-03-30T22:58:32.05Z</time>
      </trkpt>
      <trkpt lat="42.318840" lon="2.343034">
        <ele>967.20</ele>
        <time>2012-03-31T01:14:35.31Z</time>
      </trkpt>
      <trkpt lat="42.318828" lon="2.343133">
        <ele>967.20</ele>
        <time>2012-03-31T03:33:10.29Z</time>
      </trkpt>
      <trkpt lat="42.318836" lon="2.343422">
        <ele>966.40</ele>
        <time>2012-03-31T10:12:40.37Z</time>
      </trkpt>
      <trkpt lat="42.318828" lon="2.343509">
        <ele>966.00</ele>
        <time>2012-03-31T12:13:46.78Z</time>
      </trkpt>
      <trkpt lat="42.318771" lon="2.343658">
        <ele>965.80</ele>
        <time>2012-03-31T16:05:31.36Z</time>
      </trkpt>
      <trkpt lat="42.318634" lon="2.343810">
        <ele>965.60</ele>
        <time>2012-03-31T21:36:34.67Z</time>
      </trkpt>
      <trkpt lat="42.318517" lon="2.343899">
        <ele>965.80</ele>
        <time>2012-04-01T01:47:21.87Z</time>
      </trkpt>
      <trkpt lat="42.318309" lon="2.344125">
        <ele>966.00</ele>
        <time>2012-04-01T10:05:49.97Z</time>
      </trkpt>
      <trkpt lat="42.318237" lon="2.344249">
        <ele>966.00</ele>
        <time>2012-04-01T13:43:37.76Z</time>
      </trkpt>
      <trkpt lat="42.318203" lon="2.344403">
        <ele>965.80</ele>
        <time>2012-04-01T17:25:38.76Z</time>
      </trkpt>
      <trkpt lat="42.318202" lon="2.344742">
        <ele>965.40</ele>
        <time>2012-04-02T01:13:56.75Z</time>
      </trkpt>
      <trkpt lat="42.318219" lon="2.344916">
        <ele>965.40</ele>
        <time>2012-04-02T05:16:23.95Z</time>
      </trkpt>
      <trkpt lat="42.318238" lon="2.345124">
        <ele>965.60</ele>
        <time>2012-04-02T10:05:54.92Z</time>
      </trkpt>
      <trkpt lat="42.318229" lon="2.345263">
        <ele>966.60</ele>
        <time>2012-04-02T13:18:39.91Z</time>
      </trkpt>
      <trkpt lat="42.318210" lon="2.345325">
        <ele>967.20</ele>
        <time>2012-04-02T14:51:22.60Z</time>
      </trkpt>
      <trkpt lat="42.318153" lon="2.345494">
        <ele>967.80</ele>
        <time>2012-04-02T19:07:58.46Z</time>
      </trkpt>
      <trkpt lat="42.318119" lon="2.345756">
        <ele>967.00</ele>
        <time>2012-04-03T01:15:26.05Z</time>
      </trkpt>
      <trkpt lat="42.318113" lon="2.345991">
        <ele>966.00</ele>
        <time>2012-04-03T06:40:15.49Z</time>
      </trkpt>
      <trkpt lat="42.318110" lon="2.346131">
        <ele>965.40</ele>
        <time>2012-04-03T09:53:44.17Z</time>
      </trkpt>
      <trkpt lat="42.318110" lon="2.346203">
        <ele>965.00</ele>
        <time>2012-04-03T11:33:11.84Z</time>
      </trkpt>
      <trkpt lat="42.318127" lon="2.346273">
        <ele>964.80</ele>
        <time>2012-04-03T13:14:58.67Z</time>
      </trkpt>
      <trkpt lat="42.318153" lon="2.346431">
        <ele>964.20</ele>
        <time>2012-04-03T16:58:34.78Z</time>
      </trkpt>
      <trkpt lat="42.318161" lon="2.346517">
        <ele>963.60</ele>
        <time>2012-04-03T18:58:19.02Z</time>
      </trkpt>
      <trkpt lat="42.318186" lon="2.346603">
        <ele>963.20</ele>
        <time>2012-04-03T21:05:58.15Z</time>
      </trkpt>
      <trkpt lat="42.318200" lon="2.346674">
        <ele>962.40</ele>
        <time>2012-04-03T22:47:28.58Z</time>
      </trkpt>
      <trkpt lat="42.318233" lon="2.346791">
        <ele>961.40</ele>
        <time>2012-04-04T01:40:27.60Z</time>
      </trkpt>
      <trkpt lat="42.318246" lon="2.347061">
        <ele>960.60</ele>
        <time>2012-04-04T07:54:13.73Z</time>
      </trkpt>
      <trkpt lat="42.318229" lon="2.347184">
        <ele>960.60</ele>
        <time>2012-04-04T10:47:05.05Z</time>
      </trkpt>
      <trkpt lat="42.318201" lon="2.347279">
        <ele>960.20</ele>
        <time>2012-04-04T13:08:21.54Z</time>
      </trkpt>
      <trkpt lat="42.318172" lon="2.347349">
        <ele>960.40</ele>
        <time>2012-04-04T14:59:12.05Z</time>
      </trkpt>
      <trkpt lat="42.318223" lon="2.347572">
        <ele>957.00</ele>
        <time>2012-04-04T20:21:39.14Z</time>
      </trkpt>
      <trkpt lat="42.318242" lon="2.347653">
        <ele>957.00</ele>
        <time>2012-04-04T22:19:02.48Z</time>
      </trkpt>
      <trkpt lat="42.318253" lon="2.347808">
        <ele>956.80</ele>
        <time>2012-04-05T01:54:08.57Z</time>
      </trkpt>
      <trkpt lat="42.318258" lon="2.347868">
        <ele>956.80</ele>
        <time>2012-04-05T03:17:33.10Z</time>
      </trkpt>
      <trkpt lat="42.318232" lon="2.347931">
        <ele>956.40</ele>
        <time>2012-04-05T04:57:13.08Z</time>
      </trkpt>
      <trkpt lat="42.318200" lon="2.348060">
        <ele>955.80</ele>
        <time>2012-04-05T08:05:10.80Z</time>
      </trkpt>
      <trkpt lat="42.318197" lon="2.348160">
        <ele>954.80</ele>
        <time>2012-04-05T10:23:26.04Z</time>
      </trkpt>
      <trkpt lat="42.318160" lon="2.348458">
        <ele>958.40</ele>
        <time>2012-04-05T17:20:51.35Z</time>
      </trkpt>
      <trkpt lat="42.318150" lon="2.348558">
        <ele>957.80</ele>
        <time>2012-04-05T19:40:15.24Z</time>
      </trkpt>
      <trkpt lat="42.318149" lon="2.348637">
        <ele>957.20</ele>
        <time>2012-04-05T21:29:24.06Z</time>
      </trkpt>
      <trkpt lat="42.318143" lon="2.348785">
        <ele>956.40</ele>
        <time>2012-04-06T00:54:09.36Z</time>
      </trkpt>
      <trkpt lat="42.318135" lon="2.348861">
        <ele>956.20</ele>
        <time>2012-04-06T02:40:12.08Z</time>
      </trkpt>
      <trkpt lat="42.318095" lon="2.349006">
        <ele>955.60</ele>
        <time>2012-04-06T06:13:59.47Z</time>
      </trkpt>
      <trkpt lat="42.318062" lon="2.349059">
        <ele>955.60</ele>
        <time>2012-04-06T07:49:42.36Z</time>
      </trkpt>
      <trkpt lat="42.318015" lon="2.349214">
        <ele>955.40</ele>
        <time>2012-04-06T11:41:07.74Z</time>
      </trkpt>
      <trkpt lat="42.317997" lon="2.349316">
        <ele>955.20</ele>
        <time>2012-04-06T14:05:59.40Z</time>
      </trkpt>
      <trkpt lat="42.317965" lon="2.349476">
        <ele>955.20</ele>
        <time>2012-04-06T17:54:57.47Z</time>
      </trkpt>
      <trkpt lat="42.317909" lon="2.349822">
        <ele>953.80</ele>
        <time>2012-04-07T02:04:14.51Z</time>
      </trkpt>
      <trkpt lat="42.317875" lon="2.350098">
        <ele>952.60</ele>
        <time>2012-04-07T08:30:45.98Z</time>
      </trkpt>
      <trkpt lat="42.317853" lon="2.350295">
        <ele>952.00</ele>
        <time>2012-04-07T13:05:59.44Z</time>
      </trkpt>
      <trkpt lat="42.317868" lon="2.350380">
        <ele>951.40</ele>
        <time>2012-04-07T15:06:42.50Z</time>
      </trkpt>
      <trkpt lat="42.317886" lon="2.350491">
        <ele>950.60</ele>
        <time>2012-04-07T17:43:41.35Z</time>
      </trkpt>
      <trkpt lat="42.317869" lon="2.350557">
        <ele>950.20</ele>
        <time>2012-04-07T19:20:14.14Z</time>
      </trkpt>
      <trkpt lat="42.317820" lon="2.350695">
        <ele>949.80</ele>
        <time>2012-04-07T22:51:42.67Z</time>
      </trkpt>
      <trkpt lat="42.317784" lon="2.350767">
        <ele>949.80</ele>
        <time>2012-04-08T00:51:46.68Z</time>
      </trkpt>
      <trkpt lat="42.317634" lon="2.350948">
        <ele>949.80</ele>
        <time>2012-04-08T07:07:20.63Z</time>
      </trkpt>
      <trkpt lat="42.317576" lon="2.350997">
        <ele>949.80</ele>
        <time>2012-04-08T09:15:06.37Z</time>
      </trkpt>
      <trkpt lat="42.317399" lon="2.351108">
        <ele>950.20</ele>
        <time>2012-04-08T15:19:36.35Z</time>
      </trkpt>
      <trkpt lat="42.317343" lon="2.351111">
        <ele>950.40</ele>
        <time>2012-04-08T17:04:18.53Z</time>
      </trkpt>
      <trkpt lat="42.317212" lon="2.351088">
        <ele>950.80</ele>
        <time>2012-04-08T21:11:06.08Z</time>
      </trkpt>
      <trkpt lat="42.317161" lon="2.351159">
        <ele>949.40</ele>
        <time>2012-04-08T23:27:50.56Z</time>
      </trkpt>
      <trkpt lat="42.317095" lon="2.351260">
        <ele>951.60</ele>
        <time>2012-04-09T02:34:02.60Z</time>
      </trkpt>
      <trkpt lat="42.317083" lon="2.351286">
        <ele>951.80</ele>
        <time>2012-04-09T03:16:22.98Z</time>
      </trkpt>
      <trkpt lat="42.317006" lon="2.351425">
        <ele>953.00</ele>
        <time>2012-04-09T07:16:18.62Z</time>
      </trkpt>
      <trkpt lat="42.316904" lon="2.351578">
        <ele>953.60</ele>
        <time>2012-04-09T12:00:53.41Z</time>
      </trkpt>
      <trkpt lat="42.316861" lon="2.351631">
        <ele>954.00</ele>
        <time>2012-04-09T13:49:34.98Z</time>
      </trkpt>
      <trkpt lat="42.316829" lon="2.351681">
        <ele>954.00</ele>
        <time>2012-04-09T15:20:56.03Z</time>
      </trkpt>
      <trkpt lat="42.316749" lon="2.351845">
        <ele>954.40</ele>
        <time>2012-04-09T19:52:20.83Z</time>
      </trkpt>
      <trkpt lat="42.316670" lon="2.351957">
        <ele>954.20</ele>
        <time>2012-04-09T23:26:10.38Z</time>
      </trkpt>
      <trkpt lat="42.316395" lon="2.352311">
        <ele>953.20</ele>
        <time>2012-04-10T11:15:28.28Z</time>
      </trkpt>
      <trkpt lat="42.316324" lon="2.352462">
        <ele>951.80</ele>
        <time>2012-04-10T15:22:40.27Z</time>
      </trkpt>
      <trkpt lat="42.316298" lon="2.352504">
        <ele>951.00</ele>
        <time>2012-04-10T16:38:20.43Z</time>
      </trkpt>
      <trkpt lat="42.316268" lon="2.352548">
        <ele>950.40</ele>
        <time>2012-04-10T18:01:01.20Z</time>
      </trkpt>
      <trkpt lat="42.316192" lon="2.352674">
        <ele>949.60</ele>
        <time>2012-04-10T21:45:38.87Z</time>
      </trkpt>
      <trkpt lat="42.316145" lon="2.352745">
        <ele>948.80</ele>
        <time>2012-04-10T23:57:17.55Z</time>
      </trkpt>
      <trkpt lat="42.315914" lon="2.353129">
        <ele>948.20</ele>
        <time>2012-04-11T11:21:08.60Z</time>
      </trkpt>
      <trkpt lat="42.315661" lon="2.353530">
        <ele>949.40</ele>
        <time>2012-04-11T23:29:21.08Z</time>
      </trkpt>
      <trkpt lat="42.315554" lon="2.353643">
        <ele>948.60</ele>
        <time>2012-04-12T03:42:59Z</time>
      </trkpt>
      <trkpt lat="42.315474" lon="2.353653">
        <ele>947.40</ele>
        <time>2012-04-12T06:13:04.75Z</time>
      </trkpt>
      <trkpt lat="42.315380" lon="2.353626">
        <ele>945.60</ele>
        <time>2012-04-12T09:12:36.63Z</time>
      </trkpt>
      <trkpt lat="42.315310" lon="2.353630">
        <ele>944.40</ele>
        <time>2012-04-12T11:23:30.21Z</time>
      </trkpt>
      <trkpt lat="42.315271" lon="2.353638">
        <ele>943.60</ele>
        <time>2012-04-12T12:37:11.88Z</time>
      </trkpt>
      <trkpt lat="42.315272" lon="2.353638">
        <ele>943.40</ele>
        <time>2012-04-12T12:54:00.73Z</time>
      </trkpt>
      <trkpt lat="42.315226" lon="2.353699">
        <ele>943.60</ele>
        <time>2012-04-12T14:54:22.40Z</time>
      </trkpt>
      <trkpt lat="42.315213" lon="2.353718">
        <ele>943.60</ele>
        <time>2012-04-12T15:30:08.03Z</time>
      </trkpt>
      <trkpt lat="42.315265" lon="2.353863">
        <ele>947.40</ele>
        <time>2012-04-12T19:12:45.69Z</time>
      </trkpt>
      <trkpt lat="42.315261" lon="2.353938">
        <ele>948.20</ele>
        <time>2012-04-12T20:56:38.45Z</time>
      </trkpt>
      <trkpt lat="42.315259" lon="2.353982">
        <ele>948.20</ele>
        <time>2012-04-12T21:57:32.41Z</time>
      </trkpt>
      <trkpt lat="42.315261" lon="2.354003">
        <ele>948.40</ele>
        <time>2012-04-12T22:26:47.44Z</time>
      </trkpt>
      <trkpt lat="42.315294" lon="2.354149">
        <ele>948.20</ele>
        <time>2012-04-13T01:57:41.83Z</time>
      </trkpt>
      <trkpt lat="42.315276" lon="2.354308">
        <ele>947.40</ele>
        <time>2012-04-13T05:39:54.59Z</time>
      </trkpt>
      <trkpt lat="42.315261" lon="2.354357">
        <ele>947.40</ele>
        <time>2012-04-13T06:53:10.39Z</time>
      </trkpt>
      <trkpt lat="42.315227" lon="2.354470">
        <ele>947.40</ele>
        <time>2012-04-13T09:41:42.46Z</time>
      </trkpt>
      <trkpt lat="42.315226" lon="2.354621">
        <ele>947.40</ele>
        <time>2012-04-13T13:10:19.07Z</time>
      </trkpt>
      <trkpt lat="42.315251" lon="2.354812">
        <ele>946.60</ele>
        <time>2012-04-13T17:38:16.82Z</time>
      </trkpt>
      <trkpt lat="42.315260" lon="2.354910">
        <ele>946.00</ele>
        <time>2012-04-13T19:54:42.26Z</time>
      </trkpt>
      <trkpt lat="42.315268" lon="2.355009">
        <ele>946.00</ele>
        <time>2012-04-13T22:12:17.04Z</time>
      </trkpt>
      <trkpt lat="42.315279" lon="2.355105">
        <ele>945.40</ele>
        <time>2012-04-14T00:26:29.26Z</time>
      </trkpt>
      <trkpt lat="42.315290" lon="2.355294">
        <ele>944.60</ele>
        <time>2012-04-14T04:48:23.56Z</time>
      </trkpt>
      <trkpt lat="42.315280" lon="2.355383">
        <ele>944.40</ele>
        <time>2012-04-14T06:52:45.28Z</time>
      </trkpt>
      <trkpt lat="42.315231" lon="2.355588">
        <ele>943.40</ele>
        <time>2012-04-14T11:50:23.02Z</time>
      </trkpt>
      <trkpt lat="42.315229" lon="2.355638">
        <ele>942.40</ele>
        <time>2012-04-14T12:59:33.49Z</time>
      </trkpt>
      <trkpt lat="42.315238" lon="2.355708">
        <ele>941.00</ele>
        <time>2012-04-14T14:37:42.71Z</time>
      </trkpt>
      <trkpt lat="42.315223" lon="2.355864">
        <ele>940.00</ele>
        <time>2012-04-14T18:15:02.13Z</time>
      </trkpt>
      <trkpt lat="42.315216" lon="2.355934">
        <ele>939.80</ele>
        <time>2012-04-14T19:52:37.12Z</time>
      </trkpt>
      <trkpt lat="42.315171" lon="2.356245">
        <ele>939.40</ele>
        <time>2012-04-15T03:10:24.23Z</time>
      </trkpt>
      <trkpt lat="42.315150" lon="2.356334">
        <ele>939.40</ele>
        <time>2012-04-15T05:19:27.75Z</time>
      </trkpt>
      <trkpt lat="42.315079" lon="2.356562">
        <ele>939.20</ele>
        <time>2012-04-15T11:01:13.73Z</time>
      </trkpt>
      <trkpt lat="42.315059" lon="2.356625">
        <ele>938.80</ele>
        <time>2012-04-15T12:35:56.60Z</time>
      </trkpt>
      <trkpt lat="42.315044" lon="2.356681">
        <ele>938.80</ele>
        <time>2012-04-15T13:58:13.50Z</time>
      </trkpt>
      <trkpt lat="42.315017" lon="2.356838">
        <ele>938.60</ele>
        <time>2012-04-15T17:40:54.29Z</time>
      </trkpt>
      <trkpt lat="42.314997" lon="2.356916">
        <ele>938.80</ele>
        <time>2012-04-15T19:34:57.25Z</time>
      </trkpt>
      <trkpt lat="42.314936" lon="2.357050">
        <ele>938.80</ele>
        <time>2012-04-15T23:12:20.31Z</time>
      </trkpt>
      <trkpt lat="42.314803" lon="2.357306">
        <ele>939.40</ele>
        <time>2012-04-16T06:24:33.49Z</time>
      </trkpt>
      <trkpt lat="42.314768" lon="2.357369">
        <ele>939.40</ele>
        <time>2012-04-16T08:13:25.06Z</time>
      </trkpt>
      <trkpt lat="42.314715" lon="2.357577">
        <ele>939.00</ele>
        <time>2012-04-16T13:17:20.82Z</time>
      </trkpt>
      <trkpt lat="42.314680" lon="2.357846">
        <ele>937.80</ele>
        <time>2012-04-16T19:34:40.45Z</time>
      </trkpt>
      <trkpt lat="42.314534" lon="2.358259">
        <ele>938.40</ele>
        <time>2012-04-17T06:07:04.43Z</time>
      </trkpt>
      <trkpt lat="42.314390" lon="2.358698">
        <ele>937.80</ele>
        <time>2012-04-17T17:10:32.23Z</time>
      </trkpt>
      <trkpt lat="42.314366" lon="2.358754">
        <ele>937.80</ele>
        <time>2012-04-17T18:39:57.28Z</time>
      </trkpt>
      <trkpt lat="42.314317" lon="2.358851">
        <ele>936.60</ele>
        <time>2012-04-17T21:22:14.56Z</time>
      </trkpt>
      <trkpt lat="42.314256" lon="2.358926">
        <ele>936.20</ele>
        <time>2012-04-17T23:56:15.88Z</time>
      </trkpt>
      <trkpt lat="42.314218" lon="2.358981">
        <ele>935.60</ele>
        <time>2012-04-18T01:40:15.09Z</time>
      </trkpt>
      <trkpt lat="42.314201" lon="2.359068">
        <ele>935.60</ele>
        <time>2012-04-18T03:44:34Z</time>
      </trkpt>
      <trkpt lat="42.314189" lon="2.359121">
        <ele>935.60</ele>
        <time>2012-04-18T05:01:08.47Z</time>
      </trkpt>
      <trkpt lat="42.314154" lon="2.359231">
        <ele>936.20</ele>
        <time>2012-04-18T07:46:34.56Z</time>
      </trkpt>
      <trkpt lat="42.314135" lon="2.359287">
        <ele>936.60</ele>
        <time>2012-04-18T09:11:41.66Z</time>
      </trkpt>
      <trkpt lat="42.314117" lon="2.359345">
        <ele>937.00</ele>
        <time>2012-04-18T10:38:35.50Z</time>
      </trkpt>
      <trkpt lat="42.314054" lon="2.359521">
        <ele>937.40</ele>
        <time>2012-04-18T15:08:43.44Z</time>
      </trkpt>
      <trkpt lat="42.314023" lon="2.359545">
        <ele>937.20</ele>
        <time>2012-04-18T16:15:27.51Z</time>
      </trkpt>
      <trkpt lat="42.313935" lon="2.359457">
        <ele>937.80</ele>
        <time>2012-04-18T19:39:55.79Z</time>
      </trkpt>
      <trkpt lat="42.313908" lon="2.359420">
        <ele>938.20</ele>
        <time>2012-04-18T20:51:44.62Z</time>
      </trkpt>
      <trkpt lat="42.313789" lon="2.359265">
        <ele>939.40</ele>
        <time>2012-04-19T02:00:24.97Z</time>
      </trkpt>
      <trkpt lat="42.313760" lon="2.359218">
        <ele>939.80</ele>
        <time>2012-04-19T03:24:58.90Z</time>
      </trkpt>
      <trkpt lat="42.313721" lon="2.359106">
        <ele>940.40</ele>
        <time>2012-04-19T06:16:00.40Z</time>
      </trkpt>
      <trkpt lat="42.313705" lon="2.359046">
        <ele>940.60</ele>
        <time>2012-04-19T07:44:07.32Z</time>
      </trkpt>
      <trkpt lat="42.313669" lon="2.358887">
        <ele>941.40</ele>
        <time>2012-04-19T11:33:50.81Z</time>
      </trkpt>
      <trkpt lat="42.313643" lon="2.358861">
        <ele>941.60</ele>
        <time>2012-04-19T12:34:15.53Z</time>
      </trkpt>
      <trkpt lat="42.313556" lon="2.358929">
        <ele>942.80</ele>
        <time>2012-04-19T15:41:59.44Z</time>
      </trkpt>
      <trkpt lat="42.313526" lon="2.359062">
        <ele>944.00</ele>
        <time>2012-04-19T18:54:05.34Z</time>
      </trkpt>
      <trkpt lat="42.313520" lon="2.359116">
        <ele>944.40</ele>
        <time>2012-04-19T20:09:31.67Z</time>
      </trkpt>
      <trkpt lat="42.313495" lon="2.359436">
        <ele>945.40</ele>
        <time>2012-04-20T03:34:04.23Z</time>
      </trkpt>
      <trkpt lat="42.313501" lon="2.359623">
        <ele>946.60</ele>
        <time>2012-04-20T07:52:39.32Z</time>
      </trkpt>
      <trkpt lat="42.313506" lon="2.359725">
        <ele>947.60</ele>
        <time>2012-04-20T10:13:52.70Z</time>
      </trkpt>
      <trkpt lat="42.313511" lon="2.359767">
        <ele>948.20</ele>
        <time>2012-04-20T11:12:38.93Z</time>
      </trkpt>
      <trkpt lat="42.313518" lon="2.359855">
        <ele>948.60</ele>
        <time>2012-04-20T13:14:55.37Z</time>
      </trkpt>
      <trkpt lat="42.313497" lon="2.360023">
        <ele>949.00</ele>
        <time>2012-04-20T17:10:18.51Z</time>
      </trkpt>
      <trkpt lat="42.313432" lon="2.360345">
        <ele>948.60</ele>
        <time>2012-04-21T00:51:25.87Z</time>
      </trkpt>
      <trkpt lat="42.313425" lon="2.360429">
        <ele>948.00</ele>
        <time>2012-04-21T02:48:12.75Z</time>
      </trkpt>
      <trkpt lat="42.313394" lon="2.360668">
        <ele>948.20</ele>
        <time>2012-04-21T08:23:26.04Z</time>
      </trkpt>
      <trkpt lat="42.313377" lon="2.360746">
        <ele>948.40</ele>
        <time>2012-04-21T10:15:46.49Z</time>
      </trkpt>
      <trkpt lat="42.313298" lon="2.360958">
        <ele>948.00</ele>
        <time>2012-04-21T15:43:44.46Z</time>
      </trkpt>
      <trkpt lat="42.313264" lon="2.361018">
        <ele>947.80</ele>
        <time>2012-04-21T17:28:10.26Z</time>
      </trkpt>
      <trkpt lat="42.313150" lon="2.361189">
        <ele>948.40</ele>
        <time>2012-04-21T22:46:14.48Z</time>
      </trkpt>
      <trkpt lat="42.313113" lon="2.361241">
        <ele>948.60</ele>
        <time>2012-04-22T00:25:56.16Z</time>
      </trkpt>
      <trkpt lat="42.312964" lon="2.361438">
        <ele>949.80</ele>
        <time>2012-04-22T06:55:14.47Z</time>
      </trkpt>
      <trkpt lat="42.312884" lon="2.361537">
        <ele>950.00</ele>
        <time>2012-04-22T10:17:50.07Z</time>
      </trkpt>
      <trkpt lat="42.312678" lon="2.361792">
        <ele>951.00</ele>
        <time>2012-04-22T18:59:34.97Z</time>
      </trkpt>
      <trkpt lat="42.312634" lon="2.361843">
        <ele>951.00</ele>
        <time>2012-04-22T20:47:50.93Z</time>
      </trkpt>
      <trkpt lat="42.312538" lon="2.361933">
        <ele>950.80</ele>
        <time>2012-04-23T00:26:05.01Z</time>
      </trkpt>
      <trkpt lat="42.312385" lon="2.362035">
        <ele>951.00</ele>
        <time>2012-04-23T05:44:46.26Z</time>
      </trkpt>
      <trkpt lat="42.312185" lon="2.362159">
        <ele>952.00</ele>
        <time>2012-04-23T12:35:49.03Z</time>
      </trkpt>
      <trkpt lat="42.312091" lon="2.362215">
        <ele>952.20</ele>
        <time>2012-04-23T15:47:43.06Z</time>
      </trkpt>
      <trkpt lat="42.311975" lon="2.362263">
        <ele>951.60</ele>
        <time>2012-04-23T19:34:21.09Z</time>
      </trkpt>
      <trkpt lat="42.311961" lon="2.362278">
        <ele>951.40</ele>
        <time>2012-04-23T20:07:43.28Z</time>
      </trkpt>
      <trkpt lat="42.311944" lon="2.362330">
        <ele>951.20</ele>
        <time>2012-04-23T21:26:16.13Z</time>
      </trkpt>
      <trkpt lat="42.311915" lon="2.362431">
        <ele>950.60</ele>
        <time>2012-04-23T23:55:57.22Z</time>
      </trkpt>
      <trkpt lat="42.311928" lon="2.362464">
        <ele>949.60</ele>
        <time>2012-04-24T00:47:36.61Z</time>
      </trkpt>
      <trkpt lat="42.311955" lon="2.362479">
        <ele>948.60</ele>
        <time>2012-04-24T01:42:08.60Z</time>
      </trkpt>
      <trkpt lat="42.311984" lon="2.362475">
        <ele>946.60</ele>
        <time>2012-04-24T02:36:36.20Z</time>
      </trkpt>
      <trkpt lat="42.312020" lon="2.362459">
        <ele>946.20</ele>
        <time>2012-04-24T03:47:23.94Z</time>
      </trkpt>
      <trkpt lat="42.312122" lon="2.362424">
        <ele>945.40</ele>
        <time>2012-04-24T07:03:59.88Z</time>
      </trkpt>
      <trkpt lat="42.312191" lon="2.362426">
        <ele>944.60</ele>
        <time>2012-04-24T09:12:56.14Z</time>
      </trkpt>
      <trkpt lat="42.312263" lon="2.362440">
        <ele>943.80</ele>
        <time>2012-04-24T11:28:49.91Z</time>
      </trkpt>
      <trkpt lat="42.312337" lon="2.362451">
        <ele>943.00</ele>
        <time>2012-04-24T13:47:54.84Z</time>
      </trkpt>
      <trkpt lat="42.312413" lon="2.362474">
        <ele>942.40</ele>
        <time>2012-04-24T16:13:24.70Z</time>
      </trkpt>
      <trkpt lat="42.312490" lon="2.362522">
        <ele>941.80</ele>
        <time>2012-04-24T18:51:48.87Z</time>
      </trkpt>
      <trkpt lat="42.312552" lon="2.362594">
        <ele>941.40</ele>
        <time>2012-04-24T21:24:29.63Z</time>
      </trkpt>
      <trkpt lat="42.312594" lon="2.362685">
        <ele>940.80</ele>
        <time>2012-04-24T23:52:41.41Z</time>
      </trkpt>
      <trkpt lat="42.312644" lon="2.362872">
        <ele>940.00</ele>
        <time>2012-04-25T04:27:24.29Z</time>
      </trkpt>
      <trkpt lat="42.312659" lon="2.362955">
        <ele>939.40</ele>
        <time>2012-04-25T06:25:26.77Z</time>
      </trkpt>
      <trkpt lat="42.312669" lon="2.363043">
        <ele>938.80</ele>
        <time>2012-04-25T08:28:26.85Z</time>
      </trkpt>
      <trkpt lat="42.312687" lon="2.363413">
        <ele>937.80</ele>
        <time>2012-04-25T17:00:43.01Z</time>
      </trkpt>
      <trkpt lat="42.312688" lon="2.363501">
        <ele>937.60</ele>
        <time>2012-04-25T19:02:18.33Z</time>
      </trkpt>
      <trkpt lat="42.312691" lon="2.363585">
        <ele>937.40</ele>
        <time>2012-04-25T20:58:29.33Z</time>
      </trkpt>
      <trkpt lat="42.312700" lon="2.363662">
        <ele>937.20</ele>
        <time>2012-04-25T22:46:11.21Z</time>
      </trkpt>
      <trkpt lat="42.312725" lon="2.363763">
        <ele>936.80</ele>
        <time>2012-04-26T01:13:19.81Z</time>
      </trkpt>
      <trkpt lat="42.312870" lon="2.363826">
        <ele>931.20</ele>
        <time>2012-04-26T05:57:51.76Z</time>
      </trkpt>
      <trkpt lat="42.312894" lon="2.363884">
        <ele>930.80</ele>
        <time>2012-04-26T07:29:40.97Z</time>
      </trkpt>
      <trkpt lat="42.312899" lon="2.363924">
        <ele>930.80</ele>
        <time>2012-04-26T08:25:43.66Z</time>
      </trkpt>
      <trkpt lat="42.312898" lon="2.363975">
        <ele>930.60</ele>
        <time>2012-04-26T09:36:12.59Z</time>
      </trkpt>
      <trkpt lat="42.312889" lon="2.364102">
        <ele>930.80</ele>
        <time>2012-04-26T12:32:28.01Z</time>
      </trkpt>
      <trkpt lat="42.312888" lon="2.364101">
        <ele>948.32</ele>
        <time>2012-04-26T12:49:16.86Z</time>
      </trkpt>
      <trkpt lat="42.312820" lon="2.364230">
        <ele>948.32</ele>
        <time>2012-04-26T16:28:08.52Z</time>
      </trkpt>
      <trkpt lat="42.312740" lon="2.364260">
        <ele>948.42</ele>
        <time>2012-04-26T19:03:14.45Z</time>
      </trkpt>
      <trkpt lat="42.312380" lon="2.364280">
        <ele>949.18</ele>
        <time>2012-04-27T06:16:22.33Z</time>
      </trkpt>
      <trkpt lat="42.312160" lon="2.364170">
        <ele>948.40</ele>
        <time>2012-04-27T13:34:34.72Z</time>
      </trkpt>
      <trkpt lat="42.311960" lon="2.363990">
        <ele>949.53</ele>
        <time>2012-04-27T21:03:24.76Z</time>
      </trkpt>
      <trkpt lat="42.311690" lon="2.363570">
        <ele>949.72</ele>
        <time>2012-04-28T09:52:15.79Z</time>
      </trkpt>
      <trkpt lat="42.311690" lon="2.363560">
        <ele>949.71</ele>
        <time>2012-04-28T10:09:04.63Z</time>
      </trkpt>
      <trkpt lat="42.311470" lon="2.363010">
        <ele>948.53</ele>
        <time>2012-04-29T00:32:58.02Z</time>
      </trkpt>
      <trkpt lat="42.310960" lon="2.362780">
        <ele>946.45</ele>
        <time>2012-04-29T17:17:21.34Z</time>
      </trkpt>
      <trkpt lat="42.310630" lon="2.362590">
        <ele>948.41</ele>
        <time>2012-04-30T04:27:25.74Z</time>
      </trkpt>
      <trkpt lat="42.310650" lon="2.362480">
        <ele>949.25</ele>
        <time>2012-04-30T07:03:55.65Z</time>
      </trkpt>
      <trkpt lat="42.310470" lon="2.362320">
        <ele>949.38</ele>
        <time>2012-04-30T13:46:21.41Z</time>
      </trkpt>
      <trkpt lat="42.310340" lon="2.362150">
        <ele>949.52</ele>
        <time>2012-04-30T19:24:12.97Z</time>
      </trkpt>
      <trkpt lat="42.310340" lon="2.362140">
        <ele>949.52</ele>
        <time>2012-04-30T19:41:01.82Z</time>
      </trkpt>
      <trkpt lat="42.310250" lon="2.362030">
        <ele>949.52</ele>
        <time>2012-04-30T23:27:40.44Z</time>
      </trkpt>
      <trkpt lat="42.310030" lon="2.361660">
        <ele>950.34</ele>
        <time>2012-05-01T10:23:36.07Z</time>
      </trkpt>
      <trkpt lat="42.309820" lon="2.361350">
        <ele>950.86</ele>
        <time>2012-05-01T20:04:25.47Z</time>
      </trkpt>
      <trkpt lat="42.309590" lon="2.361120">
        <ele>951.43</ele>
        <time>2012-05-02T04:58:51.06Z</time>
      </trkpt>
      <trkpt lat="42.309450" lon="2.361040">
        <ele>951.54</ele>
        <time>2012-05-02T09:42:47.91Z</time>
      </trkpt>
      <trkpt lat="42.309180" lon="2.360940">
        <ele>951.76</ele>
        <time>2012-05-02T18:25:48.01Z</time>
      </trkpt>
      <trkpt lat="42.309040" lon="2.360930">
        <ele>949.64</ele>
        <time>2012-05-02T22:47:43.05Z</time>
      </trkpt>
      <trkpt lat="42.308760" lon="2.360970">
        <ele>942.33</ele>
        <time>2012-05-03T07:33:44.04Z</time>
      </trkpt>
      <trkpt lat="42.308620" lon="2.361020">
        <ele>940.33</ele>
        <time>2012-05-03T12:04:15.34Z</time>
      </trkpt>
      <trkpt lat="42.308350" lon="2.361160">
        <ele>937.28</ele>
        <time>2012-05-03T21:04:29.58Z</time>
      </trkpt>
      <trkpt lat="42.308130" lon="2.361330">
        <ele>935.48</ele>
        <time>2012-05-04T04:57:52.91Z</time>
      </trkpt>
      <trkpt lat="42.308020" lon="2.361560">
        <ele>934.09</ele>
        <time>2012-05-04T11:16:19Z</time>
      </trkpt>
      <trkpt lat="42.307860" lon="2.361750">
        <ele>934.31</ele>
        <time>2012-05-04T17:54:08.36Z</time>
      </trkpt>
      <trkpt lat="42.307790" lon="2.361740">
        <ele>934.14</ele>
        <time>2012-05-04T20:05:38.61Z</time>
      </trkpt>
      <trkpt lat="42.307460" lon="2.361470">
        <ele>932.59</ele>
        <time>2012-05-05T08:06:14.15Z</time>
      </trkpt>
      <trkpt lat="42.307340" lon="2.361340">
        <ele>932.59</ele>
        <time>2012-05-05T12:53:30.06Z</time>
      </trkpt>
      <trkpt lat="42.307210" lon="2.361150">
        <ele>932.07</ele>
        <time>2012-05-05T18:51:07.82Z</time>
      </trkpt>
      <trkpt lat="42.306980" lon="2.361090">
        <ele>932.12</ele>
        <time>2012-05-06T02:08:44.85Z</time>
      </trkpt>
      <trkpt lat="42.306840" lon="2.361030">
        <ele>932.12</ele>
        <time>2012-05-06T06:43:07.40Z</time>
      </trkpt>
      <trkpt lat="42.306300" lon="2.360590">
        <ele>936.29</ele>
        <time>2012-05-07T02:20:58.88Z</time>
      </trkpt>
      <trkpt lat="42.306300" lon="2.360580">
        <ele>936.35</ele>
        <time>2012-05-07T02:37:47.72Z</time>
      </trkpt>
      <trkpt lat="42.305695" lon="2.360085">
        <ele>941.08</ele>
        <time>2012-05-08T00:38:53.44Z</time>
      </trkpt>
      <trkpt lat="42.305090" lon="2.359590">
        <ele>941.17</ele>
        <time>2012-05-08T22:39:59.36Z</time>
      </trkpt>
      <trkpt lat="42.304870" lon="2.359440">
        <ele>941.17</ele>
        <time>2012-05-09T06:20:17.91Z</time>
      </trkpt>
      <trkpt lat="42.304630" lon="2.359350">
        <ele>941.17</ele>
        <time>2012-05-09T14:05:35.96Z</time>
      </trkpt>
      <trkpt lat="42.304530" lon="2.359480">
        <ele>943.85</ele>
        <time>2012-05-09T18:24:45.89Z</time>
      </trkpt>
      <trkpt lat="42.304270" lon="2.359490">
        <ele>940.56</ele>
        <time>2012-05-10T02:30:42.12Z</time>
      </trkpt>
      <trkpt lat="42.303750" lon="2.359345">
        <ele>935.36</ele>
        <time>2012-05-10T19:02:37.64Z</time>
      </trkpt>
      <trkpt lat="42.303230" lon="2.359200">
        <ele>930.03</ele>
        <time>2012-05-11T11:34:33.17Z</time>
      </trkpt>
      <trkpt lat="42.302645" lon="2.359025">
        <ele>933.74</ele>
        <time>2012-05-12T06:13:53.95Z</time>
      </trkpt>
      <trkpt lat="42.302060" lon="2.358850">
        <ele>933.43</ele>
        <time>2012-05-13T00:53:14.75Z</time>
      </trkpt>
      <trkpt lat="42.301960" lon="2.358740">
        <ele>933.43</ele>
        <time>2012-05-13T04:54:05.29Z</time>
      </trkpt>
      <trkpt lat="42.301920" lon="2.358650">
        <ele>933.43</ele>
        <time>2012-05-13T07:19:10.35Z</time>
      </trkpt>
      <trkpt lat="42.301780" lon="2.358440">
        <ele>933.14</ele>
        <time>2012-05-13T13:49:49.44Z</time>
      </trkpt>
      <trkpt lat="42.301420" lon="2.358010">
        <ele>931.82</ele>
        <time>2012-05-14T04:47:14.85Z</time>
      </trkpt>
      <trkpt lat="42.301300" lon="2.357920">
        <ele>930.82</ele>
        <time>2012-05-14T09:03:37.06Z</time>
      </trkpt>
      <trkpt lat="42.301150" lon="2.357860">
        <ele>929.98</ele>
        <time>2012-05-14T13:55:51.55Z</time>
      </trkpt>
      <trkpt lat="42.301000" lon="2.357900">
        <ele>928.90</ele>
        <time>2012-05-14T18:41:29.57Z</time>
      </trkpt>
      <trkpt lat="42.300840" lon="2.357970">
        <ele>928.26</ele>
        <time>2012-05-14T23:55:40.20Z</time>
      </trkpt>
      <trkpt lat="42.300530" lon="2.358240">
        <ele>926.54</ele>
        <time>2012-05-15T11:24:35.29Z</time>
      </trkpt>
      <trkpt lat="42.300400" lon="2.358380">
        <ele>926.30</ele>
        <time>2012-05-15T16:35:05.20Z</time>
      </trkpt>
      <trkpt lat="42.299820" lon="2.358860">
        <ele>922.60</ele>
        <time>2012-05-16T13:45:32.49Z</time>
      </trkpt>
      <trkpt lat="42.299560" lon="2.359130">
        <ele>920.88</ele>
        <time>2012-05-16T23:58:01.66Z</time>
      </trkpt>
      <trkpt lat="42.299045" lon="2.359455">
        <ele>919.50</ele>
        <time>2012-05-17T17:39:49.03Z</time>
      </trkpt>
      <trkpt lat="42.298530" lon="2.359780">
        <ele>918.12</ele>
        <time>2012-05-18T11:21:36.48Z</time>
      </trkpt>
      <trkpt lat="42.298320" lon="2.359990">
        <ele>917.67</ele>
        <time>2012-05-18T19:29:35.62Z</time>
      </trkpt>
      <trkpt lat="42.298310" lon="2.360060">
        <ele>917.63</ele>
        <time>2012-05-18T21:08:06.61Z</time>
      </trkpt>
      <trkpt lat="42.298020" lon="2.360020">
        <ele>917.51</ele>
        <time>2012-05-19T06:12:42.61Z</time>
      </trkpt>
      <trkpt lat="42.297810" lon="2.360070">
        <ele>916.85</ele>
        <time>2012-05-19T12:51:04.59Z</time>
      </trkpt>
      <trkpt lat="42.297650" lon="2.360140">
        <ele>916.75</ele>
        <time>2012-05-19T18:05:15.31Z</time>
      </trkpt>
      <trkpt lat="42.296910" lon="2.360150">
        <ele>916.76</ele>
        <time>2012-05-20T17:07:49.02Z</time>
      </trkpt>
      <trkpt lat="42.296650" lon="2.360140">
        <ele>917.39</ele>
        <time>2012-05-21T01:13:45.25Z</time>
      </trkpt>
      <trkpt lat="42.295975" lon="2.360165">
        <ele>915.41</ele>
        <time>2012-05-21T22:15:17.10Z</time>
      </trkpt>
      <trkpt lat="42.295300" lon="2.360190">
        <ele>911.94</ele>
        <time>2012-05-22T19:16:48.94Z</time>
      </trkpt>
      <trkpt lat="42.295040" lon="2.360270">
        <ele>911.66</ele>
        <time>2012-05-23T03:34:58.69Z</time>
      </trkpt>
      <trkpt lat="42.294750" lon="2.360470">
        <ele>910.98</ele>
        <time>2012-05-23T13:43:11.40Z</time>
      </trkpt>
      <trkpt lat="42.294440" lon="2.360790">
        <ele>911.49</ele>
        <time>2012-05-24T01:51:52.08Z</time>
      </trkpt>
      <trkpt lat="42.294050" lon="2.361010">
        <ele>910.94</ele>
        <time>2012-05-24T15:01:21.88Z</time>
      </trkpt>
      <trkpt lat="42.293770" lon="2.361310">
        <ele>910.75</ele>
        <time>2012-05-25T02:08:50.11Z</time>
      </trkpt>
      <trkpt lat="42.293560" lon="2.361610">
        <ele>910.97</ele>
        <time>2012-05-25T11:39:37.49Z</time>
      </trkpt>
      <trkpt lat="42.293045" lon="2.361940">
        <ele>912.37</ele>
        <time>2012-05-26T05:24:22.41Z</time>
      </trkpt>
      <trkpt lat="42.292530" lon="2.362270">
        <ele>913.37</ele>
        <time>2012-05-26T23:09:07.42Z</time>
      </trkpt>
      <trkpt lat="42.292290" lon="2.362270">
        <ele>913.26</ele>
        <time>2012-05-27T06:37:29.98Z</time>
      </trkpt>
      <trkpt lat="42.291720" lon="2.362460">
        <ele>909.26</ele>
        <time>2012-05-28T00:54:17.25Z</time>
      </trkpt>
      <trkpt lat="42.291340" lon="2.362670">
        <ele>906.83</ele>
        <time>2012-05-28T13:41:14.75Z</time>
      </trkpt>
      <trkpt lat="42.290950" lon="2.362840">
        <ele>903.77</ele>
        <time>2012-05-29T02:26:47.91Z</time>
      </trkpt>
      <trkpt lat="42.290510" lon="2.363060">
        <ele>902.61</ele>
        <time>2012-05-29T17:03:14.84Z</time>
      </trkpt>
      <trkpt lat="42.290380" lon="2.363160">
        <ele>901.85</ele>
        <time>2012-05-29T21:42:41.12Z</time>
      </trkpt>
      <trkpt lat="42.289810" lon="2.363480">
        <ele>902.10</ele>
        <time>2012-05-30T16:55:45.55Z</time>
      </trkpt>
      <trkpt lat="42.289630" lon="2.363630">
        <ele>901.92</ele>
        <time>2012-05-30T23:30:48.26Z</time>
      </trkpt>
      <trkpt lat="42.289460" lon="2.363820">
        <ele>901.16</ele>
        <time>2012-05-31T06:22:53.88Z</time>
      </trkpt>
      <trkpt lat="42.289020" lon="2.364390">
        <ele>899.26</ele>
        <time>2012-06-01T01:21:26.75Z</time>
      </trkpt>
      <trkpt lat="42.288690" lon="2.364910">
        <ele>898.68</ele>
        <time>2012-06-01T17:08:19.26Z</time>
      </trkpt>
      <trkpt lat="42.288520" lon="2.365200">
        <ele>898.46</ele>
        <time>2012-06-02T01:39:41.89Z</time>
      </trkpt>
      <trkpt lat="42.288140" lon="2.365920">
        <ele>897.53</ele>
        <time>2012-06-02T22:02:04.10Z</time>
      </trkpt>
      <trkpt lat="42.287750" lon="2.366690">
        <ele>896.80</ele>
        <time>2012-06-03T19:31:47.35Z</time>
      </trkpt>
      <trkpt lat="42.287270" lon="2.367570">
        <ele>893.32</ele>
        <time>2012-06-04T20:42:52.40Z</time>
      </trkpt>
      <trkpt lat="42.287240" lon="2.367860">
        <ele>892.70</ele>
        <time>2012-06-05T03:27:34.63Z</time>
      </trkpt>
      <trkpt lat="42.287190" lon="2.368000">
        <ele>893.01</ele>
        <time>2012-06-05T07:02:26.23Z</time>
      </trkpt>
      <trkpt lat="42.286980" lon="2.368340">
        <ele>897.98</ele>
        <time>2012-06-05T17:14:35.69Z</time>
      </trkpt>
      <trkpt lat="42.286980" lon="2.368440">
        <ele>898.49</ele>
        <time>2012-06-05T19:32:48.23Z</time>
      </trkpt>
      <trkpt lat="42.287080" lon="2.368490">
        <ele>898.86</ele>
        <time>2012-06-05T22:51:59.89Z</time>
      </trkpt>
      <trkpt lat="42.287180" lon="2.368630">
        <ele>899.90</ele>
        <time>2012-06-06T03:20:57.78Z</time>
      </trkpt>
      <trkpt lat="42.287210" lon="2.368710">
        <ele>899.90</ele>
        <time>2012-06-06T05:24:55.43Z</time>
      </trkpt>
      <trkpt lat="42.287190" lon="2.368810">
        <ele>900.48</ele>
        <time>2012-06-06T07:48:05.64Z</time>
      </trkpt>
      <trkpt lat="42.287130" lon="2.368900">
        <ele>900.78</ele>
        <time>2012-06-06T10:35:32.26Z</time>
      </trkpt>
      <trkpt lat="42.286970" lon="2.368960">
        <ele>900.94</ele>
        <time>2012-06-06T15:45:44.66Z</time>
      </trkpt>
      <trkpt lat="42.286660" lon="2.369800">
        <ele>899.61</ele>
        <time>2012-06-07T13:23:08.52Z</time>
      </trkpt>
      <trkpt lat="42.286570" lon="2.369970">
        <ele>899.06</ele>
        <time>2012-06-07T18:12:03.85Z</time>
      </trkpt>
      <trkpt lat="42.286130" lon="2.370510">
        <ele>897.30</ele>
        <time>2012-06-08T12:42:21.10Z</time>
      </trkpt>
      <trkpt lat="42.286090" lon="2.370590">
        <ele>897.30</ele>
        <time>2012-06-08T14:55:48.32Z</time>
      </trkpt>
      <trkpt lat="42.286070" lon="2.370700">
        <ele>897.04</ele>
        <time>2012-06-08T17:32:21.69Z</time>
      </trkpt>
      <trkpt lat="42.286040" lon="2.371050">
        <ele>896.97</ele>
        <time>2012-06-09T01:39:20.16Z</time>
      </trkpt>
      <trkpt lat="42.285930" lon="2.371310">
        <ele>896.62</ele>
        <time>2012-06-09T08:33:17.85Z</time>
      </trkpt>
      <trkpt lat="42.285730" lon="2.371570">
        <ele>896.83</ele>
        <time>2012-06-09T17:11:42.17Z</time>
      </trkpt>
      <trkpt lat="42.285580" lon="2.371710">
        <ele>898.15</ele>
        <time>2012-06-09T22:52:15.02Z</time>
      </trkpt>
      <trkpt lat="42.285150" lon="2.372190">
        <ele>902.27</ele>
        <time>2012-06-10T16:14:06.89Z</time>
      </trkpt>
      <trkpt lat="42.284690" lon="2.372510">
        <ele>905.72</ele>
        <time>2012-06-11T08:20:38.09Z</time>
      </trkpt>
      <trkpt lat="42.284590" lon="2.372620">
        <ele>907.23</ele>
        <time>2012-06-11T12:21:30.22Z</time>
      </trkpt>
      <trkpt lat="42.284530" lon="2.372700">
        <ele>907.23</ele>
        <time>2012-06-11T14:58:57.33Z</time>
      </trkpt>
      <trkpt lat="42.284400" lon="2.373050">
        <ele>909.39</ele>
        <time>2012-06-12T00:00:15.05Z</time>
      </trkpt>
      <trkpt lat="42.284330" lon="2.373400">
        <ele>911.18</ele>
        <time>2012-06-12T08:21:22.04Z</time>
      </trkpt>
      <trkpt lat="42.284300" lon="2.373610">
        <ele>911.55</ele>
        <time>2012-06-12T13:16:58.81Z</time>
      </trkpt>
      <trkpt lat="42.284260" lon="2.374200">
        <ele>912.06</ele>
        <time>2012-06-13T02:55:51.88Z</time>
      </trkpt>
      <trkpt lat="42.284290" lon="2.374460">
        <ele>912.46</ele>
        <time>2012-06-13T08:59:34.06Z</time>
      </trkpt>
      <trkpt lat="42.284250" lon="2.374740">
        <ele>913.32</ele>
        <time>2012-06-13T15:33:43.10Z</time>
      </trkpt>
      <trkpt lat="42.284190" lon="2.374900">
        <ele>913.32</ele>
        <time>2012-06-13T19:41:38.95Z</time>
      </trkpt>
      <trkpt lat="42.284130" lon="2.375010">
        <ele>913.90</ele>
        <time>2012-06-13T22:50:32.48Z</time>
      </trkpt>
      <trkpt lat="42.284080" lon="2.375030">
        <ele>914.48</ele>
        <time>2012-06-14T00:27:57.44Z</time>
      </trkpt>
      <trkpt lat="42.284030" lon="2.375010">
        <ele>914.48</ele>
        <time>2012-06-14T02:05:22.40Z</time>
      </trkpt>
      <trkpt lat="42.283950" lon="2.374930">
        <ele>915.23</ele>
        <time>2012-06-14T05:11:17.26Z</time>
      </trkpt>
      <trkpt lat="42.283830" lon="2.374610">
        <ele>917.40</ele>
        <time>2012-06-14T13:27:09.09Z</time>
      </trkpt>
      <trkpt lat="42.283770" lon="2.374570">
        <ele>918.03</ele>
        <time>2012-06-14T15:32:08.28Z</time>
      </trkpt>
      <trkpt lat="42.283730" lon="2.374660">
        <ele>920.03</ele>
        <time>2012-06-14T17:57:15.20Z</time>
      </trkpt>
      <trkpt lat="42.283730" lon="2.374690">
        <ele>920.03</ele>
        <time>2012-06-14T18:38:43.09Z</time>
      </trkpt>
      <trkpt lat="42.283730" lon="2.374680">
        <ele>920.07</ele>
        <time>2012-06-14T18:55:31.94Z</time>
      </trkpt>
      <trkpt lat="42.283740" lon="2.374900">
        <ele>921.96</ele>
        <time>2012-06-15T00:00:10.86Z</time>
      </trkpt>
      <trkpt lat="42.283770" lon="2.375020">
        <ele>922.40</ele>
        <time>2012-06-15T02:55:15.23Z</time>
      </trkpt>
      <trkpt lat="42.283736" lon="2.374839">
        <ele>801.00</ele>
        <time>2012-06-15T07:13:21.78Z</time>
      </trkpt>
      <trkpt lat="42.283747" lon="2.374888">
        <ele>801.00</ele>
        <time>2012-06-15T08:24:08.29Z</time>
      </trkpt>
      <trkpt lat="42.283754" lon="2.374932">
        <ele>801.80</ele>
        <time>2012-06-15T09:26:20.60Z</time>
      </trkpt>
      <trkpt lat="42.283773" lon="2.375088">
        <ele>802.20</ele>
        <time>2012-06-15T13:04:51.75Z</time>
      </trkpt>
      <trkpt lat="42.283775" lon="2.375148">
        <ele>802.60</ele>
        <time>2012-06-15T14:27:52.58Z</time>
      </trkpt>
      <trkpt lat="42.283785" lon="2.375201">
        <ele>803.00</ele>
        <time>2012-06-15T15:43:28.53Z</time>
      </trkpt>
      <trkpt lat="42.283799" lon="2.375249">
        <ele>803.60</ele>
        <time>2012-06-15T16:54:47.33Z</time>
      </trkpt>
      <trkpt lat="42.283836" lon="2.375344">
        <ele>804.00</ele>
        <time>2012-06-15T19:23:10.65Z</time>
      </trkpt>
      <trkpt lat="42.283887" lon="2.375483">
        <ele>804.00</ele>
        <time>2012-06-15T22:57:37.59Z</time>
      </trkpt>
      <trkpt lat="42.283903" lon="2.375533">
        <ele>804.40</ele>
        <time>2012-06-16T00:12:55.32Z</time>
      </trkpt>
      <trkpt lat="42.283916" lon="2.375579">
        <ele>804.80</ele>
        <time>2012-06-16T01:20:58.92Z</time>
      </trkpt>
      <trkpt lat="42.283929" lon="2.375627">
        <ele>805.40</ele>
        <time>2012-06-16T02:31:37.88Z</time>
      </trkpt>
      <trkpt lat="42.283946" lon="2.375669">
        <ele>805.80</ele>
        <time>2012-06-16T03:37:48.12Z</time>
      </trkpt>
      <trkpt lat="42.283963" lon="2.375713">
        <ele>806.40</ele>
        <time>2012-06-16T04:46:24.64Z</time>
      </trkpt>
      <trkpt lat="42.283972" lon="2.375762">
        <ele>806.40</ele>
        <time>2012-06-16T05:56:11.53Z</time>
      </trkpt>
      <trkpt lat="42.283981" lon="2.375865">
        <ele>806.80</ele>
        <time>2012-06-16T08:19:32.62Z</time>
      </trkpt>
      <trkpt lat="42.283987" lon="2.375917">
        <ele>807.20</ele>
        <time>2012-06-16T09:32:17.08Z</time>
      </trkpt>
      <trkpt lat="42.283998" lon="2.375966">
        <ele>807.60</ele>
        <time>2012-06-16T10:43:03.57Z</time>
      </trkpt>
      <trkpt lat="42.284006" lon="2.376015">
        <ele>808.00</ele>
        <time>2012-06-16T11:52:24.88Z</time>
      </trkpt>
      <trkpt lat="42.284017" lon="2.376066">
        <ele>808.40</ele>
        <time>2012-06-16T13:05:50.34Z</time>
      </trkpt>
      <trkpt lat="42.284054" lon="2.376210">
        <ele>808.80</ele>
        <time>2012-06-16T16:36:31.88Z</time>
      </trkpt>
      <trkpt lat="42.284075" lon="2.376253">
        <ele>809.20</ele>
        <time>2012-06-16T17:47:44.72Z</time>
      </trkpt>
      <trkpt lat="42.284095" lon="2.376292">
        <ele>809.60</ele>
        <time>2012-06-16T18:53:19.99Z</time>
      </trkpt>
      <trkpt lat="42.284121" lon="2.376334">
        <ele>810.00</ele>
        <time>2012-06-16T20:09:01.51Z</time>
      </trkpt>
      <trkpt lat="42.284145" lon="2.376380">
        <ele>810.40</ele>
        <time>2012-06-16T21:26:49.46Z</time>
      </trkpt>
      <trkpt lat="42.284172" lon="2.376427">
        <ele>810.40</ele>
        <time>2012-06-16T22:49:04.21Z</time>
      </trkpt>
      <trkpt lat="42.284251" lon="2.376620">
        <ele>810.80</ele>
        <time>2012-06-17T03:53:55.96Z</time>
      </trkpt>
      <trkpt lat="42.284270" lon="2.376663">
        <ele>811.40</ele>
        <time>2012-06-17T05:03:09.50Z</time>
      </trkpt>
      <trkpt lat="42.284281" lon="2.376709">
        <ele>811.80</ele>
        <time>2012-06-17T06:09:58.56Z</time>
      </trkpt>
      <trkpt lat="42.284296" lon="2.376750">
        <ele>812.20</ele>
        <time>2012-06-17T07:13:11.67Z</time>
      </trkpt>
      <trkpt lat="42.284308" lon="2.376789">
        <ele>812.60</ele>
        <time>2012-06-17T08:11:34.47Z</time>
      </trkpt>
      <trkpt lat="42.284343" lon="2.376890">
        <ele>812.60</ele>
        <time>2012-06-17T10:45:43.60Z</time>
      </trkpt>
      <trkpt lat="42.284374" lon="2.376921">
        <ele>812.60</ele>
        <time>2012-06-17T11:57:46.10Z</time>
      </trkpt>
      <trkpt lat="42.284401" lon="2.376950">
        <ele>814.60</ele>
        <time>2012-06-17T13:02:11.81Z</time>
      </trkpt>
      <trkpt lat="42.284427" lon="2.376978">
        <ele>814.60</ele>
        <time>2012-06-17T14:04:18.16Z</time>
      </trkpt>
      <trkpt lat="42.284500" lon="2.377084">
        <ele>814.60</ele>
        <time>2012-06-17T17:24:27.78Z</time>
      </trkpt>
      <trkpt lat="42.284538" lon="2.377206">
        <ele>814.60</ele>
        <time>2012-06-17T20:27:25.19Z</time>
      </trkpt>
      <trkpt lat="42.284554" lon="2.377260">
        <ele>814.60</ele>
        <time>2012-06-17T21:47:49.13Z</time>
      </trkpt>
      <trkpt lat="42.284581" lon="2.377371">
        <ele>814.60</ele>
        <time>2012-06-18T00:29:18.98Z</time>
      </trkpt>
      <trkpt lat="42.284603" lon="2.377422">
        <ele>814.60</ele>
        <time>2012-06-18T01:50:54.79Z</time>
      </trkpt>
      <trkpt lat="42.284644" lon="2.377529">
        <ele>814.60</ele>
        <time>2012-06-18T04:37:27.69Z</time>
      </trkpt>
      <trkpt lat="42.284666" lon="2.377584">
        <ele>814.60</ele>
        <time>2012-06-18T06:03:52.74Z</time>
      </trkpt>
      <trkpt lat="42.284708" lon="2.377696">
        <ele>815.00</ele>
        <time>2012-06-18T08:57:25.78Z</time>
      </trkpt>
      <trkpt lat="42.284726" lon="2.377754">
        <ele>815.60</ele>
        <time>2012-06-18T10:24:21.68Z</time>
      </trkpt>
      <trkpt lat="42.284742" lon="2.377813">
        <ele>816.20</ele>
        <time>2012-06-18T11:51:12.81Z</time>
      </trkpt>
      <trkpt lat="42.284755" lon="2.377868">
        <ele>816.60</ele>
        <time>2012-06-18T13:11:01Z</time>
      </trkpt>
      <trkpt lat="42.284765" lon="2.377924">
        <ele>817.20</ele>
        <time>2012-06-18T14:30:38.35Z</time>
      </trkpt>
      <trkpt lat="42.284788" lon="2.378030">
        <ele>817.20</ele>
        <time>2012-06-18T17:03:19.03Z</time>
      </trkpt>
      <trkpt lat="42.284825" lon="2.378147">
        <ele>817.60</ele>
        <time>2012-06-18T19:59:10.90Z</time>
      </trkpt>
      <trkpt lat="42.284848" lon="2.378203">
        <ele>818.20</ele>
        <time>2012-06-18T21:27:42.53Z</time>
      </trkpt>
      <trkpt lat="42.284867" lon="2.378261">
        <ele>818.80</ele>
        <time>2012-06-18T22:55:22.81Z</time>
      </trkpt>
      <trkpt lat="42.284890" lon="2.378321">
        <ele>819.20</ele>
        <time>2012-06-19T00:28:46.77Z</time>
      </trkpt>
      <trkpt lat="42.284908" lon="2.378382">
        <ele>819.80</ele>
        <time>2012-06-19T01:59:32.93Z</time>
      </trkpt>
      <trkpt lat="42.284940" lon="2.378511">
        <ele>819.80</ele>
        <time>2012-06-19T05:07:36.01Z</time>
      </trkpt>
      <trkpt lat="42.284983" lon="2.378626">
        <ele>819.80</ele>
        <time>2012-06-19T08:05:41.60Z</time>
      </trkpt>
      <trkpt lat="42.285005" lon="2.378674">
        <ele>820.20</ele>
        <time>2012-06-19T09:23:44.14Z</time>
      </trkpt>
      <trkpt lat="42.285031" lon="2.378728">
        <ele>820.60</ele>
        <time>2012-06-19T10:52:47.12Z</time>
      </trkpt>
      <trkpt lat="42.285045" lon="2.378777">
        <ele>821.00</ele>
        <time>2012-06-19T12:05:23.10Z</time>
      </trkpt>
      <trkpt lat="42.285062" lon="2.378827">
        <ele>821.40</ele>
        <time>2012-06-19T13:21:26.42Z</time>
      </trkpt>
      <trkpt lat="42.285077" lon="2.378876">
        <ele>821.80</ele>
        <time>2012-06-19T14:34:44.02Z</time>
      </trkpt>
      <trkpt lat="42.285102" lon="2.378933">
        <ele>822.20</ele>
        <time>2012-06-19T16:06:19.16Z</time>
      </trkpt>
      <trkpt lat="42.285127" lon="2.378989">
        <ele>822.60</ele>
        <time>2012-06-19T17:36:43.14Z</time>
      </trkpt>
      <trkpt lat="42.285152" lon="2.379047">
        <ele>823.20</ele>
        <time>2012-06-19T19:09:29.78Z</time>
      </trkpt>
      <trkpt lat="42.285166" lon="2.379107">
        <ele>823.60</ele>
        <time>2012-06-19T20:36:27.05Z</time>
      </trkpt>
      <trkpt lat="42.285179" lon="2.379170">
        <ele>824.00</ele>
        <time>2012-06-19T22:06:50.92Z</time>
      </trkpt>
      <trkpt lat="42.285181" lon="2.379441">
        <ele>824.00</ele>
        <time>2012-06-20T04:21:25.45Z</time>
      </trkpt>
      <trkpt lat="42.285181" lon="2.379506">
        <ele>824.00</ele>
        <time>2012-06-20T05:51:15.76Z</time>
      </trkpt>
      <trkpt lat="42.285193" lon="2.379696">
        <ele>824.40</ele>
        <time>2012-06-20T10:14:49.33Z</time>
      </trkpt>
      <trkpt lat="42.285203" lon="2.379763">
        <ele>825.00</ele>
        <time>2012-06-20T11:49:17.44Z</time>
      </trkpt>
      <trkpt lat="42.285217" lon="2.379815">
        <ele>825.40</ele>
        <time>2012-06-20T13:05:46.35Z</time>
      </trkpt>
      <trkpt lat="42.285225" lon="2.379881">
        <ele>825.80</ele>
        <time>2012-06-20T14:38:12.56Z</time>
      </trkpt>
      <trkpt lat="42.285236" lon="2.379944">
        <ele>826.40</ele>
        <time>2012-06-20T16:07:40.53Z</time>
      </trkpt>
      <trkpt lat="42.285272" lon="2.380194">
        <ele>827.20</ele>
        <time>2012-06-20T21:59:41.52Z</time>
      </trkpt>
      <trkpt lat="42.285300" lon="2.380250">
        <ele>827.60</ele>
        <time>2012-06-20T23:33:06.63Z</time>
      </trkpt>
      <trkpt lat="42.285318" lon="2.380302">
        <ele>828.00</ele>
        <time>2012-06-21T00:52:27.56Z</time>
      </trkpt>
      <trkpt lat="42.285341" lon="2.380352">
        <ele>828.60</ele>
        <time>2012-06-21T02:13:50.12Z</time>
      </trkpt>
      <trkpt lat="42.285403" lon="2.380437">
        <ele>828.60</ele>
        <time>2012-06-21T04:58:48.91Z</time>
      </trkpt>
      <trkpt lat="42.285419" lon="2.380480">
        <ele>829.00</ele>
        <time>2012-06-21T06:05:20.42Z</time>
      </trkpt>
      <trkpt lat="42.285414" lon="2.380526">
        <ele>829.40</ele>
        <time>2012-06-21T07:09:36.04Z</time>
      </trkpt>
      <trkpt lat="42.285431" lon="2.380576">
        <ele>830.00</ele>
        <time>2012-06-21T08:25:39.34Z</time>
      </trkpt>
      <trkpt lat="42.285458" lon="2.380616">
        <ele>830.40</ele>
        <time>2012-06-21T09:40:29.67Z</time>
      </trkpt>
      <trkpt lat="42.285484" lon="2.380658">
        <ele>830.80</ele>
        <time>2012-06-21T10:56:11.13Z</time>
      </trkpt>
      <trkpt lat="42.285511" lon="2.380696">
        <ele>831.40</ele>
        <time>2012-06-21T12:09:00.37Z</time>
      </trkpt>
      <trkpt lat="42.285516" lon="2.380729">
        <ele>832.00</ele>
        <time>2012-06-21T12:55:33.77Z</time>
      </trkpt>
      <trkpt lat="42.285536" lon="2.380754">
        <ele>832.60</ele>
        <time>2012-06-21T13:46:27.31Z</time>
      </trkpt>
      <trkpt lat="42.285555" lon="2.380782">
        <ele>833.00</ele>
        <time>2012-06-21T14:38:58.11Z</time>
      </trkpt>
      <trkpt lat="42.285572" lon="2.380815">
        <ele>833.60</ele>
        <time>2012-06-21T15:34:32.81Z</time>
      </trkpt>
      <trkpt lat="42.285589" lon="2.380850">
        <ele>834.40</ele>
        <time>2012-06-21T16:32:24.92Z</time>
      </trkpt>
      <trkpt lat="42.285606" lon="2.380884">
        <ele>835.00</ele>
        <time>2012-06-21T17:29:08.01Z</time>
      </trkpt>
      <trkpt lat="42.285624" lon="2.380920">
        <ele>835.60</ele>
        <time>2012-06-21T18:29:11.28Z</time>
      </trkpt>
      <trkpt lat="42.285639" lon="2.380950">
        <ele>836.20</ele>
        <time>2012-06-21T19:19:14.01Z</time>
      </trkpt>
      <trkpt lat="42.285681" lon="2.381016">
        <ele>836.20</ele>
        <time>2012-06-21T21:19:33.47Z</time>
      </trkpt>
      <trkpt lat="42.285724" lon="2.381092">
        <ele>836.60</ele>
        <time>2012-06-21T23:31:47.80Z</time>
      </trkpt>
      <trkpt lat="42.285740" lon="2.381135">
        <ele>837.20</ele>
        <time>2012-06-22T00:38:19.30Z</time>
      </trkpt>
      <trkpt lat="42.285753" lon="2.381176">
        <ele>837.80</ele>
        <time>2012-06-22T01:39:58.43Z</time>
      </trkpt>
      <trkpt lat="42.285770" lon="2.381213">
        <ele>838.20</ele>
        <time>2012-06-22T02:40:10.32Z</time>
      </trkpt>
      <trkpt lat="42.285786" lon="2.381250">
        <ele>838.80</ele>
        <time>2012-06-22T03:39:24.34Z</time>
      </trkpt>
      <trkpt lat="42.285795" lon="2.381292">
        <ele>839.20</ele>
        <time>2012-06-22T04:39:50.44Z</time>
      </trkpt>
      <trkpt lat="42.285812" lon="2.381331">
        <ele>839.60</ele>
        <time>2012-06-22T05:42:24.24Z</time>
      </trkpt>
      <trkpt lat="42.285826" lon="2.381367">
        <ele>840.20</ele>
        <time>2012-06-22T06:38:36.95Z</time>
      </trkpt>
      <trkpt lat="42.285837" lon="2.381410">
        <ele>840.60</ele>
        <time>2012-06-22T07:41:29.97Z</time>
      </trkpt>
      <trkpt lat="42.285849" lon="2.381448">
        <ele>841.00</ele>
        <time>2012-06-22T08:38:36.28Z</time>
      </trkpt>
      <trkpt lat="42.285856" lon="2.381489">
        <ele>841.60</ele>
        <time>2012-06-22T09:36:45.64Z</time>
      </trkpt>
      <trkpt lat="42.285865" lon="2.381527">
        <ele>842.00</ele>
        <time>2012-06-22T10:31:54.41Z</time>
      </trkpt>
      <trkpt lat="42.285876" lon="2.381569">
        <ele>842.40</ele>
        <time>2012-06-22T11:33:29.16Z</time>
      </trkpt>
      <trkpt lat="42.285888" lon="2.381611">
        <ele>842.80</ele>
        <time>2012-06-22T12:35:42.81Z</time>
      </trkpt>
      <trkpt lat="42.285900" lon="2.381649">
        <ele>843.20</ele>
        <time>2012-06-22T13:32:49.11Z</time>
      </trkpt>
      <trkpt lat="42.285909" lon="2.381690">
        <ele>843.20</ele>
        <time>2012-06-22T14:31:55.62Z</time>
      </trkpt>
      <trkpt lat="42.285932" lon="2.381813">
        <ele>843.80</ele>
        <time>2012-06-22T17:27:16.40Z</time>
      </trkpt>
      <trkpt lat="42.285947" lon="2.381852">
        <ele>844.20</ele>
        <time>2012-06-22T18:28:01.51Z</time>
      </trkpt>
      <trkpt lat="42.285961" lon="2.381887">
        <ele>844.60</ele>
        <time>2012-06-22T19:23:01.04Z</time>
      </trkpt>
      <trkpt lat="42.285974" lon="2.381921">
        <ele>845.00</ele>
        <time>2012-06-22T20:15:54.85Z</time>
      </trkpt>
      <trkpt lat="42.285986" lon="2.381958">
        <ele>845.40</ele>
        <time>2012-06-22T21:11:45.04Z</time>
      </trkpt>
      <trkpt lat="42.286010" lon="2.382032">
        <ele>845.80</ele>
        <time>2012-06-22T23:03:25.41Z</time>
      </trkpt>
      <trkpt lat="42.286011" lon="2.382071">
        <ele>846.40</ele>
        <time>2012-06-22T23:57:21.49Z</time>
      </trkpt>
      <trkpt lat="42.286011" lon="2.382105">
        <ele>846.80</ele>
        <time>2012-06-23T00:44:21Z</time>
      </trkpt>
      <trkpt lat="42.286012" lon="2.382144">
        <ele>847.40</ele>
        <time>2012-06-23T01:38:17.08Z</time>
      </trkpt>
      <trkpt lat="42.286019" lon="2.382188">
        <ele>847.80</ele>
        <time>2012-06-23T02:40:29.27Z</time>
      </trkpt>
      <trkpt lat="42.286029" lon="2.382230">
        <ele>848.20</ele>
        <time>2012-06-23T03:41:28.12Z</time>
      </trkpt>
      <trkpt lat="42.286037" lon="2.382270">
        <ele>848.60</ele>
        <time>2012-06-23T04:38:44.26Z</time>
      </trkpt>
      <trkpt lat="42.286042" lon="2.382308">
        <ele>849.00</ele>
        <time>2012-06-23T05:32:04.93Z</time>
      </trkpt>
      <trkpt lat="42.286051" lon="2.382347">
        <ele>849.40</ele>
        <time>2012-06-23T06:28:32.76Z</time>
      </trkpt>
      <trkpt lat="42.286056" lon="2.382390">
        <ele>849.80</ele>
        <time>2012-06-23T07:28:42.38Z</time>
      </trkpt>
      <trkpt lat="42.286071" lon="2.382469">
        <ele>850.20</ele>
        <time>2012-06-23T09:21:25.91Z</time>
      </trkpt>
      <trkpt lat="42.286071" lon="2.382513">
        <ele>850.60</ele>
        <time>2012-06-23T10:22:14.68Z</time>
      </trkpt>
      <trkpt lat="42.286072" lon="2.382556">
        <ele>851.00</ele>
        <time>2012-06-23T11:21:42.28Z</time>
      </trkpt>
      <trkpt lat="42.286071" lon="2.382603">
        <ele>851.60</ele>
        <time>2012-06-23T12:26:41.44Z</time>
      </trkpt>
      <trkpt lat="42.286070" lon="2.382645">
        <ele>852.00</ele>
        <time>2012-06-23T13:24:46.16Z</time>
      </trkpt>
      <trkpt lat="42.286069" lon="2.382723">
        <ele>852.40</ele>
        <time>2012-06-23T15:12:35.40Z</time>
      </trkpt>
      <trkpt lat="42.286065" lon="2.382765">
        <ele>852.80</ele>
        <time>2012-06-23T16:11:07.06Z</time>
      </trkpt>
      <trkpt lat="42.286068" lon="2.382805">
        <ele>853.40</ele>
        <time>2012-06-23T17:06:41.13Z</time>
      </trkpt>
      <trkpt lat="42.286068" lon="2.382846">
        <ele>853.80</ele>
        <time>2012-06-23T18:03:21.12Z</time>
      </trkpt>
      <trkpt lat="42.286068" lon="2.382882">
        <ele>854.20</ele>
        <time>2012-06-23T18:53:06.47Z</time>
      </trkpt>
      <trkpt lat="42.286059" lon="2.382924">
        <ele>854.60</ele>
        <time>2012-06-23T19:53:32.55Z</time>
      </trkpt>
      <trkpt lat="42.286055" lon="2.382961">
        <ele>855.20</ele>
        <time>2012-06-23T20:45:13.43Z</time>
      </trkpt>
      <trkpt lat="42.286060" lon="2.383004">
        <ele>855.60</ele>
        <time>2012-06-23T21:45:23.05Z</time>
      </trkpt>
      <trkpt lat="42.286060" lon="2.383046">
        <ele>856.00</ele>
        <time>2012-06-23T22:43:25.96Z</time>
      </trkpt>
      <trkpt lat="42.286063" lon="2.383091">
        <ele>856.40</ele>
        <time>2012-06-23T23:45:52.78Z</time>
      </trkpt>
      <trkpt lat="42.286068" lon="2.383122">
        <ele>857.00</ele>
        <time>2012-06-24T00:29:43.89Z</time>
      </trkpt>
      <trkpt lat="42.286072" lon="2.383149">
        <ele>857.40</ele>
        <time>2012-06-24T01:07:47.36Z</time>
      </trkpt>
      <trkpt lat="42.286074" lon="2.383183">
        <ele>857.80</ele>
        <time>2012-06-24T01:54:55.76Z</time>
      </trkpt>
      <trkpt lat="42.286074" lon="2.383206">
        <ele>858.20</ele>
        <time>2012-06-24T02:26:43.07Z</time>
      </trkpt>
      <trkpt lat="42.286068" lon="2.383240">
        <ele>858.60</ele>
        <time>2012-06-24T03:15:01.68Z</time>
      </trkpt>
      <trkpt lat="42.286056" lon="2.383290">
        <ele>859.00</ele>
        <time>2012-06-24T04:27:40.74Z</time>
      </trkpt>
      <trkpt lat="42.286040" lon="2.383337">
        <ele>859.60</ele>
        <time>2012-06-24T05:39:11.14Z</time>
      </trkpt>
      <trkpt lat="42.286030" lon="2.383368">
        <ele>860.00</ele>
        <time>2012-06-24T06:25:55.63Z</time>
      </trkpt>
      <trkpt lat="42.286020" lon="2.383407">
        <ele>860.40</ele>
        <time>2012-06-24T07:22:58.51Z</time>
      </trkpt>
      <trkpt lat="42.286011" lon="2.383438">
        <ele>860.80</ele>
        <time>2012-06-24T08:09:00.11Z</time>
      </trkpt>
      <trkpt lat="42.285971" lon="2.383567">
        <ele>861.40</ele>
        <time>2012-06-24T11:22:19.31Z</time>
      </trkpt>
      <trkpt lat="42.285967" lon="2.383596">
        <ele>861.80</ele>
        <time>2012-06-24T12:03:05.62Z</time>
      </trkpt>
      <trkpt lat="42.285960" lon="2.383632">
        <ele>862.20</ele>
        <time>2012-06-24T12:54:32.38Z</time>
      </trkpt>
      <trkpt lat="42.285958" lon="2.383673">
        <ele>862.60</ele>
        <time>2012-06-24T13:51:19.76Z</time>
      </trkpt>
      <trkpt lat="42.285956" lon="2.383716">
        <ele>863.20</ele>
        <time>2012-06-24T14:50:52.65Z</time>
      </trkpt>
      <trkpt lat="42.285942" lon="2.383781">
        <ele>863.60</ele>
        <time>2012-06-24T16:24:26.68Z</time>
      </trkpt>
      <trkpt lat="42.285934" lon="2.383811">
        <ele>864.00</ele>
        <time>2012-06-24T17:08:31.17Z</time>
      </trkpt>
      <trkpt lat="42.285936" lon="2.383850">
        <ele>864.60</ele>
        <time>2012-06-24T18:02:33.08Z</time>
      </trkpt>
      <trkpt lat="42.285936" lon="2.383890">
        <ele>865.00</ele>
        <time>2012-06-24T18:57:50.14Z</time>
      </trkpt>
      <trkpt lat="42.285937" lon="2.383932">
        <ele>865.60</ele>
        <time>2012-06-24T19:55:54.87Z</time>
      </trkpt>
      <trkpt lat="42.285900" lon="2.384083">
        <ele>865.60</ele>
        <time>2012-06-24T23:35:45.80Z</time>
      </trkpt>
      <trkpt lat="42.285908" lon="2.384316">
        <ele>866.00</ele>
        <time>2012-06-25T04:58:08.53Z</time>
      </trkpt>
      <trkpt lat="42.285910" lon="2.384370">
        <ele>866.40</ele>
        <time>2012-06-25T06:12:52.19Z</time>
      </trkpt>
      <trkpt lat="42.285915" lon="2.384411">
        <ele>866.80</ele>
        <time>2012-06-25T07:10:18.07Z</time>
      </trkpt>
      <trkpt lat="42.285916" lon="2.384460">
        <ele>867.20</ele>
        <time>2012-06-25T08:18:03.03Z</time>
      </trkpt>
      <trkpt lat="42.285915" lon="2.384516">
        <ele>867.60</ele>
        <time>2012-06-25T09:35:28.28Z</time>
      </trkpt>
      <trkpt lat="42.285936" lon="2.384710">
        <ele>868.00</ele>
        <time>2012-06-25T14:06:27.37Z</time>
      </trkpt>
      <trkpt lat="42.285943" lon="2.384771">
        <ele>868.60</ele>
        <time>2012-06-25T15:31:46.40Z</time>
      </trkpt>
      <trkpt lat="42.285960" lon="2.384828">
        <ele>869.00</ele>
        <time>2012-06-25T16:56:42.88Z</time>
      </trkpt>
      <trkpt lat="42.285955" lon="2.384875">
        <ele>869.40</ele>
        <time>2012-06-25T18:02:20.53Z</time>
      </trkpt>
      <trkpt lat="42.285949" lon="2.384918">
        <ele>869.80</ele>
        <time>2012-06-25T19:02:49.25Z</time>
      </trkpt>
      <trkpt lat="42.285936" lon="2.385072">
        <ele>869.80</ele>
        <time>2012-06-25T22:37:02.83Z</time>
      </trkpt>
      <trkpt lat="42.285958" lon="2.385328">
        <ele>869.80</ele>
        <time>2012-06-26T04:33:14.83Z</time>
      </trkpt>
      <trkpt lat="42.285959" lon="2.385438">
        <ele>870.80</ele>
        <time>2012-06-26T07:05:17.45Z</time>
      </trkpt>
      <trkpt lat="42.285944" lon="2.385487">
        <ele>871.20</ele>
        <time>2012-06-26T08:18:35Z</time>
      </trkpt>
      <trkpt lat="42.285918" lon="2.385535">
        <ele>871.60</ele>
        <time>2012-06-26T09:40:48.38Z</time>
      </trkpt>
      <trkpt lat="42.285888" lon="2.385578">
        <ele>872.20</ele>
        <time>2012-06-26T11:02:29.79Z</time>
      </trkpt>
      <trkpt lat="42.285854" lon="2.385635">
        <ele>872.20</ele>
        <time>2012-06-26T12:43:41.71Z</time>
      </trkpt>
      <trkpt lat="42.285850" lon="2.385702">
        <ele>872.60</ele>
        <time>2012-06-26T14:16:35.87Z</time>
      </trkpt>
      <trkpt lat="42.285848" lon="2.385757">
        <ele>873.00</ele>
        <time>2012-06-26T15:32:42.35Z</time>
      </trkpt>
      <trkpt lat="42.285835" lon="2.385807">
        <ele>873.40</ele>
        <time>2012-06-26T16:45:57.31Z</time>
      </trkpt>
      <trkpt lat="42.285812" lon="2.385864">
        <ele>873.80</ele>
        <time>2012-06-26T18:15:41.53Z</time>
      </trkpt>
      <trkpt lat="42.285792" lon="2.385918">
        <ele>874.20</ele>
        <time>2012-06-26T19:39:09.42Z</time>
      </trkpt>
      <trkpt lat="42.285731" lon="2.385997">
        <ele>874.20</ele>
        <time>2012-06-26T22:16:59.02Z</time>
      </trkpt>
      <trkpt lat="42.285701" lon="2.386054">
        <ele>874.20</ele>
        <time>2012-06-26T23:53:40.02Z</time>
      </trkpt>
      <trkpt lat="42.285686" lon="2.386032">
        <ele>874.60</ele>
        <time>2012-06-27T00:35:01.05Z</time>
      </trkpt>
      <trkpt lat="42.285695" lon="2.385987">
        <ele>875.00</ele>
        <time>2012-06-27T01:39:26.74Z</time>
      </trkpt>
      <trkpt lat="42.285699" lon="2.385968">
        <ele>875.40</ele>
        <time>2012-06-27T02:06:44.90Z</time>
      </trkpt>
      <trkpt lat="42.285728" lon="2.385959">
        <ele>875.80</ele>
        <time>2012-06-27T03:02:20.21Z</time>
      </trkpt>
      <trkpt lat="42.285735" lon="2.385944">
        <ele>876.20</ele>
        <time>2012-06-27T03:26:50.92Z</time>
      </trkpt>
      <trkpt lat="42.285746" lon="2.385920">
        <ele>876.20</ele>
        <time>2012-06-27T04:05:52.17Z</time>
      </trkpt>
      <trkpt lat="42.285782" lon="2.385842">
        <ele>876.60</ele>
        <time>2012-06-27T06:12:56.03Z</time>
      </trkpt>
      <trkpt lat="42.285787" lon="2.385761">
        <ele>877.00</ele>
        <time>2012-06-27T08:05:16.45Z</time>
      </trkpt>
      <trkpt lat="42.285788" lon="2.385727">
        <ele>877.60</ele>
        <time>2012-06-27T08:52:18.20Z</time>
      </trkpt>
      <trkpt lat="42.285797" lon="2.385691">
        <ele>878.00</ele>
        <time>2012-06-27T09:44:49.42Z</time>
      </trkpt>
      <trkpt lat="42.285796" lon="2.385651">
        <ele>878.40</ele>
        <time>2012-06-27T10:40:08.39Z</time>
      </trkpt>
      <trkpt lat="42.285801" lon="2.385617">
        <ele>878.80</ele>
        <time>2012-06-27T11:28:03.07Z</time>
      </trkpt>
      <trkpt lat="42.285801" lon="2.385579">
        <ele>879.40</ele>
        <time>2012-06-27T12:20:34.29Z</time>
      </trkpt>
      <trkpt lat="42.285780" lon="2.385539">
        <ele>879.80</ele>
        <time>2012-06-27T13:28:21.75Z</time>
      </trkpt>
      <trkpt lat="42.285762" lon="2.385495">
        <ele>880.20</ele>
        <time>2012-06-27T14:37:51.25Z</time>
      </trkpt>
      <trkpt lat="42.285741" lon="2.385452">
        <ele>880.80</ele>
        <time>2012-06-27T15:49:04.01Z</time>
      </trkpt>
      <trkpt lat="42.285732" lon="2.385407">
        <ele>881.20</ele>
        <time>2012-06-27T16:53:29.69Z</time>
      </trkpt>
      <trkpt lat="42.285725" lon="2.385344">
        <ele>881.60</ele>
        <time>2012-06-27T18:21:32.69Z</time>
      </trkpt>
      <trkpt lat="42.285715" lon="2.385309">
        <ele>882.00</ele>
        <time>2012-06-27T19:13:24.07Z</time>
      </trkpt>
      <trkpt lat="42.285698" lon="2.385261">
        <ele>882.40</ele>
        <time>2012-06-27T20:26:57.20Z</time>
      </trkpt>
      <trkpt lat="42.285686" lon="2.385224">
        <ele>882.80</ele>
        <time>2012-06-27T21:22:47.40Z</time>
      </trkpt>
      <trkpt lat="42.285676" lon="2.385165">
        <ele>882.80</ele>
        <time>2012-06-27T22:46:26.86Z</time>
      </trkpt>
      <trkpt lat="42.285660" lon="2.385107">
        <ele>883.20</ele>
        <time>2012-06-28T00:12:00.14Z</time>
      </trkpt>
      <trkpt lat="42.285630" lon="2.385069">
        <ele>883.60</ele>
        <time>2012-06-28T01:28:48.69Z</time>
      </trkpt>
      <trkpt lat="42.285579" lon="2.385035">
        <ele>884.20</ele>
        <time>2012-06-28T03:15:02.97Z</time>
      </trkpt>
      <trkpt lat="42.285534" lon="2.385063">
        <ele>884.60</ele>
        <time>2012-06-28T04:47:35.97Z</time>
      </trkpt>
      <trkpt lat="42.285494" lon="2.385053">
        <ele>885.00</ele>
        <time>2012-06-28T06:03:35.77Z</time>
      </trkpt>
      <trkpt lat="42.285472" lon="2.385062">
        <ele>885.40</ele>
        <time>2012-06-28T06:46:32.31Z</time>
      </trkpt>
      <trkpt lat="42.285460" lon="2.385122">
        <ele>886.00</ele>
        <time>2012-06-28T08:12:26.56Z</time>
      </trkpt>
      <trkpt lat="42.285449" lon="2.385149">
        <ele>886.40</ele>
        <time>2012-06-28T08:55:02.67Z</time>
      </trkpt>
      <trkpt lat="42.285440" lon="2.385177">
        <ele>886.80</ele>
        <time>2012-06-28T09:37:14.33Z</time>
      </trkpt>
      <trkpt lat="42.285434" lon="2.385212">
        <ele>887.40</ele>
        <time>2012-06-28T10:26:53.69Z</time>
      </trkpt>
      <trkpt lat="42.285428" lon="2.385253">
        <ele>888.00</ele>
        <time>2012-06-28T11:24:39.60Z</time>
      </trkpt>
      <trkpt lat="42.285426" lon="2.385294">
        <ele>888.40</ele>
        <time>2012-06-28T12:21:27Z</time>
      </trkpt>
      <trkpt lat="42.285432" lon="2.385339">
        <ele>889.00</ele>
        <time>2012-06-28T13:24:38.86Z</time>
      </trkpt>
      <trkpt lat="42.285436" lon="2.385384">
        <ele>889.40</ele>
        <time>2012-06-28T14:27:17.43Z</time>
      </trkpt>
      <trkpt lat="42.285428" lon="2.385420">
        <ele>889.40</ele>
        <time>2012-06-28T15:19:14.59Z</time>
      </trkpt>
      <trkpt lat="42.285417" lon="2.385459">
        <ele>890.00</ele>
        <time>2012-06-28T16:16:55.84Z</time>
      </trkpt>
      <trkpt lat="42.285412" lon="2.385495">
        <ele>890.60</ele>
        <time>2012-06-28T17:07:33.38Z</time>
      </trkpt>
      <trkpt lat="42.285433" lon="2.385511">
        <ele>891.00</ele>
        <time>2012-06-28T17:52:35.55Z</time>
      </trkpt>
      <trkpt lat="42.285441" lon="2.385540">
        <ele>891.60</ele>
        <time>2012-06-28T18:35:22.19Z</time>
      </trkpt>
      <trkpt lat="42.285451" lon="2.385572">
        <ele>892.20</ele>
        <time>2012-06-28T19:23:22.91Z</time>
      </trkpt>
      <trkpt lat="42.285456" lon="2.385598">
        <ele>892.60</ele>
        <time>2012-06-28T20:00:30.67Z</time>
      </trkpt>
      <trkpt lat="42.285450" lon="2.385637">
        <ele>893.00</ele>
        <time>2012-06-28T20:55:34.03Z</time>
      </trkpt>
      <trkpt lat="42.285443" lon="2.385666">
        <ele>893.40</ele>
        <time>2012-06-28T21:37:43.70Z</time>
      </trkpt>
      <trkpt lat="42.285431" lon="2.385703">
        <ele>893.80</ele>
        <time>2012-06-28T22:33:33.91Z</time>
      </trkpt>
      <trkpt lat="42.285416" lon="2.385750">
        <ele>894.20</ele>
        <time>2012-06-28T23:44:18.71Z</time>
      </trkpt>
      <trkpt lat="42.285383" lon="2.385836">
        <ele>894.60</ele>
        <time>2012-06-29T01:58:12.72Z</time>
      </trkpt>
      <trkpt lat="42.285374" lon="2.385883">
        <ele>895.00</ele>
        <time>2012-06-29T03:05:18.76Z</time>
      </trkpt>
      <trkpt lat="42.285364" lon="2.385921">
        <ele>895.40</ele>
        <time>2012-06-29T04:01:03.43Z</time>
      </trkpt>
      <trkpt lat="42.285347" lon="2.385964">
        <ele>895.80</ele>
        <time>2012-06-29T05:08:26.55Z</time>
      </trkpt>
      <trkpt lat="42.285328" lon="2.386003">
        <ele>896.20</ele>
        <time>2012-06-29T06:12:59Z</time>
      </trkpt>
      <trkpt lat="42.285280" lon="2.386140">
        <ele>896.60</ele>
        <time>2012-06-29T09:42:29.76Z</time>
      </trkpt>
      <trkpt lat="42.285265" lon="2.386185">
        <ele>897.20</ele>
        <time>2012-06-29T10:50:42.81Z</time>
      </trkpt>
      <trkpt lat="42.285250" lon="2.386230">
        <ele>897.60</ele>
        <time>2012-06-29T11:58:55.86Z</time>
      </trkpt>
      <trkpt lat="42.285230" lon="2.386272">
        <ele>898.00</ele>
        <time>2012-06-29T13:07:57.96Z</time>
      </trkpt>
      <trkpt lat="42.285214" lon="2.386316">
        <ele>898.60</ele>
        <time>2012-06-29T14:15:43.74Z</time>
      </trkpt>
      <trkpt lat="42.285162" lon="2.386469">
        <ele>899.00</ele>
        <time>2012-06-29T18:08:26.54Z</time>
      </trkpt>
      <trkpt lat="42.285150" lon="2.386507">
        <ele>899.40</ele>
        <time>2012-06-29T19:05:32.87Z</time>
      </trkpt>
      <trkpt lat="42.285130" lon="2.386542">
        <ele>900.00</ele>
        <time>2012-06-29T20:06:40.35Z</time>
      </trkpt>
      <trkpt lat="42.285118" lon="2.386581">
        <ele>900.40</ele>
        <time>2012-06-29T21:05:03.10Z</time>
      </trkpt>
      <trkpt lat="42.285105" lon="2.386610">
        <ele>900.80</ele>
        <time>2012-06-29T21:51:55.06Z</time>
      </trkpt>
      <trkpt lat="42.285034" lon="2.386796">
        <ele>900.80</ele>
        <time>2012-06-30T02:41:11.85Z</time>
      </trkpt>
      <trkpt lat="42.285018" lon="2.386889">
        <ele>901.20</ele>
        <time>2012-06-30T04:53:09.94Z</time>
      </trkpt>
      <trkpt lat="42.285006" lon="2.386926">
        <ele>901.60</ele>
        <time>2012-06-30T05:49:00.17Z</time>
      </trkpt>
      <trkpt lat="42.284991" lon="2.386973">
        <ele>902.00</ele>
        <time>2012-06-30T06:59:45Z</time>
      </trkpt>
      <trkpt lat="42.284978" lon="2.387019">
        <ele>902.60</ele>
        <time>2012-06-30T08:07:48.54Z</time>
      </trkpt>
      <trkpt lat="42.284971" lon="2.387078">
        <ele>903.00</ele>
        <time>2012-06-30T09:30:23.81Z</time>
      </trkpt>
      <trkpt lat="42.284949" lon="2.387344">
        <ele>903.40</ele>
        <time>2012-06-30T15:40:20.08Z</time>
      </trkpt>
      <trkpt lat="42.284945" lon="2.387390">
        <ele>903.80</ele>
        <time>2012-06-30T16:44:21.03Z</time>
      </trkpt>
      <trkpt lat="42.284908" lon="2.387444">
        <ele>904.20</ele>
        <time>2012-06-30T18:26:04.73Z</time>
      </trkpt>
      <trkpt lat="42.284896" lon="2.387495">
        <ele>904.60</ele>
        <time>2012-06-30T19:40:02.82Z</time>
      </trkpt>
      <trkpt lat="42.284885" lon="2.387535">
        <ele>905.20</ele>
        <time>2012-06-30T20:39:01.70Z</time>
      </trkpt>
      <trkpt lat="42.284858" lon="2.387620">
        <ele>905.60</ele>
        <time>2012-06-30T22:46:52.86Z</time>
      </trkpt>
      <trkpt lat="42.284850" lon="2.387658">
        <ele>906.00</ele>
        <time>2012-06-30T23:41:29.24Z</time>
      </trkpt>
      <trkpt lat="42.284846" lon="2.387697">
        <ele>906.60</ele>
        <time>2012-07-01T00:35:54.37Z</time>
      </trkpt>
      <trkpt lat="42.284857" lon="2.387712">
        <ele>907.00</ele>
        <time>2012-07-01T01:05:05.86Z</time>
      </trkpt>
      <trkpt lat="42.284846" lon="2.387742">
        <ele>907.60</ele>
        <time>2012-07-01T01:51:22.51Z</time>
      </trkpt>
      <trkpt lat="42.284840" lon="2.387801">
        <ele>908.00</ele>
        <time>2012-07-01T03:13:41.28Z</time>
      </trkpt>
      <trkpt lat="42.284831" lon="2.387834">
        <ele>908.40</ele>
        <time>2012-07-01T04:02:17.94Z</time>
      </trkpt>
      <trkpt lat="42.284820" lon="2.387868">
        <ele>908.80</ele>
        <time>2012-07-01T04:53:35.32Z</time>
      </trkpt>
      <trkpt lat="42.284811" lon="2.387907">
        <ele>909.40</ele>
        <time>2012-07-01T05:50:03.22Z</time>
      </trkpt>
      <trkpt lat="42.284801" lon="2.387940">
        <ele>909.80</ele>
        <time>2012-07-01T06:39:20.52Z</time>
      </trkpt>
      <trkpt lat="42.284798" lon="2.388055">
        <ele>910.20</ele>
        <time>2012-07-01T09:18:23.19Z</time>
      </trkpt>
      <trkpt lat="42.284792" lon="2.388091">
        <ele>910.60</ele>
        <time>2012-07-01T10:09:23.43Z</time>
      </trkpt>
      <trkpt lat="42.284786" lon="2.388125">
        <ele>911.00</ele>
        <time>2012-07-01T10:57:42.10Z</time>
      </trkpt>
      <trkpt lat="42.284786" lon="2.388165">
        <ele>911.60</ele>
        <time>2012-07-01T11:52:59.23Z</time>
      </trkpt>
      <trkpt lat="42.284781" lon="2.388207">
        <ele>912.00</ele>
        <time>2012-07-01T12:51:47.02Z</time>
      </trkpt>
      <trkpt lat="42.284773" lon="2.388287">
        <ele>912.40</ele>
        <time>2012-07-01T14:43:21.61Z</time>
      </trkpt>
      <trkpt lat="42.284770" lon="2.388318">
        <ele>912.80</ele>
        <time>2012-07-01T15:26:34.29Z</time>
      </trkpt>
      <trkpt lat="42.284769" lon="2.388347">
        <ele>913.40</ele>
        <time>2012-07-01T16:06:41.82Z</time>
      </trkpt>
      <trkpt lat="42.284771" lon="2.388374">
        <ele>913.80</ele>
        <time>2012-07-01T16:44:12.08Z</time>
      </trkpt>
      <trkpt lat="42.284770" lon="2.388441">
        <ele>914.80</ele>
        <time>2012-07-01T18:16:49.40Z</time>
      </trkpt>
      <trkpt lat="42.284772" lon="2.388471">
        <ele>915.40</ele>
        <time>2012-07-01T18:58:27.33Z</time>
      </trkpt>
      <trkpt lat="42.284776" lon="2.388496">
        <ele>916.00</ele>
        <time>2012-07-01T19:33:48.47Z</time>
      </trkpt>
      <trkpt lat="42.284780" lon="2.388523">
        <ele>916.60</ele>
        <time>2012-07-01T20:11:51.98Z</time>
      </trkpt>
      <trkpt lat="42.284775" lon="2.388554">
        <ele>917.00</ele>
        <time>2012-07-01T20:55:43.15Z</time>
      </trkpt>
      <trkpt lat="42.284781" lon="2.388582">
        <ele>917.60</ele>
        <time>2012-07-01T21:36:00.58Z</time>
      </trkpt>
      <trkpt lat="42.284781" lon="2.388611">
        <ele>918.00</ele>
        <time>2012-07-01T22:16:05.50Z</time>
      </trkpt>
      <trkpt lat="42.284788" lon="2.388637">
        <ele>918.40</ele>
        <time>2012-07-01T22:54:19.97Z</time>
      </trkpt>
      <trkpt lat="42.284798" lon="2.388664">
        <ele>919.00</ele>
        <time>2012-07-01T23:36:03.95Z</time>
      </trkpt>
      <trkpt lat="42.284815" lon="2.388723">
        <ele>919.40</ele>
        <time>2012-07-02T01:03:34.71Z</time>
      </trkpt>
      <trkpt lat="42.284818" lon="2.388788">
        <ele>919.80</ele>
        <time>2012-07-02T02:33:35.52Z</time>
      </trkpt>
      <trkpt lat="42.284821" lon="2.388844">
        <ele>920.40</ele>
        <time>2012-07-02T03:51:11.66Z</time>
      </trkpt>
      <trkpt lat="42.284821" lon="2.388903">
        <ele>920.80</ele>
        <time>2012-07-02T05:12:44.42Z</time>
      </trkpt>
      <trkpt lat="42.284821" lon="2.388956">
        <ele>921.20</ele>
        <time>2012-07-02T06:25:59.62Z</time>
      </trkpt>
      <trkpt lat="42.284836" lon="2.389160">
        <ele>921.60</ele>
        <time>2012-07-02T11:09:20.32Z</time>
      </trkpt>
      <trkpt lat="42.284844" lon="2.389202">
        <ele>922.20</ele>
        <time>2012-07-02T12:09:16.89Z</time>
      </trkpt>
      <trkpt lat="42.284849" lon="2.389255">
        <ele>922.60</ele>
        <time>2012-07-02T13:23:07.68Z</time>
      </trkpt>
      <trkpt lat="42.284848" lon="2.389296">
        <ele>923.00</ele>
        <time>2012-07-02T14:19:49.58Z</time>
      </trkpt>
      <trkpt lat="42.284854" lon="2.389333">
        <ele>923.40</ele>
        <time>2012-07-02T15:12:10.77Z</time>
      </trkpt>
      <trkpt lat="42.284860" lon="2.389375">
        <ele>924.00</ele>
        <time>2012-07-02T16:11:18.09Z</time>
      </trkpt>
      <trkpt lat="42.284857" lon="2.389418">
        <ele>924.40</ele>
        <time>2012-07-02T17:10:59.82Z</time>
      </trkpt>
      <trkpt lat="42.284855" lon="2.389467">
        <ele>925.00</ele>
        <time>2012-07-02T18:18:49.48Z</time>
      </trkpt>
      <trkpt lat="42.284852" lon="2.389511">
        <ele>925.40</ele>
        <time>2012-07-02T19:19:53.78Z</time>
      </trkpt>
      <trkpt lat="42.284849" lon="2.389561">
        <ele>926.00</ele>
        <time>2012-07-02T20:29:13.81Z</time>
      </trkpt>
      <trkpt lat="42.284838" lon="2.389680">
        <ele>926.60</ele>
        <time>2012-07-02T23:14:58.99Z</time>
      </trkpt>
      <trkpt lat="42.284827" lon="2.389725">
        <ele>927.00</ele>
        <time>2012-07-03T00:20:29.19Z</time>
      </trkpt>
      <trkpt lat="42.284821" lon="2.389781">
        <ele>927.60</ele>
        <time>2012-07-03T01:38:41.62Z</time>
      </trkpt>
      <trkpt lat="42.284808" lon="2.389842">
        <ele>928.00</ele>
        <time>2012-07-03T03:06:25.94Z</time>
      </trkpt>
      <trkpt lat="42.284793" lon="2.389900">
        <ele>928.40</ele>
        <time>2012-07-03T04:31:21.20Z</time>
      </trkpt>
      <trkpt lat="42.284786" lon="2.389956">
        <ele>928.40</ele>
        <time>2012-07-03T05:49:51.01Z</time>
      </trkpt>
      <trkpt lat="42.284780" lon="2.390009">
        <ele>929.00</ele>
        <time>2012-07-03T07:03:57.37Z</time>
      </trkpt>
      <trkpt lat="42.284772" lon="2.390060">
        <ele>929.40</ele>
        <time>2012-07-03T08:16:00.73Z</time>
      </trkpt>
      <trkpt lat="42.284768" lon="2.390111">
        <ele>929.80</ele>
        <time>2012-07-03T09:26:53.77Z</time>
      </trkpt>
      <trkpt lat="42.284766" lon="2.390156">
        <ele>930.20</ele>
        <time>2012-07-03T10:29:12.27Z</time>
      </trkpt>
      <trkpt lat="42.284761" lon="2.390194">
        <ele>930.60</ele>
        <time>2012-07-03T11:22:33Z</time>
      </trkpt>
      <trkpt lat="42.284736" lon="2.390247">
        <ele>930.60</ele>
        <time>2012-07-03T12:49:25.58Z</time>
      </trkpt>
      <trkpt lat="42.284731" lon="2.390281">
        <ele>931.20</ele>
        <time>2012-07-03T13:37:20.31Z</time>
      </trkpt>
      <trkpt lat="42.284721" lon="2.390307">
        <ele>931.60</ele>
        <time>2012-07-03T14:17:50.41Z</time>
      </trkpt>
      <trkpt lat="42.284709" lon="2.390339">
        <ele>932.20</ele>
        <time>2012-07-03T15:07:25.57Z</time>
      </trkpt>
      <trkpt lat="42.284695" lon="2.390375">
        <ele>932.60</ele>
        <time>2012-07-03T16:03:38.32Z</time>
      </trkpt>
      <trkpt lat="42.284678" lon="2.390409">
        <ele>933.20</ele>
        <time>2012-07-03T17:00:21.45Z</time>
      </trkpt>
      <trkpt lat="42.284661" lon="2.390438">
        <ele>933.20</ele>
        <time>2012-07-03T17:51:29.83Z</time>
      </trkpt>
      <trkpt lat="42.284621" lon="2.390519">
        <ele>933.60</ele>
        <time>2012-07-03T20:06:06.02Z</time>
      </trkpt>
      <trkpt lat="42.284590" lon="2.390545">
        <ele>934.00</ele>
        <time>2012-07-03T21:14:15.52Z</time>
      </trkpt>
      <trkpt lat="42.284552" lon="2.390595">
        <ele>934.60</ele>
        <time>2012-07-03T22:53:19.99Z</time>
      </trkpt>
      <trkpt lat="42.284562" lon="2.390615">
        <ele>935.00</ele>
        <time>2012-07-03T23:26:41.84Z</time>
      </trkpt>
      <trkpt lat="42.284566" lon="2.390636">
        <ele>935.40</ele>
        <time>2012-07-03T23:56:40.13Z</time>
      </trkpt>
      <trkpt lat="42.284606" lon="2.391075">
        <ele>935.40</ele>
        <time>2012-07-04T10:08:00.82Z</time>
      </trkpt>
      <trkpt lat="42.284608" lon="2.391270">
        <ele>935.80</ele>
        <time>2012-07-04T14:37:33.42Z</time>
      </trkpt>
      <trkpt lat="42.284612" lon="2.391308">
        <ele>936.20</ele>
        <time>2012-07-04T15:30:36.44Z</time>
      </trkpt>
      <trkpt lat="42.284621" lon="2.391352">
        <ele>936.60</ele>
        <time>2012-07-04T16:33:42.19Z</time>
      </trkpt>
      <trkpt lat="42.284635" lon="2.391384">
        <ele>937.00</ele>
        <time>2012-07-04T17:25:05.20Z</time>
      </trkpt>
      <trkpt lat="42.284675" lon="2.391409">
        <ele>937.40</ele>
        <time>2012-07-04T18:47:25.07Z</time>
      </trkpt>
      <trkpt lat="42.284724" lon="2.391543">
        <ele>937.40</ele>
        <time>2012-07-04T22:14:00.80Z</time>
      </trkpt>
      <trkpt lat="42.284731" lon="2.391566">
        <ele>938.00</ele>
        <time>2012-07-04T22:48:23.25Z</time>
      </trkpt>
      <trkpt lat="42.284744" lon="2.391596">
        <ele>938.40</ele>
        <time>2012-07-04T23:36:26.45Z</time>
      </trkpt>
      <trkpt lat="42.284753" lon="2.391626">
        <ele>938.80</ele>
        <time>2012-07-05T00:21:11.07Z</time>
      </trkpt>
      <trkpt lat="42.284764" lon="2.391652">
        <ele>939.20</ele>
        <time>2012-07-05T01:02:34.88Z</time>
      </trkpt>
      <trkpt lat="42.284771" lon="2.391683">
        <ele>939.60</ele>
        <time>2012-07-05T01:47:22.73Z</time>
      </trkpt>
      <trkpt lat="42.284778" lon="2.391705">
        <ele>939.60</ele>
        <time>2012-07-05T02:20:28.73Z</time>
      </trkpt>
      <trkpt lat="42.284819" lon="2.391877">
        <ele>940.00</ele>
        <time>2012-07-05T06:30:14.52Z</time>
      </trkpt>
      <trkpt lat="42.284834" lon="2.391908">
        <ele>940.40</ele>
        <time>2012-07-05T07:21:26.33Z</time>
      </trkpt>
      <trkpt lat="42.284846" lon="2.391941">
        <ele>940.80</ele>
        <time>2012-07-05T08:12:15.68Z</time>
      </trkpt>
      <trkpt lat="42.284851" lon="2.391970">
        <ele>941.40</ele>
        <time>2012-07-05T08:53:25.04Z</time>
      </trkpt>
      <trkpt lat="42.284855" lon="2.392004">
        <ele>941.80</ele>
        <time>2012-07-05T09:41:00.02Z</time>
      </trkpt>
      <trkpt lat="42.284897" lon="2.392164">
        <ele>941.80</ele>
        <time>2012-07-05T13:35:39.01Z</time>
      </trkpt>
      <trkpt lat="42.284903" lon="2.392187">
        <ele>942.20</ele>
        <time>2012-07-05T14:09:21.46Z</time>
      </trkpt>
      <trkpt lat="42.284913" lon="2.392214">
        <ele>942.60</ele>
        <time>2012-07-05T14:51:05.44Z</time>
      </trkpt>
      <trkpt lat="42.284924" lon="2.392247">
        <ele>943.00</ele>
        <time>2012-07-05T15:41:07.02Z</time>
      </trkpt>
      <trkpt lat="42.284935" lon="2.392276">
        <ele>943.40</ele>
        <time>2012-07-05T16:26:09.61Z</time>
      </trkpt>
      <trkpt lat="42.284943" lon="2.392303">
        <ele>943.80</ele>
        <time>2012-07-05T17:06:21.56Z</time>
      </trkpt>
      <trkpt lat="42.284952" lon="2.392333">
        <ele>943.80</ele>
        <time>2012-07-05T17:51:06.17Z</time>
      </trkpt>
      <trkpt lat="42.285009" lon="2.392460">
        <ele>944.20</ele>
        <time>2012-07-05T21:16:24.61Z</time>
      </trkpt>
      <trkpt lat="42.285017" lon="2.392481">
        <ele>944.60</ele>
        <time>2012-07-05T21:49:03.42Z</time>
      </trkpt>
      <trkpt lat="42.285020" lon="2.392503">
        <ele>945.20</ele>
        <time>2012-07-05T22:19:58.57Z</time>
      </trkpt>
      <trkpt lat="42.285026" lon="2.392530">
        <ele>945.60</ele>
        <time>2012-07-05T22:58:56.45Z</time>
      </trkpt>
      <trkpt lat="42.285030" lon="2.392559">
        <ele>946.00</ele>
        <time>2012-07-05T23:39:42.80Z</time>
      </trkpt>
      <trkpt lat="42.285040" lon="2.392636">
        <ele>946.00</ele>
        <time>2012-07-06T01:27:45.89Z</time>
      </trkpt>
      <trkpt lat="42.285069" lon="2.392788">
        <ele>946.40</ele>
        <time>2012-07-06T05:04:43.35Z</time>
      </trkpt>
      <trkpt lat="42.285079" lon="2.392816">
        <ele>946.80</ele>
        <time>2012-07-06T05:47:41.74Z</time>
      </trkpt>
      <trkpt lat="42.285090" lon="2.392841">
        <ele>947.20</ele>
        <time>2012-07-06T06:27:53.90Z</time>
      </trkpt>
      <trkpt lat="42.285103" lon="2.392870">
        <ele>947.60</ele>
        <time>2012-07-06T07:14:45.86Z</time>
      </trkpt>
      <trkpt lat="42.285119" lon="2.392899">
        <ele>948.20</ele>
        <time>2012-07-06T08:04:45.90Z</time>
      </trkpt>
      <trkpt lat="42.285155" lon="2.392945">
        <ele>948.20</ele>
        <time>2012-07-06T09:37:18.92Z</time>
      </trkpt>
      <trkpt lat="42.285168" lon="2.392972">
        <ele>948.60</ele>
        <time>2012-07-06T10:21:50.41Z</time>
      </trkpt>
      <trkpt lat="42.285179" lon="2.392998">
        <ele>949.00</ele>
        <time>2012-07-06T11:03:14.20Z</time>
      </trkpt>
      <trkpt lat="42.285186" lon="2.393031">
        <ele>949.40</ele>
        <time>2012-07-06T11:50:41.08Z</time>
      </trkpt>
      <trkpt lat="42.285200" lon="2.393072">
        <ele>950.00</ele>
        <time>2012-07-06T12:53:05.81Z</time>
      </trkpt>
      <trkpt lat="42.285213" lon="2.393110">
        <ele>950.40</ele>
        <time>2012-07-06T13:50:57.68Z</time>
      </trkpt>
      <trkpt lat="42.285253" lon="2.393263">
        <ele>950.80</ele>
        <time>2012-07-06T17:35:14.57Z</time>
      </trkpt>
      <trkpt lat="42.285260" lon="2.393298">
        <ele>951.40</ele>
        <time>2012-07-06T18:25:21.23Z</time>
      </trkpt>
      <trkpt lat="42.285271" lon="2.393338">
        <ele>951.80</ele>
        <time>2012-07-06T19:24:20.09Z</time>
      </trkpt>
      <trkpt lat="42.285280" lon="2.393374">
        <ele>952.20</ele>
        <time>2012-07-06T20:16:51.34Z</time>
      </trkpt>
      <trkpt lat="42.285274" lon="2.393405">
        <ele>952.60</ele>
        <time>2012-07-06T21:01:08.61Z</time>
      </trkpt>
      <trkpt lat="42.285291" lon="2.393471">
        <ele>952.60</ele>
        <time>2012-07-06T22:37:44.08Z</time>
      </trkpt>
      <trkpt lat="42.285297" lon="2.393499">
        <ele>953.00</ele>
        <time>2012-07-06T23:18:01.50Z</time>
      </trkpt>
      <trkpt lat="42.285304" lon="2.393527">
        <ele>953.40</ele>
        <time>2012-07-06T23:58:52.46Z</time>
      </trkpt>
      <trkpt lat="42.285311" lon="2.393562">
        <ele>953.80</ele>
        <time>2012-07-07T00:48:59.12Z</time>
      </trkpt>
      <trkpt lat="42.285316" lon="2.393596">
        <ele>954.20</ele>
        <time>2012-07-07T01:36:53.82Z</time>
      </trkpt>
      <trkpt lat="42.285321" lon="2.393627">
        <ele>954.60</ele>
        <time>2012-07-07T02:20:44.96Z</time>
      </trkpt>
      <trkpt lat="42.285322" lon="2.393687">
        <ele>955.20</ele>
        <time>2012-07-07T03:43:41.88Z</time>
      </trkpt>
      <trkpt lat="42.285318" lon="2.393717">
        <ele>955.60</ele>
        <time>2012-07-07T04:25:49.79Z</time>
      </trkpt>
      <trkpt lat="42.285319" lon="2.393747">
        <ele>956.20</ele>
        <time>2012-07-07T05:07:20.14Z</time>
      </trkpt>
      <trkpt lat="42.285324" lon="2.393782">
        <ele>956.60</ele>
        <time>2012-07-07T05:56:36.22Z</time>
      </trkpt>
      <trkpt lat="42.285339" lon="2.393809">
        <ele>957.00</ele>
        <time>2012-07-07T06:43:16.30Z</time>
      </trkpt>
      <trkpt lat="42.285363" lon="2.393859">
        <ele>957.00</ele>
        <time>2012-07-07T08:05:38.96Z</time>
      </trkpt>
      <trkpt lat="42.285372" lon="2.393895">
        <ele>957.40</ele>
        <time>2012-07-07T08:58:10.20Z</time>
      </trkpt>
      <trkpt lat="42.285363" lon="2.393933">
        <ele>957.80</ele>
        <time>2012-07-07T09:53:19Z</time>
      </trkpt>
      <trkpt lat="42.285354" lon="2.393982">
        <ele>958.20</ele>
        <time>2012-07-07T11:03:05.81Z</time>
      </trkpt>
      <trkpt lat="42.285344" lon="2.394053">
        <ele>958.60</ele>
        <time>2012-07-07T12:42:59.41Z</time>
      </trkpt>
      <trkpt lat="42.285344" lon="2.394094">
        <ele>959.00</ele>
        <time>2012-07-07T13:39:39.44Z</time>
      </trkpt>
      <trkpt lat="42.285332" lon="2.394190">
        <ele>959.00</ele>
        <time>2012-07-07T15:54:13.32Z</time>
      </trkpt>
      <trkpt lat="42.285316" lon="2.394274">
        <ele>959.60</ele>
        <time>2012-07-07T17:54:06.41Z</time>
      </trkpt>
      <trkpt lat="42.285315" lon="2.394310">
        <ele>960.00</ele>
        <time>2012-07-07T18:43:53.91Z</time>
      </trkpt>
      <trkpt lat="42.285315" lon="2.394344">
        <ele>961.00</ele>
        <time>2012-07-07T19:30:53.45Z</time>
      </trkpt>
      <trkpt lat="42.285311" lon="2.394411">
        <ele>961.40</ele>
        <time>2012-07-07T21:03:47.66Z</time>
      </trkpt>
      <trkpt lat="42.285307" lon="2.394447">
        <ele>961.40</ele>
        <time>2012-07-07T21:54:06.53Z</time>
      </trkpt>
      <trkpt lat="42.285295" lon="2.394497">
        <ele>961.80</ele>
        <time>2012-07-07T23:06:45.64Z</time>
      </trkpt>
      <trkpt lat="42.285291" lon="2.394527">
        <ele>962.20</ele>
        <time>2012-07-07T23:48:53.55Z</time>
      </trkpt>
      <trkpt lat="42.285292" lon="2.394560">
        <ele>962.80</ele>
        <time>2012-07-08T00:34:32.45Z</time>
      </trkpt>
      <trkpt lat="42.285297" lon="2.394588">
        <ele>963.20</ele>
        <time>2012-07-08T01:14:21.11Z</time>
      </trkpt>
      <trkpt lat="42.285301" lon="2.394622">
        <ele>963.60</ele>
        <time>2012-07-08T02:01:56.07Z</time>
      </trkpt>
      <trkpt lat="42.285307" lon="2.394704">
        <ele>964.00</ele>
        <time>2012-07-08T03:55:49.31Z</time>
      </trkpt>
      <trkpt lat="42.285308" lon="2.394741">
        <ele>964.40</ele>
        <time>2012-07-08T04:46:59.68Z</time>
      </trkpt>
      <trkpt lat="42.285306" lon="2.394784">
        <ele>964.80</ele>
        <time>2012-07-08T05:46:32.61Z</time>
      </trkpt>
      <trkpt lat="42.285304" lon="2.394820">
        <ele>965.20</ele>
        <time>2012-07-08T06:36:26.40Z</time>
      </trkpt>
      <trkpt lat="42.285298" lon="2.394857">
        <ele>965.60</ele>
        <time>2012-07-08T07:28:47.57Z</time>
      </trkpt>
      <trkpt lat="42.285285" lon="2.394926">
        <ele>966.00</ele>
        <time>2012-07-08T09:07:12.21Z</time>
      </trkpt>
      <trkpt lat="42.285282" lon="2.394961">
        <ele>966.60</ele>
        <time>2012-07-08T09:55:54.10Z</time>
      </trkpt>
      <trkpt lat="42.285272" lon="2.395020">
        <ele>967.00</ele>
        <time>2012-07-08T11:19:33.59Z</time>
      </trkpt>
      <trkpt lat="42.285270" lon="2.395076">
        <ele>967.40</ele>
        <time>2012-07-08T12:37:02.94Z</time>
      </trkpt>
      <trkpt lat="42.285265" lon="2.395107">
        <ele>967.80</ele>
        <time>2012-07-08T13:20:54.08Z</time>
      </trkpt>
      <trkpt lat="42.285266" lon="2.395199">
        <ele>968.20</ele>
        <time>2012-07-08T15:28:04.25Z</time>
      </trkpt>
      <trkpt lat="42.285268" lon="2.395240">
        <ele>968.60</ele>
        <time>2012-07-08T16:24:51.66Z</time>
      </trkpt>
      <trkpt lat="42.285279" lon="2.395279">
        <ele>969.00</ele>
        <time>2012-07-08T17:22:32.92Z</time>
      </trkpt>
      <trkpt lat="42.285288" lon="2.395320">
        <ele>969.40</ele>
        <time>2012-07-08T18:21:39.46Z</time>
      </trkpt>
      <trkpt lat="42.285308" lon="2.395355">
        <ele>970.00</ele>
        <time>2012-07-08T19:22:46.93Z</time>
      </trkpt>
      <trkpt lat="42.285386" lon="2.395445">
        <ele>970.00</ele>
        <time>2012-07-08T22:34:22.55Z</time>
      </trkpt>
      <trkpt lat="42.285424" lon="2.395463">
        <ele>970.00</ele>
        <time>2012-07-08T23:49:36.10Z</time>
      </trkpt>
      <trkpt lat="42.285522" lon="2.395528">
        <ele>970.00</ele>
        <time>2012-07-09T03:13:32.52Z</time>
      </trkpt>
      <trkpt lat="42.285620" lon="2.395594">
        <ele>970.00</ele>
        <time>2012-07-09T06:38:05.69Z</time>
      </trkpt>
      <trkpt lat="42.285665" lon="2.395615">
        <ele>970.00</ele>
        <time>2012-07-09T08:07:02.07Z</time>
      </trkpt>
      <trkpt lat="42.285833" lon="2.395834">
        <ele>970.00</ele>
        <time>2012-07-09T15:23:04.23Z</time>
      </trkpt>
      <trkpt lat="42.285850" lon="2.395895">
        <ele>970.00</ele>
        <time>2012-07-09T16:53:09.80Z</time>
      </trkpt>
      <trkpt lat="42.285950" lon="2.396111">
        <ele>970.00</ele>
        <time>2012-07-09T22:45:20.27Z</time>
      </trkpt>
      <trkpt lat="42.285983" lon="2.396148">
        <ele>970.00</ele>
        <time>2012-07-10T00:05:26.28Z</time>
      </trkpt>
      <trkpt lat="42.286104" lon="2.396334">
        <ele>970.00</ele>
        <time>2012-07-10T05:47:45.89Z</time>
      </trkpt>
      <trkpt lat="42.286082" lon="2.396564">
        <ele>970.00</ele>
        <time>2012-07-10T11:08:17.76Z</time>
      </trkpt>
      <trkpt lat="42.286021" lon="2.396646">
        <ele>970.00</ele>
        <time>2012-07-10T13:49:01.11Z</time>
      </trkpt>
      <trkpt lat="42.285940" lon="2.396753">
        <ele>970.00</ele>
        <time>2012-07-10T17:20:36.48Z</time>
      </trkpt>
      <trkpt lat="42.285885" lon="2.397035">
        <ele>970.00</ele>
        <time>2012-07-11T00:03:40.85Z</time>
      </trkpt>
      <trkpt lat="42.285888" lon="2.397111">
        <ele>970.00</ele>
        <time>2012-07-11T01:48:52.25Z</time>
      </trkpt>
      <trkpt lat="42.285861" lon="2.397364">
        <ele>970.00</ele>
        <time>2012-07-11T07:42:09.90Z</time>
      </trkpt>
      <trkpt lat="42.285774" lon="2.397597">
        <ele>969.40</ele>
        <time>2012-07-11T13:42:53.46Z</time>
      </trkpt>
      <trkpt lat="42.285731" lon="2.397637">
        <ele>969.00</ele>
        <time>2012-07-11T15:20:24.59Z</time>
      </trkpt>
      <trkpt lat="42.285690" lon="2.397692">
        <ele>968.60</ele>
        <time>2012-07-11T17:08:19.51Z</time>
      </trkpt>
      <trkpt lat="42.285653" lon="2.397746">
        <ele>968.20</ele>
        <time>2012-07-11T18:50:03.16Z</time>
      </trkpt>
      <trkpt lat="42.285599" lon="2.397841">
        <ele>967.80</ele>
        <time>2012-07-11T21:35:38.14Z</time>
      </trkpt>
      <trkpt lat="42.285547" lon="2.398007">
        <ele>967.80</ele>
        <time>2012-07-12T01:44:47.27Z</time>
      </trkpt>
      <trkpt lat="42.285568" lon="2.398248">
        <ele>967.40</ele>
        <time>2012-07-12T07:20:10.88Z</time>
      </trkpt>
      <trkpt lat="42.285583" lon="2.398337">
        <ele>966.80</ele>
        <time>2012-07-12T09:26:20.51Z</time>
      </trkpt>
      <trkpt lat="42.285599" lon="2.398432">
        <ele>966.40</ele>
        <time>2012-07-12T11:41:00.17Z</time>
      </trkpt>
      <trkpt lat="42.285614" lon="2.398522">
        <ele>965.80</ele>
        <time>2012-07-12T13:48:30.66Z</time>
      </trkpt>
      <trkpt lat="42.285633" lon="2.398609">
        <ele>965.40</ele>
        <time>2012-07-12T15:53:53.12Z</time>
      </trkpt>
      <trkpt lat="42.285685" lon="2.398863">
        <ele>965.40</ele>
        <time>2012-07-12T21:58:08.24Z</time>
      </trkpt>
      <trkpt lat="42.285759" lon="2.399346">
        <ele>965.40</ele>
        <time>2012-07-13T09:19:51.89Z</time>
      </trkpt>
      <trkpt lat="42.285767" lon="2.399402">
        <ele>965.80</ele>
        <time>2012-07-13T10:38:41.59Z</time>
      </trkpt>
      <trkpt lat="42.285782" lon="2.399449">
        <ele>966.20</ele>
        <time>2012-07-13T11:49:26.37Z</time>
      </trkpt>
      <trkpt lat="42.285793" lon="2.399485">
        <ele>966.60</ele>
        <time>2012-07-13T12:43:16.36Z</time>
      </trkpt>
      <trkpt lat="42.285805" lon="2.399518">
        <ele>966.60</ele>
        <time>2012-07-13T13:34:05.67Z</time>
      </trkpt>
      <trkpt lat="42.285818" lon="2.399549">
        <ele>967.20</ele>
        <time>2012-07-13T14:23:20.69Z</time>
      </trkpt>
      <trkpt lat="42.285830" lon="2.399585">
        <ele>967.80</ele>
        <time>2012-07-13T15:17:55.10Z</time>
      </trkpt>
      <trkpt lat="42.285843" lon="2.399617">
        <ele>968.40</ele>
        <time>2012-07-13T16:08:22.55Z</time>
      </trkpt>
      <trkpt lat="42.285865" lon="2.399638">
        <ele>968.80</ele>
        <time>2012-07-13T16:58:41.52Z</time>
      </trkpt>
      <trkpt lat="42.285883" lon="2.399667">
        <ele>969.40</ele>
        <time>2012-07-13T17:51:00.71Z</time>
      </trkpt>
      <trkpt lat="42.285906" lon="2.399699">
        <ele>969.80</ele>
        <time>2012-07-13T18:52:40.55Z</time>
      </trkpt>
      <trkpt lat="42.285938" lon="2.399729">
        <ele>970.40</ele>
        <time>2012-07-13T20:05:25.84Z</time>
      </trkpt>
      <trkpt lat="42.285970" lon="2.399738">
        <ele>970.80</ele>
        <time>2012-07-13T21:06:29.67Z</time>
      </trkpt>
      <trkpt lat="42.286014" lon="2.399714">
        <ele>971.20</ele>
        <time>2012-07-13T22:35:08.23Z</time>
      </trkpt>
      <trkpt lat="42.286072" lon="2.399706">
        <ele>971.60</ele>
        <time>2012-07-14T00:24:03.44Z</time>
      </trkpt>
      <trkpt lat="42.286252" lon="2.399759">
        <ele>971.60</ele>
        <time>2012-07-14T06:08:13.50Z</time>
      </trkpt>
      <trkpt lat="42.286304" lon="2.399733">
        <ele>971.60</ele>
        <time>2012-07-14T07:51:48.37Z</time>
      </trkpt>
      <trkpt lat="42.286381" lon="2.399692">
        <ele>971.60</ele>
        <time>2012-07-14T10:26:25.12Z</time>
      </trkpt>
      <trkpt lat="42.286563" lon="2.399778">
        <ele>971.60</ele>
        <time>2012-07-14T16:26:36.82Z</time>
      </trkpt>
      <trkpt lat="42.286655" lon="2.400040">
        <ele>971.60</ele>
        <time>2012-07-14T23:07:26.66Z</time>
      </trkpt>
      <trkpt lat="42.286730" lon="2.400245">
        <ele>971.60</ele>
        <time>2012-07-15T04:23:31.65Z</time>
      </trkpt>
      <trkpt lat="42.286779" lon="2.400315">
        <ele>971.60</ele>
        <time>2012-07-15T06:36:43.17Z</time>
      </trkpt>
      <trkpt lat="42.286928" lon="2.400511">
        <ele>971.60</ele>
        <time>2012-07-15T13:05:08.32Z</time>
      </trkpt>
      <trkpt lat="42.286982" lon="2.400575">
        <ele>971.60</ele>
        <time>2012-07-15T15:19:18.56Z</time>
      </trkpt>
      <trkpt lat="42.287319" lon="2.400895">
        <ele>971.60</ele>
        <time>2012-07-16T04:08:43.09Z</time>
      </trkpt>
      <trkpt lat="42.287528" lon="2.401142">
        <ele>971.60</ele>
        <time>2012-07-16T12:47:21.96Z</time>
      </trkpt>
      <trkpt lat="42.287613" lon="2.401260">
        <ele>971.60</ele>
        <time>2012-07-16T16:34:59.59Z</time>
      </trkpt>
      <trkpt lat="42.287692" lon="2.401382">
        <ele>971.20</ele>
        <time>2012-07-16T20:19:04.58Z</time>
      </trkpt>
      <trkpt lat="42.287729" lon="2.401442">
        <ele>970.80</ele>
        <time>2012-07-16T22:07:01.99Z</time>
      </trkpt>
      <trkpt lat="42.287772" lon="2.401497">
        <ele>970.40</ele>
        <time>2012-07-16T23:57:37.81Z</time>
      </trkpt>
      <trkpt lat="42.287828" lon="2.401542">
        <ele>970.00</ele>
        <time>2012-07-17T01:59:20.47Z</time>
      </trkpt>
      <trkpt lat="42.287883" lon="2.401584">
        <ele>969.40</ele>
        <time>2012-07-17T03:57:21.38Z</time>
      </trkpt>
      <trkpt lat="42.287982" lon="2.401642">
        <ele>969.40</ele>
        <time>2012-07-17T07:18:56.11Z</time>
      </trkpt>
      <trkpt lat="42.288084" lon="2.401673">
        <ele>969.40</ele>
        <time>2012-07-17T10:34:15.12Z</time>
      </trkpt>
      <trkpt lat="42.288438" lon="2.401806">
        <ele>969.40</ele>
        <time>2012-07-17T22:00:40.54Z</time>
      </trkpt>
      <trkpt lat="42.288678" lon="2.401932">
        <ele>969.40</ele>
        <time>2012-07-18T06:01:40.82Z</time>
      </trkpt>
      <trkpt lat="42.288792" lon="2.401937">
        <ele>969.40</ele>
        <time>2012-07-18T09:34:46.26Z</time>
      </trkpt>
      <trkpt lat="42.288833" lon="2.401933">
        <ele>969.40</ele>
        <time>2012-07-18T10:51:34.07Z</time>
      </trkpt>
      <trkpt lat="42.288960" lon="2.401850">
        <ele>969.40</ele>
        <time>2012-07-18T15:15:06.47Z</time>
      </trkpt>
      <trkpt lat="42.288994" lon="2.401874">
        <ele>969.40</ele>
        <time>2012-07-18T16:26:45.99Z</time>
      </trkpt>
      <trkpt lat="42.289046" lon="2.401936">
        <ele>969.40</ele>
        <time>2012-07-18T18:36:18.25Z</time>
      </trkpt>
      <trkpt lat="42.289165" lon="2.402166">
        <ele>969.40</ele>
        <time>2012-07-19T01:04:12.31Z</time>
      </trkpt>
      <trkpt lat="42.289241" lon="2.402252">
        <ele>969.40</ele>
        <time>2012-07-19T04:09:22.30Z</time>
      </trkpt>
      <trkpt lat="42.289336" lon="2.402392">
        <ele>969.40</ele>
        <time>2012-07-19T08:31:55.75Z</time>
      </trkpt>
      <trkpt lat="42.289359" lon="2.402447">
        <ele>969.40</ele>
        <time>2012-07-19T09:59:14.75Z</time>
      </trkpt>
      <trkpt lat="42.289387" lon="2.402500">
        <ele>970.00</ele>
        <time>2012-07-19T11:29:15.31Z</time>
      </trkpt>
      <trkpt lat="42.289412" lon="2.402551">
        <ele>970.40</ele>
        <time>2012-07-19T12:53:48.56Z</time>
      </trkpt>
      <trkpt lat="42.289440" lon="2.402598">
        <ele>970.80</ele>
        <time>2012-07-19T14:17:12.58Z</time>
      </trkpt>
      <trkpt lat="42.289464" lon="2.402642">
        <ele>971.20</ele>
        <time>2012-07-19T15:32:45.74Z</time>
      </trkpt>
      <trkpt lat="42.289500" lon="2.402681">
        <ele>971.60</ele>
        <time>2012-07-19T16:58:57.09Z</time>
      </trkpt>
      <trkpt lat="42.289539" lon="2.402723">
        <ele>971.60</ele>
        <time>2012-07-19T18:32:06.44Z</time>
      </trkpt>
      <trkpt lat="42.289785" lon="2.402998">
        <ele>971.60</ele>
        <time>2012-07-20T04:28:28.94Z</time>
      </trkpt>
      <trkpt lat="42.290042" lon="2.403256">
        <ele>971.60</ele>
        <time>2012-07-20T14:26:32.12Z</time>
      </trkpt>
      <trkpt lat="42.290247" lon="2.403507">
        <ele>971.60</ele>
        <time>2012-07-20T23:03:15.94Z</time>
      </trkpt>
      <trkpt lat="42.290293" lon="2.403551">
        <ele>971.60</ele>
        <time>2012-07-21T00:48:32.54Z</time>
      </trkpt>
      <trkpt lat="42.290472" lon="2.403750">
        <ele>971.20</ele>
        <time>2012-07-21T08:01:31.16Z</time>
      </trkpt>
      <trkpt lat="42.290519" lon="2.403798">
        <ele>970.80</ele>
        <time>2012-07-21T09:51:34.05Z</time>
      </trkpt>
      <trkpt lat="42.290561" lon="2.403859">
        <ele>970.40</ele>
        <time>2012-07-21T11:46:44.17Z</time>
      </trkpt>
      <trkpt lat="42.290589" lon="2.403921">
        <ele>969.80</ele>
        <time>2012-07-21T13:27:07.60Z</time>
      </trkpt>
      <trkpt lat="42.290624" lon="2.403980">
        <ele>969.40</ele>
        <time>2012-07-21T15:11:38.72Z</time>
      </trkpt>
      <trkpt lat="42.290790" lon="2.404281">
        <ele>969.40</ele>
        <time>2012-07-21T23:50:30.65Z</time>
      </trkpt>
      <trkpt lat="42.290820" lon="2.404333">
        <ele>969.40</ele>
        <time>2012-07-22T01:21:38.80Z</time>
      </trkpt>
      <trkpt lat="42.291006" lon="2.404778">
        <ele>969.40</ele>
        <time>2012-07-22T13:08:01.26Z</time>
      </trkpt>
      <trkpt lat="42.291074" lon="2.404950">
        <ele>969.00</ele>
        <time>2012-07-22T17:37:32.61Z</time>
      </trkpt>
      <trkpt lat="42.291088" lon="2.405008">
        <ele>968.60</ele>
        <time>2012-07-22T19:01:51.53Z</time>
      </trkpt>
      <trkpt lat="42.291104" lon="2.405076">
        <ele>968.20</ele>
        <time>2012-07-22T20:40:28.45Z</time>
      </trkpt>
      <trkpt lat="42.291132" lon="2.405139">
        <ele>967.80</ele>
        <time>2012-07-22T22:22:02.77Z</time>
      </trkpt>
      <trkpt lat="42.291163" lon="2.405203">
        <ele>967.40</ele>
        <time>2012-07-23T00:07:46.10Z</time>
      </trkpt>
      <trkpt lat="42.291195" lon="2.405264">
        <ele>967.40</ele>
        <time>2012-07-23T01:51:07Z</time>
      </trkpt>
      <trkpt lat="42.291245" lon="2.405342">
        <ele>967.00</ele>
        <time>2012-07-23T04:13:45.29Z</time>
      </trkpt>
      <trkpt lat="42.291265" lon="2.405371">
        <ele>966.60</ele>
        <time>2012-07-23T05:08:32.91Z</time>
      </trkpt>
      <trkpt lat="42.291270" lon="2.405399">
        <ele>966.20</ele>
        <time>2012-07-23T05:48:21.36Z</time>
      </trkpt>
      <trkpt lat="42.291289" lon="2.405464">
        <ele>965.80</ele>
        <time>2012-07-23T07:24:56.67Z</time>
      </trkpt>
      <trkpt lat="42.291302" lon="2.405512">
        <ele>965.40</ele>
        <time>2012-07-23T08:35:35.19Z</time>
      </trkpt>
      <trkpt lat="42.291315" lon="2.405561">
        <ele>965.40</ele>
        <time>2012-07-23T09:47:31.67Z</time>
      </trkpt>
      <trkpt lat="42.291328" lon="2.405610">
        <ele>965.40</ele>
        <time>2012-07-23T10:59:28.15Z</time>
      </trkpt>
      <trkpt lat="42.291334" lon="2.405692">
        <ele>965.40</ele>
        <time>2012-07-23T12:53:20.74Z</time>
      </trkpt>
      <trkpt lat="42.291384" lon="2.406058">
        <ele>965.40</ele>
        <time>2012-07-23T21:27:42.50Z</time>
      </trkpt>
      <trkpt lat="42.291354" lon="2.406335">
        <ele>965.40</ele>
        <time>2012-07-24T03:54:36.09Z</time>
      </trkpt>
      <trkpt lat="42.291341" lon="2.406386">
        <ele>964.80</ele>
        <time>2012-07-24T05:09:09.02Z</time>
      </trkpt>
      <trkpt lat="42.291327" lon="2.406442">
        <ele>964.40</ele>
        <time>2012-07-24T06:30:50.54Z</time>
      </trkpt>
      <trkpt lat="42.291317" lon="2.406494">
        <ele>964.00</ele>
        <time>2012-07-24T07:45:05.68Z</time>
      </trkpt>
      <trkpt lat="42.291305" lon="2.406536">
        <ele>963.60</ele>
        <time>2012-07-24T08:47:19.05Z</time>
      </trkpt>
      <trkpt lat="42.291288" lon="2.406582">
        <ele>963.20</ele>
        <time>2012-07-24T09:58:22.88Z</time>
      </trkpt>
      <trkpt lat="42.291229" lon="2.406683">
        <ele>963.20</ele>
        <time>2012-07-24T12:56:14.23Z</time>
      </trkpt>
      <trkpt lat="42.291075" lon="2.406826">
        <ele>963.20</ele>
        <time>2012-07-24T18:45:16.88Z</time>
      </trkpt>
      <trkpt lat="42.291035" lon="2.406870">
        <ele>962.80</ele>
        <time>2012-07-24T20:21:37.49Z</time>
      </trkpt>
      <trkpt lat="42.290987" lon="2.406936">
        <ele>962.20</ele>
        <time>2012-07-24T22:29:32.16Z</time>
      </trkpt>
      <trkpt lat="42.290932" lon="2.407004">
        <ele>961.80</ele>
        <time>2012-07-25T00:48:46.97Z</time>
      </trkpt>
      <trkpt lat="42.290889" lon="2.407073">
        <ele>961.40</ele>
        <time>2012-07-25T02:53:28.17Z</time>
      </trkpt>
      <trkpt lat="42.290826" lon="2.407164">
        <ele>961.00</ele>
        <time>2012-07-25T05:45:43.01Z</time>
      </trkpt>
      <trkpt lat="42.290717" lon="2.407320">
        <ele>960.60</ele>
        <time>2012-07-25T10:42:16.68Z</time>
      </trkpt>
      <trkpt lat="42.290643" lon="2.407385">
        <ele>960.20</ele>
        <time>2012-07-25T13:27:08.93Z</time>
      </trkpt>
      <trkpt lat="42.290596" lon="2.407442">
        <ele>959.60</ele>
        <time>2012-07-25T15:25:06.76Z</time>
      </trkpt>
      <trkpt lat="42.290532" lon="2.407514">
        <ele>959.20</ele>
        <time>2012-07-25T18:00:40.08Z</time>
      </trkpt>
      <trkpt lat="42.290492" lon="2.407575">
        <ele>958.80</ele>
        <time>2012-07-25T19:53:19.45Z</time>
      </trkpt>
      <trkpt lat="42.290409" lon="2.407845">
        <ele>958.80</ele>
        <time>2012-07-26T02:37:24.26Z</time>
      </trkpt>
      <trkpt lat="42.290337" lon="2.408194">
        <ele>958.40</ele>
        <time>2012-07-26T10:58:07.99Z</time>
      </trkpt>
      <trkpt lat="42.290291" lon="2.408276">
        <ele>958.00</ele>
        <time>2012-07-26T13:20:21.52Z</time>
      </trkpt>
      <trkpt lat="42.290253" lon="2.408319">
        <ele>957.40</ele>
        <time>2012-07-26T14:52:56.47Z</time>
      </trkpt>
      <trkpt lat="42.290221" lon="2.408374">
        <ele>957.00</ele>
        <time>2012-07-26T16:29:38.73Z</time>
      </trkpt>
      <trkpt lat="42.290201" lon="2.408429">
        <ele>956.60</ele>
        <time>2012-07-26T17:54:20.63Z</time>
      </trkpt>
      <trkpt lat="42.290184" lon="2.408494">
        <ele>956.60</ele>
        <time>2012-07-26T19:29:37.45Z</time>
      </trkpt>
      <trkpt lat="42.290135" lon="2.408738">
        <ele>956.60</ele>
        <time>2012-07-27T01:19:02.50Z</time>
      </trkpt>
      <trkpt lat="42.290101" lon="2.408794">
        <ele>956.60</ele>
        <time>2012-07-27T02:59:09.84Z</time>
      </trkpt>
      <trkpt lat="42.290038" lon="2.408996">
        <ele>956.00</ele>
        <time>2012-07-27T08:02:07.76Z</time>
      </trkpt>
      <trkpt lat="42.290023" lon="2.409087">
        <ele>955.60</ele>
        <time>2012-07-27T10:10:58.66Z</time>
      </trkpt>
      <trkpt lat="42.290017" lon="2.409181">
        <ele>955.20</ele>
        <time>2012-07-27T12:21:22.23Z</time>
      </trkpt>
      <trkpt lat="42.290033" lon="2.409292">
        <ele>954.80</ele>
        <time>2012-07-27T14:57:39.61Z</time>
      </trkpt>
      <trkpt lat="42.290039" lon="2.409396">
        <ele>954.20</ele>
        <time>2012-07-27T17:21:49.62Z</time>
      </trkpt>
      <trkpt lat="42.290064" lon="2.409580">
        <ele>954.20</ele>
        <time>2012-07-27T21:40:22.36Z</time>
      </trkpt>
      <trkpt lat="42.290089" lon="2.409707">
        <ele>953.80</ele>
        <time>2012-07-28T00:41:59.84Z</time>
      </trkpt>
      <trkpt lat="42.290095" lon="2.409814">
        <ele>953.40</ele>
        <time>2012-07-28T03:10:17.87Z</time>
      </trkpt>
      <trkpt lat="42.290079" lon="2.409923">
        <ele>952.80</ele>
        <time>2012-07-28T05:43:52.51Z</time>
      </trkpt>
      <trkpt lat="42.290086" lon="2.410040">
        <ele>952.40</ele>
        <time>2012-07-28T08:26:05.98Z</time>
      </trkpt>
      <trkpt lat="42.290068" lon="2.410165">
        <ele>952.00</ele>
        <time>2012-07-28T11:22:05.70Z</time>
      </trkpt>
      <trkpt lat="42.290080" lon="2.410400">
        <ele>951.40</ele>
        <time>2012-07-28T16:47:38.57Z</time>
      </trkpt>
      <trkpt lat="42.290088" lon="2.410504">
        <ele>950.80</ele>
        <time>2012-07-28T19:12:08.88Z</time>
      </trkpt>
      <trkpt lat="42.290100" lon="2.410604">
        <ele>950.40</ele>
        <time>2012-07-28T21:32:09.40Z</time>
      </trkpt>
      <trkpt lat="42.290109" lon="2.410715">
        <ele>949.80</ele>
        <time>2012-07-29T00:06:28.78Z</time>
      </trkpt>
      <trkpt lat="42.290145" lon="2.410816">
        <ele>949.40</ele>
        <time>2012-07-29T02:41:25.32Z</time>
      </trkpt>
      <trkpt lat="42.290167" lon="2.411025">
        <ele>949.40</ele>
        <time>2012-07-29T07:33:10.42Z</time>
      </trkpt>
      <trkpt lat="42.290143" lon="2.411292">
        <ele>949.40</ele>
        <time>2012-07-29T13:44:53.23Z</time>
      </trkpt>
      <trkpt lat="42.289978" lon="2.411389">
        <ele>949.40</ele>
        <time>2012-07-29T19:21:02.01Z</time>
      </trkpt>
      <trkpt lat="42.289889" lon="2.411364">
        <ele>949.40</ele>
        <time>2012-07-29T22:10:51.48Z</time>
      </trkpt>
      <trkpt lat="42.289835" lon="2.411348">
        <ele>949.40</ele>
        <time>2012-07-29T23:54:08.25Z</time>
      </trkpt>
      <trkpt lat="42.289792" lon="2.411327">
        <ele>949.40</ele>
        <time>2012-07-30T01:19:33.20Z</time>
      </trkpt>
      <trkpt lat="42.289717" lon="2.411322">
        <ele>949.40</ele>
        <time>2012-07-30T03:39:50.47Z</time>
      </trkpt>
      <trkpt lat="42.289594" lon="2.411321">
        <ele>949.40</ele>
        <time>2012-07-30T07:29:38.28Z</time>
      </trkpt>
      <trkpt lat="42.289502" lon="2.411300">
        <ele>949.80</ele>
        <time>2012-07-30T10:23:56.92Z</time>
      </trkpt>
      <trkpt lat="42.289476" lon="2.411297">
        <ele>950.20</ele>
        <time>2012-07-30T11:12:41.96Z</time>
      </trkpt>
      <trkpt lat="42.289452" lon="2.411297">
        <ele>950.60</ele>
        <time>2012-07-30T11:57:32.22Z</time>
      </trkpt>
      <trkpt lat="42.289439" lon="2.411296">
        <ele>951.20</ele>
        <time>2012-07-30T12:21:51.80Z</time>
      </trkpt>
      <trkpt lat="42.289426" lon="2.411296">
        <ele>951.60</ele>
        <time>2012-07-30T12:46:09.02Z</time>
      </trkpt>
      <trkpt lat="42.289411" lon="2.411293">
        <ele>952.20</ele>
        <time>2012-07-30T13:14:28.73Z</time>
      </trkpt>
      <trkpt lat="42.289387" lon="2.411292">
        <ele>952.60</ele>
        <time>2012-07-30T13:59:20.27Z</time>
      </trkpt>
      <trkpt lat="42.289336" lon="2.411296">
        <ele>953.20</ele>
        <time>2012-07-30T15:34:46.67Z</time>
      </trkpt>
      <trkpt lat="42.289313" lon="2.411296">
        <ele>953.60</ele>
        <time>2012-07-30T16:17:44.84Z</time>
      </trkpt>
      <trkpt lat="42.289267" lon="2.411304">
        <ele>954.20</ele>
        <time>2012-07-30T17:44:23.66Z</time>
      </trkpt>
      <trkpt lat="42.289235" lon="2.411307">
        <ele>954.80</ele>
        <time>2012-07-30T18:44:19.28Z</time>
      </trkpt>
      <trkpt lat="42.289188" lon="2.411307">
        <ele>955.20</ele>
        <time>2012-07-30T20:12:07.70Z</time>
      </trkpt>
      <trkpt lat="42.289140" lon="2.411303">
        <ele>955.80</ele>
        <time>2012-07-30T21:41:58.43Z</time>
      </trkpt>
      <trkpt lat="42.289091" lon="2.411306">
        <ele>956.40</ele>
        <time>2012-07-30T23:13:36.66Z</time>
      </trkpt>
      <trkpt lat="42.289065" lon="2.411309">
        <ele>956.80</ele>
        <time>2012-07-31T00:02:21.71Z</time>
      </trkpt>
      <trkpt lat="42.289032" lon="2.411313">
        <ele>957.40</ele>
        <time>2012-07-31T01:04:15.65Z</time>
      </trkpt>
      <trkpt lat="42.289003" lon="2.411312">
        <ele>958.00</ele>
        <time>2012-07-31T01:58:27.43Z</time>
      </trkpt>
      <trkpt lat="42.288956" lon="2.411314">
        <ele>958.40</ele>
        <time>2012-07-31T03:26:18.46Z</time>
      </trkpt>
      <trkpt lat="42.288922" lon="2.411316">
        <ele>958.80</ele>
        <time>2012-07-31T04:29:53.26Z</time>
      </trkpt>
      <trkpt lat="42.288903" lon="2.411319">
        <ele>959.20</ele>
        <time>2012-07-31T05:05:37.53Z</time>
      </trkpt>
      <trkpt lat="42.288883" lon="2.411321">
        <ele>959.60</ele>
        <time>2012-07-31T05:43:05.54Z</time>
      </trkpt>
      <trkpt lat="42.288860" lon="2.411325">
        <ele>960.00</ele>
        <time>2012-07-31T06:26:24.95Z</time>
      </trkpt>
      <trkpt lat="42.288740" lon="2.411385">
        <ele>960.00</ele>
        <time>2012-07-31T10:25:26.89Z</time>
      </trkpt>
      <trkpt lat="42.288713" lon="2.411402">
        <ele>960.40</ele>
        <time>2012-07-31T11:21:05.63Z</time>
      </trkpt>
      <trkpt lat="42.288670" lon="2.411429">
        <ele>960.80</ele>
        <time>2012-07-31T12:49:40.29Z</time>
      </trkpt>
      <trkpt lat="42.288643" lon="2.411447">
        <ele>961.40</ele>
        <time>2012-07-31T13:45:54.87Z</time>
      </trkpt>
      <trkpt lat="42.288608" lon="2.411468">
        <ele>961.80</ele>
        <time>2012-07-31T14:57:27.27Z</time>
      </trkpt>
      <trkpt lat="42.288582" lon="2.411487">
        <ele>962.20</ele>
        <time>2012-07-31T15:52:40.32Z</time>
      </trkpt>
      <trkpt lat="42.288559" lon="2.411502">
        <ele>962.20</ele>
        <time>2012-07-31T16:40:22.85Z</time>
      </trkpt>
      <trkpt lat="42.288492" lon="2.411516">
        <ele>962.60</ele>
        <time>2012-07-31T18:47:02.34Z</time>
      </trkpt>
      <trkpt lat="42.288460" lon="2.411512">
        <ele>963.20</ele>
        <time>2012-07-31T19:47:04.66Z</time>
      </trkpt>
      <trkpt lat="42.288431" lon="2.411501">
        <ele>963.60</ele>
        <time>2012-07-31T20:43:20.93Z</time>
      </trkpt>
      <trkpt lat="42.288411" lon="2.411487">
        <ele>964.00</ele>
        <time>2012-07-31T21:25:25.57Z</time>
      </trkpt>
      <trkpt lat="42.288392" lon="2.411477">
        <ele>964.60</ele>
        <time>2012-07-31T22:03:31.09Z</time>
      </trkpt>
      <trkpt lat="42.288327" lon="2.411469">
        <ele>964.60</ele>
        <time>2012-08-01T00:05:27.34Z</time>
      </trkpt>
      <trkpt lat="42.288292" lon="2.411467">
        <ele>965.00</ele>
        <time>2012-08-01T01:10:54.13Z</time>
      </trkpt>
      <trkpt lat="42.288265" lon="2.411465">
        <ele>965.40</ele>
        <time>2012-08-01T02:01:25.21Z</time>
      </trkpt>
      <trkpt lat="42.288223" lon="2.411462">
        <ele>966.00</ele>
        <time>2012-08-01T03:19:59.73Z</time>
      </trkpt>
      <trkpt lat="42.288181" lon="2.411462">
        <ele>966.40</ele>
        <time>2012-08-01T04:38:27.68Z</time>
      </trkpt>
      <trkpt lat="42.288141" lon="2.411472">
        <ele>966.80</ele>
        <time>2012-08-01T05:54:27.47Z</time>
      </trkpt>
      <trkpt lat="42.288107" lon="2.411481">
        <ele>966.80</ele>
        <time>2012-08-01T06:59:11.06Z</time>
      </trkpt>
      <trkpt lat="42.287912" lon="2.411530">
        <ele>966.80</ele>
        <time>2012-08-01T13:09:43.84Z</time>
      </trkpt>
      <trkpt lat="42.287646" lon="2.411515">
        <ele>966.80</ele>
        <time>2012-08-01T21:27:06.78Z</time>
      </trkpt>
      <trkpt lat="42.287379" lon="2.411478">
        <ele>966.80</ele>
        <time>2012-08-02T05:48:32.74Z</time>
      </trkpt>
      <trkpt lat="42.287078" lon="2.411412">
        <ele>966.80</ele>
        <time>2012-08-02T15:18:14.05Z</time>
      </trkpt>
      <trkpt lat="42.286934" lon="2.411457">
        <ele>966.80</ele>
        <time>2012-08-02T19:54:21.32Z</time>
      </trkpt>
      <trkpt lat="42.286827" lon="2.411477">
        <ele>967.20</ele>
        <time>2012-08-02T23:16:09.50Z</time>
      </trkpt>
      <trkpt lat="42.286804" lon="2.411467">
        <ele>967.60</ele>
        <time>2012-08-03T00:01:17.75Z</time>
      </trkpt>
      <trkpt lat="42.286783" lon="2.411450">
        <ele>968.00</ele>
        <time>2012-08-03T00:47:01.57Z</time>
      </trkpt>
      <trkpt lat="42.286775" lon="2.411433">
        <ele>968.40</ele>
        <time>2012-08-03T01:14:52.35Z</time>
      </trkpt>
      <trkpt lat="42.286757" lon="2.411410">
        <ele>969.00</ele>
        <time>2012-08-03T02:01:08.83Z</time>
      </trkpt>
      <trkpt lat="42.286740" lon="2.411376">
        <ele>969.60</ele>
        <time>2012-08-03T02:57:51.88Z</time>
      </trkpt>
      <trkpt lat="42.286734" lon="2.411343">
        <ele>970.00</ele>
        <time>2012-08-03T03:44:49.86Z</time>
      </trkpt>
      <trkpt lat="42.286720" lon="2.411315">
        <ele>970.60</ele>
        <time>2012-08-03T04:31:32.37Z</time>
      </trkpt>
      <trkpt lat="42.286708" lon="2.411288">
        <ele>971.20</ele>
        <time>2012-08-03T05:15:04.35Z</time>
      </trkpt>
      <trkpt lat="42.286674" lon="2.411198">
        <ele>971.20</ele>
        <time>2012-08-03T07:34:44.47Z</time>
      </trkpt>
      <trkpt lat="42.286573" lon="2.411190">
        <ele>971.20</ele>
        <time>2012-08-03T10:43:45.38Z</time>
      </trkpt>
      <trkpt lat="42.286475" lon="2.411112">
        <ele>971.20</ele>
        <time>2012-08-03T14:16:13.43Z</time>
      </trkpt>
      <trkpt lat="42.286427" lon="2.411046">
        <ele>971.60</ele>
        <time>2012-08-03T16:24:08.39Z</time>
      </trkpt>
      <trkpt lat="42.286385" lon="2.411011">
        <ele>972.20</ele>
        <time>2012-08-03T17:56:19.10Z</time>
      </trkpt>
      <trkpt lat="42.286344" lon="2.410968">
        <ele>972.60</ele>
        <time>2012-08-03T19:33:16.06Z</time>
      </trkpt>
      <trkpt lat="42.286300" lon="2.410924">
        <ele>973.20</ele>
        <time>2012-08-03T21:15:31.15Z</time>
      </trkpt>
      <trkpt lat="42.286251" lon="2.410889">
        <ele>973.60</ele>
        <time>2012-08-03T22:59:03.46Z</time>
      </trkpt>
      <trkpt lat="42.286216" lon="2.410850">
        <ele>974.00</ele>
        <time>2012-08-04T00:23:47.93Z</time>
      </trkpt>
      <trkpt lat="42.286164" lon="2.410826">
        <ele>974.60</ele>
        <time>2012-08-04T02:06:27.23Z</time>
      </trkpt>
      <trkpt lat="42.286111" lon="2.410808">
        <ele>975.00</ele>
        <time>2012-08-04T03:48:32.86Z</time>
      </trkpt>
      <trkpt lat="42.286054" lon="2.410791">
        <ele>975.40</ele>
        <time>2012-08-04T05:37:35.89Z</time>
      </trkpt>
      <trkpt lat="42.286022" lon="2.410780">
        <ele>975.80</ele>
        <time>2012-08-04T06:39:17.07Z</time>
      </trkpt>
      <trkpt lat="42.285898" lon="2.410743">
        <ele>975.80</ele>
        <time>2012-08-04T10:36:31.35Z</time>
      </trkpt>
      <trkpt lat="42.285688" lon="2.410775">
        <ele>975.80</ele>
        <time>2012-08-04T17:11:20.20Z</time>
      </trkpt>
      <trkpt lat="42.285394" lon="2.410750">
        <ele>975.80</ele>
        <time>2012-08-05T02:21:40.98Z</time>
      </trkpt>
      <trkpt lat="42.285101" lon="2.410724">
        <ele>975.80</ele>
        <time>2012-08-05T11:30:15.22Z</time>
      </trkpt>
      <trkpt lat="42.284807" lon="2.410699">
        <ele>975.80</ele>
        <time>2012-08-05T20:40:36.01Z</time>
      </trkpt>
      <trkpt lat="42.284623" lon="2.410719">
        <ele>975.80</ele>
        <time>2012-08-06T02:25:27.88Z</time>
      </trkpt>
      <trkpt lat="42.284530" lon="2.410776">
        <ele>975.80</ele>
        <time>2012-08-06T05:36:14.24Z</time>
      </trkpt>
      <trkpt lat="42.284456" lon="2.411047">
        <ele>975.80</ele>
        <time>2012-08-06T12:15:29.86Z</time>
      </trkpt>
      <trkpt lat="42.284430" lon="2.411190">
        <ele>975.80</ele>
        <time>2012-08-06T15:39:01.54Z</time>
      </trkpt>
      <trkpt lat="42.284395" lon="2.411403">
        <ele>975.80</ele>
        <time>2012-08-06T20:40:35.82Z</time>
      </trkpt>
      <trkpt lat="42.284380" lon="2.411599">
        <ele>976.20</ele>
        <time>2012-08-07T01:12:56.59Z</time>
      </trkpt>
      <trkpt lat="42.284374" lon="2.411655">
        <ele>976.80</ele>
        <time>2012-08-07T02:31:09.05Z</time>
      </trkpt>
      <trkpt lat="42.284373" lon="2.411706">
        <ele>977.20</ele>
        <time>2012-08-07T03:41:39.90Z</time>
      </trkpt>
      <trkpt lat="42.284373" lon="2.411753">
        <ele>977.80</ele>
        <time>2012-08-07T04:46:37.56Z</time>
      </trkpt>
      <trkpt lat="42.284369" lon="2.411801">
        <ele>978.20</ele>
        <time>2012-08-07T05:53:23.31Z</time>
      </trkpt>
      <trkpt lat="42.284372" lon="2.412067">
        <ele>978.20</ele>
        <time>2012-08-07T12:01:04.93Z</time>
      </trkpt>
      <trkpt lat="42.284402" lon="2.412589">
        <ele>978.20</ele>
        <time>2012-08-08T00:04:44.17Z</time>
      </trkpt>
      <trkpt lat="42.284396" lon="2.413050">
        <ele>978.20</ele>
        <time>2012-08-08T10:42:00.24Z</time>
      </trkpt>
      <trkpt lat="42.284387" lon="2.413113">
        <ele>978.20</ele>
        <time>2012-08-08T12:10:41.27Z</time>
      </trkpt>
      <trkpt lat="42.284351" lon="2.413381">
        <ele>978.60</ele>
        <time>2012-08-08T18:27:09.56Z</time>
      </trkpt>
      <trkpt lat="42.284336" lon="2.413451">
        <ele>979.00</ele>
        <time>2012-08-08T20:07:53.19Z</time>
      </trkpt>
      <trkpt lat="42.284309" lon="2.413512">
        <ele>979.40</ele>
        <time>2012-08-08T21:46:08.10Z</time>
      </trkpt>
      <trkpt lat="42.284270" lon="2.413569">
        <ele>979.80</ele>
        <time>2012-08-08T23:33:26.69Z</time>
      </trkpt>
      <trkpt lat="42.284234" lon="2.413615">
        <ele>980.20</ele>
        <time>2012-08-09T01:05:59.75Z</time>
      </trkpt>
      <trkpt lat="42.284065" lon="2.413715">
        <ele>980.20</ele>
        <time>2012-08-09T06:50:39.29Z</time>
      </trkpt>
      <trkpt lat="42.284006" lon="2.413744">
        <ele>980.20</ele>
        <time>2012-08-09T08:47:56.53Z</time>
      </trkpt>
      <trkpt lat="42.283788" lon="2.413888">
        <ele>980.20</ele>
        <time>2012-08-09T16:21:14.87Z</time>
      </trkpt>
      <trkpt lat="42.283745" lon="2.413933">
        <ele>980.60</ele>
        <time>2012-08-09T18:02:50.72Z</time>
      </trkpt>
      <trkpt lat="42.283710" lon="2.413982">
        <ele>981.00</ele>
        <time>2012-08-09T19:36:59.14Z</time>
      </trkpt>
      <trkpt lat="42.283676" lon="2.414021">
        <ele>981.40</ele>
        <time>2012-08-09T21:00:17.70Z</time>
      </trkpt>
      <trkpt lat="42.283642" lon="2.414076">
        <ele>981.80</ele>
        <time>2012-08-09T22:39:21.54Z</time>
      </trkpt>
      <trkpt lat="42.283626" lon="2.414131">
        <ele>982.20</ele>
        <time>2012-08-10T00:01:02.62Z</time>
      </trkpt>
      <trkpt lat="42.283624" lon="2.414189">
        <ele>982.20</ele>
        <time>2012-08-10T01:21:17.77Z</time>
      </trkpt>
      <trkpt lat="42.283643" lon="2.414298">
        <ele>982.80</ele>
        <time>2012-08-10T03:56:04.63Z</time>
      </trkpt>
      <trkpt lat="42.283658" lon="2.414349">
        <ele>983.20</ele>
        <time>2012-08-10T05:11:56.01Z</time>
      </trkpt>
      <trkpt lat="42.283675" lon="2.414393">
        <ele>983.60</ele>
        <time>2012-08-10T06:20:32.54Z</time>
      </trkpt>
      <trkpt lat="42.283688" lon="2.414428">
        <ele>984.00</ele>
        <time>2012-08-10T07:14:40.35Z</time>
      </trkpt>
      <trkpt lat="42.283699" lon="2.414456">
        <ele>984.40</ele>
        <time>2012-08-10T07:58:29.46Z</time>
      </trkpt>
      <trkpt lat="42.283719" lon="2.414520">
        <ele>984.80</ele>
        <time>2012-08-10T09:34:31.01Z</time>
      </trkpt>
      <trkpt lat="42.283729" lon="2.414553">
        <ele>985.40</ele>
        <time>2012-08-10T10:23:48.36Z</time>
      </trkpt>
      <trkpt lat="42.283741" lon="2.414585">
        <ele>985.80</ele>
        <time>2012-08-10T11:13:23.55Z</time>
      </trkpt>
      <trkpt lat="42.283751" lon="2.414626">
        <ele>986.20</ele>
        <time>2012-08-10T12:13:03.68Z</time>
      </trkpt>
      <trkpt lat="42.283761" lon="2.414669">
        <ele>986.80</ele>
        <time>2012-08-10T13:15:21.68Z</time>
      </trkpt>
      <trkpt lat="42.283779" lon="2.414788">
        <ele>987.20</ele>
        <time>2012-08-10T16:03:14.45Z</time>
      </trkpt>
      <trkpt lat="42.283786" lon="2.414822">
        <ele>987.60</ele>
        <time>2012-08-10T16:52:01.20Z</time>
      </trkpt>
      <trkpt lat="42.283793" lon="2.414861">
        <ele>988.00</ele>
        <time>2012-08-10T17:47:29.27Z</time>
      </trkpt>
      <trkpt lat="42.283794" lon="2.414889">
        <ele>988.40</ele>
        <time>2012-08-10T18:26:14.01Z</time>
      </trkpt>
      <trkpt lat="42.283801" lon="2.414929">
        <ele>989.00</ele>
        <time>2012-08-10T19:23:02.73Z</time>
      </trkpt>
      <trkpt lat="42.283810" lon="2.415030">
        <ele>989.40</ele>
        <time>2012-08-10T21:43:39.15Z</time>
      </trkpt>
      <trkpt lat="42.283822" lon="2.415065">
        <ele>989.80</ele>
        <time>2012-08-10T22:36:58.22Z</time>
      </trkpt>
      <trkpt lat="42.283840" lon="2.415103">
        <ele>990.20</ele>
        <time>2012-08-10T23:39:20.13Z</time>
      </trkpt>
      <trkpt lat="42.283849" lon="2.415138">
        <ele>990.60</ele>
        <time>2012-08-11T00:30:32.99Z</time>
      </trkpt>
      <trkpt lat="42.283855" lon="2.415167">
        <ele>991.00</ele>
        <time>2012-08-11T01:12:10.22Z</time>
      </trkpt>
      <trkpt lat="42.283861" lon="2.415202">
        <ele>991.40</ele>
        <time>2012-08-11T02:01:49.65Z</time>
      </trkpt>
      <trkpt lat="42.283865" lon="2.415241">
        <ele>991.80</ele>
        <time>2012-08-11T02:56:14.84Z</time>
      </trkpt>
      <trkpt lat="42.283896" lon="2.415314">
        <ele>992.40</ele>
        <time>2012-08-11T04:52:35.10Z</time>
      </trkpt>
      <trkpt lat="42.283907" lon="2.415363">
        <ele>992.80</ele>
        <time>2012-08-11T06:03:21.60Z</time>
      </trkpt>
      <trkpt lat="42.283915" lon="2.415413">
        <ele>993.20</ele>
        <time>2012-08-11T07:14:03.93Z</time>
      </trkpt>
      <trkpt lat="42.283936" lon="2.415609">
        <ele>993.60</ele>
        <time>2012-08-11T11:47:47.66Z</time>
      </trkpt>
      <trkpt lat="42.283940" lon="2.415669">
        <ele>994.00</ele>
        <time>2012-08-11T13:11:03.58Z</time>
      </trkpt>
      <trkpt lat="42.283943" lon="2.415729">
        <ele>994.60</ele>
        <time>2012-08-11T14:34:10.69Z</time>
      </trkpt>
      <trkpt lat="42.283956" lon="2.415792">
        <ele>995.00</ele>
        <time>2012-08-11T16:04:34.66Z</time>
      </trkpt>
      <trkpt lat="42.283961" lon="2.415847">
        <ele>995.40</ele>
        <time>2012-08-11T17:21:10.08Z</time>
      </trkpt>
      <trkpt lat="42.283976" lon="2.415987">
        <ele>995.40</ele>
        <time>2012-08-11T20:36:41.30Z</time>
      </trkpt>
      <trkpt lat="42.283985" lon="2.416117">
        <ele>995.40</ele>
        <time>2012-08-11T23:37:09.21Z</time>
      </trkpt>
      <trkpt lat="42.283977" lon="2.416182">
        <ele>995.40</ele>
        <time>2012-08-12T01:08:13.70Z</time>
      </trkpt>
      <trkpt lat="42.283963" lon="2.416258">
        <ele>995.80</ele>
        <time>2012-08-12T02:56:28.77Z</time>
      </trkpt>
      <trkpt lat="42.283954" lon="2.416323">
        <ele>996.20</ele>
        <time>2012-08-12T04:27:52.77Z</time>
      </trkpt>
      <trkpt lat="42.283943" lon="2.416382">
        <ele>996.60</ele>
        <time>2012-08-12T05:51:58.57Z</time>
      </trkpt>
      <trkpt lat="42.283942" lon="2.416438">
        <ele>997.00</ele>
        <time>2012-08-12T07:09:23.97Z</time>
      </trkpt>
      <trkpt lat="42.283949" lon="2.416490">
        <ele>997.40</ele>
        <time>2012-08-12T08:22:27.10Z</time>
      </trkpt>
      <trkpt lat="42.283981" lon="2.416600">
        <ele>997.80</ele>
        <time>2012-08-12T11:05:49.23Z</time>
      </trkpt>
      <trkpt lat="42.283979" lon="2.416647">
        <ele>998.20</ele>
        <time>2012-08-12T12:10:53.34Z</time>
      </trkpt>
      <trkpt lat="42.283972" lon="2.416696">
        <ele>998.60</ele>
        <time>2012-08-12T13:19:51.95Z</time>
      </trkpt>
      <trkpt lat="42.283978" lon="2.416745">
        <ele>999.00</ele>
        <time>2012-08-12T14:28:30.76Z</time>
      </trkpt>
      <trkpt lat="42.283975" lon="2.416798">
        <ele>999.40</ele>
        <time>2012-08-12T15:41:58.86Z</time>
      </trkpt>
      <trkpt lat="42.283979" lon="2.416849">
        <ele>999.40</ele>
        <time>2012-08-12T16:52:51.96Z</time>
      </trkpt>
      <trkpt lat="42.284026" lon="2.417061">
        <ele>1000.00</ele>
        <time>2012-08-12T21:58:45.38Z</time>
      </trkpt>
      <trkpt lat="42.284047" lon="2.417114">
        <ele>1000.40</ele>
        <time>2012-08-12T23:21:51.30Z</time>
      </trkpt>
      <trkpt lat="42.284060" lon="2.417159">
        <ele>1000.80</ele>
        <time>2012-08-13T00:28:37.54Z</time>
      </trkpt>
      <trkpt lat="42.284084" lon="2.417206">
        <ele>1001.20</ele>
        <time>2012-08-13T01:47:33.50Z</time>
      </trkpt>
      <trkpt lat="42.284103" lon="2.417254">
        <ele>1001.80</ele>
        <time>2012-08-13T03:02:48.05Z</time>
      </trkpt>
      <trkpt lat="42.284163" lon="2.417348">
        <ele>1002.20</ele>
        <time>2012-08-13T05:54:23.75Z</time>
      </trkpt>
      <trkpt lat="42.284180" lon="2.417361">
        <ele>1002.60</ele>
        <time>2012-08-13T06:30:53.17Z</time>
      </trkpt>
      <trkpt lat="42.284198" lon="2.417375">
        <ele>1003.00</ele>
        <time>2012-08-13T07:09:41.05Z</time>
      </trkpt>
      <trkpt lat="42.284217" lon="2.417394">
        <ele>1003.40</ele>
        <time>2012-08-13T07:53:50.32Z</time>
      </trkpt>
      <trkpt lat="42.284238" lon="2.417413">
        <ele>1003.80</ele>
        <time>2012-08-13T08:41:02.97Z</time>
      </trkpt>
      <trkpt lat="42.284279" lon="2.417450">
        <ele>1003.80</ele>
        <time>2012-08-13T10:13:08.98Z</time>
      </trkpt>
      <trkpt lat="42.284302" lon="2.417471">
        <ele>1004.20</ele>
        <time>2012-08-13T11:05:00.21Z</time>
      </trkpt>
      <trkpt lat="42.284321" lon="2.417490">
        <ele>1004.60</ele>
        <time>2012-08-13T11:49:09.48Z</time>
      </trkpt>
      <trkpt lat="42.284345" lon="2.417504">
        <ele>1005.20</ele>
        <time>2012-08-13T12:37:59.57Z</time>
      </trkpt>
      <trkpt lat="42.284366" lon="2.417516">
        <ele>1005.60</ele>
        <time>2012-08-13T13:20:35.25Z</time>
      </trkpt>
      <trkpt lat="42.284384" lon="2.417528">
        <ele>1006.00</ele>
        <time>2012-08-13T13:58:05.01Z</time>
      </trkpt>
      <trkpt lat="42.284403" lon="2.417538">
        <ele>1006.40</ele>
        <time>2012-08-13T14:36:10.55Z</time>
      </trkpt>
      <trkpt lat="42.284418" lon="2.417548">
        <ele>1007.00</ele>
        <time>2012-08-13T15:07:25.34Z</time>
      </trkpt>
      <trkpt lat="42.284442" lon="2.417558">
        <ele>1007.40</ele>
        <time>2012-08-13T15:54:20.52Z</time>
      </trkpt>
      <trkpt lat="42.284458" lon="2.417571">
        <ele>1007.80</ele>
        <time>2012-08-13T16:29:13.10Z</time>
      </trkpt>
      <trkpt lat="42.284485" lon="2.417584">
        <ele>1008.20</ele>
        <time>2012-08-13T17:22:45.91Z</time>
      </trkpt>
      <trkpt lat="42.284525" lon="2.417600">
        <ele>1008.20</ele>
        <time>2012-08-13T18:40:41.88Z</time>
      </trkpt>
      <trkpt lat="42.284547" lon="2.417613">
        <ele>1008.60</ele>
        <time>2012-08-13T19:25:33.30Z</time>
      </trkpt>
      <trkpt lat="42.284568" lon="2.417619">
        <ele>1009.20</ele>
        <time>2012-08-13T20:05:39.28Z</time>
      </trkpt>
      <trkpt lat="42.284580" lon="2.417624">
        <ele>1009.60</ele>
        <time>2012-08-13T20:29:06.87Z</time>
      </trkpt>
      <trkpt lat="42.284587" lon="2.417632">
        <ele>1010.00</ele>
        <time>2012-08-13T20:46:14.40Z</time>
      </trkpt>
      <trkpt lat="42.284600" lon="2.417642">
        <ele>1010.60</ele>
        <time>2012-08-13T21:14:11.07Z</time>
      </trkpt>
      <trkpt lat="42.284640" lon="2.417670">
        <ele>1010.60</ele>
        <time>2012-08-13T22:38:20.40Z</time>
      </trkpt>
      <trkpt lat="42.284738" lon="2.417708">
        <ele>1011.40</ele>
        <time>2012-08-14T01:48:48.68Z</time>
      </trkpt>
      <trkpt lat="42.284758" lon="2.417710">
        <ele>1012.00</ele>
        <time>2012-08-14T02:26:16.68Z</time>
      </trkpt>
      <trkpt lat="42.284778" lon="2.417698">
        <ele>1012.40</ele>
        <time>2012-08-14T03:07:09.50Z</time>
      </trkpt>
      <trkpt lat="42.284805" lon="2.417703">
        <ele>1012.80</ele>
        <time>2012-08-14T03:58:04.31Z</time>
      </trkpt>
      <trkpt lat="42.284969" lon="2.417711">
        <ele>1013.20</ele>
        <time>2012-08-14T09:04:39.70Z</time>
      </trkpt>
      <trkpt lat="42.284997" lon="2.417715">
        <ele>1013.60</ele>
        <time>2012-08-14T09:57:15.81Z</time>
      </trkpt>
      <trkpt lat="42.285020" lon="2.417718">
        <ele>1014.20</ele>
        <time>2012-08-14T10:40:25.95Z</time>
      </trkpt>
      <trkpt lat="42.285038" lon="2.417719">
        <ele>1014.60</ele>
        <time>2012-08-14T11:14:05.34Z</time>
      </trkpt>
      <trkpt lat="42.285056" lon="2.417727">
        <ele>1015.00</ele>
        <time>2012-08-14T11:49:29.30Z</time>
      </trkpt>
      <trkpt lat="42.285091" lon="2.417731">
        <ele>1015.40</ele>
        <time>2012-08-14T12:55:06.59Z</time>
      </trkpt>
      <trkpt lat="42.285118" lon="2.417733">
        <ele>1015.80</ele>
        <time>2012-08-14T13:45:37.67Z</time>
      </trkpt>
      <trkpt lat="42.285151" lon="2.417748">
        <ele>1016.20</ele>
        <time>2012-08-14T14:50:40.32Z</time>
      </trkpt>
      <trkpt lat="42.285173" lon="2.417762">
        <ele>1016.60</ele>
        <time>2012-08-14T15:36:06.01Z</time>
      </trkpt>
      <trkpt lat="42.285192" lon="2.417766">
        <ele>1017.00</ele>
        <time>2012-08-14T16:12:01.48Z</time>
      </trkpt>
      <trkpt lat="42.285242" lon="2.417774">
        <ele>1017.00</ele>
        <time>2012-08-14T17:46:05.30Z</time>
      </trkpt>
      <trkpt lat="42.285354" lon="2.417748">
        <ele>1017.40</ele>
        <time>2012-08-14T21:18:23.63Z</time>
      </trkpt>
      <trkpt lat="42.285392" lon="2.417756">
        <ele>1017.80</ele>
        <time>2012-08-14T22:30:14.56Z</time>
      </trkpt>
      <trkpt lat="42.285420" lon="2.417765">
        <ele>1018.40</ele>
        <time>2012-08-14T23:24:00.71Z</time>
      </trkpt>
      <trkpt lat="42.285449" lon="2.417761">
        <ele>1018.80</ele>
        <time>2012-08-15T00:18:28.32Z</time>
      </trkpt>
      <trkpt lat="42.285493" lon="2.417760">
        <ele>1019.20</ele>
        <time>2012-08-15T01:40:41.15Z</time>
      </trkpt>
      <trkpt lat="42.285599" lon="2.417823">
        <ele>1019.20</ele>
        <time>2012-08-15T05:17:00.97Z</time>
      </trkpt>
      <trkpt lat="42.285694" lon="2.417838">
        <ele>1019.60</ele>
        <time>2012-08-15T08:15:42.30Z</time>
      </trkpt>
      <trkpt lat="42.285725" lon="2.417851">
        <ele>1020.20</ele>
        <time>2012-08-15T09:16:20.60Z</time>
      </trkpt>
      <trkpt lat="42.285766" lon="2.417858">
        <ele>1020.60</ele>
        <time>2012-08-15T10:33:32.97Z</time>
      </trkpt>
      <trkpt lat="42.285804" lon="2.417866">
        <ele>1021.00</ele>
        <time>2012-08-15T11:45:23.89Z</time>
      </trkpt>
      <trkpt lat="42.285835" lon="2.417875">
        <ele>1021.40</ele>
        <time>2012-08-15T12:44:38.06Z</time>
      </trkpt>
      <trkpt lat="42.285984" lon="2.417896">
        <ele>1022.00</ele>
        <time>2012-08-15T17:24:30.61Z</time>
      </trkpt>
      <trkpt lat="42.286008" lon="2.417888">
        <ele>1022.40</ele>
        <time>2012-08-15T18:10:41.45Z</time>
      </trkpt>
      <trkpt lat="42.286031" lon="2.417884">
        <ele>1022.80</ele>
        <time>2012-08-15T18:54:00.87Z</time>
      </trkpt>
      <trkpt lat="42.286049" lon="2.417887">
        <ele>1023.20</ele>
        <time>2012-08-15T19:27:53.84Z</time>
      </trkpt>
      <trkpt lat="42.286067" lon="2.417889">
        <ele>1023.60</ele>
        <time>2012-08-15T20:01:38.33Z</time>
      </trkpt>
      <trkpt lat="42.286105" lon="2.417911">
        <ele>1023.60</ele>
        <time>2012-08-15T21:18:52.16Z</time>
      </trkpt>
      <trkpt lat="42.286143" lon="2.417935">
        <ele>1023.60</ele>
        <time>2012-08-15T22:37:13.75Z</time>
      </trkpt>
      <trkpt lat="42.286210" lon="2.418001">
        <ele>1023.60</ele>
        <time>2012-08-16T01:12:06.76Z</time>
      </trkpt>
      <trkpt lat="42.286363" lon="2.418133">
        <ele>1023.60</ele>
        <time>2012-08-16T06:51:12.67Z</time>
      </trkpt>
      <trkpt lat="42.286483" lon="2.418320">
        <ele>1023.60</ele>
        <time>2012-08-16T12:33:20.94Z</time>
      </trkpt>
      <trkpt lat="42.286703" lon="2.418615">
        <ele>1023.60</ele>
        <time>2012-08-16T22:12:17Z</time>
      </trkpt>
      <trkpt lat="42.286738" lon="2.418654">
        <ele>1024.00</ele>
        <time>2012-08-16T23:37:01.45Z</time>
      </trkpt>
      <trkpt lat="42.286775" lon="2.418697">
        <ele>1024.40</ele>
        <time>2012-08-17T01:08:11.05Z</time>
      </trkpt>
      <trkpt lat="42.286813" lon="2.418737">
        <ele>1024.80</ele>
        <time>2012-08-17T02:38:09.81Z</time>
      </trkpt>
      <trkpt lat="42.286846" lon="2.418778">
        <ele>1025.20</ele>
        <time>2012-08-17T04:01:54.05Z</time>
      </trkpt>
      <trkpt lat="42.286878" lon="2.418813">
        <ele>1025.60</ele>
        <time>2012-08-17T05:18:48.21Z</time>
      </trkpt>
      <trkpt lat="42.286908" lon="2.418848">
        <ele>1025.60</ele>
        <time>2012-08-17T06:32:50.33Z</time>
      </trkpt>
      <trkpt lat="42.286956" lon="2.418927">
        <ele>1025.60</ele>
        <time>2012-08-17T08:54:07.77Z</time>
      </trkpt>
      <trkpt lat="42.286982" lon="2.419029">
        <ele>1025.60</ele>
        <time>2012-08-17T11:23:14.18Z</time>
      </trkpt>
      <trkpt lat="42.286978" lon="2.419145">
        <ele>1025.60</ele>
        <time>2012-08-17T14:03:43.97Z</time>
      </trkpt>
      <trkpt lat="42.286985" lon="2.419351">
        <ele>1025.60</ele>
        <time>2012-08-17T18:48:44.60Z</time>
      </trkpt>
      <trkpt lat="42.287008" lon="2.419796">
        <ele>1025.60</ele>
        <time>2012-08-18T05:05:16.33Z</time>
      </trkpt>
      <trkpt lat="42.286995" lon="2.420078">
        <ele>1025.60</ele>
        <time>2012-08-18T11:35:46.63Z</time>
      </trkpt>
      <trkpt lat="42.286986" lon="2.420291">
        <ele>1025.60</ele>
        <time>2012-08-18T16:30:38.51Z</time>
      </trkpt>
      <trkpt lat="42.287060" lon="2.420552">
        <ele>1025.60</ele>
        <time>2012-08-18T22:56:57.11Z</time>
      </trkpt>
      <trkpt lat="42.287086" lon="2.420611">
        <ele>1025.60</ele>
        <time>2012-08-19T00:31:51.97Z</time>
      </trkpt>
      <trkpt lat="42.287175" lon="2.420792">
        <ele>1025.60</ele>
        <time>2012-08-19T05:32:14.50Z</time>
      </trkpt>
      <trkpt lat="42.287196" lon="2.420859">
        <ele>1025.60</ele>
        <time>2012-08-19T07:12:48.58Z</time>
      </trkpt>
      <trkpt lat="42.287264" lon="2.421230">
        <ele>1025.60</ele>
        <time>2012-08-19T16:01:03.97Z</time>
      </trkpt>
      <trkpt lat="42.287284" lon="2.421299">
        <ele>1025.60</ele>
        <time>2012-08-19T17:43:29.31Z</time>
      </trkpt>
      <trkpt lat="42.287381" lon="2.421537">
        <ele>1025.60</ele>
        <time>2012-08-19T23:59:02.38Z</time>
      </trkpt>
      <trkpt lat="42.287502" lon="2.421919">
        <ele>1025.60</ele>
        <time>2012-08-20T09:33:21.25Z</time>
      </trkpt>
      <trkpt lat="42.287585" lon="2.422363">
        <ele>1025.60</ele>
        <time>2012-08-20T20:06:17.10Z</time>
      </trkpt>
      <trkpt lat="42.287592" lon="2.422508">
        <ele>1025.60</ele>
        <time>2012-08-20T23:27:06.73Z</time>
      </trkpt>
      <trkpt lat="42.287576" lon="2.422731">
        <ele>1025.60</ele>
        <time>2012-08-21T04:36:45.68Z</time>
      </trkpt>
      <trkpt lat="42.287545" lon="2.422942">
        <ele>1025.60</ele>
        <time>2012-08-21T09:34:04.49Z</time>
      </trkpt>
      <trkpt lat="42.287522" lon="2.423093">
        <ele>1025.60</ele>
        <time>2012-08-21T13:07:08.77Z</time>
      </trkpt>
      <trkpt lat="42.287417" lon="2.423540">
        <ele>1025.60</ele>
        <time>2012-08-21T23:55:19.87Z</time>
      </trkpt>
      <trkpt lat="42.287398" lon="2.423708">
        <ele>1025.60</ele>
        <time>2012-08-22T03:50:13.09Z</time>
      </trkpt>
      <trkpt lat="42.287409" lon="2.423975">
        <ele>1025.60</ele>
        <time>2012-08-22T09:59:48.32Z</time>
      </trkpt>
      <trkpt lat="42.287388" lon="2.424050">
        <ele>1025.60</ele>
        <time>2012-08-22T11:50:38.26Z</time>
      </trkpt>
      <trkpt lat="42.287321" lon="2.424349">
        <ele>1025.60</ele>
        <time>2012-08-22T19:02:25.27Z</time>
      </trkpt>
      <trkpt lat="42.287245" lon="2.424704">
        <ele>1025.60</ele>
        <time>2012-08-23T03:33:11.53Z</time>
      </trkpt>
      <trkpt lat="42.287210" lon="2.424933">
        <ele>1025.60</ele>
        <time>2012-08-23T08:56:22.40Z</time>
      </trkpt>
      <trkpt lat="42.287212" lon="2.425105">
        <ele>1025.60</ele>
        <time>2012-08-23T12:54:07.27Z</time>
      </trkpt>
      <trkpt lat="42.287209" lon="2.425470">
        <ele>1025.60</ele>
        <time>2012-08-23T21:18:36.78Z</time>
      </trkpt>
      <trkpt lat="42.287195" lon="2.425556">
        <ele>1025.60</ele>
        <time>2012-08-23T23:20:18.96Z</time>
      </trkpt>
      <trkpt lat="42.287199" lon="2.426027">
        <ele>1025.60</ele>
        <time>2012-08-24T10:11:19.24Z</time>
      </trkpt>
      <trkpt lat="42.287172" lon="2.426351">
        <ele>1025.60</ele>
        <time>2012-08-24T17:41:56.90Z</time>
      </trkpt>
      <trkpt lat="42.287222" lon="2.426476">
        <ele>1025.60</ele>
        <time>2012-08-24T20:58:20.74Z</time>
      </trkpt>
      <trkpt lat="42.287270" lon="2.426509">
        <ele>1025.60</ele>
        <time>2012-08-24T22:38:57.17Z</time>
      </trkpt>
      <trkpt lat="42.287403" lon="2.426581">
        <ele>1025.60</ele>
        <time>2012-08-25T03:06:36.79Z</time>
      </trkpt>
      <trkpt lat="42.287556" lon="2.426659">
        <ele>1025.60</ele>
        <time>2012-08-25T08:12:06.34Z</time>
      </trkpt>
      <trkpt lat="42.287892" lon="2.426837">
        <ele>1025.60</ele>
        <time>2012-08-25T19:26:19.02Z</time>
      </trkpt>
      <trkpt lat="42.288225" lon="2.426895">
        <ele>1025.60</ele>
        <time>2012-08-26T05:53:34.90Z</time>
      </trkpt>
      <trkpt lat="42.288288" lon="2.426921">
        <ele>1025.60</ele>
        <time>2012-08-26T07:56:38.61Z</time>
      </trkpt>
      <trkpt lat="42.288344" lon="2.426967">
        <ele>1025.60</ele>
        <time>2012-08-26T09:59:03.97Z</time>
      </trkpt>
      <trkpt lat="42.288386" lon="2.427020">
        <ele>1025.60</ele>
        <time>2012-08-26T11:46:24.50Z</time>
      </trkpt>
      <trkpt lat="42.288464" lon="2.427234">
        <ele>1025.60</ele>
        <time>2012-08-26T17:16:07.14Z</time>
      </trkpt>
      <trkpt lat="42.288494" lon="2.427332">
        <ele>1025.60</ele>
        <time>2012-08-26T19:42:41.93Z</time>
      </trkpt>
      <trkpt lat="42.288599" lon="2.427750">
        <ele>1025.60</ele>
        <time>2012-08-27T05:52:47.67Z</time>
      </trkpt>
      <trkpt lat="42.288636" lon="2.427808">
        <ele>1025.60</ele>
        <time>2012-08-27T07:38:38.52Z</time>
      </trkpt>
      <trkpt lat="42.288808" lon="2.427983">
        <ele>1025.60</ele>
        <time>2012-08-27T14:20:49.61Z</time>
      </trkpt>
      <trkpt lat="42.288843" lon="2.428032">
        <ele>1025.60</ele>
        <time>2012-08-27T15:54:57.79Z</time>
      </trkpt>
      <trkpt lat="42.288966" lon="2.428243">
        <ele>1025.60</ele>
        <time>2012-08-27T22:06:14.06Z</time>
      </trkpt>
      <trkpt lat="42.289153" lon="2.428433">
        <ele>1025.60</ele>
        <time>2012-08-28T05:23:16.51Z</time>
      </trkpt>
      <trkpt lat="42.289192" lon="2.428489">
        <ele>1025.60</ele>
        <time>2012-08-28T07:09:34.21Z</time>
      </trkpt>
      <trkpt lat="42.289385" lon="2.428765">
        <ele>1025.60</ele>
        <time>2012-08-28T15:54:27.56Z</time>
      </trkpt>
      <trkpt lat="42.289607" lon="2.428991">
        <ele>1025.60</ele>
        <time>2012-08-29T00:33:39.74Z</time>
      </trkpt>
      <trkpt lat="42.289641" lon="2.429058">
        <ele>1025.60</ele>
        <time>2012-08-29T02:25:57.08Z</time>
      </trkpt>
      <trkpt lat="42.289859" lon="2.429537">
        <ele>1025.60</ele>
        <time>2012-08-29T15:23:11.62Z</time>
      </trkpt>
      <trkpt lat="42.289977" lon="2.429855">
        <ele>1025.60</ele>
        <time>2012-08-29T23:34:52.17Z</time>
      </trkpt>
      <trkpt lat="42.290012" lon="2.430116">
        <ele>1025.60</ele>
        <time>2012-08-30T05:41:27.37Z</time>
      </trkpt>
      <trkpt lat="42.290006" lon="2.430162">
        <ele>1025.60</ele>
        <time>2012-08-30T06:46:00.60Z</time>
      </trkpt>
      <trkpt lat="42.289932" lon="2.430229">
        <ele>1025.60</ele>
        <time>2012-08-30T09:32:24.21Z</time>
      </trkpt>
      <trkpt lat="42.289848" lon="2.430233">
        <ele>1025.60</ele>
        <time>2012-08-30T12:09:25.95Z</time>
      </trkpt>
      <trkpt lat="42.289673" lon="2.430292">
        <ele>1025.60</ele>
        <time>2012-08-30T17:46:23.28Z</time>
      </trkpt>
      <trkpt lat="42.289419" lon="2.430553">
        <ele>1025.60</ele>
        <time>2012-08-31T03:42:27.11Z</time>
      </trkpt>
      <trkpt lat="42.289338" lon="2.430686">
        <ele>1025.60</ele>
        <time>2012-08-31T07:40:32.44Z</time>
      </trkpt>
      <trkpt lat="42.289306" lon="2.430755">
        <ele>1025.60</ele>
        <time>2012-08-31T09:33:05.49Z</time>
      </trkpt>
      <trkpt lat="42.289245" lon="2.430885">
        <ele>1025.60</ele>
        <time>2012-08-31T13:05:51.11Z</time>
      </trkpt>
      <trkpt lat="42.289135" lon="2.431035">
        <ele>1025.60</ele>
        <time>2012-08-31T17:57:45.39Z</time>
      </trkpt>
      <trkpt lat="42.289071" lon="2.431123">
        <ele>1025.60</ele>
        <time>2012-08-31T20:48:18.45Z</time>
      </trkpt>
      <trkpt lat="42.288993" lon="2.431262">
        <ele>1025.60</ele>
        <time>2012-09-01T00:49:25.66Z</time>
      </trkpt>
      <trkpt lat="42.288914" lon="2.431392">
        <ele>1026.00</ele>
        <time>2012-09-01T04:41:56.51Z</time>
      </trkpt>
      <trkpt lat="42.288886" lon="2.431427">
        <ele>1026.40</ele>
        <time>2012-09-01T05:53:11.36Z</time>
      </trkpt>
      <trkpt lat="42.288863" lon="2.431464">
        <ele>1026.80</ele>
        <time>2012-09-01T06:59:58.91Z</time>
      </trkpt>
      <trkpt lat="42.288844" lon="2.431489">
        <ele>1027.40</ele>
        <time>2012-09-01T07:49:31.05Z</time>
      </trkpt>
      <trkpt lat="42.288829" lon="2.431517">
        <ele>1027.80</ele>
        <time>2012-09-01T08:37:17.77Z</time>
      </trkpt>
      <trkpt lat="42.288688" lon="2.431625">
        <ele>1027.80</ele>
        <time>2012-09-01T13:40:03.96Z</time>
      </trkpt>
      <trkpt lat="42.288647" lon="2.431643">
        <ele>1028.20</ele>
        <time>2012-09-01T15:00:36.12Z</time>
      </trkpt>
      <trkpt lat="42.288609" lon="2.431658">
        <ele>1028.60</ele>
        <time>2012-09-01T16:14:33.58Z</time>
      </trkpt>
      <trkpt lat="42.288572" lon="2.431670">
        <ele>1029.00</ele>
        <time>2012-09-01T17:25:38.76Z</time>
      </trkpt>
      <trkpt lat="42.288536" lon="2.431679">
        <ele>1029.40</ele>
        <time>2012-09-01T18:34:02.58Z</time>
      </trkpt>
      <trkpt lat="42.288501" lon="2.431689">
        <ele>1029.80</ele>
        <time>2012-09-01T19:40:52.55Z</time>
      </trkpt>
      <trkpt lat="42.288371" lon="2.431723">
        <ele>1030.20</ele>
        <time>2012-09-01T23:48:15.01Z</time>
      </trkpt>
      <trkpt lat="42.288341" lon="2.431729">
        <ele>1030.60</ele>
        <time>2012-09-02T00:44:54.43Z</time>
      </trkpt>
      <trkpt lat="42.288309" lon="2.431735">
        <ele>1031.00</ele>
        <time>2012-09-02T01:45:15.78Z</time>
      </trkpt>
      <trkpt lat="42.288280" lon="2.431747">
        <ele>1031.40</ele>
        <time>2012-09-02T02:41:55.40Z</time>
      </trkpt>
      <trkpt lat="42.288252" lon="2.431758">
        <ele>1031.80</ele>
        <time>2012-09-02T03:36:23.90Z</time>
      </trkpt>
      <trkpt lat="42.288137" lon="2.431843">
        <ele>1031.80</ele>
        <time>2012-09-02T07:41:15.89Z</time>
      </trkpt>
      <trkpt lat="42.288071" lon="2.431925">
        <ele>1032.20</ele>
        <time>2012-09-02T10:28:44.28Z</time>
      </trkpt>
      <trkpt lat="42.288049" lon="2.431956">
        <ele>1032.60</ele>
        <time>2012-09-02T11:28:06.54Z</time>
      </trkpt>
      <trkpt lat="42.288029" lon="2.431988">
        <ele>1033.00</ele>
        <time>2012-09-02T12:26:00.36Z</time>
      </trkpt>
      <trkpt lat="42.288009" lon="2.432020">
        <ele>1033.40</ele>
        <time>2012-09-02T13:23:54.18Z</time>
      </trkpt>
      <trkpt lat="42.287989" lon="2.432065">
        <ele>1033.80</ele>
        <time>2012-09-02T14:36:27.43Z</time>
      </trkpt>
      <trkpt lat="42.287833" lon="2.432321">
        <ele>1034.20</ele>
        <time>2012-09-02T22:14:50.81Z</time>
      </trkpt>
      <trkpt lat="42.287802" lon="2.432343">
        <ele>1034.60</ele>
        <time>2012-09-02T23:20:15.50Z</time>
      </trkpt>
      <trkpt lat="42.287763" lon="2.432362">
        <ele>1035.00</ele>
        <time>2012-09-03T00:37:42.42Z</time>
      </trkpt>
      <trkpt lat="42.287730" lon="2.432376">
        <ele>1035.60</ele>
        <time>2012-09-03T01:42:19.42Z</time>
      </trkpt>
      <trkpt lat="42.287696" lon="2.432393">
        <ele>1036.00</ele>
        <time>2012-09-03T02:50:02.98Z</time>
      </trkpt>
      <trkpt lat="42.287666" lon="2.432416">
        <ele>1036.00</ele>
        <time>2012-09-03T03:54:29.01Z</time>
      </trkpt>
      <trkpt lat="42.287547" lon="2.432568">
        <ele>1036.00</ele>
        <time>2012-09-03T09:00:21.34Z</time>
      </trkpt>
      <trkpt lat="42.287521" lon="2.432603">
        <ele>1036.40</ele>
        <time>2012-09-03T10:08:54.46Z</time>
      </trkpt>
      <trkpt lat="42.287493" lon="2.432636">
        <ele>1036.80</ele>
        <time>2012-09-03T11:18:18.53Z</time>
      </trkpt>
      <trkpt lat="42.287463" lon="2.432671">
        <ele>1037.20</ele>
        <time>2012-09-03T12:32:20.63Z</time>
      </trkpt>
      <trkpt lat="42.287430" lon="2.432707">
        <ele>1037.60</ele>
        <time>2012-09-03T13:51:34.09Z</time>
      </trkpt>
      <trkpt lat="42.287397" lon="2.432738">
        <ele>1038.00</ele>
        <time>2012-09-03T15:06:38.72Z</time>
      </trkpt>
      <trkpt lat="42.287362" lon="2.432766">
        <ele>1038.00</ele>
        <time>2012-09-03T16:22:37.60Z</time>
      </trkpt>
      <trkpt lat="42.287146" lon="2.432930">
        <ele>1038.00</ele>
        <time>2012-09-04T00:05:27.86Z</time>
      </trkpt>
      <trkpt lat="42.286997" lon="2.433080">
        <ele>1038.00</ele>
        <time>2012-09-04T05:52:32.86Z</time>
      </trkpt>
      <trkpt lat="42.286974" lon="2.433103">
        <ele>1037.60</ele>
        <time>2012-09-04T06:45:59.83Z</time>
      </trkpt>
      <trkpt lat="42.286954" lon="2.433126">
        <ele>1037.00</ele>
        <time>2012-09-04T07:35:03.25Z</time>
      </trkpt>
      <trkpt lat="42.286934" lon="2.433145">
        <ele>1036.60</ele>
        <time>2012-09-04T08:20:43.41Z</time>
      </trkpt>
      <trkpt lat="42.286912" lon="2.433155">
        <ele>1036.20</ele>
        <time>2012-09-04T09:04:05.17Z</time>
      </trkpt>
      <trkpt lat="42.286892" lon="2.433159">
        <ele>1036.20</ele>
        <time>2012-09-04T09:41:51.46Z</time>
      </trkpt>
      <trkpt lat="42.286876" lon="2.433158">
        <ele>1035.80</ele>
        <time>2012-09-04T10:11:46.88Z</time>
      </trkpt>
      <trkpt lat="42.286848" lon="2.433154">
        <ele>1035.80</ele>
        <time>2012-09-04T11:04:22.99Z</time>
      </trkpt>
      <trkpt lat="42.286810" lon="2.433157">
        <ele>1035.80</ele>
        <time>2012-09-04T12:15:29.82Z</time>
      </trkpt>
      <trkpt lat="42.286792" lon="2.433147">
        <ele>1035.80</ele>
        <time>2012-09-04T12:51:51.28Z</time>
      </trkpt>
      <trkpt lat="42.286753" lon="2.433125">
        <ele>1035.40</ele>
        <time>2012-09-04T14:10:48.34Z</time>
      </trkpt>
      <trkpt lat="42.286733" lon="2.433116">
        <ele>1035.00</ele>
        <time>2012-09-04T14:50:11.19Z</time>
      </trkpt>
      <trkpt lat="42.286715" lon="2.433112">
        <ele>1034.60</ele>
        <time>2012-09-04T15:24:15.96Z</time>
      </trkpt>
      <trkpt lat="42.286693" lon="2.433109">
        <ele>1034.00</ele>
        <time>2012-09-04T16:05:34.55Z</time>
      </trkpt>
      <trkpt lat="42.286670" lon="2.433110">
        <ele>1033.60</ele>
        <time>2012-09-04T16:48:34.04Z</time>
      </trkpt>
      <trkpt lat="42.286578" lon="2.433116">
        <ele>1033.60</ele>
        <time>2012-09-04T19:40:38.69Z</time>
      </trkpt>
      <trkpt lat="42.286483" lon="2.433132">
        <ele>1033.20</ele>
        <time>2012-09-04T22:39:29.96Z</time>
      </trkpt>
      <trkpt lat="42.286451" lon="2.433147">
        <ele>1032.80</ele>
        <time>2012-09-04T23:42:46.52Z</time>
      </trkpt>
      <trkpt lat="42.286423" lon="2.433165">
        <ele>1032.20</ele>
        <time>2012-09-05T00:40:42.02Z</time>
      </trkpt>
      <trkpt lat="42.286397" lon="2.433181">
        <ele>1031.80</ele>
        <time>2012-09-05T01:34:04.27Z</time>
      </trkpt>
      <trkpt lat="42.286370" lon="2.433194">
        <ele>1031.40</ele>
        <time>2012-09-05T02:27:37.07Z</time>
      </trkpt>
      <trkpt lat="42.286342" lon="2.433200">
        <ele>1031.40</ele>
        <time>2012-09-05T03:20:34.90Z</time>
      </trkpt>
      <trkpt lat="42.286315" lon="2.433206">
        <ele>1031.00</ele>
        <time>2012-09-05T04:11:42.06Z</time>
      </trkpt>
      <trkpt lat="42.286287" lon="2.433215">
        <ele>1030.60</ele>
        <time>2012-09-05T05:05:28.21Z</time>
      </trkpt>
      <trkpt lat="42.286258" lon="2.433215">
        <ele>1030.20</ele>
        <time>2012-09-05T05:59:38.94Z</time>
      </trkpt>
      <trkpt lat="42.286227" lon="2.433220">
        <ele>1029.80</ele>
        <time>2012-09-05T06:57:58.50Z</time>
      </trkpt>
      <trkpt lat="42.286199" lon="2.433235">
        <ele>1029.40</ele>
        <time>2012-09-05T07:54:14.64Z</time>
      </trkpt>
      <trkpt lat="42.286076" lon="2.433344">
        <ele>1029.00</ele>
        <time>2012-09-05T12:29:01Z</time>
      </trkpt>
      <trkpt lat="42.286045" lon="2.433363">
        <ele>1028.60</ele>
        <time>2012-09-05T13:32:36.44Z</time>
      </trkpt>
      <trkpt lat="42.286013" lon="2.433377">
        <ele>1028.20</ele>
        <time>2012-09-05T14:35:26.65Z</time>
      </trkpt>
      <trkpt lat="42.285983" lon="2.433395">
        <ele>1027.80</ele>
        <time>2012-09-05T15:36:45.86Z</time>
      </trkpt>
      <trkpt lat="42.285953" lon="2.433419">
        <ele>1027.20</ele>
        <time>2012-09-05T16:41:53.50Z</time>
      </trkpt>
      <trkpt lat="42.285841" lon="2.433523">
        <ele>1026.80</ele>
        <time>2012-09-05T20:55:44.92Z</time>
      </trkpt>
      <trkpt lat="42.285802" lon="2.433558">
        <ele>1026.20</ele>
        <time>2012-09-05T22:23:12.36Z</time>
      </trkpt>
      <trkpt lat="42.285774" lon="2.433592">
        <ele>1025.80</ele>
        <time>2012-09-05T23:33:31.45Z</time>
      </trkpt>
      <trkpt lat="42.285751" lon="2.433622">
        <ele>1025.20</ele>
        <time>2012-09-06T00:33:14.20Z</time>
      </trkpt>
      <trkpt lat="42.285727" lon="2.433643">
        <ele>1024.80</ele>
        <time>2012-09-06T01:26:38.91Z</time>
      </trkpt>
      <trkpt lat="42.285703" lon="2.433659">
        <ele>1024.40</ele>
        <time>2012-09-06T02:16:38.57Z</time>
      </trkpt>
      <trkpt lat="42.285660" lon="2.433688">
        <ele>1023.40</ele>
        <time>2012-09-06T03:46:25.25Z</time>
      </trkpt>
      <trkpt lat="42.285639" lon="2.433707">
        <ele>1023.00</ele>
        <time>2012-09-06T04:33:37.87Z</time>
      </trkpt>
      <trkpt lat="42.285617" lon="2.433730">
        <ele>1022.60</ele>
        <time>2012-09-06T05:25:35.46Z</time>
      </trkpt>
      <trkpt lat="42.285489" lon="2.433883">
        <ele>1022.20</ele>
        <time>2012-09-06T10:44:48.74Z</time>
      </trkpt>
      <trkpt lat="42.285461" lon="2.433919">
        <ele>1021.60</ele>
        <time>2012-09-06T11:57:00.43Z</time>
      </trkpt>
      <trkpt lat="42.285438" lon="2.433962">
        <ele>1021.20</ele>
        <time>2012-09-06T13:10:20.70Z</time>
      </trkpt>
      <trkpt lat="42.285414" lon="2.434003">
        <ele>1020.80</ele>
        <time>2012-09-06T14:22:36.33Z</time>
      </trkpt>
      <trkpt lat="42.285388" lon="2.434039">
        <ele>1020.20</ele>
        <time>2012-09-06T15:32:08.44Z</time>
      </trkpt>
      <trkpt lat="42.285357" lon="2.434073">
        <ele>1020.20</ele>
        <time>2012-09-06T16:46:43.35Z</time>
      </trkpt>
      <trkpt lat="42.285323" lon="2.434108">
        <ele>1019.80</ele>
        <time>2012-09-06T18:06:33.91Z</time>
      </trkpt>
      <trkpt lat="42.285289" lon="2.434144">
        <ele>1019.20</ele>
        <time>2012-09-06T19:27:15.17Z</time>
      </trkpt>
      <trkpt lat="42.285255" lon="2.434186">
        <ele>1018.80</ele>
        <time>2012-09-06T20:53:18.14Z</time>
      </trkpt>
      <trkpt lat="42.285223" lon="2.434221">
        <ele>1018.40</ele>
        <time>2012-09-06T22:10:12.35Z</time>
      </trkpt>
      <trkpt lat="42.285193" lon="2.434253">
        <ele>1017.80</ele>
        <time>2012-09-06T23:21:36.11Z</time>
      </trkpt>
      <trkpt lat="42.285164" lon="2.434281">
        <ele>1017.80</ele>
        <time>2012-09-07T00:28:10.96Z</time>
      </trkpt>
      <trkpt lat="42.285139" lon="2.434300">
        <ele>1017.40</ele>
        <time>2012-09-07T01:21:45.88Z</time>
      </trkpt>
      <trkpt lat="42.285121" lon="2.434324">
        <ele>1017.00</ele>
        <time>2012-09-07T02:09:00.01Z</time>
      </trkpt>
      <trkpt lat="42.285106" lon="2.434349">
        <ele>1016.40</ele>
        <time>2012-09-07T02:53:29.33Z</time>
      </trkpt>
      <trkpt lat="42.285083" lon="2.434394">
        <ele>1016.00</ele>
        <time>2012-09-07T04:09:05.06Z</time>
      </trkpt>
      <trkpt lat="42.285078" lon="2.434417">
        <ele>1015.60</ele>
        <time>2012-09-07T04:42:13.05Z</time>
      </trkpt>
      <trkpt lat="42.285081" lon="2.434466">
        <ele>1015.60</ele>
        <time>2012-09-07T05:50:10.40Z</time>
      </trkpt>
      <trkpt lat="42.285085" lon="2.434466">
        <ele>1015.60</ele>
        <time>2012-09-07T06:06:59.25Z</time>
      </trkpt>
      <trkpt lat="42.285092" lon="2.434504">
        <ele>1015.60</ele>
        <time>2012-09-07T07:01:06.73Z</time>
      </trkpt>
      <trkpt lat="42.285111" lon="2.434569">
        <ele>1015.60</ele>
        <time>2012-09-07T08:37:42.54Z</time>
      </trkpt>
      <trkpt lat="42.285135" lon="2.434639">
        <ele>1015.00</ele>
        <time>2012-09-07T10:24:20.57Z</time>
      </trkpt>
      <trkpt lat="42.285162" lon="2.434715">
        <ele>1014.60</ele>
        <time>2012-09-07T12:20:52.11Z</time>
      </trkpt>
      <trkpt lat="42.285188" lon="2.434791">
        <ele>1014.20</ele>
        <time>2012-09-07T14:16:35.85Z</time>
      </trkpt>
      <trkpt lat="42.285214" lon="2.434853">
        <ele>1013.60</ele>
        <time>2012-09-07T15:55:05.95Z</time>
      </trkpt>
      <trkpt lat="42.285249" lon="2.434902">
        <ele>1013.20</ele>
        <time>2012-09-07T17:29:14.30Z</time>
      </trkpt>
      <trkpt lat="42.285415" lon="2.434998">
        <ele>1013.20</ele>
        <time>2012-09-07T23:06:33.40Z</time>
      </trkpt>
      <trkpt lat="42.285453" lon="2.435005">
        <ele>1013.20</ele>
        <time>2012-09-08T00:18:12.34Z</time>
      </trkpt>
      <trkpt lat="42.285604" lon="2.435043">
        <ele>1013.20</ele>
        <time>2012-09-08T05:05:09.38Z</time>
      </trkpt>
      <trkpt lat="42.285663" lon="2.435060">
        <ele>1013.20</ele>
        <time>2012-09-08T06:57:51.51Z</time>
      </trkpt>
      <trkpt lat="42.285750" lon="2.435074">
        <ele>1013.20</ele>
        <time>2012-09-08T09:41:32.55Z</time>
      </trkpt>
      <trkpt lat="42.285806" lon="2.435083">
        <ele>1013.20</ele>
        <time>2012-09-08T11:26:54.03Z</time>
      </trkpt>
      <trkpt lat="42.285861" lon="2.435086">
        <ele>1013.20</ele>
        <time>2012-09-08T13:09:44.22Z</time>
      </trkpt>
      <trkpt lat="42.285890" lon="2.435086">
        <ele>1013.60</ele>
        <time>2012-09-08T14:03:54.94Z</time>
      </trkpt>
      <trkpt lat="42.285917" lon="2.435089">
        <ele>1014.00</ele>
        <time>2012-09-08T14:54:31.69Z</time>
      </trkpt>
      <trkpt lat="42.285942" lon="2.435095">
        <ele>1014.60</ele>
        <time>2012-09-08T15:41:57.87Z</time>
      </trkpt>
      <trkpt lat="42.285969" lon="2.435101">
        <ele>1015.00</ele>
        <time>2012-09-08T16:33:05.03Z</time>
      </trkpt>
      <trkpt lat="42.285995" lon="2.435105">
        <ele>1015.40</ele>
        <time>2012-09-08T17:21:58.29Z</time>
      </trkpt>
      <trkpt lat="42.286019" lon="2.435107">
        <ele>1015.40</ele>
        <time>2012-09-08T18:06:53.66Z</time>
      </trkpt>
      <trkpt lat="42.286095" lon="2.435136">
        <ele>1015.40</ele>
        <time>2012-09-08T20:34:25.73Z</time>
      </trkpt>
      <trkpt lat="42.286116" lon="2.435137">
        <ele>1015.80</ele>
        <time>2012-09-08T21:13:41.17Z</time>
      </trkpt>
      <trkpt lat="42.286133" lon="2.435139">
        <ele>1016.20</ele>
        <time>2012-09-08T21:45:33.97Z</time>
      </trkpt>
      <trkpt lat="42.286150" lon="2.435149">
        <ele>1016.80</ele>
        <time>2012-09-08T22:20:12.18Z</time>
      </trkpt>
      <trkpt lat="42.286169" lon="2.435163">
        <ele>1017.20</ele>
        <time>2012-09-08T23:00:37.85Z</time>
      </trkpt>
      <trkpt lat="42.286187" lon="2.435180">
        <ele>1017.60</ele>
        <time>2012-09-08T23:41:39.24Z</time>
      </trkpt>
      <trkpt lat="42.286270" lon="2.435304">
        <ele>1017.60</ele>
        <time>2012-09-09T03:32:46.40Z</time>
      </trkpt>
      <trkpt lat="42.286431" lon="2.435500">
        <ele>1017.60</ele>
        <time>2012-09-09T10:17:33.77Z</time>
      </trkpt>
      <trkpt lat="42.286517" lon="2.435627">
        <ele>1017.60</ele>
        <time>2012-09-09T14:15:31.24Z</time>
      </trkpt>
      <trkpt lat="42.286544" lon="2.435728">
        <ele>1017.60</ele>
        <time>2012-09-09T16:43:56.81Z</time>
      </trkpt>
      <trkpt lat="42.286579" lon="2.435865">
        <ele>1017.20</ele>
        <time>2012-09-09T20:04:16.01Z</time>
      </trkpt>
      <trkpt lat="42.286588" lon="2.435894">
        <ele>1016.80</ele>
        <time>2012-09-09T20:47:43.90Z</time>
      </trkpt>
      <trkpt lat="42.286600" lon="2.435930">
        <ele>1016.20</ele>
        <time>2012-09-09T21:42:18.28Z</time>
      </trkpt>
      <trkpt lat="42.286616" lon="2.435967">
        <ele>1015.80</ele>
        <time>2012-09-09T22:41:32.27Z</time>
      </trkpt>
      <trkpt lat="42.286631" lon="2.436002">
        <ele>1015.40</ele>
        <time>2012-09-09T23:37:26.53Z</time>
      </trkpt>
      <trkpt lat="42.286690" lon="2.436088">
        <ele>1015.00</ele>
        <time>2012-09-10T02:19:32.73Z</time>
      </trkpt>
      <trkpt lat="42.286718" lon="2.436113">
        <ele>1014.60</ele>
        <time>2012-09-10T03:22:14.24Z</time>
      </trkpt>
      <trkpt lat="42.286742" lon="2.436136">
        <ele>1014.20</ele>
        <time>2012-09-10T04:17:12Z</time>
      </trkpt>
      <trkpt lat="42.286762" lon="2.436157">
        <ele>1013.80</ele>
        <time>2012-09-10T05:04:30.77Z</time>
      </trkpt>
      <trkpt lat="42.286786" lon="2.436176">
        <ele>1013.40</ele>
        <time>2012-09-10T05:56:28.46Z</time>
      </trkpt>
      <trkpt lat="42.286809" lon="2.436198">
        <ele>1013.00</ele>
        <time>2012-09-10T06:49:06.81Z</time>
      </trkpt>
      <trkpt lat="42.286829" lon="2.436222">
        <ele>1012.60</ele>
        <time>2012-09-10T07:39:04.64Z</time>
      </trkpt>
      <trkpt lat="42.286849" lon="2.436244">
        <ele>1012.20</ele>
        <time>2012-09-10T08:27:15.03Z</time>
      </trkpt>
      <trkpt lat="42.286866" lon="2.436269">
        <ele>1011.80</ele>
        <time>2012-09-10T09:14:10.91Z</time>
      </trkpt>
      <trkpt lat="42.286892" lon="2.436299">
        <ele>1011.40</ele>
        <time>2012-09-10T10:18:02.75Z</time>
      </trkpt>
      <trkpt lat="42.286920" lon="2.436334">
        <ele>1010.80</ele>
        <time>2012-09-10T11:29:17.66Z</time>
      </trkpt>
      <trkpt lat="42.286953" lon="2.436369">
        <ele>1010.40</ele>
        <time>2012-09-10T12:47:39.49Z</time>
      </trkpt>
      <trkpt lat="42.286987" lon="2.436399">
        <ele>1010.00</ele>
        <time>2012-09-10T14:03:30.77Z</time>
      </trkpt>
      <trkpt lat="42.287016" lon="2.436422">
        <ele>1009.40</ele>
        <time>2012-09-10T15:06:19.72Z</time>
      </trkpt>
      <trkpt lat="42.287040" lon="2.436442">
        <ele>1009.00</ele>
        <time>2012-09-10T15:59:00.12Z</time>
      </trkpt>
      <trkpt lat="42.287060" lon="2.436455">
        <ele>1008.40</ele>
        <time>2012-09-10T16:40:27.72Z</time>
      </trkpt>
      <trkpt lat="42.287068" lon="2.436461">
        <ele>1007.80</ele>
        <time>2012-09-10T16:57:33.26Z</time>
      </trkpt>
      <trkpt lat="42.287086" lon="2.436485">
        <ele>1006.80</ele>
        <time>2012-09-10T17:44:47.34Z</time>
      </trkpt>
      <trkpt lat="42.287107" lon="2.436507">
        <ele>1006.80</ele>
        <time>2012-09-10T18:34:25.50Z</time>
      </trkpt>
      <trkpt lat="42.287185" lon="2.436572">
        <ele>1006.80</ele>
        <time>2012-09-10T21:25:36.79Z</time>
      </trkpt>
      <trkpt lat="42.287220" lon="2.436631">
        <ele>1006.80</ele>
        <time>2012-09-10T23:10:08.12Z</time>
      </trkpt>
      <trkpt lat="42.287236" lon="2.436663">
        <ele>1006.20</ele>
        <time>2012-09-11T00:03:30.97Z</time>
      </trkpt>
      <trkpt lat="42.287252" lon="2.436692">
        <ele>1005.80</ele>
        <time>2012-09-11T00:53:30.94Z</time>
      </trkpt>
      <trkpt lat="42.287273" lon="2.436716">
        <ele>1005.40</ele>
        <time>2012-09-11T01:44:53.49Z</time>
      </trkpt>
      <trkpt lat="42.287294" lon="2.436735">
        <ele>1004.80</ele>
        <time>2012-09-11T02:32:06.09Z</time>
      </trkpt>
      <trkpt lat="42.287314" lon="2.436753">
        <ele>1004.40</ele>
        <time>2012-09-11T03:16:59.42Z</time>
      </trkpt>
      <trkpt lat="42.287368" lon="2.436819">
        <ele>1004.00</ele>
        <time>2012-09-11T05:32:59.93Z</time>
      </trkpt>
      <trkpt lat="42.287385" lon="2.436843">
        <ele>1003.60</ele>
        <time>2012-09-11T06:18:55.32Z</time>
      </trkpt>
      <trkpt lat="42.287407" lon="2.436869">
        <ele>1003.20</ele>
        <time>2012-09-11T07:13:30.99Z</time>
      </trkpt>
      <trkpt lat="42.287427" lon="2.436896">
        <ele>1002.80</ele>
        <time>2012-09-11T08:06:19.43Z</time>
      </trkpt>
      <trkpt lat="42.287446" lon="2.436924">
        <ele>1002.40</ele>
        <time>2012-09-11T08:58:50.17Z</time>
      </trkpt>
      <trkpt lat="42.287493" lon="2.436982">
        <ele>1001.80</ele>
        <time>2012-09-11T10:57:43.81Z</time>
      </trkpt>
      <trkpt lat="42.287514" lon="2.437010">
        <ele>1001.40</ele>
        <time>2012-09-11T11:52:50.23Z</time>
      </trkpt>
      <trkpt lat="42.287533" lon="2.437040">
        <ele>1001.00</ele>
        <time>2012-09-11T12:47:25.10Z</time>
      </trkpt>
      <trkpt lat="42.287552" lon="2.437072">
        <ele>1000.40</ele>
        <time>2012-09-11T13:44:07.68Z</time>
      </trkpt>
      <trkpt lat="42.287571" lon="2.437105">
        <ele>1000.00</ele>
        <time>2012-09-11T14:41:55.31Z</time>
      </trkpt>
      <trkpt lat="42.287607" lon="2.437191">
        <ele>999.60</ele>
        <time>2012-09-11T16:58:29.38Z</time>
      </trkpt>
      <trkpt lat="42.287625" lon="2.437240">
        <ele>999.00</ele>
        <time>2012-09-11T18:14:06.07Z</time>
      </trkpt>
      <trkpt lat="42.287638" lon="2.437287">
        <ele>998.60</ele>
        <time>2012-09-11T19:23:27.03Z</time>
      </trkpt>
      <trkpt lat="42.287644" lon="2.437338">
        <ele>998.20</ele>
        <time>2012-09-11T20:34:49.33Z</time>
      </trkpt>
      <trkpt lat="42.287656" lon="2.437392">
        <ele>997.60</ele>
        <time>2012-09-11T21:52:44.92Z</time>
      </trkpt>
      <trkpt lat="42.287695" lon="2.437483">
        <ele>997.20</ele>
        <time>2012-09-12T00:18:05.89Z</time>
      </trkpt>
      <trkpt lat="42.287710" lon="2.437526">
        <ele>996.80</ele>
        <time>2012-09-12T01:23:48.19Z</time>
      </trkpt>
      <trkpt lat="42.287719" lon="2.437569">
        <ele>996.40</ele>
        <time>2012-09-12T02:25:33.91Z</time>
      </trkpt>
      <trkpt lat="42.287735" lon="2.437609">
        <ele>996.00</ele>
        <time>2012-09-12T03:28:24.71Z</time>
      </trkpt>
      <trkpt lat="42.287749" lon="2.437647">
        <ele>995.60</ele>
        <time>2012-09-12T04:27:04.99Z</time>
      </trkpt>
      <trkpt lat="42.287789" lon="2.437728">
        <ele>995.20</ele>
        <time>2012-09-12T06:41:40.91Z</time>
      </trkpt>
      <trkpt lat="42.287806" lon="2.437776">
        <ele>994.60</ele>
        <time>2012-09-12T07:55:13.91Z</time>
      </trkpt>
      <trkpt lat="42.287816" lon="2.437829">
        <ele>994.20</ele>
        <time>2012-09-12T09:10:49.59Z</time>
      </trkpt>
      <trkpt lat="42.287824" lon="2.437875">
        <ele>993.80</ele>
        <time>2012-09-12T10:16:08.10Z</time>
      </trkpt>
      <trkpt lat="42.287824" lon="2.437927">
        <ele>993.40</ele>
        <time>2012-09-12T11:28:00.16Z</time>
      </trkpt>
      <trkpt lat="42.287838" lon="2.438085">
        <ele>993.00</ele>
        <time>2012-09-12T15:07:55.84Z</time>
      </trkpt>
      <trkpt lat="42.287840" lon="2.438139">
        <ele>992.60</ele>
        <time>2012-09-12T16:22:39.36Z</time>
      </trkpt>
      <trkpt lat="42.287836" lon="2.438194">
        <ele>992.20</ele>
        <time>2012-09-12T17:39:02.17Z</time>
      </trkpt>
      <trkpt lat="42.287838" lon="2.438254">
        <ele>991.80</ele>
        <time>2012-09-12T19:02:02.68Z</time>
      </trkpt>
      <trkpt lat="42.287845" lon="2.438310">
        <ele>991.40</ele>
        <time>2012-09-12T20:20:32.26Z</time>
      </trkpt>
      <trkpt lat="42.287848" lon="2.438423">
        <ele>990.80</ele>
        <time>2012-09-12T22:56:48.73Z</time>
      </trkpt>
      <trkpt lat="42.287847" lon="2.438476">
        <ele>990.40</ele>
        <time>2012-09-13T00:10:05.14Z</time>
      </trkpt>
      <trkpt lat="42.287840" lon="2.438529">
        <ele>990.00</ele>
        <time>2012-09-13T01:24:29.62Z</time>
      </trkpt>
      <trkpt lat="42.287836" lon="2.438579">
        <ele>989.60</ele>
        <time>2012-09-13T02:34:00Z</time>
      </trkpt>
      <trkpt lat="42.287835" lon="2.438626">
        <ele>989.20</ele>
        <time>2012-09-13T03:38:59.05Z</time>
      </trkpt>
      <trkpt lat="42.287808" lon="2.438774">
        <ele>988.80</ele>
        <time>2012-09-13T07:09:39.51Z</time>
      </trkpt>
      <trkpt lat="42.287797" lon="2.438823">
        <ele>988.40</ele>
        <time>2012-09-13T08:20:25.77Z</time>
      </trkpt>
      <trkpt lat="42.287788" lon="2.438874">
        <ele>988.40</ele>
        <time>2012-09-13T09:32:53.57Z</time>
      </trkpt>
      <trkpt lat="42.287779" lon="2.438923">
        <ele>988.00</ele>
        <time>2012-09-13T10:42:40.23Z</time>
      </trkpt>
      <trkpt lat="42.287766" lon="2.438973">
        <ele>987.60</ele>
        <time>2012-09-13T11:55:55.07Z</time>
      </trkpt>
      <trkpt lat="42.287752" lon="2.439018">
        <ele>987.00</ele>
        <time>2012-09-13T13:03:23.22Z</time>
      </trkpt>
      <trkpt lat="42.287717" lon="2.439180">
        <ele>986.60</ele>
        <time>2012-09-13T16:56:38.14Z</time>
      </trkpt>
      <trkpt lat="42.287705" lon="2.439217">
        <ele>986.00</ele>
        <time>2012-09-13T17:52:28.25Z</time>
      </trkpt>
      <trkpt lat="42.287694" lon="2.439266">
        <ele>985.40</ele>
        <time>2012-09-13T19:03:14.51Z</time>
      </trkpt>
      <trkpt lat="42.287676" lon="2.439311">
        <ele>985.00</ele>
        <time>2012-09-13T20:13:56.67Z</time>
      </trkpt>
      <trkpt lat="42.287659" lon="2.439363">
        <ele>984.40</ele>
        <time>2012-09-13T21:32:31.04Z</time>
      </trkpt>
      <trkpt lat="42.287642" lon="2.439410">
        <ele>983.80</ele>
        <time>2012-09-13T22:44:49.41Z</time>
      </trkpt>
      <trkpt lat="42.287616" lon="2.439452">
        <ele>983.40</ele>
        <time>2012-09-14T00:00:30.78Z</time>
      </trkpt>
      <trkpt lat="42.287599" lon="2.439492">
        <ele>982.80</ele>
        <time>2012-09-14T01:04:16.18Z</time>
      </trkpt>
      <trkpt lat="42.287586" lon="2.439521">
        <ele>982.20</ele>
        <time>2012-09-14T01:51:08.05Z</time>
      </trkpt>
      <trkpt lat="42.287562" lon="2.439583">
        <ele>982.20</ele>
        <time>2012-09-14T03:27:50.70Z</time>
      </trkpt>
      <trkpt lat="42.287502" lon="2.439677">
        <ele>981.80</ele>
        <time>2012-09-14T06:19:26.08Z</time>
      </trkpt>
      <trkpt lat="42.287485" lon="2.439710">
        <ele>981.40</ele>
        <time>2012-09-14T07:15:00.72Z</time>
      </trkpt>
      <trkpt lat="42.287469" lon="2.439746">
        <ele>981.00</ele>
        <time>2012-09-14T08:13:03.33Z</time>
      </trkpt>
      <trkpt lat="42.287454" lon="2.439787">
        <ele>980.60</ele>
        <time>2012-09-14T09:16:16.29Z</time>
      </trkpt>
      <trkpt lat="42.287441" lon="2.439833">
        <ele>980.20</ele>
        <time>2012-09-14T10:24:19.70Z</time>
      </trkpt>
      <trkpt lat="42.287397" lon="2.440046">
        <ele>979.80</ele>
        <time>2012-09-14T15:29:58.37Z</time>
      </trkpt>
      <trkpt lat="42.287395" lon="2.440100">
        <ele>979.40</ele>
        <time>2012-09-14T16:44:41.92Z</time>
      </trkpt>
      <trkpt lat="42.287395" lon="2.440149">
        <ele>979.00</ele>
        <time>2012-09-14T17:52:25.23Z</time>
      </trkpt>
      <trkpt lat="42.287393" lon="2.440190">
        <ele>978.60</ele>
        <time>2012-09-14T18:49:12.53Z</time>
      </trkpt>
      <trkpt lat="42.287398" lon="2.440237">
        <ele>978.20</ele>
        <time>2012-09-14T19:54:50.09Z</time>
      </trkpt>
      <trkpt lat="42.287407" lon="2.440285">
        <ele>978.20</ele>
        <time>2012-09-14T21:03:16.34Z</time>
      </trkpt>
      <trkpt lat="42.287417" lon="2.440332">
        <ele>977.80</ele>
        <time>2012-09-14T22:10:51.80Z</time>
      </trkpt>
      <trkpt lat="42.287433" lon="2.440389">
        <ele>977.20</ele>
        <time>2012-09-14T23:35:07.33Z</time>
      </trkpt>
      <trkpt lat="42.287455" lon="2.440462">
        <ele>976.80</ele>
        <time>2012-09-15T01:24:03.88Z</time>
      </trkpt>
      <trkpt lat="42.287485" lon="2.440540">
        <ele>976.40</ele>
        <time>2012-09-15T03:25:33.96Z</time>
      </trkpt>
      <trkpt lat="42.287499" lon="2.440609">
        <ele>976.00</ele>
        <time>2012-09-15T05:04:27.07Z</time>
      </trkpt>
      <trkpt lat="42.287536" lon="2.440673">
        <ele>975.60</ele>
        <time>2012-09-15T06:56:42.62Z</time>
      </trkpt>
      <trkpt lat="42.287586" lon="2.440735">
        <ele>975.20</ele>
        <time>2012-09-15T09:03:28.27Z</time>
      </trkpt>
      <trkpt lat="42.287639" lon="2.440787">
        <ele>974.80</ele>
        <time>2012-09-15T11:05:49.20Z</time>
      </trkpt>
      <trkpt lat="42.287690" lon="2.440833">
        <ele>974.40</ele>
        <time>2012-09-15T13:00:21.78Z</time>
      </trkpt>
      <trkpt lat="42.287742" lon="2.440871">
        <ele>974.00</ele>
        <time>2012-09-15T14:50:47.91Z</time>
      </trkpt>
      <trkpt lat="42.287785" lon="2.440906">
        <ele>974.00</ele>
        <time>2012-09-15T16:24:34.31Z</time>
      </trkpt>
      <trkpt lat="42.287934" lon="2.441039">
        <ele>974.00</ele>
        <time>2012-09-15T21:58:09.16Z</time>
      </trkpt>
      <trkpt lat="42.288020" lon="2.441137">
        <ele>973.60</ele>
        <time>2012-09-16T01:28:17.57Z</time>
      </trkpt>
      <trkpt lat="42.288038" lon="2.441170">
        <ele>973.00</ele>
        <time>2012-09-16T02:24:57.50Z</time>
      </trkpt>
      <trkpt lat="42.288054" lon="2.441209">
        <ele>972.60</ele>
        <time>2012-09-16T03:26:35.55Z</time>
      </trkpt>
      <trkpt lat="42.288071" lon="2.441249">
        <ele>972.00</ele>
        <time>2012-09-16T04:30:20.93Z</time>
      </trkpt>
      <trkpt lat="42.288091" lon="2.441288">
        <ele>971.60</ele>
        <time>2012-09-16T05:35:56.03Z</time>
      </trkpt>
      <trkpt lat="42.288136" lon="2.441369">
        <ele>971.20</ele>
        <time>2012-09-16T07:55:56.03Z</time>
      </trkpt>
      <trkpt lat="42.288163" lon="2.441408">
        <ele>970.80</ele>
        <time>2012-09-16T09:09:45.35Z</time>
      </trkpt>
      <trkpt lat="42.288195" lon="2.441446">
        <ele>970.40</ele>
        <time>2012-09-16T10:29:19.88Z</time>
      </trkpt>
      <trkpt lat="42.288227" lon="2.441487">
        <ele>970.00</ele>
        <time>2012-09-16T11:51:42.12Z</time>
      </trkpt>
      <trkpt lat="42.288258" lon="2.441530">
        <ele>969.60</ele>
        <time>2012-09-16T13:14:41.01Z</time>
      </trkpt>
      <trkpt lat="42.288468" lon="2.441702">
        <ele>969.60</ele>
        <time>2012-09-16T20:53:24.61Z</time>
      </trkpt>
      <trkpt lat="42.288561" lon="2.441772">
        <ele>969.60</ele>
        <time>2012-09-17T00:12:16.46Z</time>
      </trkpt>
      <trkpt lat="42.288592" lon="2.441801">
        <ele>969.20</ele>
        <time>2012-09-17T01:22:42.33Z</time>
      </trkpt>
      <trkpt lat="42.288610" lon="2.441833">
        <ele>968.80</ele>
        <time>2012-09-17T02:18:15.85Z</time>
      </trkpt>
      <trkpt lat="42.288619" lon="2.441863">
        <ele>968.40</ele>
        <time>2012-09-17T03:03:00.32Z</time>
      </trkpt>
      <trkpt lat="42.288632" lon="2.441894">
        <ele>968.00</ele>
        <time>2012-09-17T03:52:15.25Z</time>
      </trkpt>
      <trkpt lat="42.288649" lon="2.441924">
        <ele>967.60</ele>
        <time>2012-09-17T04:44:28.93Z</time>
      </trkpt>
      <trkpt lat="42.288663" lon="2.441960">
        <ele>967.60</ele>
        <time>2012-09-17T05:40:41.52Z</time>
      </trkpt>
      <trkpt lat="42.288699" lon="2.442099">
        <ele>967.20</ele>
        <time>2012-09-17T09:04:13.81Z</time>
      </trkpt>
      <trkpt lat="42.288707" lon="2.442146">
        <ele>966.80</ele>
        <time>2012-09-17T10:10:53.04Z</time>
      </trkpt>
      <trkpt lat="42.288717" lon="2.442193">
        <ele>966.20</ele>
        <time>2012-09-17T11:18:28.42Z</time>
      </trkpt>
      <trkpt lat="42.288728" lon="2.442234">
        <ele>965.80</ele>
        <time>2012-09-17T12:18:44.95Z</time>
      </trkpt>
      <trkpt lat="42.288737" lon="2.442268">
        <ele>965.40</ele>
        <time>2012-09-17T13:08:39.40Z</time>
      </trkpt>
      <trkpt lat="42.288750" lon="2.442297">
        <ele>965.00</ele>
        <time>2012-09-17T13:55:31.23Z</time>
      </trkpt>
      <trkpt lat="42.288762" lon="2.442328">
        <ele>964.60</ele>
        <time>2012-09-17T14:43:52.51Z</time>
      </trkpt>
      <trkpt lat="42.288775" lon="2.442362">
        <ele>964.00</ele>
        <time>2012-09-17T15:36:46.21Z</time>
      </trkpt>
      <trkpt lat="42.288789" lon="2.442402">
        <ele>963.60</ele>
        <time>2012-09-17T16:37:55.64Z</time>
      </trkpt>
      <trkpt lat="42.288803" lon="2.442440">
        <ele>963.20</ele>
        <time>2012-09-17T17:36:35.87Z</time>
      </trkpt>
      <trkpt lat="42.288833" lon="2.442516">
        <ele>963.20</ele>
        <time>2012-09-17T19:35:39.09Z</time>
      </trkpt>
      <trkpt lat="42.288882" lon="2.442610">
        <ele>962.60</ele>
        <time>2012-09-17T22:14:34.65Z</time>
      </trkpt>
      <trkpt lat="42.288898" lon="2.442631">
        <ele>962.20</ele>
        <time>2012-09-17T22:56:14.46Z</time>
      </trkpt>
      <trkpt lat="42.288915" lon="2.442655">
        <ele>961.60</ele>
        <time>2012-09-17T23:42:09.82Z</time>
      </trkpt>
      <trkpt lat="42.288932" lon="2.442680">
        <ele>961.20</ele>
        <time>2012-09-18T00:29:05.65Z</time>
      </trkpt>
      <trkpt lat="42.288951" lon="2.442708">
        <ele>960.60</ele>
        <time>2012-09-18T01:21:36.35Z</time>
      </trkpt>
      <trkpt lat="42.289014" lon="2.442801">
        <ele>960.20</ele>
        <time>2012-09-18T04:15:53.06Z</time>
      </trkpt>
      <trkpt lat="42.289044" lon="2.442826">
        <ele>959.60</ele>
        <time>2012-09-18T05:21:43.53Z</time>
      </trkpt>
      <trkpt lat="42.289072" lon="2.442856">
        <ele>959.20</ele>
        <time>2012-09-18T06:28:28.47Z</time>
      </trkpt>
      <trkpt lat="42.289098" lon="2.442886">
        <ele>958.60</ele>
        <time>2012-09-18T07:32:20.25Z</time>
      </trkpt>
      <trkpt lat="42.289118" lon="2.442916">
        <ele>958.20</ele>
        <time>2012-09-18T08:28:09.06Z</time>
      </trkpt>
      <trkpt lat="42.289159" lon="2.442967">
        <ele>957.80</ele>
        <time>2012-09-18T10:12:14.60Z</time>
      </trkpt>
      <trkpt lat="42.289180" lon="2.442989">
        <ele>957.40</ele>
        <time>2012-09-18T11:01:52.73Z</time>
      </trkpt>
      <trkpt lat="42.289206" lon="2.443014">
        <ele>957.00</ele>
        <time>2012-09-18T12:01:29.26Z</time>
      </trkpt>
      <trkpt lat="42.289243" lon="2.443042">
        <ele>956.60</ele>
        <time>2012-09-18T13:20:42.41Z</time>
      </trkpt>
      <trkpt lat="42.289274" lon="2.443067">
        <ele>956.20</ele>
        <time>2012-09-18T14:28:08.72Z</time>
      </trkpt>
      <trkpt lat="42.289328" lon="2.443109">
        <ele>956.20</ele>
        <time>2012-09-18T16:24:32.21Z</time>
      </trkpt>
      <trkpt lat="42.289420" lon="2.443171">
        <ele>956.20</ele>
        <time>2012-09-18T19:36:35.34Z</time>
      </trkpt>
      <trkpt lat="42.289434" lon="2.443176">
        <ele>955.60</ele>
        <time>2012-09-18T20:03:38.50Z</time>
      </trkpt>
      <trkpt lat="42.289450" lon="2.443172">
        <ele>955.20</ele>
        <time>2012-09-18T20:34:02.41Z</time>
      </trkpt>
      <trkpt lat="42.289463" lon="2.443165">
        <ele>954.80</ele>
        <time>2012-09-18T21:00:10.99Z</time>
      </trkpt>
      <trkpt lat="42.289454" lon="2.443115">
        <ele>954.00</ele>
        <time>2012-09-18T22:11:18.07Z</time>
      </trkpt>
      <trkpt lat="42.289449" lon="2.443097">
        <ele>954.00</ele>
        <time>2012-09-18T22:37:52.42Z</time>
      </trkpt>
      <trkpt lat="42.289364" lon="2.442935">
        <ele>954.00</ele>
        <time>2012-09-19T03:12:21.75Z</time>
      </trkpt>
      <trkpt lat="42.289334" lon="2.442856">
        <ele>953.40</ele>
        <time>2012-09-19T05:15:05.32Z</time>
      </trkpt>
      <trkpt lat="42.289318" lon="2.442821">
        <ele>953.00</ele>
        <time>2012-09-19T06:11:57.05Z</time>
      </trkpt>
      <trkpt lat="42.289302" lon="2.442778">
        <ele>952.60</ele>
        <time>2012-09-19T07:18:28.36Z</time>
      </trkpt>
      <trkpt lat="42.289274" lon="2.442699">
        <ele>952.00</ele>
        <time>2012-09-19T09:19:32.30Z</time>
      </trkpt>
      <trkpt lat="42.289260" lon="2.442657">
        <ele>951.60</ele>
        <time>2012-09-19T10:23:12.28Z</time>
      </trkpt>
      <trkpt lat="42.289229" lon="2.442502">
        <ele>951.60</ele>
        <time>2012-09-19T14:05:06.70Z</time>
      </trkpt>
      <trkpt lat="42.289225" lon="2.442458">
        <ele>951.20</ele>
        <time>2012-09-19T15:06:22.73Z</time>
      </trkpt>
      <trkpt lat="42.289225" lon="2.442413">
        <ele>950.60</ele>
        <time>2012-09-19T16:08:34.24Z</time>
      </trkpt>
      <trkpt lat="42.289224" lon="2.442373">
        <ele>950.20</ele>
        <time>2012-09-19T17:03:53.03Z</time>
      </trkpt>
      <trkpt lat="42.289221" lon="2.442335">
        <ele>949.60</ele>
        <time>2012-09-19T17:56:41.98Z</time>
      </trkpt>
      <trkpt lat="42.289219" lon="2.442286">
        <ele>949.20</ele>
        <time>2012-09-19T19:04:31.35Z</time>
      </trkpt>
      <trkpt lat="42.289219" lon="2.442234">
        <ele>949.20</ele>
        <time>2012-09-19T20:16:23.32Z</time>
      </trkpt>
      <trkpt lat="42.289237" lon="2.442022">
        <ele>948.80</ele>
        <time>2012-09-20T01:11:18.28Z</time>
      </trkpt>
      <trkpt lat="42.289241" lon="2.441966">
        <ele>948.40</ele>
        <time>2012-09-20T02:29:03.53Z</time>
      </trkpt>
      <trkpt lat="42.289239" lon="2.441921">
        <ele>948.00</ele>
        <time>2012-09-20T03:31:21.76Z</time>
      </trkpt>
      <trkpt lat="42.289233" lon="2.441881">
        <ele>947.60</ele>
        <time>2012-09-20T04:27:46.16Z</time>
      </trkpt>
      <trkpt lat="42.289208" lon="2.441821">
        <ele>947.20</ele>
        <time>2012-09-20T06:02:56.43Z</time>
      </trkpt>
      <trkpt lat="42.289187" lon="2.441727">
        <ele>947.20</ele>
        <time>2012-09-20T08:18:38.83Z</time>
      </trkpt>
      <trkpt lat="42.289158" lon="2.441646">
        <ele>946.80</ele>
        <time>2012-09-20T10:23:00.84Z</time>
      </trkpt>
      <trkpt lat="42.289150" lon="2.441598">
        <ele>946.40</ele>
        <time>2012-09-20T11:31:00.89Z</time>
      </trkpt>
      <trkpt lat="42.289141" lon="2.441544">
        <ele>946.00</ele>
        <time>2012-09-20T12:47:30.94Z</time>
      </trkpt>
      <trkpt lat="42.289128" lon="2.441489">
        <ele>945.60</ele>
        <time>2012-09-20T14:07:18.83Z</time>
      </trkpt>
      <trkpt lat="42.289122" lon="2.441439">
        <ele>945.00</ele>
        <time>2012-09-20T15:17:19.15Z</time>
      </trkpt>
      <trkpt lat="42.289104" lon="2.441337">
        <ele>944.60</ele>
        <time>2012-09-20T17:42:14.58Z</time>
      </trkpt>
      <trkpt lat="42.289085" lon="2.441300">
        <ele>944.20</ele>
        <time>2012-09-20T18:44:29.48Z</time>
      </trkpt>
      <trkpt lat="42.289059" lon="2.441270">
        <ele>943.80</ele>
        <time>2012-09-20T19:48:21.25Z</time>
      </trkpt>
      <trkpt lat="42.289034" lon="2.441247">
        <ele>943.20</ele>
        <time>2012-09-20T20:44:51.04Z</time>
      </trkpt>
      <trkpt lat="42.289011" lon="2.441226">
        <ele>942.80</ele>
        <time>2012-09-20T21:36:42.20Z</time>
      </trkpt>
      <trkpt lat="42.288875" lon="2.441150">
        <ele>942.80</ele>
        <time>2012-09-21T02:11:38.27Z</time>
      </trkpt>
      <trkpt lat="42.288845" lon="2.441131">
        <ele>942.80</ele>
        <time>2012-09-21T03:13:31.88Z</time>
      </trkpt>
      <trkpt lat="42.288783" lon="2.441063">
        <ele>942.80</ele>
        <time>2012-09-21T05:42:41.50Z</time>
      </trkpt>
      <trkpt lat="42.288685" lon="2.440926">
        <ele>942.40</ele>
        <time>2012-09-21T10:06:04.50Z</time>
      </trkpt>
      <trkpt lat="42.288635" lon="2.440890">
        <ele>941.80</ele>
        <time>2012-09-21T11:51:54.64Z</time>
      </trkpt>
      <trkpt lat="42.288596" lon="2.440854">
        <ele>941.40</ele>
        <time>2012-09-21T13:20:08.33Z</time>
      </trkpt>
      <trkpt lat="42.288562" lon="2.440815">
        <ele>941.00</ele>
        <time>2012-09-21T14:43:26.73Z</time>
      </trkpt>
      <trkpt lat="42.288518" lon="2.440780">
        <ele>940.40</ele>
        <time>2012-09-21T16:18:49.44Z</time>
      </trkpt>
      <trkpt lat="42.288348" lon="2.440683">
        <ele>940.40</ele>
        <time>2012-09-21T22:03:33.48Z</time>
      </trkpt>
      <trkpt lat="42.288232" lon="2.440580">
        <ele>940.40</ele>
        <time>2012-09-22T02:22:50.68Z</time>
      </trkpt>
      <trkpt lat="42.288152" lon="2.440483">
        <ele>940.00</ele>
        <time>2012-09-22T05:43:37.09Z</time>
      </trkpt>
      <trkpt lat="42.288131" lon="2.440437">
        <ele>939.60</ele>
        <time>2012-09-22T06:58:19.45Z</time>
      </trkpt>
      <trkpt lat="42.288110" lon="2.440381">
        <ele>939.00</ele>
        <time>2012-09-22T08:25:05.74Z</time>
      </trkpt>
      <trkpt lat="42.288100" lon="2.440334">
        <ele>938.60</ele>
        <time>2012-09-22T09:32:41.16Z</time>
      </trkpt>
      <trkpt lat="42.288089" lon="2.440269">
        <ele>938.20</ele>
        <time>2012-09-22T11:04:50.45Z</time>
      </trkpt>
      <trkpt lat="42.288065" lon="2.440142">
        <ele>938.20</ele>
        <time>2012-09-22T14:05:59.97Z</time>
      </trkpt>
      <trkpt lat="42.288085" lon="2.440018">
        <ele>938.20</ele>
        <time>2012-09-22T17:01:24.09Z</time>
      </trkpt>
      <trkpt lat="42.288108" lon="2.439971">
        <ele>938.20</ele>
        <time>2012-09-22T18:19:17.08Z</time>
      </trkpt>
      <trkpt lat="42.288160" lon="2.439896">
        <ele>937.80</ele>
        <time>2012-09-22T20:41:20.90Z</time>
      </trkpt>
      <trkpt lat="42.288193" lon="2.439857">
        <ele>937.40</ele>
        <time>2012-09-22T22:03:14.38Z</time>
      </trkpt>
      <trkpt lat="42.288226" lon="2.439820">
        <ele>936.80</ele>
        <time>2012-09-22T23:23:20.32Z</time>
      </trkpt>
      <trkpt lat="42.288259" lon="2.439774">
        <ele>936.40</ele>
        <time>2012-09-23T00:51:53.86Z</time>
      </trkpt>
      <trkpt lat="42.288293" lon="2.439725">
        <ele>936.00</ele>
        <time>2012-09-23T02:24:44.79Z</time>
      </trkpt>
      <trkpt lat="42.288385" lon="2.439563">
        <ele>935.60</ele>
        <time>2012-09-23T07:07:00.34Z</time>
      </trkpt>
      <trkpt lat="42.288408" lon="2.439503">
        <ele>935.20</ele>
        <time>2012-09-23T08:40:24.06Z</time>
      </trkpt>
      <trkpt lat="42.288440" lon="2.439435">
        <ele>934.80</ele>
        <time>2012-09-23T10:31:47.07Z</time>
      </trkpt>
      <trkpt lat="42.288470" lon="2.439374">
        <ele>934.40</ele>
        <time>2012-09-23T12:13:01.21Z</time>
      </trkpt>
      <trkpt lat="42.288522" lon="2.439266">
        <ele>934.00</ele>
        <time>2012-09-23T15:11:06.76Z</time>
      </trkpt>
      <trkpt lat="42.288544" lon="2.439222">
        <ele>934.00</ele>
        <time>2012-09-23T16:24:30.62Z</time>
      </trkpt>
      <trkpt lat="42.288544" lon="2.439222">
        <ele>934.00</ele>
        <time>2012-09-23T16:41:19.46Z</time>
      </trkpt>
      <trkpt lat="42.288641" lon="2.438889">
        <ele>934.00</ele>
        <time>2012-09-24T00:55:56.50Z</time>
      </trkpt>
      <trkpt lat="42.288760" lon="2.438734">
        <ele>933.60</ele>
        <time>2012-09-24T06:04:40.42Z</time>
      </trkpt>
      <trkpt lat="42.288797" lon="2.438691">
        <ele>933.20</ele>
        <time>2012-09-24T07:35:49.95Z</time>
      </trkpt>
      <trkpt lat="42.288836" lon="2.438643">
        <ele>932.80</ele>
        <time>2012-09-24T09:14:22.16Z</time>
      </trkpt>
      <trkpt lat="42.288883" lon="2.438584">
        <ele>932.40</ele>
        <time>2012-09-24T11:14:11.90Z</time>
      </trkpt>
      <trkpt lat="42.288918" lon="2.438534">
        <ele>932.00</ele>
        <time>2012-09-24T12:49:20.02Z</time>
      </trkpt>
      <trkpt lat="42.288946" lon="2.438488">
        <ele>932.00</ele>
        <time>2012-09-24T14:11:39.76Z</time>
      </trkpt>
      <trkpt lat="42.288965" lon="2.438322">
        <ele>932.00</ele>
        <time>2012-09-24T18:03:48.73Z</time>
      </trkpt>
      <trkpt lat="42.288939" lon="2.438052">
        <ele>931.40</ele>
        <time>2012-09-25T00:20:06.76Z</time>
      </trkpt>
      <trkpt lat="42.288928" lon="2.437988">
        <ele>931.00</ele>
        <time>2012-09-25T01:50:55.18Z</time>
      </trkpt>
      <trkpt lat="42.288924" lon="2.437919">
        <ele>930.60</ele>
        <time>2012-09-25T03:26:34.39Z</time>
      </trkpt>
      <trkpt lat="42.288926" lon="2.437857">
        <ele>930.20</ele>
        <time>2012-09-25T04:52:20.49Z</time>
      </trkpt>
      <trkpt lat="42.288937" lon="2.437789">
        <ele>929.60</ele>
        <time>2012-09-25T06:28:32.48Z</time>
      </trkpt>
      <trkpt lat="42.288950" lon="2.437716">
        <ele>929.00</ele>
        <time>2012-09-25T08:12:18.77Z</time>
      </trkpt>
      <trkpt lat="42.288968" lon="2.437638">
        <ele>928.40</ele>
        <time>2012-09-25T10:05:14.15Z</time>
      </trkpt>
      <trkpt lat="42.288983" lon="2.437559">
        <ele>927.80</ele>
        <time>2012-09-25T11:57:57.39Z</time>
      </trkpt>
      <trkpt lat="42.288995" lon="2.437478">
        <ele>927.20</ele>
        <time>2012-09-25T13:52:07.50Z</time>
      </trkpt>
      <trkpt lat="42.289012" lon="2.437255">
        <ele>926.80</ele>
        <time>2012-09-25T19:01:57.18Z</time>
      </trkpt>
      <trkpt lat="42.289005" lon="2.437200">
        <ele>926.40</ele>
        <time>2012-09-25T20:19:04.94Z</time>
      </trkpt>
      <trkpt lat="42.288996" lon="2.437144">
        <ele>926.00</ele>
        <time>2012-09-25T21:38:16.93Z</time>
      </trkpt>
      <trkpt lat="42.288991" lon="2.437091">
        <ele>925.40</ele>
        <time>2012-09-25T22:52:07.43Z</time>
      </trkpt>
      <trkpt lat="42.288979" lon="2.437042">
        <ele>925.00</ele>
        <time>2012-09-26T00:03:27.51Z</time>
      </trkpt>
      <trkpt lat="42.288956" lon="2.437002">
        <ele>925.00</ele>
        <time>2012-09-26T01:13:28.56Z</time>
      </trkpt>
      <trkpt lat="42.288905" lon="2.436904">
        <ele>924.60</ele>
        <time>2012-09-26T03:59:04.38Z</time>
      </trkpt>
      <trkpt lat="42.288882" lon="2.436840">
        <ele>924.20</ele>
        <time>2012-09-26T05:37:24.54Z</time>
      </trkpt>
      <trkpt lat="42.288855" lon="2.436779">
        <ele>923.60</ele>
        <time>2012-09-26T07:15:39.13Z</time>
      </trkpt>
      <trkpt lat="42.288827" lon="2.436714">
        <ele>923.20</ele>
        <time>2012-09-26T08:59:36.36Z</time>
      </trkpt>
      <trkpt lat="42.288800" lon="2.436650">
        <ele>922.60</ele>
        <time>2012-09-26T10:41:25.77Z</time>
      </trkpt>
      <trkpt lat="42.288781" lon="2.436581">
        <ele>922.00</ele>
        <time>2012-09-26T12:23:10.99Z</time>
      </trkpt>
      <trkpt lat="42.288759" lon="2.436515">
        <ele>921.60</ele>
        <time>2012-09-26T14:03:13.85Z</time>
      </trkpt>
      <trkpt lat="42.288735" lon="2.436449">
        <ele>921.00</ele>
        <time>2012-09-26T15:44:52.24Z</time>
      </trkpt>
      <trkpt lat="42.288712" lon="2.436376">
        <ele>920.40</ele>
        <time>2012-09-26T17:34:31.78Z</time>
      </trkpt>
      <trkpt lat="42.288698" lon="2.436306">
        <ele>920.00</ele>
        <time>2012-09-26T19:14:44.79Z</time>
      </trkpt>
      <trkpt lat="42.288692" lon="2.436236">
        <ele>919.60</ele>
        <time>2012-09-26T20:52:08.24Z</time>
      </trkpt>
      <trkpt lat="42.288681" lon="2.436175">
        <ele>919.20</ele>
        <time>2012-09-26T22:18:54.67Z</time>
      </trkpt>
      <trkpt lat="42.288666" lon="2.436111">
        <ele>918.80</ele>
        <time>2012-09-26T23:51:41.73Z</time>
      </trkpt>
      <trkpt lat="42.288650" lon="2.436040">
        <ele>918.40</ele>
        <time>2012-09-27T01:34:16.39Z</time>
      </trkpt>
      <trkpt lat="42.288642" lon="2.435979">
        <ele>917.80</ele>
        <time>2012-09-27T02:59:53.58Z</time>
      </trkpt>
      <trkpt lat="42.288631" lon="2.435917">
        <ele>917.20</ele>
        <time>2012-09-27T04:28:00.61Z</time>
      </trkpt>
      <trkpt lat="42.288618" lon="2.435850">
        <ele>916.80</ele>
        <time>2012-09-27T06:03:44.39Z</time>
      </trkpt>
      <trkpt lat="42.288606" lon="2.435792">
        <ele>916.20</ele>
        <time>2012-09-27T07:26:58.50Z</time>
      </trkpt>
      <trkpt lat="42.288588" lon="2.435742">
        <ele>915.80</ele>
        <time>2012-09-27T08:43:49.54Z</time>
      </trkpt>
      <trkpt lat="42.288561" lon="2.435689">
        <ele>915.20</ele>
        <time>2012-09-27T10:12:45.77Z</time>
      </trkpt>
      <trkpt lat="42.288532" lon="2.435634">
        <ele>914.60</ele>
        <time>2012-09-27T11:46:06.48Z</time>
      </trkpt>
      <trkpt lat="42.288498" lon="2.435580">
        <ele>914.20</ele>
        <time>2012-09-27T13:24:06.66Z</time>
      </trkpt>
      <trkpt lat="42.288463" lon="2.435520">
        <ele>913.60</ele>
        <time>2012-09-27T15:09:42.81Z</time>
      </trkpt>
      <trkpt lat="42.288422" lon="2.435434">
        <ele>913.00</ele>
        <time>2012-09-27T17:31:06.85Z</time>
      </trkpt>
      <trkpt lat="42.288384" lon="2.435361">
        <ele>912.60</ele>
        <time>2012-09-27T19:34:28.73Z</time>
      </trkpt>
      <trkpt lat="42.288346" lon="2.435289">
        <ele>912.00</ele>
        <time>2012-09-27T21:36:42.95Z</time>
      </trkpt>
      <trkpt lat="42.288300" lon="2.435228">
        <ele>911.60</ele>
        <time>2012-09-27T23:37:06.14Z</time>
      </trkpt>
      <trkpt lat="42.288195" lon="2.435088">
        <ele>911.60</ele>
        <time>2012-09-28T04:12:38.11Z</time>
      </trkpt>
      <trkpt lat="42.288051" lon="2.434845">
        <ele>911.60</ele>
        <time>2012-09-28T11:22:56.54Z</time>
      </trkpt>
      <trkpt lat="42.288056" lon="2.434789">
        <ele>911.00</ele>
        <time>2012-09-28T12:40:53.99Z</time>
      </trkpt>
      <trkpt lat="42.288067" lon="2.434743">
        <ele>910.60</ele>
        <time>2012-09-28T13:47:42.82Z</time>
      </trkpt>
      <trkpt lat="42.288109" lon="2.434736">
        <ele>910.00</ele>
        <time>2012-09-28T15:06:46.42Z</time>
      </trkpt>
      <trkpt lat="42.288128" lon="2.434721">
        <ele>909.60</ele>
        <time>2012-09-28T15:47:52.83Z</time>
      </trkpt>
      <trkpt lat="42.288159" lon="2.434711">
        <ele>909.00</ele>
        <time>2012-09-28T16:47:25.32Z</time>
      </trkpt>
      <trkpt lat="42.288233" lon="2.434653">
        <ele>908.60</ele>
        <time>2012-09-28T19:27:13.77Z</time>
      </trkpt>
      <trkpt lat="42.288271" lon="2.434622">
        <ele>908.00</ele>
        <time>2012-09-28T20:50:08.92Z</time>
      </trkpt>
      <trkpt lat="42.288314" lon="2.434576">
        <ele>907.60</ele>
        <time>2012-09-28T22:32:35.71Z</time>
      </trkpt>
      <trkpt lat="42.288351" lon="2.434538">
        <ele>907.00</ele>
        <time>2012-09-28T23:59:24.45Z</time>
      </trkpt>
      <trkpt lat="42.288391" lon="2.434490">
        <ele>906.60</ele>
        <time>2012-09-29T01:39:20.05Z</time>
      </trkpt>
      <trkpt lat="42.288426" lon="2.434454">
        <ele>906.00</ele>
        <time>2012-09-29T03:01:29.94Z</time>
      </trkpt>
      <trkpt lat="42.288464" lon="2.434416">
        <ele>905.40</ele>
        <time>2012-09-29T04:29:48.37Z</time>
      </trkpt>
      <trkpt lat="42.288501" lon="2.434381">
        <ele>904.80</ele>
        <time>2012-09-29T05:54:10.49Z</time>
      </trkpt>
      <trkpt lat="42.288537" lon="2.434337">
        <ele>904.40</ele>
        <time>2012-09-29T07:24:50.78Z</time>
      </trkpt>
      <trkpt lat="42.288582" lon="2.434289">
        <ele>903.80</ele>
        <time>2012-09-29T09:11:56.29Z</time>
      </trkpt>
      <trkpt lat="42.288637" lon="2.434236">
        <ele>903.40</ele>
        <time>2012-09-29T11:18:07.60Z</time>
      </trkpt>
      <trkpt lat="42.288694" lon="2.434178">
        <ele>902.80</ele>
        <time>2012-09-29T13:31:24.83Z</time>
      </trkpt>
      <trkpt lat="42.288746" lon="2.434125">
        <ele>902.40</ele>
        <time>2012-09-29T15:33:04.92Z</time>
      </trkpt>
      <trkpt lat="42.288788" lon="2.434073">
        <ele>901.80</ele>
        <time>2012-09-29T17:19:29.12Z</time>
      </trkpt>
      <trkpt lat="42.288826" lon="2.434028">
        <ele>901.40</ele>
        <time>2012-09-29T18:53:52.01Z</time>
      </trkpt>
      <trkpt lat="42.288859" lon="2.433989">
        <ele>900.80</ele>
        <time>2012-09-29T20:15:45.47Z</time>
      </trkpt>
      <trkpt lat="42.288884" lon="2.433959">
        <ele>900.20</ele>
        <time>2012-09-29T21:18:12.70Z</time>
      </trkpt>
      <trkpt lat="42.288911" lon="2.433938">
        <ele>899.80</ele>
        <time>2012-09-29T22:16:24.45Z</time>
      </trkpt>
      <trkpt lat="42.288961" lon="2.433939">
        <ele>899.40</ele>
        <time>2012-09-29T23:49:49.76Z</time>
      </trkpt>
      <trkpt lat="42.288981" lon="2.433958">
        <ele>898.80</ele>
        <time>2012-09-30T00:35:29.90Z</time>
      </trkpt>
      <trkpt lat="42.288980" lon="2.433986">
        <ele>898.40</ele>
        <time>2012-09-30T01:14:14.44Z</time>
      </trkpt>
      <trkpt lat="42.288972" lon="2.434014">
        <ele>898.00</ele>
        <time>2012-09-30T01:55:43.43Z</time>
      </trkpt>
      <trkpt lat="42.288959" lon="2.434044">
        <ele>897.60</ele>
        <time>2012-09-30T02:43:46.50Z</time>
      </trkpt>
      <trkpt lat="42.288908" lon="2.434117">
        <ele>897.60</ele>
        <time>2012-09-30T05:02:32.66Z</time>
      </trkpt>
      <trkpt lat="42.288871" lon="2.434187">
        <ele>897.00</ele>
        <time>2012-09-30T07:01:26.73Z</time>
      </trkpt>
      <trkpt lat="42.288836" lon="2.434237">
        <ele>896.60</ele>
        <time>2012-09-30T08:36:34.85Z</time>
      </trkpt>
      <trkpt lat="42.288797" lon="2.434295">
        <ele>896.00</ele>
        <time>2012-09-30T10:24:54.32Z</time>
      </trkpt>
      <trkpt lat="42.288733" lon="2.434399">
        <ele>895.60</ele>
        <time>2012-09-30T13:31:52.15Z</time>
      </trkpt>
      <trkpt lat="42.288694" lon="2.434448">
        <ele>895.00</ele>
        <time>2012-09-30T15:11:20.51Z</time>
      </trkpt>
      <trkpt lat="42.288673" lon="2.434498">
        <ele>895.00</ele>
        <time>2012-09-30T16:30:48.30Z</time>
      </trkpt>
      <trkpt lat="42.288623" lon="2.434588">
        <ele>895.00</ele>
        <time>2012-09-30T19:06:21.59Z</time>
      </trkpt>
      <trkpt lat="42.288557" lon="2.434684">
        <ele>895.00</ele>
        <time>2012-09-30T22:07:29.20Z</time>
      </trkpt>
      <trkpt lat="42.288446" lon="2.434839">
        <ele>895.00</ele>
        <time>2012-10-01T03:05:38.22Z</time>
      </trkpt>
      <trkpt lat="42.288440" lon="2.434934">
        <ele>895.00</ele>
        <time>2012-10-01T05:17:24.60Z</time>
      </trkpt>
      <trkpt lat="42.288538" lon="2.435056">
        <ele>895.00</ele>
        <time>2012-10-01T09:26:18.51Z</time>
      </trkpt>
      <trkpt lat="42.288615" lon="2.435092">
        <ele>895.00</ele>
        <time>2012-10-01T11:58:31.41Z</time>
      </trkpt>
      <trkpt lat="42.288730" lon="2.435161">
        <ele>895.00</ele>
        <time>2012-10-01T15:53:34.98Z</time>
      </trkpt>
      <trkpt lat="42.288787" lon="2.435210">
        <ele>894.60</ele>
        <time>2012-10-01T17:59:46.89Z</time>
      </trkpt>
      <trkpt lat="42.288835" lon="2.435275">
        <ele>894.00</ele>
        <time>2012-10-01T20:06:42.79Z</time>
      </trkpt>
      <trkpt lat="42.288877" lon="2.435345">
        <ele>893.60</ele>
        <time>2012-10-01T22:11:16.62Z</time>
      </trkpt>
      <trkpt lat="42.288916" lon="2.435398">
        <ele>893.20</ele>
        <time>2012-10-01T23:54:35.55Z</time>
      </trkpt>
      <trkpt lat="42.288943" lon="2.435441">
        <ele>892.60</ele>
        <time>2012-10-02T01:12:32.51Z</time>
      </trkpt>
      <trkpt lat="42.289016" lon="2.435552">
        <ele>892.60</ele>
        <time>2012-10-02T04:37:48.38Z</time>
      </trkpt>
      <trkpt lat="42.289177" lon="2.435711">
        <ele>892.20</ele>
        <time>2012-10-02T10:50:18.66Z</time>
      </trkpt>
      <trkpt lat="42.289225" lon="2.435737">
        <ele>891.60</ele>
        <time>2012-10-02T12:26:55.06Z</time>
      </trkpt>
      <trkpt lat="42.289280" lon="2.435767">
        <ele>891.20</ele>
        <time>2012-10-02T14:17:43.20Z</time>
      </trkpt>
      <trkpt lat="42.289333" lon="2.435764">
        <ele>890.80</ele>
        <time>2012-10-02T15:56:49.39Z</time>
      </trkpt>
      <trkpt lat="42.289377" lon="2.435767">
        <ele>890.40</ele>
        <time>2012-10-02T17:19:07.80Z</time>
      </trkpt>
      <trkpt lat="42.289423" lon="2.435775">
        <ele>889.80</ele>
        <time>2012-10-02T18:45:46.62Z</time>
      </trkpt>
      <trkpt lat="42.289460" lon="2.435769">
        <ele>889.40</ele>
        <time>2012-10-02T19:55:23.83Z</time>
      </trkpt>
      <trkpt lat="42.289494" lon="2.435760">
        <ele>889.00</ele>
        <time>2012-10-02T21:00:07.41Z</time>
      </trkpt>
      <trkpt lat="42.289536" lon="2.435751">
        <ele>888.60</ele>
        <time>2012-10-02T22:19:34.14Z</time>
      </trkpt>
      <trkpt lat="42.289568" lon="2.435733">
        <ele>888.00</ele>
        <time>2012-10-02T23:24:19.30Z</time>
      </trkpt>
      <trkpt lat="42.289599" lon="2.435636">
        <ele>888.00</ele>
        <time>2012-10-03T01:50:21.25Z</time>
      </trkpt>
      <trkpt lat="42.289602" lon="2.435597">
        <ele>887.60</ele>
        <time>2012-10-03T02:44:32.64Z</time>
      </trkpt>
      <trkpt lat="42.289594" lon="2.435568">
        <ele>887.20</ele>
        <time>2012-10-03T03:27:19.14Z</time>
      </trkpt>
      <trkpt lat="42.289586" lon="2.435540">
        <ele>886.80</ele>
        <time>2012-10-03T04:08:48.11Z</time>
      </trkpt>
      <trkpt lat="42.289529" lon="2.435510">
        <ele>886.40</ele>
        <time>2012-10-03T06:03:04.67Z</time>
      </trkpt>
      <trkpt lat="42.289500" lon="2.435486">
        <ele>885.80</ele>
        <time>2012-10-03T07:06:36.21Z</time>
      </trkpt>
      <trkpt lat="42.289483" lon="2.435472">
        <ele>885.40</ele>
        <time>2012-10-03T07:43:47.58Z</time>
      </trkpt>
      <trkpt lat="42.289461" lon="2.435465">
        <ele>884.80</ele>
        <time>2012-10-03T08:26:01.04Z</time>
      </trkpt>
      <trkpt lat="42.289445" lon="2.435458">
        <ele>884.20</ele>
        <time>2012-10-03T08:57:26.13Z</time>
      </trkpt>
      <trkpt lat="42.289428" lon="2.435449">
        <ele>883.60</ele>
        <time>2012-10-03T09:31:32.66Z</time>
      </trkpt>
      <trkpt lat="42.289407" lon="2.435432">
        <ele>883.60</ele>
        <time>2012-10-03T10:17:16.45Z</time>
      </trkpt>
      <trkpt lat="42.289361" lon="2.435370">
        <ele>883.20</ele>
        <time>2012-10-03T12:18:37.89Z</time>
      </trkpt>
      <trkpt lat="42.289338" lon="2.435340">
        <ele>882.80</ele>
        <time>2012-10-03T13:18:20.54Z</time>
      </trkpt>
      <trkpt lat="42.289291" lon="2.435305">
        <ele>882.40</ele>
        <time>2012-10-03T14:58:35.48Z</time>
      </trkpt>
      <trkpt lat="42.289269" lon="2.435268">
        <ele>882.00</ele>
        <time>2012-10-03T16:04:11.83Z</time>
      </trkpt>
      <trkpt lat="42.289249" lon="2.435240">
        <ele>881.60</ele>
        <time>2012-10-03T16:57:59.36Z</time>
      </trkpt>
      <trkpt lat="42.289200" lon="2.435158">
        <ele>881.20</ele>
        <time>2012-10-03T19:23:40.28Z</time>
      </trkpt>
      <trkpt lat="42.289165" lon="2.435106">
        <ele>880.60</ele>
        <time>2012-10-03T21:00:49.97Z</time>
      </trkpt>
      <trkpt lat="42.289125" lon="2.435061">
        <ele>880.20</ele>
        <time>2012-10-03T22:38:03.35Z</time>
      </trkpt>
      <trkpt lat="42.289083" lon="2.435028">
        <ele>879.60</ele>
        <time>2012-10-04T00:08:48.80Z</time>
      </trkpt>
      <trkpt lat="42.289044" lon="2.434996">
        <ele>879.20</ele>
        <time>2012-10-04T01:34:02.76Z</time>
      </trkpt>
      <trkpt lat="42.288986" lon="2.434931">
        <ele>878.80</ele>
        <time>2012-10-04T03:54:47.92Z</time>
      </trkpt>
      <trkpt lat="42.288970" lon="2.434876">
        <ele>878.40</ele>
        <time>2012-10-04T05:16:28.65Z</time>
      </trkpt>
      <trkpt lat="42.288979" lon="2.434828">
        <ele>878.00</ele>
        <time>2012-10-04T06:24:54.80Z</time>
      </trkpt>
      <trkpt lat="42.289004" lon="2.434779">
        <ele>877.60</ele>
        <time>2012-10-04T07:47:10.67Z</time>
      </trkpt>
      <trkpt lat="42.289034" lon="2.434726">
        <ele>877.20</ele>
        <time>2012-10-04T09:19:24.54Z</time>
      </trkpt>
      <trkpt lat="42.289104" lon="2.434626">
        <ele>877.20</ele>
        <time>2012-10-04T12:29:40.78Z</time>
      </trkpt>
      <trkpt lat="42.289139" lon="2.434591">
        <ele>876.60</ele>
        <time>2012-10-04T13:51:00.89Z</time>
      </trkpt>
      <trkpt lat="42.289175" lon="2.434542">
        <ele>876.20</ele>
        <time>2012-10-04T15:26:27.49Z</time>
      </trkpt>
      <trkpt lat="42.289208" lon="2.434493">
        <ele>875.60</ele>
        <time>2012-10-04T16:58:02.30Z</time>
      </trkpt>
      <trkpt lat="42.289255" lon="2.434430">
        <ele>875.20</ele>
        <time>2012-10-04T19:01:41.70Z</time>
      </trkpt>
      <trkpt lat="42.289300" lon="2.434371">
        <ele>874.60</ele>
        <time>2012-10-04T20:58:48.80Z</time>
      </trkpt>
      <trkpt lat="42.289400" lon="2.434283">
        <ele>874.20</ele>
        <time>2012-10-05T00:41:44.11Z</time>
      </trkpt>
      <trkpt lat="42.289438" lon="2.434234">
        <ele>873.80</ele>
        <time>2012-10-05T02:19:50.83Z</time>
      </trkpt>
      <trkpt lat="42.289474" lon="2.434183">
        <ele>873.40</ele>
        <time>2012-10-05T03:57:16.26Z</time>
      </trkpt>
      <trkpt lat="42.289505" lon="2.434139">
        <ele>873.00</ele>
        <time>2012-10-05T05:21:14.82Z</time>
      </trkpt>
      <trkpt lat="42.289536" lon="2.434101">
        <ele>872.40</ele>
        <time>2012-10-05T06:39:25.66Z</time>
      </trkpt>
      <trkpt lat="42.289582" lon="2.434077">
        <ele>871.80</ele>
        <time>2012-10-05T08:11:32.72Z</time>
      </trkpt>
      <trkpt lat="42.289620" lon="2.434052">
        <ele>871.40</ele>
        <time>2012-10-05T09:30:29.96Z</time>
      </trkpt>
      <trkpt lat="42.289652" lon="2.434039">
        <ele>870.60</ele>
        <time>2012-10-05T10:32:55.45Z</time>
      </trkpt>
      <trkpt lat="42.289691" lon="2.434019">
        <ele>870.00</ele>
        <time>2012-10-05T11:50:51.12Z</time>
      </trkpt>
      <trkpt lat="42.289732" lon="2.433997">
        <ele>869.40</ele>
        <time>2012-10-05T13:13:15.80Z</time>
      </trkpt>
      <trkpt lat="42.289779" lon="2.433991">
        <ele>868.80</ele>
        <time>2012-10-05T14:41:27.66Z</time>
      </trkpt>
      <trkpt lat="42.289837" lon="2.433991">
        <ele>868.20</ele>
        <time>2012-10-05T16:29:49.11Z</time>
      </trkpt>
      <trkpt lat="42.289888" lon="2.433997">
        <ele>867.60</ele>
        <time>2012-10-05T18:05:27.51Z</time>
      </trkpt>
      <trkpt lat="42.289935" lon="2.433998">
        <ele>867.00</ele>
        <time>2012-10-05T19:33:16.58Z</time>
      </trkpt>
      <trkpt lat="42.289977" lon="2.433993">
        <ele>866.40</ele>
        <time>2012-10-05T20:52:02.75Z</time>
      </trkpt>
      <trkpt lat="42.290014" lon="2.433990">
        <ele>865.80</ele>
        <time>2012-10-05T22:01:17.68Z</time>
      </trkpt>
      <trkpt lat="42.290070" lon="2.433984">
        <ele>865.80</ele>
        <time>2012-10-05T23:46:14.63Z</time>
      </trkpt>
      <trkpt lat="42.290093" lon="2.433983">
        <ele>865.20</ele>
        <time>2012-10-06T00:29:14.13Z</time>
      </trkpt>
      <trkpt lat="42.290126" lon="2.433965">
        <ele>864.80</ele>
        <time>2012-10-06T01:35:43.01Z</time>
      </trkpt>
      <trkpt lat="42.290152" lon="2.433952">
        <ele>864.20</ele>
        <time>2012-10-06T02:27:30.42Z</time>
      </trkpt>
      <trkpt lat="42.290180" lon="2.433957">
        <ele>863.80</ele>
        <time>2012-10-06T03:20:16.32Z</time>
      </trkpt>
      <trkpt lat="42.290212" lon="2.433943">
        <ele>863.20</ele>
        <time>2012-10-06T04:23:06.51Z</time>
      </trkpt>
      <trkpt lat="42.290240" lon="2.433935">
        <ele>862.80</ele>
        <time>2012-10-06T05:16:34.48Z</time>
      </trkpt>
      <trkpt lat="42.290264" lon="2.433920">
        <ele>862.40</ele>
        <time>2012-10-06T06:05:58.35Z</time>
      </trkpt>
      <trkpt lat="42.290297" lon="2.433906">
        <ele>862.00</ele>
        <time>2012-10-06T07:10:35.34Z</time>
      </trkpt>
      <trkpt lat="42.290337" lon="2.433897">
        <ele>861.60</ele>
        <time>2012-10-06T08:26:20.78Z</time>
      </trkpt>
      <trkpt lat="42.290366" lon="2.433888">
        <ele>861.20</ele>
        <time>2012-10-06T09:21:56.07Z</time>
      </trkpt>
      <trkpt lat="42.290399" lon="2.433889">
        <ele>860.60</ele>
        <time>2012-10-06T10:23:36.10Z</time>
      </trkpt>
      <trkpt lat="42.290449" lon="2.433883">
        <ele>860.20</ele>
        <time>2012-10-06T11:57:22.84Z</time>
      </trkpt>
      <trkpt lat="42.290490" lon="2.433882">
        <ele>859.80</ele>
        <time>2012-10-06T13:13:59.45Z</time>
      </trkpt>
      <trkpt lat="42.290525" lon="2.433886">
        <ele>859.40</ele>
        <time>2012-10-06T14:19:36.73Z</time>
      </trkpt>
      <trkpt lat="42.290560" lon="2.433889">
        <ele>859.00</ele>
        <time>2012-10-06T15:25:07.90Z</time>
      </trkpt>
      <trkpt lat="42.290616" lon="2.433881">
        <ele>858.40</ele>
        <time>2012-10-06T17:10:20.12Z</time>
      </trkpt>
      <trkpt lat="42.290672" lon="2.433872">
        <ele>858.00</ele>
        <time>2012-10-06T18:55:41.59Z</time>
      </trkpt>
      <trkpt lat="42.290733" lon="2.433842">
        <ele>857.40</ele>
        <time>2012-10-06T20:56:57.77Z</time>
      </trkpt>
      <trkpt lat="42.290792" lon="2.433805">
        <ele>857.00</ele>
        <time>2012-10-06T22:58:28.31Z</time>
      </trkpt>
      <trkpt lat="42.290848" lon="2.433746">
        <ele>856.40</ele>
        <time>2012-10-07T01:11:06.87Z</time>
      </trkpt>
      <trkpt lat="42.290998" lon="2.433636">
        <ele>856.40</ele>
        <time>2012-10-07T06:29:55.66Z</time>
      </trkpt>
      <trkpt lat="42.291035" lon="2.433559">
        <ele>856.40</ele>
        <time>2012-10-07T08:36:49.32Z</time>
      </trkpt>
      <trkpt lat="42.291102" lon="2.433439">
        <ele>856.40</ele>
        <time>2012-10-07T12:04:35.87Z</time>
      </trkpt>
      <trkpt lat="42.291132" lon="2.433366">
        <ele>856.40</ele>
        <time>2012-10-07T14:00:00.41Z</time>
      </trkpt>
      <trkpt lat="42.291240" lon="2.433176">
        <ele>856.00</ele>
        <time>2012-10-07T19:31:09.27Z</time>
      </trkpt>
      <trkpt lat="42.291268" lon="2.433135">
        <ele>855.60</ele>
        <time>2012-10-07T20:48:16.26Z</time>
      </trkpt>
      <trkpt lat="42.291300" lon="2.433096">
        <ele>855.00</ele>
        <time>2012-10-07T22:08:45.80Z</time>
      </trkpt>
      <trkpt lat="42.291329" lon="2.433057">
        <ele>854.60</ele>
        <time>2012-10-07T23:25:11.12Z</time>
      </trkpt>
      <trkpt lat="42.291362" lon="2.433006">
        <ele>854.00</ele>
        <time>2012-10-08T00:58:49.57Z</time>
      </trkpt>
      <trkpt lat="42.291421" lon="2.432929">
        <ele>853.60</ele>
        <time>2012-10-08T03:32:02.21Z</time>
      </trkpt>
      <trkpt lat="42.291436" lon="2.432913">
        <ele>853.20</ele>
        <time>2012-10-08T04:07:44.01Z</time>
      </trkpt>
      <trkpt lat="42.291453" lon="2.432896">
        <ele>852.80</ele>
        <time>2012-10-08T04:47:14.32Z</time>
      </trkpt>
      <trkpt lat="42.291465" lon="2.432881">
        <ele>852.40</ele>
        <time>2012-10-08T05:17:46.37Z</time>
      </trkpt>
      <trkpt lat="42.291485" lon="2.432857">
        <ele>852.00</ele>
        <time>2012-10-08T06:07:44.10Z</time>
      </trkpt>
      <trkpt lat="42.291554" lon="2.432804">
        <ele>851.60</ele>
        <time>2012-10-08T08:35:59.93Z</time>
      </trkpt>
      <trkpt lat="42.291620" lon="2.432775">
        <ele>850.80</ele>
        <time>2012-10-08T10:45:39.12Z</time>
      </trkpt>
      <trkpt lat="42.291656" lon="2.432763">
        <ele>850.40</ele>
        <time>2012-10-08T11:54:55.37Z</time>
      </trkpt>
      <trkpt lat="42.291683" lon="2.432758">
        <ele>849.80</ele>
        <time>2012-10-08T12:45:50.18Z</time>
      </trkpt>
      <trkpt lat="42.291743" lon="2.432727">
        <ele>849.40</ele>
        <time>2012-10-08T14:45:50.29Z</time>
      </trkpt>
      <trkpt lat="42.291788" lon="2.432711">
        <ele>849.00</ele>
        <time>2012-10-08T16:12:46.08Z</time>
      </trkpt>
      <trkpt lat="42.291832" lon="2.432702">
        <ele>848.60</ele>
        <time>2012-10-08T17:35:54.35Z</time>
      </trkpt>
      <trkpt lat="42.291871" lon="2.432717">
        <ele>848.20</ele>
        <time>2012-10-08T18:51:39.51Z</time>
      </trkpt>
      <trkpt lat="42.291910" lon="2.432730">
        <ele>847.80</ele>
        <time>2012-10-08T20:06:42.11Z</time>
      </trkpt>
      <trkpt lat="42.291945" lon="2.432735">
        <ele>847.20</ele>
        <time>2012-10-08T21:12:27.25Z</time>
      </trkpt>
      <trkpt lat="42.292005" lon="2.432737">
        <ele>846.80</ele>
        <time>2012-10-08T23:04:34.93Z</time>
      </trkpt>
      <trkpt lat="42.292061" lon="2.432732">
        <ele>846.20</ele>
        <time>2012-10-09T00:49:25.88Z</time>
      </trkpt>
      <trkpt lat="42.292116" lon="2.432713">
        <ele>845.80</ele>
        <time>2012-10-09T02:35:29.16Z</time>
      </trkpt>
      <trkpt lat="42.292199" lon="2.432673">
        <ele>845.40</ele>
        <time>2012-10-09T05:20:06.48Z</time>
      </trkpt>
      <trkpt lat="42.292231" lon="2.432654">
        <ele>845.00</ele>
        <time>2012-10-09T06:25:24.22Z</time>
      </trkpt>
      <trkpt lat="42.292261" lon="2.432636">
        <ele>844.60</ele>
        <time>2012-10-09T07:26:43.38Z</time>
      </trkpt>
      <trkpt lat="42.292293" lon="2.432614">
        <ele>844.20</ele>
        <time>2012-10-09T08:33:47.60Z</time>
      </trkpt>
      <trkpt lat="42.292333" lon="2.432600">
        <ele>843.80</ele>
        <time>2012-10-09T09:50:59.20Z</time>
      </trkpt>
      <trkpt lat="42.292441" lon="2.432542">
        <ele>843.20</ele>
        <time>2012-10-09T13:28:05.63Z</time>
      </trkpt>
      <trkpt lat="42.292481" lon="2.432525">
        <ele>842.80</ele>
        <time>2012-10-09T14:46:25.75Z</time>
      </trkpt>
      <trkpt lat="42.292537" lon="2.432483">
        <ele>842.20</ele>
        <time>2012-10-09T16:46:04.34Z</time>
      </trkpt>
      <trkpt lat="42.292578" lon="2.432452">
        <ele>841.60</ele>
        <time>2012-10-09T18:13:50.19Z</time>
      </trkpt>
      <trkpt lat="42.292619" lon="2.432421">
        <ele>841.20</ele>
        <time>2012-10-09T19:41:36.03Z</time>
      </trkpt>
      <trkpt lat="42.292666" lon="2.432388">
        <ele>840.80</ele>
        <time>2012-10-09T21:20:32.66Z</time>
      </trkpt>
      <trkpt lat="42.292705" lon="2.432357">
        <ele>840.40</ele>
        <time>2012-10-09T22:45:04.02Z</time>
      </trkpt>
      <trkpt lat="42.292751" lon="2.432314">
        <ele>839.80</ele>
        <time>2012-10-10T00:29:33.01Z</time>
      </trkpt>
      <trkpt lat="42.292794" lon="2.432275">
        <ele>839.40</ele>
        <time>2012-10-10T02:06:17.34Z</time>
      </trkpt>
      <trkpt lat="42.292823" lon="2.432247">
        <ele>839.00</ele>
        <time>2012-10-10T03:12:52.02Z</time>
      </trkpt>
      <trkpt lat="42.292866" lon="2.432197">
        <ele>839.00</ele>
        <time>2012-10-10T04:58:49.78Z</time>
      </trkpt>
      <trkpt lat="42.292884" lon="2.432180">
        <ele>838.60</ele>
        <time>2012-10-10T05:39:51.09Z</time>
      </trkpt>
      <trkpt lat="42.292911" lon="2.432156">
        <ele>838.00</ele>
        <time>2012-10-10T06:40:13.26Z</time>
      </trkpt>
      <trkpt lat="42.292945" lon="2.432126">
        <ele>837.60</ele>
        <time>2012-10-10T07:56:04.42Z</time>
      </trkpt>
      <trkpt lat="42.292979" lon="2.432091">
        <ele>837.00</ele>
        <time>2012-10-10T09:15:54.77Z</time>
      </trkpt>
      <trkpt lat="42.293011" lon="2.432062">
        <ele>836.60</ele>
        <time>2012-10-10T10:27:53.19Z</time>
      </trkpt>
      <trkpt lat="42.293044" lon="2.432022">
        <ele>836.00</ele>
        <time>2012-10-10T11:50:41.47Z</time>
      </trkpt>
      <trkpt lat="42.293083" lon="2.431965">
        <ele>835.60</ele>
        <time>2012-10-10T13:37:59.58Z</time>
      </trkpt>
      <trkpt lat="42.293115" lon="2.431930">
        <ele>835.00</ele>
        <time>2012-10-10T14:54:53.57Z</time>
      </trkpt>
      <trkpt lat="42.293242" lon="2.431813">
        <ele>834.60</ele>
        <time>2012-10-10T19:42:00.79Z</time>
      </trkpt>
      <trkpt lat="42.293291" lon="2.431743">
        <ele>834.20</ele>
        <time>2012-10-10T21:55:11.88Z</time>
      </trkpt>
      <trkpt lat="42.293341" lon="2.431698">
        <ele>833.60</ele>
        <time>2012-10-10T23:47:25.01Z</time>
      </trkpt>
      <trkpt lat="42.293388" lon="2.431643">
        <ele>833.20</ele>
        <time>2012-10-11T01:43:33.06Z</time>
      </trkpt>
      <trkpt lat="42.293424" lon="2.431599">
        <ele>832.80</ele>
        <time>2012-10-11T03:14:13.16Z</time>
      </trkpt>
      <trkpt lat="42.293456" lon="2.431555">
        <ele>832.40</ele>
        <time>2012-10-11T04:39:29.51Z</time>
      </trkpt>
      <trkpt lat="42.293488" lon="2.431510">
        <ele>831.80</ele>
        <time>2012-10-11T06:05:45.31Z</time>
      </trkpt>
      <trkpt lat="42.293523" lon="2.431459">
        <ele>831.40</ele>
        <time>2012-10-11T07:41:53.72Z</time>
      </trkpt>
      <trkpt lat="42.293555" lon="2.431412">
        <ele>830.80</ele>
        <time>2012-10-11T09:10:10.32Z</time>
      </trkpt>
      <trkpt lat="42.293579" lon="2.431363">
        <ele>830.40</ele>
        <time>2012-10-11T10:31:23.18Z</time>
      </trkpt>
      <trkpt lat="42.293619" lon="2.431311">
        <ele>830.00</ele>
        <time>2012-10-11T12:15:03.67Z</time>
      </trkpt>
      <trkpt lat="42.293647" lon="2.431271">
        <ele>829.60</ele>
        <time>2012-10-11T13:31:09.99Z</time>
      </trkpt>
      <trkpt lat="42.293662" lon="2.431233">
        <ele>829.00</ele>
        <time>2012-10-11T14:30:41.39Z</time>
      </trkpt>
      <trkpt lat="42.293684" lon="2.431196">
        <ele>828.60</ele>
        <time>2012-10-11T15:36:17.58Z</time>
      </trkpt>
      <trkpt lat="42.293707" lon="2.431160">
        <ele>828.20</ele>
        <time>2012-10-11T16:42:01.83Z</time>
      </trkpt>
      <trkpt lat="42.293728" lon="2.431117">
        <ele>827.80</ele>
        <time>2012-10-11T17:53:14.22Z</time>
      </trkpt>
      <trkpt lat="42.293756" lon="2.431069">
        <ele>827.20</ele>
        <time>2012-10-11T19:17:42.88Z</time>
      </trkpt>
      <trkpt lat="42.293785" lon="2.431010">
        <ele>826.60</ele>
        <time>2012-10-11T20:55:36.51Z</time>
      </trkpt>
      <trkpt lat="42.293813" lon="2.430956">
        <ele>826.20</ele>
        <time>2012-10-11T22:26:44.50Z</time>
      </trkpt>
      <trkpt lat="42.293832" lon="2.430896">
        <ele>825.60</ele>
        <time>2012-10-11T23:56:56.19Z</time>
      </trkpt>
      <trkpt lat="42.293865" lon="2.430829">
        <ele>825.20</ele>
        <time>2012-10-12T01:48:10.45Z</time>
      </trkpt>
      <trkpt lat="42.293902" lon="2.430763">
        <ele>824.80</ele>
        <time>2012-10-12T03:42:37.01Z</time>
      </trkpt>
      <trkpt lat="42.293932" lon="2.430708">
        <ele>824.20</ele>
        <time>2012-10-12T05:17:03.20Z</time>
      </trkpt>
      <trkpt lat="42.293968" lon="2.430657">
        <ele>823.80</ele>
        <time>2012-10-12T06:54:28.41Z</time>
      </trkpt>
      <trkpt lat="42.293996" lon="2.430607">
        <ele>823.20</ele>
        <time>2012-10-12T08:21:08.28Z</time>
      </trkpt>
      <trkpt lat="42.294043" lon="2.430498">
        <ele>822.80</ele>
        <time>2012-10-12T11:15:29.59Z</time>
      </trkpt>
      <trkpt lat="42.294063" lon="2.430453">
        <ele>822.20</ele>
        <time>2012-10-12T12:28:02.53Z</time>
      </trkpt>
      <trkpt lat="42.294091" lon="2.430390">
        <ele>821.80</ele>
        <time>2012-10-12T14:09:36.64Z</time>
      </trkpt>
      <trkpt lat="42.294092" lon="2.430319">
        <ele>821.40</ele>
        <time>2012-10-12T15:47:44.74Z</time>
      </trkpt>
      <trkpt lat="42.294108" lon="2.430231">
        <ele>820.80</ele>
        <time>2012-10-12T17:52:58.53Z</time>
      </trkpt>
      <trkpt lat="42.294125" lon="2.430159">
        <ele>820.20</ele>
        <time>2012-10-12T19:37:25.24Z</time>
      </trkpt>
      <trkpt lat="42.294135" lon="2.430098">
        <ele>819.60</ele>
        <time>2012-10-12T21:03:45.84Z</time>
      </trkpt>
      <trkpt lat="42.294140" lon="2.430052">
        <ele>819.20</ele>
        <time>2012-10-12T22:08:00.93Z</time>
      </trkpt>
      <trkpt lat="42.294146" lon="2.430019">
        <ele>818.60</ele>
        <time>2012-10-12T22:54:58.60Z</time>
      </trkpt>
      <trkpt lat="42.294158" lon="2.429982">
        <ele>818.60</ele>
        <time>2012-10-12T23:50:48.42Z</time>
      </trkpt>
      <trkpt lat="42.294179" lon="2.429983">
        <ele>818.60</ele>
        <time>2012-10-13T00:30:03.86Z</time>
      </trkpt>
      <trkpt lat="42.294205" lon="2.429999">
        <ele>818.60</ele>
        <time>2012-10-13T01:23:26.04Z</time>
      </trkpt>
      <trkpt lat="42.294202" lon="2.430002">
        <ele>818.60</ele>
        <time>2012-10-13T01:40:14.89Z</time>
      </trkpt>
      <trkpt lat="42.294191" lon="2.430038">
        <ele>816.60</ele>
        <time>2012-10-13T02:34:04.51Z</time>
      </trkpt>
      <trkpt lat="42.294182" lon="2.430077">
        <ele>816.60</ele>
        <time>2012-10-13T03:30:31.94Z</time>
      </trkpt>
      <trkpt lat="42.294174" lon="2.430147">
        <ele>816.00</ele>
        <time>2012-10-13T05:08:24.92Z</time>
      </trkpt>
      <trkpt lat="42.294169" lon="2.430200">
        <ele>815.60</ele>
        <time>2012-10-13T06:22:15.06Z</time>
      </trkpt>
      <trkpt lat="42.294168" lon="2.430238">
        <ele>815.00</ele>
        <time>2012-10-13T07:14:47.85Z</time>
      </trkpt>
      <trkpt lat="42.294168" lon="2.430274">
        <ele>814.60</ele>
        <time>2012-10-13T08:04:32.83Z</time>
      </trkpt>
      <trkpt lat="42.294165" lon="2.430311">
        <ele>814.20</ele>
        <time>2012-10-13T08:55:59.09Z</time>
      </trkpt>
      <trkpt lat="42.294154" lon="2.430413">
        <ele>813.60</ele>
        <time>2012-10-13T11:18:25.92Z</time>
      </trkpt>
      <trkpt lat="42.294149" lon="2.430461">
        <ele>813.20</ele>
        <time>2012-10-13T12:25:25.16Z</time>
      </trkpt>
      <trkpt lat="42.294138" lon="2.430507">
        <ele>812.80</ele>
        <time>2012-10-13T13:32:13.64Z</time>
      </trkpt>
      <trkpt lat="42.294134" lon="2.430551">
        <ele>812.40</ele>
        <time>2012-10-13T14:33:29.39Z</time>
      </trkpt>
      <trkpt lat="42.294127" lon="2.430597">
        <ele>811.80</ele>
        <time>2012-10-13T15:38:23.40Z</time>
      </trkpt>
      <trkpt lat="42.294097" lon="2.430695">
        <ele>811.40</ele>
        <time>2012-10-13T18:04:57.53Z</time>
      </trkpt>
      <trkpt lat="42.294085" lon="2.430743">
        <ele>811.00</ele>
        <time>2012-10-13T19:14:58.66Z</time>
      </trkpt>
      <trkpt lat="42.294076" lon="2.430791">
        <ele>810.60</ele>
        <time>2012-10-13T20:23:24.50Z</time>
      </trkpt>
      <trkpt lat="42.294072" lon="2.430825">
        <ele>810.20</ele>
        <time>2012-10-13T21:10:59.08Z</time>
      </trkpt>
      <trkpt lat="42.294059" lon="2.430865">
        <ele>809.80</ele>
        <time>2012-10-13T22:11:21.73Z</time>
      </trkpt>
      <trkpt lat="42.294027" lon="2.430946">
        <ele>809.40</ele>
        <time>2012-10-14T00:18:15.79Z</time>
      </trkpt>
      <trkpt lat="42.294015" lon="2.430997">
        <ele>809.00</ele>
        <time>2012-10-14T01:32:13.30Z</time>
      </trkpt>
      <trkpt lat="42.294005" lon="2.431047">
        <ele>808.40</ele>
        <time>2012-10-14T02:43:47.97Z</time>
      </trkpt>
      <trkpt lat="42.293992" lon="2.431100">
        <ele>808.00</ele>
        <time>2012-10-14T04:00:57.83Z</time>
      </trkpt>
      <trkpt lat="42.293976" lon="2.431141">
        <ele>807.60</ele>
        <time>2012-10-14T05:05:01.48Z</time>
      </trkpt>
      <trkpt lat="42.293907" lon="2.431291">
        <ele>807.00</ele>
        <time>2012-10-14T09:09:07.71Z</time>
      </trkpt>
      <trkpt lat="42.293876" lon="2.431356">
        <ele>806.60</ele>
        <time>2012-10-14T10:56:00.38Z</time>
      </trkpt>
      <trkpt lat="42.293839" lon="2.431405">
        <ele>806.00</ele>
        <time>2012-10-14T12:32:46.30Z</time>
      </trkpt>
      <trkpt lat="42.293817" lon="2.431453">
        <ele>805.60</ele>
        <time>2012-10-14T13:50:48.37Z</time>
      </trkpt>
      <trkpt lat="42.293799" lon="2.431500">
        <ele>805.00</ele>
        <time>2012-10-14T15:03:56.79Z</time>
      </trkpt>
      <trkpt lat="42.293731" lon="2.431669">
        <ele>804.40</ele>
        <time>2012-10-14T19:29:48.64Z</time>
      </trkpt>
      <trkpt lat="42.293703" lon="2.431739">
        <ele>804.00</ele>
        <time>2012-10-14T21:19:47.06Z</time>
      </trkpt>
      <trkpt lat="42.293682" lon="2.431809">
        <ele>803.40</ele>
        <time>2012-10-14T23:04:10.40Z</time>
      </trkpt>
      <trkpt lat="42.293659" lon="2.431863">
        <ele>803.00</ele>
        <time>2012-10-15T00:30:17.11Z</time>
      </trkpt>
      <trkpt lat="42.293632" lon="2.431919">
        <ele>802.60</ele>
        <time>2012-10-15T02:02:39.71Z</time>
      </trkpt>
      <trkpt lat="42.293582" lon="2.432015">
        <ele>802.00</ele>
        <time>2012-10-15T04:44:54.92Z</time>
      </trkpt>
      <trkpt lat="42.293554" lon="2.432065">
        <ele>801.60</ele>
        <time>2012-10-15T06:11:34.82Z</time>
      </trkpt>
      <trkpt lat="42.293533" lon="2.432119">
        <ele>801.20</ele>
        <time>2012-10-15T07:35:53.40Z</time>
      </trkpt>
      <trkpt lat="42.293513" lon="2.432167">
        <ele>800.80</ele>
        <time>2012-10-15T08:52:01.38Z</time>
      </trkpt>
      <trkpt lat="42.293495" lon="2.432213">
        <ele>800.20</ele>
        <time>2012-10-15T10:03:56.35Z</time>
      </trkpt>
      <trkpt lat="42.293438" lon="2.432331">
        <ele>799.80</ele>
        <time>2012-10-15T13:18:41.99Z</time>
      </trkpt>
      <trkpt lat="42.293399" lon="2.432388">
        <ele>799.40</ele>
        <time>2012-10-15T15:06:00.08Z</time>
      </trkpt>
      <trkpt lat="42.293364" lon="2.432449">
        <ele>798.80</ele>
        <time>2012-10-15T16:52:41.24Z</time>
      </trkpt>
      <trkpt lat="42.293324" lon="2.432524">
        <ele>798.40</ele>
        <time>2012-10-15T19:00:27.88Z</time>
      </trkpt>
      <trkpt lat="42.293302" lon="2.432581">
        <ele>798.00</ele>
        <time>2012-10-15T20:29:18.83Z</time>
      </trkpt>
      <trkpt lat="42.293274" lon="2.432630">
        <ele>797.40</ele>
        <time>2012-10-15T21:54:52.88Z</time>
      </trkpt>
      <trkpt lat="42.293241" lon="2.432675">
        <ele>797.00</ele>
        <time>2012-10-15T23:22:27Z</time>
      </trkpt>
      <trkpt lat="42.293199" lon="2.432723">
        <ele>796.40</ele>
        <time>2012-10-16T01:05:11.85Z</time>
      </trkpt>
      <trkpt lat="42.293169" lon="2.432764">
        <ele>795.80</ele>
        <time>2012-10-16T02:24:53.67Z</time>
      </trkpt>
      <trkpt lat="42.293149" lon="2.432824">
        <ele>795.80</ele>
        <time>2012-10-16T03:55:50.50Z</time>
      </trkpt>
      <trkpt lat="42.293164" lon="2.432876">
        <ele>795.40</ele>
        <time>2012-10-16T05:12:58.45Z</time>
      </trkpt>
      <trkpt lat="42.293193" lon="2.432877">
        <ele>795.00</ele>
        <time>2012-10-16T06:07:10.23Z</time>
      </trkpt>
      <trkpt lat="42.293207" lon="2.432882">
        <ele>794.60</ele>
        <time>2012-10-16T06:34:13.39Z</time>
      </trkpt>
      <trkpt lat="42.293216" lon="2.432880">
        <ele>794.20</ele>
        <time>2012-10-16T06:51:15.77Z</time>
      </trkpt>
      <trkpt lat="42.293228" lon="2.432864">
        <ele>793.60</ele>
        <time>2012-10-16T07:22:45.07Z</time>
      </trkpt>
      <trkpt lat="42.293274" lon="2.432769">
        <ele>793.20</ele>
        <time>2012-10-16T09:59:39.78Z</time>
      </trkpt>
      <trkpt lat="42.293299" lon="2.432728">
        <ele>792.80</ele>
        <time>2012-10-16T11:13:05.50Z</time>
      </trkpt>
      <trkpt lat="42.293322" lon="2.432684">
        <ele>792.20</ele>
        <time>2012-10-16T12:27:32.87Z</time>
      </trkpt>
      <trkpt lat="42.293359" lon="2.432654">
        <ele>791.80</ele>
        <time>2012-10-16T13:48:09.12Z</time>
      </trkpt>
      <trkpt lat="42.293394" lon="2.432633">
        <ele>791.20</ele>
        <time>2012-10-16T14:59:41.46Z</time>
      </trkpt>
      <trkpt lat="42.293457" lon="2.432580">
        <ele>790.80</ele>
        <time>2012-10-16T17:18:19.10Z</time>
      </trkpt>
      <trkpt lat="42.293486" lon="2.432552">
        <ele>790.40</ele>
        <time>2012-10-16T18:24:53.77Z</time>
      </trkpt>
      <trkpt lat="42.293524" lon="2.432518">
        <ele>789.80</ele>
        <time>2012-10-16T19:50:01.77Z</time>
      </trkpt>
      <trkpt lat="42.293556" lon="2.432482">
        <ele>789.40</ele>
        <time>2012-10-16T21:07:48.34Z</time>
      </trkpt>
      <trkpt lat="42.293589" lon="2.432442">
        <ele>789.00</ele>
        <time>2012-10-16T22:30:36.60Z</time>
      </trkpt>
      <trkpt lat="42.293627" lon="2.432396">
        <ele>788.40</ele>
        <time>2012-10-17T00:05:54.28Z</time>
      </trkpt>
      <trkpt lat="42.293677" lon="2.432334">
        <ele>788.00</ele>
        <time>2012-10-17T02:12:39.59Z</time>
      </trkpt>
      <trkpt lat="42.293709" lon="2.432296">
        <ele>787.40</ele>
        <time>2012-10-17T03:32:13.93Z</time>
      </trkpt>
      <trkpt lat="42.293746" lon="2.432248">
        <ele>787.00</ele>
        <time>2012-10-17T05:08:02.14Z</time>
      </trkpt>
      <trkpt lat="42.293781" lon="2.432198">
        <ele>786.40</ele>
        <time>2012-10-17T06:43:10.03Z</time>
      </trkpt>
      <trkpt lat="42.293817" lon="2.432150">
        <ele>786.00</ele>
        <time>2012-10-17T08:17:37.89Z</time>
      </trkpt>
      <trkpt lat="42.293854" lon="2.432103">
        <ele>785.60</ele>
        <time>2012-10-17T09:52:29Z</time>
      </trkpt>
      <trkpt lat="42.293888" lon="2.432051">
        <ele>785.20</ele>
        <time>2012-10-17T11:28:23.61Z</time>
      </trkpt>
      <trkpt lat="42.293920" lon="2.431993">
        <ele>784.60</ele>
        <time>2012-10-17T13:08:23.15Z</time>
      </trkpt>
      <trkpt lat="42.293952" lon="2.431940">
        <ele>784.20</ele>
        <time>2012-10-17T14:42:55.78Z</time>
      </trkpt>
      <trkpt lat="42.293980" lon="2.431895">
        <ele>783.80</ele>
        <time>2012-10-17T16:04:11.54Z</time>
      </trkpt>
      <trkpt lat="42.294010" lon="2.431851">
        <ele>783.40</ele>
        <time>2012-10-17T17:26:53.27Z</time>
      </trkpt>
      <trkpt lat="42.294038" lon="2.431795">
        <ele>783.00</ele>
        <time>2012-10-17T19:00:17.84Z</time>
      </trkpt>
      <trkpt lat="42.294069" lon="2.431742">
        <ele>782.60</ele>
        <time>2012-10-17T20:33:40.26Z</time>
      </trkpt>
      <trkpt lat="42.294098" lon="2.431687">
        <ele>782.00</ele>
        <time>2012-10-17T22:07:00.65Z</time>
      </trkpt>
      <trkpt lat="42.294132" lon="2.431626">
        <ele>781.60</ele>
        <time>2012-10-17T23:52:33.68Z</time>
      </trkpt>
      <trkpt lat="42.294164" lon="2.431567">
        <ele>781.20</ele>
        <time>2012-10-18T01:33:39.87Z</time>
      </trkpt>
      <trkpt lat="42.294205" lon="2.431507">
        <ele>780.60</ele>
        <time>2012-10-18T03:26:32.76Z</time>
      </trkpt>
      <trkpt lat="42.294260" lon="2.431437">
        <ele>780.20</ele>
        <time>2012-10-18T05:47:40.17Z</time>
      </trkpt>
      <trkpt lat="42.294329" lon="2.431342">
        <ele>779.60</ele>
        <time>2012-10-18T08:51:39.61Z</time>
      </trkpt>
      <trkpt lat="42.294368" lon="2.431304">
        <ele>779.20</ele>
        <time>2012-10-18T10:21:28.39Z</time>
      </trkpt>
      <trkpt lat="42.294390" lon="2.431256">
        <ele>778.80</ele>
        <time>2012-10-18T11:39:30.43Z</time>
      </trkpt>
      <trkpt lat="42.294413" lon="2.431214">
        <ele>778.20</ele>
        <time>2012-10-18T12:51:43.38Z</time>
      </trkpt>
      <trkpt lat="42.294429" lon="2.431177">
        <ele>777.80</ele>
        <time>2012-10-18T13:50:57.04Z</time>
      </trkpt>
      <trkpt lat="42.294497" lon="2.431072">
        <ele>777.80</ele>
        <time>2012-10-18T17:03:48.45Z</time>
      </trkpt>
      <trkpt lat="42.294514" lon="2.431033">
        <ele>777.40</ele>
        <time>2012-10-18T18:06:21.87Z</time>
      </trkpt>
      <trkpt lat="42.294537" lon="2.430996">
        <ele>777.00</ele>
        <time>2012-10-18T19:13:09.20Z</time>
      </trkpt>
      <trkpt lat="42.294561" lon="2.430948">
        <ele>776.60</ele>
        <time>2012-10-18T20:33:13.10Z</time>
      </trkpt>
      <trkpt lat="42.294589" lon="2.430899">
        <ele>776.00</ele>
        <time>2012-10-18T21:58:47.08Z</time>
      </trkpt>
      <trkpt lat="42.294613" lon="2.430848">
        <ele>775.60</ele>
        <time>2012-10-18T23:22:18.99Z</time>
      </trkpt>
      <trkpt lat="42.294632" lon="2.430792">
        <ele>775.20</ele>
        <time>2012-10-19T00:47:27.39Z</time>
      </trkpt>
      <trkpt lat="42.294640" lon="2.430733">
        <ele>774.80</ele>
        <time>2012-10-19T02:10:20.91Z</time>
      </trkpt>
      <trkpt lat="42.294666" lon="2.430671">
        <ele>774.40</ele>
        <time>2012-10-19T03:48:50.33Z</time>
      </trkpt>
      <trkpt lat="42.294679" lon="2.430621">
        <ele>774.00</ele>
        <time>2012-10-19T05:02:04.74Z</time>
      </trkpt>
      <trkpt lat="42.294696" lon="2.430574">
        <ele>773.40</ele>
        <time>2012-10-19T06:14:22.71Z</time>
      </trkpt>
      <trkpt lat="42.294711" lon="2.430531">
        <ele>773.40</ele>
        <time>2012-10-19T07:20:04.65Z</time>
      </trkpt>
      <trkpt lat="42.294763" lon="2.430403">
        <ele>773.00</ele>
        <time>2012-10-19T10:41:53.10Z</time>
      </trkpt>
      <trkpt lat="42.294789" lon="2.430354">
        <ele>772.40</ele>
        <time>2012-10-19T12:05:13.17Z</time>
      </trkpt>
      <trkpt lat="42.294814" lon="2.430307">
        <ele>772.00</ele>
        <time>2012-10-19T13:25:13.15Z</time>
      </trkpt>
      <trkpt lat="42.294838" lon="2.430256">
        <ele>771.40</ele>
        <time>2012-10-19T14:48:45.05Z</time>
      </trkpt>
      <trkpt lat="42.294864" lon="2.430198">
        <ele>771.00</ele>
        <time>2012-10-19T16:22:28.32Z</time>
      </trkpt>
      <trkpt lat="42.294891" lon="2.430138">
        <ele>770.40</ele>
        <time>2012-10-19T17:59:31.51Z</time>
      </trkpt>
      <trkpt lat="42.294917" lon="2.430080">
        <ele>770.00</ele>
        <time>2012-10-19T19:33:14.77Z</time>
      </trkpt>
      <trkpt lat="42.294939" lon="2.430027">
        <ele>769.60</ele>
        <time>2012-10-19T20:57:13.92Z</time>
      </trkpt>
      <trkpt lat="42.294974" lon="2.429971">
        <ele>769.20</ele>
        <time>2012-10-19T22:38:32.72Z</time>
      </trkpt>
      <trkpt lat="42.294996" lon="2.429932">
        <ele>768.80</ele>
        <time>2012-10-19T23:46:19.43Z</time>
      </trkpt>
      <trkpt lat="42.295034" lon="2.429871">
        <ele>768.20</ele>
        <time>2012-10-20T01:36:31.94Z</time>
      </trkpt>
      <trkpt lat="42.295046" lon="2.429836">
        <ele>767.80</ele>
        <time>2012-10-20T02:29:50.55Z</time>
      </trkpt>
      <trkpt lat="42.295063" lon="2.429803">
        <ele>767.40</ele>
        <time>2012-10-20T03:25:24.92Z</time>
      </trkpt>
      <trkpt lat="42.295092" lon="2.429771">
        <ele>767.00</ele>
        <time>2012-10-20T04:35:20.99Z</time>
      </trkpt>
      <trkpt lat="42.295123" lon="2.429730">
        <ele>766.60</ele>
        <time>2012-10-20T05:56:22.23Z</time>
      </trkpt>
      <trkpt lat="42.295170" lon="2.429649">
        <ele>766.00</ele>
        <time>2012-10-20T08:18:38.16Z</time>
      </trkpt>
      <trkpt lat="42.295196" lon="2.429616">
        <ele>765.60</ele>
        <time>2012-10-20T09:25:15.74Z</time>
      </trkpt>
      <trkpt lat="42.295218" lon="2.429580">
        <ele>765.20</ele>
        <time>2012-10-20T10:29:47.59Z</time>
      </trkpt>
      <trkpt lat="42.295242" lon="2.429544">
        <ele>764.80</ele>
        <time>2012-10-20T11:36:45.96Z</time>
      </trkpt>
      <trkpt lat="42.295263" lon="2.429513">
        <ele>764.40</ele>
        <time>2012-10-20T12:34:51.34Z</time>
      </trkpt>
      <trkpt lat="42.295319" lon="2.429444">
        <ele>764.00</ele>
        <time>2012-10-20T14:56:24.57Z</time>
      </trkpt>
      <trkpt lat="42.295338" lon="2.429422">
        <ele>763.60</ele>
        <time>2012-10-20T15:43:08.74Z</time>
      </trkpt>
      <trkpt lat="42.295356" lon="2.429400">
        <ele>763.20</ele>
        <time>2012-10-20T16:28:28.76Z</time>
      </trkpt>
      <trkpt lat="42.295372" lon="2.429376">
        <ele>762.80</ele>
        <time>2012-10-20T17:13:07.66Z</time>
      </trkpt>
      <trkpt lat="42.295389" lon="2.429353">
        <ele>762.40</ele>
        <time>2012-10-20T17:58:03.60Z</time>
      </trkpt>
      <trkpt lat="42.295448" lon="2.429258">
        <ele>761.80</ele>
        <time>2012-10-20T20:49:28.72Z</time>
      </trkpt>
      <trkpt lat="42.295463" lon="2.429233">
        <ele>761.80</ele>
        <time>2012-10-20T21:33:57.78Z</time>
      </trkpt>
      <trkpt lat="42.295473" lon="2.429208">
        <ele>760.80</ele>
        <time>2012-10-20T22:13:14.31Z</time>
      </trkpt>
      <trkpt lat="42.295485" lon="2.429186">
        <ele>760.40</ele>
        <time>2012-10-20T22:51:00.75Z</time>
      </trkpt>
      <trkpt lat="42.295495" lon="2.429160">
        <ele>759.80</ele>
        <time>2012-10-20T23:31:30.53Z</time>
      </trkpt>
      <trkpt lat="42.295537" lon="2.429071">
        <ele>759.40</ele>
        <time>2012-10-21T01:57:23.80Z</time>
      </trkpt>
      <trkpt lat="42.295553" lon="2.429039">
        <ele>759.00</ele>
        <time>2012-10-21T02:50:46.36Z</time>
      </trkpt>
      <trkpt lat="42.295562" lon="2.428999">
        <ele>758.60</ele>
        <time>2012-10-21T03:48:32.97Z</time>
      </trkpt>
      <trkpt lat="42.295570" lon="2.428958">
        <ele>758.20</ele>
        <time>2012-10-21T04:47:08.73Z</time>
      </trkpt>
      <trkpt lat="42.295583" lon="2.428904">
        <ele>757.40</ele>
        <time>2012-10-21T06:05:37.26Z</time>
      </trkpt>
      <trkpt lat="42.295596" lon="2.428849">
        <ele>757.40</ele>
        <time>2012-10-21T07:25:24.70Z</time>
      </trkpt>
      <trkpt lat="42.295606" lon="2.428817">
        <ele>756.60</ele>
        <time>2012-10-21T08:13:25.01Z</time>
      </trkpt>
      <trkpt lat="42.295620" lon="2.428788">
        <ele>756.20</ele>
        <time>2012-10-21T09:01:16.32Z</time>
      </trkpt>
      <trkpt lat="42.295637" lon="2.428766">
        <ele>755.80</ele>
        <time>2012-10-21T09:45:14.25Z</time>
      </trkpt>
      <trkpt lat="42.295651" lon="2.428753">
        <ele>755.80</ele>
        <time>2012-10-21T10:16:58.08Z</time>
      </trkpt>
      <trkpt lat="42.295678" lon="2.428744">
        <ele>755.80</ele>
        <time>2012-10-21T11:08:55.26Z</time>
      </trkpt>
      <trkpt lat="42.295678" lon="2.428786">
        <ele>755.80</ele>
        <time>2012-10-21T12:06:57.64Z</time>
      </trkpt>
      <trkpt lat="42.295677" lon="2.428860">
        <ele>755.20</ele>
        <time>2012-10-21T13:49:14.30Z</time>
      </trkpt>
      <trkpt lat="42.295677" lon="2.428900">
        <ele>754.80</ele>
        <time>2012-10-21T14:44:30.85Z</time>
      </trkpt>
      <trkpt lat="42.295677" lon="2.428939">
        <ele>754.20</ele>
        <time>2012-10-21T15:38:24.50Z</time>
      </trkpt>
      <trkpt lat="42.295676" lon="2.428986">
        <ele>753.80</ele>
        <time>2012-10-21T16:43:23.06Z</time>
      </trkpt>
      <trkpt lat="42.295672" lon="2.429031">
        <ele>753.40</ele>
        <time>2012-10-21T17:46:01.03Z</time>
      </trkpt>
      <trkpt lat="42.295672" lon="2.429074">
        <ele>753.40</ele>
        <time>2012-10-21T18:45:26.33Z</time>
      </trkpt>
      <trkpt lat="42.295654" lon="2.429161">
        <ele>753.00</ele>
        <time>2012-10-21T20:50:16.71Z</time>
      </trkpt>
      <trkpt lat="42.295647" lon="2.429191">
        <ele>752.40</ele>
        <time>2012-10-21T21:33:44.96Z</time>
      </trkpt>
      <trkpt lat="42.295639" lon="2.429225">
        <ele>752.00</ele>
        <time>2012-10-21T22:23:03.22Z</time>
      </trkpt>
      <trkpt lat="42.295628" lon="2.429256">
        <ele>751.60</ele>
        <time>2012-10-21T23:10:34.01Z</time>
      </trkpt>
      <trkpt lat="42.295619" lon="2.429299">
        <ele>751.20</ele>
        <time>2012-10-22T00:12:19.30Z</time>
      </trkpt>
      <trkpt lat="42.295572" lon="2.429438">
        <ele>751.20</ele>
        <time>2012-10-22T03:43:31.43Z</time>
      </trkpt>
      <trkpt lat="42.295557" lon="2.429482">
        <ele>750.80</ele>
        <time>2012-10-22T04:50:28.47Z</time>
      </trkpt>
      <trkpt lat="42.295543" lon="2.429525">
        <ele>750.20</ele>
        <time>2012-10-22T05:55:23.87Z</time>
      </trkpt>
      <trkpt lat="42.295525" lon="2.429572">
        <ele>749.80</ele>
        <time>2012-10-22T07:08:32.20Z</time>
      </trkpt>
      <trkpt lat="42.295507" lon="2.429613">
        <ele>749.40</ele>
        <time>2012-10-22T08:14:25.37Z</time>
      </trkpt>
      <trkpt lat="42.295490" lon="2.429654">
        <ele>748.80</ele>
        <time>2012-10-22T09:19:22.51Z</time>
      </trkpt>
      <trkpt lat="42.295451" lon="2.429728">
        <ele>748.40</ele>
        <time>2012-10-22T11:24:56.28Z</time>
      </trkpt>
      <trkpt lat="42.295439" lon="2.429763">
        <ele>748.00</ele>
        <time>2012-10-22T12:18:14.87Z</time>
      </trkpt>
      <trkpt lat="42.295420" lon="2.429790">
        <ele>747.60</ele>
        <time>2012-10-22T13:09:44.80Z</time>
      </trkpt>
      <trkpt lat="42.295411" lon="2.429816">
        <ele>747.00</ele>
        <time>2012-10-22T13:49:24.95Z</time>
      </trkpt>
      <trkpt lat="42.295400" lon="2.429850">
        <ele>746.60</ele>
        <time>2012-10-22T14:40:41.90Z</time>
      </trkpt>
      <trkpt lat="42.295331" lon="2.429966">
        <ele>746.20</ele>
        <time>2012-10-22T18:06:24.08Z</time>
      </trkpt>
      <trkpt lat="42.295312" lon="2.430028">
        <ele>745.60</ele>
        <time>2012-10-22T19:39:08.50Z</time>
      </trkpt>
      <trkpt lat="42.295300" lon="2.430082">
        <ele>745.20</ele>
        <time>2012-10-22T20:57:03.56Z</time>
      </trkpt>
      <trkpt lat="42.295295" lon="2.430146">
        <ele>744.80</ele>
        <time>2012-10-22T22:25:59.60Z</time>
      </trkpt>
      <trkpt lat="42.295295" lon="2.430194">
        <ele>744.20</ele>
        <time>2012-10-22T23:32:19.49Z</time>
      </trkpt>
      <trkpt lat="42.295297" lon="2.430235">
        <ele>744.20</ele>
        <time>2012-10-23T00:29:06.37Z</time>
      </trkpt>
      <trkpt lat="42.295300" lon="2.430293">
        <ele>743.80</ele>
        <time>2012-10-23T01:49:27.15Z</time>
      </trkpt>
      <trkpt lat="42.295305" lon="2.430322">
        <ele>743.40</ele>
        <time>2012-10-23T02:30:36.12Z</time>
      </trkpt>
      <trkpt lat="42.295309" lon="2.430350">
        <ele>743.00</ele>
        <time>2012-10-23T03:10:00.63Z</time>
      </trkpt>
      <trkpt lat="42.295312" lon="2.430376">
        <ele>742.40</ele>
        <time>2012-10-23T03:46:22.47Z</time>
      </trkpt>
      <trkpt lat="42.295313" lon="2.430404">
        <ele>742.00</ele>
        <time>2012-10-23T04:25:06.78Z</time>
      </trkpt>
      <trkpt lat="42.295310" lon="2.430439">
        <ele>742.00</ele>
        <time>2012-10-23T05:13:48.20Z</time>
      </trkpt>
      <trkpt lat="42.295304" lon="2.430599">
        <ele>741.60</ele>
        <time>2012-10-23T08:55:11.54Z</time>
      </trkpt>
      <trkpt lat="42.295298" lon="2.430666">
        <ele>741.00</ele>
        <time>2012-10-23T10:28:27.37Z</time>
      </trkpt>
      <trkpt lat="42.295292" lon="2.430722">
        <ele>740.40</ele>
        <time>2012-10-23T11:46:39.04Z</time>
      </trkpt>
      <trkpt lat="42.295289" lon="2.430777">
        <ele>740.00</ele>
        <time>2012-10-23T13:02:51.71Z</time>
      </trkpt>
      <trkpt lat="42.295288" lon="2.430829">
        <ele>739.40</ele>
        <time>2012-10-23T14:14:44.72Z</time>
      </trkpt>
      <trkpt lat="42.295288" lon="2.430881">
        <ele>739.00</ele>
        <time>2012-10-23T15:26:36.27Z</time>
      </trkpt>
      <trkpt lat="42.295281" lon="2.430937">
        <ele>738.40</ele>
        <time>2012-10-23T16:45:05.31Z</time>
      </trkpt>
      <trkpt lat="42.295264" lon="2.431000">
        <ele>738.00</ele>
        <time>2012-10-23T18:17:45.65Z</time>
      </trkpt>
      <trkpt lat="42.295251" lon="2.431065">
        <ele>737.60</ele>
        <time>2012-10-23T19:50:48.62Z</time>
      </trkpt>
      <trkpt lat="42.295239" lon="2.431134">
        <ele>737.00</ele>
        <time>2012-10-23T21:28:45.72Z</time>
      </trkpt>
      <trkpt lat="42.295211" lon="2.431260">
        <ele>736.60</ele>
        <time>2012-10-24T00:30:34.23Z</time>
      </trkpt>
      <trkpt lat="42.295192" lon="2.431330">
        <ele>736.00</ele>
        <time>2012-10-24T02:13:36.67Z</time>
      </trkpt>
      <trkpt lat="42.295174" lon="2.431397">
        <ele>735.60</ele>
        <time>2012-10-24T03:52:07.02Z</time>
      </trkpt>
      <trkpt lat="42.295159" lon="2.431459">
        <ele>735.00</ele>
        <time>2012-10-24T05:22:15.71Z</time>
      </trkpt>
      <trkpt lat="42.295144" lon="2.431513">
        <ele>734.60</ele>
        <time>2012-10-24T06:41:58.41Z</time>
      </trkpt>
      <trkpt lat="42.295136" lon="2.431566">
        <ele>734.60</ele>
        <time>2012-10-24T07:56:43.44Z</time>
      </trkpt>
      <trkpt lat="42.295089" lon="2.431736">
        <ele>734.20</ele>
        <time>2012-10-24T12:07:31.34Z</time>
      </trkpt>
      <trkpt lat="42.295079" lon="2.431811">
        <ele>733.60</ele>
        <time>2012-10-24T13:52:50.16Z</time>
      </trkpt>
      <trkpt lat="42.295058" lon="2.431874">
        <ele>733.20</ele>
        <time>2012-10-24T15:28:19.68Z</time>
      </trkpt>
      <trkpt lat="42.295030" lon="2.431936">
        <ele>732.60</ele>
        <time>2012-10-24T17:08:42.80Z</time>
      </trkpt>
      <trkpt lat="42.295002" lon="2.431991">
        <ele>732.20</ele>
        <time>2012-10-24T18:40:58.82Z</time>
      </trkpt>
      <trkpt lat="42.294969" lon="2.432043">
        <ele>731.60</ele>
        <time>2012-10-24T20:15:39.75Z</time>
      </trkpt>
      <trkpt lat="42.294937" lon="2.432100">
        <ele>731.00</ele>
        <time>2012-10-24T21:54:32.97Z</time>
      </trkpt>
      <trkpt lat="42.294907" lon="2.432157">
        <ele>730.40</ele>
        <time>2012-10-24T23:31:13.40Z</time>
      </trkpt>
      <trkpt lat="42.294837" lon="2.432331">
        <ele>729.80</ele>
        <time>2012-10-25T04:04:56.35Z</time>
      </trkpt>
      <trkpt lat="42.294818" lon="2.432393">
        <ele>729.40</ele>
        <time>2012-10-25T05:37:40.80Z</time>
      </trkpt>
      <trkpt lat="42.294797" lon="2.432464">
        <ele>728.80</ele>
        <time>2012-10-25T07:23:20.95Z</time>
      </trkpt>
      <trkpt lat="42.294775" lon="2.432520">
        <ele>728.20</ele>
        <time>2012-10-25T08:50:58.45Z</time>
      </trkpt>
      <trkpt lat="42.294755" lon="2.432571">
        <ele>727.80</ele>
        <time>2012-10-25T10:10:44.64Z</time>
      </trkpt>
      <trkpt lat="42.294748" lon="2.432658">
        <ele>727.80</ele>
        <time>2012-10-25T12:11:40.81Z</time>
      </trkpt>
      <trkpt lat="42.294768" lon="2.432707">
        <ele>727.40</ele>
        <time>2012-10-25T13:29:01.14Z</time>
      </trkpt>
      <trkpt lat="42.294781" lon="2.432706">
        <ele>727.00</ele>
        <time>2012-10-25T13:53:20.72Z</time>
      </trkpt>
      <trkpt lat="42.294786" lon="2.432694">
        <ele>726.60</ele>
        <time>2012-10-25T14:12:22.70Z</time>
      </trkpt>
      <trkpt lat="42.294787" lon="2.432674">
        <ele>726.00</ele>
        <time>2012-10-25T14:40:04.79Z</time>
      </trkpt>
      <trkpt lat="42.294785" lon="2.432646">
        <ele>725.60</ele>
        <time>2012-10-25T15:18:57.21Z</time>
      </trkpt>
      <trkpt lat="42.294798" lon="2.432607">
        <ele>725.60</ele>
        <time>2012-10-25T16:18:04.07Z</time>
      </trkpt>
      <trkpt lat="42.294866" lon="2.432467">
        <ele>725.20</ele>
        <time>2012-10-25T20:09:31.07Z</time>
      </trkpt>
      <trkpt lat="42.294899" lon="2.432425">
        <ele>724.60</ele>
        <time>2012-10-25T21:34:11.49Z</time>
      </trkpt>
      <trkpt lat="42.294927" lon="2.432393">
        <ele>724.20</ele>
        <time>2012-10-25T22:42:41.35Z</time>
      </trkpt>
      <trkpt lat="42.294953" lon="2.432367">
        <ele>723.80</ele>
        <time>2012-10-25T23:43:06.45Z</time>
      </trkpt>
      <trkpt lat="42.294954" lon="2.432365">
        <ele>723.20</ele>
        <time>2012-10-25T23:59:55.30Z</time>
      </trkpt>
      <trkpt lat="42.294979" lon="2.432349">
        <ele>722.80</ele>
        <time>2012-10-26T00:51:35.81Z</time>
      </trkpt>
      <trkpt lat="42.295017" lon="2.432322">
        <ele>722.40</ele>
        <time>2012-10-26T02:11:47.85Z</time>
      </trkpt>
      <trkpt lat="42.295052" lon="2.432298">
        <ele>722.00</ele>
        <time>2012-10-26T03:25:06.95Z</time>
      </trkpt>
      <trkpt lat="42.295088" lon="2.432265">
        <ele>721.40</ele>
        <time>2012-10-26T04:46:22.51Z</time>
      </trkpt>
      <trkpt lat="42.295150" lon="2.432186">
        <ele>720.40</ele>
        <time>2012-10-26T07:25:32.69Z</time>
      </trkpt>
      <trkpt lat="42.295174" lon="2.432150">
        <ele>719.80</ele>
        <time>2012-10-26T08:32:31.05Z</time>
      </trkpt>
      <trkpt lat="42.295193" lon="2.432120">
        <ele>719.20</ele>
        <time>2012-10-26T09:27:05.70Z</time>
      </trkpt>
      <trkpt lat="42.295251" lon="2.432011">
        <ele>718.80</ele>
        <time>2012-10-26T12:32:38.92Z</time>
      </trkpt>
      <trkpt lat="42.295274" lon="2.431970">
        <ele>718.40</ele>
        <time>2012-10-26T13:43:45.47Z</time>
      </trkpt>
      <trkpt lat="42.295303" lon="2.431925">
        <ele>717.80</ele>
        <time>2012-10-26T15:06:14.08Z</time>
      </trkpt>
      <trkpt lat="42.295328" lon="2.431878">
        <ele>717.40</ele>
        <time>2012-10-26T16:26:14.03Z</time>
      </trkpt>
      <trkpt lat="42.295340" lon="2.431839">
        <ele>717.00</ele>
        <time>2012-10-26T17:24:36.31Z</time>
      </trkpt>
      <trkpt lat="42.295355" lon="2.431782">
        <ele>717.00</ele>
        <time>2012-10-26T18:48:12.62Z</time>
      </trkpt>
      <trkpt lat="42.295375" lon="2.431749">
        <ele>716.00</ele>
        <time>2012-10-26T19:47:09.94Z</time>
      </trkpt>
      <trkpt lat="42.295392" lon="2.431715">
        <ele>715.60</ele>
        <time>2012-10-26T20:43:52.67Z</time>
      </trkpt>
      <trkpt lat="42.295403" lon="2.431685">
        <ele>715.20</ele>
        <time>2012-10-26T21:30:08.94Z</time>
      </trkpt>
      <trkpt lat="42.295416" lon="2.431656">
        <ele>714.80</ele>
        <time>2012-10-26T22:17:00.55Z</time>
      </trkpt>
      <trkpt lat="42.295449" lon="2.431583">
        <ele>714.80</ele>
        <time>2012-10-27T00:15:14.14Z</time>
      </trkpt>
      <trkpt lat="42.295509" lon="2.431436">
        <ele>714.20</ele>
        <time>2012-10-27T04:07:15.02Z</time>
      </trkpt>
      <trkpt lat="42.295526" lon="2.431388">
        <ele>713.80</ele>
        <time>2012-10-27T05:20:47.59Z</time>
      </trkpt>
      <trkpt lat="42.295539" lon="2.431341">
        <ele>713.40</ele>
        <time>2012-10-27T06:30:08.09Z</time>
      </trkpt>
      <trkpt lat="42.295553" lon="2.431297">
        <ele>713.00</ele>
        <time>2012-10-27T07:36:19.52Z</time>
      </trkpt>
      <trkpt lat="42.295564" lon="2.431259">
        <ele>712.40</ele>
        <time>2012-10-27T08:32:42.94Z</time>
      </trkpt>
      <trkpt lat="42.295613" lon="2.431090">
        <ele>712.40</ele>
        <time>2012-10-27T12:43:33.45Z</time>
      </trkpt>
      <trkpt lat="42.295617" lon="2.431038">
        <ele>712.00</ele>
        <time>2012-10-27T13:55:48.23Z</time>
      </trkpt>
      <trkpt lat="42.295624" lon="2.430986">
        <ele>711.60</ele>
        <time>2012-10-27T15:08:50.58Z</time>
      </trkpt>
      <trkpt lat="42.295639" lon="2.430940">
        <ele>711.00</ele>
        <time>2012-10-27T16:18:18.80Z</time>
      </trkpt>
      <trkpt lat="42.295652" lon="2.430908">
        <ele>710.60</ele>
        <time>2012-10-27T17:08:45.88Z</time>
      </trkpt>
      <trkpt lat="42.295664" lon="2.430889">
        <ele>710.00</ele>
        <time>2012-10-27T17:43:17.39Z</time>
      </trkpt>
      <trkpt lat="42.295670" lon="2.430841">
        <ele>710.00</ele>
        <time>2012-10-27T18:50:33.68Z</time>
      </trkpt>
      <trkpt lat="42.295629" lon="2.430675">
        <ele>710.00</ele>
        <time>2012-10-27T22:52:24.43Z</time>
      </trkpt>
      <trkpt lat="42.295623" lon="2.430616">
        <ele>709.60</ele>
        <time>2012-10-28T00:14:42.37Z</time>
      </trkpt>
      <trkpt lat="42.295626" lon="2.430559">
        <ele>709.00</ele>
        <time>2012-10-28T01:33:40.41Z</time>
      </trkpt>
      <trkpt lat="42.295634" lon="2.430508">
        <ele>708.60</ele>
        <time>2012-10-28T02:45:43.07Z</time>
      </trkpt>
      <trkpt lat="42.295654" lon="2.430462">
        <ele>708.00</ele>
        <time>2012-10-28T03:59:27.20Z</time>
      </trkpt>
      <trkpt lat="42.295678" lon="2.430423">
        <ele>707.60</ele>
        <time>2012-10-28T05:09:33.61Z</time>
      </trkpt>
      <trkpt lat="42.295702" lon="2.430393">
        <ele>707.60</ele>
        <time>2012-10-28T06:10:37.59Z</time>
      </trkpt>
      <trkpt lat="42.295808" lon="2.430315">
        <ele>707.00</ele>
        <time>2012-10-28T09:56:05.59Z</time>
      </trkpt>
      <trkpt lat="42.295850" lon="2.430286">
        <ele>706.40</ele>
        <time>2012-10-28T11:24:12.02Z</time>
      </trkpt>
      <trkpt lat="42.295899" lon="2.430255">
        <ele>706.00</ele>
        <time>2012-10-28T13:05:16.28Z</time>
      </trkpt>
      <trkpt lat="42.295940" lon="2.430227">
        <ele>705.40</ele>
        <time>2012-10-28T14:31:05.23Z</time>
      </trkpt>
      <trkpt lat="42.295979" lon="2.430180">
        <ele>705.00</ele>
        <time>2012-10-28T16:08:41.64Z</time>
      </trkpt>
      <trkpt lat="42.296020" lon="2.430128">
        <ele>704.60</ele>
        <time>2012-10-28T17:53:43.30Z</time>
      </trkpt>
      <trkpt lat="42.296058" lon="2.430077">
        <ele>704.20</ele>
        <time>2012-10-28T19:33:45.37Z</time>
      </trkpt>
      <trkpt lat="42.296092" lon="2.430024">
        <ele>703.80</ele>
        <time>2012-10-28T21:10:42.25Z</time>
      </trkpt>
      <trkpt lat="42.296128" lon="2.429971">
        <ele>703.40</ele>
        <time>2012-10-28T22:50:08.42Z</time>
      </trkpt>
      <trkpt lat="42.296163" lon="2.429920">
        <ele>703.00</ele>
        <time>2012-10-29T00:26:16.70Z</time>
      </trkpt>
      <trkpt lat="42.296206" lon="2.429864">
        <ele>702.40</ele>
        <time>2012-10-29T02:17:49.35Z</time>
      </trkpt>
      <trkpt lat="42.296259" lon="2.429817">
        <ele>702.00</ele>
        <time>2012-10-29T04:16:14.36Z</time>
      </trkpt>
      <trkpt lat="42.296304" lon="2.429781">
        <ele>701.60</ele>
        <time>2012-10-29T05:53:55.57Z</time>
      </trkpt>
      <trkpt lat="42.296344" lon="2.429747">
        <ele>701.00</ele>
        <time>2012-10-29T07:22:11.90Z</time>
      </trkpt>
      <trkpt lat="42.296383" lon="2.429705">
        <ele>700.60</ele>
        <time>2012-10-29T08:55:21.01Z</time>
      </trkpt>
      <trkpt lat="42.296419" lon="2.429658">
        <ele>700.00</ele>
        <time>2012-10-29T10:28:50.85Z</time>
      </trkpt>
      <trkpt lat="42.296458" lon="2.429603">
        <ele>699.60</ele>
        <time>2012-10-29T12:14:08.04Z</time>
      </trkpt>
      <trkpt lat="42.296492" lon="2.429540">
        <ele>699.00</ele>
        <time>2012-10-29T14:01:54.13Z</time>
      </trkpt>
      <trkpt lat="42.296517" lon="2.429480">
        <ele>698.60</ele>
        <time>2012-10-29T15:37:03.90Z</time>
      </trkpt>
      <trkpt lat="42.296534" lon="2.429420">
        <ele>698.00</ele>
        <time>2012-10-29T17:05:51.15Z</time>
      </trkpt>
      <trkpt lat="42.296562" lon="2.429300">
        <ele>697.60</ele>
        <time>2012-10-29T19:59:44Z</time>
      </trkpt>
      <trkpt lat="42.296573" lon="2.429245">
        <ele>697.20</ele>
        <time>2012-10-29T21:18:27.96Z</time>
      </trkpt>
      <trkpt lat="42.296574" lon="2.429195">
        <ele>696.80</ele>
        <time>2012-10-29T22:27:35.11Z</time>
      </trkpt>
      <trkpt lat="42.296576" lon="2.429147">
        <ele>696.20</ele>
        <time>2012-10-29T23:34:01.23Z</time>
      </trkpt>
      <trkpt lat="42.296577" lon="2.429098">
        <ele>695.80</ele>
        <time>2012-10-30T00:41:45.50Z</time>
      </trkpt>
      <trkpt lat="42.296583" lon="2.428920">
        <ele>695.40</ele>
        <time>2012-10-30T04:47:59.28Z</time>
      </trkpt>
      <trkpt lat="42.296589" lon="2.428863">
        <ele>695.00</ele>
        <time>2012-10-30T06:07:32.92Z</time>
      </trkpt>
      <trkpt lat="42.296602" lon="2.428802">
        <ele>694.60</ele>
        <time>2012-10-30T07:35:16.34Z</time>
      </trkpt>
      <trkpt lat="42.296606" lon="2.428748">
        <ele>694.00</ele>
        <time>2012-10-30T08:50:16.02Z</time>
      </trkpt>
      <trkpt lat="42.296613" lon="2.428694">
        <ele>693.60</ele>
        <time>2012-10-30T10:06:01.54Z</time>
      </trkpt>
      <trkpt lat="42.296644" lon="2.428509">
        <ele>693.20</ele>
        <time>2012-10-30T14:28:09.06Z</time>
      </trkpt>
      <trkpt lat="42.296662" lon="2.428437">
        <ele>692.80</ele>
        <time>2012-10-30T16:13:10.53Z</time>
      </trkpt>
      <trkpt lat="42.296683" lon="2.428370">
        <ele>692.20</ele>
        <time>2012-10-30T17:53:43.84Z</time>
      </trkpt>
      <trkpt lat="42.296714" lon="2.428318">
        <ele>691.80</ele>
        <time>2012-10-30T19:26:01.32Z</time>
      </trkpt>
      <trkpt lat="42.296750" lon="2.428278">
        <ele>691.20</ele>
        <time>2012-10-30T20:53:04.68Z</time>
      </trkpt>
      <trkpt lat="42.296798" lon="2.428234">
        <ele>690.60</ele>
        <time>2012-10-30T22:41:25.36Z</time>
      </trkpt>
      <trkpt lat="42.296830" lon="2.428187">
        <ele>690.20</ele>
        <time>2012-10-31T00:09:41.81Z</time>
      </trkpt>
      <trkpt lat="42.296860" lon="2.428150">
        <ele>689.60</ele>
        <time>2012-10-31T01:25:33.70Z</time>
      </trkpt>
      <trkpt lat="42.296885" lon="2.428113">
        <ele>689.00</ele>
        <time>2012-10-31T02:34:48.73Z</time>
      </trkpt>
      <trkpt lat="42.296908" lon="2.428078">
        <ele>689.00</ele>
        <time>2012-10-31T03:39:30.50Z</time>
      </trkpt>
      <trkpt lat="42.296949" lon="2.427942">
        <ele>688.60</ele>
        <time>2012-10-31T07:02:27.18Z</time>
      </trkpt>
      <trkpt lat="42.296956" lon="2.427882">
        <ele>688.00</ele>
        <time>2012-10-31T08:26:23.41Z</time>
      </trkpt>
      <trkpt lat="42.296968" lon="2.427818">
        <ele>687.60</ele>
        <time>2012-10-31T09:57:37.63Z</time>
      </trkpt>
      <trkpt lat="42.296977" lon="2.427755">
        <ele>687.20</ele>
        <time>2012-10-31T11:26:17.63Z</time>
      </trkpt>
      <trkpt lat="42.296979" lon="2.427643">
        <ele>686.60</ele>
        <time>2012-10-31T14:01:06.50Z</time>
      </trkpt>
      <trkpt lat="42.296984" lon="2.427584">
        <ele>686.20</ele>
        <time>2012-10-31T15:23:10.32Z</time>
      </trkpt>
      <trkpt lat="42.296987" lon="2.427527">
        <ele>685.80</ele>
        <time>2012-10-31T16:42:08.27Z</time>
      </trkpt>
      <trkpt lat="42.296988" lon="2.427475">
        <ele>685.40</ele>
        <time>2012-10-31T17:54:01.16Z</time>
      </trkpt>
      <trkpt lat="42.296990" lon="2.427432">
        <ele>685.00</ele>
        <time>2012-10-31T18:53:33.42Z</time>
      </trkpt>
      <trkpt lat="42.296997" lon="2.427384">
        <ele>684.40</ele>
        <time>2012-10-31T20:01:09.82Z</time>
      </trkpt>
      <trkpt lat="42.297007" lon="2.427331">
        <ele>684.00</ele>
        <time>2012-10-31T21:16:44.88Z</time>
      </trkpt>
      <trkpt lat="42.297019" lon="2.427279">
        <ele>683.60</ele>
        <time>2012-10-31T22:32:01.28Z</time>
      </trkpt>
      <trkpt lat="42.297034" lon="2.427226">
        <ele>683.20</ele>
        <time>2012-10-31T23:50:26.31Z</time>
      </trkpt>
      <trkpt lat="42.297046" lon="2.427170">
        <ele>682.60</ele>
        <time>2012-11-01T01:11:00.31Z</time>
      </trkpt>
      <trkpt lat="42.297054" lon="2.427119">
        <ele>682.20</ele>
        <time>2012-11-01T02:23:02.87Z</time>
      </trkpt>
      <trkpt lat="42.297091" lon="2.427023">
        <ele>681.80</ele>
        <time>2012-11-01T04:52:38.18Z</time>
      </trkpt>
      <trkpt lat="42.297114" lon="2.426982">
        <ele>681.20</ele>
        <time>2012-11-01T06:03:44.65Z</time>
      </trkpt>
      <trkpt lat="42.297127" lon="2.426942">
        <ele>680.80</ele>
        <time>2012-11-01T07:04:07.16Z</time>
      </trkpt>
      <trkpt lat="42.297147" lon="2.426893">
        <ele>680.40</ele>
        <time>2012-11-01T08:21:27.36Z</time>
      </trkpt>
      <trkpt lat="42.297167" lon="2.426840">
        <ele>679.80</ele>
        <time>2012-11-01T09:43:40.53Z</time>
      </trkpt>
      <trkpt lat="42.297188" lon="2.426785">
        <ele>679.40</ele>
        <time>2012-11-01T11:09:12.41Z</time>
      </trkpt>
      <trkpt lat="42.297211" lon="2.426728">
        <ele>679.00</ele>
        <time>2012-11-01T12:38:55.89Z</time>
      </trkpt>
      <trkpt lat="42.297212" lon="2.426661">
        <ele>678.60</ele>
        <time>2012-11-01T14:11:32.11Z</time>
      </trkpt>
      <trkpt lat="42.297214" lon="2.426602">
        <ele>678.20</ele>
        <time>2012-11-01T15:33:09.05Z</time>
      </trkpt>
      <trkpt lat="42.297226" lon="2.426552">
        <ele>677.80</ele>
        <time>2012-11-01T16:45:47.41Z</time>
      </trkpt>
      <trkpt lat="42.297237" lon="2.426497">
        <ele>677.20</ele>
        <time>2012-11-01T18:04:31.33Z</time>
      </trkpt>
      <trkpt lat="42.297243" lon="2.426446">
        <ele>676.80</ele>
        <time>2012-11-01T19:15:52.98Z</time>
      </trkpt>
      <trkpt lat="42.297250" lon="2.426393">
        <ele>676.40</ele>
        <time>2012-11-01T20:30:16.82Z</time>
      </trkpt>
      <trkpt lat="42.297265" lon="2.426332">
        <ele>676.00</ele>
        <time>2012-11-01T21:59:06.61Z</time>
      </trkpt>
      <trkpt lat="42.297274" lon="2.426277">
        <ele>675.60</ele>
        <time>2012-11-01T23:16:57.02Z</time>
      </trkpt>
      <trkpt lat="42.297281" lon="2.426219">
        <ele>675.20</ele>
        <time>2012-11-02T00:38:09.50Z</time>
      </trkpt>
      <trkpt lat="42.297282" lon="2.426164">
        <ele>674.60</ele>
        <time>2012-11-02T01:54:11.02Z</time>
      </trkpt>
      <trkpt lat="42.297281" lon="2.426112">
        <ele>674.20</ele>
        <time>2012-11-02T03:06:03.89Z</time>
      </trkpt>
      <trkpt lat="42.297277" lon="2.426064">
        <ele>673.80</ele>
        <time>2012-11-02T04:12:48.84Z</time>
      </trkpt>
      <trkpt lat="42.297273" lon="2.426019">
        <ele>673.40</ele>
        <time>2012-11-02T05:15:26.71Z</time>
      </trkpt>
      <trkpt lat="42.297334" lon="2.425945">
        <ele>672.80</ele>
        <time>2012-11-02T07:48:33.58Z</time>
      </trkpt>
      <trkpt lat="42.297358" lon="2.425952">
        <ele>672.40</ele>
        <time>2012-11-02T08:34:25.73Z</time>
      </trkpt>
      <trkpt lat="42.297382" lon="2.425975">
        <ele>672.00</ele>
        <time>2012-11-02T09:29:23.31Z</time>
      </trkpt>
      <trkpt lat="42.297394" lon="2.426005">
        <ele>671.40</ele>
        <time>2012-11-02T10:16:31.08Z</time>
      </trkpt>
      <trkpt lat="42.297395" lon="2.426030">
        <ele>671.00</ele>
        <time>2012-11-02T10:51:06.90Z</time>
      </trkpt>
      <trkpt lat="42.297397" lon="2.426065">
        <ele>671.00</ele>
        <time>2012-11-02T11:39:37.45Z</time>
      </trkpt>
      <trkpt lat="42.297427" lon="2.426195">
        <ele>670.60</ele>
        <time>2012-11-02T14:47:48.37Z</time>
      </trkpt>
      <trkpt lat="42.297438" lon="2.426241">
        <ele>670.20</ele>
        <time>2012-11-02T15:54:36.67Z</time>
      </trkpt>
      <trkpt lat="42.297449" lon="2.426290">
        <ele>669.80</ele>
        <time>2012-11-02T17:05:22.33Z</time>
      </trkpt>
      <trkpt lat="42.297460" lon="2.426340">
        <ele>669.40</ele>
        <time>2012-11-02T18:17:27.40Z</time>
      </trkpt>
      <trkpt lat="42.297474" lon="2.426395">
        <ele>668.80</ele>
        <time>2012-11-02T19:37:50.01Z</time>
      </trkpt>
      <trkpt lat="42.297484" lon="2.426454">
        <ele>668.20</ele>
        <time>2012-11-02T21:01:28.58Z</time>
      </trkpt>
      <trkpt lat="42.297491" lon="2.426513">
        <ele>667.60</ele>
        <time>2012-11-02T22:24:02.89Z</time>
      </trkpt>
      <trkpt lat="42.297485" lon="2.426587">
        <ele>667.00</ele>
        <time>2012-11-03T00:06:55.09Z</time>
      </trkpt>
      <trkpt lat="42.297485" lon="2.426657">
        <ele>666.60</ele>
        <time>2012-11-03T01:43:38.90Z</time>
      </trkpt>
      <trkpt lat="42.297487" lon="2.426729">
        <ele>666.00</ele>
        <time>2012-11-03T03:23:12.74Z</time>
      </trkpt>
      <trkpt lat="42.297485" lon="2.426808">
        <ele>665.60</ele>
        <time>2012-11-03T05:12:26.58Z</time>
      </trkpt>
      <trkpt lat="42.297487" lon="2.426881">
        <ele>664.80</ele>
        <time>2012-11-03T06:53:23.28Z</time>
      </trkpt>
      <trkpt lat="42.297486" lon="2.426955">
        <ele>664.20</ele>
        <time>2012-11-03T08:35:39.75Z</time>
      </trkpt>
      <trkpt lat="42.297485" lon="2.427028">
        <ele>663.60</ele>
        <time>2012-11-03T10:16:33.33Z</time>
      </trkpt>
      <trkpt lat="42.297483" lon="2.427094">
        <ele>662.80</ele>
        <time>2012-11-03T11:47:50.08Z</time>
      </trkpt>
      <trkpt lat="42.297481" lon="2.427154">
        <ele>662.20</ele>
        <time>2012-11-03T13:10:49.82Z</time>
      </trkpt>
      <trkpt lat="42.297483" lon="2.427211">
        <ele>661.80</ele>
        <time>2012-11-03T14:29:41.10Z</time>
      </trkpt>
      <trkpt lat="42.297482" lon="2.427264">
        <ele>661.20</ele>
        <time>2012-11-03T15:42:56.84Z</time>
      </trkpt>
      <trkpt lat="42.297483" lon="2.427317">
        <ele>660.80</ele>
        <time>2012-11-03T16:56:12.58Z</time>
      </trkpt>
      <trkpt lat="42.297485" lon="2.427370">
        <ele>660.40</ele>
        <time>2012-11-03T18:09:32.60Z</time>
      </trkpt>
      <trkpt lat="42.297481" lon="2.427438">
        <ele>659.80</ele>
        <time>2012-11-03T19:43:48.39Z</time>
      </trkpt>
      <trkpt lat="42.297470" lon="2.427513">
        <ele>659.40</ele>
        <time>2012-11-03T21:29:27.82Z</time>
      </trkpt>
      <trkpt lat="42.297463" lon="2.427579">
        <ele>659.00</ele>
        <time>2012-11-03T23:01:35.95Z</time>
      </trkpt>
      <trkpt lat="42.297460" lon="2.427637">
        <ele>658.40</ele>
        <time>2012-11-04T00:21:56.57Z</time>
      </trkpt>
      <trkpt lat="42.297454" lon="2.427690">
        <ele>658.00</ele>
        <time>2012-11-04T01:36:02.05Z</time>
      </trkpt>
      <trkpt lat="42.297449" lon="2.427736">
        <ele>657.60</ele>
        <time>2012-11-04T02:40:16.95Z</time>
      </trkpt>
      <trkpt lat="42.297449" lon="2.427772">
        <ele>657.20</ele>
        <time>2012-11-04T03:30:01.76Z</time>
      </trkpt>
      <trkpt lat="42.297438" lon="2.427819">
        <ele>656.80</ele>
        <time>2012-11-04T04:38:09.03Z</time>
      </trkpt>
      <trkpt lat="42.297437" lon="2.427867">
        <ele>656.40</ele>
        <time>2012-11-04T05:44:30.37Z</time>
      </trkpt>
      <trkpt lat="42.297436" lon="2.427919">
        <ele>655.80</ele>
        <time>2012-11-04T06:56:23.23Z</time>
      </trkpt>
      <trkpt lat="42.297436" lon="2.427968">
        <ele>655.40</ele>
        <time>2012-11-04T08:04:05.89Z</time>
      </trkpt>
      <trkpt lat="42.297438" lon="2.428082">
        <ele>655.00</ele>
        <time>2012-11-04T10:41:40.47Z</time>
      </trkpt>
      <trkpt lat="42.297440" lon="2.428147">
        <ele>654.60</ele>
        <time>2012-11-04T12:11:34.39Z</time>
      </trkpt>
      <trkpt lat="42.297440" lon="2.428213">
        <ele>654.00</ele>
        <time>2012-11-04T13:42:46.55Z</time>
      </trkpt>
      <trkpt lat="42.297435" lon="2.428273">
        <ele>653.60</ele>
        <time>2012-11-04T15:06:12.72Z</time>
      </trkpt>
      <trkpt lat="42.297407" lon="2.428336">
        <ele>653.00</ele>
        <time>2012-11-04T16:47:46.59Z</time>
      </trkpt>
      <trkpt lat="42.297383" lon="2.428402">
        <ele>652.60</ele>
        <time>2012-11-04T18:29:24.30Z</time>
      </trkpt>
      <trkpt lat="42.297347" lon="2.428486">
        <ele>652.00</ele>
        <time>2012-11-04T20:43:33.51Z</time>
      </trkpt>
      <trkpt lat="42.297314" lon="2.428574">
        <ele>651.40</ele>
        <time>2012-11-04T22:59:53.87Z</time>
      </trkpt>
      <trkpt lat="42.297289" lon="2.428657">
        <ele>650.80</ele>
        <time>2012-11-05T01:03:44.26Z</time>
      </trkpt>
      <trkpt lat="42.297291" lon="2.428737">
        <ele>650.40</ele>
        <time>2012-11-05T02:54:20.99Z</time>
      </trkpt>
      <trkpt lat="42.297302" lon="2.428811">
        <ele>650.00</ele>
        <time>2012-11-05T04:38:39.13Z</time>
      </trkpt>
      <trkpt lat="42.297319" lon="2.428882">
        <ele>649.40</ele>
        <time>2012-11-05T06:21:46.62Z</time>
      </trkpt>
      <trkpt lat="42.297336" lon="2.428955">
        <ele>649.00</ele>
        <time>2012-11-05T08:07:32.07Z</time>
      </trkpt>
      <trkpt lat="42.297349" lon="2.429025">
        <ele>648.60</ele>
        <time>2012-11-05T09:47:16.03Z</time>
      </trkpt>
      <trkpt lat="42.297374" lon="2.429158">
        <ele>648.60</ele>
        <time>2012-11-05T12:56:53.80Z</time>
      </trkpt>
      <trkpt lat="42.297393" lon="2.429225">
        <ele>648.20</ele>
        <time>2012-11-05T14:36:03.16Z</time>
      </trkpt>
      <trkpt lat="42.297413" lon="2.429293">
        <ele>647.80</ele>
        <time>2012-11-05T16:17:10.53Z</time>
      </trkpt>
      <trkpt lat="42.297433" lon="2.429359">
        <ele>647.40</ele>
        <time>2012-11-05T17:55:44.12Z</time>
      </trkpt>
      <trkpt lat="42.297448" lon="2.429426">
        <ele>646.80</ele>
        <time>2012-11-05T19:32:28.09Z</time>
      </trkpt>
      <trkpt lat="42.297458" lon="2.429481">
        <ele>646.40</ele>
        <time>2012-11-05T20:50:43.98Z</time>
      </trkpt>
      <trkpt lat="42.297457" lon="2.429535">
        <ele>645.80</ele>
        <time>2012-11-05T22:05:22.60Z</time>
      </trkpt>
      <trkpt lat="42.297450" lon="2.429592">
        <ele>645.40</ele>
        <time>2012-11-05T23:25:13.26Z</time>
      </trkpt>
      <trkpt lat="42.297433" lon="2.429637">
        <ele>645.00</ele>
        <time>2012-11-06T00:35:02.75Z</time>
      </trkpt>
      <trkpt lat="42.297418" lon="2.429680">
        <ele>644.40</ele>
        <time>2012-11-06T01:40:44.55Z</time>
      </trkpt>
      <trkpt lat="42.297367" lon="2.429815">
        <ele>644.00</ele>
        <time>2012-11-06T05:10:13.02Z</time>
      </trkpt>
      <trkpt lat="42.297344" lon="2.429869">
        <ele>643.60</ele>
        <time>2012-11-06T06:36:19.51Z</time>
      </trkpt>
      <trkpt lat="42.297325" lon="2.429927">
        <ele>643.20</ele>
        <time>2012-11-06T08:03:58.91Z</time>
      </trkpt>
      <trkpt lat="42.297304" lon="2.429979">
        <ele>642.80</ele>
        <time>2012-11-06T09:25:51.08Z</time>
      </trkpt>
      <trkpt lat="42.297280" lon="2.430040">
        <ele>642.20</ele>
        <time>2012-11-06T11:01:19.69Z</time>
      </trkpt>
      <trkpt lat="42.297250" lon="2.430094">
        <ele>641.80</ele>
        <time>2012-11-06T12:34:39.18Z</time>
      </trkpt>
      <trkpt lat="42.297219" lon="2.430144">
        <ele>641.20</ele>
        <time>2012-11-06T14:04:48.52Z</time>
      </trkpt>
      <trkpt lat="42.297190" lon="2.430192">
        <ele>640.80</ele>
        <time>2012-11-06T15:30:27.17Z</time>
      </trkpt>
      <trkpt lat="42.297161" lon="2.430229">
        <ele>640.20</ele>
        <time>2012-11-06T16:44:56.88Z</time>
      </trkpt>
      <trkpt lat="42.297093" lon="2.430350">
        <ele>639.80</ele>
        <time>2012-11-06T20:14:56.44Z</time>
      </trkpt>
      <trkpt lat="42.297068" lon="2.430409">
        <ele>639.40</ele>
        <time>2012-11-06T21:48:54.08Z</time>
      </trkpt>
      <trkpt lat="42.297057" lon="2.430453">
        <ele>639.00</ele>
        <time>2012-11-06T22:53:04.96Z</time>
      </trkpt>
      <trkpt lat="42.297048" lon="2.430504">
        <ele>638.40</ele>
        <time>2012-11-07T00:05:32.15Z</time>
      </trkpt>
      <trkpt lat="42.297052" lon="2.430554">
        <ele>638.00</ele>
        <time>2012-11-07T01:15:01.93Z</time>
      </trkpt>
      <trkpt lat="42.297091" lon="2.430718">
        <ele>638.00</ele>
        <time>2012-11-07T05:13:04.99Z</time>
      </trkpt>
      <trkpt lat="42.297112" lon="2.430843">
        <ele>637.60</ele>
        <time>2012-11-07T08:10:12.96Z</time>
      </trkpt>
      <trkpt lat="42.297118" lon="2.430903">
        <ele>637.20</ele>
        <time>2012-11-07T09:33:52.94Z</time>
      </trkpt>
      <trkpt lat="42.297118" lon="2.430957">
        <ele>636.80</ele>
        <time>2012-11-07T10:48:30.19Z</time>
      </trkpt>
      <trkpt lat="42.297119" lon="2.431009">
        <ele>636.20</ele>
        <time>2012-11-07T12:00:23.07Z</time>
      </trkpt>
      <trkpt lat="42.297118" lon="2.431058">
        <ele>635.80</ele>
        <time>2012-11-07T13:08:07.30Z</time>
      </trkpt>
      <trkpt lat="42.297123" lon="2.431105">
        <ele>635.80</ele>
        <time>2012-11-07T14:13:44.27Z</time>
      </trkpt>
      <trkpt lat="42.297123" lon="2.431159">
        <ele>635.40</ele>
        <time>2012-11-07T15:28:21.51Z</time>
      </trkpt>
      <trkpt lat="42.297120" lon="2.431207">
        <ele>634.80</ele>
        <time>2012-11-07T16:34:55.47Z</time>
      </trkpt>
      <trkpt lat="42.297113" lon="2.431253">
        <ele>634.40</ele>
        <time>2012-11-07T17:39:49.30Z</time>
      </trkpt>
      <trkpt lat="42.297104" lon="2.431295">
        <ele>634.00</ele>
        <time>2012-11-07T18:40:14.80Z</time>
      </trkpt>
      <trkpt lat="42.297098" lon="2.431328">
        <ele>633.60</ele>
        <time>2012-11-07T19:27:12.35Z</time>
      </trkpt>
      <trkpt lat="42.297037" lon="2.431506">
        <ele>633.00</ele>
        <time>2012-11-07T23:58:17.75Z</time>
      </trkpt>
      <trkpt lat="42.297016" lon="2.431565">
        <ele>632.60</ele>
        <time>2012-11-08T01:28:46.48Z</time>
      </trkpt>
      <trkpt lat="42.297001" lon="2.431626">
        <ele>632.20</ele>
        <time>2012-11-08T02:57:36.29Z</time>
      </trkpt>
      <trkpt lat="42.296988" lon="2.431677">
        <ele>631.80</ele>
        <time>2012-11-08T04:12:08.86Z</time>
      </trkpt>
      <trkpt lat="42.296983" lon="2.431722">
        <ele>631.40</ele>
        <time>2012-11-08T05:15:01.77Z</time>
      </trkpt>
      <trkpt lat="42.296976" lon="2.431797">
        <ele>631.40</ele>
        <time>2012-11-08T06:59:29.49Z</time>
      </trkpt>
      <trkpt lat="42.297009" lon="2.431905">
        <ele>631.40</ele>
        <time>2012-11-08T09:40:57.97Z</time>
      </trkpt>
      <trkpt lat="42.297017" lon="2.432041">
        <ele>631.00</ele>
        <time>2012-11-08T12:49:29.63Z</time>
      </trkpt>
      <trkpt lat="42.297016" lon="2.432087">
        <ele>630.40</ele>
        <time>2012-11-08T13:53:05.23Z</time>
      </trkpt>
      <trkpt lat="42.297006" lon="2.432136">
        <ele>630.00</ele>
        <time>2012-11-08T15:03:19.73Z</time>
      </trkpt>
      <trkpt lat="42.297004" lon="2.432179">
        <ele>629.60</ele>
        <time>2012-11-08T16:02:52Z</time>
      </trkpt>
      <trkpt lat="42.297003" lon="2.432225">
        <ele>629.20</ele>
        <time>2012-11-08T17:06:27.60Z</time>
      </trkpt>
      <trkpt lat="42.297008" lon="2.432266">
        <ele>628.80</ele>
        <time>2012-11-08T18:03:52.90Z</time>
      </trkpt>
      <trkpt lat="42.297008" lon="2.432299">
        <ele>628.20</ele>
        <time>2012-11-08T18:49:29Z</time>
      </trkpt>
      <trkpt lat="42.297004" lon="2.432328">
        <ele>627.80</ele>
        <time>2012-11-08T19:30:14.90Z</time>
      </trkpt>
      <trkpt lat="42.297005" lon="2.432365">
        <ele>627.40</ele>
        <time>2012-11-08T20:21:24.69Z</time>
      </trkpt>
      <trkpt lat="42.297012" lon="2.432406">
        <ele>627.00</ele>
        <time>2012-11-08T21:19:33.48Z</time>
      </trkpt>
      <trkpt lat="42.297002" lon="2.432530">
        <ele>626.60</ele>
        <time>2012-11-09T00:11:55.51Z</time>
      </trkpt>
      <trkpt lat="42.296996" lon="2.432570">
        <ele>626.20</ele>
        <time>2012-11-09T01:08:19.51Z</time>
      </trkpt>
      <trkpt lat="42.296991" lon="2.432609">
        <ele>625.80</ele>
        <time>2012-11-09T02:03:01.29Z</time>
      </trkpt>
      <trkpt lat="42.296975" lon="2.432649">
        <ele>625.40</ele>
        <time>2012-11-09T03:05:51.67Z</time>
      </trkpt>
      <trkpt lat="42.296960" lon="2.432690">
        <ele>625.00</ele>
        <time>2012-11-09T04:09:04.17Z</time>
      </trkpt>
      <trkpt lat="42.296931" lon="2.432760">
        <ele>624.60</ele>
        <time>2012-11-09T05:59:56.39Z</time>
      </trkpt>
      <trkpt lat="42.296908" lon="2.432793">
        <ele>624.20</ele>
        <time>2012-11-09T07:02:35.80Z</time>
      </trkpt>
      <trkpt lat="42.296885" lon="2.432820">
        <ele>623.60</ele>
        <time>2012-11-09T07:59:30.24Z</time>
      </trkpt>
      <trkpt lat="42.296862" lon="2.432853">
        <ele>623.20</ele>
        <time>2012-11-09T09:02:09.66Z</time>
      </trkpt>
      <trkpt lat="42.296835" lon="2.432886">
        <ele>622.80</ele>
        <time>2012-11-09T10:10:09.63Z</time>
      </trkpt>
      <trkpt lat="42.296748" lon="2.433015">
        <ele>622.00</ele>
        <time>2012-11-09T14:11:23.85Z</time>
      </trkpt>
      <trkpt lat="42.296726" lon="2.433053">
        <ele>621.60</ele>
        <time>2012-11-09T15:18:04.89Z</time>
      </trkpt>
      <trkpt lat="42.296701" lon="2.433101">
        <ele>621.20</ele>
        <time>2012-11-09T16:39:12.33Z</time>
      </trkpt>
      <trkpt lat="42.296680" lon="2.433156">
        <ele>620.80</ele>
        <time>2012-11-09T18:04:44.24Z</time>
      </trkpt>
      <trkpt lat="42.296627" lon="2.433245">
        <ele>620.80</ele>
        <time>2012-11-09T20:42:37.79Z</time>
      </trkpt>
      <trkpt lat="42.296579" lon="2.433350">
        <ele>620.00</ele>
        <time>2012-11-09T23:33:12.12Z</time>
      </trkpt>
      <trkpt lat="42.296559" lon="2.433407">
        <ele>619.60</ele>
        <time>2012-11-10T01:00:22.93Z</time>
      </trkpt>
      <trkpt lat="42.296548" lon="2.433460">
        <ele>619.20</ele>
        <time>2012-11-10T02:16:27.02Z</time>
      </trkpt>
      <trkpt lat="42.296543" lon="2.433504">
        <ele>618.60</ele>
        <time>2012-11-10T03:17:57.98Z</time>
      </trkpt>
      <trkpt lat="42.296534" lon="2.433543">
        <ele>618.20</ele>
        <time>2012-11-10T04:14:25.30Z</time>
      </trkpt>
      <trkpt lat="42.296521" lon="2.433580">
        <ele>617.60</ele>
        <time>2012-11-10T05:11:01.58Z</time>
      </trkpt>
      <trkpt lat="42.296503" lon="2.433611">
        <ele>617.20</ele>
        <time>2012-11-10T06:05:29.23Z</time>
      </trkpt>
      <trkpt lat="42.296484" lon="2.433641">
        <ele>616.60</ele>
        <time>2012-11-10T07:00:03.84Z</time>
      </trkpt>
      <trkpt lat="42.296438" lon="2.433692">
        <ele>616.20</ele>
        <time>2012-11-10T08:51:12.30Z</time>
      </trkpt>
      <trkpt lat="42.296417" lon="2.433712">
        <ele>615.80</ele>
        <time>2012-11-10T09:39:11.71Z</time>
      </trkpt>
      <trkpt lat="42.296394" lon="2.433736">
        <ele>615.40</ele>
        <time>2012-11-10T10:33:28.50Z</time>
      </trkpt>
      <trkpt lat="42.296371" lon="2.433764">
        <ele>615.00</ele>
        <time>2012-11-10T11:31:17.87Z</time>
      </trkpt>
      <trkpt lat="42.296352" lon="2.433781">
        <ele>614.60</ele>
        <time>2012-11-10T12:13:51.84Z</time>
      </trkpt>
      <trkpt lat="42.296329" lon="2.433795">
        <ele>614.60</ele>
        <time>2012-11-10T13:00:59.26Z</time>
      </trkpt>
      <trkpt lat="42.296254" lon="2.433860">
        <ele>614.20</ele>
        <time>2012-11-10T15:47:25.43Z</time>
      </trkpt>
      <trkpt lat="42.296228" lon="2.433882">
        <ele>613.80</ele>
        <time>2012-11-10T16:44:43.64Z</time>
      </trkpt>
      <trkpt lat="42.296202" lon="2.433899">
        <ele>613.20</ele>
        <time>2012-11-10T17:38:41.04Z</time>
      </trkpt>
      <trkpt lat="42.296175" lon="2.433918">
        <ele>612.80</ele>
        <time>2012-11-10T18:35:33.03Z</time>
      </trkpt>
      <trkpt lat="42.296150" lon="2.433942">
        <ele>612.40</ele>
        <time>2012-11-10T19:32:50.03Z</time>
      </trkpt>
      <trkpt lat="42.296115" lon="2.434011">
        <ele>612.00</ele>
        <time>2012-11-10T21:28:27.05Z</time>
      </trkpt>
      <trkpt lat="42.296113" lon="2.434045">
        <ele>611.60</ele>
        <time>2012-11-10T22:15:35Z</time>
      </trkpt>
      <trkpt lat="42.296133" lon="2.434067">
        <ele>611.20</ele>
        <time>2012-11-10T23:03:45.22Z</time>
      </trkpt>
      <trkpt lat="42.296112" lon="2.434142">
        <ele>610.80</ele>
        <time>2012-11-11T00:54:34.35Z</time>
      </trkpt>
      <trkpt lat="42.296127" lon="2.434160">
        <ele>610.40</ele>
        <time>2012-11-11T01:32:02.57Z</time>
      </trkpt>
      <trkpt lat="42.296167" lon="2.434125">
        <ele>610.40</ele>
        <time>2012-11-11T03:01:03.50Z</time>
      </trkpt>
      <trkpt lat="42.296206" lon="2.434075">
        <ele>610.00</ele>
        <time>2012-11-11T04:41:28.28Z</time>
      </trkpt>
      <trkpt lat="42.296239" lon="2.434046">
        <ele>609.40</ele>
        <time>2012-11-11T05:55:00.18Z</time>
      </trkpt>
      <trkpt lat="42.296268" lon="2.434032">
        <ele>609.00</ele>
        <time>2012-11-11T06:52:31.94Z</time>
      </trkpt>
      <trkpt lat="42.296304" lon="2.434025">
        <ele>608.60</ele>
        <time>2012-11-11T08:00:28.85Z</time>
      </trkpt>
      <trkpt lat="42.296349" lon="2.434018">
        <ele>608.20</ele>
        <time>2012-11-11T09:25:06.36Z</time>
      </trkpt>
      <trkpt lat="42.296403" lon="2.434027">
        <ele>607.80</ele>
        <time>2012-11-11T11:06:45.26Z</time>
      </trkpt>
      <trkpt lat="42.296449" lon="2.434021">
        <ele>607.20</ele>
        <time>2012-11-11T12:33:05.53Z</time>
      </trkpt>
      <trkpt lat="42.296490" lon="2.434012">
        <ele>606.80</ele>
        <time>2012-11-11T13:50:41.57Z</time>
      </trkpt>
      <trkpt lat="42.296535" lon="2.434001">
        <ele>606.20</ele>
        <time>2012-11-11T15:16:07.59Z</time>
      </trkpt>
      <trkpt lat="42.296568" lon="2.433991">
        <ele>605.80</ele>
        <time>2012-11-11T16:19:18.47Z</time>
      </trkpt>
      <trkpt lat="42.296634" lon="2.433941">
        <ele>605.80</ele>
        <time>2012-11-11T18:40:39.02Z</time>
      </trkpt>
      <trkpt lat="42.296648" lon="2.433912">
        <ele>605.40</ele>
        <time>2012-11-11T19:28:30.29Z</time>
      </trkpt>
      <trkpt lat="42.296671" lon="2.433876">
        <ele>604.80</ele>
        <time>2012-11-11T20:34:14.44Z</time>
      </trkpt>
      <trkpt lat="42.296696" lon="2.433833">
        <ele>604.40</ele>
        <time>2012-11-11T21:49:49.21Z</time>
      </trkpt>
      <trkpt lat="42.296723" lon="2.433789">
        <ele>604.00</ele>
        <time>2012-11-11T23:08:49.35Z</time>
      </trkpt>
      <trkpt lat="42.296749" lon="2.433733">
        <ele>603.60</ele>
        <time>2012-11-12T00:40:11.35Z</time>
      </trkpt>
      <trkpt lat="42.296826" lon="2.433603">
        <ele>603.20</ele>
        <time>2012-11-12T04:30:19.93Z</time>
      </trkpt>
      <trkpt lat="42.296854" lon="2.433573">
        <ele>602.60</ele>
        <time>2012-11-12T05:37:04.68Z</time>
      </trkpt>
      <trkpt lat="42.296879" lon="2.433542">
        <ele>602.20</ele>
        <time>2012-11-12T06:40:27.25Z</time>
      </trkpt>
      <trkpt lat="42.296902" lon="2.433517">
        <ele>601.80</ele>
        <time>2012-11-12T07:35:35.34Z</time>
      </trkpt>
      <trkpt lat="42.296926" lon="2.433500">
        <ele>601.40</ele>
        <time>2012-11-12T08:26:12.47Z</time>
      </trkpt>
      <trkpt lat="42.297021" lon="2.433427">
        <ele>601.40</ele>
        <time>2012-11-12T11:50:21.29Z</time>
      </trkpt>
      <trkpt lat="42.297065" lon="2.433397">
        <ele>600.80</ele>
        <time>2012-11-12T13:22:25.15Z</time>
      </trkpt>
      <trkpt lat="42.297123" lon="2.433358">
        <ele>600.40</ele>
        <time>2012-11-12T15:23:26.33Z</time>
      </trkpt>
      <trkpt lat="42.297168" lon="2.433315">
        <ele>600.00</ele>
        <time>2012-11-12T17:06:23.31Z</time>
      </trkpt>
      <trkpt lat="42.297204" lon="2.433264">
        <ele>599.60</ele>
        <time>2012-11-12T18:43:48.36Z</time>
      </trkpt>
      <trkpt lat="42.297243" lon="2.433189">
        <ele>599.00</ele>
        <time>2012-11-12T20:50:29.66Z</time>
      </trkpt>
      <trkpt lat="42.297272" lon="2.433108">
        <ele>598.60</ele>
        <time>2012-11-12T22:54:50.89Z</time>
      </trkpt>
      <trkpt lat="42.297308" lon="2.433030">
        <ele>598.00</ele>
        <time>2012-11-13T01:01:53.75Z</time>
      </trkpt>
      <trkpt lat="42.297334" lon="2.432972">
        <ele>597.60</ele>
        <time>2012-11-13T02:35:36.86Z</time>
      </trkpt>
      <trkpt lat="42.297372" lon="2.432916">
        <ele>597.00</ele>
        <time>2012-11-13T04:20:37.80Z</time>
      </trkpt>
      <trkpt lat="42.297393" lon="2.432864">
        <ele>596.60</ele>
        <time>2012-11-13T05:42:29.97Z</time>
      </trkpt>
      <trkpt lat="42.297408" lon="2.432811">
        <ele>596.60</ele>
        <time>2012-11-13T07:00:54.99Z</time>
      </trkpt>
      <trkpt lat="42.297434" lon="2.432700">
        <ele>596.60</ele>
        <time>2012-11-13T09:41:48.62Z</time>
      </trkpt>
      <trkpt lat="42.297448" lon="2.432640">
        <ele>596.20</ele>
        <time>2012-11-13T11:08:44.98Z</time>
      </trkpt>
      <trkpt lat="42.297467" lon="2.432580">
        <ele>595.60</ele>
        <time>2012-11-13T12:38:56.41Z</time>
      </trkpt>
      <trkpt lat="42.297483" lon="2.432526">
        <ele>595.20</ele>
        <time>2012-11-13T13:59:19.49Z</time>
      </trkpt>
      <trkpt lat="42.297510" lon="2.432474">
        <ele>594.60</ele>
        <time>2012-11-13T15:27:07.14Z</time>
      </trkpt>
      <trkpt lat="42.297537" lon="2.432415">
        <ele>594.20</ele>
        <time>2012-11-13T17:02:59.48Z</time>
      </trkpt>
      <trkpt lat="42.297552" lon="2.432362">
        <ele>593.80</ele>
        <time>2012-11-13T18:21:24.48Z</time>
      </trkpt>
      <trkpt lat="42.297564" lon="2.432319">
        <ele>593.40</ele>
        <time>2012-11-13T19:24:54.99Z</time>
      </trkpt>
      <trkpt lat="42.297579" lon="2.432281">
        <ele>593.00</ele>
        <time>2012-11-13T20:24:26.21Z</time>
      </trkpt>
      <trkpt lat="42.297592" lon="2.432252">
        <ele>592.60</ele>
        <time>2012-11-13T21:11:17.76Z</time>
      </trkpt>
      <trkpt lat="42.297608" lon="2.432219">
        <ele>592.00</ele>
        <time>2012-11-13T22:05:49.27Z</time>
      </trkpt>
      <trkpt lat="42.297684" lon="2.432042">
        <ele>592.00</ele>
        <time>2012-11-14T02:48:38.07Z</time>
      </trkpt>
      <trkpt lat="42.297751" lon="2.431899">
        <ele>591.60</ele>
        <time>2012-11-14T06:42:32.90Z</time>
      </trkpt>
      <trkpt lat="42.297771" lon="2.431843">
        <ele>591.20</ele>
        <time>2012-11-14T08:08:28.84Z</time>
      </trkpt>
      <trkpt lat="42.297783" lon="2.431796">
        <ele>590.80</ele>
        <time>2012-11-14T09:17:11.29Z</time>
      </trkpt>
      <trkpt lat="42.297797" lon="2.431749">
        <ele>590.20</ele>
        <time>2012-11-14T10:27:12.24Z</time>
      </trkpt>
      <trkpt lat="42.297793" lon="2.431698">
        <ele>589.80</ele>
        <time>2012-11-14T11:38:04.42Z</time>
      </trkpt>
      <trkpt lat="42.297841" lon="2.431520">
        <ele>589.40</ele>
        <time>2012-11-14T15:59:52.81Z</time>
      </trkpt>
      <trkpt lat="42.297861" lon="2.431482">
        <ele>589.00</ele>
        <time>2012-11-14T17:04:19.65Z</time>
      </trkpt>
      <trkpt lat="42.297884" lon="2.431445">
        <ele>588.40</ele>
        <time>2012-11-14T18:11:06.86Z</time>
      </trkpt>
      <trkpt lat="42.297900" lon="2.431415">
        <ele>588.00</ele>
        <time>2012-11-14T19:02:13.37Z</time>
      </trkpt>
      <trkpt lat="42.297922" lon="2.431381">
        <ele>587.60</ele>
        <time>2012-11-14T20:04:38.78Z</time>
      </trkpt>
      <trkpt lat="42.298001" lon="2.431288">
        <ele>587.60</ele>
        <time>2012-11-14T23:20:20.74Z</time>
      </trkpt>
      <trkpt lat="42.298050" lon="2.431219">
        <ele>587.20</ele>
        <time>2012-11-15T01:32:31.49Z</time>
      </trkpt>
      <trkpt lat="42.298071" lon="2.431187">
        <ele>586.60</ele>
        <time>2012-11-15T02:31:38.37Z</time>
      </trkpt>
      <trkpt lat="42.298088" lon="2.431159">
        <ele>586.20</ele>
        <time>2012-11-15T03:21:41.81Z</time>
      </trkpt>
      <trkpt lat="42.298109" lon="2.431131">
        <ele>585.80</ele>
        <time>2012-11-15T04:16:47.95Z</time>
      </trkpt>
      <trkpt lat="42.298126" lon="2.431104">
        <ele>585.40</ele>
        <time>2012-11-15T05:05:47.78Z</time>
      </trkpt>
      <trkpt lat="42.298155" lon="2.431050">
        <ele>585.00</ele>
        <time>2012-11-15T06:38:00.62Z</time>
      </trkpt>
      <trkpt lat="42.298170" lon="2.431014">
        <ele>584.40</ele>
        <time>2012-11-15T07:35:06.42Z</time>
      </trkpt>
      <trkpt lat="42.298176" lon="2.430978">
        <ele>584.00</ele>
        <time>2012-11-15T08:26:06.03Z</time>
      </trkpt>
      <trkpt lat="42.298173" lon="2.430945">
        <ele>583.60</ele>
        <time>2012-11-15T09:12:02.67Z</time>
      </trkpt>
      <trkpt lat="42.298172" lon="2.430913">
        <ele>583.20</ele>
        <time>2012-11-15T09:56:18.18Z</time>
      </trkpt>
      <trkpt lat="42.298177" lon="2.430781">
        <ele>582.80</ele>
        <time>2012-11-15T12:58:56.72Z</time>
      </trkpt>
      <trkpt lat="42.298169" lon="2.430755">
        <ele>582.40</ele>
        <time>2012-11-15T13:37:51.48Z</time>
      </trkpt>
      <trkpt lat="42.298164" lon="2.430722">
        <ele>581.80</ele>
        <time>2012-11-15T14:24:24.35Z</time>
      </trkpt>
      <trkpt lat="42.298140" lon="2.430690">
        <ele>581.40</ele>
        <time>2012-11-15T15:27:22.79Z</time>
      </trkpt>
      <trkpt lat="42.298122" lon="2.430653">
        <ele>581.00</ele>
        <time>2012-11-15T16:28:34.55Z</time>
      </trkpt>
      <trkpt lat="42.298070" lon="2.430535">
        <ele>580.60</ele>
        <time>2012-11-15T19:38:22.80Z</time>
      </trkpt>
      <trkpt lat="42.298065" lon="2.430499">
        <ele>580.20</ele>
        <time>2012-11-15T20:28:59.75Z</time>
      </trkpt>
      <trkpt lat="42.298075" lon="2.430462">
        <ele>579.80</ele>
        <time>2012-11-15T21:23:25.83Z</time>
      </trkpt>
      <trkpt lat="42.298097" lon="2.430424">
        <ele>579.40</ele>
        <time>2012-11-15T22:30:06.81Z</time>
      </trkpt>
      <trkpt lat="42.298121" lon="2.430391">
        <ele>579.00</ele>
        <time>2012-11-15T23:34:03.93Z</time>
      </trkpt>
      <trkpt lat="42.298188" lon="2.430323">
        <ele>579.00</ele>
        <time>2012-11-16T02:10:34.92Z</time>
      </trkpt>
      <trkpt lat="42.298226" lon="2.430291">
        <ele>579.00</ele>
        <time>2012-11-16T03:34:13.20Z</time>
      </trkpt>
      <trkpt lat="42.298272" lon="2.430257">
        <ele>579.00</ele>
        <time>2012-11-16T05:12:09.78Z</time>
      </trkpt>
      <trkpt lat="42.298332" lon="2.430177">
        <ele>579.00</ele>
        <time>2012-11-16T07:49:35.88Z</time>
      </trkpt>
      <trkpt lat="42.298399" lon="2.430051">
        <ele>578.60</ele>
        <time>2012-11-16T11:24:02.04Z</time>
      </trkpt>
      <trkpt lat="42.298415" lon="2.429999">
        <ele>578.00</ele>
        <time>2012-11-16T12:41:51.55Z</time>
      </trkpt>
      <trkpt lat="42.298436" lon="2.429947">
        <ele>577.60</ele>
        <time>2012-11-16T14:03:43.65Z</time>
      </trkpt>
      <trkpt lat="42.298450" lon="2.429887">
        <ele>577.20</ele>
        <time>2012-11-16T15:30:39.93Z</time>
      </trkpt>
      <trkpt lat="42.298462" lon="2.429831">
        <ele>576.80</ele>
        <time>2012-11-16T16:51:13.83Z</time>
      </trkpt>
      <trkpt lat="42.298488" lon="2.429676">
        <ele>576.20</ele>
        <time>2012-11-16T20:30:51.25Z</time>
      </trkpt>
      <trkpt lat="42.298486" lon="2.429634">
        <ele>575.80</ele>
        <time>2012-11-16T21:29:00.69Z</time>
      </trkpt>
      <trkpt lat="42.298491" lon="2.429594">
        <ele>575.40</ele>
        <time>2012-11-16T22:25:04.12Z</time>
      </trkpt>
      <trkpt lat="42.298494" lon="2.429560">
        <ele>575.00</ele>
        <time>2012-11-16T23:12:23.06Z</time>
      </trkpt>
      <trkpt lat="42.298497" lon="2.429521">
        <ele>574.40</ele>
        <time>2012-11-17T00:06:33.99Z</time>
      </trkpt>
      <trkpt lat="42.298511" lon="2.429392">
        <ele>574.00</ele>
        <time>2012-11-17T03:06:43.92Z</time>
      </trkpt>
      <trkpt lat="42.298520" lon="2.429354">
        <ele>573.60</ele>
        <time>2012-11-17T04:01:52.09Z</time>
      </trkpt>
      <trkpt lat="42.298528" lon="2.429316">
        <ele>573.20</ele>
        <time>2012-11-17T04:56:27.81Z</time>
      </trkpt>
      <trkpt lat="42.298532" lon="2.429287">
        <ele>572.80</ele>
        <time>2012-11-17T05:37:13.66Z</time>
      </trkpt>
      <trkpt lat="42.298543" lon="2.429258">
        <ele>572.40</ele>
        <time>2012-11-17T06:22:15.78Z</time>
      </trkpt>
      <trkpt lat="42.298549" lon="2.429203">
        <ele>572.40</ele>
        <time>2012-11-17T07:39:05.17Z</time>
      </trkpt>
      <trkpt lat="42.298547" lon="2.429115">
        <ele>571.80</ele>
        <time>2012-11-17T09:40:44.71Z</time>
      </trkpt>
      <trkpt lat="42.298555" lon="2.429063">
        <ele>571.40</ele>
        <time>2012-11-17T10:54:08.31Z</time>
      </trkpt>
      <trkpt lat="42.298569" lon="2.429008">
        <ele>571.00</ele>
        <time>2012-11-17T12:14:30.84Z</time>
      </trkpt>
      <trkpt lat="42.298585" lon="2.428957">
        <ele>570.60</ele>
        <time>2012-11-17T13:31:03.90Z</time>
      </trkpt>
      <trkpt lat="42.298610" lon="2.428918">
        <ele>570.20</ele>
        <time>2012-11-17T14:42:22.76Z</time>
      </trkpt>
      <trkpt lat="42.298625" lon="2.428871">
        <ele>570.20</ele>
        <time>2012-11-17T15:53:06.81Z</time>
      </trkpt>
      <trkpt lat="42.298638" lon="2.428773">
        <ele>570.20</ele>
        <time>2012-11-17T18:10:41.63Z</time>
      </trkpt>
      <trkpt lat="42.298647" lon="2.428728">
        <ele>569.80</ele>
        <time>2012-11-17T19:15:06.57Z</time>
      </trkpt>
      <trkpt lat="42.298659" lon="2.428677">
        <ele>569.40</ele>
        <time>2012-11-17T20:29:03.78Z</time>
      </trkpt>
      <trkpt lat="42.298665" lon="2.428626">
        <ele>569.00</ele>
        <time>2012-11-17T21:40:25.34Z</time>
      </trkpt>
      <trkpt lat="42.298677" lon="2.428565">
        <ele>568.40</ele>
        <time>2012-11-17T23:07:38.67Z</time>
      </trkpt>
      <trkpt lat="42.298693" lon="2.428502">
        <ele>568.00</ele>
        <time>2012-11-18T00:39:41.33Z</time>
      </trkpt>
      <trkpt lat="42.298720" lon="2.428437">
        <ele>567.60</ele>
        <time>2012-11-18T02:22:42.18Z</time>
      </trkpt>
      <trkpt lat="42.298754" lon="2.428385">
        <ele>567.20</ele>
        <time>2012-11-18T03:58:36.53Z</time>
      </trkpt>
      <trkpt lat="42.298778" lon="2.428339">
        <ele>566.60</ele>
        <time>2012-11-18T05:16:23.76Z</time>
      </trkpt>
      <trkpt lat="42.298801" lon="2.428303">
        <ele>566.20</ele>
        <time>2012-11-18T06:22:07.82Z</time>
      </trkpt>
      <trkpt lat="42.298826" lon="2.428262">
        <ele>565.80</ele>
        <time>2012-11-18T07:35:33.32Z</time>
      </trkpt>
      <trkpt lat="42.298876" lon="2.428161">
        <ele>565.40</ele>
        <time>2012-11-18T10:23:29.76Z</time>
      </trkpt>
      <trkpt lat="42.298890" lon="2.428122">
        <ele>564.80</ele>
        <time>2012-11-18T11:23:23.94Z</time>
      </trkpt>
      <trkpt lat="42.298895" lon="2.428072">
        <ele>564.40</ele>
        <time>2012-11-18T12:33:07.14Z</time>
      </trkpt>
      <trkpt lat="42.298902" lon="2.428020">
        <ele>564.00</ele>
        <time>2012-11-18T13:46:09.26Z</time>
      </trkpt>
      <trkpt lat="42.298905" lon="2.427972">
        <ele>563.60</ele>
        <time>2012-11-18T14:52:43.11Z</time>
      </trkpt>
      <trkpt lat="42.298912" lon="2.427866">
        <ele>563.20</ele>
        <time>2012-11-18T17:19:46.49Z</time>
      </trkpt>
      <trkpt lat="42.298924" lon="2.427811">
        <ele>562.80</ele>
        <time>2012-11-18T18:39:00.78Z</time>
      </trkpt>
      <trkpt lat="42.298930" lon="2.427755">
        <ele>562.20</ele>
        <time>2012-11-18T19:57:12.18Z</time>
      </trkpt>
      <trkpt lat="42.298936" lon="2.427704">
        <ele>561.80</ele>
        <time>2012-11-18T21:08:33.72Z</time>
      </trkpt>
      <trkpt lat="42.298942" lon="2.427660">
        <ele>561.40</ele>
        <time>2012-11-18T22:10:23.22Z</time>
      </trkpt>
      <trkpt lat="42.298943" lon="2.427601">
        <ele>561.40</ele>
        <time>2012-11-18T23:31:56.18Z</time>
      </trkpt>
      <trkpt lat="42.298938" lon="2.427576">
        <ele>561.40</ele>
        <time>2012-11-19T00:07:43.35Z</time>
      </trkpt>
      <trkpt lat="42.298950" lon="2.427592">
        <ele>561.40</ele>
        <time>2012-11-19T00:39:12.56Z</time>
      </trkpt>
      <trkpt lat="42.298969" lon="2.427566">
        <ele>561.40</ele>
        <time>2012-11-19T01:29:42.88Z</time>
      </trkpt>
      <trkpt lat="42.298997" lon="2.427534">
        <ele>561.00</ele>
        <time>2012-11-19T02:38:12.62Z</time>
      </trkpt>
      <trkpt lat="42.299024" lon="2.427441">
        <ele>560.40</ele>
        <time>2012-11-19T04:56:15.92Z</time>
      </trkpt>
      <trkpt lat="42.299042" lon="2.427384">
        <ele>560.00</ele>
        <time>2012-11-19T06:21:54.47Z</time>
      </trkpt>
      <trkpt lat="42.299066" lon="2.427328">
        <ele>559.60</ele>
        <time>2012-11-19T07:51:20.50Z</time>
      </trkpt>
      <trkpt lat="42.299092" lon="2.427275">
        <ele>559.00</ele>
        <time>2012-11-19T09:19:13.35Z</time>
      </trkpt>
      <trkpt lat="42.299153" lon="2.427139">
        <ele>558.60</ele>
        <time>2012-11-19T12:59:00.29Z</time>
      </trkpt>
      <trkpt lat="42.299187" lon="2.427071">
        <ele>558.20</ele>
        <time>2012-11-19T14:52:25.46Z</time>
      </trkpt>
      <trkpt lat="42.299212" lon="2.426999">
        <ele>557.60</ele>
        <time>2012-11-19T16:42:19.99Z</time>
      </trkpt>
      <trkpt lat="42.299227" lon="2.426924">
        <ele>557.20</ele>
        <time>2012-11-19T18:29:41.50Z</time>
      </trkpt>
      <trkpt lat="42.299244" lon="2.426853">
        <ele>556.60</ele>
        <time>2012-11-19T20:12:48.81Z</time>
      </trkpt>
      <trkpt lat="42.299301" lon="2.426644">
        <ele>556.20</ele>
        <time>2012-11-20T01:20:37.27Z</time>
      </trkpt>
      <trkpt lat="42.299323" lon="2.426575">
        <ele>555.80</ele>
        <time>2012-11-20T03:04:26.90Z</time>
      </trkpt>
      <trkpt lat="42.299347" lon="2.426510">
        <ele>555.40</ele>
        <time>2012-11-20T04:44:50.17Z</time>
      </trkpt>
      <trkpt lat="42.299372" lon="2.426448">
        <ele>555.00</ele>
        <time>2012-11-20T06:22:24.78Z</time>
      </trkpt>
      <trkpt lat="42.299393" lon="2.426390">
        <ele>554.40</ele>
        <time>2012-11-20T07:51:38.75Z</time>
      </trkpt>
      <trkpt lat="42.299416" lon="2.426332">
        <ele>554.00</ele>
        <time>2012-11-20T09:22:35.01Z</time>
      </trkpt>
      <trkpt lat="42.299438" lon="2.426273">
        <ele>553.60</ele>
        <time>2012-11-20T10:53:53.10Z</time>
      </trkpt>
      <trkpt lat="42.299459" lon="2.426221">
        <ele>553.00</ele>
        <time>2012-11-20T12:15:45.15Z</time>
      </trkpt>
      <trkpt lat="42.299476" lon="2.426173">
        <ele>552.60</ele>
        <time>2012-11-20T13:29:17.49Z</time>
      </trkpt>
      <trkpt lat="42.299497" lon="2.426124">
        <ele>552.00</ele>
        <time>2012-11-20T14:47:32.74Z</time>
      </trkpt>
      <trkpt lat="42.299520" lon="2.426070">
        <ele>551.60</ele>
        <time>2012-11-20T16:13:39.09Z</time>
      </trkpt>
      <trkpt lat="42.299545" lon="2.426016">
        <ele>551.20</ele>
        <time>2012-11-20T17:41:40.88Z</time>
      </trkpt>
      <trkpt lat="42.299576" lon="2.425961">
        <ele>550.80</ele>
        <time>2012-11-20T19:17:13.99Z</time>
      </trkpt>
      <trkpt lat="42.299608" lon="2.425905">
        <ele>550.20</ele>
        <time>2012-11-20T20:55:01.10Z</time>
      </trkpt>
      <trkpt lat="42.299631" lon="2.425835">
        <ele>549.80</ele>
        <time>2012-11-20T22:40:51.60Z</time>
      </trkpt>
      <trkpt lat="42.299661" lon="2.425769">
        <ele>549.40</ele>
        <time>2012-11-21T00:27:54.30Z</time>
      </trkpt>
      <trkpt lat="42.299692" lon="2.425701">
        <ele>548.80</ele>
        <time>2012-11-21T02:18:16.96Z</time>
      </trkpt>
      <trkpt lat="42.299721" lon="2.425634">
        <ele>548.20</ele>
        <time>2012-11-21T04:05:33.10Z</time>
      </trkpt>
      <trkpt lat="42.299720" lon="2.425552">
        <ele>547.80</ele>
        <time>2012-11-21T05:58:52.53Z</time>
      </trkpt>
      <trkpt lat="42.299727" lon="2.425481">
        <ele>547.20</ele>
        <time>2012-11-21T07:37:51.10Z</time>
      </trkpt>
      <trkpt lat="42.299731" lon="2.425420">
        <ele>547.20</ele>
        <time>2012-11-21T09:02:28.36Z</time>
      </trkpt>
      <trkpt lat="42.299770" lon="2.425248">
        <ele>546.80</ele>
        <time>2012-11-21T13:11:03.68Z</time>
      </trkpt>
      <trkpt lat="42.299786" lon="2.425199">
        <ele>546.20</ele>
        <time>2012-11-21T14:25:04.48Z</time>
      </trkpt>
      <trkpt lat="42.299801" lon="2.425157">
        <ele>545.80</ele>
        <time>2012-11-21T15:29:31.33Z</time>
      </trkpt>
      <trkpt lat="42.299813" lon="2.425118">
        <ele>545.40</ele>
        <time>2012-11-21T16:27:53.40Z</time>
      </trkpt>
      <trkpt lat="42.299824" lon="2.425086">
        <ele>544.80</ele>
        <time>2012-11-21T17:16:39Z</time>
      </trkpt>
      <trkpt lat="42.299837" lon="2.425051">
        <ele>544.80</ele>
        <time>2012-11-21T18:10:46.14Z</time>
      </trkpt>
      <trkpt lat="42.299930" lon="2.424988">
        <ele>544.80</ele>
        <time>2012-11-21T21:25:06.22Z</time>
      </trkpt>
      <trkpt lat="42.299960" lon="2.425002">
        <ele>544.40</ele>
        <time>2012-11-21T22:24:23.72Z</time>
      </trkpt>
      <trkpt lat="42.299990" lon="2.425037">
        <ele>543.40</ele>
        <time>2012-11-21T23:38:25.44Z</time>
      </trkpt>
      <trkpt lat="42.299994" lon="2.425052">
        <ele>543.40</ele>
        <time>2012-11-22T00:00:27.43Z</time>
      </trkpt>
      <trkpt lat="42.299995" lon="2.425055">
        <ele>543.00</ele>
        <time>2012-11-22T00:17:16.27Z</time>
      </trkpt>
      <trkpt lat="42.299984" lon="2.425156">
        <ele>542.60</ele>
        <time>2012-11-22T02:38:20.30Z</time>
      </trkpt>
      <trkpt lat="42.299962" lon="2.425195">
        <ele>542.60</ele>
        <time>2012-11-22T03:46:06.81Z</time>
      </trkpt>
      <trkpt lat="42.299958" lon="2.425280">
        <ele>542.00</ele>
        <time>2012-11-22T05:43:48.26Z</time>
      </trkpt>
      <trkpt lat="42.299951" lon="2.425321">
        <ele>541.60</ele>
        <time>2012-11-22T06:41:56.89Z</time>
      </trkpt>
      <trkpt lat="42.299954" lon="2.425367">
        <ele>541.20</ele>
        <time>2012-11-22T07:45:45.47Z</time>
      </trkpt>
      <trkpt lat="42.299937" lon="2.425401">
        <ele>540.60</ele>
        <time>2012-11-22T08:42:28.03Z</time>
      </trkpt>
      <trkpt lat="42.299927" lon="2.425435">
        <ele>540.20</ele>
        <time>2012-11-22T09:33:01.60Z</time>
      </trkpt>
      <trkpt lat="42.299909" lon="2.425473">
        <ele>540.20</ele>
        <time>2012-11-22T10:35:22.84Z</time>
      </trkpt>
      <trkpt lat="42.299849" lon="2.425648">
        <ele>539.80</ele>
        <time>2012-11-22T15:01:54.85Z</time>
      </trkpt>
      <trkpt lat="42.299822" lon="2.425712">
        <ele>539.20</ele>
        <time>2012-11-22T16:43:43.45Z</time>
      </trkpt>
      <trkpt lat="42.299775" lon="2.425762">
        <ele>538.80</ele>
        <time>2012-11-22T18:35:27.24Z</time>
      </trkpt>
      <trkpt lat="42.299751" lon="2.425833">
        <ele>538.40</ele>
        <time>2012-11-22T20:23:19.37Z</time>
      </trkpt>
      <trkpt lat="42.299726" lon="2.425904">
        <ele>538.00</ele>
        <time>2012-11-22T22:11:58.89Z</time>
      </trkpt>
      <trkpt lat="42.299723" lon="2.425985">
        <ele>537.60</ele>
        <time>2012-11-23T00:04:02.89Z</time>
      </trkpt>
      <trkpt lat="42.299716" lon="2.426064">
        <ele>537.20</ele>
        <time>2012-11-23T01:53:59.51Z</time>
      </trkpt>
      <trkpt lat="42.299702" lon="2.426139">
        <ele>536.60</ele>
        <time>2012-11-23T03:40:52.62Z</time>
      </trkpt>
      <trkpt lat="42.299673" lon="2.426190">
        <ele>536.20</ele>
        <time>2012-11-23T05:09:46.11Z</time>
      </trkpt>
      <trkpt lat="42.299651" lon="2.426243">
        <ele>535.80</ele>
        <time>2012-11-23T06:33:44.97Z</time>
      </trkpt>
      <trkpt lat="42.299621" lon="2.426275">
        <ele>535.80</ele>
        <time>2012-11-23T07:45:08.36Z</time>
      </trkpt>
      <trkpt lat="42.299633" lon="2.426284">
        <ele>535.80</ele>
        <time>2012-11-23T08:10:46.59Z</time>
      </trkpt>
      <trkpt lat="42.299749" lon="2.426296">
        <ele>535.80</ele>
        <time>2012-11-23T11:48:07.50Z</time>
      </trkpt>
      <trkpt lat="42.299763" lon="2.426269">
        <ele>535.80</ele>
        <time>2012-11-23T12:33:41.32Z</time>
      </trkpt>
      <trkpt lat="42.299791" lon="2.426104">
        <ele>535.80</ele>
        <time>2012-11-23T16:27:36.66Z</time>
      </trkpt>
      <trkpt lat="42.299813" lon="2.426055">
        <ele>535.80</ele>
        <time>2012-11-23T17:46:49.08Z</time>
      </trkpt>
      <trkpt lat="42.299857" lon="2.425921">
        <ele>535.80</ele>
        <time>2012-11-23T21:09:24.41Z</time>
      </trkpt>
      <trkpt lat="42.299872" lon="2.425780">
        <ele>535.80</ele>
        <time>2012-11-24T00:26:14.80Z</time>
      </trkpt>
      <trkpt lat="42.299904" lon="2.425632">
        <ele>535.80</ele>
        <time>2012-11-24T03:59:18.78Z</time>
      </trkpt>
      <trkpt lat="42.299942" lon="2.425513">
        <ele>536.20</ele>
        <time>2012-11-24T06:58:25.11Z</time>
      </trkpt>
      <trkpt lat="42.299945" lon="2.425485">
        <ele>536.80</ele>
        <time>2012-11-24T07:37:30.78Z</time>
      </trkpt>
      <trkpt lat="42.299952" lon="2.425457">
        <ele>537.20</ele>
        <time>2012-11-24T08:18:21.23Z</time>
      </trkpt>
      <trkpt lat="42.299958" lon="2.425434">
        <ele>537.60</ele>
        <time>2012-11-24T08:52:03.25Z</time>
      </trkpt>
      <trkpt lat="42.299964" lon="2.425405">
        <ele>538.20</ele>
        <time>2012-11-24T09:33:39.89Z</time>
      </trkpt>
      <trkpt lat="42.299968" lon="2.425377">
        <ele>538.20</ele>
        <time>2012-11-24T10:13:04.23Z</time>
      </trkpt>
      <trkpt lat="42.299981" lon="2.425202">
        <ele>538.20</ele>
        <time>2012-11-24T14:16:06.16Z</time>
      </trkpt>
      <trkpt lat="42.299981" lon="2.425157">
        <ele>538.20</ele>
        <time>2012-11-24T15:18:17.03Z</time>
      </trkpt>
      <trkpt lat="42.299981" lon="2.425118">
        <ele>538.60</ele>
        <time>2012-11-24T16:12:10.46Z</time>
      </trkpt>
      <trkpt lat="42.299979" lon="2.425075">
        <ele>539.20</ele>
        <time>2012-11-24T17:11:42.55Z</time>
      </trkpt>
      <trkpt lat="42.299984" lon="2.425039">
        <ele>539.60</ele>
        <time>2012-11-24T18:02:19.42Z</time>
      </trkpt>
      <trkpt lat="42.299987" lon="2.425012">
        <ele>540.20</ele>
        <time>2012-11-24T18:40:03.06Z</time>
      </trkpt>
      <trkpt lat="42.299987" lon="2.424990">
        <ele>540.60</ele>
        <time>2012-11-24T19:10:27.04Z</time>
      </trkpt>
      <trkpt lat="42.299982" lon="2.424982">
        <ele>540.60</ele>
        <time>2012-11-24T19:27:15.88Z</time>
      </trkpt>
      <trkpt lat="42.299984" lon="2.425023">
        <ele>540.60</ele>
        <time>2012-11-24T20:24:02.51Z</time>
      </trkpt>
      <trkpt lat="42.299977" lon="2.425061">
        <ele>540.60</ele>
        <time>2012-11-24T21:18:09.26Z</time>
      </trkpt>
      <trkpt lat="42.299968" lon="2.425165">
        <ele>540.60</ele>
        <time>2012-11-24T23:42:50.54Z</time>
      </trkpt>
      <trkpt lat="42.299963" lon="2.425279">
        <ele>540.60</ele>
        <time>2012-11-25T02:20:38.68Z</time>
      </trkpt>
      <trkpt lat="42.299966" lon="2.425311">
        <ele>540.60</ele>
        <time>2012-11-25T03:05:12.97Z</time>
      </trkpt>
      <trkpt lat="42.299956" lon="2.425374">
        <ele>540.60</ele>
        <time>2012-11-25T04:34:15.12Z</time>
      </trkpt>
      <trkpt lat="42.299918" lon="2.425451">
        <ele>540.60</ele>
        <time>2012-11-25T06:42:09.67Z</time>
      </trkpt>
      <trkpt lat="42.299906" lon="2.425481">
        <ele>540.20</ele>
        <time>2012-11-25T07:29:17.35Z</time>
      </trkpt>
      <trkpt lat="42.299896" lon="2.425519">
        <ele>539.80</ele>
        <time>2012-11-25T08:25:01.34Z</time>
      </trkpt>
      <trkpt lat="42.299893" lon="2.425564">
        <ele>539.20</ele>
        <time>2012-11-25T09:27:27.34Z</time>
      </trkpt>
      <trkpt lat="42.299890" lon="2.425606">
        <ele>538.80</ele>
        <time>2012-11-25T10:25:45.69Z</time>
      </trkpt>
      <trkpt lat="42.299881" lon="2.425642">
        <ele>538.40</ele>
        <time>2012-11-25T11:18:16.28Z</time>
      </trkpt>
      <trkpt lat="42.299829" lon="2.425793">
        <ele>538.00</ele>
        <time>2012-11-25T15:08:25.89Z</time>
      </trkpt>
      <trkpt lat="42.299812" lon="2.425828">
        <ele>537.60</ele>
        <time>2012-11-25T16:06:17.45Z</time>
      </trkpt>
      <trkpt lat="42.299794" lon="2.425862">
        <ele>537.20</ele>
        <time>2012-11-25T17:04:04.04Z</time>
      </trkpt>
      <trkpt lat="42.299778" lon="2.425899">
        <ele>536.60</ele>
        <time>2012-11-25T18:03:17.48Z</time>
      </trkpt>
      <trkpt lat="42.299768" lon="2.425937">
        <ele>536.20</ele>
        <time>2012-11-25T18:59:01.47Z</time>
      </trkpt>
      <trkpt lat="42.299768" lon="2.426136">
        <ele>536.20</ele>
        <time>2012-11-25T23:34:00.27Z</time>
      </trkpt>
      <trkpt lat="42.299763" lon="2.426201">
        <ele>536.20</ele>
        <time>2012-11-26T01:04:18.39Z</time>
      </trkpt>
      <trkpt lat="42.299730" lon="2.426257">
        <ele>536.20</ele>
        <time>2012-11-26T02:43:14.69Z</time>
      </trkpt>
      <trkpt lat="42.299678" lon="2.426307">
        <ele>536.20</ele>
        <time>2012-11-26T04:42:27.35Z</time>
      </trkpt>
      <trkpt lat="42.299574" lon="2.426362">
        <ele>536.20</ele>
        <time>2012-11-26T08:11:05.22Z</time>
      </trkpt>
      <trkpt lat="42.299530" lon="2.426426">
        <ele>536.20</ele>
        <time>2012-11-26T10:11:49.62Z</time>
      </trkpt>
      <trkpt lat="42.299473" lon="2.426569">
        <ele>536.20</ele>
        <time>2012-11-26T13:56:17.65Z</time>
      </trkpt>
      <trkpt lat="42.299509" lon="2.426727">
        <ele>536.20</ele>
        <time>2012-11-26T17:44:44.73Z</time>
      </trkpt>
      <trkpt lat="42.299501" lon="2.426950">
        <ele>536.20</ele>
        <time>2012-11-26T22:53:15.14Z</time>
      </trkpt>
      <trkpt lat="42.299464" lon="2.427093">
        <ele>536.20</ele>
        <time>2012-11-27T02:22:35.62Z</time>
      </trkpt>
      <trkpt lat="42.299478" lon="2.427331">
        <ele>536.20</ele>
        <time>2012-11-27T07:52:30.25Z</time>
      </trkpt>
      <trkpt lat="42.299485" lon="2.427386">
        <ele>535.80</ele>
        <time>2012-11-27T09:09:37.25Z</time>
      </trkpt>
      <trkpt lat="42.299489" lon="2.427440">
        <ele>535.40</ele>
        <time>2012-11-27T10:24:36.73Z</time>
      </trkpt>
      <trkpt lat="42.299499" lon="2.427562">
        <ele>535.00</ele>
        <time>2012-11-27T13:14:13.54Z</time>
      </trkpt>
      <trkpt lat="42.299511" lon="2.427626">
        <ele>534.40</ele>
        <time>2012-11-27T14:45:27.55Z</time>
      </trkpt>
      <trkpt lat="42.299535" lon="2.427687">
        <ele>534.00</ele>
        <time>2012-11-27T16:20:56Z</time>
      </trkpt>
      <trkpt lat="42.299560" lon="2.427803">
        <ele>534.00</ele>
        <time>2012-11-27T19:07:53.38Z</time>
      </trkpt>
      <trkpt lat="42.299487" lon="2.428032">
        <ele>533.60</ele>
        <time>2012-11-28T00:52:27.81Z</time>
      </trkpt>
      <trkpt lat="42.299475" lon="2.428069">
        <ele>533.20</ele>
        <time>2012-11-28T01:48:17.40Z</time>
      </trkpt>
      <trkpt lat="42.299468" lon="2.428109">
        <ele>532.80</ele>
        <time>2012-11-28T02:45:05.32Z</time>
      </trkpt>
      <trkpt lat="42.299439" lon="2.428138">
        <ele>532.40</ele>
        <time>2012-11-28T03:52:28.60Z</time>
      </trkpt>
      <trkpt lat="42.299439" lon="2.428182">
        <ele>532.00</ele>
        <time>2012-11-28T04:53:16.60Z</time>
      </trkpt>
      <trkpt lat="42.299435" lon="2.428266">
        <ele>532.00</ele>
        <time>2012-11-28T06:49:35.37Z</time>
      </trkpt>
      <trkpt lat="42.299433" lon="2.428300">
        <ele>531.60</ele>
        <time>2012-11-28T07:36:43.17Z</time>
      </trkpt>
      <trkpt lat="42.299433" lon="2.428351">
        <ele>531.00</ele>
        <time>2012-11-28T08:47:11.53Z</time>
      </trkpt>
      <trkpt lat="42.299425" lon="2.428398">
        <ele>530.60</ele>
        <time>2012-11-28T09:53:50.11Z</time>
      </trkpt>
      <trkpt lat="42.299409" lon="2.428434">
        <ele>530.20</ele>
        <time>2012-11-28T10:51:52.24Z</time>
      </trkpt>
      <trkpt lat="42.299404" lon="2.428474">
        <ele>529.60</ele>
        <time>2012-11-28T11:47:55.62Z</time>
      </trkpt>
      <trkpt lat="42.299404" lon="2.428503">
        <ele>529.20</ele>
        <time>2012-11-28T12:27:59.98Z</time>
      </trkpt>
      <trkpt lat="42.299410" lon="2.428530">
        <ele>528.80</ele>
        <time>2012-11-28T13:06:57.38Z</time>
      </trkpt>
      <trkpt lat="42.299415" lon="2.428542">
        <ele>528.20</ele>
        <time>2012-11-28T13:25:59.29Z</time>
      </trkpt>
      <trkpt lat="42.299462" lon="2.428557">
        <ele>527.20</ele>
        <time>2012-11-28T14:56:12.50Z</time>
      </trkpt>
      <trkpt lat="42.299541" lon="2.428572">
        <ele>527.20</ele>
        <time>2012-11-28T17:25:14.83Z</time>
      </trkpt>
      <trkpt lat="42.299531" lon="2.428675">
        <ele>525.20</ele>
        <time>2012-11-28T19:48:47.70Z</time>
      </trkpt>
      <trkpt lat="42.299532" lon="2.428704">
        <ele>525.20</ele>
        <time>2012-11-28T20:28:54.66Z</time>
      </trkpt>
      <trkpt lat="42.299523" lon="2.428702">
        <ele>525.20</ele>
        <time>2012-11-28T20:45:57.05Z</time>
      </trkpt>
      <trkpt lat="42.299490" lon="2.428731">
        <ele>525.20</ele>
        <time>2012-11-28T21:59:28.88Z</time>
      </trkpt>
      <trkpt lat="42.299482" lon="2.428745">
        <ele>525.20</ele>
        <time>2012-11-28T22:23:55.66Z</time>
      </trkpt>
      <trkpt lat="42.299465" lon="2.428818">
        <ele>525.20</ele>
        <time>2012-11-29T00:09:40.92Z</time>
      </trkpt>
      <trkpt lat="42.299426" lon="2.428900">
        <ele>525.60</ele>
        <time>2012-11-29T02:24:23.71Z</time>
      </trkpt>
      <trkpt lat="42.299424" lon="2.428927">
        <ele>526.00</ele>
        <time>2012-11-29T03:01:53.45Z</time>
      </trkpt>
      <trkpt lat="42.299421" lon="2.428950">
        <ele>526.40</ele>
        <time>2012-11-29T03:34:09.78Z</time>
      </trkpt>
      <trkpt lat="42.299419" lon="2.428972">
        <ele>526.80</ele>
        <time>2012-11-29T04:04:47.50Z</time>
      </trkpt>
      <trkpt lat="42.299419" lon="2.428990">
        <ele>527.20</ele>
        <time>2012-11-29T04:29:39.86Z</time>
      </trkpt>
      <trkpt lat="42.299428" lon="2.429006">
        <ele>527.20</ele>
        <time>2012-11-29T04:57:26.44Z</time>
      </trkpt>
      <trkpt lat="42.299438" lon="2.429055">
        <ele>527.20</ele>
        <time>2012-11-29T06:07:40.79Z</time>
      </trkpt>
      <trkpt lat="42.299500" lon="2.429180">
        <ele>527.20</ele>
        <time>2012-11-29T09:35:38.96Z</time>
      </trkpt>
      <trkpt lat="42.299511" lon="2.429214">
        <ele>527.80</ele>
        <time>2012-11-29T10:26:55.74Z</time>
      </trkpt>
      <trkpt lat="42.299522" lon="2.429249">
        <ele>528.20</ele>
        <time>2012-11-29T11:19:28.65Z</time>
      </trkpt>
      <trkpt lat="42.299532" lon="2.429279">
        <ele>528.60</ele>
        <time>2012-11-29T12:04:56.84Z</time>
      </trkpt>
      <trkpt lat="42.299546" lon="2.429314">
        <ele>529.20</ele>
        <time>2012-11-29T12:59:55.81Z</time>
      </trkpt>
      <trkpt lat="42.299555" lon="2.429349">
        <ele>529.60</ele>
        <time>2012-11-29T13:51:07.99Z</time>
      </trkpt>
      <trkpt lat="42.299561" lon="2.429386">
        <ele>530.00</ele>
        <time>2012-11-29T14:43:28.48Z</time>
      </trkpt>
      <trkpt lat="42.299539" lon="2.429413">
        <ele>530.40</ele>
        <time>2012-11-29T15:38:59.02Z</time>
      </trkpt>
      <trkpt lat="42.299534" lon="2.429453">
        <ele>530.80</ele>
        <time>2012-11-29T16:35:02.40Z</time>
      </trkpt>
      <trkpt lat="42.299526" lon="2.429506">
        <ele>531.20</ele>
        <time>2012-11-29T17:49:47.14Z</time>
      </trkpt>
      <trkpt lat="42.299519" lon="2.429546">
        <ele>531.60</ele>
        <time>2012-11-29T18:46:35.06Z</time>
      </trkpt>
      <trkpt lat="42.299519" lon="2.429546">
        <ele>531.60</ele>
        <time>2012-11-29T19:03:23.90Z</time>
      </trkpt>
      <trkpt lat="42.299468" lon="2.429806">
        <ele>531.60</ele>
        <time>2012-11-30T01:15:05.39Z</time>
      </trkpt>
      <trkpt lat="42.299476" lon="2.429892">
        <ele>531.20</ele>
        <time>2012-11-30T03:14:51.73Z</time>
      </trkpt>
      <trkpt lat="42.299494" lon="2.429992">
        <ele>530.80</ele>
        <time>2012-11-30T05:37:04.60Z</time>
      </trkpt>
      <trkpt lat="42.299516" lon="2.430096">
        <ele>530.40</ele>
        <time>2012-11-30T08:06:32.84Z</time>
      </trkpt>
      <trkpt lat="42.299516" lon="2.430180">
        <ele>530.00</ele>
        <time>2012-11-30T10:02:37.18Z</time>
      </trkpt>
      <trkpt lat="42.299517" lon="2.430267">
        <ele>529.60</ele>
        <time>2012-11-30T12:02:51.13Z</time>
      </trkpt>
      <trkpt lat="42.299543" lon="2.430613">
        <ele>529.60</ele>
        <time>2012-11-30T20:03:25.25Z</time>
      </trkpt>
      <trkpt lat="42.299584" lon="2.430795">
        <ele>529.60</ele>
        <time>2012-12-01T00:26:19.02Z</time>
      </trkpt>
      <trkpt lat="42.299596" lon="2.430845">
        <ele>529.60</ele>
        <time>2012-12-01T01:38:57.23Z</time>
      </trkpt>
      <trkpt lat="42.299612" lon="2.430953">
        <ele>529.60</ele>
        <time>2012-12-01T04:11:09.23Z</time>
      </trkpt>
      <trkpt lat="42.299634" lon="2.431079">
        <ele>530.00</ele>
        <time>2012-12-01T07:10:02.86Z</time>
      </trkpt>
      <trkpt lat="42.299643" lon="2.431126">
        <ele>530.40</ele>
        <time>2012-12-01T08:17:08.04Z</time>
      </trkpt>
      <trkpt lat="42.299628" lon="2.431184">
        <ele>530.80</ele>
        <time>2012-12-01T09:42:02.23Z</time>
      </trkpt>
      <trkpt lat="42.299612" lon="2.431242">
        <ele>531.20</ele>
        <time>2012-12-01T11:07:34.51Z</time>
      </trkpt>
      <trkpt lat="42.299580" lon="2.431358">
        <ele>531.80</ele>
        <time>2012-12-01T13:58:39.08Z</time>
      </trkpt>
      <trkpt lat="42.299538" lon="2.431559">
        <ele>531.80</ele>
        <time>2012-12-01T18:47:16.01Z</time>
      </trkpt>
      <trkpt lat="42.299518" lon="2.431693">
        <ele>532.20</ele>
        <time>2012-12-01T21:56:09.73Z</time>
      </trkpt>
      <trkpt lat="42.299501" lon="2.431730">
        <ele>532.60</ele>
        <time>2012-12-01T22:56:21.05Z</time>
      </trkpt>
      <trkpt lat="42.299460" lon="2.431804">
        <ele>533.60</ele>
        <time>2012-12-02T01:04:06.77Z</time>
      </trkpt>
      <trkpt lat="42.299440" lon="2.431841">
        <ele>534.00</ele>
        <time>2012-12-02T02:07:26.30Z</time>
      </trkpt>
      <trkpt lat="42.299407" lon="2.431911">
        <ele>534.60</ele>
        <time>2012-12-02T04:02:08.55Z</time>
      </trkpt>
      <trkpt lat="42.299392" lon="2.431940">
        <ele>535.00</ele>
        <time>2012-12-02T04:51:02.51Z</time>
      </trkpt>
      <trkpt lat="42.299379" lon="2.431969">
        <ele>535.40</ele>
        <time>2012-12-02T05:37:53.99Z</time>
      </trkpt>
      <trkpt lat="42.299359" lon="2.432029">
        <ele>536.40</ele>
        <time>2012-12-02T07:08:50.38Z</time>
      </trkpt>
      <trkpt lat="42.299348" lon="2.432059">
        <ele>536.80</ele>
        <time>2012-12-02T07:55:06.51Z</time>
      </trkpt>
      <trkpt lat="42.299334" lon="2.432091">
        <ele>537.40</ele>
        <time>2012-12-02T08:46:28.98Z</time>
      </trkpt>
      <trkpt lat="42.299322" lon="2.432122">
        <ele>538.00</ele>
        <time>2012-12-02T09:34:49.88Z</time>
      </trkpt>
      <trkpt lat="42.299303" lon="2.432150">
        <ele>538.40</ele>
        <time>2012-12-02T10:27:20.30Z</time>
      </trkpt>
      <trkpt lat="42.299295" lon="2.432275">
        <ele>538.40</ele>
        <time>2012-12-02T13:20:42.66Z</time>
      </trkpt>
      <trkpt lat="42.299314" lon="2.432378">
        <ele>538.80</ele>
        <time>2012-12-02T15:47:23.88Z</time>
      </trkpt>
      <trkpt lat="42.299319" lon="2.432418">
        <ele>539.40</ele>
        <time>2012-12-02T16:43:27.27Z</time>
      </trkpt>
      <trkpt lat="42.299320" lon="2.432459">
        <ele>539.80</ele>
        <time>2012-12-02T17:40:08.39Z</time>
      </trkpt>
      <trkpt lat="42.299313" lon="2.432495">
        <ele>540.20</ele>
        <time>2012-12-02T18:31:34.54Z</time>
      </trkpt>
      <trkpt lat="42.299304" lon="2.432533">
        <ele>540.80</ele>
        <time>2012-12-02T19:26:42.67Z</time>
      </trkpt>
      <trkpt lat="42.299313" lon="2.432670">
        <ele>541.20</ele>
        <time>2012-12-02T22:36:45.93Z</time>
      </trkpt>
      <trkpt lat="42.299321" lon="2.432709">
        <ele>541.60</ele>
        <time>2012-12-02T23:32:41.43Z</time>
      </trkpt>
      <trkpt lat="42.299319" lon="2.432746">
        <ele>542.00</ele>
        <time>2012-12-03T00:23:57.25Z</time>
      </trkpt>
      <trkpt lat="42.299342" lon="2.432779">
        <ele>542.40</ele>
        <time>2012-12-03T01:26:36.59Z</time>
      </trkpt>
      <trkpt lat="42.299365" lon="2.432813">
        <ele>543.00</ele>
        <time>2012-12-03T02:30:16.69Z</time>
      </trkpt>
      <trkpt lat="42.299486" lon="2.433032">
        <ele>543.40</ele>
        <time>2012-12-03T08:48:00.41Z</time>
      </trkpt>
      <trkpt lat="42.299497" lon="2.433068">
        <ele>543.80</ele>
        <time>2012-12-03T09:41:49.79Z</time>
      </trkpt>
      <trkpt lat="42.299502" lon="2.433112">
        <ele>544.20</ele>
        <time>2012-12-03T10:43:20.59Z</time>
      </trkpt>
      <trkpt lat="42.299502" lon="2.433166">
        <ele>544.60</ele>
        <time>2012-12-03T11:57:57.66Z</time>
      </trkpt>
      <trkpt lat="42.299501" lon="2.433230">
        <ele>545.00</ele>
        <time>2012-12-03T13:26:25.02Z</time>
      </trkpt>
      <trkpt lat="42.299476" lon="2.433273">
        <ele>545.00</ele>
        <time>2012-12-03T14:41:59.66Z</time>
      </trkpt>
      <trkpt lat="42.299440" lon="2.433575">
        <ele>545.00</ele>
        <time>2012-12-03T21:44:41.26Z</time>
      </trkpt>
      <trkpt lat="42.299453" lon="2.433952">
        <ele>545.00</ele>
        <time>2012-12-04T06:26:11.88Z</time>
      </trkpt>
      <trkpt lat="42.299515" lon="2.434143">
        <ele>545.00</ele>
        <time>2012-12-04T11:14:25.41Z</time>
      </trkpt>
      <trkpt lat="42.299580" lon="2.434233">
        <ele>545.00</ele>
        <time>2012-12-04T14:08:14.49Z</time>
      </trkpt>
      <trkpt lat="42.299783" lon="2.434487">
        <ele>545.00</ele>
        <time>2012-12-04T22:44:58.79Z</time>
      </trkpt>
      <trkpt lat="42.299798" lon="2.434536">
        <ele>545.00</ele>
        <time>2012-12-04T23:58:15.52Z</time>
      </trkpt>
      <trkpt lat="42.299753" lon="2.434701">
        <ele>545.00</ele>
        <time>2012-12-05T04:01:15.78Z</time>
      </trkpt>
      <trkpt lat="42.299702" lon="2.434781">
        <ele>545.00</ele>
        <time>2012-12-05T06:27:12.16Z</time>
      </trkpt>
      <trkpt lat="42.299638" lon="2.434946">
        <ele>545.00</ele>
        <time>2012-12-05T10:44:39.07Z</time>
      </trkpt>
      <trkpt lat="42.299588" lon="2.435362">
        <ele>545.00</ele>
        <time>2012-12-05T20:27:01.52Z</time>
      </trkpt>
      <trkpt lat="42.299585" lon="2.435590">
        <ele>545.60</ele>
        <time>2012-12-06T01:42:07.70Z</time>
      </trkpt>
      <trkpt lat="42.299593" lon="2.435647">
        <ele>546.00</ele>
        <time>2012-12-06T03:02:17.83Z</time>
      </trkpt>
      <trkpt lat="42.299604" lon="2.435703">
        <ele>546.60</ele>
        <time>2012-12-06T04:22:21.66Z</time>
      </trkpt>
      <trkpt lat="42.299620" lon="2.435756">
        <ele>547.00</ele>
        <time>2012-12-06T05:41:27.75Z</time>
      </trkpt>
      <trkpt lat="42.299640" lon="2.435808">
        <ele>547.60</ele>
        <time>2012-12-06T07:02:27.06Z</time>
      </trkpt>
      <trkpt lat="42.299746" lon="2.435996">
        <ele>547.60</ele>
        <time>2012-12-06T12:29:06.30Z</time>
      </trkpt>
      <trkpt lat="42.299797" lon="2.436098">
        <ele>547.60</ele>
        <time>2012-12-06T15:19:13.99Z</time>
      </trkpt>
      <trkpt lat="42.299816" lon="2.436342">
        <ele>547.60</ele>
        <time>2012-12-06T20:58:15.46Z</time>
      </trkpt>
      <trkpt lat="42.299824" lon="2.436404">
        <ele>547.60</ele>
        <time>2012-12-06T22:25:13.42Z</time>
      </trkpt>
      <trkpt lat="42.299835" lon="2.436462">
        <ele>548.00</ele>
        <time>2012-12-06T23:47:57.68Z</time>
      </trkpt>
      <trkpt lat="42.299846" lon="2.436517">
        <ele>548.40</ele>
        <time>2012-12-07T01:06:41.41Z</time>
      </trkpt>
      <trkpt lat="42.299861" lon="2.436569">
        <ele>548.80</ele>
        <time>2012-12-07T02:23:48.93Z</time>
      </trkpt>
      <trkpt lat="42.299881" lon="2.436621">
        <ele>549.20</ele>
        <time>2012-12-07T03:44:48.22Z</time>
      </trkpt>
      <trkpt lat="42.299907" lon="2.436672">
        <ele>549.60</ele>
        <time>2012-12-07T05:10:23.66Z</time>
      </trkpt>
      <trkpt lat="42.300044" lon="2.436788">
        <ele>549.60</ele>
        <time>2012-12-07T10:12:23.47Z</time>
      </trkpt>
      <trkpt lat="42.300111" lon="2.436959">
        <ele>549.60</ele>
        <time>2012-12-07T14:39:47.16Z</time>
      </trkpt>
      <trkpt lat="42.300104" lon="2.437069">
        <ele>550.00</ele>
        <time>2012-12-07T17:12:20.74Z</time>
      </trkpt>
      <trkpt lat="42.300102" lon="2.437106">
        <ele>550.40</ele>
        <time>2012-12-07T18:03:36.52Z</time>
      </trkpt>
      <trkpt lat="42.300101" lon="2.437147">
        <ele>550.80</ele>
        <time>2012-12-07T19:00:17.60Z</time>
      </trkpt>
      <trkpt lat="42.300093" lon="2.437188">
        <ele>551.20</ele>
        <time>2012-12-07T19:58:53.13Z</time>
      </trkpt>
      <trkpt lat="42.300088" lon="2.437231">
        <ele>551.60</ele>
        <time>2012-12-07T20:59:01.96Z</time>
      </trkpt>
      <trkpt lat="42.300078" lon="2.437298">
        <ele>552.00</ele>
        <time>2012-12-07T22:33:28.78Z</time>
      </trkpt>
      <trkpt lat="42.300072" lon="2.437325">
        <ele>552.60</ele>
        <time>2012-12-07T23:12:26.15Z</time>
      </trkpt>
      <trkpt lat="42.300070" lon="2.437348">
        <ele>553.00</ele>
        <time>2012-12-07T23:44:26.17Z</time>
      </trkpt>
      <trkpt lat="42.300074" lon="2.437372">
        <ele>553.40</ele>
        <time>2012-12-08T00:18:25.86Z</time>
      </trkpt>
      <trkpt lat="42.300085" lon="2.437399">
        <ele>553.80</ele>
        <time>2012-12-08T01:01:01.50Z</time>
      </trkpt>
      <trkpt lat="42.300114" lon="2.437529">
        <ele>554.20</ele>
        <time>2012-12-08T04:08:39.11Z</time>
      </trkpt>
      <trkpt lat="42.300117" lon="2.437570">
        <ele>554.80</ele>
        <time>2012-12-08T05:05:34.93Z</time>
      </trkpt>
      <trkpt lat="42.300114" lon="2.437613">
        <ele>555.20</ele>
        <time>2012-12-08T06:05:15.80Z</time>
      </trkpt>
      <trkpt lat="42.300114" lon="2.437654">
        <ele>555.60</ele>
        <time>2012-12-08T07:01:55.03Z</time>
      </trkpt>
      <trkpt lat="42.300133" lon="2.437731">
        <ele>556.20</ele>
        <time>2012-12-08T08:54:04.85Z</time>
      </trkpt>
      <trkpt lat="42.300151" lon="2.437809">
        <ele>556.20</ele>
        <time>2012-12-08T10:46:59.13Z</time>
      </trkpt>
      <trkpt lat="42.300176" lon="2.437917">
        <ele>557.00</ele>
        <time>2012-12-08T13:23:21.48Z</time>
      </trkpt>
      <trkpt lat="42.300191" lon="2.437949">
        <ele>557.40</ele>
        <time>2012-12-08T14:15:42.47Z</time>
      </trkpt>
      <trkpt lat="42.300204" lon="2.437977">
        <ele>557.80</ele>
        <time>2012-12-08T15:01:23.37Z</time>
      </trkpt>
      <trkpt lat="42.300219" lon="2.438005">
        <ele>558.20</ele>
        <time>2012-12-08T15:49:09.75Z</time>
      </trkpt>
      <trkpt lat="42.300234" lon="2.438023">
        <ele>558.20</ele>
        <time>2012-12-08T16:26:37.91Z</time>
      </trkpt>
      <trkpt lat="42.300257" lon="2.438043">
        <ele>558.60</ele>
        <time>2012-12-08T17:17:43.26Z</time>
      </trkpt>
      <trkpt lat="42.300282" lon="2.438064">
        <ele>559.00</ele>
        <time>2012-12-08T18:12:42.43Z</time>
      </trkpt>
      <trkpt lat="42.300305" lon="2.438086">
        <ele>559.40</ele>
        <time>2012-12-08T19:05:20.56Z</time>
      </trkpt>
      <trkpt lat="42.300325" lon="2.438110">
        <ele>559.80</ele>
        <time>2012-12-08T19:55:18.10Z</time>
      </trkpt>
      <trkpt lat="42.300346" lon="2.438136">
        <ele>560.20</ele>
        <time>2012-12-08T20:48:29.94Z</time>
      </trkpt>
      <trkpt lat="42.300441" lon="2.438323">
        <ele>560.20</ele>
        <time>2012-12-09T02:01:58.60Z</time>
      </trkpt>
      <trkpt lat="42.300450" lon="2.438364">
        <ele>560.80</ele>
        <time>2012-12-09T03:01:04.36Z</time>
      </trkpt>
      <trkpt lat="42.300457" lon="2.438417">
        <ele>561.20</ele>
        <time>2012-12-09T04:15:27.97Z</time>
      </trkpt>
      <trkpt lat="42.300462" lon="2.438467">
        <ele>561.60</ele>
        <time>2012-12-09T05:25:11.07Z</time>
      </trkpt>
      <trkpt lat="42.300465" lon="2.438511">
        <ele>562.20</ele>
        <time>2012-12-09T06:26:14.47Z</time>
      </trkpt>
      <trkpt lat="42.300473" lon="2.438554">
        <ele>562.60</ele>
        <time>2012-12-09T07:27:30.55Z</time>
      </trkpt>
      <trkpt lat="42.300486" lon="2.438605">
        <ele>562.60</ele>
        <time>2012-12-09T08:42:02.90Z</time>
      </trkpt>
      <trkpt lat="42.300514" lon="2.439029">
        <ele>562.60</ele>
        <time>2012-12-09T18:30:15.54Z</time>
      </trkpt>
      <trkpt lat="42.300529" lon="2.439164">
        <ele>562.60</ele>
        <time>2012-12-09T21:38:53.65Z</time>
      </trkpt>
      <trkpt lat="42.300578" lon="2.439385">
        <ele>562.60</ele>
        <time>2012-12-10T02:57:41.76Z</time>
      </trkpt>
      <trkpt lat="42.300623" lon="2.439472">
        <ele>562.60</ele>
        <time>2012-12-10T05:24:23.52Z</time>
      </trkpt>
      <trkpt lat="42.300730" lon="2.439757">
        <ele>562.60</ele>
        <time>2012-12-10T12:46:01.96Z</time>
      </trkpt>
      <trkpt lat="42.300768" lon="2.439823">
        <ele>562.60</ele>
        <time>2012-12-10T14:41:36.32Z</time>
      </trkpt>
      <trkpt lat="42.300846" lon="2.439919">
        <ele>562.60</ele>
        <time>2012-12-10T17:58:39.73Z</time>
      </trkpt>
      <trkpt lat="42.300922" lon="2.439958">
        <ele>562.20</ele>
        <time>2012-12-10T20:30:31.84Z</time>
      </trkpt>
      <trkpt lat="42.300963" lon="2.439969">
        <ele>561.80</ele>
        <time>2012-12-10T21:48:37.30Z</time>
      </trkpt>
      <trkpt lat="42.301003" lon="2.439987">
        <ele>561.40</ele>
        <time>2012-12-10T23:07:22.89Z</time>
      </trkpt>
      <trkpt lat="42.301050" lon="2.440009">
        <ele>560.80</ele>
        <time>2012-12-11T00:40:18.10Z</time>
      </trkpt>
      <trkpt lat="42.301097" lon="2.440037">
        <ele>560.40</ele>
        <time>2012-12-11T02:16:15.28Z</time>
      </trkpt>
      <trkpt lat="42.301142" lon="2.440069">
        <ele>559.80</ele>
        <time>2012-12-11T03:51:14.64Z</time>
      </trkpt>
      <trkpt lat="42.301183" lon="2.440103">
        <ele>559.40</ele>
        <time>2012-12-11T05:21:06.09Z</time>
      </trkpt>
      <trkpt lat="42.301216" lon="2.440144">
        <ele>558.80</ele>
        <time>2012-12-11T06:44:49.80Z</time>
      </trkpt>
      <trkpt lat="42.301247" lon="2.440186">
        <ele>558.40</ele>
        <time>2012-12-11T08:06:49.14Z</time>
      </trkpt>
      <trkpt lat="42.301276" lon="2.440227">
        <ele>557.80</ele>
        <time>2012-12-11T09:25:12.50Z</time>
      </trkpt>
      <trkpt lat="42.301303" lon="2.440262">
        <ele>557.20</ele>
        <time>2012-12-11T10:35:05.35Z</time>
      </trkpt>
      <trkpt lat="42.301336" lon="2.440293">
        <ele>556.60</ele>
        <time>2012-12-11T11:50:09.65Z</time>
      </trkpt>
      <trkpt lat="42.301375" lon="2.440317">
        <ele>556.00</ele>
        <time>2012-12-11T13:10:12.84Z</time>
      </trkpt>
      <trkpt lat="42.301418" lon="2.440328">
        <ele>556.00</ele>
        <time>2012-12-11T14:31:58.40Z</time>
      </trkpt>
      <trkpt lat="42.301466" lon="2.440322">
        <ele>555.60</ele>
        <time>2012-12-11T16:02:01.85Z</time>
      </trkpt>
      <trkpt lat="42.301516" lon="2.440322">
        <ele>555.20</ele>
        <time>2012-12-11T17:35:26.55Z</time>
      </trkpt>
      <trkpt lat="42.301566" lon="2.440334">
        <ele>554.80</ele>
        <time>2012-12-11T19:10:18.87Z</time>
      </trkpt>
      <trkpt lat="42.301620" lon="2.440352">
        <ele>554.00</ele>
        <time>2012-12-11T20:54:13.19Z</time>
      </trkpt>
      <trkpt lat="42.301668" lon="2.440399">
        <ele>553.40</ele>
        <time>2012-12-11T22:44:56.47Z</time>
      </trkpt>
      <trkpt lat="42.301687" lon="2.440433">
        <ele>552.80</ele>
        <time>2012-12-11T23:43:49.41Z</time>
      </trkpt>
      <trkpt lat="42.301711" lon="2.440475">
        <ele>552.20</ele>
        <time>2012-12-12T00:57:09.66Z</time>
      </trkpt>
      <trkpt lat="42.301728" lon="2.440519">
        <ele>551.60</ele>
        <time>2012-12-12T02:05:45.26Z</time>
      </trkpt>
      <trkpt lat="42.301768" lon="2.440620">
        <ele>551.60</ele>
        <time>2012-12-12T04:44:03.66Z</time>
      </trkpt>
      <trkpt lat="42.301785" lon="2.440683">
        <ele>551.60</ele>
        <time>2012-12-12T06:16:43.49Z</time>
      </trkpt>
      <trkpt lat="42.301829" lon="2.440804">
        <ele>552.00</ele>
        <time>2012-12-12T09:23:02Z</time>
      </trkpt>
      <trkpt lat="42.301854" lon="2.440851">
        <ele>552.40</ele>
        <time>2012-12-12T10:43:01.63Z</time>
      </trkpt>
      <trkpt lat="42.301877" lon="2.440888">
        <ele>553.00</ele>
        <time>2012-12-12T11:49:48.70Z</time>
      </trkpt>
      <trkpt lat="42.301889" lon="2.440906">
        <ele>553.40</ele>
        <time>2012-12-12T12:23:17.76Z</time>
      </trkpt>
      <trkpt lat="42.301894" lon="2.440913">
        <ele>553.80</ele>
        <time>2012-12-12T12:40:06.61Z</time>
      </trkpt>
      <trkpt lat="42.301890" lon="2.440915">
        <ele>553.80</ele>
        <time>2012-12-12T12:56:55.45Z</time>
      </trkpt>
      <trkpt lat="42.301879" lon="2.440939">
        <ele>553.80</ele>
        <time>2012-12-12T13:35:56.27Z</time>
      </trkpt>
      <trkpt lat="42.301938" lon="2.441078">
        <ele>553.80</ele>
        <time>2012-12-12T17:17:23.07Z</time>
      </trkpt>
      <trkpt lat="42.301977" lon="2.441132">
        <ele>553.40</ele>
        <time>2012-12-12T19:01:40.40Z</time>
      </trkpt>
      <trkpt lat="42.302024" lon="2.441186">
        <ele>552.80</ele>
        <time>2012-12-12T20:56:54.07Z</time>
      </trkpt>
      <trkpt lat="42.302064" lon="2.441236">
        <ele>552.40</ele>
        <time>2012-12-12T22:38:40.41Z</time>
      </trkpt>
      <trkpt lat="42.302100" lon="2.441277">
        <ele>551.60</ele>
        <time>2012-12-13T00:06:36.62Z</time>
      </trkpt>
      <trkpt lat="42.302137" lon="2.441322">
        <ele>551.00</ele>
        <time>2012-12-13T01:39:35.16Z</time>
      </trkpt>
      <trkpt lat="42.302176" lon="2.441366">
        <ele>550.40</ele>
        <time>2012-12-13T03:14:28.85Z</time>
      </trkpt>
      <trkpt lat="42.302215" lon="2.441409">
        <ele>549.80</ele>
        <time>2012-12-13T04:48:29.79Z</time>
      </trkpt>
      <trkpt lat="42.302256" lon="2.441455">
        <ele>549.20</ele>
        <time>2012-12-13T06:28:01.87Z</time>
      </trkpt>
      <trkpt lat="42.302292" lon="2.441494">
        <ele>548.60</ele>
        <time>2012-12-13T07:54:12.81Z</time>
      </trkpt>
      <trkpt lat="42.302317" lon="2.441531">
        <ele>548.00</ele>
        <time>2012-12-13T09:03:27.64Z</time>
      </trkpt>
      <trkpt lat="42.302334" lon="2.441570">
        <ele>547.20</ele>
        <time>2012-12-13T10:06:00.71Z</time>
      </trkpt>
      <trkpt lat="42.302351" lon="2.441630">
        <ele>546.60</ele>
        <time>2012-12-13T11:34:47.54Z</time>
      </trkpt>
      <trkpt lat="42.302378" lon="2.441740">
        <ele>546.60</ele>
        <time>2012-12-13T14:14:56.20Z</time>
      </trkpt>
      <trkpt lat="42.302401" lon="2.441799">
        <ele>546.20</ele>
        <time>2012-12-13T15:47:05.46Z</time>
      </trkpt>
      <trkpt lat="42.302428" lon="2.441864">
        <ele>545.80</ele>
        <time>2012-12-13T17:30:06.02Z</time>
      </trkpt>
      <trkpt lat="42.302462" lon="2.441932">
        <ele>545.20</ele>
        <time>2012-12-13T19:23:30.95Z</time>
      </trkpt>
      <trkpt lat="42.302500" lon="2.442009">
        <ele>544.80</ele>
        <time>2012-12-13T21:31:25.28Z</time>
      </trkpt>
      <trkpt lat="42.302539" lon="2.442096">
        <ele>544.40</ele>
        <time>2012-12-13T23:51:59.43Z</time>
      </trkpt>
      <trkpt lat="42.302579" lon="2.442179">
        <ele>543.80</ele>
        <time>2012-12-14T02:08:52.45Z</time>
      </trkpt>
      <trkpt lat="42.302612" lon="2.442262">
        <ele>543.40</ele>
        <time>2012-12-14T04:19:04.80Z</time>
      </trkpt>
      <trkpt lat="42.302644" lon="2.442343">
        <ele>543.00</ele>
        <time>2012-12-14T06:25:58.06Z</time>
      </trkpt>
      <trkpt lat="42.302673" lon="2.442428">
        <ele>542.40</ele>
        <time>2012-12-14T08:35:18.60Z</time>
      </trkpt>
      <trkpt lat="42.302703" lon="2.442514">
        <ele>542.00</ele>
        <time>2012-12-14T10:46:41.66Z</time>
      </trkpt>
      <trkpt lat="42.302739" lon="2.442596">
        <ele>541.40</ele>
        <time>2012-12-14T12:58:27.33Z</time>
      </trkpt>
      <trkpt lat="42.302783" lon="2.442680">
        <ele>540.80</ele>
        <time>2012-12-14T15:20:40.97Z</time>
      </trkpt>
      <trkpt lat="42.302825" lon="2.442764">
        <ele>540.40</ele>
        <time>2012-12-14T17:40:47.03Z</time>
      </trkpt>
      <trkpt lat="42.302868" lon="2.442845">
        <ele>539.80</ele>
        <time>2012-12-14T19:58:33.08Z</time>
      </trkpt>
      <trkpt lat="42.302908" lon="2.442924">
        <ele>539.20</ele>
        <time>2012-12-14T22:10:50.29Z</time>
      </trkpt>
      <trkpt lat="42.302954" lon="2.443005">
        <ele>538.60</ele>
        <time>2012-12-15T00:31:56.83Z</time>
      </trkpt>
      <trkpt lat="42.302995" lon="2.443090">
        <ele>538.00</ele>
        <time>2012-12-15T02:52:09.93Z</time>
      </trkpt>
      <trkpt lat="42.303026" lon="2.443174">
        <ele>537.40</ele>
        <time>2012-12-15T05:01:52.71Z</time>
      </trkpt>
      <trkpt lat="42.303052" lon="2.443255">
        <ele>536.60</ele>
        <time>2012-12-15T07:03:53.12Z</time>
      </trkpt>
      <trkpt lat="42.303076" lon="2.443326">
        <ele>536.00</ele>
        <time>2012-12-15T08:51:44.97Z</time>
      </trkpt>
      <trkpt lat="42.303099" lon="2.443390">
        <ele>535.20</ele>
        <time>2012-12-15T10:30:04.05Z</time>
      </trkpt>
      <trkpt lat="42.303118" lon="2.443450">
        <ele>534.40</ele>
        <time>2012-12-15T12:00:15.07Z</time>
      </trkpt>
      <trkpt lat="42.303131" lon="2.443515">
        <ele>533.80</ele>
        <time>2012-12-15T13:33:17.39Z</time>
      </trkpt>
      <trkpt lat="42.303146" lon="2.443576">
        <ele>533.00</ele>
        <time>2012-12-15T15:02:06.73Z</time>
      </trkpt>
      <trkpt lat="42.303165" lon="2.443636">
        <ele>532.20</ele>
        <time>2012-12-15T16:32:17.75Z</time>
      </trkpt>
      <trkpt lat="42.303197" lon="2.443685">
        <ele>531.60</ele>
        <time>2012-12-15T18:02:37.05Z</time>
      </trkpt>
      <trkpt lat="42.303238" lon="2.443729">
        <ele>530.80</ele>
        <time>2012-12-15T19:40:24.60Z</time>
      </trkpt>
      <trkpt lat="42.303280" lon="2.443766">
        <ele>530.20</ele>
        <time>2012-12-15T21:14:03.68Z</time>
      </trkpt>
      <trkpt lat="42.303325" lon="2.443789">
        <ele>529.40</ele>
        <time>2012-12-15T22:43:56.27Z</time>
      </trkpt>
      <trkpt lat="42.303372" lon="2.443817">
        <ele>528.80</ele>
        <time>2012-12-16T00:19:53.42Z</time>
      </trkpt>
      <trkpt lat="42.303417" lon="2.443849">
        <ele>528.20</ele>
        <time>2012-12-16T01:54:52.74Z</time>
      </trkpt>
      <trkpt lat="42.303463" lon="2.443884">
        <ele>527.40</ele>
        <time>2012-12-16T03:33:29.42Z</time>
      </trkpt>
      <trkpt lat="42.303501" lon="2.443926">
        <ele>526.80</ele>
        <time>2012-12-16T05:05:11.05Z</time>
      </trkpt>
      <trkpt lat="42.303535" lon="2.443976">
        <ele>526.00</ele>
        <time>2012-12-16T06:39:02.01Z</time>
      </trkpt>
      <trkpt lat="42.303555" lon="2.444032">
        <ele>525.40</ele>
        <time>2012-12-16T08:04:57.57Z</time>
      </trkpt>
      <trkpt lat="42.303579" lon="2.444089">
        <ele>524.80</ele>
        <time>2012-12-16T09:35:35.20Z</time>
      </trkpt>
      <trkpt lat="42.303609" lon="2.444145">
        <ele>524.20</ele>
        <time>2012-12-16T11:11:07.76Z</time>
      </trkpt>
      <trkpt lat="42.303643" lon="2.444197">
        <ele>523.40</ele>
        <time>2012-12-16T12:47:01.87Z</time>
      </trkpt>
      <trkpt lat="42.303685" lon="2.444248">
        <ele>522.60</ele>
        <time>2012-12-16T14:32:29.69Z</time>
      </trkpt>
      <trkpt lat="42.303727" lon="2.444285">
        <ele>521.80</ele>
        <time>2012-12-16T16:06:08.75Z</time>
      </trkpt>
      <trkpt lat="42.303778" lon="2.444315">
        <ele>521.00</ele>
        <time>2012-12-16T17:50:03.13Z</time>
      </trkpt>
      <trkpt lat="42.303825" lon="2.444337">
        <ele>520.20</ele>
        <time>2012-12-16T19:22:58.32Z</time>
      </trkpt>
      <trkpt lat="42.303868" lon="2.444352">
        <ele>519.60</ele>
        <time>2012-12-16T20:45:56.19Z</time>
      </trkpt>
      <trkpt lat="42.303905" lon="2.444370">
        <ele>519.00</ele>
        <time>2012-12-16T21:59:23.96Z</time>
      </trkpt>
      <trkpt lat="42.303934" lon="2.444390">
        <ele>518.40</ele>
        <time>2012-12-16T23:00:13.12Z</time>
      </trkpt>
      <trkpt lat="42.303963" lon="2.444404">
        <ele>517.80</ele>
        <time>2012-12-16T23:57:44.83Z</time>
      </trkpt>
      <trkpt lat="42.303991" lon="2.444435">
        <ele>517.40</ele>
        <time>2012-12-17T01:05:21.41Z</time>
      </trkpt>
      <trkpt lat="42.304022" lon="2.444475">
        <ele>516.80</ele>
        <time>2012-12-17T02:25:24.71Z</time>
      </trkpt>
      <trkpt lat="42.304056" lon="2.444522">
        <ele>516.40</ele>
        <time>2012-12-17T03:56:15.16Z</time>
      </trkpt>
      <trkpt lat="42.304101" lon="2.444573">
        <ele>515.80</ele>
        <time>2012-12-17T05:45:57Z</time>
      </trkpt>
      <trkpt lat="42.304148" lon="2.444620">
        <ele>515.20</ele>
        <time>2012-12-17T07:35:09.74Z</time>
      </trkpt>
      <trkpt lat="42.304190" lon="2.444658">
        <ele>514.60</ele>
        <time>2012-12-17T09:09:34.48Z</time>
      </trkpt>
      <trkpt lat="42.304228" lon="2.444692">
        <ele>514.00</ele>
        <time>2012-12-17T10:34:42.21Z</time>
      </trkpt>
      <trkpt lat="42.304265" lon="2.444728">
        <ele>513.40</ele>
        <time>2012-12-17T11:59:51.89Z</time>
      </trkpt>
      <trkpt lat="42.304296" lon="2.444769">
        <ele>512.80</ele>
        <time>2012-12-17T13:20:52.78Z</time>
      </trkpt>
      <trkpt lat="42.304325" lon="2.444821">
        <ele>512.20</ele>
        <time>2012-12-17T14:50:51.98Z</time>
      </trkpt>
      <trkpt lat="42.304357" lon="2.444875">
        <ele>511.80</ele>
        <time>2012-12-17T16:26:28.51Z</time>
      </trkpt>
      <trkpt lat="42.304396" lon="2.444928">
        <ele>511.20</ele>
        <time>2012-12-17T18:09:46.67Z</time>
      </trkpt>
      <trkpt lat="42.304442" lon="2.444973">
        <ele>511.20</ele>
        <time>2012-12-17T19:55:51.03Z</time>
      </trkpt>
      <trkpt lat="42.304551" lon="2.445044">
        <ele>510.80</ele>
        <time>2012-12-17T23:41:53.16Z</time>
      </trkpt>
      <trkpt lat="42.304615" lon="2.445063">
        <ele>510.20</ele>
        <time>2012-12-18T01:44:18.06Z</time>
      </trkpt>
      <trkpt lat="42.304672" lon="2.445069">
        <ele>509.80</ele>
        <time>2012-12-18T03:31:06.75Z</time>
      </trkpt>
      <trkpt lat="42.304721" lon="2.445058">
        <ele>509.40</ele>
        <time>2012-12-18T05:03:54.55Z</time>
      </trkpt>
      <trkpt lat="42.304764" lon="2.445045">
        <ele>509.00</ele>
        <time>2012-12-18T06:26:13.61Z</time>
      </trkpt>
      <trkpt lat="42.304811" lon="2.445022">
        <ele>508.40</ele>
        <time>2012-12-18T07:59:36.45Z</time>
      </trkpt>
      <trkpt lat="42.304861" lon="2.445004">
        <ele>508.00</ele>
        <time>2012-12-18T09:36:16.40Z</time>
      </trkpt>
      <trkpt lat="42.304913" lon="2.444995">
        <ele>507.40</ele>
        <time>2012-12-18T11:14:12.85Z</time>
      </trkpt>
      <trkpt lat="42.304965" lon="2.444985">
        <ele>507.00</ele>
        <time>2012-12-18T12:52:20.40Z</time>
      </trkpt>
      <trkpt lat="42.305018" lon="2.444969">
        <ele>506.40</ele>
        <time>2012-12-18T14:33:47.65Z</time>
      </trkpt>
      <trkpt lat="42.305155" lon="2.444923">
        <ele>506.40</ele>
        <time>2012-12-18T18:57:30.94Z</time>
      </trkpt>
      <trkpt lat="42.305208" lon="2.444902">
        <ele>506.00</ele>
        <time>2012-12-18T20:40:41.74Z</time>
      </trkpt>
      <trkpt lat="42.305255" lon="2.444882">
        <ele>505.60</ele>
        <time>2012-12-18T22:12:44.90Z</time>
      </trkpt>
      <trkpt lat="42.305307" lon="2.444856">
        <ele>505.20</ele>
        <time>2012-12-18T23:56:19.55Z</time>
      </trkpt>
      <trkpt lat="42.305370" lon="2.444835">
        <ele>504.80</ele>
        <time>2012-12-19T01:57:32.90Z</time>
      </trkpt>
      <trkpt lat="42.305439" lon="2.444814">
        <ele>504.40</ele>
        <time>2012-12-19T04:09:40.89Z</time>
      </trkpt>
      <trkpt lat="42.305582" lon="2.444775">
        <ele>504.00</ele>
        <time>2012-12-19T08:42:13.15Z</time>
      </trkpt>
      <trkpt lat="42.305647" lon="2.444765">
        <ele>503.60</ele>
        <time>2012-12-19T10:44:26.27Z</time>
      </trkpt>
      <trkpt lat="42.305716" lon="2.444753">
        <ele>503.00</ele>
        <time>2012-12-19T12:54:24.47Z</time>
      </trkpt>
      <trkpt lat="42.305782" lon="2.444739">
        <ele>502.60</ele>
        <time>2012-12-19T14:59:13.15Z</time>
      </trkpt>
      <trkpt lat="42.305847" lon="2.444719">
        <ele>502.20</ele>
        <time>2012-12-19T17:03:45.53Z</time>
      </trkpt>
      <trkpt lat="42.305968" lon="2.444638">
        <ele>501.80</ele>
        <time>2012-12-19T21:16:00.11Z</time>
      </trkpt>
      <trkpt lat="42.306022" lon="2.444585">
        <ele>501.40</ele>
        <time>2012-12-19T23:20:39.71Z</time>
      </trkpt>
      <trkpt lat="42.306077" lon="2.444533">
        <ele>501.00</ele>
        <time>2012-12-20T01:26:02.51Z</time>
      </trkpt>
      <trkpt lat="42.306132" lon="2.444482">
        <ele>500.60</ele>
        <time>2012-12-20T03:30:38.10Z</time>
      </trkpt>
      <trkpt lat="42.306195" lon="2.444438">
        <ele>500.20</ele>
        <time>2012-12-20T05:43:06.42Z</time>
      </trkpt>
      <trkpt lat="42.306292" lon="2.444403">
        <ele>500.20</ele>
        <time>2012-12-20T08:50:40.02Z</time>
      </trkpt>
      <trkpt lat="42.306362" lon="2.444377">
        <ele>500.20</ele>
        <time>2012-12-20T11:06:17.25Z</time>
      </trkpt>
      <trkpt lat="42.306434" lon="2.444341">
        <ele>499.80</ele>
        <time>2012-12-20T13:29:42.13Z</time>
      </trkpt>
      <trkpt lat="42.306506" lon="2.444306">
        <ele>499.40</ele>
        <time>2012-12-20T15:52:38.60Z</time>
      </trkpt>
      <trkpt lat="42.306576" lon="2.444266">
        <ele>498.80</ele>
        <time>2012-12-20T18:14:37.09Z</time>
      </trkpt>
      <trkpt lat="42.306646" lon="2.444231">
        <ele>498.40</ele>
        <time>2012-12-20T20:34:02.94Z</time>
      </trkpt>
      <trkpt lat="42.306721" lon="2.444201">
        <ele>498.00</ele>
        <time>2012-12-20T23:00:10.13Z</time>
      </trkpt>
      <trkpt lat="42.306797" lon="2.444172">
        <ele>497.40</ele>
        <time>2012-12-21T01:27:41.99Z</time>
      </trkpt>
      <trkpt lat="42.306871" lon="2.444141">
        <ele>497.00</ele>
        <time>2012-12-21T03:52:25.91Z</time>
      </trkpt>
      <trkpt lat="42.307025" lon="2.444089">
        <ele>496.40</ele>
        <time>2012-12-21T08:48:58.49Z</time>
      </trkpt>
      <trkpt lat="42.307099" lon="2.444061">
        <ele>496.00</ele>
        <time>2012-12-21T11:12:32.09Z</time>
      </trkpt>
      <trkpt lat="42.307225" lon="2.443994">
        <ele>496.00</ele>
        <time>2012-12-21T15:25:28.79Z</time>
      </trkpt>
      <trkpt lat="42.307360" lon="2.443827">
        <ele>496.00</ele>
        <time>2012-12-21T21:07:18.70Z</time>
      </trkpt>
      <trkpt lat="42.307432" lon="2.443626">
        <ele>495.60</ele>
        <time>2012-12-22T02:15:53Z</time>
      </trkpt>
      <trkpt lat="42.307465" lon="2.443550">
        <ele>495.20</ele>
        <time>2012-12-22T04:17:38.95Z</time>
      </trkpt>
      <trkpt lat="42.307508" lon="2.443479">
        <ele>494.80</ele>
        <time>2012-12-22T06:24:26.53Z</time>
      </trkpt>
      <trkpt lat="42.307553" lon="2.443414">
        <ele>494.20</ele>
        <time>2012-12-22T08:27:27.52Z</time>
      </trkpt>
      <trkpt lat="42.307589" lon="2.443359">
        <ele>493.80</ele>
        <time>2012-12-22T10:08:56.24Z</time>
      </trkpt>
      <trkpt lat="42.307621" lon="2.443308">
        <ele>493.20</ele>
        <time>2012-12-22T11:41:20.69Z</time>
      </trkpt>
      <trkpt lat="42.307652" lon="2.443254">
        <ele>492.60</ele>
        <time>2012-12-22T13:15:47.62Z</time>
      </trkpt>
      <trkpt lat="42.307681" lon="2.443202">
        <ele>492.20</ele>
        <time>2012-12-22T14:45:46.64Z</time>
      </trkpt>
      <trkpt lat="42.307715" lon="2.443139">
        <ele>491.60</ele>
        <time>2012-12-22T16:33:31.97Z</time>
      </trkpt>
      <trkpt lat="42.307758" lon="2.443093">
        <ele>491.20</ele>
        <time>2012-12-22T18:15:58.04Z</time>
      </trkpt>
      <trkpt lat="42.307803" lon="2.443054">
        <ele>490.80</ele>
        <time>2012-12-22T19:55:49.42Z</time>
      </trkpt>
      <trkpt lat="42.307848" lon="2.443039">
        <ele>490.40</ele>
        <time>2012-12-22T21:22:24.66Z</time>
      </trkpt>
      <trkpt lat="42.307885" lon="2.443042">
        <ele>490.00</ele>
        <time>2012-12-22T22:31:39.59Z</time>
      </trkpt>
      <trkpt lat="42.307923" lon="2.443059">
        <ele>489.60</ele>
        <time>2012-12-22T23:46:26.23Z</time>
      </trkpt>
      <trkpt lat="42.307938" lon="2.443109">
        <ele>489.60</ele>
        <time>2012-12-23T01:00:59.18Z</time>
      </trkpt>
      <trkpt lat="42.307926" lon="2.443328">
        <ele>489.60</ele>
        <time>2012-12-23T06:04:23.55Z</time>
      </trkpt>
      <trkpt lat="42.307920" lon="2.443400">
        <ele>489.60</ele>
        <time>2012-12-23T07:44:29.97Z</time>
      </trkpt>
      <trkpt lat="42.307903" lon="2.443524">
        <ele>489.60</ele>
        <time>2012-12-23T10:38:44.43Z</time>
      </trkpt>
      <trkpt lat="42.307874" lon="2.443627">
        <ele>489.60</ele>
        <time>2012-12-23T13:11:00.78Z</time>
      </trkpt>
      <trkpt lat="42.307864" lon="2.443725">
        <ele>490.00</ele>
        <time>2012-12-23T15:27:41.73Z</time>
      </trkpt>
      <trkpt lat="42.307869" lon="2.443778">
        <ele>490.40</ele>
        <time>2012-12-23T16:41:30.93Z</time>
      </trkpt>
      <trkpt lat="42.307871" lon="2.443830">
        <ele>490.80</ele>
        <time>2012-12-23T17:53:27.44Z</time>
      </trkpt>
      <trkpt lat="42.307877" lon="2.443875">
        <ele>491.20</ele>
        <time>2012-12-23T18:56:37.99Z</time>
      </trkpt>
      <trkpt lat="42.307885" lon="2.443914">
        <ele>491.60</ele>
        <time>2012-12-23T19:52:33.07Z</time>
      </trkpt>
      <trkpt lat="42.307897" lon="2.443954">
        <ele>492.00</ele>
        <time>2012-12-23T20:52:11.42Z</time>
      </trkpt>
      <trkpt lat="42.307911" lon="2.443990">
        <ele>492.60</ele>
        <time>2012-12-23T21:48:23.21Z</time>
      </trkpt>
      <trkpt lat="42.307924" lon="2.444030">
        <ele>493.00</ele>
        <time>2012-12-23T22:48:45.19Z</time>
      </trkpt>
      <trkpt lat="42.307935" lon="2.444069">
        <ele>493.40</ele>
        <time>2012-12-23T23:46:25.36Z</time>
      </trkpt>
      <trkpt lat="42.307950" lon="2.444109">
        <ele>494.00</ele>
        <time>2012-12-24T00:48:23.21Z</time>
      </trkpt>
      <trkpt lat="42.307969" lon="2.444152">
        <ele>494.40</ele>
        <time>2012-12-24T01:57:35.60Z</time>
      </trkpt>
      <trkpt lat="42.307986" lon="2.444189">
        <ele>494.80</ele>
        <time>2012-12-24T02:57:46.57Z</time>
      </trkpt>
      <trkpt lat="42.308009" lon="2.444230">
        <ele>495.40</ele>
        <time>2012-12-24T04:08:52.58Z</time>
      </trkpt>
      <trkpt lat="42.308032" lon="2.444274">
        <ele>495.80</ele>
        <time>2012-12-24T05:23:19.25Z</time>
      </trkpt>
      <trkpt lat="42.308052" lon="2.444320">
        <ele>496.20</ele>
        <time>2012-12-24T06:37:02.73Z</time>
      </trkpt>
      <trkpt lat="42.308078" lon="2.444430">
        <ele>496.20</ele>
        <time>2012-12-24T09:16:35.89Z</time>
      </trkpt>
      <trkpt lat="42.308084" lon="2.444568">
        <ele>496.20</ele>
        <time>2012-12-24T12:27:35.51Z</time>
      </trkpt>
      <trkpt lat="42.308079" lon="2.444612">
        <ele>496.80</ele>
        <time>2012-12-24T13:29:05.81Z</time>
      </trkpt>
      <trkpt lat="42.308070" lon="2.444658">
        <ele>497.20</ele>
        <time>2012-12-24T14:34:50.29Z</time>
      </trkpt>
      <trkpt lat="42.308059" lon="2.444710">
        <ele>497.60</ele>
        <time>2012-12-24T15:49:33.85Z</time>
      </trkpt>
      <trkpt lat="42.308045" lon="2.444758">
        <ele>498.20</ele>
        <time>2012-12-24T17:00:51.22Z</time>
      </trkpt>
      <trkpt lat="42.308032" lon="2.444808">
        <ele>498.60</ele>
        <time>2012-12-24T18:14:04.80Z</time>
      </trkpt>
      <trkpt lat="42.308016" lon="2.444852">
        <ele>499.00</ele>
        <time>2012-12-24T19:21:49.39Z</time>
      </trkpt>
      <trkpt lat="42.308000" lon="2.444895">
        <ele>499.40</ele>
        <time>2012-12-24T20:28:19.75Z</time>
      </trkpt>
      <trkpt lat="42.307978" lon="2.444932">
        <ele>500.00</ele>
        <time>2012-12-24T21:33:55.40Z</time>
      </trkpt>
      <trkpt lat="42.307954" lon="2.444971">
        <ele>500.40</ele>
        <time>2012-12-24T22:44:01.33Z</time>
      </trkpt>
      <trkpt lat="42.307936" lon="2.445011">
        <ele>500.80</ele>
        <time>2012-12-24T23:48:42.86Z</time>
      </trkpt>
      <trkpt lat="42.307901" lon="2.445097">
        <ele>501.20</ele>
        <time>2012-12-25T02:04:20.30Z</time>
      </trkpt>
      <trkpt lat="42.307872" lon="2.445139">
        <ele>501.60</ele>
        <time>2012-12-25T03:23:43.65Z</time>
      </trkpt>
      <trkpt lat="42.307843" lon="2.445174">
        <ele>502.00</ele>
        <time>2012-12-25T04:36:20.88Z</time>
      </trkpt>
      <trkpt lat="42.307813" lon="2.445206">
        <ele>502.60</ele>
        <time>2012-12-25T05:47:44.05Z</time>
      </trkpt>
      <trkpt lat="42.307788" lon="2.445237">
        <ele>503.00</ele>
        <time>2012-12-25T06:51:06.32Z</time>
      </trkpt>
      <trkpt lat="42.307783" lon="2.445384">
        <ele>503.40</ele>
        <time>2012-12-25T10:14:25.20Z</time>
      </trkpt>
      <trkpt lat="42.307810" lon="2.445401">
        <ele>503.80</ele>
        <time>2012-12-25T11:10:03.76Z</time>
      </trkpt>
      <trkpt lat="42.307834" lon="2.445402">
        <ele>504.40</ele>
        <time>2012-12-25T11:54:55.29Z</time>
      </trkpt>
      <trkpt lat="42.307859" lon="2.445385">
        <ele>504.80</ele>
        <time>2012-12-25T12:47:12.04Z</time>
      </trkpt>
      <trkpt lat="42.307880" lon="2.445358">
        <ele>505.20</ele>
        <time>2012-12-25T13:41:20.26Z</time>
      </trkpt>
      <trkpt lat="42.307895" lon="2.445328">
        <ele>505.20</ele>
        <time>2012-12-25T14:31:22.26Z</time>
      </trkpt>
      <trkpt lat="42.307959" lon="2.445170">
        <ele>505.20</ele>
        <time>2012-12-25T18:40:16.12Z</time>
      </trkpt>
      <trkpt lat="42.308042" lon="2.445049">
        <ele>505.60</ele>
        <time>2012-12-25T22:28:17.27Z</time>
      </trkpt>
      <trkpt lat="42.308065" lon="2.445003">
        <ele>506.20</ele>
        <time>2012-12-25T23:45:00.33Z</time>
      </trkpt>
      <trkpt lat="42.308091" lon="2.444951">
        <ele>506.60</ele>
        <time>2012-12-26T01:11:43.78Z</time>
      </trkpt>
      <trkpt lat="42.308117" lon="2.444905">
        <ele>507.00</ele>
        <time>2012-12-26T02:31:43.27Z</time>
      </trkpt>
      <trkpt lat="42.308147" lon="2.444860">
        <ele>507.40</ele>
        <time>2012-12-26T03:55:25.66Z</time>
      </trkpt>
      <trkpt lat="42.308268" lon="2.444680">
        <ele>507.40</ele>
        <time>2012-12-26T09:31:30.41Z</time>
      </trkpt>
      <trkpt lat="42.308294" lon="2.444630">
        <ele>507.40</ele>
        <time>2012-12-26T10:55:57.35Z</time>
      </trkpt>
      <trkpt lat="42.308379" lon="2.444398">
        <ele>507.40</ele>
        <time>2012-12-26T16:53:40.31Z</time>
      </trkpt>
      <trkpt lat="42.308418" lon="2.444285">
        <ele>507.80</ele>
        <time>2012-12-26T19:45:57.58Z</time>
      </trkpt>
      <trkpt lat="42.308436" lon="2.444227">
        <ele>508.20</ele>
        <time>2012-12-26T21:12:51.82Z</time>
      </trkpt>
      <trkpt lat="42.308457" lon="2.444171">
        <ele>508.60</ele>
        <time>2012-12-26T22:39:36.77Z</time>
      </trkpt>
      <trkpt lat="42.308476" lon="2.444117">
        <ele>509.00</ele>
        <time>2012-12-27T00:02:14.04Z</time>
      </trkpt>
      <trkpt lat="42.308492" lon="2.444059">
        <ele>509.40</ele>
        <time>2012-12-27T01:27:45.69Z</time>
      </trkpt>
      <trkpt lat="42.308526" lon="2.443945">
        <ele>509.40</ele>
        <time>2012-12-27T04:17:35.52Z</time>
      </trkpt>
      <trkpt lat="42.308564" lon="2.443831">
        <ele>509.80</ele>
        <time>2012-12-27T07:10:21.39Z</time>
      </trkpt>
      <trkpt lat="42.308588" lon="2.443780">
        <ele>510.20</ele>
        <time>2012-12-27T08:33:52.50Z</time>
      </trkpt>
      <trkpt lat="42.308613" lon="2.443729">
        <ele>510.60</ele>
        <time>2012-12-27T09:58:24.68Z</time>
      </trkpt>
      <trkpt lat="42.308641" lon="2.443679">
        <ele>511.00</ele>
        <time>2012-12-27T11:25:03.79Z</time>
      </trkpt>
      <trkpt lat="42.308667" lon="2.443627">
        <ele>511.40</ele>
        <time>2012-12-27T12:51:47.21Z</time>
      </trkpt>
      <trkpt lat="42.308693" lon="2.443570">
        <ele>511.40</ele>
        <time>2012-12-27T14:24:18.85Z</time>
      </trkpt>
      <trkpt lat="42.308813" lon="2.443387">
        <ele>512.00</ele>
        <time>2012-12-27T20:02:13.68Z</time>
      </trkpt>
      <trkpt lat="42.308845" lon="2.443348">
        <ele>512.40</ele>
        <time>2012-12-27T21:22:42.62Z</time>
      </trkpt>
      <trkpt lat="42.308877" lon="2.443311">
        <ele>512.80</ele>
        <time>2012-12-27T22:41:22.17Z</time>
      </trkpt>
      <trkpt lat="42.308904" lon="2.443269">
        <ele>513.20</ele>
        <time>2012-12-27T23:58:15.40Z</time>
      </trkpt>
      <trkpt lat="42.308934" lon="2.443229">
        <ele>513.60</ele>
        <time>2012-12-28T01:16:58.05Z</time>
      </trkpt>
      <trkpt lat="42.308964" lon="2.443191">
        <ele>514.00</ele>
        <time>2012-12-28T02:33:45.81Z</time>
      </trkpt>
      <trkpt lat="42.308995" lon="2.443155">
        <ele>514.40</ele>
        <time>2012-12-28T03:50:06.31Z</time>
      </trkpt>
      <trkpt lat="42.309025" lon="2.443127">
        <ele>514.80</ele>
        <time>2012-12-28T04:58:12.39Z</time>
      </trkpt>
      <trkpt lat="42.309060" lon="2.443104">
        <ele>515.20</ele>
        <time>2012-12-28T06:10:54.43Z</time>
      </trkpt>
      <trkpt lat="42.309097" lon="2.443085">
        <ele>515.60</ele>
        <time>2012-12-28T07:24:50.90Z</time>
      </trkpt>
      <trkpt lat="42.309220" lon="2.442975">
        <ele>516.20</ele>
        <time>2012-12-28T12:00:21.03Z</time>
      </trkpt>
      <trkpt lat="42.309241" lon="2.442936">
        <ele>516.60</ele>
        <time>2012-12-28T13:07:00.17Z</time>
      </trkpt>
      <trkpt lat="42.309255" lon="2.442891">
        <ele>517.00</ele>
        <time>2012-12-28T14:14:27.16Z</time>
      </trkpt>
      <trkpt lat="42.309269" lon="2.442852">
        <ele>517.40</ele>
        <time>2012-12-28T15:14:20.86Z</time>
      </trkpt>
      <trkpt lat="42.309290" lon="2.442811">
        <ele>517.80</ele>
        <time>2012-12-28T16:23:15.18Z</time>
      </trkpt>
      <trkpt lat="42.309334" lon="2.442726">
        <ele>518.20</ele>
        <time>2012-12-28T18:46:36.01Z</time>
      </trkpt>
      <trkpt lat="42.309352" lon="2.442682">
        <ele>518.60</ele>
        <time>2012-12-28T19:56:04.31Z</time>
      </trkpt>
      <trkpt lat="42.309373" lon="2.442638">
        <ele>519.00</ele>
        <time>2012-12-28T21:08:25.38Z</time>
      </trkpt>
      <trkpt lat="42.309388" lon="2.442595">
        <ele>519.40</ele>
        <time>2012-12-28T22:14:06.56Z</time>
      </trkpt>
      <trkpt lat="42.309402" lon="2.442549">
        <ele>519.80</ele>
        <time>2012-12-28T23:22:50.07Z</time>
      </trkpt>
      <trkpt lat="42.309459" lon="2.442295">
        <ele>520.40</ele>
        <time>2012-12-29T05:29:33.69Z</time>
      </trkpt>
      <trkpt lat="42.309468" lon="2.442234">
        <ele>520.80</ele>
        <time>2012-12-29T06:55:29.99Z</time>
      </trkpt>
      <trkpt lat="42.309474" lon="2.442182">
        <ele>521.20</ele>
        <time>2012-12-29T08:08:12.72Z</time>
      </trkpt>
      <trkpt lat="42.309475" lon="2.442134">
        <ele>521.80</ele>
        <time>2012-12-29T09:14:33.29Z</time>
      </trkpt>
      <trkpt lat="42.309475" lon="2.442093">
        <ele>522.20</ele>
        <time>2012-12-29T10:11:12.02Z</time>
      </trkpt>
      <trkpt lat="42.309476" lon="2.442003">
        <ele>522.80</ele>
        <time>2012-12-29T12:15:33.48Z</time>
      </trkpt>
      <trkpt lat="42.309480" lon="2.441959">
        <ele>523.40</ele>
        <time>2012-12-29T13:16:48.35Z</time>
      </trkpt>
      <trkpt lat="42.309487" lon="2.441913">
        <ele>523.80</ele>
        <time>2012-12-29T14:21:41.44Z</time>
      </trkpt>
      <trkpt lat="42.309496" lon="2.441859">
        <ele>524.40</ele>
        <time>2012-12-29T15:38:10.09Z</time>
      </trkpt>
      <trkpt lat="42.309506" lon="2.441793">
        <ele>525.00</ele>
        <time>2012-12-29T17:11:14.85Z</time>
      </trkpt>
      <trkpt lat="42.309550" lon="2.441578">
        <ele>525.40</ele>
        <time>2012-12-29T22:19:27.28Z</time>
      </trkpt>
      <trkpt lat="42.309574" lon="2.441537">
        <ele>526.00</ele>
        <time>2012-12-29T23:31:41.88Z</time>
      </trkpt>
      <trkpt lat="42.309602" lon="2.441503">
        <ele>526.40</ele>
        <time>2012-12-30T00:42:00.26Z</time>
      </trkpt>
      <trkpt lat="42.309631" lon="2.441474">
        <ele>526.80</ele>
        <time>2012-12-30T01:49:23.31Z</time>
      </trkpt>
      <trkpt lat="42.309657" lon="2.441447">
        <ele>527.40</ele>
        <time>2012-12-30T02:50:38.01Z</time>
      </trkpt>
      <trkpt lat="42.309717" lon="2.441395">
        <ele>527.40</ele>
        <time>2012-12-30T05:03:46.46Z</time>
      </trkpt>
      <trkpt lat="42.309782" lon="2.441343">
        <ele>527.80</ele>
        <time>2012-12-30T07:24:52.17Z</time>
      </trkpt>
      <trkpt lat="42.309813" lon="2.441326">
        <ele>528.20</ele>
        <time>2012-12-30T08:27:21.96Z</time>
      </trkpt>
      <trkpt lat="42.309843" lon="2.441308">
        <ele>528.80</ele>
        <time>2012-12-30T09:28:40.95Z</time>
      </trkpt>
      <trkpt lat="42.309869" lon="2.441302">
        <ele>529.20</ele>
        <time>2012-12-30T10:17:57.53Z</time>
      </trkpt>
      <trkpt lat="42.309895" lon="2.441295">
        <ele>529.60</ele>
        <time>2012-12-30T11:07:29.18Z</time>
      </trkpt>
      <trkpt lat="42.309912" lon="2.441298">
        <ele>529.60</ele>
        <time>2012-12-30T11:39:30.94Z</time>
      </trkpt>
      <trkpt lat="42.309959" lon="2.441276">
        <ele>530.00</ele>
        <time>2012-12-30T13:12:26.07Z</time>
      </trkpt>
      <trkpt lat="42.309983" lon="2.441273">
        <ele>530.60</ele>
        <time>2012-12-30T13:57:27.79Z</time>
      </trkpt>
      <trkpt lat="42.310011" lon="2.441252">
        <ele>531.00</ele>
        <time>2012-12-30T14:57:16.86Z</time>
      </trkpt>
      <trkpt lat="42.310031" lon="2.441230">
        <ele>531.40</ele>
        <time>2012-12-30T15:45:26.82Z</time>
      </trkpt>
      <trkpt lat="42.310049" lon="2.441187">
        <ele>531.80</ele>
        <time>2012-12-30T16:53:42.75Z</time>
      </trkpt>
      <trkpt lat="42.310011" lon="2.441068">
        <ele>531.80</ele>
        <time>2012-12-30T19:52:47.63Z</time>
      </trkpt>
      <trkpt lat="42.309884" lon="2.440854">
        <ele>531.80</ele>
        <time>2012-12-31T02:11:53.04Z</time>
      </trkpt>
      <trkpt lat="42.309871" lon="2.440782">
        <ele>531.00</ele>
        <time>2012-12-31T03:54:16.81Z</time>
      </trkpt>
      <trkpt lat="42.309868" lon="2.440705">
        <ele>530.40</ele>
        <time>2012-12-31T05:40:48.59Z</time>
      </trkpt>
      <trkpt lat="42.309872" lon="2.440627">
        <ele>530.00</ele>
        <time>2012-12-31T07:28:49.95Z</time>
      </trkpt>
      <trkpt lat="42.309881" lon="2.440549">
        <ele>529.60</ele>
        <time>2012-12-31T09:17:54.01Z</time>
      </trkpt>
      <trkpt lat="42.309906" lon="2.440395">
        <ele>529.60</ele>
        <time>2012-12-31T12:55:43.83Z</time>
      </trkpt>
      <trkpt lat="42.309927" lon="2.440321">
        <ele>529.60</ele>
        <time>2012-12-31T14:45:14.23Z</time>
      </trkpt>
      <trkpt lat="42.309950" lon="2.440247">
        <ele>529.60</ele>
        <time>2012-12-31T16:36:08.23Z</time>
      </trkpt>
      <trkpt lat="42.310090" lon="2.439950">
        <ele>529.60</ele>
        <time>2013-01-01T00:42:44.31Z</time>
      </trkpt>
      <trkpt lat="42.310131" lon="2.439881">
        <ele>529.60</ele>
        <time>2013-01-01T02:45:01.71Z</time>
      </trkpt>
      <trkpt lat="42.310275" lon="2.439679">
        <ele>529.60</ele>
        <time>2013-01-01T09:12:39.73Z</time>
      </trkpt>
      <trkpt lat="42.310469" lon="2.439346">
        <ele>529.60</ele>
        <time>2013-01-01T18:58:20.50Z</time>
      </trkpt>
      <trkpt lat="42.310651" lon="2.439038">
        <ele>530.00</ele>
        <time>2013-01-02T04:03:01.69Z</time>
      </trkpt>
      <trkpt lat="42.310685" lon="2.439004">
        <ele>530.40</ele>
        <time>2013-01-02T05:22:01.79Z</time>
      </trkpt>
      <trkpt lat="42.310723" lon="2.438974">
        <ele>531.00</ele>
        <time>2013-01-02T06:44:14.16Z</time>
      </trkpt>
      <trkpt lat="42.310763" lon="2.438946">
        <ele>531.40</ele>
        <time>2013-01-02T08:08:23.05Z</time>
      </trkpt>
      <trkpt lat="42.310802" lon="2.438920">
        <ele>531.80</ele>
        <time>2013-01-02T09:29:37.12Z</time>
      </trkpt>
      <trkpt lat="42.310839" lon="2.438893">
        <ele>531.80</ele>
        <time>2013-01-02T10:48:09.96Z</time>
      </trkpt>
      <trkpt lat="42.310872" lon="2.438866">
        <ele>532.20</ele>
        <time>2013-01-02T12:00:13.45Z</time>
      </trkpt>
      <trkpt lat="42.310905" lon="2.438829">
        <ele>532.60</ele>
        <time>2013-01-02T13:20:18.69Z</time>
      </trkpt>
      <trkpt lat="42.310939" lon="2.438778">
        <ele>533.00</ele>
        <time>2013-01-02T14:55:10.59Z</time>
      </trkpt>
      <trkpt lat="42.310974" lon="2.438720">
        <ele>533.60</ele>
        <time>2013-01-02T16:38:36.03Z</time>
      </trkpt>
      <trkpt lat="42.311000" lon="2.438649">
        <ele>534.00</ele>
        <time>2013-01-02T18:28:03.57Z</time>
      </trkpt>
      <trkpt lat="42.311021" lon="2.438582">
        <ele>534.00</ele>
        <time>2013-01-02T20:08:35.71Z</time>
      </trkpt>
      <trkpt lat="42.311074" lon="2.438468">
        <ele>534.00</ele>
        <time>2013-01-02T23:14:37.95Z</time>
      </trkpt>
      <trkpt lat="42.311138" lon="2.438377">
        <ele>534.40</ele>
        <time>2013-01-03T02:08:07.95Z</time>
      </trkpt>
      <trkpt lat="42.311162" lon="2.438332">
        <ele>534.80</ele>
        <time>2013-01-03T03:24:47.07Z</time>
      </trkpt>
      <trkpt lat="42.311184" lon="2.438283">
        <ele>535.20</ele>
        <time>2013-01-03T04:43:58.87Z</time>
      </trkpt>
      <trkpt lat="42.311201" lon="2.438235">
        <ele>535.80</ele>
        <time>2013-01-03T05:57:30.54Z</time>
      </trkpt>
      <trkpt lat="42.311214" lon="2.438187">
        <ele>536.20</ele>
        <time>2013-01-03T07:08:07.88Z</time>
      </trkpt>
      <trkpt lat="42.311222" lon="2.438147">
        <ele>536.60</ele>
        <time>2013-01-03T08:05:22.74Z</time>
      </trkpt>
      <trkpt lat="42.311225" lon="2.438108">
        <ele>537.00</ele>
        <time>2013-01-03T08:59:33.03Z</time>
      </trkpt>
      <trkpt lat="42.311234" lon="2.438076">
        <ele>537.40</ele>
        <time>2013-01-03T09:46:50.98Z</time>
      </trkpt>
      <trkpt lat="42.311243" lon="2.438038">
        <ele>538.00</ele>
        <time>2013-01-03T10:41:58.54Z</time>
      </trkpt>
      <trkpt lat="42.311247" lon="2.438013">
        <ele>538.40</ele>
        <time>2013-01-03T11:17:18.83Z</time>
      </trkpt>
      <trkpt lat="42.311255" lon="2.437950">
        <ele>538.80</ele>
        <time>2013-01-03T12:45:37.55Z</time>
      </trkpt>
      <trkpt lat="42.311270" lon="2.437885">
        <ele>539.20</ele>
        <time>2013-01-03T14:19:41.88Z</time>
      </trkpt>
      <trkpt lat="42.311278" lon="2.437820">
        <ele>539.60</ele>
        <time>2013-01-03T15:50:44.06Z</time>
      </trkpt>
      <trkpt lat="42.311290" lon="2.437769">
        <ele>540.00</ele>
        <time>2013-01-03T17:04:40.46Z</time>
      </trkpt>
      <trkpt lat="42.311305" lon="2.437717">
        <ele>540.40</ele>
        <time>2013-01-03T18:21:47.24Z</time>
      </trkpt>
      <trkpt lat="42.311415" lon="2.437547">
        <ele>540.80</ele>
        <time>2013-01-03T23:33:52.03Z</time>
      </trkpt>
      <trkpt lat="42.311443" lon="2.437507">
        <ele>541.20</ele>
        <time>2013-01-04T00:49:57.67Z</time>
      </trkpt>
      <trkpt lat="42.311472" lon="2.437467">
        <ele>541.60</ele>
        <time>2013-01-04T02:07:21.08Z</time>
      </trkpt>
      <trkpt lat="42.311501" lon="2.437428">
        <ele>542.00</ele>
        <time>2013-01-04T03:23:45.66Z</time>
      </trkpt>
      <trkpt lat="42.311526" lon="2.437385">
        <ele>542.60</ele>
        <time>2013-01-04T04:39:19.77Z</time>
      </trkpt>
      <trkpt lat="42.311601" lon="2.437204">
        <ele>543.00</ele>
        <time>2013-01-04T09:25:58.24Z</time>
      </trkpt>
      <trkpt lat="42.311623" lon="2.437159">
        <ele>543.60</ele>
        <time>2013-01-04T10:40:29.90Z</time>
      </trkpt>
      <trkpt lat="42.311651" lon="2.437124">
        <ele>544.00</ele>
        <time>2013-01-04T11:51:44.04Z</time>
      </trkpt>
      <trkpt lat="42.311676" lon="2.437082">
        <ele>544.60</ele>
        <time>2013-01-04T13:06:13.27Z</time>
      </trkpt>
      <trkpt lat="42.311701" lon="2.437038">
        <ele>545.20</ele>
        <time>2013-01-04T14:22:52.82Z</time>
      </trkpt>
      <trkpt lat="42.311748" lon="2.436943">
        <ele>545.60</ele>
        <time>2013-01-04T17:00:47.47Z</time>
      </trkpt>
      <trkpt lat="42.311778" lon="2.436898">
        <ele>546.00</ele>
        <time>2013-01-04T18:24:29.69Z</time>
      </trkpt>
      <trkpt lat="42.311810" lon="2.436858">
        <ele>546.40</ele>
        <time>2013-01-04T19:45:54.42Z</time>
      </trkpt>
      <trkpt lat="42.311842" lon="2.436818">
        <ele>546.80</ele>
        <time>2013-01-04T21:07:19.14Z</time>
      </trkpt>
      <trkpt lat="42.311872" lon="2.436781">
        <ele>547.20</ele>
        <time>2013-01-04T22:23:10.54Z</time>
      </trkpt>
      <trkpt lat="42.311967" lon="2.436680">
        <ele>547.60</ele>
        <time>2013-01-05T02:08:56.48Z</time>
      </trkpt>
      <trkpt lat="42.311995" lon="2.436641">
        <ele>548.00</ele>
        <time>2013-01-05T03:24:02.26Z</time>
      </trkpt>
      <trkpt lat="42.312025" lon="2.436603">
        <ele>548.40</ele>
        <time>2013-01-05T04:40:49.91Z</time>
      </trkpt>
      <trkpt lat="42.312054" lon="2.436567">
        <ele>549.00</ele>
        <time>2013-01-05T05:54:22.65Z</time>
      </trkpt>
      <trkpt lat="42.312084" lon="2.436531">
        <ele>549.40</ele>
        <time>2013-01-05T07:09:18.60Z</time>
      </trkpt>
      <trkpt lat="42.312140" lon="2.436457">
        <ele>549.80</ele>
        <time>2013-01-05T09:35:35.29Z</time>
      </trkpt>
      <trkpt lat="42.312172" lon="2.436422">
        <ele>550.20</ele>
        <time>2013-01-05T10:52:28.72Z</time>
      </trkpt>
      <trkpt lat="42.312202" lon="2.436388">
        <ele>550.60</ele>
        <time>2013-01-05T12:05:36.38Z</time>
      </trkpt>
      <trkpt lat="42.312232" lon="2.436351">
        <ele>551.00</ele>
        <time>2013-01-05T13:21:27.77Z</time>
      </trkpt>
      <trkpt lat="42.312263" lon="2.436316">
        <ele>551.40</ele>
        <time>2013-01-05T14:36:54.59Z</time>
      </trkpt>
      <trkpt lat="42.312319" lon="2.436236">
        <ele>551.40</ele>
        <time>2013-01-05T17:09:05.80Z</time>
      </trkpt>
      <trkpt lat="42.312344" lon="2.436197">
        <ele>552.00</ele>
        <time>2013-01-05T18:20:24.13Z</time>
      </trkpt>
      <trkpt lat="42.312368" lon="2.436159">
        <ele>552.40</ele>
        <time>2013-01-05T19:29:26.51Z</time>
      </trkpt>
      <trkpt lat="42.312395" lon="2.436120">
        <ele>552.80</ele>
        <time>2013-01-05T20:43:14.92Z</time>
      </trkpt>
      <trkpt lat="42.312422" lon="2.436086">
        <ele>553.20</ele>
        <time>2013-01-05T21:52:10.48Z</time>
      </trkpt>
      <trkpt lat="42.312446" lon="2.436049">
        <ele>553.60</ele>
        <time>2013-01-05T23:00:10.18Z</time>
      </trkpt>
      <trkpt lat="42.312495" lon="2.435980">
        <ele>554.00</ele>
        <time>2013-01-06T01:12:19.99Z</time>
      </trkpt>
      <trkpt lat="42.312524" lon="2.435952">
        <ele>554.40</ele>
        <time>2013-01-06T02:18:54.25Z</time>
      </trkpt>
      <trkpt lat="42.312554" lon="2.435918">
        <ele>554.80</ele>
        <time>2013-01-06T03:32:01.90Z</time>
      </trkpt>
      <trkpt lat="42.312583" lon="2.435890">
        <ele>555.20</ele>
        <time>2013-01-06T04:38:36.16Z</time>
      </trkpt>
      <trkpt lat="42.312612" lon="2.435867">
        <ele>555.60</ele>
        <time>2013-01-06T05:41:24.71Z</time>
      </trkpt>
      <trkpt lat="42.312665" lon="2.435813">
        <ele>556.00</ele>
        <time>2013-01-06T07:45:23.20Z</time>
      </trkpt>
      <trkpt lat="42.312690" lon="2.435781">
        <ele>556.60</ele>
        <time>2013-01-06T08:49:41.84Z</time>
      </trkpt>
      <trkpt lat="42.312714" lon="2.435746">
        <ele>557.00</ele>
        <time>2013-01-06T09:55:38.41Z</time>
      </trkpt>
      <trkpt lat="42.312741" lon="2.435713">
        <ele>557.40</ele>
        <time>2013-01-06T11:03:37.92Z</time>
      </trkpt>
      <trkpt lat="42.312770" lon="2.435684">
        <ele>558.00</ele>
        <time>2013-01-06T12:11:00.91Z</time>
      </trkpt>
      <trkpt lat="42.312868" lon="2.435589">
        <ele>558.40</ele>
        <time>2013-01-06T15:56:17.02Z</time>
      </trkpt>
      <trkpt lat="42.312904" lon="2.435555">
        <ele>558.80</ele>
        <time>2013-01-06T17:18:19.13Z</time>
      </trkpt>
      <trkpt lat="42.312937" lon="2.435518">
        <ele>559.20</ele>
        <time>2013-01-06T18:38:24.30Z</time>
      </trkpt>
      <trkpt lat="42.312970" lon="2.435483">
        <ele>559.60</ele>
        <time>2013-01-06T19:56:45.40Z</time>
      </trkpt>
      <trkpt lat="42.313005" lon="2.435450">
        <ele>560.20</ele>
        <time>2013-01-06T21:16:28.14Z</time>
      </trkpt>
      <trkpt lat="42.313221" lon="2.435348">
        <ele>561.20</ele>
        <time>2013-01-07T04:23:54.21Z</time>
      </trkpt>
      <trkpt lat="42.313256" lon="2.435345">
        <ele>561.60</ele>
        <time>2013-01-07T05:29:25.37Z</time>
      </trkpt>
      <trkpt lat="42.313292" lon="2.435347">
        <ele>562.20</ele>
        <time>2013-01-07T06:36:44.16Z</time>
      </trkpt>
      <trkpt lat="42.313326" lon="2.435348">
        <ele>562.80</ele>
        <time>2013-01-07T07:40:16.26Z</time>
      </trkpt>
      <trkpt lat="42.313395" lon="2.435364">
        <ele>563.60</ele>
        <time>2013-01-07T09:51:03.63Z</time>
      </trkpt>
      <trkpt lat="42.313424" lon="2.435374">
        <ele>564.00</ele>
        <time>2013-01-07T10:46:58.37Z</time>
      </trkpt>
      <trkpt lat="42.313455" lon="2.435402">
        <ele>564.40</ele>
        <time>2013-01-07T11:56:37.10Z</time>
      </trkpt>
      <trkpt lat="42.313483" lon="2.435440">
        <ele>564.80</ele>
        <time>2013-01-07T13:10:43.73Z</time>
      </trkpt>
      <trkpt lat="42.313523" lon="2.435529">
        <ele>564.80</ele>
        <time>2013-01-07T15:34:36.68Z</time>
      </trkpt>
      <trkpt lat="42.313538" lon="2.435574">
        <ele>564.80</ele>
        <time>2013-01-07T16:42:48.20Z</time>
      </trkpt>
      <trkpt lat="42.313583" lon="2.435668">
        <ele>565.20</ele>
        <time>2013-01-07T19:17:30.16Z</time>
      </trkpt>
      <trkpt lat="42.313603" lon="2.435711">
        <ele>565.60</ele>
        <time>2013-01-07T20:27:40.88Z</time>
      </trkpt>
      <trkpt lat="42.313623" lon="2.435756">
        <ele>566.20</ele>
        <time>2013-01-07T21:40:12.82Z</time>
      </trkpt>
      <trkpt lat="42.313640" lon="2.435799">
        <ele>566.60</ele>
        <time>2013-01-07T22:47:34.53Z</time>
      </trkpt>
      <trkpt lat="42.313662" lon="2.435841">
        <ele>567.20</ele>
        <time>2013-01-07T23:58:40.86Z</time>
      </trkpt>
      <trkpt lat="42.313709" lon="2.435920">
        <ele>567.60</ele>
        <time>2013-01-08T02:18:45.43Z</time>
      </trkpt>
      <trkpt lat="42.313731" lon="2.435955">
        <ele>568.00</ele>
        <time>2013-01-08T03:22:13.08Z</time>
      </trkpt>
      <trkpt lat="42.313763" lon="2.435992">
        <ele>568.40</ele>
        <time>2013-01-08T04:40:52.47Z</time>
      </trkpt>
      <trkpt lat="42.313793" lon="2.436026">
        <ele>568.80</ele>
        <time>2013-01-08T05:54:00.09Z</time>
      </trkpt>
      <trkpt lat="42.313827" lon="2.436044">
        <ele>569.40</ele>
        <time>2013-01-08T07:02:12.93Z</time>
      </trkpt>
      <trkpt lat="42.313896" lon="2.435987">
        <ele>569.40</ele>
        <time>2013-01-08T09:33:16.33Z</time>
      </trkpt>
      <trkpt lat="42.313929" lon="2.435802">
        <ele>569.40</ele>
        <time>2013-01-08T13:56:10.81Z</time>
      </trkpt>
      <trkpt lat="42.313896" lon="2.435710">
        <ele>569.80</ele>
        <time>2013-01-08T16:17:26.50Z</time>
      </trkpt>
      <trkpt lat="42.313881" lon="2.435662">
        <ele>570.20</ele>
        <time>2013-01-08T17:29:25.91Z</time>
      </trkpt>
      <trkpt lat="42.313865" lon="2.435620">
        <ele>570.80</ele>
        <time>2013-01-08T18:34:42.12Z</time>
      </trkpt>
      <trkpt lat="42.313853" lon="2.435570">
        <ele>571.20</ele>
        <time>2013-01-08T19:47:19.44Z</time>
      </trkpt>
      <trkpt lat="42.313842" lon="2.435523">
        <ele>571.60</ele>
        <time>2013-01-08T20:55:25.74Z</time>
      </trkpt>
      <trkpt lat="42.313833" lon="2.435428">
        <ele>571.60</ele>
        <time>2013-01-08T23:07:44.65Z</time>
      </trkpt>
      <trkpt lat="42.313837" lon="2.435388">
        <ele>571.60</ele>
        <time>2013-01-09T00:03:30.43Z</time>
      </trkpt>
      <trkpt lat="42.313854" lon="2.435359">
        <ele>572.00</ele>
        <time>2013-01-09T00:54:37.93Z</time>
      </trkpt>
      <trkpt lat="42.313883" lon="2.435341">
        <ele>572.60</ele>
        <time>2013-01-09T01:54:14.71Z</time>
      </trkpt>
      <trkpt lat="42.313914" lon="2.435340">
        <ele>573.00</ele>
        <time>2013-01-09T02:52:10.62Z</time>
      </trkpt>
      <trkpt lat="42.313935" lon="2.435359">
        <ele>573.40</ele>
        <time>2013-01-09T03:39:22.85Z</time>
      </trkpt>
      <trkpt lat="42.313947" lon="2.435389">
        <ele>573.80</ele>
        <time>2013-01-09T04:26:30.04Z</time>
      </trkpt>
      <trkpt lat="42.313953" lon="2.435428">
        <ele>573.80</ele>
        <time>2013-01-09T05:21:31.97Z</time>
      </trkpt>
      <trkpt lat="42.313951" lon="2.435541">
        <ele>573.80</ele>
        <time>2013-01-09T07:57:41.20Z</time>
      </trkpt>
      <trkpt lat="42.313971" lon="2.435652">
        <ele>574.20</ele>
        <time>2013-01-09T10:35:31.16Z</time>
      </trkpt>
      <trkpt lat="42.313988" lon="2.435693">
        <ele>574.80</ele>
        <time>2013-01-09T11:40:27.44Z</time>
      </trkpt>
      <trkpt lat="42.314011" lon="2.435725">
        <ele>575.20</ele>
        <time>2013-01-09T12:42:06.43Z</time>
      </trkpt>
      <trkpt lat="42.314046" lon="2.435743">
        <ele>575.60</ele>
        <time>2013-01-09T13:52:03.85Z</time>
      </trkpt>
      <trkpt lat="42.314090" lon="2.435730">
        <ele>576.00</ele>
        <time>2013-01-09T15:16:12.33Z</time>
      </trkpt>
      <trkpt lat="42.314116" lon="2.435702">
        <ele>576.00</ele>
        <time>2013-01-09T16:18:18Z</time>
      </trkpt>
      <trkpt lat="42.314128" lon="2.435658">
        <ele>576.60</ele>
        <time>2013-01-09T17:23:05.29Z</time>
      </trkpt>
      <trkpt lat="42.314128" lon="2.435606">
        <ele>577.00</ele>
        <time>2013-01-09T18:34:55.55Z</time>
      </trkpt>
      <trkpt lat="42.314123" lon="2.435557">
        <ele>577.40</ele>
        <time>2013-01-09T19:43:15.63Z</time>
      </trkpt>
      <trkpt lat="42.314117" lon="2.435507">
        <ele>577.80</ele>
        <time>2013-01-09T20:53:14.32Z</time>
      </trkpt>
      <trkpt lat="42.314101" lon="2.435454">
        <ele>578.20</ele>
        <time>2013-01-09T22:12:19.47Z</time>
      </trkpt>
      <trkpt lat="42.314041" lon="2.435153">
        <ele>578.60</ele>
        <time>2013-01-10T05:22:59.88Z</time>
      </trkpt>
      <trkpt lat="42.314046" lon="2.435104">
        <ele>579.20</ele>
        <time>2013-01-10T06:31:19.96Z</time>
      </trkpt>
      <trkpt lat="42.314058" lon="2.435057">
        <ele>579.60</ele>
        <time>2013-01-10T07:40:01.46Z</time>
      </trkpt>
      <trkpt lat="42.314078" lon="2.435015">
        <ele>580.00</ele>
        <time>2013-01-10T08:49:02.22Z</time>
      </trkpt>
      <trkpt lat="42.314108" lon="2.434985">
        <ele>580.60</ele>
        <time>2013-01-10T09:58:44.59Z</time>
      </trkpt>
      <trkpt lat="42.314295" lon="2.434818">
        <ele>581.00</ele>
        <time>2013-01-10T16:57:24.38Z</time>
      </trkpt>
      <trkpt lat="42.314328" lon="2.434790">
        <ele>581.40</ele>
        <time>2013-01-10T18:10:11.30Z</time>
      </trkpt>
      <trkpt lat="42.314362" lon="2.434764">
        <ele>581.80</ele>
        <time>2013-01-10T19:23:09.63Z</time>
      </trkpt>
      <trkpt lat="42.314396" lon="2.434734">
        <ele>582.40</ele>
        <time>2013-01-10T20:39:00.32Z</time>
      </trkpt>
      <trkpt lat="42.314429" lon="2.434705">
        <ele>582.80</ele>
        <time>2013-01-10T21:52:31.84Z</time>
      </trkpt>
      <trkpt lat="42.314544" lon="2.434562">
        <ele>583.20</ele>
        <time>2013-01-11T02:44:23.84Z</time>
      </trkpt>
      <trkpt lat="42.314573" lon="2.434530">
        <ele>583.60</ele>
        <time>2013-01-11T03:54:19.40Z</time>
      </trkpt>
      <trkpt lat="42.314597" lon="2.434501">
        <ele>584.00</ele>
        <time>2013-01-11T04:54:27.12Z</time>
      </trkpt>
      <trkpt lat="42.314622" lon="2.434471">
        <ele>584.40</ele>
        <time>2013-01-11T05:56:53.68Z</time>
      </trkpt>
      <trkpt lat="42.314645" lon="2.434439">
        <ele>585.00</ele>
        <time>2013-01-11T06:58:32.65Z</time>
      </trkpt>
      <trkpt lat="42.314667" lon="2.434409">
        <ele>585.40</ele>
        <time>2013-01-11T07:56:54.79Z</time>
      </trkpt>
      <trkpt lat="42.314686" lon="2.434387">
        <ele>585.80</ele>
        <time>2013-01-11T08:43:38.60Z</time>
      </trkpt>
      <trkpt lat="42.314705" lon="2.434366">
        <ele>586.20</ele>
        <time>2013-01-11T09:29:29.22Z</time>
      </trkpt>
      <trkpt lat="42.314726" lon="2.434342">
        <ele>586.60</ele>
        <time>2013-01-11T10:20:51.21Z</time>
      </trkpt>
      <trkpt lat="42.314750" lon="2.434321">
        <ele>587.00</ele>
        <time>2013-01-11T11:14:15.48Z</time>
      </trkpt>
      <trkpt lat="42.314793" lon="2.434273">
        <ele>587.40</ele>
        <time>2013-01-11T12:58:25.49Z</time>
      </trkpt>
      <trkpt lat="42.314814" lon="2.434249">
        <ele>587.80</ele>
        <time>2013-01-11T13:49:47.47Z</time>
      </trkpt>
      <trkpt lat="42.314836" lon="2.434227">
        <ele>588.20</ele>
        <time>2013-01-11T14:40:54.53Z</time>
      </trkpt>
      <trkpt lat="42.314859" lon="2.434210">
        <ele>588.80</ele>
        <time>2013-01-11T15:29:52.64Z</time>
      </trkpt>
      <trkpt lat="42.314880" lon="2.434192">
        <ele>589.20</ele>
        <time>2013-01-11T16:16:19.62Z</time>
      </trkpt>
      <trkpt lat="42.314903" lon="2.434172">
        <ele>589.60</ele>
        <time>2013-01-11T17:07:24.76Z</time>
      </trkpt>
      <trkpt lat="42.314925" lon="2.434151">
        <ele>590.00</ele>
        <time>2013-01-11T17:57:43.27Z</time>
      </trkpt>
      <trkpt lat="42.314943" lon="2.434126">
        <ele>590.40</ele>
        <time>2013-01-11T18:45:55.53Z</time>
      </trkpt>
      <trkpt lat="42.314961" lon="2.434108">
        <ele>591.00</ele>
        <time>2013-01-11T19:27:44.94Z</time>
      </trkpt>
      <trkpt lat="42.314973" lon="2.434082">
        <ele>591.40</ele>
        <time>2013-01-11T20:10:05.37Z</time>
      </trkpt>
      <trkpt lat="42.315010" lon="2.434045">
        <ele>591.40</ele>
        <time>2013-01-11T21:36:03.60Z</time>
      </trkpt>
      <trkpt lat="42.315032" lon="2.434025">
        <ele>591.80</ele>
        <time>2013-01-11T22:25:35.08Z</time>
      </trkpt>
      <trkpt lat="42.315052" lon="2.434004">
        <ele>592.40</ele>
        <time>2013-01-11T23:12:53.37Z</time>
      </trkpt>
      <trkpt lat="42.315071" lon="2.433985">
        <ele>592.80</ele>
        <time>2013-01-11T23:57:02.19Z</time>
      </trkpt>
      <trkpt lat="42.315087" lon="2.433963">
        <ele>593.40</ele>
        <time>2013-01-12T00:39:39.92Z</time>
      </trkpt>
      <trkpt lat="42.315105" lon="2.433936">
        <ele>593.80</ele>
        <time>2013-01-12T01:29:53.17Z</time>
      </trkpt>
      <trkpt lat="42.315124" lon="2.433908">
        <ele>594.40</ele>
        <time>2013-01-12T02:22:23.16Z</time>
      </trkpt>
      <trkpt lat="42.315145" lon="2.433885">
        <ele>595.00</ele>
        <time>2013-01-12T03:12:52.29Z</time>
      </trkpt>
      <trkpt lat="42.315167" lon="2.433860">
        <ele>595.40</ele>
        <time>2013-01-12T04:06:33.40Z</time>
      </trkpt>
      <trkpt lat="42.315198" lon="2.433828">
        <ele>596.00</ele>
        <time>2013-01-12T05:19:24.94Z</time>
      </trkpt>
      <trkpt lat="42.315263" lon="2.433775">
        <ele>596.40</ele>
        <time>2013-01-12T07:41:12.97Z</time>
      </trkpt>
      <trkpt lat="42.315289" lon="2.433755">
        <ele>597.00</ele>
        <time>2013-01-12T08:37:05.90Z</time>
      </trkpt>
      <trkpt lat="42.315308" lon="2.433733">
        <ele>597.40</ele>
        <time>2013-01-12T09:23:49.70Z</time>
      </trkpt>
      <trkpt lat="42.315335" lon="2.433710">
        <ele>598.00</ele>
        <time>2013-01-12T10:23:26.62Z</time>
      </trkpt>
      <trkpt lat="42.315360" lon="2.433684">
        <ele>598.40</ele>
        <time>2013-01-12T11:22:21.81Z</time>
      </trkpt>
      <trkpt lat="42.315384" lon="2.433660">
        <ele>598.40</ele>
        <time>2013-01-12T12:18:07.68Z</time>
      </trkpt>
      <trkpt lat="42.315419" lon="2.433601">
        <ele>599.00</ele>
        <time>2013-01-12T14:02:37.30Z</time>
      </trkpt>
      <trkpt lat="42.315441" lon="2.433576">
        <ele>599.40</ele>
        <time>2013-01-12T14:56:18.40Z</time>
      </trkpt>
      <trkpt lat="42.315455" lon="2.433549">
        <ele>599.80</ele>
        <time>2013-01-12T15:41:51.76Z</time>
      </trkpt>
      <trkpt lat="42.315477" lon="2.433520">
        <ele>600.40</ele>
        <time>2013-01-12T16:39:15.52Z</time>
      </trkpt>
      <trkpt lat="42.315492" lon="2.433485">
        <ele>600.80</ele>
        <time>2013-01-12T17:35:08.64Z</time>
      </trkpt>
      <trkpt lat="42.315504" lon="2.433448">
        <ele>601.20</ele>
        <time>2013-01-12T18:30:57.51Z</time>
      </trkpt>
      <trkpt lat="42.315515" lon="2.433413">
        <ele>601.60</ele>
        <time>2013-01-12T19:23:29.74Z</time>
      </trkpt>
      <trkpt lat="42.315526" lon="2.433381">
        <ele>602.40</ele>
        <time>2013-01-12T20:12:14.75Z</time>
      </trkpt>
      <trkpt lat="42.315560" lon="2.433329">
        <ele>602.80</ele>
        <time>2013-01-12T21:48:08.24Z</time>
      </trkpt>
      <trkpt lat="42.315581" lon="2.433302">
        <ele>603.40</ele>
        <time>2013-01-12T22:42:16.27Z</time>
      </trkpt>
      <trkpt lat="42.315605" lon="2.433278">
        <ele>603.80</ele>
        <time>2013-01-12T23:38:02.14Z</time>
      </trkpt>
      <trkpt lat="42.315625" lon="2.433246">
        <ele>604.20</ele>
        <time>2013-01-13T00:35:55.07Z</time>
      </trkpt>
      <trkpt lat="42.315643" lon="2.433212">
        <ele>604.80</ele>
        <time>2013-01-13T01:33:41.08Z</time>
      </trkpt>
      <trkpt lat="42.315662" lon="2.433183">
        <ele>605.20</ele>
        <time>2013-01-13T02:27:12.62Z</time>
      </trkpt>
      <trkpt lat="42.315698" lon="2.433133">
        <ele>605.60</ele>
        <time>2013-01-13T04:03:37.10Z</time>
      </trkpt>
      <trkpt lat="42.315720" lon="2.433099">
        <ele>606.20</ele>
        <time>2013-01-13T05:06:01.91Z</time>
      </trkpt>
      <trkpt lat="42.315740" lon="2.433068">
        <ele>606.80</ele>
        <time>2013-01-13T06:02:51.95Z</time>
      </trkpt>
      <trkpt lat="42.315757" lon="2.433041">
        <ele>607.20</ele>
        <time>2013-01-13T06:51:51.30Z</time>
      </trkpt>
      <trkpt lat="42.315767" lon="2.433006">
        <ele>607.80</ele>
        <time>2013-01-13T07:43:41.39Z</time>
      </trkpt>
      <trkpt lat="42.315781" lon="2.432969">
        <ele>608.20</ele>
        <time>2013-01-13T08:41:06.42Z</time>
      </trkpt>
      <trkpt lat="42.315800" lon="2.432928">
        <ele>608.60</ele>
        <time>2013-01-13T09:47:57.03Z</time>
      </trkpt>
      <trkpt lat="42.315814" lon="2.432888">
        <ele>609.00</ele>
        <time>2013-01-13T10:49:05.18Z</time>
      </trkpt>
      <trkpt lat="42.315829" lon="2.432849">
        <ele>609.60</ele>
        <time>2013-01-13T11:49:48.92Z</time>
      </trkpt>
      <trkpt lat="42.315845" lon="2.432809">
        <ele>610.00</ele>
        <time>2013-01-13T12:52:38.43Z</time>
      </trkpt>
      <trkpt lat="42.315872" lon="2.432732">
        <ele>610.40</ele>
        <time>2013-01-13T14:50:22Z</time>
      </trkpt>
      <trkpt lat="42.315885" lon="2.432695">
        <ele>610.80</ele>
        <time>2013-01-13T15:46:57.43Z</time>
      </trkpt>
      <trkpt lat="42.315901" lon="2.432654">
        <ele>611.20</ele>
        <time>2013-01-13T16:51:00.03Z</time>
      </trkpt>
      <trkpt lat="42.315929" lon="2.432577">
        <ele>611.60</ele>
        <time>2013-01-13T18:49:32.35Z</time>
      </trkpt>
      <trkpt lat="42.315941" lon="2.432540">
        <ele>612.00</ele>
        <time>2013-01-13T19:45:21.20Z</time>
      </trkpt>
      <trkpt lat="42.315953" lon="2.432502">
        <ele>612.00</ele>
        <time>2013-01-13T20:42:26.12Z</time>
      </trkpt>
      <trkpt lat="42.315967" lon="2.432464">
        <ele>612.60</ele>
        <time>2013-01-13T21:41:05.13Z</time>
      </trkpt>
      <trkpt lat="42.315986" lon="2.432430">
        <ele>613.00</ele>
        <time>2013-01-13T22:39:57.56Z</time>
      </trkpt>
      <trkpt lat="42.316004" lon="2.432396">
        <ele>613.40</ele>
        <time>2013-01-13T23:37:43.55Z</time>
      </trkpt>
      <trkpt lat="42.316019" lon="2.432362">
        <ele>613.80</ele>
        <time>2013-01-14T00:32:25.19Z</time>
      </trkpt>
      <trkpt lat="42.316031" lon="2.432328">
        <ele>614.40</ele>
        <time>2013-01-14T01:24:27.92Z</time>
      </trkpt>
      <trkpt lat="42.316054" lon="2.432263">
        <ele>614.40</ele>
        <time>2013-01-14T03:04:00.67Z</time>
      </trkpt>
      <trkpt lat="42.316061" lon="2.432233">
        <ele>614.80</ele>
        <time>2013-01-14T03:47:28.15Z</time>
      </trkpt>
      <trkpt lat="42.316072" lon="2.432201">
        <ele>615.40</ele>
        <time>2013-01-14T04:36:13.13Z</time>
      </trkpt>
      <trkpt lat="42.316078" lon="2.432164">
        <ele>615.80</ele>
        <time>2013-01-14T05:28:32.83Z</time>
      </trkpt>
      <trkpt lat="42.316093" lon="2.432134">
        <ele>616.40</ele>
        <time>2013-01-14T06:18:34.56Z</time>
      </trkpt>
      <trkpt lat="42.316112" lon="2.432109">
        <ele>616.80</ele>
        <time>2013-01-14T07:08:06.08Z</time>
      </trkpt>
      <trkpt lat="42.316155" lon="2.432059">
        <ele>617.20</ele>
        <time>2013-01-14T08:54:02.84Z</time>
      </trkpt>
      <trkpt lat="42.316173" lon="2.432031">
        <ele>617.60</ele>
        <time>2013-01-14T09:45:18.12Z</time>
      </trkpt>
      <trkpt lat="42.316188" lon="2.432000">
        <ele>618.00</ele>
        <time>2013-01-14T10:36:28.86Z</time>
      </trkpt>
      <trkpt lat="42.316203" lon="2.431965">
        <ele>618.60</ele>
        <time>2013-01-14T11:32:21.94Z</time>
      </trkpt>
      <trkpt lat="42.316220" lon="2.431933">
        <ele>619.00</ele>
        <time>2013-01-14T12:26:47.89Z</time>
      </trkpt>
      <trkpt lat="42.316269" lon="2.431875">
        <ele>619.40</ele>
        <time>2013-01-14T14:28:27.22Z</time>
      </trkpt>
      <trkpt lat="42.316295" lon="2.431848">
        <ele>619.80</ele>
        <time>2013-01-14T15:29:41.78Z</time>
      </trkpt>
      <trkpt lat="42.316320" lon="2.431817">
        <ele>620.20</ele>
        <time>2013-01-14T16:33:03.81Z</time>
      </trkpt>
      <trkpt lat="42.316338" lon="2.431789">
        <ele>620.60</ele>
        <time>2013-01-14T17:24:19.08Z</time>
      </trkpt>
      <trkpt lat="42.316357" lon="2.431759">
        <ele>621.20</ele>
        <time>2013-01-14T18:18:53.10Z</time>
      </trkpt>
      <trkpt lat="42.316419" lon="2.431683">
        <ele>621.60</ele>
        <time>2013-01-14T20:55:12.99Z</time>
      </trkpt>
      <trkpt lat="42.316438" lon="2.431660">
        <ele>622.00</ele>
        <time>2013-01-14T21:42:51.37Z</time>
      </trkpt>
      <trkpt lat="42.316456" lon="2.431635">
        <ele>622.40</ele>
        <time>2013-01-14T22:31:03.59Z</time>
      </trkpt>
      <trkpt lat="42.316471" lon="2.431607">
        <ele>622.80</ele>
        <time>2013-01-14T23:18:49.48Z</time>
      </trkpt>
      <trkpt lat="42.316486" lon="2.431576">
        <ele>623.40</ele>
        <time>2013-01-15T00:10:00.21Z</time>
      </trkpt>
      <trkpt lat="42.316512" lon="2.431507">
        <ele>623.80</ele>
        <time>2013-01-15T01:56:59.16Z</time>
      </trkpt>
      <trkpt lat="42.316526" lon="2.431473">
        <ele>624.40</ele>
        <time>2013-01-15T02:50:44.78Z</time>
      </trkpt>
      <trkpt lat="42.316537" lon="2.431436">
        <ele>624.80</ele>
        <time>2013-01-15T03:45:50.18Z</time>
      </trkpt>
      <trkpt lat="42.316550" lon="2.431405">
        <ele>625.20</ele>
        <time>2013-01-15T04:35:04.11Z</time>
      </trkpt>
      <trkpt lat="42.316562" lon="2.431376">
        <ele>625.80</ele>
        <time>2013-01-15T05:20:58.59Z</time>
      </trkpt>
      <trkpt lat="42.316573" lon="2.431347">
        <ele>626.20</ele>
        <time>2013-01-15T06:06:00.11Z</time>
      </trkpt>
      <trkpt lat="42.316587" lon="2.431317">
        <ele>626.60</ele>
        <time>2013-01-15T06:55:00.49Z</time>
      </trkpt>
      <trkpt lat="42.316608" lon="2.431291">
        <ele>627.00</ele>
        <time>2013-01-15T07:48:11.95Z</time>
      </trkpt>
      <trkpt lat="42.316633" lon="2.431274">
        <ele>627.40</ele>
        <time>2013-01-15T08:40:28.61Z</time>
      </trkpt>
      <trkpt lat="42.316661" lon="2.431267">
        <ele>627.80</ele>
        <time>2013-01-15T09:33:40.42Z</time>
      </trkpt>
      <trkpt lat="42.316685" lon="2.431269">
        <ele>627.80</ele>
        <time>2013-01-15T10:18:35.78Z</time>
      </trkpt>
      <trkpt lat="42.316707" lon="2.431277">
        <ele>628.20</ele>
        <time>2013-01-15T11:01:09.44Z</time>
      </trkpt>
      <trkpt lat="42.316721" lon="2.431304">
        <ele>628.80</ele>
        <time>2013-01-15T11:46:42.77Z</time>
      </trkpt>
      <trkpt lat="42.316726" lon="2.431340">
        <ele>629.20</ele>
        <time>2013-01-15T12:37:18.85Z</time>
      </trkpt>
      <trkpt lat="42.316725" lon="2.431380">
        <ele>629.60</ele>
        <time>2013-01-15T13:32:36.19Z</time>
      </trkpt>
      <trkpt lat="42.316720" lon="2.431423">
        <ele>630.20</ele>
        <time>2013-01-15T14:32:44.10Z</time>
      </trkpt>
      <trkpt lat="42.316690" lon="2.431543">
        <ele>630.20</ele>
        <time>2013-01-15T17:27:43.55Z</time>
      </trkpt>
      <trkpt lat="42.316677" lon="2.431632">
        <ele>630.60</ele>
        <time>2013-01-15T19:33:02.97Z</time>
      </trkpt>
      <trkpt lat="42.316674" lon="2.431674">
        <ele>631.00</ele>
        <time>2013-01-15T20:31:20.40Z</time>
      </trkpt>
      <trkpt lat="42.316668" lon="2.431718">
        <ele>631.40</ele>
        <time>2013-01-15T21:33:08.89Z</time>
      </trkpt>
      <trkpt lat="42.316659" lon="2.431756">
        <ele>631.80</ele>
        <time>2013-01-15T22:28:16.19Z</time>
      </trkpt>
      <trkpt lat="42.316649" lon="2.431793">
        <ele>632.20</ele>
        <time>2013-01-15T23:22:41.42Z</time>
      </trkpt>
      <trkpt lat="42.316639" lon="2.431835">
        <ele>632.20</ele>
        <time>2013-01-16T00:23:38.67Z</time>
      </trkpt>
      <trkpt lat="42.316630" lon="2.431960">
        <ele>632.60</ele>
        <time>2013-01-16T03:17:08.46Z</time>
      </trkpt>
      <trkpt lat="42.316632" lon="2.432002">
        <ele>633.20</ele>
        <time>2013-01-16T04:15:16.89Z</time>
      </trkpt>
      <trkpt lat="42.316632" lon="2.432039">
        <ele>633.60</ele>
        <time>2013-01-16T05:06:23.69Z</time>
      </trkpt>
      <trkpt lat="42.316632" lon="2.432081">
        <ele>634.00</ele>
        <time>2013-01-16T06:04:24.91Z</time>
      </trkpt>
      <trkpt lat="42.316630" lon="2.432122">
        <ele>634.40</ele>
        <time>2013-01-16T07:01:10.64Z</time>
      </trkpt>
      <trkpt lat="42.316630" lon="2.432163">
        <ele>635.00</ele>
        <time>2013-01-16T07:57:48.98Z</time>
      </trkpt>
      <trkpt lat="42.316631" lon="2.432204">
        <ele>635.40</ele>
        <time>2013-01-16T08:54:29.16Z</time>
      </trkpt>
      <trkpt lat="42.316633" lon="2.432244">
        <ele>635.80</ele>
        <time>2013-01-16T09:49:52.19Z</time>
      </trkpt>
      <trkpt lat="42.316632" lon="2.432278">
        <ele>636.20</ele>
        <time>2013-01-16T10:36:52.55Z</time>
      </trkpt>
      <trkpt lat="42.316635" lon="2.432316">
        <ele>636.60</ele>
        <time>2013-01-16T11:29:40.13Z</time>
      </trkpt>
      <trkpt lat="42.316639" lon="2.432392">
        <ele>636.60</ele>
        <time>2013-01-16T13:14:55.43Z</time>
      </trkpt>
      <trkpt lat="42.316638" lon="2.432512">
        <ele>637.00</ele>
        <time>2013-01-16T16:00:42.41Z</time>
      </trkpt>
      <trkpt lat="42.316639" lon="2.432550">
        <ele>637.40</ele>
        <time>2013-01-16T16:53:14.09Z</time>
      </trkpt>
      <trkpt lat="42.316643" lon="2.432590">
        <ele>638.00</ele>
        <time>2013-01-16T17:48:59.72Z</time>
      </trkpt>
      <trkpt lat="42.316648" lon="2.432630">
        <ele>638.40</ele>
        <time>2013-01-16T18:45:02.21Z</time>
      </trkpt>
      <trkpt lat="42.316651" lon="2.432672">
        <ele>638.80</ele>
        <time>2013-01-16T19:43:19.64Z</time>
      </trkpt>
      <trkpt lat="42.316653" lon="2.432759">
        <ele>638.80</ele>
        <time>2013-01-16T21:43:34.23Z</time>
      </trkpt>
      <trkpt lat="42.316660" lon="2.432805">
        <ele>639.20</ele>
        <time>2013-01-16T22:48:26.90Z</time>
      </trkpt>
      <trkpt lat="42.316658" lon="2.432845">
        <ele>639.80</ele>
        <time>2013-01-16T23:43:49.93Z</time>
      </trkpt>
      <trkpt lat="42.316657" lon="2.432887">
        <ele>640.20</ele>
        <time>2013-01-17T00:41:52.95Z</time>
      </trkpt>
      <trkpt lat="42.316656" lon="2.432928">
        <ele>640.60</ele>
        <time>2013-01-17T01:38:33.14Z</time>
      </trkpt>
      <trkpt lat="42.316660" lon="2.432967">
        <ele>641.00</ele>
        <time>2013-01-17T02:32:56.65Z</time>
      </trkpt>
      <trkpt lat="42.316663" lon="2.433077">
        <ele>641.40</ele>
        <time>2013-01-17T05:05:00.34Z</time>
      </trkpt>
      <trkpt lat="42.316664" lon="2.433119">
        <ele>641.80</ele>
        <time>2013-01-17T06:03:03.37Z</time>
      </trkpt>
      <trkpt lat="42.316664" lon="2.433161">
        <ele>642.20</ele>
        <time>2013-01-17T07:01:04.59Z</time>
      </trkpt>
      <trkpt lat="42.316663" lon="2.433207">
        <ele>642.60</ele>
        <time>2013-01-17T08:04:39.01Z</time>
      </trkpt>
      <trkpt lat="42.316663" lon="2.433250">
        <ele>643.00</ele>
        <time>2013-01-17T09:04:03.12Z</time>
      </trkpt>
      <trkpt lat="42.316642" lon="2.433364">
        <ele>643.60</ele>
        <time>2013-01-17T11:46:20.96Z</time>
      </trkpt>
      <trkpt lat="42.316634" lon="2.433401">
        <ele>644.00</ele>
        <time>2013-01-17T12:39:36.17Z</time>
      </trkpt>
      <trkpt lat="42.316626" lon="2.433440">
        <ele>644.40</ele>
        <time>2013-01-17T13:35:30.81Z</time>
      </trkpt>
      <trkpt lat="42.316620" lon="2.433476">
        <ele>644.80</ele>
        <time>2013-01-17T14:26:29.58Z</time>
      </trkpt>
      <trkpt lat="42.316613" lon="2.433511">
        <ele>645.40</ele>
        <time>2013-01-17T15:16:34.84Z</time>
      </trkpt>
      <trkpt lat="42.316598" lon="2.433584">
        <ele>645.80</ele>
        <time>2013-01-17T17:01:14.82Z</time>
      </trkpt>
      <trkpt lat="42.316590" lon="2.433619">
        <ele>646.20</ele>
        <time>2013-01-17T17:51:51.29Z</time>
      </trkpt>
      <trkpt lat="42.316587" lon="2.433655">
        <ele>646.60</ele>
        <time>2013-01-17T18:41:54.08Z</time>
      </trkpt>
      <trkpt lat="42.316584" lon="2.433692">
        <ele>647.00</ele>
        <time>2013-01-17T19:33:19.26Z</time>
      </trkpt>
      <trkpt lat="42.316580" lon="2.433733">
        <ele>647.40</ele>
        <time>2013-01-17T20:30:27.05Z</time>
      </trkpt>
      <trkpt lat="42.316577" lon="2.433771">
        <ele>647.80</ele>
        <time>2013-01-17T21:23:14.64Z</time>
      </trkpt>
      <trkpt lat="42.316579" lon="2.433810">
        <ele>648.20</ele>
        <time>2013-01-17T22:17:14.97Z</time>
      </trkpt>
      <trkpt lat="42.316578" lon="2.433849">
        <ele>648.60</ele>
        <time>2013-01-17T23:11:09.48Z</time>
      </trkpt>
      <trkpt lat="42.316572" lon="2.433889">
        <ele>649.00</ele>
        <time>2013-01-18T00:07:32.47Z</time>
      </trkpt>
      <trkpt lat="42.316567" lon="2.433928">
        <ele>649.60</ele>
        <time>2013-01-18T01:02:13.27Z</time>
      </trkpt>
      <trkpt lat="42.316534" lon="2.434043">
        <ele>650.00</ele>
        <time>2013-01-18T03:52:37.81Z</time>
      </trkpt>
      <trkpt lat="42.316525" lon="2.434084">
        <ele>650.40</ele>
        <time>2013-01-18T04:51:42.73Z</time>
      </trkpt>
      <trkpt lat="42.316518" lon="2.434128">
        <ele>650.80</ele>
        <time>2013-01-18T05:53:53.19Z</time>
      </trkpt>
      <trkpt lat="42.316511" lon="2.434175">
        <ele>651.20</ele>
        <time>2013-01-18T07:00:07.09Z</time>
      </trkpt>
      <trkpt lat="42.316504" lon="2.434218">
        <ele>651.80</ele>
        <time>2013-01-18T08:00:56.56Z</time>
      </trkpt>
      <trkpt lat="42.316491" lon="2.434298">
        <ele>652.20</ele>
        <time>2013-01-18T09:54:05.71Z</time>
      </trkpt>
      <trkpt lat="42.316478" lon="2.434336">
        <ele>652.60</ele>
        <time>2013-01-18T10:51:56.16Z</time>
      </trkpt>
      <trkpt lat="42.316461" lon="2.434375">
        <ele>653.00</ele>
        <time>2013-01-18T11:54:28.61Z</time>
      </trkpt>
      <trkpt lat="42.316451" lon="2.434418">
        <ele>653.40</ele>
        <time>2013-01-18T12:56:44.85Z</time>
      </trkpt>
      <trkpt lat="42.316446" lon="2.434459">
        <ele>653.80</ele>
        <time>2013-01-18T13:54:09.10Z</time>
      </trkpt>
      <trkpt lat="42.316445" lon="2.434501">
        <ele>654.20</ele>
        <time>2013-01-18T14:52:12.14Z</time>
      </trkpt>
      <trkpt lat="42.316460" lon="2.434540">
        <ele>654.60</ele>
        <time>2013-01-18T15:52:55.86Z</time>
      </trkpt>
      <trkpt lat="42.316484" lon="2.434571">
        <ele>655.00</ele>
        <time>2013-01-18T16:54:56.04Z</time>
      </trkpt>
      <trkpt lat="42.316514" lon="2.434582">
        <ele>655.40</ele>
        <time>2013-01-18T17:53:00.27Z</time>
      </trkpt>
      <trkpt lat="42.316543" lon="2.434570">
        <ele>655.80</ele>
        <time>2013-01-18T18:49:39.76Z</time>
      </trkpt>
      <trkpt lat="42.316616" lon="2.434452">
        <ele>656.20</ele>
        <time>2013-01-18T22:22:11.98Z</time>
      </trkpt>
      <trkpt lat="42.316626" lon="2.434415">
        <ele>656.80</ele>
        <time>2013-01-18T23:16:37.21Z</time>
      </trkpt>
      <trkpt lat="42.316639" lon="2.434382">
        <ele>657.20</ele>
        <time>2013-01-19T00:08:16.42Z</time>
      </trkpt>
      <trkpt lat="42.316650" lon="2.434351">
        <ele>657.60</ele>
        <time>2013-01-19T00:55:46.43Z</time>
      </trkpt>
      <trkpt lat="42.316663" lon="2.434320">
        <ele>658.00</ele>
        <time>2013-01-19T01:45:00.36Z</time>
      </trkpt>
      <trkpt lat="42.316678" lon="2.434260">
        <ele>658.40</ele>
        <time>2013-01-19T03:12:30.08Z</time>
      </trkpt>
      <trkpt lat="42.316691" lon="2.434224">
        <ele>658.80</ele>
        <time>2013-01-19T04:07:50.80Z</time>
      </trkpt>
      <trkpt lat="42.316708" lon="2.434189">
        <ele>659.20</ele>
        <time>2013-01-19T05:05:41.71Z</time>
      </trkpt>
      <trkpt lat="42.316728" lon="2.434158">
        <ele>659.60</ele>
        <time>2013-01-19T06:02:31.73Z</time>
      </trkpt>
      <trkpt lat="42.316745" lon="2.434131">
        <ele>660.00</ele>
        <time>2013-01-19T06:51:31.05Z</time>
      </trkpt>
      <trkpt lat="42.316818" lon="2.433980">
        <ele>660.40</ele>
        <time>2013-01-19T11:00:44.47Z</time>
      </trkpt>
      <trkpt lat="42.316839" lon="2.433954">
        <ele>661.00</ele>
        <time>2013-01-19T11:53:55.92Z</time>
      </trkpt>
      <trkpt lat="42.316857" lon="2.433922">
        <ele>661.40</ele>
        <time>2013-01-19T12:49:28.50Z</time>
      </trkpt>
      <trkpt lat="42.316876" lon="2.433894">
        <ele>661.80</ele>
        <time>2013-01-19T13:41:58.44Z</time>
      </trkpt>
      <trkpt lat="42.316894" lon="2.433862">
        <ele>662.20</ele>
        <time>2013-01-19T14:37:31.01Z</time>
      </trkpt>
      <trkpt lat="42.316954" lon="2.433725">
        <ele>662.60</ele>
        <time>2013-01-19T18:17:28.69Z</time>
      </trkpt>
      <trkpt lat="42.316968" lon="2.433686">
        <ele>663.20</ele>
        <time>2013-01-19T19:17:22.04Z</time>
      </trkpt>
      <trkpt lat="42.316986" lon="2.433651">
        <ele>663.60</ele>
        <time>2013-01-19T20:16:15.72Z</time>
      </trkpt>
      <trkpt lat="42.317003" lon="2.433614">
        <ele>664.00</ele>
        <time>2013-01-19T21:16:26.32Z</time>
      </trkpt>
      <trkpt lat="42.317018" lon="2.433575">
        <ele>664.60</ele>
        <time>2013-01-19T22:17:10.01Z</time>
      </trkpt>
      <trkpt lat="42.317086" lon="2.433437">
        <ele>665.00</ele>
        <time>2013-01-20T02:06:15.34Z</time>
      </trkpt>
      <trkpt lat="42.317099" lon="2.433401">
        <ele>665.40</ele>
        <time>2013-01-20T03:01:36.04Z</time>
      </trkpt>
      <trkpt lat="42.317108" lon="2.433357">
        <ele>665.80</ele>
        <time>2013-01-20T04:04:39.98Z</time>
      </trkpt>
      <trkpt lat="42.317120" lon="2.433318">
        <ele>666.40</ele>
        <time>2013-01-20T05:03:01.22Z</time>
      </trkpt>
      <trkpt lat="42.317134" lon="2.433278">
        <ele>666.80</ele>
        <time>2013-01-20T06:04:09.30Z</time>
      </trkpt>
      <trkpt lat="42.317173" lon="2.433164">
        <ele>667.20</ele>
        <time>2013-01-20T08:57:40.56Z</time>
      </trkpt>
      <trkpt lat="42.317184" lon="2.433121">
        <ele>667.60</ele>
        <time>2013-01-20T10:00:31.90Z</time>
      </trkpt>
      <trkpt lat="42.317193" lon="2.433079">
        <ele>668.20</ele>
        <time>2013-01-20T11:00:56.33Z</time>
      </trkpt>
      <trkpt lat="42.317204" lon="2.433035">
        <ele>668.60</ele>
        <time>2013-01-20T12:05:06.10Z</time>
      </trkpt>
      <trkpt lat="42.317215" lon="2.432996">
        <ele>669.00</ele>
        <time>2013-01-20T13:02:45.82Z</time>
      </trkpt>
      <trkpt lat="42.317240" lon="2.432878">
        <ele>669.60</ele>
        <time>2013-01-20T15:52:19.87Z</time>
      </trkpt>
      <trkpt lat="42.317254" lon="2.432838">
        <ele>670.00</ele>
        <time>2013-01-20T16:53:27.94Z</time>
      </trkpt>
      <trkpt lat="42.317267" lon="2.432800">
        <ele>670.60</ele>
        <time>2013-01-20T17:51:18.35Z</time>
      </trkpt>
      <trkpt lat="42.317283" lon="2.432769">
        <ele>671.00</ele>
        <time>2013-01-20T18:43:31.84Z</time>
      </trkpt>
      <trkpt lat="42.317301" lon="2.432738">
        <ele>671.40</ele>
        <time>2013-01-20T19:37:58.82Z</time>
      </trkpt>
      <trkpt lat="42.317380" lon="2.432596">
        <ele>671.80</ele>
        <time>2013-01-20T23:43:27.87Z</time>
      </trkpt>
      <trkpt lat="42.317400" lon="2.432563">
        <ele>672.20</ele>
        <time>2013-01-21T00:42:24.45Z</time>
      </trkpt>
      <trkpt lat="42.317419" lon="2.432528">
        <ele>672.80</ele>
        <time>2013-01-21T01:42:23.30Z</time>
      </trkpt>
      <trkpt lat="42.317433" lon="2.432491">
        <ele>673.20</ele>
        <time>2013-01-21T02:39:48.26Z</time>
      </trkpt>
      <trkpt lat="42.317451" lon="2.432455">
        <ele>673.60</ele>
        <time>2013-01-21T03:39:50.28Z</time>
      </trkpt>
      <trkpt lat="42.317471" lon="2.432424">
        <ele>674.00</ele>
        <time>2013-01-21T04:36:40.27Z</time>
      </trkpt>
      <trkpt lat="42.317490" lon="2.432390">
        <ele>674.40</ele>
        <time>2013-01-21T05:35:32.65Z</time>
      </trkpt>
      <trkpt lat="42.317505" lon="2.432354">
        <ele>674.80</ele>
        <time>2013-01-21T06:32:37.64Z</time>
      </trkpt>
      <trkpt lat="42.317521" lon="2.432318">
        <ele>675.20</ele>
        <time>2013-01-21T07:30:39.04Z</time>
      </trkpt>
      <trkpt lat="42.317542" lon="2.432288">
        <ele>675.60</ele>
        <time>2013-01-21T08:27:43.09Z</time>
      </trkpt>
      <trkpt lat="42.317566" lon="2.432259">
        <ele>676.00</ele>
        <time>2013-01-21T09:27:50.74Z</time>
      </trkpt>
      <trkpt lat="42.317591" lon="2.432231">
        <ele>676.40</ele>
        <time>2013-01-21T10:28:29.31Z</time>
      </trkpt>
      <trkpt lat="42.317613" lon="2.432203">
        <ele>676.80</ele>
        <time>2013-01-21T11:24:55.68Z</time>
      </trkpt>
      <trkpt lat="42.317638" lon="2.432177">
        <ele>677.20</ele>
        <time>2013-01-21T12:23:50.82Z</time>
      </trkpt>
      <trkpt lat="42.317662" lon="2.432163">
        <ele>677.60</ele>
        <time>2013-01-21T13:12:40.66Z</time>
      </trkpt>
      <trkpt lat="42.317686" lon="2.432136">
        <ele>678.00</ele>
        <time>2013-01-21T14:11:00.04Z</time>
      </trkpt>
      <trkpt lat="42.317706" lon="2.432105">
        <ele>678.40</ele>
        <time>2013-01-21T15:07:50.03Z</time>
      </trkpt>
      <trkpt lat="42.317723" lon="2.432074">
        <ele>678.80</ele>
        <time>2013-01-21T16:01:08.98Z</time>
      </trkpt>
      <trkpt lat="42.317742" lon="2.432043">
        <ele>679.20</ele>
        <time>2013-01-21T16:56:46.34Z</time>
      </trkpt>
      <trkpt lat="42.317761" lon="2.432012">
        <ele>679.80</ele>
        <time>2013-01-21T17:52:23.70Z</time>
      </trkpt>
      <trkpt lat="42.317790" lon="2.431942">
        <ele>680.20</ele>
        <time>2013-01-21T19:43:14.24Z</time>
      </trkpt>
      <trkpt lat="42.317796" lon="2.431913">
        <ele>680.60</ele>
        <time>2013-01-21T20:24:50.22Z</time>
      </trkpt>
      <trkpt lat="42.317807" lon="2.431883">
        <ele>681.00</ele>
        <time>2013-01-21T21:11:05.69Z</time>
      </trkpt>
      <trkpt lat="42.317812" lon="2.431850">
        <ele>681.60</ele>
        <time>2013-01-21T21:57:37.72Z</time>
      </trkpt>
      <trkpt lat="42.317813" lon="2.431807">
        <ele>682.00</ele>
        <time>2013-01-21T22:57:03.53Z</time>
      </trkpt>
      <trkpt lat="42.317828" lon="2.431672">
        <ele>682.40</ele>
        <time>2013-01-22T02:05:38.60Z</time>
      </trkpt>
      <trkpt lat="42.317836" lon="2.431626">
        <ele>682.80</ele>
        <time>2013-01-22T03:10:55.33Z</time>
      </trkpt>
      <trkpt lat="42.317848" lon="2.431585">
        <ele>683.20</ele>
        <time>2013-01-22T04:11:50.14Z</time>
      </trkpt>
      <trkpt lat="42.317862" lon="2.431550">
        <ele>683.60</ele>
        <time>2013-01-22T05:06:48.38Z</time>
      </trkpt>
      <trkpt lat="42.317880" lon="2.431520">
        <ele>684.20</ele>
        <time>2013-01-22T06:00:10.56Z</time>
      </trkpt>
      <trkpt lat="42.317902" lon="2.431501">
        <ele>684.60</ele>
        <time>2013-01-22T06:48:56.56Z</time>
      </trkpt>
      <trkpt lat="42.317930" lon="2.431493">
        <ele>685.20</ele>
        <time>2013-01-22T07:42:24.47Z</time>
      </trkpt>
      <trkpt lat="42.317955" lon="2.431500">
        <ele>685.60</ele>
        <time>2013-01-22T08:30:06.25Z</time>
      </trkpt>
      <trkpt lat="42.317971" lon="2.431507">
        <ele>686.20</ele>
        <time>2013-01-22T09:01:31.27Z</time>
      </trkpt>
      <trkpt lat="42.317989" lon="2.431552">
        <ele>686.60</ele>
        <time>2013-01-22T10:12:11.85Z</time>
      </trkpt>
      <trkpt lat="42.317988" lon="2.431588">
        <ele>687.00</ele>
        <time>2013-01-22T11:01:57.80Z</time>
      </trkpt>
      <trkpt lat="42.317974" lon="2.431660">
        <ele>688.00</ele>
        <time>2013-01-22T12:44:48.37Z</time>
      </trkpt>
      <trkpt lat="42.317965" lon="2.431698">
        <ele>688.40</ele>
        <time>2013-01-22T13:39:55.61Z</time>
      </trkpt>
      <trkpt lat="42.317938" lon="2.431901">
        <ele>688.80</ele>
        <time>2013-01-22T18:24:51.22Z</time>
      </trkpt>
      <trkpt lat="42.317935" lon="2.431942">
        <ele>689.20</ele>
        <time>2013-01-22T19:21:46.08Z</time>
      </trkpt>
      <trkpt lat="42.317927" lon="2.431982">
        <ele>689.60</ele>
        <time>2013-01-22T20:19:00.61Z</time>
      </trkpt>
      <trkpt lat="42.317919" lon="2.432017">
        <ele>690.00</ele>
        <time>2013-01-22T21:09:37.01Z</time>
      </trkpt>
      <trkpt lat="42.317914" lon="2.432057">
        <ele>690.40</ele>
        <time>2013-01-22T22:05:39.43Z</time>
      </trkpt>
      <trkpt lat="42.317889" lon="2.432231">
        <ele>690.40</ele>
        <time>2013-01-23T02:10:31.10Z</time>
      </trkpt>
      <trkpt lat="42.317883" lon="2.432270">
        <ele>690.80</ele>
        <time>2013-01-23T03:05:32.83Z</time>
      </trkpt>
      <trkpt lat="42.317877" lon="2.432310">
        <ele>691.20</ele>
        <time>2013-01-23T04:01:55.75Z</time>
      </trkpt>
      <trkpt lat="42.317872" lon="2.432347">
        <ele>691.60</ele>
        <time>2013-01-23T04:53:53.28Z</time>
      </trkpt>
      <trkpt lat="42.317868" lon="2.432384">
        <ele>692.00</ele>
        <time>2013-01-23T05:45:32.61Z</time>
      </trkpt>
      <trkpt lat="42.317861" lon="2.432421">
        <ele>692.60</ele>
        <time>2013-01-23T06:38:18.14Z</time>
      </trkpt>
      <trkpt lat="42.317856" lon="2.432459">
        <ele>692.60</ele>
        <time>2013-01-23T07:31:37.23Z</time>
      </trkpt>
      <trkpt lat="42.317850" lon="2.432497">
        <ele>693.00</ele>
        <time>2013-01-23T08:25:17.86Z</time>
      </trkpt>
      <trkpt lat="42.317843" lon="2.432534">
        <ele>693.40</ele>
        <time>2013-01-23T09:18:03.39Z</time>
      </trkpt>
      <trkpt lat="42.317839" lon="2.432571">
        <ele>693.80</ele>
        <time>2013-01-23T10:09:42.73Z</time>
      </trkpt>
      <trkpt lat="42.317835" lon="2.432606">
        <ele>694.20</ele>
        <time>2013-01-23T10:58:38.14Z</time>
      </trkpt>
      <trkpt lat="42.317835" lon="2.432645">
        <ele>694.60</ele>
        <time>2013-01-23T11:52:30.64Z</time>
      </trkpt>
      <trkpt lat="42.317826" lon="2.432763">
        <ele>695.00</ele>
        <time>2013-01-23T14:36:22.93Z</time>
      </trkpt>
      <trkpt lat="42.317817" lon="2.432805">
        <ele>695.60</ele>
        <time>2013-01-23T15:36:47.33Z</time>
      </trkpt>
      <trkpt lat="42.317807" lon="2.432845">
        <ele>696.00</ele>
        <time>2013-01-23T16:35:07.09Z</time>
      </trkpt>
      <trkpt lat="42.317797" lon="2.432884">
        <ele>696.40</ele>
        <time>2013-01-23T17:32:08.43Z</time>
      </trkpt>
      <trkpt lat="42.317790" lon="2.432922">
        <ele>696.80</ele>
        <time>2013-01-23T18:26:14.32Z</time>
      </trkpt>
      <trkpt lat="42.317787" lon="2.433002">
        <ele>697.20</ele>
        <time>2013-01-23T20:16:53.63Z</time>
      </trkpt>
      <trkpt lat="42.317785" lon="2.433041">
        <ele>697.80</ele>
        <time>2013-01-23T21:10:53.90Z</time>
      </trkpt>
      <trkpt lat="42.317784" lon="2.433079">
        <ele>698.20</ele>
        <time>2013-01-23T22:03:25.52Z</time>
      </trkpt>
      <trkpt lat="42.317783" lon="2.433118">
        <ele>698.60</ele>
        <time>2013-01-23T22:57:19.97Z</time>
      </trkpt>
      <trkpt lat="42.317781" lon="2.433154">
        <ele>699.00</ele>
        <time>2013-01-23T23:47:12.23Z</time>
      </trkpt>
      <trkpt lat="42.317783" lon="2.433230">
        <ele>699.40</ele>
        <time>2013-01-24T01:32:15.46Z</time>
      </trkpt>
      <trkpt lat="42.317782" lon="2.433269">
        <ele>700.00</ele>
        <time>2013-01-24T02:26:09.91Z</time>
      </trkpt>
      <trkpt lat="42.317779" lon="2.433304">
        <ele>700.40</ele>
        <time>2013-01-24T03:14:50.31Z</time>
      </trkpt>
      <trkpt lat="42.317779" lon="2.433340">
        <ele>700.80</ele>
        <time>2013-01-24T04:04:34.16Z</time>
      </trkpt>
      <trkpt lat="42.317780" lon="2.433376">
        <ele>701.20</ele>
        <time>2013-01-24T04:54:20.12Z</time>
      </trkpt>
      <trkpt lat="42.317776" lon="2.433410">
        <ele>701.20</ele>
        <time>2013-01-24T05:41:53.65Z</time>
      </trkpt>
      <trkpt lat="42.317778" lon="2.433446">
        <ele>701.60</ele>
        <time>2013-01-24T06:31:45.91Z</time>
      </trkpt>
      <trkpt lat="42.317778" lon="2.433482">
        <ele>702.00</ele>
        <time>2013-01-24T07:21:29.76Z</time>
      </trkpt>
      <trkpt lat="42.317775" lon="2.433520">
        <ele>702.40</ele>
        <time>2013-01-24T08:14:17.29Z</time>
      </trkpt>
      <trkpt lat="42.317772" lon="2.433557">
        <ele>702.80</ele>
        <time>2013-01-24T09:05:42.41Z</time>
      </trkpt>
      <trkpt lat="42.317765" lon="2.433598">
        <ele>703.20</ele>
        <time>2013-01-24T10:03:50.10Z</time>
      </trkpt>
      <trkpt lat="42.317764" lon="2.433636">
        <ele>703.60</ele>
        <time>2013-01-24T10:56:21.71Z</time>
      </trkpt>
      <trkpt lat="42.317762" lon="2.433666">
        <ele>704.20</ele>
        <time>2013-01-24T11:37:58.34Z</time>
      </trkpt>
      <trkpt lat="42.317765" lon="2.433699">
        <ele>704.60</ele>
        <time>2013-01-24T12:23:54.14Z</time>
      </trkpt>
      <trkpt lat="42.317767" lon="2.433733">
        <ele>705.00</ele>
        <time>2013-01-24T13:11:01.12Z</time>
      </trkpt>
      <trkpt lat="42.317767" lon="2.433765">
        <ele>705.40</ele>
        <time>2013-01-24T13:55:13.44Z</time>
      </trkpt>
      <trkpt lat="42.317774" lon="2.433802">
        <ele>705.40</ele>
        <time>2013-01-24T14:47:58.97Z</time>
      </trkpt>
      <trkpt lat="42.317781" lon="2.433836">
        <ele>705.80</ele>
        <time>2013-01-24T15:36:44.25Z</time>
      </trkpt>
      <trkpt lat="42.317784" lon="2.433870">
        <ele>706.40</ele>
        <time>2013-01-24T16:24:02.33Z</time>
      </trkpt>
      <trkpt lat="42.317783" lon="2.433901">
        <ele>706.80</ele>
        <time>2013-01-24T17:06:54.20Z</time>
      </trkpt>
      <trkpt lat="42.317785" lon="2.433933">
        <ele>707.20</ele>
        <time>2013-01-24T17:51:15.97Z</time>
      </trkpt>
      <trkpt lat="42.317795" lon="2.433964">
        <ele>707.80</ele>
        <time>2013-01-24T18:37:59.27Z</time>
      </trkpt>
      <trkpt lat="42.317810" lon="2.434025">
        <ele>708.20</ele>
        <time>2013-01-24T20:06:47.49Z</time>
      </trkpt>
      <trkpt lat="42.317815" lon="2.434054">
        <ele>708.60</ele>
        <time>2013-01-24T20:47:55.63Z</time>
      </trkpt>
      <trkpt lat="42.317820" lon="2.434080">
        <ele>709.00</ele>
        <time>2013-01-24T21:25:02.32Z</time>
      </trkpt>
      <trkpt lat="42.317826" lon="2.434110">
        <ele>709.40</ele>
        <time>2013-01-24T22:07:58.22Z</time>
      </trkpt>
      <trkpt lat="42.317836" lon="2.434141">
        <ele>710.00</ele>
        <time>2013-01-24T22:54:41.51Z</time>
      </trkpt>
      <trkpt lat="42.317855" lon="2.434200">
        <ele>710.40</ele>
        <time>2013-01-25T00:23:35.37Z</time>
      </trkpt>
      <trkpt lat="42.317866" lon="2.434229">
        <ele>710.80</ele>
        <time>2013-01-25T01:08:36.84Z</time>
      </trkpt>
      <trkpt lat="42.317879" lon="2.434260">
        <ele>711.20</ele>
        <time>2013-01-25T01:57:50.72Z</time>
      </trkpt>
      <trkpt lat="42.317898" lon="2.434291">
        <ele>711.60</ele>
        <time>2013-01-25T02:53:28.08Z</time>
      </trkpt>
      <trkpt lat="42.317915" lon="2.434317">
        <ele>712.00</ele>
        <time>2013-01-25T03:41:24.76Z</time>
      </trkpt>
      <trkpt lat="42.317957" lon="2.434402">
        <ele>712.00</ele>
        <time>2013-01-25T06:02:38.22Z</time>
      </trkpt>
      <trkpt lat="42.317971" lon="2.434434">
        <ele>712.40</ele>
        <time>2013-01-25T06:54:00.02Z</time>
      </trkpt>
      <trkpt lat="42.317986" lon="2.434463">
        <ele>713.00</ele>
        <time>2013-01-25T07:42:53.39Z</time>
      </trkpt>
      <trkpt lat="42.317999" lon="2.434492">
        <ele>713.40</ele>
        <time>2013-01-25T08:29:44.27Z</time>
      </trkpt>
      <trkpt lat="42.318016" lon="2.434518">
        <ele>713.80</ele>
        <time>2013-01-25T09:17:40.96Z</time>
      </trkpt>
      <trkpt lat="42.318033" lon="2.434541">
        <ele>714.20</ele>
        <time>2013-01-25T10:02:36.41Z</time>
      </trkpt>
      <trkpt lat="42.318085" lon="2.434604">
        <ele>714.60</ele>
        <time>2013-01-25T12:13:02.15Z</time>
      </trkpt>
      <trkpt lat="42.318094" lon="2.434631">
        <ele>715.00</ele>
        <time>2013-01-25T12:53:56.92Z</time>
      </trkpt>
      <trkpt lat="42.318102" lon="2.434661">
        <ele>715.60</ele>
        <time>2013-01-25T13:38:00.21Z</time>
      </trkpt>
      <trkpt lat="42.318113" lon="2.434691">
        <ele>716.00</ele>
        <time>2013-01-25T14:24:15.68Z</time>
      </trkpt>
      <trkpt lat="42.318125" lon="2.434721">
        <ele>716.40</ele>
        <time>2013-01-25T15:11:22.72Z</time>
      </trkpt>
      <trkpt lat="42.318175" lon="2.434806">
        <ele>716.80</ele>
        <time>2013-01-25T17:41:25.34Z</time>
      </trkpt>
      <trkpt lat="42.318193" lon="2.434835">
        <ele>717.40</ele>
        <time>2013-01-25T18:33:43.58Z</time>
      </trkpt>
      <trkpt lat="42.318209" lon="2.434862">
        <ele>717.80</ele>
        <time>2013-01-25T19:21:31.46Z</time>
      </trkpt>
      <trkpt lat="42.318223" lon="2.434890">
        <ele>718.20</ele>
        <time>2013-01-25T20:08:13.01Z</time>
      </trkpt>
      <trkpt lat="42.318237" lon="2.434921">
        <ele>718.60</ele>
        <time>2013-01-25T20:58:23.76Z</time>
      </trkpt>
      <trkpt lat="42.318269" lon="2.434985">
        <ele>719.00</ele>
        <time>2013-01-25T22:45:07.30Z</time>
      </trkpt>
      <trkpt lat="42.318286" lon="2.435014">
        <ele>719.40</ele>
        <time>2013-01-25T23:36:14.67Z</time>
      </trkpt>
      <trkpt lat="42.318303" lon="2.435044">
        <ele>720.00</ele>
        <time>2013-01-26T00:28:27.42Z</time>
      </trkpt>
      <trkpt lat="42.318320" lon="2.435070">
        <ele>720.40</ele>
        <time>2013-01-26T01:16:24.10Z</time>
      </trkpt>
      <trkpt lat="42.318338" lon="2.435091">
        <ele>720.80</ele>
        <time>2013-01-26T02:00:48.80Z</time>
      </trkpt>
      <trkpt lat="42.318369" lon="2.435137">
        <ele>721.20</ele>
        <time>2013-01-26T03:26:47.43Z</time>
      </trkpt>
      <trkpt lat="42.318418" lon="2.435217">
        <ele>722.00</ele>
        <time>2013-01-26T05:50:17.61Z</time>
      </trkpt>
      <trkpt lat="42.318430" lon="2.435245">
        <ele>722.40</ele>
        <time>2013-01-26T06:35:00.01Z</time>
      </trkpt>
      <trkpt lat="42.318447" lon="2.435268">
        <ele>722.80</ele>
        <time>2013-01-26T07:19:55.45Z</time>
      </trkpt>
      <trkpt lat="42.318493" lon="2.435315">
        <ele>722.80</ele>
        <time>2013-01-26T09:07:37.87Z</time>
      </trkpt>
      <trkpt lat="42.318515" lon="2.435340">
        <ele>723.40</ele>
        <time>2013-01-26T10:01:18.91Z</time>
      </trkpt>
      <trkpt lat="42.318533" lon="2.435366">
        <ele>723.80</ele>
        <time>2013-01-26T10:50:31.03Z</time>
      </trkpt>
      <trkpt lat="42.318550" lon="2.435390">
        <ele>724.20</ele>
        <time>2013-01-26T11:36:25.71Z</time>
      </trkpt>
      <trkpt lat="42.318568" lon="2.435413">
        <ele>724.60</ele>
        <time>2013-01-26T12:22:41.53Z</time>
      </trkpt>
      <trkpt lat="42.318590" lon="2.435435">
        <ele>725.20</ele>
        <time>2013-01-26T13:13:48.52Z</time>
      </trkpt>
      <trkpt lat="42.318633" lon="2.435480">
        <ele>725.60</ele>
        <time>2013-01-26T14:55:23.10Z</time>
      </trkpt>
      <trkpt lat="42.318656" lon="2.435500">
        <ele>726.00</ele>
        <time>2013-01-26T15:46:28.20Z</time>
      </trkpt>
      <trkpt lat="42.318680" lon="2.435519">
        <ele>726.40</ele>
        <time>2013-01-26T16:38:25.48Z</time>
      </trkpt>
      <trkpt lat="42.318701" lon="2.435539">
        <ele>726.80</ele>
        <time>2013-01-26T17:26:24.55Z</time>
      </trkpt>
      <trkpt lat="42.318723" lon="2.435564">
        <ele>727.20</ele>
        <time>2013-01-26T18:20:05.58Z</time>
      </trkpt>
      <trkpt lat="42.318783" lon="2.435642">
        <ele>727.60</ele>
        <time>2013-01-26T20:55:34.54Z</time>
      </trkpt>
      <trkpt lat="42.318805" lon="2.435665">
        <ele>728.20</ele>
        <time>2013-01-26T21:47:31.51Z</time>
      </trkpt>
      <trkpt lat="42.318830" lon="2.435681">
        <ele>728.60</ele>
        <time>2013-01-26T22:39:11.80Z</time>
      </trkpt>
      <trkpt lat="42.318855" lon="2.435691">
        <ele>729.20</ele>
        <time>2013-01-26T23:27:54.16Z</time>
      </trkpt>
      <trkpt lat="42.318879" lon="2.435700">
        <ele>729.20</ele>
        <time>2013-01-27T00:14:25.91Z</time>
      </trkpt>
      <trkpt lat="42.318905" lon="2.435709">
        <ele>729.60</ele>
        <time>2013-01-27T01:04:34.31Z</time>
      </trkpt>
      <trkpt lat="42.318955" lon="2.435712">
        <ele>730.00</ele>
        <time>2013-01-27T02:38:04.52Z</time>
      </trkpt>
      <trkpt lat="42.318982" lon="2.435709">
        <ele>730.40</ele>
        <time>2013-01-27T03:28:41.26Z</time>
      </trkpt>
      <trkpt lat="42.319005" lon="2.435703">
        <ele>730.80</ele>
        <time>2013-01-27T04:12:26.94Z</time>
      </trkpt>
      <trkpt lat="42.319026" lon="2.435696">
        <ele>731.20</ele>
        <time>2013-01-27T04:52:51.36Z</time>
      </trkpt>
      <trkpt lat="42.319055" lon="2.435680">
        <ele>731.60</ele>
        <time>2013-01-27T05:51:22.18Z</time>
      </trkpt>
      <trkpt lat="42.319160" lon="2.435650">
        <ele>732.00</ele>
        <time>2013-01-27T09:11:51.83Z</time>
      </trkpt>
      <trkpt lat="42.319185" lon="2.435634">
        <ele>732.60</ele>
        <time>2013-01-27T10:03:32.12Z</time>
      </trkpt>
      <trkpt lat="42.319212" lon="2.435615">
        <ele>733.00</ele>
        <time>2013-01-27T11:00:23.84Z</time>
      </trkpt>
      <trkpt lat="42.319234" lon="2.435591">
        <ele>733.40</ele>
        <time>2013-01-27T11:53:12.18Z</time>
      </trkpt>
      <trkpt lat="42.319258" lon="2.435569">
        <ele>733.80</ele>
        <time>2013-01-27T12:47:22.15Z</time>
      </trkpt>
      <trkpt lat="42.319314" lon="2.435535">
        <ele>734.20</ele>
        <time>2013-01-27T14:42:02.94Z</time>
      </trkpt>
      <trkpt lat="42.319342" lon="2.435518">
        <ele>734.60</ele>
        <time>2013-01-27T15:39:23.34Z</time>
      </trkpt>
      <trkpt lat="42.319369" lon="2.435499">
        <ele>735.00</ele>
        <time>2013-01-27T16:36:15.06Z</time>
      </trkpt>
      <trkpt lat="42.319396" lon="2.435480">
        <ele>735.40</ele>
        <time>2013-01-27T17:33:06.78Z</time>
      </trkpt>
      <trkpt lat="42.319419" lon="2.435464">
        <ele>735.80</ele>
        <time>2013-01-27T18:21:26.01Z</time>
      </trkpt>
      <trkpt lat="42.319468" lon="2.435436">
        <ele>736.20</ele>
        <time>2013-01-27T20:00:48.76Z</time>
      </trkpt>
      <trkpt lat="42.319493" lon="2.435421">
        <ele>736.60</ele>
        <time>2013-01-27T20:51:54.51Z</time>
      </trkpt>
      <trkpt lat="42.319519" lon="2.435411">
        <ele>737.20</ele>
        <time>2013-01-27T21:42:24.51Z</time>
      </trkpt>
      <trkpt lat="42.319548" lon="2.435399">
        <ele>737.60</ele>
        <time>2013-01-27T22:39:03.99Z</time>
      </trkpt>
      <trkpt lat="42.319574" lon="2.435390">
        <ele>738.00</ele>
        <time>2013-01-27T23:29:12.38Z</time>
      </trkpt>
      <trkpt lat="42.319622" lon="2.435391">
        <ele>738.40</ele>
        <time>2013-01-28T00:58:53.53Z</time>
      </trkpt>
      <trkpt lat="42.319644" lon="2.435395">
        <ele>738.80</ele>
        <time>2013-01-28T01:40:21.78Z</time>
      </trkpt>
      <trkpt lat="42.319669" lon="2.435397">
        <ele>739.20</ele>
        <time>2013-01-28T02:27:09.03Z</time>
      </trkpt>
      <trkpt lat="42.319693" lon="2.435396">
        <ele>739.60</ele>
        <time>2013-01-28T03:12:00.56Z</time>
      </trkpt>
      <trkpt lat="42.319722" lon="2.435398">
        <ele>740.00</ele>
        <time>2013-01-28T04:06:15.51Z</time>
      </trkpt>
      <trkpt lat="42.319827" lon="2.435419">
        <ele>740.60</ele>
        <time>2013-01-28T07:24:33.38Z</time>
      </trkpt>
      <trkpt lat="42.319853" lon="2.435431">
        <ele>741.00</ele>
        <time>2013-01-28T08:15:52.86Z</time>
      </trkpt>
      <trkpt lat="42.319881" lon="2.435447">
        <ele>741.40</ele>
        <time>2013-01-28T09:12:40.15Z</time>
      </trkpt>
      <trkpt lat="42.319920" lon="2.435505">
        <ele>742.40</ele>
        <time>2013-01-28T11:00:57.85Z</time>
      </trkpt>
      <trkpt lat="42.319936" lon="2.435532">
        <ele>742.40</ele>
        <time>2013-01-28T11:48:45.69Z</time>
      </trkpt>
      <trkpt lat="42.319968" lon="2.435597">
        <ele>742.80</ele>
        <time>2013-01-28T13:36:37.93Z</time>
      </trkpt>
      <trkpt lat="42.319979" lon="2.435632">
        <ele>743.40</ele>
        <time>2013-01-28T14:29:09.98Z</time>
      </trkpt>
      <trkpt lat="42.319992" lon="2.435665">
        <ele>743.80</ele>
        <time>2013-01-28T15:20:49.05Z</time>
      </trkpt>
      <trkpt lat="42.320008" lon="2.435695">
        <ele>744.20</ele>
        <time>2013-01-28T16:11:54.85Z</time>
      </trkpt>
      <trkpt lat="42.320030" lon="2.435715">
        <ele>744.80</ele>
        <time>2013-01-28T17:01:26.26Z</time>
      </trkpt>
      <trkpt lat="42.320087" lon="2.435695">
        <ele>744.80</ele>
        <time>2013-01-28T18:51:27.14Z</time>
      </trkpt>
      <trkpt lat="42.320151" lon="2.435596">
        <ele>745.20</ele>
        <time>2013-01-28T21:53:06.38Z</time>
      </trkpt>
      <trkpt lat="42.320154" lon="2.435559">
        <ele>745.60</ele>
        <time>2013-01-28T22:44:31.38Z</time>
      </trkpt>
      <trkpt lat="42.320142" lon="2.435519">
        <ele>746.00</ele>
        <time>2013-01-28T23:44:09.14Z</time>
      </trkpt>
      <trkpt lat="42.320125" lon="2.435480">
        <ele>746.40</ele>
        <time>2013-01-29T00:46:41.42Z</time>
      </trkpt>
      <trkpt lat="42.320105" lon="2.435447">
        <ele>746.80</ele>
        <time>2013-01-29T01:45:37.92Z</time>
      </trkpt>
      <trkpt lat="42.320004" lon="2.435278">
        <ele>746.80</ele>
        <time>2013-01-29T06:45:48.27Z</time>
      </trkpt>
      <trkpt lat="42.319988" lon="2.435248">
        <ele>747.40</ele>
        <time>2013-01-29T07:36:54.07Z</time>
      </trkpt>
      <trkpt lat="42.319974" lon="2.435215">
        <ele>748.20</ele>
        <time>2013-01-29T08:29:27.41Z</time>
      </trkpt>
      <trkpt lat="42.319960" lon="2.435182">
        <ele>748.60</ele>
        <time>2013-01-29T09:22:00.75Z</time>
      </trkpt>
      <trkpt lat="42.319943" lon="2.435150">
        <ele>749.20</ele>
        <time>2013-01-29T10:16:26.57Z</time>
      </trkpt>
      <trkpt lat="42.319859" lon="2.435030">
        <ele>749.60</ele>
        <time>2013-01-29T14:04:42.51Z</time>
      </trkpt>
      <trkpt lat="42.319843" lon="2.435004">
        <ele>750.00</ele>
        <time>2013-01-29T14:51:26.15Z</time>
      </trkpt>
      <trkpt lat="42.319825" lon="2.434983">
        <ele>750.40</ele>
        <time>2013-01-29T15:35:50.83Z</time>
      </trkpt>
      <trkpt lat="42.319776" lon="2.434945">
        <ele>751.40</ele>
        <time>2013-01-29T17:21:22.35Z</time>
      </trkpt>
      <trkpt lat="42.319736" lon="2.434908">
        <ele>751.80</ele>
        <time>2013-01-29T18:51:54.52Z</time>
      </trkpt>
      <trkpt lat="42.319715" lon="2.434890">
        <ele>752.20</ele>
        <time>2013-01-29T19:38:21.43Z</time>
      </trkpt>
      <trkpt lat="42.319695" lon="2.434871">
        <ele>752.60</ele>
        <time>2013-01-29T20:24:01.12Z</time>
      </trkpt>
      <trkpt lat="42.319674" lon="2.434848">
        <ele>753.00</ele>
        <time>2013-01-29T21:14:30.17Z</time>
      </trkpt>
      <trkpt lat="42.319646" lon="2.434827">
        <ele>753.40</ele>
        <time>2013-01-29T22:14:19.11Z</time>
      </trkpt>
      <trkpt lat="42.319553" lon="2.434747">
        <ele>753.80</ele>
        <time>2013-01-30T01:40:13.87Z</time>
      </trkpt>
      <trkpt lat="42.319532" lon="2.434724">
        <ele>754.40</ele>
        <time>2013-01-30T02:30:42.92Z</time>
      </trkpt>
      <trkpt lat="42.319512" lon="2.434698">
        <ele>754.80</ele>
        <time>2013-01-30T03:22:32.55Z</time>
      </trkpt>
      <trkpt lat="42.319498" lon="2.434670">
        <ele>755.40</ele>
        <time>2013-01-30T04:09:14.06Z</time>
      </trkpt>
      <trkpt lat="42.319484" lon="2.434644">
        <ele>755.80</ele>
        <time>2013-01-30T04:53:39.87Z</time>
      </trkpt>
      <trkpt lat="42.319464" lon="2.434582">
        <ele>756.40</ele>
        <time>2013-01-30T06:27:06.34Z</time>
      </trkpt>
      <trkpt lat="42.319455" lon="2.434558">
        <ele>756.80</ele>
        <time>2013-01-30T07:04:16.72Z</time>
      </trkpt>
      <trkpt lat="42.319447" lon="2.434531">
        <ele>757.20</ele>
        <time>2013-01-30T07:44:27.54Z</time>
      </trkpt>
      <trkpt lat="42.319435" lon="2.434499">
        <ele>757.80</ele>
        <time>2013-01-30T08:34:01.39Z</time>
      </trkpt>
      <trkpt lat="42.319422" lon="2.434470">
        <ele>758.20</ele>
        <time>2013-01-30T09:20:52.22Z</time>
      </trkpt>
      <trkpt lat="42.319381" lon="2.434345">
        <ele>758.20</ele>
        <time>2013-01-30T12:29:46.17Z</time>
      </trkpt>
      <trkpt lat="42.319374" lon="2.434325">
        <ele>758.80</ele>
        <time>2013-01-30T13:00:20.15Z</time>
      </trkpt>
      <trkpt lat="42.319358" lon="2.434299">
        <ele>759.20</ele>
        <time>2013-01-30T13:47:03.80Z</time>
      </trkpt>
      <trkpt lat="42.319344" lon="2.434274">
        <ele>759.80</ele>
        <time>2013-01-30T14:30:23.08Z</time>
      </trkpt>
      <trkpt lat="42.319330" lon="2.434244">
        <ele>760.20</ele>
        <time>2013-01-30T15:19:23.38Z</time>
      </trkpt>
      <trkpt lat="42.319321" lon="2.434218">
        <ele>760.80</ele>
        <time>2013-01-30T15:59:02.78Z</time>
      </trkpt>
      <trkpt lat="42.319303" lon="2.434193">
        <ele>761.20</ele>
        <time>2013-01-30T16:47:14.94Z</time>
      </trkpt>
      <trkpt lat="42.319285" lon="2.434169">
        <ele>761.80</ele>
        <time>2013-01-30T17:34:28.30Z</time>
      </trkpt>
      <trkpt lat="42.319272" lon="2.434148">
        <ele>762.40</ele>
        <time>2013-01-30T18:12:18.32Z</time>
      </trkpt>
      <trkpt lat="42.319261" lon="2.434128">
        <ele>762.80</ele>
        <time>2013-01-30T18:46:44.28Z</time>
      </trkpt>
      <trkpt lat="42.319181" lon="2.434074">
        <ele>763.20</ele>
        <time>2013-01-30T21:33:46.66Z</time>
      </trkpt>
      <trkpt lat="42.319155" lon="2.434060">
        <ele>763.80</ele>
        <time>2013-01-30T22:26:03.60Z</time>
      </trkpt>
      <trkpt lat="42.319126" lon="2.434045">
        <ele>764.20</ele>
        <time>2013-01-30T23:24:03.96Z</time>
      </trkpt>
      <trkpt lat="42.319101" lon="2.434028">
        <ele>764.60</ele>
        <time>2013-01-31T00:16:20.60Z</time>
      </trkpt>
      <trkpt lat="42.319078" lon="2.434011">
        <ele>765.00</ele>
        <time>2013-01-31T01:05:18.66Z</time>
      </trkpt>
      <trkpt lat="42.319011" lon="2.433956">
        <ele>765.00</ele>
        <time>2013-01-31T03:31:44.17Z</time>
      </trkpt>
      <trkpt lat="42.318969" lon="2.433897">
        <ele>765.40</ele>
        <time>2013-01-31T05:24:52.25Z</time>
      </trkpt>
      <trkpt lat="42.318961" lon="2.433863">
        <ele>766.00</ele>
        <time>2013-01-31T06:14:09.52Z</time>
      </trkpt>
      <trkpt lat="42.318955" lon="2.433824">
        <ele>766.40</ele>
        <time>2013-01-31T07:09:11.19Z</time>
      </trkpt>
      <trkpt lat="42.318954" lon="2.433785">
        <ele>766.80</ele>
        <time>2013-01-31T08:03:05.58Z</time>
      </trkpt>
      <trkpt lat="42.318956" lon="2.433747">
        <ele>767.40</ele>
        <time>2013-01-31T08:55:43.11Z</time>
      </trkpt>
      <trkpt lat="42.318974" lon="2.433642">
        <ele>767.80</ele>
        <time>2013-01-31T11:24:36.69Z</time>
      </trkpt>
      <trkpt lat="42.318984" lon="2.433615">
        <ele>768.20</ele>
        <time>2013-01-31T12:06:19.58Z</time>
      </trkpt>
      <trkpt lat="42.318994" lon="2.433589">
        <ele>768.60</ele>
        <time>2013-01-31T12:46:48.65Z</time>
      </trkpt>
      <trkpt lat="42.319002" lon="2.433559">
        <ele>769.00</ele>
        <time>2013-01-31T13:30:51.91Z</time>
      </trkpt>
      <trkpt lat="42.319012" lon="2.433518">
        <ele>769.40</ele>
        <time>2013-01-31T14:30:30.23Z</time>
      </trkpt>
      <trkpt lat="42.319031" lon="2.433446">
        <ele>769.80</ele>
        <time>2013-01-31T16:16:06.48Z</time>
      </trkpt>
      <trkpt lat="42.319043" lon="2.433415">
        <ele>770.20</ele>
        <time>2013-01-31T17:04:26.66Z</time>
      </trkpt>
      <trkpt lat="42.319069" lon="2.433387">
        <ele>770.60</ele>
        <time>2013-01-31T18:06:32.22Z</time>
      </trkpt>
      <trkpt lat="42.319091" lon="2.433357">
        <ele>771.00</ele>
        <time>2013-01-31T19:04:54.24Z</time>
      </trkpt>
      <trkpt lat="42.319128" lon="2.433294">
        <ele>771.40</ele>
        <time>2013-01-31T20:56:02.60Z</time>
      </trkpt>
      <trkpt lat="42.319176" lon="2.433194">
        <ele>771.80</ele>
        <time>2013-01-31T23:40:44.19Z</time>
      </trkpt>
      <trkpt lat="42.319193" lon="2.433162">
        <ele>772.20</ele>
        <time>2013-02-01T00:35:10.03Z</time>
      </trkpt>
      <trkpt lat="42.319214" lon="2.433137">
        <ele>772.60</ele>
        <time>2013-02-01T01:27:26.06Z</time>
      </trkpt>
      <trkpt lat="42.319234" lon="2.433110">
        <ele>773.00</ele>
        <time>2013-02-01T02:20:13.70Z</time>
      </trkpt>
      <trkpt lat="42.319248" lon="2.433078">
        <ele>773.40</ele>
        <time>2013-02-01T03:11:35.45Z</time>
      </trkpt>
      <trkpt lat="42.319302" lon="2.432984">
        <ele>774.00</ele>
        <time>2013-02-01T05:56:01.52Z</time>
      </trkpt>
      <trkpt lat="42.319322" lon="2.432954">
        <ele>774.40</ele>
        <time>2013-02-01T06:51:49.45Z</time>
      </trkpt>
      <trkpt lat="42.319341" lon="2.432925">
        <ele>774.80</ele>
        <time>2013-02-01T07:45:20.88Z</time>
      </trkpt>
      <trkpt lat="42.319363" lon="2.432897">
        <ele>775.20</ele>
        <time>2013-02-01T08:41:47.20Z</time>
      </trkpt>
      <trkpt lat="42.319377" lon="2.432865">
        <ele>775.80</ele>
        <time>2013-02-01T09:33:08.95Z</time>
      </trkpt>
      <trkpt lat="42.319403" lon="2.432798">
        <ele>776.20</ele>
        <time>2013-02-01T11:17:40.42Z</time>
      </trkpt>
      <trkpt lat="42.319413" lon="2.432763">
        <ele>776.60</ele>
        <time>2013-02-01T12:09:30.35Z</time>
      </trkpt>
      <trkpt lat="42.319426" lon="2.432730">
        <ele>777.00</ele>
        <time>2013-02-01T13:01:09.45Z</time>
      </trkpt>
      <trkpt lat="42.319439" lon="2.432698">
        <ele>777.40</ele>
        <time>2013-02-01T13:51:35.65Z</time>
      </trkpt>
      <trkpt lat="42.319450" lon="2.432667">
        <ele>777.80</ele>
        <time>2013-02-01T14:39:05.56Z</time>
      </trkpt>
      <trkpt lat="42.319492" lon="2.432539">
        <ele>778.40</ele>
        <time>2013-02-01T17:52:32.24Z</time>
      </trkpt>
      <trkpt lat="42.319506" lon="2.432507">
        <ele>778.80</ele>
        <time>2013-02-01T18:43:53.99Z</time>
      </trkpt>
      <trkpt lat="42.319525" lon="2.432480">
        <ele>779.20</ele>
        <time>2013-02-01T19:35:23.30Z</time>
      </trkpt>
      <trkpt lat="42.319552" lon="2.432456">
        <ele>779.60</ele>
        <time>2013-02-01T20:35:45.01Z</time>
      </trkpt>
      <trkpt lat="42.319585" lon="2.432440">
        <ele>780.00</ele>
        <time>2013-02-01T21:41:14.63Z</time>
      </trkpt>
      <trkpt lat="42.319700" lon="2.432370">
        <ele>780.60</ele>
        <time>2013-02-02T01:36:50.88Z</time>
      </trkpt>
      <trkpt lat="42.319729" lon="2.432348">
        <ele>781.00</ele>
        <time>2013-02-02T02:38:58.08Z</time>
      </trkpt>
      <trkpt lat="42.319757" lon="2.432327">
        <ele>781.60</ele>
        <time>2013-02-02T03:38:47.02Z</time>
      </trkpt>
      <trkpt lat="42.319784" lon="2.432303">
        <ele>782.00</ele>
        <time>2013-02-02T04:39:08.72Z</time>
      </trkpt>
      <trkpt lat="42.319805" lon="2.432275">
        <ele>782.40</ele>
        <time>2013-02-02T05:34:14.30Z</time>
      </trkpt>
      <trkpt lat="42.319876" lon="2.432200">
        <ele>783.00</ele>
        <time>2013-02-02T08:22:32.87Z</time>
      </trkpt>
      <trkpt lat="42.319902" lon="2.432172">
        <ele>783.40</ele>
        <time>2013-02-02T09:24:38.40Z</time>
      </trkpt>
      <trkpt lat="42.319926" lon="2.432142">
        <ele>783.80</ele>
        <time>2013-02-02T10:25:41.73Z</time>
      </trkpt>
      <trkpt lat="42.319948" lon="2.432112">
        <ele>784.20</ele>
        <time>2013-02-02T11:24:03.72Z</time>
      </trkpt>
      <trkpt lat="42.319972" lon="2.432081">
        <ele>784.60</ele>
        <time>2013-02-02T12:26:03.80Z</time>
      </trkpt>
      <trkpt lat="42.320089" lon="2.431986">
        <ele>784.60</ele>
        <time>2013-02-02T16:41:00.85Z</time>
      </trkpt>
      <trkpt lat="42.320199" lon="2.431964">
        <ele>785.00</ele>
        <time>2013-02-02T20:08:45.28Z</time>
      </trkpt>
      <trkpt lat="42.320237" lon="2.431963">
        <ele>785.60</ele>
        <time>2013-02-02T21:19:45.66Z</time>
      </trkpt>
      <trkpt lat="42.320270" lon="2.431966">
        <ele>786.00</ele>
        <time>2013-02-02T22:21:33.11Z</time>
      </trkpt>
      <trkpt lat="42.320308" lon="2.431978">
        <ele>786.40</ele>
        <time>2013-02-02T23:34:27.25Z</time>
      </trkpt>
      <trkpt lat="42.320349" lon="2.431987">
        <ele>786.80</ele>
        <time>2013-02-03T00:52:03.25Z</time>
      </trkpt>
      <trkpt lat="42.320471" lon="2.432008">
        <ele>786.80</ele>
        <time>2013-02-03T04:41:49.03Z</time>
      </trkpt>
      <trkpt lat="42.320628" lon="2.432004">
        <ele>787.20</ele>
        <time>2013-02-03T09:35:10.91Z</time>
      </trkpt>
      <trkpt lat="42.320659" lon="2.431991">
        <ele>787.60</ele>
        <time>2013-02-03T10:35:49.03Z</time>
      </trkpt>
      <trkpt lat="42.320691" lon="2.431974">
        <ele>788.20</ele>
        <time>2013-02-03T11:40:02.84Z</time>
      </trkpt>
      <trkpt lat="42.320729" lon="2.431955">
        <ele>788.60</ele>
        <time>2013-02-03T12:55:44.18Z</time>
      </trkpt>
      <trkpt lat="42.320764" lon="2.431939">
        <ele>789.00</ele>
        <time>2013-02-03T14:04:45.53Z</time>
      </trkpt>
      <trkpt lat="42.320873" lon="2.431853">
        <ele>789.00</ele>
        <time>2013-02-03T18:00:30.86Z</time>
      </trkpt>
      <trkpt lat="42.320984" lon="2.431622">
        <ele>789.40</ele>
        <time>2013-02-04T00:21:04.20Z</time>
      </trkpt>
      <trkpt lat="42.320993" lon="2.431565">
        <ele>789.80</ele>
        <time>2013-02-04T01:41:34.91Z</time>
      </trkpt>
      <trkpt lat="42.321000" lon="2.431514">
        <ele>790.20</ele>
        <time>2013-02-04T02:53:14.03Z</time>
      </trkpt>
      <trkpt lat="42.321004" lon="2.431464">
        <ele>790.60</ele>
        <time>2013-02-04T04:02:42.25Z</time>
      </trkpt>
      <trkpt lat="42.321006" lon="2.431415">
        <ele>791.00</ele>
        <time>2013-02-04T05:10:29.58Z</time>
      </trkpt>
      <trkpt lat="42.321006" lon="2.431363">
        <ele>791.00</ele>
        <time>2013-02-04T06:22:19.37Z</time>
      </trkpt>
      <trkpt lat="42.320992" lon="2.431180">
        <ele>791.60</ele>
        <time>2013-02-04T10:36:27.48Z</time>
      </trkpt>
      <trkpt lat="42.320985" lon="2.431136">
        <ele>792.00</ele>
        <time>2013-02-04T11:38:37.69Z</time>
      </trkpt>
      <trkpt lat="42.320981" lon="2.431090">
        <ele>792.40</ele>
        <time>2013-02-04T12:42:36.47Z</time>
      </trkpt>
      <trkpt lat="42.320980" lon="2.431045">
        <ele>793.00</ele>
        <time>2013-02-04T13:44:47.78Z</time>
      </trkpt>
      <trkpt lat="42.320978" lon="2.431000">
        <ele>793.40</ele>
        <time>2013-02-04T14:47:04.14Z</time>
      </trkpt>
      <trkpt lat="42.320989" lon="2.430914">
        <ele>793.80</ele>
        <time>2013-02-04T16:47:37.73Z</time>
      </trkpt>
      <trkpt lat="42.320995" lon="2.430877">
        <ele>794.20</ele>
        <time>2013-02-04T17:39:57.20Z</time>
      </trkpt>
      <trkpt lat="42.321007" lon="2.430841">
        <ele>794.60</ele>
        <time>2013-02-04T18:34:30.09Z</time>
      </trkpt>
      <trkpt lat="42.321023" lon="2.430803">
        <ele>795.00</ele>
        <time>2013-02-04T19:34:54.42Z</time>
      </trkpt>
      <trkpt lat="42.321043" lon="2.430771">
        <ele>795.40</ele>
        <time>2013-02-04T20:32:47.18Z</time>
      </trkpt>
      <trkpt lat="42.321073" lon="2.430701">
        <ele>795.80</ele>
        <time>2013-02-04T22:24:32.97Z</time>
      </trkpt>
      <trkpt lat="42.321083" lon="2.430661">
        <ele>796.20</ele>
        <time>2013-02-04T23:22:52.56Z</time>
      </trkpt>
      <trkpt lat="42.321083" lon="2.430620">
        <ele>796.60</ele>
        <time>2013-02-05T00:19:30.66Z</time>
      </trkpt>
      <trkpt lat="42.321077" lon="2.430573">
        <ele>797.00</ele>
        <time>2013-02-05T01:25:23.68Z</time>
      </trkpt>
      <trkpt lat="42.321065" lon="2.430529">
        <ele>797.40</ele>
        <time>2013-02-05T02:30:10.59Z</time>
      </trkpt>
      <trkpt lat="42.321053" lon="2.430488">
        <ele>797.40</ele>
        <time>2013-02-05T03:31:05.24Z</time>
      </trkpt>
      <trkpt lat="42.321030" lon="2.430409">
        <ele>797.80</ele>
        <time>2013-02-05T05:28:22.10Z</time>
      </trkpt>
      <trkpt lat="42.321016" lon="2.430368">
        <ele>798.20</ele>
        <time>2013-02-05T06:30:45.07Z</time>
      </trkpt>
      <trkpt lat="42.321003" lon="2.430329">
        <ele>798.60</ele>
        <time>2013-02-05T07:29:50.71Z</time>
      </trkpt>
      <trkpt lat="42.320982" lon="2.430282">
        <ele>799.00</ele>
        <time>2013-02-05T08:45:42.11Z</time>
      </trkpt>
      <trkpt lat="42.320971" lon="2.430237">
        <ele>799.40</ele>
        <time>2013-02-05T09:51:10.27Z</time>
      </trkpt>
      <trkpt lat="42.320948" lon="2.430061">
        <ele>800.00</ele>
        <time>2013-02-05T13:58:03.35Z</time>
      </trkpt>
      <trkpt lat="42.320935" lon="2.430018">
        <ele>800.40</ele>
        <time>2013-02-05T15:02:13.63Z</time>
      </trkpt>
      <trkpt lat="42.320920" lon="2.429975">
        <ele>800.80</ele>
        <time>2013-02-05T16:07:54.22Z</time>
      </trkpt>
      <trkpt lat="42.320908" lon="2.429933">
        <ele>801.20</ele>
        <time>2013-02-05T17:10:06.06Z</time>
      </trkpt>
      <trkpt lat="42.320895" lon="2.429895">
        <ele>801.60</ele>
        <time>2013-02-05T18:07:56.31Z</time>
      </trkpt>
      <trkpt lat="42.320869" lon="2.429818">
        <ele>802.00</ele>
        <time>2013-02-05T20:04:52.12Z</time>
      </trkpt>
      <trkpt lat="42.320855" lon="2.429782">
        <ele>802.40</ele>
        <time>2013-02-05T21:01:03.36Z</time>
      </trkpt>
      <trkpt lat="42.320833" lon="2.429748">
        <ele>802.80</ele>
        <time>2013-02-05T22:03:28Z</time>
      </trkpt>
      <trkpt lat="42.320813" lon="2.429717">
        <ele>803.20</ele>
        <time>2013-02-05T23:00:17.89Z</time>
      </trkpt>
      <trkpt lat="42.320792" lon="2.429685">
        <ele>803.80</ele>
        <time>2013-02-05T23:59:24.05Z</time>
      </trkpt>
      <trkpt lat="42.320730" lon="2.429528">
        <ele>804.20</ele>
        <time>2013-02-06T04:05:16Z</time>
      </trkpt>
      <trkpt lat="42.320714" lon="2.429496">
        <ele>804.60</ele>
        <time>2013-02-06T04:58:37.68Z</time>
      </trkpt>
      <trkpt lat="42.320695" lon="2.429464">
        <ele>805.00</ele>
        <time>2013-02-06T05:55:19.17Z</time>
      </trkpt>
      <trkpt lat="42.320686" lon="2.429428">
        <ele>805.40</ele>
        <time>2013-02-06T06:47:48.82Z</time>
      </trkpt>
      <trkpt lat="42.320680" lon="2.429392">
        <ele>806.00</ele>
        <time>2013-02-06T07:38:47.40Z</time>
      </trkpt>
      <trkpt lat="42.320678" lon="2.429351">
        <ele>806.40</ele>
        <time>2013-02-06T08:35:32.91Z</time>
      </trkpt>
      <trkpt lat="42.320675" lon="2.429320">
        <ele>806.80</ele>
        <time>2013-02-06T09:18:44.13Z</time>
      </trkpt>
      <trkpt lat="42.320671" lon="2.429284">
        <ele>807.40</ele>
        <time>2013-02-06T10:09:01.35Z</time>
      </trkpt>
      <trkpt lat="42.320671" lon="2.429249">
        <ele>807.80</ele>
        <time>2013-02-06T10:57:22.18Z</time>
      </trkpt>
      <trkpt lat="42.320671" lon="2.429220">
        <ele>808.20</ele>
        <time>2013-02-06T11:37:25.73Z</time>
      </trkpt>
      <trkpt lat="42.320658" lon="2.429126">
        <ele>808.60</ele>
        <time>2013-02-06T13:49:31.66Z</time>
      </trkpt>
      <trkpt lat="42.320661" lon="2.429095">
        <ele>809.20</ele>
        <time>2013-02-06T14:32:42.88Z</time>
      </trkpt>
      <trkpt lat="42.320662" lon="2.429065">
        <ele>809.60</ele>
        <time>2013-02-06T15:14:11.84Z</time>
      </trkpt>
      <trkpt lat="42.320658" lon="2.429028">
        <ele>810.00</ele>
        <time>2013-02-06T16:05:51.04Z</time>
      </trkpt>
      <trkpt lat="42.320657" lon="2.428996">
        <ele>810.60</ele>
        <time>2013-02-06T16:50:05.60Z</time>
      </trkpt>
      <trkpt lat="42.320654" lon="2.428924">
        <ele>811.00</ele>
        <time>2013-02-06T18:29:42.50Z</time>
      </trkpt>
      <trkpt lat="42.320646" lon="2.428879">
        <ele>811.40</ele>
        <time>2013-02-06T19:33:38.44Z</time>
      </trkpt>
      <trkpt lat="42.320640" lon="2.428842">
        <ele>811.80</ele>
        <time>2013-02-06T20:25:57.93Z</time>
      </trkpt>
      <trkpt lat="42.320640" lon="2.428807">
        <ele>812.20</ele>
        <time>2013-02-06T21:14:18.76Z</time>
      </trkpt>
      <trkpt lat="42.320642" lon="2.428766">
        <ele>812.60</ele>
        <time>2013-02-06T22:11:04.27Z</time>
      </trkpt>
      <trkpt lat="42.320643" lon="2.428732">
        <ele>812.60</ele>
        <time>2013-02-06T22:58:04.45Z</time>
      </trkpt>
      <trkpt lat="42.320651" lon="2.428658">
        <ele>813.00</ele>
        <time>2013-02-07T00:41:22.86Z</time>
      </trkpt>
      <trkpt lat="42.320661" lon="2.428627">
        <ele>813.60</ele>
        <time>2013-02-07T01:28:06.05Z</time>
      </trkpt>
      <trkpt lat="42.320679" lon="2.428597">
        <ele>814.00</ele>
        <time>2013-02-07T02:21:28.15Z</time>
      </trkpt>
      <trkpt lat="42.320697" lon="2.428567">
        <ele>814.40</ele>
        <time>2013-02-07T03:14:50.24Z</time>
      </trkpt>
      <trkpt lat="42.320717" lon="2.428539">
        <ele>814.80</ele>
        <time>2013-02-07T04:08:36.93Z</time>
      </trkpt>
      <trkpt lat="42.320789" lon="2.428445">
        <ele>815.40</ele>
        <time>2013-02-07T07:15:34.50Z</time>
      </trkpt>
      <trkpt lat="42.320804" lon="2.428420">
        <ele>815.80</ele>
        <time>2013-02-07T08:00:02.91Z</time>
      </trkpt>
      <trkpt lat="42.320820" lon="2.428388">
        <ele>816.40</ele>
        <time>2013-02-07T08:53:24.59Z</time>
      </trkpt>
      <trkpt lat="42.320832" lon="2.428354">
        <ele>816.80</ele>
        <time>2013-02-07T09:45:27.12Z</time>
      </trkpt>
      <trkpt lat="42.320848" lon="2.428326">
        <ele>817.40</ele>
        <time>2013-02-07T10:34:20.06Z</time>
      </trkpt>
      <trkpt lat="42.320947" lon="2.428213">
        <ele>817.80</ele>
        <time>2013-02-07T14:36:21.19Z</time>
      </trkpt>
      <trkpt lat="42.320964" lon="2.428187">
        <ele>818.20</ele>
        <time>2013-02-07T15:24:17.79Z</time>
      </trkpt>
      <trkpt lat="42.320978" lon="2.428166">
        <ele>818.80</ele>
        <time>2013-02-07T16:03:21.31Z</time>
      </trkpt>
      <trkpt lat="42.320995" lon="2.428146">
        <ele>819.20</ele>
        <time>2013-02-07T16:45:26.97Z</time>
      </trkpt>
      <trkpt lat="42.321011" lon="2.428131">
        <ele>819.60</ele>
        <time>2013-02-07T17:21:49.23Z</time>
      </trkpt>
      <trkpt lat="42.321079" lon="2.428126">
        <ele>820.00</ele>
        <time>2013-02-07T19:29:02.88Z</time>
      </trkpt>
      <trkpt lat="42.321101" lon="2.428136">
        <ele>820.40</ele>
        <time>2013-02-07T20:12:24.49Z</time>
      </trkpt>
      <trkpt lat="42.321118" lon="2.428152">
        <ele>820.80</ele>
        <time>2013-02-07T20:51:06.09Z</time>
      </trkpt>
      <trkpt lat="42.321132" lon="2.428172">
        <ele>821.20</ele>
        <time>2013-02-07T21:29:08.72Z</time>
      </trkpt>
      <trkpt lat="42.321133" lon="2.428194">
        <ele>821.60</ele>
        <time>2013-02-07T21:59:35.53Z</time>
      </trkpt>
      <trkpt lat="42.321132" lon="2.428219">
        <ele>822.20</ele>
        <time>2013-02-07T22:34:10.57Z</time>
      </trkpt>
      <trkpt lat="42.321130" lon="2.428252">
        <ele>822.60</ele>
        <time>2013-02-07T23:19:54.80Z</time>
      </trkpt>
      <trkpt lat="42.321125" lon="2.428285">
        <ele>823.00</ele>
        <time>2013-02-08T00:06:26.69Z</time>
      </trkpt>
      <trkpt lat="42.321118" lon="2.428319">
        <ele>823.60</ele>
        <time>2013-02-08T00:55:11.83Z</time>
      </trkpt>
      <trkpt lat="42.321112" lon="2.428354">
        <ele>824.00</ele>
        <time>2013-02-08T01:44:49.59Z</time>
      </trkpt>
      <trkpt lat="42.321110" lon="2.428461">
        <ele>824.00</ele>
        <time>2013-02-08T04:12:40.62Z</time>
      </trkpt>
      <trkpt lat="42.321119" lon="2.428486">
        <ele>824.40</ele>
        <time>2013-02-08T04:51:05.18Z</time>
      </trkpt>
      <trkpt lat="42.321137" lon="2.428506">
        <ele>824.80</ele>
        <time>2013-02-08T05:34:36.46Z</time>
      </trkpt>
      <trkpt lat="42.321174" lon="2.428502">
        <ele>825.20</ele>
        <time>2013-02-08T06:43:57.16Z</time>
      </trkpt>
      <trkpt lat="42.321199" lon="2.428492">
        <ele>825.60</ele>
        <time>2013-02-08T07:32:39.51Z</time>
      </trkpt>
      <trkpt lat="42.321219" lon="2.428479">
        <ele>826.20</ele>
        <time>2013-02-08T08:14:06.86Z</time>
      </trkpt>
      <trkpt lat="42.321287" lon="2.428372">
        <ele>826.60</ele>
        <time>2013-02-08T11:29:00.68Z</time>
      </trkpt>
      <trkpt lat="42.321304" lon="2.428341">
        <ele>827.20</ele>
        <time>2013-02-08T12:22:19.51Z</time>
      </trkpt>
      <trkpt lat="42.321314" lon="2.428313">
        <ele>827.60</ele>
        <time>2013-02-08T13:05:16.70Z</time>
      </trkpt>
      <trkpt lat="42.321323" lon="2.428283">
        <ele>828.20</ele>
        <time>2013-02-08T13:49:59.98Z</time>
      </trkpt>
      <trkpt lat="42.321330" lon="2.428251">
        <ele>828.60</ele>
        <time>2013-02-08T14:36:05.78Z</time>
      </trkpt>
      <trkpt lat="42.321339" lon="2.428184">
        <ele>829.00</ele>
        <time>2013-02-08T16:10:09.65Z</time>
      </trkpt>
      <trkpt lat="42.321335" lon="2.428150">
        <ele>829.40</ele>
        <time>2013-02-08T16:57:43.02Z</time>
      </trkpt>
      <trkpt lat="42.321329" lon="2.428117">
        <ele>830.00</ele>
        <time>2013-02-08T17:44:39.54Z</time>
      </trkpt>
      <trkpt lat="42.321321" lon="2.428083">
        <ele>830.40</ele>
        <time>2013-02-08T18:33:56.72Z</time>
      </trkpt>
      <trkpt lat="42.321309" lon="2.428048">
        <ele>830.80</ele>
        <time>2013-02-08T19:27:14.22Z</time>
      </trkpt>
      <trkpt lat="42.321298" lon="2.428016">
        <ele>830.80</ele>
        <time>2013-02-08T20:15:59Z</time>
      </trkpt>
      <trkpt lat="42.321258" lon="2.427953">
        <ele>830.80</ele>
        <time>2013-02-08T22:10:41.42Z</time>
      </trkpt>
      <trkpt lat="42.321224" lon="2.427891">
        <ele>831.20</ele>
        <time>2013-02-08T23:57:19.09Z</time>
      </trkpt>
      <trkpt lat="42.321202" lon="2.427864">
        <ele>831.60</ele>
        <time>2013-02-09T00:52:49.12Z</time>
      </trkpt>
      <trkpt lat="42.321190" lon="2.427831">
        <ele>832.20</ele>
        <time>2013-02-09T01:43:37.05Z</time>
      </trkpt>
      <trkpt lat="42.321188" lon="2.427793">
        <ele>832.60</ele>
        <time>2013-02-09T02:36:14.47Z</time>
      </trkpt>
      <trkpt lat="42.321190" lon="2.427757">
        <ele>833.00</ele>
        <time>2013-02-09T03:26:06.57Z</time>
      </trkpt>
      <trkpt lat="42.321193" lon="2.427723">
        <ele>833.00</ele>
        <time>2013-02-09T04:13:24.49Z</time>
      </trkpt>
      <trkpt lat="42.321219" lon="2.427669">
        <ele>833.60</ele>
        <time>2013-02-09T05:42:25.32Z</time>
      </trkpt>
      <trkpt lat="42.321237" lon="2.427646">
        <ele>834.00</ele>
        <time>2013-02-09T06:28:41.08Z</time>
      </trkpt>
      <trkpt lat="42.321257" lon="2.427624">
        <ele>834.40</ele>
        <time>2013-02-09T07:16:50.84Z</time>
      </trkpt>
      <trkpt lat="42.321283" lon="2.427607">
        <ele>834.80</ele>
        <time>2013-02-09T08:10:47.99Z</time>
      </trkpt>
      <trkpt lat="42.321302" lon="2.427592">
        <ele>835.20</ele>
        <time>2013-02-09T08:51:54.07Z</time>
      </trkpt>
      <trkpt lat="42.321349" lon="2.427570">
        <ele>835.60</ele>
        <time>2013-02-09T10:24:49.09Z</time>
      </trkpt>
      <trkpt lat="42.321365" lon="2.427568">
        <ele>836.00</ele>
        <time>2013-02-09T10:54:50.24Z</time>
      </trkpt>
      <trkpt lat="42.321379" lon="2.427559">
        <ele>836.40</ele>
        <time>2013-02-09T11:23:47.81Z</time>
      </trkpt>
      <trkpt lat="42.321391" lon="2.427547">
        <ele>836.80</ele>
        <time>2013-02-09T11:51:40.69Z</time>
      </trkpt>
      <trkpt lat="42.321409" lon="2.427536">
        <ele>837.20</ele>
        <time>2013-02-09T12:28:34.79Z</time>
      </trkpt>
      <trkpt lat="42.321462" lon="2.427526">
        <ele>837.20</ele>
        <time>2013-02-09T14:08:33.30Z</time>
      </trkpt>
      <trkpt lat="42.321529" lon="2.427508">
        <ele>837.60</ele>
        <time>2013-02-09T16:16:10.34Z</time>
      </trkpt>
      <trkpt lat="42.321553" lon="2.427498">
        <ele>838.00</ele>
        <time>2013-02-09T17:03:05.36Z</time>
      </trkpt>
      <trkpt lat="42.321577" lon="2.427494">
        <ele>838.40</ele>
        <time>2013-02-09T17:48:15.97Z</time>
      </trkpt>
      <trkpt lat="42.321602" lon="2.427496">
        <ele>838.80</ele>
        <time>2013-02-09T18:35:03.22Z</time>
      </trkpt>
      <trkpt lat="42.321625" lon="2.427491">
        <ele>839.20</ele>
        <time>2013-02-09T19:18:34.47Z</time>
      </trkpt>
      <trkpt lat="42.321745" lon="2.427403">
        <ele>839.60</ele>
        <time>2013-02-09T23:33:35.81Z</time>
      </trkpt>
      <trkpt lat="42.321756" lon="2.427392">
        <ele>840.20</ele>
        <time>2013-02-09T23:59:09.27Z</time>
      </trkpt>
      <trkpt lat="42.321776" lon="2.427386">
        <ele>840.60</ele>
        <time>2013-02-10T00:37:25.64Z</time>
      </trkpt>
      <trkpt lat="42.321797" lon="2.427373">
        <ele>841.00</ele>
        <time>2013-02-10T01:20:34.48Z</time>
      </trkpt>
      <trkpt lat="42.321820" lon="2.427357">
        <ele>841.40</ele>
        <time>2013-02-10T02:08:53.68Z</time>
      </trkpt>
      <trkpt lat="42.321912" lon="2.427339">
        <ele>841.40</ele>
        <time>2013-02-10T05:02:33.67Z</time>
      </trkpt>
      <trkpt lat="42.321934" lon="2.427337">
        <ele>842.40</ele>
        <time>2013-02-10T05:43:45.31Z</time>
      </trkpt>
      <trkpt lat="42.321961" lon="2.427342">
        <ele>843.00</ele>
        <time>2013-02-10T06:34:40.08Z</time>
      </trkpt>
      <trkpt lat="42.321987" lon="2.427356">
        <ele>843.40</ele>
        <time>2013-02-10T07:26:57.01Z</time>
      </trkpt>
      <trkpt lat="42.322010" lon="2.427378">
        <ele>844.00</ele>
        <time>2013-02-10T08:19:34.78Z</time>
      </trkpt>
      <trkpt lat="42.322024" lon="2.427403">
        <ele>844.00</ele>
        <time>2013-02-10T09:02:53.98Z</time>
      </trkpt>
      <trkpt lat="42.321976" lon="2.427530">
        <ele>844.40</ele>
        <time>2013-02-10T12:19:55.13Z</time>
      </trkpt>
      <trkpt lat="42.321952" lon="2.427556">
        <ele>845.00</ele>
        <time>2013-02-10T13:17:22Z</time>
      </trkpt>
      <trkpt lat="42.321927" lon="2.427585">
        <ele>845.40</ele>
        <time>2013-02-10T14:18:53.88Z</time>
      </trkpt>
      <trkpt lat="42.321902" lon="2.427605">
        <ele>845.80</ele>
        <time>2013-02-10T15:13:09.76Z</time>
      </trkpt>
      <trkpt lat="42.321876" lon="2.427626">
        <ele>846.40</ele>
        <time>2013-02-10T16:09:44.34Z</time>
      </trkpt>
      <trkpt lat="42.321853" lon="2.427641">
        <ele>846.40</ele>
        <time>2013-02-10T16:57:26.59Z</time>
      </trkpt>
      <trkpt lat="42.321824" lon="2.427651">
        <ele>846.80</ele>
        <time>2013-02-10T17:53:21.30Z</time>
      </trkpt>
      <trkpt lat="42.321795" lon="2.427656">
        <ele>847.20</ele>
        <time>2013-02-10T18:47:58.34Z</time>
      </trkpt>
      <trkpt lat="42.321762" lon="2.427667">
        <ele>847.60</ele>
        <time>2013-02-10T19:51:28.13Z</time>
      </trkpt>
      <trkpt lat="42.321742" lon="2.427689">
        <ele>848.00</ele>
        <time>2013-02-10T20:39:37.87Z</time>
      </trkpt>
      <trkpt lat="42.321718" lon="2.427714">
        <ele>848.40</ele>
        <time>2013-02-10T21:36:13.55Z</time>
      </trkpt>
      <trkpt lat="42.321700" lon="2.427801">
        <ele>848.80</ele>
        <time>2013-02-10T23:41:01.06Z</time>
      </trkpt>
      <trkpt lat="42.321699" lon="2.427842">
        <ele>849.20</ele>
        <time>2013-02-11T00:37:40.97Z</time>
      </trkpt>
      <trkpt lat="42.321721" lon="2.427884">
        <ele>849.60</ele>
        <time>2013-02-11T01:48:46.94Z</time>
      </trkpt>
      <trkpt lat="42.321733" lon="2.427910">
        <ele>850.00</ele>
        <time>2013-02-11T02:31:07.18Z</time>
      </trkpt>
      <trkpt lat="42.321753" lon="2.427932">
        <ele>850.40</ele>
        <time>2013-02-11T03:19:16.93Z</time>
      </trkpt>
      <trkpt lat="42.321812" lon="2.427950">
        <ele>850.80</ele>
        <time>2013-02-11T05:12:16.65Z</time>
      </trkpt>
      <trkpt lat="42.321834" lon="2.427951">
        <ele>851.40</ele>
        <time>2013-02-11T05:53:24.11Z</time>
      </trkpt>
      <trkpt lat="42.321854" lon="2.427947">
        <ele>851.80</ele>
        <time>2013-02-11T06:31:10.36Z</time>
      </trkpt>
      <trkpt lat="42.321875" lon="2.427952">
        <ele>852.20</ele>
        <time>2013-02-11T07:11:00.54Z</time>
      </trkpt>
      <trkpt lat="42.321896" lon="2.427954">
        <ele>852.60</ele>
        <time>2013-02-11T07:50:20.34Z</time>
      </trkpt>
      <trkpt lat="42.321940" lon="2.427946">
        <ele>853.00</ele>
        <time>2013-02-11T09:13:16.84Z</time>
      </trkpt>
      <trkpt lat="42.321959" lon="2.427946">
        <ele>853.40</ele>
        <time>2013-02-11T09:48:46.63Z</time>
      </trkpt>
      <trkpt lat="42.321970" lon="2.427942">
        <ele>853.80</ele>
        <time>2013-02-11T10:10:03.45Z</time>
      </trkpt>
      <trkpt lat="42.321972" lon="2.427945">
        <ele>854.20</ele>
        <time>2013-02-11T10:26:52.30Z</time>
      </trkpt>
      <trkpt lat="42.321974" lon="2.427946">
        <ele>854.60</ele>
        <time>2013-02-11T10:43:41.14Z</time>
      </trkpt>
      <trkpt lat="42.321999" lon="2.427941">
        <ele>854.60</ele>
        <time>2013-02-11T11:30:53.97Z</time>
      </trkpt>
      <trkpt lat="42.322016" lon="2.427959">
        <ele>854.60</ele>
        <time>2013-02-11T12:11:14.06Z</time>
      </trkpt>
      <trkpt lat="42.322088" lon="2.427955">
        <ele>855.00</ele>
        <time>2013-02-11T14:25:51.63Z</time>
      </trkpt>
      <trkpt lat="42.322114" lon="2.427944">
        <ele>855.40</ele>
        <time>2013-02-11T15:16:45.34Z</time>
      </trkpt>
      <trkpt lat="42.322138" lon="2.427934">
        <ele>855.80</ele>
        <time>2013-02-11T16:03:40.37Z</time>
      </trkpt>
      <trkpt lat="42.322156" lon="2.427916">
        <ele>856.40</ele>
        <time>2013-02-11T16:45:29.67Z</time>
      </trkpt>
      <trkpt lat="42.322174" lon="2.427898">
        <ele>856.80</ele>
        <time>2013-02-11T17:27:18.98Z</time>
      </trkpt>
      <trkpt lat="42.322229" lon="2.427849">
        <ele>857.20</ele>
        <time>2013-02-11T19:30:21.50Z</time>
      </trkpt>
      <trkpt lat="42.322243" lon="2.427825">
        <ele>857.80</ele>
        <time>2013-02-11T20:12:35.12Z</time>
      </trkpt>
      <trkpt lat="42.322257" lon="2.427803">
        <ele>858.20</ele>
        <time>2013-02-11T20:52:40.81Z</time>
      </trkpt>
      <trkpt lat="42.322271" lon="2.427784">
        <ele>858.80</ele>
        <time>2013-02-11T21:29:43.96Z</time>
      </trkpt>
      <trkpt lat="42.322282" lon="2.427767">
        <ele>859.20</ele>
        <time>2013-02-11T22:00:56.26Z</time>
      </trkpt>
      <trkpt lat="42.322297" lon="2.427754">
        <ele>859.60</ele>
        <time>2013-02-11T22:34:13.25Z</time>
      </trkpt>
      <trkpt lat="42.322325" lon="2.427748">
        <ele>860.20</ele>
        <time>2013-02-11T23:27:11.03Z</time>
      </trkpt>
      <trkpt lat="42.322350" lon="2.427744">
        <ele>860.60</ele>
        <time>2013-02-12T00:14:12.93Z</time>
      </trkpt>
      <trkpt lat="42.322379" lon="2.427743">
        <ele>861.00</ele>
        <time>2013-02-12T01:08:24.71Z</time>
      </trkpt>
      <trkpt lat="42.322404" lon="2.427742">
        <ele>861.40</ele>
        <time>2013-02-12T01:55:08.28Z</time>
      </trkpt>
      <trkpt lat="42.322431" lon="2.427740">
        <ele>861.40</ele>
        <time>2013-02-12T02:45:39.36Z</time>
      </trkpt>
      <trkpt lat="42.322454" lon="2.427735">
        <ele>862.00</ele>
        <time>2013-02-12T03:29:10.61Z</time>
      </trkpt>
      <trkpt lat="42.322478" lon="2.427743">
        <ele>862.40</ele>
        <time>2013-02-12T04:15:21.37Z</time>
      </trkpt>
      <trkpt lat="42.322503" lon="2.427752">
        <ele>862.80</ele>
        <time>2013-02-12T05:03:41.29Z</time>
      </trkpt>
      <trkpt lat="42.322532" lon="2.427757">
        <ele>863.20</ele>
        <time>2013-02-12T05:58:18.32Z</time>
      </trkpt>
      <trkpt lat="42.322556" lon="2.427760">
        <ele>863.80</ele>
        <time>2013-02-12T06:43:20.04Z</time>
      </trkpt>
      <trkpt lat="42.322615" lon="2.427755">
        <ele>864.20</ele>
        <time>2013-02-12T08:33:46.56Z</time>
      </trkpt>
      <trkpt lat="42.322635" lon="2.427745">
        <ele>864.60</ele>
        <time>2013-02-12T09:13:36.73Z</time>
      </trkpt>
      <trkpt lat="42.322654" lon="2.427733">
        <ele>865.00</ele>
        <time>2013-02-12T09:52:47.28Z</time>
      </trkpt>
      <trkpt lat="42.322676" lon="2.427719">
        <ele>865.60</ele>
        <time>2013-02-12T10:38:12.68Z</time>
      </trkpt>
      <trkpt lat="42.322697" lon="2.427692">
        <ele>866.00</ele>
        <time>2013-02-12T11:32:20.53Z</time>
      </trkpt>
      <trkpt lat="42.322759" lon="2.427627">
        <ele>866.40</ele>
        <time>2013-02-12T13:58:53.76Z</time>
      </trkpt>
      <trkpt lat="42.322774" lon="2.427602">
        <ele>866.80</ele>
        <time>2013-02-12T14:43:22.12Z</time>
      </trkpt>
      <trkpt lat="42.322788" lon="2.427578">
        <ele>867.40</ele>
        <time>2013-02-12T15:25:35.73Z</time>
      </trkpt>
      <trkpt lat="42.322815" lon="2.427556">
        <ele>867.80</ele>
        <time>2013-02-12T16:24:29.06Z</time>
      </trkpt>
      <trkpt lat="42.322836" lon="2.427536">
        <ele>868.20</ele>
        <time>2013-02-12T17:12:28.07Z</time>
      </trkpt>
      <trkpt lat="42.322875" lon="2.427489">
        <ele>868.60</ele>
        <time>2013-02-12T18:50:03.38Z</time>
      </trkpt>
      <trkpt lat="42.322888" lon="2.427481">
        <ele>869.00</ele>
        <time>2013-02-12T19:16:44.34Z</time>
      </trkpt>
      <trkpt lat="42.322904" lon="2.427479">
        <ele>869.60</ele>
        <time>2013-02-12T19:46:45.49Z</time>
      </trkpt>
      <trkpt lat="42.322927" lon="2.427485">
        <ele>870.00</ele>
        <time>2013-02-12T20:30:31.17Z</time>
      </trkpt>
      <trkpt lat="42.322950" lon="2.427491">
        <ele>870.40</ele>
        <time>2013-02-12T21:14:16.85Z</time>
      </trkpt>
      <trkpt lat="42.322986" lon="2.427508">
        <ele>870.80</ele>
        <time>2013-02-12T22:25:31.12Z</time>
      </trkpt>
      <trkpt lat="42.323007" lon="2.427520">
        <ele>871.20</ele>
        <time>2013-02-12T23:08:06.57Z</time>
      </trkpt>
      <trkpt lat="42.323034" lon="2.427535">
        <ele>871.60</ele>
        <time>2013-02-13T00:02:38.48Z</time>
      </trkpt>
      <trkpt lat="42.323062" lon="2.427549">
        <ele>872.00</ele>
        <time>2013-02-13T00:58:24.71Z</time>
      </trkpt>
      <trkpt lat="42.323092" lon="2.427558">
        <ele>872.40</ele>
        <time>2013-02-13T01:55:49.26Z</time>
      </trkpt>
      <trkpt lat="42.323151" lon="2.427577">
        <ele>872.80</ele>
        <time>2013-02-13T03:49:07.69Z</time>
      </trkpt>
      <trkpt lat="42.323184" lon="2.427580">
        <ele>873.20</ele>
        <time>2013-02-13T04:50:55.14Z</time>
      </trkpt>
      <trkpt lat="42.323213" lon="2.427586">
        <ele>873.80</ele>
        <time>2013-02-13T05:45:43.68Z</time>
      </trkpt>
      <trkpt lat="42.323242" lon="2.427591">
        <ele>874.20</ele>
        <time>2013-02-13T06:40:20.71Z</time>
      </trkpt>
      <trkpt lat="42.323269" lon="2.427584">
        <ele>874.60</ele>
        <time>2013-02-13T07:31:42.35Z</time>
      </trkpt>
      <trkpt lat="42.323284" lon="2.427571">
        <ele>874.60</ele>
        <time>2013-02-13T08:04:59.33Z</time>
      </trkpt>
      <trkpt lat="42.323300" lon="2.427543">
        <ele>874.60</ele>
        <time>2013-02-13T08:53:52.20Z</time>
      </trkpt>
      <trkpt lat="42.323307" lon="2.427428">
        <ele>875.00</ele>
        <time>2013-02-13T11:33:15.36Z</time>
      </trkpt>
      <trkpt lat="42.323298" lon="2.427391">
        <ele>875.40</ele>
        <time>2013-02-13T12:27:03.52Z</time>
      </trkpt>
      <trkpt lat="42.323282" lon="2.427308">
        <ele>875.80</ele>
        <time>2013-02-13T14:25:32.32Z</time>
      </trkpt>
      <trkpt lat="42.323260" lon="2.427273">
        <ele>876.20</ele>
        <time>2013-02-13T15:28:59.63Z</time>
      </trkpt>
      <trkpt lat="42.323234" lon="2.427259">
        <ele>876.60</ele>
        <time>2013-02-13T16:21:16.55Z</time>
      </trkpt>
      <trkpt lat="42.323216" lon="2.427248">
        <ele>876.60</ele>
        <time>2013-02-13T16:58:10.64Z</time>
      </trkpt>
      <trkpt lat="42.323200" lon="2.427229">
        <ele>877.00</ele>
        <time>2013-02-13T17:37:57.32Z</time>
      </trkpt>
      <trkpt lat="42.323188" lon="2.427195">
        <ele>877.40</ele>
        <time>2013-02-13T18:29:59.76Z</time>
      </trkpt>
      <trkpt lat="42.323174" lon="2.427163">
        <ele>877.80</ele>
        <time>2013-02-13T19:21:21.37Z</time>
      </trkpt>
      <trkpt lat="42.323159" lon="2.427126">
        <ele>878.20</ele>
        <time>2013-02-13T20:19:38.57Z</time>
      </trkpt>
      <trkpt lat="42.323140" lon="2.427090">
        <ele>878.60</ele>
        <time>2013-02-13T21:20:44.33Z</time>
      </trkpt>
      <trkpt lat="42.323107" lon="2.427033">
        <ele>878.60</ele>
        <time>2013-02-13T23:00:44.32Z</time>
      </trkpt>
      <trkpt lat="42.323080" lon="2.426978">
        <ele>879.00</ele>
        <time>2013-02-14T00:31:55.87Z</time>
      </trkpt>
      <trkpt lat="42.323067" lon="2.426952">
        <ele>879.40</ele>
        <time>2013-02-14T01:15:17.17Z</time>
      </trkpt>
      <trkpt lat="42.323053" lon="2.426925">
        <ele>879.80</ele>
        <time>2013-02-14T02:00:50.31Z</time>
      </trkpt>
      <trkpt lat="42.323039" lon="2.426893">
        <ele>880.20</ele>
        <time>2013-02-14T02:52:11.92Z</time>
      </trkpt>
      <trkpt lat="42.323026" lon="2.426860">
        <ele>880.60</ele>
        <time>2013-02-14T03:43:50.88Z</time>
      </trkpt>
      <trkpt lat="42.323001" lon="2.426812">
        <ele>881.20</ele>
        <time>2013-02-14T05:04:56.97Z</time>
      </trkpt>
      <trkpt lat="42.322991" lon="2.426787">
        <ele>881.60</ele>
        <time>2013-02-14T05:44:12.70Z</time>
      </trkpt>
      <trkpt lat="42.322976" lon="2.426749">
        <ele>882.00</ele>
        <time>2013-02-14T06:43:42.80Z</time>
      </trkpt>
      <trkpt lat="42.322975" lon="2.426719">
        <ele>882.40</ele>
        <time>2013-02-14T07:25:11.66Z</time>
      </trkpt>
      <trkpt lat="42.322979" lon="2.426690">
        <ele>882.80</ele>
        <time>2013-02-14T08:05:56.59Z</time>
      </trkpt>
      <trkpt lat="42.323008" lon="2.426590">
        <ele>883.20</ele>
        <time>2013-02-14T10:34:19.10Z</time>
      </trkpt>
      <trkpt lat="42.323019" lon="2.426558">
        <ele>883.80</ele>
        <time>2013-02-14T11:23:03.82Z</time>
      </trkpt>
      <trkpt lat="42.323028" lon="2.426527">
        <ele>884.20</ele>
        <time>2013-02-14T12:09:04.01Z</time>
      </trkpt>
      <trkpt lat="42.323036" lon="2.426497">
        <ele>884.60</ele>
        <time>2013-02-14T12:53:07.12Z</time>
      </trkpt>
      <trkpt lat="42.323041" lon="2.426468">
        <ele>885.00</ele>
        <time>2013-02-14T13:34:15.06Z</time>
      </trkpt>
      <trkpt lat="42.323047" lon="2.426408">
        <ele>885.40</ele>
        <time>2013-02-14T14:57:53.01Z</time>
      </trkpt>
      <trkpt lat="42.323056" lon="2.426377">
        <ele>885.80</ele>
        <time>2013-02-14T15:43:53.19Z</time>
      </trkpt>
      <trkpt lat="42.323059" lon="2.426347">
        <ele>886.20</ele>
        <time>2013-02-14T16:25:42.17Z</time>
      </trkpt>
      <trkpt lat="42.323056" lon="2.426309">
        <ele>886.80</ele>
        <time>2013-02-14T17:18:29.43Z</time>
      </trkpt>
      <trkpt lat="42.323051" lon="2.426286">
        <ele>887.20</ele>
        <time>2013-02-14T17:51:36.31Z</time>
      </trkpt>
      <trkpt lat="42.323024" lon="2.426241">
        <ele>887.20</ele>
        <time>2013-02-14T19:11:39.34Z</time>
      </trkpt>
      <trkpt lat="42.323000" lon="2.426175">
        <ele>887.60</ele>
        <time>2013-02-14T20:53:15.06Z</time>
      </trkpt>
      <trkpt lat="42.322970" lon="2.426140">
        <ele>888.00</ele>
        <time>2013-02-14T22:07:16.09Z</time>
      </trkpt>
      <trkpt lat="42.322941" lon="2.426113">
        <ele>888.40</ele>
        <time>2013-02-14T23:13:02.55Z</time>
      </trkpt>
      <trkpt lat="42.322909" lon="2.426088">
        <ele>889.00</ele>
        <time>2013-02-15T00:22:04.97Z</time>
      </trkpt>
      <trkpt lat="42.322889" lon="2.426075">
        <ele>889.40</ele>
        <time>2013-02-15T01:03:32.30Z</time>
      </trkpt>
      <trkpt lat="42.322817" lon="2.426014">
        <ele>889.80</ele>
        <time>2013-02-15T03:42:15.75Z</time>
      </trkpt>
      <trkpt lat="42.322792" lon="2.425991">
        <ele>890.20</ele>
        <time>2013-02-15T04:38:44.96Z</time>
      </trkpt>
      <trkpt lat="42.322773" lon="2.425970">
        <ele>890.80</ele>
        <time>2013-02-15T05:24:35.44Z</time>
      </trkpt>
      <trkpt lat="42.322757" lon="2.425954">
        <ele>891.20</ele>
        <time>2013-02-15T06:01:45.93Z</time>
      </trkpt>
      <trkpt lat="42.322737" lon="2.425935">
        <ele>891.60</ele>
        <time>2013-02-15T06:47:25.58Z</time>
      </trkpt>
      <trkpt lat="42.322647" lon="2.425850">
        <ele>892.20</ele>
        <time>2013-02-15T10:12:30.22Z</time>
      </trkpt>
      <trkpt lat="42.322626" lon="2.425828">
        <ele>892.60</ele>
        <time>2013-02-15T11:02:07.75Z</time>
      </trkpt>
      <trkpt lat="42.322608" lon="2.425801">
        <ele>893.00</ele>
        <time>2013-02-15T11:52:20.80Z</time>
      </trkpt>
      <trkpt lat="42.322592" lon="2.425770">
        <ele>893.60</ele>
        <time>2013-02-15T12:44:34.11Z</time>
      </trkpt>
      <trkpt lat="42.322584" lon="2.425735">
        <ele>894.00</ele>
        <time>2013-02-15T13:35:10.30Z</time>
      </trkpt>
      <trkpt lat="42.322577" lon="2.425675">
        <ele>894.40</ele>
        <time>2013-02-15T14:59:04.54Z</time>
      </trkpt>
      <trkpt lat="42.322568" lon="2.425633">
        <ele>894.80</ele>
        <time>2013-02-15T15:59:28.68Z</time>
      </trkpt>
      <trkpt lat="42.322557" lon="2.425573">
        <ele>895.20</ele>
        <time>2013-02-15T17:24:51.98Z</time>
      </trkpt>
      <trkpt lat="42.322561" lon="2.425528">
        <ele>895.80</ele>
        <time>2013-02-15T18:27:28.37Z</time>
      </trkpt>
      <trkpt lat="42.322558" lon="2.425484">
        <ele>896.20</ele>
        <time>2013-02-15T19:28:30.50Z</time>
      </trkpt>
      <trkpt lat="42.322549" lon="2.425390">
        <ele>896.20</ele>
        <time>2013-02-15T21:39:26.13Z</time>
      </trkpt>
      <trkpt lat="42.322549" lon="2.425308">
        <ele>896.60</ele>
        <time>2013-02-15T23:32:42.17Z</time>
      </trkpt>
      <trkpt lat="42.322552" lon="2.425268">
        <ele>897.00</ele>
        <time>2013-02-16T00:28:14.32Z</time>
      </trkpt>
      <trkpt lat="42.322549" lon="2.425225">
        <ele>897.40</ele>
        <time>2013-02-16T01:27:53.93Z</time>
      </trkpt>
      <trkpt lat="42.322545" lon="2.425182">
        <ele>897.80</ele>
        <time>2013-02-16T02:27:45.80Z</time>
      </trkpt>
      <trkpt lat="42.322545" lon="2.425144">
        <ele>898.20</ele>
        <time>2013-02-16T03:20:15.18Z</time>
      </trkpt>
      <trkpt lat="42.322531" lon="2.424983">
        <ele>898.60</ele>
        <time>2013-02-16T07:04:10.59Z</time>
      </trkpt>
      <trkpt lat="42.322515" lon="2.424946">
        <ele>899.00</ele>
        <time>2013-02-16T08:03:23.07Z</time>
      </trkpt>
      <trkpt lat="42.322496" lon="2.424924">
        <ele>899.60</ele>
        <time>2013-02-16T08:50:06.73Z</time>
      </trkpt>
      <trkpt lat="42.322473" lon="2.424906">
        <ele>900.00</ele>
        <time>2013-02-16T09:39:45.40Z</time>
      </trkpt>
      <trkpt lat="42.322450" lon="2.424899">
        <ele>900.40</ele>
        <time>2013-02-16T10:23:48.03Z</time>
      </trkpt>
      <trkpt lat="42.322302" lon="2.424891">
        <ele>900.40</ele>
        <time>2013-02-16T15:00:31.18Z</time>
      </trkpt>
      <trkpt lat="42.322262" lon="2.424887">
        <ele>900.80</ele>
        <time>2013-02-16T16:15:27.18Z</time>
      </trkpt>
      <trkpt lat="42.322232" lon="2.424873">
        <ele>901.40</ele>
        <time>2013-02-16T17:14:44.55Z</time>
      </trkpt>
      <trkpt lat="42.322207" lon="2.424854">
        <ele>901.80</ele>
        <time>2013-02-16T18:08:19.02Z</time>
      </trkpt>
      <trkpt lat="42.322182" lon="2.424837">
        <ele>902.20</ele>
        <time>2013-02-16T19:00:35.63Z</time>
      </trkpt>
      <trkpt lat="42.322149" lon="2.424811">
        <ele>902.60</ele>
        <time>2013-02-16T20:11:56.61Z</time>
      </trkpt>
      <trkpt lat="42.322031" lon="2.424674">
        <ele>903.00</ele>
        <time>2013-02-17T01:02:28.74Z</time>
      </trkpt>
      <trkpt lat="42.322003" lon="2.424637">
        <ele>903.40</ele>
        <time>2013-02-17T02:15:36.75Z</time>
      </trkpt>
      <trkpt lat="42.321973" lon="2.424615">
        <ele>903.80</ele>
        <time>2013-02-17T03:19:22.08Z</time>
      </trkpt>
      <trkpt lat="42.321937" lon="2.424606">
        <ele>904.20</ele>
        <time>2013-02-17T04:27:45.82Z</time>
      </trkpt>
      <trkpt lat="42.321905" lon="2.424608">
        <ele>904.60</ele>
        <time>2013-02-17T05:27:36.66Z</time>
      </trkpt>
      <trkpt lat="42.321743" lon="2.424712">
        <ele>904.60</ele>
        <time>2013-02-17T11:02:37.72Z</time>
      </trkpt>
      <trkpt lat="42.321721" lon="2.424728">
        <ele>905.00</ele>
        <time>2013-02-17T11:49:17.71Z</time>
      </trkpt>
      <trkpt lat="42.321693" lon="2.424750">
        <ele>905.60</ele>
        <time>2013-02-17T12:49:47.54Z</time>
      </trkpt>
      <trkpt lat="42.321668" lon="2.424759">
        <ele>906.20</ele>
        <time>2013-02-17T13:38:07.46Z</time>
      </trkpt>
      <trkpt lat="42.321637" lon="2.424760">
        <ele>906.60</ele>
        <time>2013-02-17T14:36:03.37Z</time>
      </trkpt>
      <trkpt lat="42.321608" lon="2.424754">
        <ele>907.20</ele>
        <time>2013-02-17T15:30:51.91Z</time>
      </trkpt>
      <trkpt lat="42.321512" lon="2.424728">
        <ele>907.60</ele>
        <time>2013-02-17T18:33:46.57Z</time>
      </trkpt>
      <trkpt lat="42.321483" lon="2.424708">
        <ele>908.20</ele>
        <time>2013-02-17T19:34:35.52Z</time>
      </trkpt>
      <trkpt lat="42.321459" lon="2.424688">
        <ele>908.60</ele>
        <time>2013-02-17T20:27:15.44Z</time>
      </trkpt>
      <trkpt lat="42.321434" lon="2.424665">
        <ele>909.00</ele>
        <time>2013-02-17T21:23:44.68Z</time>
      </trkpt>
      <trkpt lat="42.321407" lon="2.424644">
        <ele>909.60</ele>
        <time>2013-02-17T22:21:55.98Z</time>
      </trkpt>
      <trkpt lat="42.321382" lon="2.424628">
        <ele>909.60</ele>
        <time>2013-02-17T23:13:36.25Z</time>
      </trkpt>
      <trkpt lat="42.321300" lon="2.424639">
        <ele>910.00</ele>
        <time>2013-02-18T01:47:33.06Z</time>
      </trkpt>
      <trkpt lat="42.321271" lon="2.424654">
        <ele>910.40</ele>
        <time>2013-02-18T02:45:33.40Z</time>
      </trkpt>
      <trkpt lat="42.321247" lon="2.424675">
        <ele>910.80</ele>
        <time>2013-02-18T03:38:57.58Z</time>
      </trkpt>
      <trkpt lat="42.321225" lon="2.424706">
        <ele>911.40</ele>
        <time>2013-02-18T04:38:18.86Z</time>
      </trkpt>
      <trkpt lat="42.321210" lon="2.424744">
        <ele>911.80</ele>
        <time>2013-02-18T05:37:49.04Z</time>
      </trkpt>
      <trkpt lat="42.321166" lon="2.424852">
        <ele>911.80</ele>
        <time>2013-02-18T08:28:09Z</time>
      </trkpt>
      <trkpt lat="42.321062" lon="2.424836">
        <ele>912.20</ele>
        <time>2013-02-18T11:43:41.96Z</time>
      </trkpt>
      <trkpt lat="42.321031" lon="2.424803">
        <ele>912.60</ele>
        <time>2013-02-18T12:57:24.13Z</time>
      </trkpt>
      <trkpt lat="42.321003" lon="2.424775">
        <ele>913.20</ele>
        <time>2013-02-18T14:02:27.52Z</time>
      </trkpt>
      <trkpt lat="42.320976" lon="2.424746">
        <ele>913.60</ele>
        <time>2013-02-18T15:06:52.35Z</time>
      </trkpt>
      <trkpt lat="42.320949" lon="2.424716">
        <ele>914.00</ele>
        <time>2013-02-18T16:12:09.26Z</time>
      </trkpt>
      <trkpt lat="42.320920" lon="2.424689">
        <ele>914.00</ele>
        <time>2013-02-18T17:17:55.76Z</time>
      </trkpt>
      <trkpt lat="42.320734" lon="2.424543">
        <ele>914.00</ele>
        <time>2013-02-18T23:59:42.31Z</time>
      </trkpt>
      <trkpt lat="42.320656" lon="2.424474">
        <ele>914.40</ele>
        <time>2013-02-19T02:53:49.81Z</time>
      </trkpt>
      <trkpt lat="42.320629" lon="2.424450">
        <ele>915.00</ele>
        <time>2013-02-19T03:54:11.50Z</time>
      </trkpt>
      <trkpt lat="42.320603" lon="2.424428">
        <ele>915.40</ele>
        <time>2013-02-19T04:51:29.34Z</time>
      </trkpt>
      <trkpt lat="42.320573" lon="2.424417">
        <ele>915.80</ele>
        <time>2013-02-19T05:49:33.55Z</time>
      </trkpt>
      <trkpt lat="42.320548" lon="2.424398">
        <ele>916.20</ele>
        <time>2013-02-19T06:43:08.04Z</time>
      </trkpt>
      <trkpt lat="42.320526" lon="2.424375">
        <ele>916.80</ele>
        <time>2013-02-19T07:35:04.99Z</time>
      </trkpt>
      <trkpt lat="42.320514" lon="2.424349">
        <ele>917.20</ele>
        <time>2013-02-19T08:17:25.27Z</time>
      </trkpt>
      <trkpt lat="42.320496" lon="2.424315">
        <ele>917.60</ele>
        <time>2013-02-19T09:15:11.10Z</time>
      </trkpt>
      <trkpt lat="42.320484" lon="2.424286">
        <ele>918.00</ele>
        <time>2013-02-19T10:01:05.45Z</time>
      </trkpt>
      <trkpt lat="42.320471" lon="2.424255">
        <ele>918.40</ele>
        <time>2013-02-19T10:50:19.24Z</time>
      </trkpt>
      <trkpt lat="42.320461" lon="2.424228">
        <ele>918.40</ele>
        <time>2013-02-19T11:32:02.09Z</time>
      </trkpt>
      <trkpt lat="42.320447" lon="2.424199">
        <ele>919.00</ele>
        <time>2013-02-19T12:19:52.60Z</time>
      </trkpt>
      <trkpt lat="42.320424" lon="2.424159">
        <ele>919.40</ele>
        <time>2013-02-19T13:29:52.34Z</time>
      </trkpt>
      <trkpt lat="42.320404" lon="2.424126">
        <ele>919.80</ele>
        <time>2013-02-19T14:28:48.82Z</time>
      </trkpt>
      <trkpt lat="42.320391" lon="2.424075">
        <ele>920.20</ele>
        <time>2013-02-19T15:43:19.91Z</time>
      </trkpt>
      <trkpt lat="42.320379" lon="2.424031">
        <ele>920.60</ele>
        <time>2013-02-19T16:48:06.86Z</time>
      </trkpt>
      <trkpt lat="42.320325" lon="2.423922">
        <ele>921.00</ele>
        <time>2013-02-19T19:49:21.33Z</time>
      </trkpt>
      <trkpt lat="42.320309" lon="2.423887">
        <ele>921.40</ele>
        <time>2013-02-19T20:46:11.84Z</time>
      </trkpt>
      <trkpt lat="42.320284" lon="2.423850">
        <ele>921.80</ele>
        <time>2013-02-19T21:55:26.03Z</time>
      </trkpt>
      <trkpt lat="42.320260" lon="2.423817">
        <ele>922.20</ele>
        <time>2013-02-19T22:59:22.46Z</time>
      </trkpt>
      <trkpt lat="42.320240" lon="2.423782">
        <ele>922.60</ele>
        <time>2013-02-20T00:00:28.66Z</time>
      </trkpt>
      <trkpt lat="42.320190" lon="2.423666">
        <ele>923.00</ele>
        <time>2013-02-20T03:05:57.30Z</time>
      </trkpt>
      <trkpt lat="42.320167" lon="2.423627">
        <ele>923.40</ele>
        <time>2013-02-20T04:14:51.94Z</time>
      </trkpt>
      <trkpt lat="42.320143" lon="2.423592">
        <ele>923.80</ele>
        <time>2013-02-20T05:20:48.26Z</time>
      </trkpt>
      <trkpt lat="42.320122" lon="2.423554">
        <ele>924.20</ele>
        <time>2013-02-20T06:26:20.25Z</time>
      </trkpt>
      <trkpt lat="42.320107" lon="2.423510">
        <ele>924.60</ele>
        <time>2013-02-20T07:33:16Z</time>
      </trkpt>
      <trkpt lat="42.320072" lon="2.423379">
        <ele>924.60</ele>
        <time>2013-02-20T10:45:40.60Z</time>
      </trkpt>
      <trkpt lat="42.320066" lon="2.423335">
        <ele>925.00</ele>
        <time>2013-02-20T11:47:28.90Z</time>
      </trkpt>
      <trkpt lat="42.320050" lon="2.423295">
        <ele>925.40</ele>
        <time>2013-02-20T12:50:18.21Z</time>
      </trkpt>
      <trkpt lat="42.320043" lon="2.423256">
        <ele>926.00</ele>
        <time>2013-02-20T13:45:44.47Z</time>
      </trkpt>
      <trkpt lat="42.320035" lon="2.423220">
        <ele>926.40</ele>
        <time>2013-02-20T14:37:40.06Z</time>
      </trkpt>
      <trkpt lat="42.320028" lon="2.423181">
        <ele>926.80</ele>
        <time>2013-02-20T15:33:06.33Z</time>
      </trkpt>
      <trkpt lat="42.320024" lon="2.423140">
        <ele>926.80</ele>
        <time>2013-02-20T16:30:13.94Z</time>
      </trkpt>
      <trkpt lat="42.320029" lon="2.423063">
        <ele>927.20</ele>
        <time>2013-02-20T18:17:00.40Z</time>
      </trkpt>
      <trkpt lat="42.320031" lon="2.423024">
        <ele>927.60</ele>
        <time>2013-02-20T19:11:00.56Z</time>
      </trkpt>
      <trkpt lat="42.320033" lon="2.422983">
        <ele>928.20</ele>
        <time>2013-02-20T20:07:46.10Z</time>
      </trkpt>
      <trkpt lat="42.320033" lon="2.422938">
        <ele>928.60</ele>
        <time>2013-02-20T21:09:55.79Z</time>
      </trkpt>
      <trkpt lat="42.320032" lon="2.422890">
        <ele>929.00</ele>
        <time>2013-02-20T22:16:15.69Z</time>
      </trkpt>
      <trkpt lat="42.320053" lon="2.422714">
        <ele>929.40</ele>
        <time>2013-02-21T02:22:31.60Z</time>
      </trkpt>
      <trkpt lat="42.320064" lon="2.422674">
        <ele>930.00</ele>
        <time>2013-02-21T03:21:28.75Z</time>
      </trkpt>
      <trkpt lat="42.320076" lon="2.422638">
        <ele>930.40</ele>
        <time>2013-02-21T04:16:01.68Z</time>
      </trkpt>
      <trkpt lat="42.320093" lon="2.422612">
        <ele>930.80</ele>
        <time>2013-02-21T05:03:58.32Z</time>
      </trkpt>
      <trkpt lat="42.320107" lon="2.422594">
        <ele>931.20</ele>
        <time>2013-02-21T05:40:03.60Z</time>
      </trkpt>
      <trkpt lat="42.320126" lon="2.422530">
        <ele>931.20</ele>
        <time>2013-02-21T07:15:19.62Z</time>
      </trkpt>
      <trkpt lat="42.320144" lon="2.422540">
        <ele>931.20</ele>
        <time>2013-02-21T07:51:40.91Z</time>
      </trkpt>
      <trkpt lat="42.320172" lon="2.422587">
        <ele>931.20</ele>
        <time>2013-02-21T09:15:03.46Z</time>
      </trkpt>
      <trkpt lat="42.320216" lon="2.422703">
        <ele>931.20</ele>
        <time>2013-02-21T12:15:09.02Z</time>
      </trkpt>
      <trkpt lat="42.320235" lon="2.422736">
        <ele>931.60</ele>
        <time>2013-02-21T13:12:55.53Z</time>
      </trkpt>
      <trkpt lat="42.320259" lon="2.422766">
        <ele>932.00</ele>
        <time>2013-02-21T14:13:58.85Z</time>
      </trkpt>
      <trkpt lat="42.320285" lon="2.422797">
        <ele>932.40</ele>
        <time>2013-02-21T15:18:44.13Z</time>
      </trkpt>
      <trkpt lat="42.320310" lon="2.422827">
        <ele>932.80</ele>
        <time>2013-02-21T16:21:10.54Z</time>
      </trkpt>
      <trkpt lat="42.320332" lon="2.422862">
        <ele>933.20</ele>
        <time>2013-02-21T17:24:37.96Z</time>
      </trkpt>
      <trkpt lat="42.320433" lon="2.422985">
        <ele>933.20</ele>
        <time>2013-02-21T21:38:32.86Z</time>
      </trkpt>
      <trkpt lat="42.320458" lon="2.423020">
        <ele>933.60</ele>
        <time>2013-02-21T22:45:46.23Z</time>
      </trkpt>
      <trkpt lat="42.320485" lon="2.423054">
        <ele>934.00</ele>
        <time>2013-02-21T23:54:41.54Z</time>
      </trkpt>
      <trkpt lat="42.320517" lon="2.423088">
        <ele>934.40</ele>
        <time>2013-02-22T01:10:43.07Z</time>
      </trkpt>
      <trkpt lat="42.320546" lon="2.423115">
        <ele>935.00</ele>
        <time>2013-02-22T02:16:29.58Z</time>
      </trkpt>
      <trkpt lat="42.320571" lon="2.423143">
        <ele>935.40</ele>
        <time>2013-02-22T03:17:08.08Z</time>
      </trkpt>
      <trkpt lat="42.320602" lon="2.423172">
        <ele>935.80</ele>
        <time>2013-02-22T04:27:33.25Z</time>
      </trkpt>
      <trkpt lat="42.320633" lon="2.423202">
        <ele>936.20</ele>
        <time>2013-02-22T05:38:46.12Z</time>
      </trkpt>
      <trkpt lat="42.320661" lon="2.423231">
        <ele>936.60</ele>
        <time>2013-02-22T06:44:39.35Z</time>
      </trkpt>
      <trkpt lat="42.320695" lon="2.423261">
        <ele>937.00</ele>
        <time>2013-02-22T08:00:29.91Z</time>
      </trkpt>
      <trkpt lat="42.320739" lon="2.423290">
        <ele>937.40</ele>
        <time>2013-02-22T09:31:56.53Z</time>
      </trkpt>
      <trkpt lat="42.320864" lon="2.423346">
        <ele>937.40</ele>
        <time>2013-02-22T13:37:56.98Z</time>
      </trkpt>
      <trkpt lat="42.321004" lon="2.423385">
        <ele>937.40</ele>
        <time>2013-02-22T18:04:59.57Z</time>
      </trkpt>
      <trkpt lat="42.321102" lon="2.423392">
        <ele>937.80</ele>
        <time>2013-02-22T21:08:20.09Z</time>
      </trkpt>
      <trkpt lat="42.321145" lon="2.423395">
        <ele>938.20</ele>
        <time>2013-02-22T22:28:46.55Z</time>
      </trkpt>
      <trkpt lat="42.321191" lon="2.423395">
        <ele>938.60</ele>
        <time>2013-02-22T23:54:42.87Z</time>
      </trkpt>
      <trkpt lat="42.321231" lon="2.423396">
        <ele>939.00</ele>
        <time>2013-02-23T01:09:27.40Z</time>
      </trkpt>
      <trkpt lat="42.321274" lon="2.423400">
        <ele>939.60</ele>
        <time>2013-02-23T02:29:58.83Z</time>
      </trkpt>
      <trkpt lat="42.321442" lon="2.423407">
        <ele>939.60</ele>
        <time>2013-02-23T07:43:59.55Z</time>
      </trkpt>
      <trkpt lat="42.321484" lon="2.423391">
        <ele>940.00</ele>
        <time>2013-02-23T09:05:30.70Z</time>
      </trkpt>
      <trkpt lat="42.321458" lon="2.423357">
        <ele>940.40</ele>
        <time>2013-02-23T10:13:04.66Z</time>
      </trkpt>
      <trkpt lat="42.321439" lon="2.423343">
        <ele>940.80</ele>
        <time>2013-02-23T10:53:30.01Z</time>
      </trkpt>
      <trkpt lat="42.321404" lon="2.423340">
        <ele>941.20</ele>
        <time>2013-02-23T11:59:01.18Z</time>
      </trkpt>
      <trkpt lat="42.321367" lon="2.423341">
        <ele>941.60</ele>
        <time>2013-02-23T13:08:09.48Z</time>
      </trkpt>
      <trkpt lat="42.321269" lon="2.423317">
        <ele>941.60</ele>
        <time>2013-02-23T16:14:13.33Z</time>
      </trkpt>
      <trkpt lat="42.321122" lon="2.423109">
        <ele>941.60</ele>
        <time>2013-02-23T22:51:40.87Z</time>
      </trkpt>
      <trkpt lat="42.321088" lon="2.422998">
        <ele>941.60</ele>
        <time>2013-02-24T01:37:38.79Z</time>
      </trkpt>
      <trkpt lat="42.321032" lon="2.422790">
        <ele>941.60</ele>
        <time>2013-02-24T06:43:25.23Z</time>
      </trkpt>
      <trkpt lat="42.321029" lon="2.422613">
        <ele>941.60</ele>
        <time>2013-02-24T10:47:58.94Z</time>
      </trkpt>
      <trkpt lat="42.321060" lon="2.422493">
        <ele>941.60</ele>
        <time>2013-02-24T13:43:34.17Z</time>
      </trkpt>
      <trkpt lat="42.321112" lon="2.422306">
        <ele>941.60</ele>
        <time>2013-02-24T18:19:32.67Z</time>
      </trkpt>
      <trkpt lat="42.321178" lon="2.422220">
        <ele>942.00</ele>
        <time>2013-02-24T21:10:45.83Z</time>
      </trkpt>
      <trkpt lat="42.321216" lon="2.422186">
        <ele>942.40</ele>
        <time>2013-02-24T22:35:53.14Z</time>
      </trkpt>
      <trkpt lat="42.321261" lon="2.422161">
        <ele>943.00</ele>
        <time>2013-02-25T00:06:46.35Z</time>
      </trkpt>
      <trkpt lat="42.321304" lon="2.422127">
        <ele>943.00</ele>
        <time>2013-02-25T01:39:49.68Z</time>
      </trkpt>
      <trkpt lat="42.321342" lon="2.422096">
        <ele>943.40</ele>
        <time>2013-02-25T03:02:44.13Z</time>
      </trkpt>
      <trkpt lat="42.321381" lon="2.422065">
        <ele>944.00</ele>
        <time>2013-02-25T04:27:14.90Z</time>
      </trkpt>
      <trkpt lat="42.321463" lon="2.422021">
        <ele>944.00</ele>
        <time>2013-02-25T07:12:03.58Z</time>
      </trkpt>
      <trkpt lat="42.321590" lon="2.421980">
        <ele>944.40</ele>
        <time>2013-02-25T11:15:59.46Z</time>
      </trkpt>
      <trkpt lat="42.321627" lon="2.421963">
        <ele>944.80</ele>
        <time>2013-02-25T12:28:59.72Z</time>
      </trkpt>
      <trkpt lat="42.321663" lon="2.421940">
        <ele>945.20</ele>
        <time>2013-02-25T13:43:22.69Z</time>
      </trkpt>
      <trkpt lat="42.321703" lon="2.421920">
        <ele>945.60</ele>
        <time>2013-02-25T15:03:03.03Z</time>
      </trkpt>
      <trkpt lat="42.321739" lon="2.421896">
        <ele>946.00</ele>
        <time>2013-02-25T16:18:02.02Z</time>
      </trkpt>
      <trkpt lat="42.321885" lon="2.421812">
        <ele>946.40</ele>
        <time>2013-02-25T21:14:26.98Z</time>
      </trkpt>
      <trkpt lat="42.321920" lon="2.421788">
        <ele>946.80</ele>
        <time>2013-02-25T22:27:45.70Z</time>
      </trkpt>
      <trkpt lat="42.321954" lon="2.421766">
        <ele>947.20</ele>
        <time>2013-02-25T23:38:10.60Z</time>
      </trkpt>
      <trkpt lat="42.321990" lon="2.421750">
        <ele>947.80</ele>
        <time>2013-02-26T00:48:58.28Z</time>
      </trkpt>
      <trkpt lat="42.322026" lon="2.421733">
        <ele>948.20</ele>
        <time>2013-02-26T02:00:12.56Z</time>
      </trkpt>
      <trkpt lat="42.322122" lon="2.421687">
        <ele>948.60</ele>
        <time>2013-02-26T05:10:28.97Z</time>
      </trkpt>
      <trkpt lat="42.322165" lon="2.421678">
        <ele>949.00</ele>
        <time>2013-02-26T06:31:46.38Z</time>
      </trkpt>
      <trkpt lat="42.322203" lon="2.421663">
        <ele>949.40</ele>
        <time>2013-02-26T07:45:43.67Z</time>
      </trkpt>
      <trkpt lat="42.322239" lon="2.421644">
        <ele>950.00</ele>
        <time>2013-02-26T08:57:55.41Z</time>
      </trkpt>
      <trkpt lat="42.322285" lon="2.421621">
        <ele>950.40</ele>
        <time>2013-02-26T10:29:32.80Z</time>
      </trkpt>
      <trkpt lat="42.322403" lon="2.421500">
        <ele>950.80</ele>
        <time>2013-02-26T15:06:11.70Z</time>
      </trkpt>
      <trkpt lat="42.322429" lon="2.421442">
        <ele>951.20</ele>
        <time>2013-02-26T16:39:53.17Z</time>
      </trkpt>
      <trkpt lat="42.322458" lon="2.421378">
        <ele>951.60</ele>
        <time>2013-02-26T18:23:34.27Z</time>
      </trkpt>
      <trkpt lat="42.322490" lon="2.421318">
        <ele>952.00</ele>
        <time>2013-02-26T20:05:45.71Z</time>
      </trkpt>
      <trkpt lat="42.322525" lon="2.421263">
        <ele>952.40</ele>
        <time>2013-02-26T21:45:59.90Z</time>
      </trkpt>
      <trkpt lat="42.322583" lon="2.421134">
        <ele>952.40</ele>
        <time>2013-02-27T01:14:32.83Z</time>
      </trkpt>
      <trkpt lat="42.322711" lon="2.420883">
        <ele>952.00</ele>
        <time>2013-02-27T08:15:43.55Z</time>
      </trkpt>
      <trkpt lat="42.322730" lon="2.420842">
        <ele>951.60</ele>
        <time>2013-02-27T09:22:33.84Z</time>
      </trkpt>
      <trkpt lat="42.322747" lon="2.420787">
        <ele>951.20</ele>
        <time>2013-02-27T10:44:54.43Z</time>
      </trkpt>
      <trkpt lat="42.322752" lon="2.420729">
        <ele>950.80</ele>
        <time>2013-02-27T12:05:33.93Z</time>
      </trkpt>
      <trkpt lat="42.323333" lon="2.420762">
        <ele>950.20</ele>
        <time>2013-02-28T06:11:57.95Z</time>
      </trkpt>
      <trkpt lat="42.323336" lon="2.420742">
        <ele>1060.40</ele>
        <time>2013-02-28T06:40:09.27Z</time>
      </trkpt>
      <trkpt lat="42.323691" lon="2.420711">
        <ele>1061.40</ele>
        <time>2013-02-28T17:44:45.50Z</time>
      </trkpt>
      <trkpt lat="42.323805" lon="2.420699">
        <ele>1061.80</ele>
        <time>2013-02-28T21:18:22.85Z</time>
      </trkpt>
      <trkpt lat="42.324025" lon="2.420685">
        <ele>1062.40</ele>
        <time>2013-03-01T04:09:50.82Z</time>
      </trkpt>
      <trkpt lat="42.324241" lon="2.420669">
        <ele>1063.00</ele>
        <time>2013-03-01T10:53:59.41Z</time>
      </trkpt>
      <trkpt lat="42.324557" lon="2.420716">
        <ele>1063.00</ele>
        <time>2013-03-01T20:47:54.64Z</time>
      </trkpt>
      <trkpt lat="42.325099" lon="2.420868">
        <ele>1061.60</ele>
        <time>2013-03-02T14:02:01.80Z</time>
      </trkpt>
      <trkpt lat="42.325213" lon="2.420912">
        <ele>1061.00</ele>
        <time>2013-03-02T17:43:30.62Z</time>
      </trkpt>
      <trkpt lat="42.325325" lon="2.420957">
        <ele>1060.60</ele>
        <time>2013-03-02T21:21:47.35Z</time>
      </trkpt>
      <trkpt lat="42.325549" lon="2.421063">
        <ele>1059.20</ele>
        <time>2013-03-03T04:45:08.78Z</time>
      </trkpt>
      <trkpt lat="42.325778" lon="2.421137">
        <ele>1057.80</ele>
        <time>2013-03-03T12:05:00.72Z</time>
      </trkpt>
      <trkpt lat="42.325986" lon="2.421023">
        <ele>1056.80</ele>
        <time>2013-03-03T19:04:17.69Z</time>
      </trkpt>
      <trkpt lat="42.326113" lon="2.420799">
        <ele>1057.40</ele>
        <time>2013-03-04T01:34:11.60Z</time>
      </trkpt>
      <trkpt lat="42.326194" lon="2.420547">
        <ele>1057.80</ele>
        <time>2013-03-04T07:53:44.15Z</time>
      </trkpt>
      <trkpt lat="42.326233" lon="2.420431">
        <ele>1058.20</ele>
        <time>2013-03-04T10:49:44.82Z</time>
      </trkpt>
      <trkpt lat="42.326277" lon="2.420327">
        <ele>1058.60</ele>
        <time>2013-03-04T13:35:15.12Z</time>
      </trkpt>
      <trkpt lat="42.326370" lon="2.420158">
        <ele>1059.20</ele>
        <time>2013-03-04T18:26:14.58Z</time>
      </trkpt>
      <trkpt lat="42.326419" lon="2.420100">
        <ele>1059.40</ele>
        <time>2013-03-04T20:27:53.40Z</time>
      </trkpt>
      <trkpt lat="42.326525" lon="2.420076">
        <ele>1060.00</ele>
        <time>2013-03-04T23:48:40.68Z</time>
      </trkpt>
      <trkpt lat="42.326551" lon="2.420114">
        <ele>1060.60</ele>
        <time>2013-03-05T01:00:11.52Z</time>
      </trkpt>
      <trkpt lat="42.326558" lon="2.420177">
        <ele>1061.40</ele>
        <time>2013-03-05T02:28:11.17Z</time>
      </trkpt>
      <trkpt lat="42.326552" lon="2.420253">
        <ele>1062.00</ele>
        <time>2013-03-05T04:13:45.34Z</time>
      </trkpt>
      <trkpt lat="42.326542" lon="2.420336">
        <ele>1062.20</ele>
        <time>2013-03-05T06:09:54.56Z</time>
      </trkpt>
      <trkpt lat="42.326532" lon="2.420423">
        <ele>1062.80</ele>
        <time>2013-03-05T08:11:31.15Z</time>
      </trkpt>
      <trkpt lat="42.326526" lon="2.420512">
        <ele>1063.20</ele>
        <time>2013-03-05T10:14:57.47Z</time>
      </trkpt>
      <trkpt lat="42.326529" lon="2.420600">
        <ele>1063.40</ele>
        <time>2013-03-05T12:16:38.07Z</time>
      </trkpt>
      <trkpt lat="42.326540" lon="2.420779">
        <ele>1064.40</ele>
        <time>2013-03-05T16:24:43.54Z</time>
      </trkpt>
      <trkpt lat="42.326541" lon="2.420868">
        <ele>1064.80</ele>
        <time>2013-03-05T18:27:40.12Z</time>
      </trkpt>
      <trkpt lat="42.326543" lon="2.420954">
        <ele>1065.40</ele>
        <time>2013-03-05T20:26:30.74Z</time>
      </trkpt>
      <trkpt lat="42.326562" lon="2.421199">
        <ele>1067.00</ele>
        <time>2013-03-06T02:06:46.08Z</time>
      </trkpt>
      <trkpt lat="42.326590" lon="2.421350">
        <ele>1067.80</ele>
        <time>2013-03-06T05:41:47.54Z</time>
      </trkpt>
      <trkpt lat="42.326608" lon="2.421422">
        <ele>1068.00</ele>
        <time>2013-03-06T07:26:46.32Z</time>
      </trkpt>
      <trkpt lat="42.326656" lon="2.421555">
        <ele>1068.80</ele>
        <time>2013-03-06T10:51:11.60Z</time>
      </trkpt>
      <trkpt lat="42.326714" lon="2.421682">
        <ele>1069.40</ele>
        <time>2013-03-06T14:17:22.61Z</time>
      </trkpt>
      <trkpt lat="42.326745" lon="2.421745">
        <ele>1069.60</ele>
        <time>2013-03-06T16:01:54.29Z</time>
      </trkpt>
      <trkpt lat="42.326779" lon="2.421802">
        <ele>1069.80</ele>
        <time>2013-03-06T17:43:03.81Z</time>
      </trkpt>
      <trkpt lat="42.326851" lon="2.421908">
        <ele>1070.40</ele>
        <time>2013-03-06T21:01:52.99Z</time>
      </trkpt>
      <trkpt lat="42.326934" lon="2.422001">
        <ele>1071.00</ele>
        <time>2013-03-07T00:23:14.43Z</time>
      </trkpt>
      <trkpt lat="42.327020" lon="2.422089">
        <ele>1071.60</ele>
        <time>2013-03-07T03:44:42.28Z</time>
      </trkpt>
      <trkpt lat="42.327186" lon="2.422279">
        <ele>1072.60</ele>
        <time>2013-03-07T10:30:57.93Z</time>
      </trkpt>
      <trkpt lat="42.327265" lon="2.422379">
        <ele>1073.00</ele>
        <time>2013-03-07T13:53:06.28Z</time>
      </trkpt>
      <trkpt lat="42.327367" lon="2.422550">
        <ele>1074.00</ele>
        <time>2013-03-07T18:56:34.75Z</time>
      </trkpt>
      <trkpt lat="42.327420" lon="2.422680">
        <ele>1074.60</ele>
        <time>2013-03-07T22:21:37.64Z</time>
      </trkpt>
      <trkpt lat="42.327467" lon="2.422822">
        <ele>1075.00</ele>
        <time>2013-03-08T01:56:30.97Z</time>
      </trkpt>
      <trkpt lat="42.327527" lon="2.423124">
        <ele>1075.80</ele>
        <time>2013-03-08T09:08:26.26Z</time>
      </trkpt>
      <trkpt lat="42.327584" lon="2.423457">
        <ele>1076.20</ele>
        <time>2013-03-08T17:00:32.62Z</time>
      </trkpt>
      <trkpt lat="42.327632" lon="2.423717">
        <ele>1076.20</ele>
        <time>2013-03-08T23:10:40.94Z</time>
      </trkpt>
      <trkpt lat="42.327771" lon="2.424427">
        <ele>1076.80</ele>
        <time>2013-03-09T16:05:07.91Z</time>
      </trkpt>
      <trkpt lat="42.327792" lon="2.424514">
        <ele>1077.20</ele>
        <time>2013-03-09T18:11:32.30Z</time>
      </trkpt>
      <trkpt lat="42.327819" lon="2.424598">
        <ele>1077.40</ele>
        <time>2013-03-09T20:18:02.98Z</time>
      </trkpt>
      <trkpt lat="42.327977" lon="2.424902">
        <ele>1077.60</ele>
        <time>2013-03-10T04:51:18.40Z</time>
      </trkpt>
      <trkpt lat="42.328024" lon="2.424973">
        <ele>1077.60</ele>
        <time>2013-03-10T07:02:56.25Z</time>
      </trkpt>
      <trkpt lat="42.328258" lon="2.425448">
        <ele>1078.40</ele>
        <time>2013-03-10T20:11:18.70Z</time>
      </trkpt>
      <trkpt lat="42.328283" lon="2.425536">
        <ele>1078.40</ele>
        <time>2013-03-10T22:21:31.24Z</time>
      </trkpt>
      <trkpt lat="42.328320" lon="2.425809">
        <ele>1079.00</ele>
        <time>2013-03-11T04:44:52.03Z</time>
      </trkpt>
      <trkpt lat="42.328328" lon="2.425901">
        <ele>1079.00</ele>
        <time>2013-03-11T06:52:48.71Z</time>
      </trkpt>
      <trkpt lat="42.328348" lon="2.426163">
        <ele>1079.40</ele>
        <time>2013-03-11T12:56:36.32Z</time>
      </trkpt>
      <trkpt lat="42.328368" lon="2.426414">
        <ele>1080.20</ele>
        <time>2013-03-11T18:45:17.37Z</time>
      </trkpt>
      <trkpt lat="42.328374" lon="2.426495">
        <ele>1080.40</ele>
        <time>2013-03-11T20:37:43.52Z</time>
      </trkpt>
      <trkpt lat="42.328418" lon="2.426980">
        <ele>1081.60</ele>
        <time>2013-03-12T07:52:37.36Z</time>
      </trkpt>
      <trkpt lat="42.328434" lon="2.427058">
        <ele>1081.80</ele>
        <time>2013-03-12T09:44:25.48Z</time>
      </trkpt>
      <trkpt lat="42.328456" lon="2.427133">
        <ele>1082.20</ele>
        <time>2013-03-12T11:35:52.15Z</time>
      </trkpt>
      <trkpt lat="42.328517" lon="2.427350">
        <ele>1082.80</ele>
        <time>2013-03-12T16:56:31.19Z</time>
      </trkpt>
      <trkpt lat="42.328540" lon="2.427420">
        <ele>1083.00</ele>
        <time>2013-03-12T18:42:19.25Z</time>
      </trkpt>
      <trkpt lat="42.328606" lon="2.427632">
        <ele>1083.80</ele>
        <time>2013-03-13T00:00:01.99Z</time>
      </trkpt>
      <trkpt lat="42.328724" lon="2.428009">
        <ele>1084.80</ele>
        <time>2013-03-13T09:25:28.80Z</time>
      </trkpt>
      <trkpt lat="42.328825" lon="2.428343">
        <ele>1086.20</ele>
        <time>2013-03-13T17:43:53.41Z</time>
      </trkpt>
      <trkpt lat="42.328874" lon="2.428511">
        <ele>1087.00</ele>
        <time>2013-03-13T21:53:19.92Z</time>
      </trkpt>
      <trkpt lat="42.328923" lon="2.428679">
        <ele>1087.60</ele>
        <time>2013-03-14T02:02:46.41Z</time>
      </trkpt>
      <trkpt lat="42.328939" lon="2.428770">
        <ele>1087.80</ele>
        <time>2013-03-14T04:11:57.93Z</time>
      </trkpt>
      <trkpt lat="42.328979" lon="2.428951">
        <ele>1088.00</ele>
        <time>2013-03-14T08:32:53.24Z</time>
      </trkpt>
      <trkpt lat="42.329137" lon="2.429475">
        <ele>1088.20</ele>
        <time>2013-03-14T21:34:29.99Z</time>
      </trkpt>
      <trkpt lat="42.329339" lon="2.430129">
        <ele>1088.60</ele>
        <time>2013-03-15T13:53:26.66Z</time>
      </trkpt>
      <trkpt lat="42.329369" lon="2.430218">
        <ele>1088.60</ele>
        <time>2013-03-15T16:08:32.52Z</time>
      </trkpt>
      <trkpt lat="42.329518" lon="2.430557">
        <ele>1088.80</ele>
        <time>2013-03-16T01:13:15.22Z</time>
      </trkpt>
      <trkpt lat="42.329568" lon="2.430624">
        <ele>1088.80</ele>
        <time>2013-03-16T03:24:44.46Z</time>
      </trkpt>
      <trkpt lat="42.329759" lon="2.430752">
        <ele>1089.00</ele>
        <time>2013-03-16T10:02:57.97Z</time>
      </trkpt>
      <trkpt lat="42.330033" lon="2.430793">
        <ele>1089.40</ele>
        <time>2013-03-16T18:37:59.08Z</time>
      </trkpt>
      <trkpt lat="42.330100" lon="2.430820">
        <ele>1089.60</ele>
        <time>2013-03-16T20:48:35.59Z</time>
      </trkpt>
      <trkpt lat="42.330205" lon="2.430876">
        <ele>1090.00</ele>
        <time>2013-03-17T00:19:27.28Z</time>
      </trkpt>
      <trkpt lat="42.330242" lon="2.430894">
        <ele>1090.40</ele>
        <time>2013-03-17T01:32:54.84Z</time>
      </trkpt>
      <trkpt lat="42.330255" lon="2.430914">
        <ele>1090.80</ele>
        <time>2013-03-17T02:09:41.73Z</time>
      </trkpt>
      <trkpt lat="42.330270" lon="2.430931">
        <ele>1090.80</ele>
        <time>2013-03-17T02:46:15.30Z</time>
      </trkpt>
      <trkpt lat="42.330336" lon="2.431083">
        <ele>1090.00</ele>
        <time>2013-03-17T06:49:43.25Z</time>
      </trkpt>
      <trkpt lat="42.330350" lon="2.431104">
        <ele>1089.40</ele>
        <time>2013-03-17T07:28:46.57Z</time>
      </trkpt>
      <trkpt lat="42.330370" lon="2.431130">
        <ele>1088.20</ele>
        <time>2013-03-17T08:20:35.95Z</time>
      </trkpt>
      <trkpt lat="42.330375" lon="2.431146">
        <ele>1088.00</ele>
        <time>2013-03-17T08:44:35.43Z</time>
      </trkpt>
      <trkpt lat="42.330367" lon="2.431176">
        <ele>1087.00</ele>
        <time>2013-03-17T09:28:38.27Z</time>
      </trkpt>
      <trkpt lat="42.330339" lon="2.431190">
        <ele>1086.60</ele>
        <time>2013-03-17T10:24:24.45Z</time>
      </trkpt>
      <trkpt lat="42.330301" lon="2.431239">
        <ele>1085.40</ele>
        <time>2013-03-17T12:02:29.35Z</time>
      </trkpt>
      <trkpt lat="42.330261" lon="2.431290">
        <ele>1084.20</ele>
        <time>2013-03-17T13:45:10.97Z</time>
      </trkpt>
      <trkpt lat="42.330265" lon="2.431362">
        <ele>1083.20</ele>
        <time>2013-03-17T15:24:54.32Z</time>
      </trkpt>
      <trkpt lat="42.330273" lon="2.431391">
        <ele>1082.60</ele>
        <time>2013-03-17T16:07:39.36Z</time>
      </trkpt>
      <trkpt lat="42.330274" lon="2.431417">
        <ele>1082.00</ele>
        <time>2013-03-17T16:43:36.85Z</time>
      </trkpt>
      <trkpt lat="42.330267" lon="2.431442">
        <ele>1080.60</ele>
        <time>2013-03-17T17:20:32.18Z</time>
      </trkpt>
      <trkpt lat="42.330267" lon="2.431455">
        <ele>1080.20</ele>
        <time>2013-03-17T17:38:29.47Z</time>
      </trkpt>
      <trkpt lat="42.330270" lon="2.431477">
        <ele>1079.40</ele>
        <time>2013-03-17T18:09:23.32Z</time>
      </trkpt>
      <trkpt lat="42.330317" lon="2.431519">
        <ele>1076.60</ele>
        <time>2013-03-17T19:54:37.59Z</time>
      </trkpt>
      <trkpt lat="42.330315" lon="2.431575">
        <ele>1075.40</ele>
        <time>2013-03-17T21:12:03.62Z</time>
      </trkpt>
      <trkpt lat="42.330330" lon="2.431689">
        <ele>1073.80</ele>
        <time>2013-03-17T23:51:59.07Z</time>
      </trkpt>
      <trkpt lat="42.330340" lon="2.431771">
        <ele>1073.00</ele>
        <time>2013-03-18T01:46:46.10Z</time>
      </trkpt>
      <trkpt lat="42.330349" lon="2.431852">
        <ele>1072.60</ele>
        <time>2013-03-18T03:39:53.82Z</time>
      </trkpt>
      <trkpt lat="42.330358" lon="2.431934">
        <ele>1071.00</ele>
        <time>2013-03-18T05:34:23.50Z</time>
      </trkpt>
      <trkpt lat="42.330368" lon="2.432016">
        <ele>1046.40</ele>
        <time>2013-03-18T07:29:10.53Z</time>
      </trkpt>
      <trkpt lat="42.330377" lon="2.432098">
        <ele>1044.00</ele>
        <time>2013-03-18T09:23:40.20Z</time>
      </trkpt>
      <trkpt lat="42.330405" lon="2.432163">
        <ele>1042.60</ele>
        <time>2013-03-18T11:07:34.35Z</time>
      </trkpt>
      <trkpt lat="42.330412" lon="2.432182">
        <ele>1042.40</ele>
        <time>2013-03-18T11:36:53.54Z</time>
      </trkpt>
      <trkpt lat="42.330417" lon="2.432240">
        <ele>1041.00</ele>
        <time>2013-03-18T12:57:32.46Z</time>
      </trkpt>
      <trkpt lat="42.330416" lon="2.432263">
        <ele>1040.20</ele>
        <time>2013-03-18T13:29:21.72Z</time>
      </trkpt>
      <trkpt lat="42.330413" lon="2.432286">
        <ele>1039.40</ele>
        <time>2013-03-18T14:01:37.12Z</time>
      </trkpt>
      <trkpt lat="42.330427" lon="2.432331">
        <ele>1037.80</ele>
        <time>2013-03-18T15:09:02.95Z</time>
      </trkpt>
      <trkpt lat="42.330539" lon="2.432635">
        <ele>1030.00</ele>
        <time>2013-03-18T22:58:09.84Z</time>
      </trkpt>
      <trkpt lat="42.330556" lon="2.432715">
        <ele>1029.00</ele>
        <time>2013-03-19T00:53:07.72Z</time>
      </trkpt>
      <trkpt lat="42.330565" lon="2.432755">
        <ele>1028.40</ele>
        <time>2013-03-19T01:50:52.56Z</time>
      </trkpt>
      <trkpt lat="42.330574" lon="2.432795">
        <ele>1027.40</ele>
        <time>2013-03-19T02:48:37.41Z</time>
      </trkpt>
      <trkpt lat="42.330601" lon="2.432864">
        <ele>1025.80</ele>
        <time>2013-03-19T04:36:26.88Z</time>
      </trkpt>
      <trkpt lat="42.330635" lon="2.432921">
        <ele>1024.60</ele>
        <time>2013-03-19T06:17:36.18Z</time>
      </trkpt>
      <trkpt lat="42.330659" lon="2.432962">
        <ele>1024.20</ele>
        <time>2013-03-19T07:29:49.89Z</time>
      </trkpt>
      <trkpt lat="42.330802" lon="2.433287">
        <ele>1020.80</ele>
        <time>2013-03-19T16:12:11.18Z</time>
      </trkpt>
      <trkpt lat="42.330817" lon="2.433359">
        <ele>1019.00</ele>
        <time>2013-03-19T17:55:30.05Z</time>
      </trkpt>
      <trkpt lat="42.330847" lon="2.433446">
        <ele>1017.00</ele>
        <time>2013-03-19T20:08:05.24Z</time>
      </trkpt>
      <trkpt lat="42.330875" lon="2.433531">
        <ele>1015.20</ele>
        <time>2013-03-19T22:16:36.62Z</time>
      </trkpt>
      <trkpt lat="42.330902" lon="2.433604">
        <ele>1013.40</ele>
        <time>2013-03-20T00:09:20.82Z</time>
      </trkpt>
      <trkpt lat="42.330963" lon="2.433709">
        <ele>1011.80</ele>
        <time>2013-03-20T03:13:47.14Z</time>
      </trkpt>
      <trkpt lat="42.330995" lon="2.433744">
        <ele>1011.00</ele>
        <time>2013-03-20T04:30:40.02Z</time>
      </trkpt>
      <trkpt lat="42.331023" lon="2.433765">
        <ele>1010.60</ele>
        <time>2013-03-20T05:30:28.81Z</time>
      </trkpt>
      <trkpt lat="42.331132" lon="2.433867">
        <ele>1010.00</ele>
        <time>2013-03-20T09:38:05.78Z</time>
      </trkpt>
      <trkpt lat="42.331146" lon="2.433897">
        <ele>1009.60</ele>
        <time>2013-03-20T10:27:05.68Z</time>
      </trkpt>
      <trkpt lat="42.331161" lon="2.433916">
        <ele>1009.40</ele>
        <time>2013-03-20T11:05:29.18Z</time>
      </trkpt>
      <trkpt lat="42.331186" lon="2.433951">
        <ele>1008.60</ele>
        <time>2013-03-20T12:12:42.20Z</time>
      </trkpt>
      <trkpt lat="42.331210" lon="2.433962">
        <ele>1008.40</ele>
        <time>2013-03-20T13:00:02.69Z</time>
      </trkpt>
      <trkpt lat="42.331279" lon="2.433978">
        <ele>1008.80</ele>
        <time>2013-03-20T15:10:49.99Z</time>
      </trkpt>
      <trkpt lat="42.331317" lon="2.433979">
        <ele>1009.40</ele>
        <time>2013-03-20T16:21:50.37Z</time>
      </trkpt>
      <trkpt lat="42.331389" lon="2.433968">
        <ele>1009.00</ele>
        <time>2013-03-20T18:37:12.45Z</time>
      </trkpt>
      <trkpt lat="42.331462" lon="2.433923">
        <ele>1008.40</ele>
        <time>2013-03-20T21:07:04.93Z</time>
      </trkpt>
      <trkpt lat="42.331484" lon="2.433902">
        <ele>1008.20</ele>
        <time>2013-03-20T21:57:23.18Z</time>
      </trkpt>
      <trkpt lat="42.331612" lon="2.433784">
        <ele>1007.20</ele>
        <time>2013-03-21T02:46:46.37Z</time>
      </trkpt>
      <trkpt lat="42.331632" lon="2.433765">
        <ele>1007.00</ele>
        <time>2013-03-21T03:32:25.89Z</time>
      </trkpt>
      <trkpt lat="42.331679" lon="2.433717">
        <ele>1005.80</ele>
        <time>2013-03-21T05:22:27.22Z</time>
      </trkpt>
      <trkpt lat="42.331714" lon="2.433702">
        <ele>1006.00</ele>
        <time>2013-03-21T06:31:02.71Z</time>
      </trkpt>
      <trkpt lat="42.331762" lon="2.433680">
        <ele>1007.00</ele>
        <time>2013-03-21T08:05:43.68Z</time>
      </trkpt>
      <trkpt lat="42.331772" lon="2.433676">
        <ele>1007.80</ele>
        <time>2013-03-21T08:25:12.60Z</time>
      </trkpt>
      <trkpt lat="42.331803" lon="2.433671">
        <ele>1008.00</ele>
        <time>2013-03-21T09:23:32.13Z</time>
      </trkpt>
      <trkpt lat="42.331826" lon="2.433667">
        <ele>1008.40</ele>
        <time>2013-03-21T10:06:51.51Z</time>
      </trkpt>
      <trkpt lat="42.331857" lon="2.433650">
        <ele>1009.20</ele>
        <time>2013-03-21T11:09:21.12Z</time>
      </trkpt>
      <trkpt lat="42.331897" lon="2.433651">
        <ele>1009.40</ele>
        <time>2013-03-21T12:24:05.64Z</time>
      </trkpt>
      <trkpt lat="42.332011" lon="2.433713">
        <ele>1010.00</ele>
        <time>2013-03-21T16:13:38.50Z</time>
      </trkpt>
      <trkpt lat="42.332180" lon="2.433828">
        <ele>999.00</ele>
        <time>2013-03-21T22:07:04.25Z</time>
      </trkpt>
      <trkpt lat="42.332163" lon="2.433852">
        <ele>997.00</ele>
        <time>2013-03-21T22:52:58.62Z</time>
      </trkpt>
      <trkpt lat="42.332158" lon="2.433865">
        <ele>996.00</ele>
        <time>2013-03-21T23:13:12.95Z</time>
      </trkpt>
      <trkpt lat="42.332145" lon="2.433913">
        <ele>994.20</ele>
        <time>2013-03-22T00:23:49.05Z</time>
      </trkpt>
      <trkpt lat="42.332142" lon="2.433970">
        <ele>992.40</ele>
        <time>2013-03-22T01:42:44.36Z</time>
      </trkpt>
      <trkpt lat="42.332144" lon="2.434029">
        <ele>990.80</ele>
        <time>2013-03-22T03:04:18.58Z</time>
      </trkpt>
      <trkpt lat="42.332152" lon="2.434087">
        <ele>989.20</ele>
        <time>2013-03-22T04:25:47.74Z</time>
      </trkpt>
      <trkpt lat="42.332162" lon="2.434125">
        <ele>987.80</ele>
        <time>2013-03-22T05:21:30.21Z</time>
      </trkpt>
      <trkpt lat="42.332303" lon="2.434371">
        <ele>979.60</ele>
        <time>2013-03-22T12:31:24.66Z</time>
      </trkpt>
      <trkpt lat="42.332284" lon="2.434437">
        <ele>977.60</ele>
        <time>2013-03-22T14:09:13.85Z</time>
      </trkpt>
      <trkpt lat="42.332259" lon="2.434520">
        <ele>975.80</ele>
        <time>2013-03-22T16:13:00.70Z</time>
      </trkpt>
      <trkpt lat="42.332235" lon="2.434605">
        <ele>974.60</ele>
        <time>2013-03-22T18:18:40.56Z</time>
      </trkpt>
      <trkpt lat="42.332210" lon="2.434739">
        <ele>973.00</ele>
        <time>2013-03-22T21:29:32.74Z</time>
      </trkpt>
      <trkpt lat="42.332205" lon="2.434782">
        <ele>972.60</ele>
        <time>2013-03-22T22:29:39.78Z</time>
      </trkpt>
      <trkpt lat="42.332204" lon="2.434860">
        <ele>971.40</ele>
        <time>2013-03-23T00:17:24.28Z</time>
      </trkpt>
      <trkpt lat="42.332210" lon="2.434910">
        <ele>969.80</ele>
        <time>2013-03-23T01:27:21.80Z</time>
      </trkpt>
      <trkpt lat="42.332213" lon="2.434928">
        <ele>969.20</ele>
        <time>2013-03-23T01:52:50.83Z</time>
      </trkpt>
      <trkpt lat="42.332211" lon="2.435175">
        <ele>963.60</ele>
        <time>2013-03-23T07:33:59.90Z</time>
      </trkpt>
      <trkpt lat="42.332243" lon="2.435296">
        <ele>962.40</ele>
        <time>2013-03-23T10:31:28.96Z</time>
      </trkpt>
      <trkpt lat="42.332322" lon="2.435454">
        <ele>960.60</ele>
        <time>2013-03-23T14:54:55.27Z</time>
      </trkpt>
      <trkpt lat="42.332405" lon="2.435587">
        <ele>960.00</ele>
        <time>2013-03-23T18:55:18.38Z</time>
      </trkpt>
      <trkpt lat="42.332451" lon="2.435644">
        <ele>959.80</ele>
        <time>2013-03-23T20:51:51.06Z</time>
      </trkpt>
      <trkpt lat="42.332539" lon="2.435742">
        <ele>959.20</ele>
        <time>2013-03-24T00:24:48.04Z</time>
      </trkpt>
      <trkpt lat="42.332611" lon="2.435865">
        <ele>958.20</ele>
        <time>2013-03-24T04:01:28.93Z</time>
      </trkpt>
      <trkpt lat="42.332783" lon="2.436171">
        <ele>959.60</ele>
        <time>2013-03-24T12:52:23.11Z</time>
      </trkpt>
      <trkpt lat="42.332864" lon="2.436314">
        <ele>960.60</ele>
        <time>2013-03-24T17:01:11.43Z</time>
      </trkpt>
      <trkpt lat="42.332911" lon="2.436373">
        <ele>961.00</ele>
        <time>2013-03-24T19:00:58.84Z</time>
      </trkpt>
      <trkpt lat="42.333000" lon="2.436476">
        <ele>961.20</ele>
        <time>2013-03-24T22:39:48.02Z</time>
      </trkpt>
      <trkpt lat="42.333100" lon="2.436539">
        <ele>961.60</ele>
        <time>2013-03-25T02:05:53.45Z</time>
      </trkpt>
      <trkpt lat="42.333147" lon="2.436562">
        <ele>962.20</ele>
        <time>2013-03-25T03:39:16.01Z</time>
      </trkpt>
      <trkpt lat="42.333193" lon="2.436581">
        <ele>962.40</ele>
        <time>2013-03-25T05:09:07.35Z</time>
      </trkpt>
      <trkpt lat="42.333289" lon="2.436606">
        <ele>963.20</ele>
        <time>2013-03-25T08:11:45.96Z</time>
      </trkpt>
      <trkpt lat="42.333435" lon="2.436616">
        <ele>964.00</ele>
        <time>2013-03-25T12:44:52.65Z</time>
      </trkpt>
      <trkpt lat="42.333486" lon="2.436629">
        <ele>964.20</ele>
        <time>2013-03-25T14:21:50.05Z</time>
      </trkpt>
      <trkpt lat="42.333532" lon="2.436648">
        <ele>964.40</ele>
        <time>2013-03-25T15:51:41.38Z</time>
      </trkpt>
      <trkpt lat="42.333657" lon="2.436725">
        <ele>964.20</ele>
        <time>2013-03-25T20:08:17.50Z</time>
      </trkpt>
      <trkpt lat="42.333779" lon="2.436769">
        <ele>964.20</ele>
        <time>2013-03-26T00:04:10.65Z</time>
      </trkpt>
      <trkpt lat="42.333794" lon="2.436775">
        <ele>963.80</ele>
        <time>2013-03-26T00:33:24.03Z</time>
      </trkpt>
      <trkpt lat="42.333803" lon="2.436780">
        <ele>963.60</ele>
        <time>2013-03-26T00:51:34.64Z</time>
      </trkpt>
      <trkpt lat="42.333722" lon="2.436867">
        <ele>964.20</ele>
        <time>2013-03-26T04:04:48.22Z</time>
      </trkpt>
      <trkpt lat="42.333621" lon="2.436895">
        <ele>965.40</ele>
        <time>2013-03-26T07:17:25.02Z</time>
      </trkpt>
      <trkpt lat="42.333552" lon="2.436915">
        <ele>966.40</ele>
        <time>2013-03-26T09:29:15.07Z</time>
      </trkpt>
      <trkpt lat="42.333515" lon="2.436929">
        <ele>966.80</ele>
        <time>2013-03-26T10:41:01.74Z</time>
      </trkpt>
      <trkpt lat="42.333441" lon="2.436967">
        <ele>967.60</ele>
        <time>2013-03-26T13:08:54.25Z</time>
      </trkpt>
      <trkpt lat="42.333391" lon="2.437063">
        <ele>967.80</ele>
        <time>2013-03-26T15:51:05.34Z</time>
      </trkpt>
      <trkpt lat="42.333353" lon="2.437317">
        <ele>967.80</ele>
        <time>2013-03-26T21:48:59.56Z</time>
      </trkpt>
      <trkpt lat="42.333361" lon="2.437422">
        <ele>967.80</ele>
        <time>2013-03-27T00:14:46.40Z</time>
      </trkpt>
      <trkpt lat="42.333432" lon="2.437677">
        <ele>967.60</ele>
        <time>2013-03-27T06:31:05.89Z</time>
      </trkpt>
      <trkpt lat="42.333563" lon="2.437810">
        <ele>967.40</ele>
        <time>2013-03-27T11:37:05.89Z</time>
      </trkpt>
      <trkpt lat="42.333612" lon="2.437842">
        <ele>967.40</ele>
        <time>2013-03-27T13:18:45.07Z</time>
      </trkpt>
      <trkpt lat="42.333782" lon="2.437933">
        <ele>966.20</ele>
        <time>2013-03-27T19:00:18.76Z</time>
      </trkpt>
      <trkpt lat="42.333892" lon="2.437999">
        <ele>964.80</ele>
        <time>2013-03-27T22:45:07.54Z</time>
      </trkpt>
      <trkpt lat="42.333945" lon="2.438069">
        <ele>964.20</ele>
        <time>2013-03-28T01:03:30.58Z</time>
      </trkpt>
      <trkpt lat="42.333843" lon="2.438143">
        <ele>964.60</ele>
        <time>2013-03-28T04:39:44.68Z</time>
      </trkpt>
      <trkpt lat="42.333654" lon="2.438256">
        <ele>965.00</ele>
        <time>2013-03-28T11:05:47.45Z</time>
      </trkpt>
      <trkpt lat="42.333553" lon="2.438400">
        <ele>965.40</ele>
        <time>2013-03-28T15:39:56.11Z</time>
      </trkpt>
      <trkpt lat="42.333476" lon="2.438654">
        <ele>966.00</ele>
        <time>2013-03-28T21:59:04.62Z</time>
      </trkpt>
      <trkpt lat="42.333457" lon="2.438735">
        <ele>966.40</ele>
        <time>2013-03-28T23:56:26.41Z</time>
      </trkpt>
      <trkpt lat="42.333422" lon="2.438962">
        <ele>967.80</ele>
        <time>2013-03-29T05:16:41.37Z</time>
      </trkpt>
      <trkpt lat="42.333391" lon="2.439159">
        <ele>968.80</ele>
        <time>2013-03-29T09:54:51.37Z</time>
      </trkpt>
      <trkpt lat="42.333366" lon="2.439397">
        <ele>970.00</ele>
        <time>2013-03-29T15:26:51.17Z</time>
      </trkpt>
      <trkpt lat="42.333358" lon="2.439520">
        <ele>971.20</ele>
        <time>2013-03-29T18:17:22.85Z</time>
      </trkpt>
      <trkpt lat="42.333328" lon="2.439763">
        <ele>972.40</ele>
        <time>2013-03-29T23:57:37.74Z</time>
      </trkpt>
      <trkpt lat="42.333308" lon="2.439954">
        <ele>973.00</ele>
        <time>2013-03-30T04:24:02.82Z</time>
      </trkpt>
      <trkpt lat="42.333304" lon="2.440077">
        <ele>973.60</ele>
        <time>2013-03-30T07:14:04.99Z</time>
      </trkpt>
      <trkpt lat="42.333302" lon="2.440261">
        <ele>974.60</ele>
        <time>2013-03-30T11:28:13.68Z</time>
      </trkpt>
      <trkpt lat="42.333300" lon="2.440459">
        <ele>975.20</ele>
        <time>2013-03-30T16:01:42.36Z</time>
      </trkpt>
      <trkpt lat="42.333312" lon="2.440654">
        <ele>975.80</ele>
        <time>2013-03-30T20:31:56.79Z</time>
      </trkpt>
      <trkpt lat="42.333330" lon="2.440832">
        <ele>976.60</ele>
        <time>2013-03-31T00:40:04.01Z</time>
      </trkpt>
      <trkpt lat="42.333335" lon="2.440887">
        <ele>977.00</ele>
        <time>2013-03-31T01:56:35.88Z</time>
      </trkpt>
      <trkpt lat="42.333347" lon="2.441048">
        <ele>978.00</ele>
        <time>2013-03-31T05:40:04.67Z</time>
      </trkpt>
      <trkpt lat="42.333355" lon="2.441160">
        <ele>978.80</ele>
        <time>2013-03-31T08:15:28.69Z</time>
      </trkpt>
      <trkpt lat="42.333361" lon="2.441216">
        <ele>979.20</ele>
        <time>2013-03-31T09:33:37.58Z</time>
      </trkpt>
      <trkpt lat="42.333369" lon="2.441434">
        <ele>980.40</ele>
        <time>2013-03-31T14:35:04.24Z</time>
      </trkpt>
      <trkpt lat="42.333365" lon="2.441481">
        <ele>980.60</ele>
        <time>2013-03-31T15:40:24.58Z</time>
      </trkpt>
      <trkpt lat="42.333383" lon="2.441570">
        <ele>981.40</ele>
        <time>2013-03-31T17:47:50.53Z</time>
      </trkpt>
      <trkpt lat="42.333412" lon="2.441594">
        <ele>981.60</ele>
        <time>2013-03-31T18:51:21.34Z</time>
      </trkpt>
      <trkpt lat="42.333444" lon="2.441596">
        <ele>982.00</ele>
        <time>2013-03-31T19:51:12.18Z</time>
      </trkpt>
      <trkpt lat="42.333470" lon="2.441576">
        <ele>982.40</ele>
        <time>2013-03-31T20:47:04.87Z</time>
      </trkpt>
      <trkpt lat="42.333503" lon="2.441515">
        <ele>983.40</ele>
        <time>2013-03-31T22:31:28.54Z</time>
      </trkpt>
      <trkpt lat="42.333520" lon="2.441441">
        <ele>984.20</ele>
        <time>2013-04-01T00:18:29.75Z</time>
      </trkpt>
      <trkpt lat="42.333528" lon="2.441399">
        <ele>984.40</ele>
        <time>2013-04-01T01:18:23.72Z</time>
      </trkpt>
      <trkpt lat="42.333549" lon="2.441320">
        <ele>985.40</ele>
        <time>2013-04-01T03:14:20.35Z</time>
      </trkpt>
      <trkpt lat="42.333562" lon="2.441283">
        <ele>985.80</ele>
        <time>2013-04-01T04:10:55Z</time>
      </trkpt>
      <trkpt lat="42.333593" lon="2.441188">
        <ele>986.80</ele>
        <time>2013-04-01T06:34:19.92Z</time>
      </trkpt>
      <trkpt lat="42.333614" lon="2.441125">
        <ele>987.40</ele>
        <time>2013-04-01T08:09:46.53Z</time>
      </trkpt>
      <trkpt lat="42.333635" lon="2.441066">
        <ele>988.20</ele>
        <time>2013-04-01T09:40:12.69Z</time>
      </trkpt>
      <trkpt lat="42.333661" lon="2.440947">
        <ele>989.20</ele>
        <time>2013-04-01T12:31:35.17Z</time>
      </trkpt>
      <trkpt lat="42.333689" lon="2.440837">
        <ele>990.40</ele>
        <time>2013-04-01T15:12:15.44Z</time>
      </trkpt>
      <trkpt lat="42.333721" lon="2.440744">
        <ele>991.60</ele>
        <time>2013-04-01T17:33:55.69Z</time>
      </trkpt>
      <trkpt lat="42.333742" lon="2.440680">
        <ele>992.80</ele>
        <time>2013-04-01T19:10:37.93Z</time>
      </trkpt>
      <trkpt lat="42.333771" lon="2.440588">
        <ele>993.80</ele>
        <time>2013-04-01T21:28:45.54Z</time>
      </trkpt>
      <trkpt lat="42.333806" lon="2.440502">
        <ele>994.80</ele>
        <time>2013-04-01T23:44:20.40Z</time>
      </trkpt>
      <trkpt lat="42.333821" lon="2.440472">
        <ele>995.00</ele>
        <time>2013-04-02T00:34:21.55Z</time>
      </trkpt>
      <trkpt lat="42.333862" lon="2.440378">
        <ele>996.20</ele>
        <time>2013-04-02T03:05:05.51Z</time>
      </trkpt>
      <trkpt lat="42.333883" lon="2.440300">
        <ele>996.80</ele>
        <time>2013-04-02T04:59:44.19Z</time>
      </trkpt>
      <trkpt lat="42.333907" lon="2.440230">
        <ele>997.60</ele>
        <time>2013-04-02T06:46:18.15Z</time>
      </trkpt>
      <trkpt lat="42.333954" lon="2.440131">
        <ele>998.60</ele>
        <time>2013-04-02T09:28:47.69Z</time>
      </trkpt>
      <trkpt lat="42.333980" lon="2.440064">
        <ele>999.20</ele>
        <time>2013-04-02T11:13:18.02Z</time>
      </trkpt>
      <trkpt lat="42.334012" lon="2.439993">
        <ele>999.80</ele>
        <time>2013-04-02T13:08:08.58Z</time>
      </trkpt>
      <trkpt lat="42.334062" lon="2.439958">
        <ele>1000.40</ele>
        <time>2013-04-02T14:53:19.20Z</time>
      </trkpt>
      <trkpt lat="42.334087" lon="2.439981">
        <ele>1000.80</ele>
        <time>2013-04-02T15:49:48.22Z</time>
      </trkpt>
      <trkpt lat="42.334077" lon="2.440101">
        <ele>1002.00</ele>
        <time>2013-04-02T18:36:34.80Z</time>
      </trkpt>
      <trkpt lat="42.334053" lon="2.440201">
        <ele>1002.40</ele>
        <time>2013-04-02T21:01:46.91Z</time>
      </trkpt>
      <trkpt lat="42.334011" lon="2.440408">
        <ele>1002.80</ele>
        <time>2013-04-03T01:58:14Z</time>
      </trkpt>
      <trkpt lat="42.333998" lon="2.440515">
        <ele>1003.20</ele>
        <time>2013-04-03T04:27:59.34Z</time>
      </trkpt>
      <trkpt lat="42.333957" lon="2.440808">
        <ele>1004.00</ele>
        <time>2013-04-03T11:19:49.49Z</time>
      </trkpt>
      <trkpt lat="42.333954" lon="2.441137">
        <ele>1004.00</ele>
        <time>2013-04-03T18:54:13.65Z</time>
      </trkpt>
      <trkpt lat="42.333966" lon="2.441203">
        <ele>1004.20</ele>
        <time>2013-04-03T20:28:05.63Z</time>
      </trkpt>
      <trkpt lat="42.333987" lon="2.441264">
        <ele>1004.20</ele>
        <time>2013-04-03T22:01:01.56Z</time>
      </trkpt>
      <trkpt lat="42.334081" lon="2.441413">
        <ele>1004.60</ele>
        <time>2013-04-04T02:31:33.15Z</time>
      </trkpt>
      <trkpt lat="42.334195" lon="2.441493">
        <ele>1005.40</ele>
        <time>2013-04-04T06:31:28.98Z</time>
      </trkpt>
      <trkpt lat="42.334228" lon="2.441510">
        <ele>1005.80</ele>
        <time>2013-04-04T07:37:27.23Z</time>
      </trkpt>
      <trkpt lat="42.334292" lon="2.441530">
        <ele>1006.80</ele>
        <time>2013-04-04T09:40:10.18Z</time>
      </trkpt>
      <trkpt lat="42.334348" lon="2.441520">
        <ele>1008.00</ele>
        <time>2013-04-04T11:25:41.90Z</time>
      </trkpt>
      <trkpt lat="42.334371" lon="2.441499">
        <ele>1008.60</ele>
        <time>2013-04-04T12:17:32.35Z</time>
      </trkpt>
      <trkpt lat="42.334392" lon="2.441476">
        <ele>1009.00</ele>
        <time>2013-04-04T13:08:01.12Z</time>
      </trkpt>
      <trkpt lat="42.334397" lon="2.441449">
        <ele>1009.80</ele>
        <time>2013-04-04T13:46:27.56Z</time>
      </trkpt>
      <trkpt lat="42.334399" lon="2.441419">
        <ele>1010.20</ele>
        <time>2013-04-04T14:28:03.53Z</time>
      </trkpt>
      <trkpt lat="42.334387" lon="2.441380">
        <ele>1010.60</ele>
        <time>2013-04-04T15:26:23.96Z</time>
      </trkpt>
      <trkpt lat="42.334347" lon="2.441302">
        <ele>1011.20</ele>
        <time>2013-04-04T17:37:30.24Z</time>
      </trkpt>
      <trkpt lat="42.334325" lon="2.441258">
        <ele>1011.40</ele>
        <time>2013-04-04T18:50:51.90Z</time>
      </trkpt>
      <trkpt lat="42.334281" lon="2.441168">
        <ele>1012.00</ele>
        <time>2013-04-04T21:19:52.98Z</time>
      </trkpt>
      <trkpt lat="42.334261" lon="2.441119">
        <ele>1012.40</ele>
        <time>2013-04-04T22:37:11.08Z</time>
      </trkpt>
      <trkpt lat="42.334220" lon="2.440972">
        <ele>1013.40</ele>
        <time>2013-04-05T02:14:10.13Z</time>
      </trkpt>
      <trkpt lat="42.334209" lon="2.440876">
        <ele>1013.80</ele>
        <time>2013-04-05T04:28:19.99Z</time>
      </trkpt>
      <trkpt lat="42.334211" lon="2.440772">
        <ele>1014.40</ele>
        <time>2013-04-05T06:52:00.67Z</time>
      </trkpt>
      <trkpt lat="42.334245" lon="2.440559">
        <ele>1015.40</ele>
        <time>2013-04-05T11:52:57.31Z</time>
      </trkpt>
      <trkpt lat="42.334256" lon="2.440508">
        <ele>1015.60</ele>
        <time>2013-04-05T13:06:19.54Z</time>
      </trkpt>
      <trkpt lat="42.334331" lon="2.440270">
        <ele>1017.00</ele>
        <time>2013-04-05T19:03:38.11Z</time>
      </trkpt>
      <trkpt lat="42.334366" lon="2.440177">
        <ele>1017.60</ele>
        <time>2013-04-05T21:27:45.57Z</time>
      </trkpt>
      <trkpt lat="42.334404" lon="2.440089">
        <ele>1018.00</ele>
        <time>2013-04-05T23:48:30.47Z</time>
      </trkpt>
      <trkpt lat="42.334495" lon="2.439917">
        <ele>1019.20</ele>
        <time>2013-04-06T04:40:37.09Z</time>
      </trkpt>
      <trkpt lat="42.334538" lon="2.439820">
        <ele>1020.20</ele>
        <time>2013-04-06T07:16:49.24Z</time>
      </trkpt>
      <trkpt lat="42.334557" lon="2.439773">
        <ele>1020.60</ele>
        <time>2013-04-06T08:30:48.10Z</time>
      </trkpt>
      <trkpt lat="42.334640" lon="2.439590">
        <ele>1021.60</ele>
        <time>2013-04-06T13:27:18.65Z</time>
      </trkpt>
      <trkpt lat="42.334679" lon="2.439507">
        <ele>1022.20</ele>
        <time>2013-04-06T15:43:08.05Z</time>
      </trkpt>
      <trkpt lat="42.334724" lon="2.439410">
        <ele>1022.80</ele>
        <time>2013-04-06T18:21:17.43Z</time>
      </trkpt>
      <trkpt lat="42.334822" lon="2.439220">
        <ele>1024.00</ele>
        <time>2013-04-06T23:41:14.93Z</time>
      </trkpt>
      <trkpt lat="42.334897" lon="2.439031">
        <ele>1025.00</ele>
        <time>2013-04-07T04:37:29.76Z</time>
      </trkpt>
      <trkpt lat="42.334968" lon="2.438903">
        <ele>1025.80</ele>
        <time>2013-04-07T08:18:30.05Z</time>
      </trkpt>
      <trkpt lat="42.334997" lon="2.438864">
        <ele>1026.20</ele>
        <time>2013-04-07T09:34:53.79Z</time>
      </trkpt>
      <trkpt lat="42.335098" lon="2.438760">
        <ele>1027.20</ele>
        <time>2013-04-07T13:32:01.94Z</time>
      </trkpt>
      <trkpt lat="42.335152" lon="2.438704">
        <ele>1028.00</ele>
        <time>2013-04-07T15:39:08.98Z</time>
      </trkpt>
      <trkpt lat="42.335191" lon="2.438684">
        <ele>1028.20</ele>
        <time>2013-04-07T16:57:04.22Z</time>
      </trkpt>
      <trkpt lat="42.335305" lon="2.438623">
        <ele>1029.00</ele>
        <time>2013-04-07T20:46:06.29Z</time>
      </trkpt>
      <trkpt lat="42.335340" lon="2.438601">
        <ele>1029.40</ele>
        <time>2013-04-07T21:58:12.41Z</time>
      </trkpt>
      <trkpt lat="42.335479" lon="2.438501">
        <ele>1030.60</ele>
        <time>2013-04-08T02:52:19.80Z</time>
      </trkpt>
      <trkpt lat="42.335586" lon="2.438417">
        <ele>1031.20</ele>
        <time>2013-04-08T06:43:27.17Z</time>
      </trkpt>
      <trkpt lat="42.335654" lon="2.438363">
        <ele>1031.80</ele>
        <time>2013-04-08T09:10:45.84Z</time>
      </trkpt>
      <trkpt lat="42.335740" lon="2.438262">
        <ele>1032.80</ele>
        <time>2013-04-08T12:43:31.85Z</time>
      </trkpt>
      <trkpt lat="42.335781" lon="2.438179">
        <ele>1033.40</ele>
        <time>2013-04-08T15:01:23.58Z</time>
      </trkpt>
      <trkpt lat="42.335788" lon="2.438129">
        <ele>1033.60</ele>
        <time>2013-04-08T16:11:40.28Z</time>
      </trkpt>
      <trkpt lat="42.335791" lon="2.438077">
        <ele>1034.00</ele>
        <time>2013-04-08T17:23:42.16Z</time>
      </trkpt>
      <trkpt lat="42.335785" lon="2.437985">
        <ele>1035.20</ele>
        <time>2013-04-08T19:31:14.99Z</time>
      </trkpt>
      <trkpt lat="42.335710" lon="2.437808">
        <ele>1036.40</ele>
        <time>2013-04-09T00:13:00.09Z</time>
      </trkpt>
      <trkpt lat="42.335660" lon="2.437744">
        <ele>1037.00</ele>
        <time>2013-04-09T02:21:36.03Z</time>
      </trkpt>
      <trkpt lat="42.335606" lon="2.437685">
        <ele>1037.60</ele>
        <time>2013-04-09T04:31:16.79Z</time>
      </trkpt>
      <trkpt lat="42.335547" lon="2.437579">
        <ele>1038.60</ele>
        <time>2013-04-09T07:34:31.58Z</time>
      </trkpt>
      <trkpt lat="42.335535" lon="2.437539">
        <ele>1039.00</ele>
        <time>2013-04-09T08:34:08.59Z</time>
      </trkpt>
      <trkpt lat="42.335513" lon="2.437404">
        <ele>1040.00</ele>
        <time>2013-04-09T11:45:03.49Z</time>
      </trkpt>
      <trkpt lat="42.335528" lon="2.437309">
        <ele>1040.80</ele>
        <time>2013-04-09T13:59:12.89Z</time>
      </trkpt>
      <trkpt lat="42.335539" lon="2.437265">
        <ele>1041.20</ele>
        <time>2013-04-09T15:03:21.66Z</time>
      </trkpt>
      <trkpt lat="42.335584" lon="2.437132">
        <ele>1042.20</ele>
        <time>2013-04-09T18:25:21.77Z</time>
      </trkpt>
      <trkpt lat="42.335633" lon="2.437009">
        <ele>1043.40</ele>
        <time>2013-04-09T21:38:19.52Z</time>
      </trkpt>
      <trkpt lat="42.335697" lon="2.436853">
        <ele>1044.60</ele>
        <time>2013-04-10T01:44:43.20Z</time>
      </trkpt>
      <trkpt lat="42.335757" lon="2.436772">
        <ele>1045.20</ele>
        <time>2013-04-10T04:23:04.88Z</time>
      </trkpt>
      <trkpt lat="42.335781" lon="2.436769">
        <ele>1045.60</ele>
        <time>2013-04-10T05:08:06.59Z</time>
      </trkpt>
      <trkpt lat="42.335759" lon="2.436889">
        <ele>1046.60</ele>
        <time>2013-04-10T07:58:51.17Z</time>
      </trkpt>
      <trkpt lat="42.335747" lon="2.436921">
        <ele>1046.60</ele>
        <time>2013-04-10T08:48:24.40Z</time>
      </trkpt>
      <trkpt lat="42.335725" lon="2.436979">
        <ele>1046.80</ele>
        <time>2013-04-10T10:18:26.12Z</time>
      </trkpt>
      <trkpt lat="42.335650" lon="2.437289">
        <ele>1047.80</ele>
        <time>2013-04-10T17:48:53.87Z</time>
      </trkpt>
      <trkpt lat="42.335714" lon="2.437462">
        <ele>1049.00</ele>
        <time>2013-04-10T22:16:03.80Z</time>
      </trkpt>
      <trkpt lat="42.335806" lon="2.437562">
        <ele>1050.00</ele>
        <time>2013-04-11T01:56:32.94Z</time>
      </trkpt>
      <trkpt lat="42.335824" lon="2.437583">
        <ele>1050.40</ele>
        <time>2013-04-11T02:40:57.33Z</time>
      </trkpt>
      <trkpt lat="42.335898" lon="2.437679">
        <ele>1051.40</ele>
        <time>2013-04-11T05:52:30.06Z</time>
      </trkpt>
      <trkpt lat="42.335960" lon="2.437760">
        <ele>1052.60</ele>
        <time>2013-04-11T08:33:31.71Z</time>
      </trkpt>
      <trkpt lat="42.336048" lon="2.437871">
        <ele>1053.60</ele>
        <time>2013-04-11T12:18:18.70Z</time>
      </trkpt>
      <trkpt lat="42.336082" lon="2.437919">
        <ele>1054.20</ele>
        <time>2013-04-11T13:50:07.26Z</time>
      </trkpt>
      <trkpt lat="42.336171" lon="2.438056">
        <ele>1054.80</ele>
        <time>2013-04-11T18:01:59.96Z</time>
      </trkpt>
      <trkpt lat="42.336189" lon="2.438097">
        <ele>1055.20</ele>
        <time>2013-04-11T19:07:51.24Z</time>
      </trkpt>
      <trkpt lat="42.336209" lon="2.438230">
        <ele>1055.80</ele>
        <time>2013-04-11T22:15:17.41Z</time>
      </trkpt>
      <trkpt lat="42.336203" lon="2.438275">
        <ele>1056.20</ele>
        <time>2013-04-11T23:18:26.30Z</time>
      </trkpt>
      <trkpt lat="42.336166" lon="2.438385">
        <ele>1057.00</ele>
        <time>2013-04-12T02:05:20.22Z</time>
      </trkpt>
      <trkpt lat="42.336139" lon="2.438455">
        <ele>1057.80</ele>
        <time>2013-04-12T03:54:22.60Z</time>
      </trkpt>
      <trkpt lat="42.336122" lon="2.438498">
        <ele>1058.20</ele>
        <time>2013-04-12T05:01:43.19Z</time>
      </trkpt>
      <trkpt lat="42.336084" lon="2.438691">
        <ele>1059.40</ele>
        <time>2013-04-12T09:37:32.85Z</time>
      </trkpt>
      <trkpt lat="42.336048" lon="2.438966">
        <ele>1060.40</ele>
        <time>2013-04-12T16:03:14.11Z</time>
      </trkpt>
      <trkpt lat="42.336028" lon="2.439017">
        <ele>1060.60</ele>
        <time>2013-04-12T17:22:57.86Z</time>
      </trkpt>
      <trkpt lat="42.335970" lon="2.439231">
        <ele>1061.60</ele>
        <time>2013-04-12T22:37:44.37Z</time>
      </trkpt>
      <trkpt lat="42.335965" lon="2.439327">
        <ele>1062.20</ele>
        <time>2013-04-13T00:50:38.73Z</time>
      </trkpt>
      <trkpt lat="42.335991" lon="2.439461">
        <ele>1062.80</ele>
        <time>2013-04-13T04:01:58.20Z</time>
      </trkpt>
      <trkpt lat="42.336014" lon="2.439553">
        <ele>1063.40</ele>
        <time>2013-04-13T06:16:05.56Z</time>
      </trkpt>
      <trkpt lat="42.336066" lon="2.439698">
        <ele>1063.80</ele>
        <time>2013-04-13T09:58:39.65Z</time>
      </trkpt>
      <trkpt lat="42.336129" lon="2.439835">
        <ele>1065.00</ele>
        <time>2013-04-13T13:41:28.89Z</time>
      </trkpt>
      <trkpt lat="42.336237" lon="2.439939">
        <ele>1066.20</ele>
        <time>2013-04-13T17:49:08.91Z</time>
      </trkpt>
      <trkpt lat="42.336269" lon="2.439945">
        <ele>1066.40</ele>
        <time>2013-04-13T18:49:30.21Z</time>
      </trkpt>
      <trkpt lat="42.336384" lon="2.439940">
        <ele>1067.20</ele>
        <time>2013-04-13T22:24:27.67Z</time>
      </trkpt>
      <trkpt lat="42.336472" lon="2.439925">
        <ele>1067.60</ele>
        <time>2013-04-14T01:10:09.94Z</time>
      </trkpt>
      <trkpt lat="42.336597" lon="2.439904">
        <ele>1068.40</ele>
        <time>2013-04-14T05:05:29.33Z</time>
      </trkpt>
      <trkpt lat="42.336711" lon="2.439852">
        <ele>1069.20</ele>
        <time>2013-04-14T08:50:14.90Z</time>
      </trkpt>
      <trkpt lat="42.336749" lon="2.439826">
        <ele>1069.60</ele>
        <time>2013-04-14T10:09:48.28Z</time>
      </trkpt>
      <trkpt lat="42.336882" lon="2.439724">
        <ele>1070.80</ele>
        <time>2013-04-14T14:55:25.80Z</time>
      </trkpt>
      <trkpt lat="42.336915" lon="2.439699">
        <ele>1071.20</ele>
        <time>2013-04-14T16:06:05.43Z</time>
      </trkpt>
      <trkpt lat="42.336982" lon="2.439641">
        <ele>1071.80</ele>
        <time>2013-04-14T18:34:41.75Z</time>
      </trkpt>
      <trkpt lat="42.337167" lon="2.439488">
        <ele>1072.80</ele>
        <time>2013-04-15T01:19:47.26Z</time>
      </trkpt>
      <trkpt lat="42.337210" lon="2.439462">
        <ele>1073.00</ele>
        <time>2013-04-15T02:47:46.85Z</time>
      </trkpt>
      <trkpt lat="42.337477" lon="2.439329">
        <ele>1073.20</ele>
        <time>2013-04-15T11:39:20.37Z</time>
      </trkpt>
      <trkpt lat="42.337619" lon="2.439299">
        <ele>1073.40</ele>
        <time>2013-04-15T16:07:50.65Z</time>
      </trkpt>
      <trkpt lat="42.337723" lon="2.439326">
        <ele>1073.80</ele>
        <time>2013-04-15T19:25:41.15Z</time>
      </trkpt>
      <trkpt lat="42.337767" lon="2.439337">
        <ele>1074.20</ele>
        <time>2013-04-15T20:49:16.79Z</time>
      </trkpt>
      <trkpt lat="42.337871" lon="2.439379">
        <ele>1075.40</ele>
        <time>2013-04-16T00:12:02.91Z</time>
      </trkpt>
      <trkpt lat="42.337950" lon="2.439406">
        <ele>1076.40</ele>
        <time>2013-04-16T02:44:16.56Z</time>
      </trkpt>
      <trkpt lat="42.338006" lon="2.439399">
        <ele>1076.80</ele>
        <time>2013-04-16T04:29:20.57Z</time>
      </trkpt>
      <trkpt lat="42.338042" lon="2.439393">
        <ele>1077.00</ele>
        <time>2013-04-16T05:37:06.46Z</time>
      </trkpt>
      <trkpt lat="42.338117" lon="2.439397">
        <ele>1077.60</ele>
        <time>2013-04-16T07:57:20.04Z</time>
      </trkpt>
      <trkpt lat="42.338237" lon="2.439432">
        <ele>1078.00</ele>
        <time>2013-04-16T11:46:40.39Z</time>
      </trkpt>
      <trkpt lat="42.338346" lon="2.439499">
        <ele>1078.60</ele>
        <time>2013-04-16T15:30:20.68Z</time>
      </trkpt>
      <trkpt lat="42.338436" lon="2.439541">
        <ele>1079.20</ele>
        <time>2013-04-16T18:28:12.50Z</time>
      </trkpt>
      <trkpt lat="42.338522" lon="2.439578">
        <ele>1079.80</ele>
        <time>2013-04-16T21:16:48.32Z</time>
      </trkpt>
      <trkpt lat="42.338692" lon="2.439622">
        <ele>1081.00</ele>
        <time>2013-04-17T02:40:09.91Z</time>
      </trkpt>
      <trkpt lat="42.338737" lon="2.439637">
        <ele>1081.20</ele>
        <time>2013-04-17T04:06:45Z</time>
      </trkpt>
      <trkpt lat="42.338938" lon="2.439697">
        <ele>1082.00</ele>
        <time>2013-04-17T10:31:17.85Z</time>
      </trkpt>
      <trkpt lat="42.338989" lon="2.439699">
        <ele>1082.40</ele>
        <time>2013-04-17T12:06:37.04Z</time>
      </trkpt>
      <trkpt lat="42.339164" lon="2.439611">
        <ele>1083.20</ele>
        <time>2013-04-17T17:55:24.77Z</time>
      </trkpt>
      <trkpt lat="42.339277" lon="2.439456">
        <ele>1084.00</ele>
        <time>2013-04-17T22:56:03.06Z</time>
      </trkpt>
      <trkpt lat="42.339362" lon="2.439346">
        <ele>1084.00</ele>
        <time>2013-04-18T02:35:48.33Z</time>
      </trkpt>
      <trkpt lat="42.339445" lon="2.439226">
        <ele>1084.40</ele>
        <time>2013-04-18T06:22:45.20Z</time>
      </trkpt>
      <trkpt lat="42.339509" lon="2.439092">
        <ele>1084.40</ele>
        <time>2013-04-18T10:03:04.02Z</time>
      </trkpt>
      <trkpt lat="42.339563" lon="2.438947">
        <ele>1084.20</ele>
        <time>2013-04-18T13:47:16.87Z</time>
      </trkpt>
      <trkpt lat="42.339617" lon="2.438844">
        <ele>1084.00</ele>
        <time>2013-04-18T16:41:39.76Z</time>
      </trkpt>
      <trkpt lat="42.339721" lon="2.438774">
        <ele>1084.40</ele>
        <time>2013-04-18T20:18:40.62Z</time>
      </trkpt>
      <trkpt lat="42.339860" lon="2.438692">
        <ele>1085.00</ele>
        <time>2013-04-19T01:01:58.57Z</time>
      </trkpt>
      <trkpt lat="42.339916" lon="2.438671">
        <ele>1085.00</ele>
        <time>2013-04-19T02:50:32.52Z</time>
      </trkpt>
      <trkpt lat="42.340276" lon="2.438539">
        <ele>1084.00</ele>
        <time>2013-04-19T14:27:22.19Z</time>
      </trkpt>
      <trkpt lat="42.340355" lon="2.438522">
        <ele>1084.20</ele>
        <time>2013-04-19T16:56:48.94Z</time>
      </trkpt>
      <trkpt lat="42.340620" lon="2.438452">
        <ele>1086.00</ele>
        <time>2013-04-20T01:21:14.76Z</time>
      </trkpt>
      <trkpt lat="42.340732" lon="2.438419">
        <ele>1086.80</ele>
        <time>2013-04-20T04:55:23.58Z</time>
      </trkpt>
      <trkpt lat="42.340787" lon="2.438405">
        <ele>1087.20</ele>
        <time>2013-04-20T06:39:56.92Z</time>
      </trkpt>
      <trkpt lat="42.340966" lon="2.438322">
        <ele>1088.00</ele>
        <time>2013-04-20T12:33:27.51Z</time>
      </trkpt>
      <trkpt lat="42.341014" lon="2.438269">
        <ele>1088.20</ele>
        <time>2013-04-20T14:29:12.52Z</time>
      </trkpt>
      <trkpt lat="42.341054" lon="2.438219">
        <ele>1088.40</ele>
        <time>2013-04-20T16:10:57.12Z</time>
      </trkpt>
      <trkpt lat="42.341112" lon="2.438130">
        <ele>1088.80</ele>
        <time>2013-04-20T18:54:47.94Z</time>
      </trkpt>
      <trkpt lat="42.341167" lon="2.438055">
        <ele>1089.40</ele>
        <time>2013-04-20T21:20:41.44Z</time>
      </trkpt>
      <trkpt lat="42.341252" lon="2.438008">
        <ele>1090.60</ele>
        <time>2013-04-21T00:12:14.49Z</time>
      </trkpt>
      <trkpt lat="42.341307" lon="2.437985">
        <ele>1091.80</ele>
        <time>2013-04-21T01:59:47.46Z</time>
      </trkpt>
      <trkpt lat="42.341333" lon="2.437945">
        <ele>1092.40</ele>
        <time>2013-04-21T03:13:20.80Z</time>
      </trkpt>
      <trkpt lat="42.341354" lon="2.437901">
        <ele>1093.00</ele>
        <time>2013-04-21T04:25:40.31Z</time>
      </trkpt>
      <trkpt lat="42.341417" lon="2.437765">
        <ele>1094.20</ele>
        <time>2013-04-21T08:07:18.47Z</time>
      </trkpt>
      <trkpt lat="42.341453" lon="2.437709">
        <ele>1095.60</ele>
        <time>2013-04-21T09:49:47.62Z</time>
      </trkpt>
      <trkpt lat="42.341498" lon="2.437617">
        <ele>1096.80</ele>
        <time>2013-04-21T12:22:08.04Z</time>
      </trkpt>
      <trkpt lat="42.341554" lon="2.437514">
        <ele>1098.00</ele>
        <time>2013-04-21T15:18:41.98Z</time>
      </trkpt>
      <trkpt lat="42.341672" lon="2.437369">
        <ele>1099.00</ele>
        <time>2013-04-21T20:16:30.56Z</time>
      </trkpt>
      <trkpt lat="42.341787" lon="2.437277">
        <ele>1099.80</ele>
        <time>2013-04-22T00:26:06.39Z</time>
      </trkpt>
      <trkpt lat="42.341819" lon="2.437253">
        <ele>1100.20</ele>
        <time>2013-04-22T01:34:27.69Z</time>
      </trkpt>
      <trkpt lat="42.341930" lon="2.437101">
        <ele>1101.20</ele>
        <time>2013-04-22T06:29:31.21Z</time>
      </trkpt>
      <trkpt lat="42.342015" lon="2.436961">
        <ele>1102.40</ele>
        <time>2013-04-22T10:39:42.17Z</time>
      </trkpt>
      <trkpt lat="42.342056" lon="2.436910">
        <ele>1103.00</ele>
        <time>2013-04-22T12:23:45.30Z</time>
      </trkpt>
      <trkpt lat="42.342112" lon="2.436862">
        <ele>1103.60</ele>
        <time>2013-04-22T14:27:36.32Z</time>
      </trkpt>
      <trkpt lat="42.342186" lon="2.436876">
        <ele>1104.40</ele>
        <time>2013-04-22T16:47:11.98Z</time>
      </trkpt>
      <trkpt lat="42.342232" lon="2.436910">
        <ele>1104.80</ele>
        <time>2013-04-22T18:25:07.62Z</time>
      </trkpt>
      <trkpt lat="42.342281" lon="2.436959">
        <ele>1105.80</ele>
        <time>2013-04-22T20:18:57.74Z</time>
      </trkpt>
      <trkpt lat="42.342305" lon="2.436982">
        <ele>1106.00</ele>
        <time>2013-04-22T21:13:54.53Z</time>
      </trkpt>
      <trkpt lat="42.342357" lon="2.437054">
        <ele>1107.40</ele>
        <time>2013-04-22T23:32:54.89Z</time>
      </trkpt>
      <trkpt lat="42.342415" lon="2.437108">
        <ele>1108.60</ele>
        <time>2013-04-23T01:44:27.03Z</time>
      </trkpt>
      <trkpt lat="42.342458" lon="2.437149">
        <ele>1109.80</ele>
        <time>2013-04-23T03:22:43.81Z</time>
      </trkpt>
      <trkpt lat="42.342513" lon="2.437221">
        <ele>1111.40</ele>
        <time>2013-04-23T05:45:42.55Z</time>
      </trkpt>
      <trkpt lat="42.342530" lon="2.437237">
        <ele>1111.80</ele>
        <time>2013-04-23T06:24:23.89Z</time>
      </trkpt>
      <trkpt lat="42.342536" lon="2.437262">
        <ele>1112.00</ele>
        <time>2013-04-23T07:00:41.65Z</time>
      </trkpt>
      <trkpt lat="42.342548" lon="2.437286">
        <ele>1112.40</ele>
        <time>2013-04-23T07:40:42.34Z</time>
      </trkpt>
      <trkpt lat="42.342590" lon="2.437333">
        <ele>1113.20</ele>
        <time>2013-04-23T09:22:32.04Z</time>
      </trkpt>
      <trkpt lat="42.342606" lon="2.437353">
        <ele>1113.40</ele>
        <time>2013-04-23T10:03:13.85Z</time>
      </trkpt>
      <trkpt lat="42.342648" lon="2.437405">
        <ele>1114.60</ele>
        <time>2013-04-23T11:49:35.57Z</time>
      </trkpt>
      <trkpt lat="42.342668" lon="2.437452">
        <ele>1115.20</ele>
        <time>2013-04-23T13:04:28.85Z</time>
      </trkpt>
      <trkpt lat="42.342674" lon="2.437476">
        <ele>1115.60</ele>
        <time>2013-04-23T13:39:27.96Z</time>
      </trkpt>
      <trkpt lat="42.342696" lon="2.437541">
        <ele>1116.60</ele>
        <time>2013-04-23T15:18:11.12Z</time>
      </trkpt>
      <trkpt lat="42.342734" lon="2.437615">
        <ele>1117.60</ele>
        <time>2013-04-23T17:22:36.62Z</time>
      </trkpt>
      <trkpt lat="42.342753" lon="2.437628">
        <ele>1118.20</ele>
        <time>2013-04-23T18:02:23.27Z</time>
      </trkpt>
      <trkpt lat="42.342814" lon="2.437715">
        <ele>1119.20</ele>
        <time>2013-04-23T20:47:58.63Z</time>
      </trkpt>
      <trkpt lat="42.342826" lon="2.437740">
        <ele>1119.60</ele>
        <time>2013-04-23T21:29:08.38Z</time>
      </trkpt>
      <trkpt lat="42.342850" lon="2.437797">
        <ele>1120.40</ele>
        <time>2013-04-23T22:59:43.44Z</time>
      </trkpt>
      <trkpt lat="42.342907" lon="2.437902">
        <ele>1121.60</ele>
        <time>2013-04-24T01:59:37.15Z</time>
      </trkpt>
      <trkpt lat="42.342937" lon="2.437947">
        <ele>1122.20</ele>
        <time>2013-04-24T03:23:18Z</time>
      </trkpt>
      <trkpt lat="42.342976" lon="2.437992">
        <ele>1122.80</ele>
        <time>2013-04-24T04:59:03.60Z</time>
      </trkpt>
      <trkpt lat="42.343054" lon="2.438067">
        <ele>1123.80</ele>
        <time>2013-04-24T07:57:50.10Z</time>
      </trkpt>
      <trkpt lat="42.343135" lon="2.438113">
        <ele>1125.20</ele>
        <time>2013-04-24T10:41:57.15Z</time>
      </trkpt>
      <trkpt lat="42.343166" lon="2.438133">
        <ele>1126.20</ele>
        <time>2013-04-24T11:46:06.93Z</time>
      </trkpt>
      <trkpt lat="42.343179" lon="2.438152">
        <ele>1126.60</ele>
        <time>2013-04-24T12:21:52.05Z</time>
      </trkpt>
      <trkpt lat="42.343201" lon="2.438189">
        <ele>1127.20</ele>
        <time>2013-04-24T13:27:26.35Z</time>
      </trkpt>
      <trkpt lat="42.343236" lon="2.438275">
        <ele>1128.60</ele>
        <time>2013-04-24T15:43:00.28Z</time>
      </trkpt>
      <trkpt lat="42.343233" lon="2.438330">
        <ele>1129.20</ele>
        <time>2013-04-24T16:59:09.50Z</time>
      </trkpt>
      <trkpt lat="42.343226" lon="2.438359">
        <ele>1129.60</ele>
        <time>2013-04-24T17:41:17.06Z</time>
      </trkpt>
      <trkpt lat="42.343210" lon="2.438487">
        <ele>1130.80</ele>
        <time>2013-04-24T20:40:32.62Z</time>
      </trkpt>
      <trkpt lat="42.343205" lon="2.438522">
        <ele>1130.80</ele>
        <time>2013-04-24T21:29:46.08Z</time>
      </trkpt>
      <trkpt lat="42.343211" lon="2.438715">
        <ele>1132.00</ele>
        <time>2013-04-25T01:56:30.52Z</time>
      </trkpt>
      <trkpt lat="42.343242" lon="2.438800">
        <ele>1132.20</ele>
        <time>2013-04-25T04:07:23.53Z</time>
      </trkpt>
      <trkpt lat="42.343318" lon="2.438877">
        <ele>1133.40</ele>
        <time>2013-04-25T07:04:46.58Z</time>
      </trkpt>
      <trkpt lat="42.343344" lon="2.438896">
        <ele>1133.80</ele>
        <time>2013-04-25T07:59:58.98Z</time>
      </trkpt>
      <trkpt lat="42.343400" lon="2.438927">
        <ele>1134.60</ele>
        <time>2013-04-25T09:53:01.35Z</time>
      </trkpt>
      <trkpt lat="42.343493" lon="2.438928">
        <ele>1135.80</ele>
        <time>2013-04-25T12:46:46.43Z</time>
      </trkpt>
      <trkpt lat="42.343612" lon="2.438851">
        <ele>1137.20</ele>
        <time>2013-04-25T16:53:12.64Z</time>
      </trkpt>
      <trkpt lat="42.343635" lon="2.438834">
        <ele>1137.60</ele>
        <time>2013-04-25T17:42:10.44Z</time>
      </trkpt>
      <trkpt lat="42.343681" lon="2.438810">
        <ele>1138.40</ele>
        <time>2013-04-25T19:14:16.88Z</time>
      </trkpt>
      <trkpt lat="42.343780" lon="2.438736">
        <ele>1139.20</ele>
        <time>2013-04-25T22:45:35.15Z</time>
      </trkpt>
      <trkpt lat="42.343831" lon="2.438701">
        <ele>1139.60</ele>
        <time>2013-04-26T00:32:25.33Z</time>
      </trkpt>
      <trkpt lat="42.343920" lon="2.438644">
        <ele>1140.80</ele>
        <time>2013-04-26T03:36:22.98Z</time>
      </trkpt>
      <trkpt lat="42.344018" lon="2.438580">
        <ele>1142.00</ele>
        <time>2013-04-26T06:59:40.95Z</time>
      </trkpt>
      <trkpt lat="42.344075" lon="2.438544">
        <ele>1143.00</ele>
        <time>2013-04-26T08:57:12.18Z</time>
      </trkpt>
      <trkpt lat="42.344098" lon="2.438543">
        <ele>1143.20</ele>
        <time>2013-04-26T09:40:11.68Z</time>
      </trkpt>
      <trkpt lat="42.344172" lon="2.438510">
        <ele>1144.20</ele>
        <time>2013-04-26T12:05:45.60Z</time>
      </trkpt>
      <trkpt lat="42.344276" lon="2.438465">
        <ele>1145.60</ele>
        <time>2013-04-26T15:29:45.02Z</time>
      </trkpt>
      <trkpt lat="42.344310" lon="2.438460">
        <ele>1145.80</ele>
        <time>2013-04-26T16:33:38.67Z</time>
      </trkpt>
      <trkpt lat="42.344418" lon="2.438413">
        <ele>1147.00</ele>
        <time>2013-04-26T20:05:35.65Z</time>
      </trkpt>
      <trkpt lat="42.344493" lon="2.438389">
        <ele>1147.80</ele>
        <time>2013-04-26T22:29:34.64Z</time>
      </trkpt>
      <trkpt lat="42.344521" lon="2.438382">
        <ele>1148.00</ele>
        <time>2013-04-26T23:22:46.41Z</time>
      </trkpt>
      <trkpt lat="42.344615" lon="2.438360">
        <ele>1149.40</ele>
        <time>2013-04-27T02:20:59.73Z</time>
      </trkpt>
      <trkpt lat="42.344665" lon="2.438336">
        <ele>1150.40</ele>
        <time>2013-04-27T04:00:06.69Z</time>
      </trkpt>
      <trkpt lat="42.344684" lon="2.438331">
        <ele>1150.80</ele>
        <time>2013-04-27T04:36:16.39Z</time>
      </trkpt>
      <trkpt lat="42.345026" lon="2.438269">
        <ele>1156.80</ele>
        <time>2013-04-27T15:20:55.14Z</time>
      </trkpt>
      <trkpt lat="42.345049" lon="2.438268">
        <ele>1157.20</ele>
        <time>2013-04-27T16:03:54.63Z</time>
      </trkpt>
      <trkpt lat="42.345088" lon="2.438265">
        <ele>1158.00</ele>
        <time>2013-04-27T17:16:53.36Z</time>
      </trkpt>
      <trkpt lat="42.345157" lon="2.438240">
        <ele>1159.00</ele>
        <time>2013-04-27T19:30:20.37Z</time>
      </trkpt>
      <trkpt lat="42.345196" lon="2.438199">
        <ele>1159.40</ele>
        <time>2013-04-27T21:02:36.58Z</time>
      </trkpt>
      <trkpt lat="42.345240" lon="2.438136">
        <ele>1160.20</ele>
        <time>2013-04-27T23:02:17.72Z</time>
      </trkpt>
      <trkpt lat="42.345286" lon="2.438080">
        <ele>1161.20</ele>
        <time>2013-04-28T00:57:54.07Z</time>
      </trkpt>
      <trkpt lat="42.345360" lon="2.437981">
        <ele>1162.60</ele>
        <time>2013-04-28T04:12:19.36Z</time>
      </trkpt>
      <trkpt lat="42.345427" lon="2.437924">
        <ele>1163.60</ele>
        <time>2013-04-28T06:40:10.96Z</time>
      </trkpt>
      <trkpt lat="42.345456" lon="2.437887">
        <ele>1164.20</ele>
        <time>2013-04-28T07:54:39.05Z</time>
      </trkpt>
      <trkpt lat="42.345484" lon="2.437852">
        <ele>1164.80</ele>
        <time>2013-04-28T09:05:52.13Z</time>
      </trkpt>
      <trkpt lat="42.345518" lon="2.437819">
        <ele>1165.40</ele>
        <time>2013-04-28T10:24:02.54Z</time>
      </trkpt>
      <trkpt lat="42.345530" lon="2.437801">
        <ele>1165.80</ele>
        <time>2013-04-28T10:57:30.84Z</time>
      </trkpt>
      <trkpt lat="42.345546" lon="2.437787">
        <ele>1166.00</ele>
        <time>2013-04-28T11:33:06.71Z</time>
      </trkpt>
      <trkpt lat="42.345603" lon="2.437738">
        <ele>1167.20</ele>
        <time>2013-04-28T13:39:16.65Z</time>
      </trkpt>
      <trkpt lat="42.345619" lon="2.437723">
        <ele>1167.60</ele>
        <time>2013-04-28T14:15:38.62Z</time>
      </trkpt>
      <trkpt lat="42.345652" lon="2.437677">
        <ele>1168.20</ele>
        <time>2013-04-28T15:44:09.67Z</time>
      </trkpt>
      <trkpt lat="42.345706" lon="2.437613">
        <ele>1169.40</ele>
        <time>2013-04-28T17:58:16.65Z</time>
      </trkpt>
      <trkpt lat="42.345742" lon="2.437599">
        <ele>1170.40</ele>
        <time>2013-04-28T19:08:15.41Z</time>
      </trkpt>
      <trkpt lat="42.345763" lon="2.437593">
        <ele>1170.60</ele>
        <time>2013-04-28T19:48:21.30Z</time>
      </trkpt>
      <trkpt lat="42.345818" lon="2.437574">
        <ele>1171.60</ele>
        <time>2013-04-28T21:34:24.25Z</time>
      </trkpt>
      <trkpt lat="42.345883" lon="2.437550">
        <ele>1172.80</ele>
        <time>2013-04-28T23:40:16.79Z</time>
      </trkpt>
      <trkpt lat="42.345904" lon="2.437533">
        <ele>1173.20</ele>
        <time>2013-04-29T00:25:59.93Z</time>
      </trkpt>
      <trkpt lat="42.345959" lon="2.437496">
        <ele>1173.80</ele>
        <time>2013-04-29T02:20:45.12Z</time>
      </trkpt>
      <trkpt lat="42.346007" lon="2.437491">
        <ele>1174.40</ele>
        <time>2013-04-29T03:50:41.55Z</time>
      </trkpt>
      <trkpt lat="42.346057" lon="2.437478">
        <ele>1174.80</ele>
        <time>2013-04-29T05:25:48.80Z</time>
      </trkpt>
      <trkpt lat="42.346162" lon="2.437453">
        <ele>1176.00</ele>
        <time>2013-04-29T08:44:59.52Z</time>
      </trkpt>
      <trkpt lat="42.346187" lon="2.437458">
        <ele>1176.20</ele>
        <time>2013-04-29T09:32:12.32Z</time>
      </trkpt>
      <trkpt lat="42.346213" lon="2.437468">
        <ele>1176.60</ele>
        <time>2013-04-29T10:22:42.23Z</time>
      </trkpt>
      <trkpt lat="42.346266" lon="2.437474">
        <ele>1177.00</ele>
        <time>2013-04-29T12:02:03.97Z</time>
      </trkpt>
      <trkpt lat="42.346357" lon="2.437484">
        <ele>1178.20</ele>
        <time>2013-04-29T14:52:38.11Z</time>
      </trkpt>
      <trkpt lat="42.346407" lon="2.437486">
        <ele>1178.80</ele>
        <time>2013-04-29T16:26:05.26Z</time>
      </trkpt>
      <trkpt lat="42.346454" lon="2.437493">
        <ele>1179.40</ele>
        <time>2013-04-29T17:54:25.50Z</time>
      </trkpt>
      <trkpt lat="42.346525" lon="2.437508">
        <ele>1180.20</ele>
        <time>2013-04-29T20:08:40.61Z</time>
      </trkpt>
      <trkpt lat="42.346554" lon="2.437506">
        <ele>1180.40</ele>
        <time>2013-04-29T21:02:55.56Z</time>
      </trkpt>
      <trkpt lat="42.346622" lon="2.437484">
        <ele>1181.80</ele>
        <time>2013-04-29T23:13:32.83Z</time>
      </trkpt>
      <trkpt lat="42.346643" lon="2.437477">
        <ele>1182.20</ele>
        <time>2013-04-29T23:53:57.19Z</time>
      </trkpt>
      <trkpt lat="42.346684" lon="2.437457">
        <ele>1182.80</ele>
        <time>2013-04-30T01:15:22.61Z</time>
      </trkpt>
      <trkpt lat="42.346734" lon="2.437413">
        <ele>1184.00</ele>
        <time>2013-04-30T03:06:48.45Z</time>
      </trkpt>
      <trkpt lat="42.346756" lon="2.437392">
        <ele>1184.40</ele>
        <time>2013-04-30T03:57:06.45Z</time>
      </trkpt>
      <trkpt lat="42.346812" lon="2.437331">
        <ele>1185.20</ele>
        <time>2013-04-30T06:11:25.20Z</time>
      </trkpt>
      <trkpt lat="42.346879" lon="2.437297">
        <ele>1185.80</ele>
        <time>2013-04-30T08:25:06.35Z</time>
      </trkpt>
      <trkpt lat="42.346947" lon="2.437237">
        <ele>1186.60</ele>
        <time>2013-04-30T10:56:46.32Z</time>
      </trkpt>
      <trkpt lat="42.347002" lon="2.437210">
        <ele>1187.80</ele>
        <time>2013-04-30T12:46:04.74Z</time>
      </trkpt>
      <trkpt lat="42.347042" lon="2.437171">
        <ele>1188.80</ele>
        <time>2013-04-30T14:18:11.36Z</time>
      </trkpt>
      <trkpt lat="42.347086" lon="2.437135">
        <ele>1189.80</ele>
        <time>2013-04-30T15:54:15.13Z</time>
      </trkpt>
      <trkpt lat="42.347134" lon="2.437093">
        <ele>1191.00</ele>
        <time>2013-04-30T17:41:02.71Z</time>
      </trkpt>
      <trkpt lat="42.347166" lon="2.437062">
        <ele>1192.00</ele>
        <time>2013-04-30T18:54:34.33Z</time>
      </trkpt>
      <trkpt lat="42.347201" lon="2.437066">
        <ele>1192.80</ele>
        <time>2013-04-30T20:00:11.60Z</time>
      </trkpt>
      <trkpt lat="42.347214" lon="2.437068">
        <ele>1193.20</ele>
        <time>2013-04-30T20:24:38.21Z</time>
      </trkpt>
      <trkpt lat="42.347344" lon="2.437113">
        <ele>1194.40</ele>
        <time>2013-05-01T00:35:19.75Z</time>
      </trkpt>
      <trkpt lat="42.347437" lon="2.437115">
        <ele>1195.40</ele>
        <time>2013-05-01T03:29:05.81Z</time>
      </trkpt>
      <trkpt lat="42.347521" lon="2.437128">
        <ele>1196.60</ele>
        <time>2013-05-01T06:07:03.10Z</time>
      </trkpt>
      <trkpt lat="42.347630" lon="2.437127">
        <ele>1197.80</ele>
        <time>2013-05-01T09:30:41.63Z</time>
      </trkpt>
      <trkpt lat="42.347646" lon="2.437125">
        <ele>1198.20</ele>
        <time>2013-05-01T10:00:42.77Z</time>
      </trkpt>
      <trkpt lat="42.347685" lon="2.437130">
        <ele>1199.00</ele>
        <time>2013-05-01T11:13:54.02Z</time>
      </trkpt>
      <trkpt lat="42.347742" lon="2.437136">
        <ele>1200.40</ele>
        <time>2013-05-01T13:00:42.68Z</time>
      </trkpt>
      <trkpt lat="42.347753" lon="2.437135">
        <ele>1200.60</ele>
        <time>2013-05-01T13:21:18.50Z</time>
      </trkpt>
      <trkpt lat="42.347902" lon="2.437165">
        <ele>1201.40</ele>
        <time>2013-05-01T18:02:44.41Z</time>
      </trkpt>
      <trkpt lat="42.348043" lon="2.437187">
        <ele>1202.00</ele>
        <time>2013-05-01T22:27:54.40Z</time>
      </trkpt>
      <trkpt lat="42.348141" lon="2.437204">
        <ele>1202.40</ele>
        <time>2013-05-02T01:32:29.53Z</time>
      </trkpt>
      <trkpt lat="42.348267" lon="2.437222">
        <ele>1203.80</ele>
        <time>2013-05-02T05:29:11.88Z</time>
      </trkpt>
      <trkpt lat="42.348296" lon="2.437232">
        <ele>1204.20</ele>
        <time>2013-05-02T06:25:06.51Z</time>
      </trkpt>
      <trkpt lat="42.348359" lon="2.437248">
        <ele>1204.80</ele>
        <time>2013-05-02T08:24:51.75Z</time>
      </trkpt>
      <trkpt lat="42.348491" lon="2.437278">
        <ele>1206.00</ele>
        <time>2013-05-02T12:34:55.44Z</time>
      </trkpt>
      <trkpt lat="42.348521" lon="2.437294">
        <ele>1206.40</ele>
        <time>2013-05-02T13:35:10.06Z</time>
      </trkpt>
      <trkpt lat="42.348579" lon="2.437327">
        <ele>1207.00</ele>
        <time>2013-05-02T15:32:42.93Z</time>
      </trkpt>
      <trkpt lat="42.348671" lon="2.437399">
        <ele>1208.40</ele>
        <time>2013-05-02T18:51:16.34Z</time>
      </trkpt>
      <trkpt lat="42.348689" lon="2.437416">
        <ele>1208.80</ele>
        <time>2013-05-02T19:32:16.93Z</time>
      </trkpt>
      <trkpt lat="42.348733" lon="2.437443">
        <ele>1209.40</ele>
        <time>2013-05-02T21:02:32.58Z</time>
      </trkpt>
      <trkpt lat="42.348838" lon="2.437505">
        <ele>1210.20</ele>
        <time>2013-05-03T00:36:34.37Z</time>
      </trkpt>
      <trkpt lat="42.348865" lon="2.437522">
        <ele>1210.60</ele>
        <time>2013-05-03T01:32:12.54Z</time>
      </trkpt>
      <trkpt lat="42.348997" lon="2.437607">
        <ele>1211.60</ele>
        <time>2013-05-03T06:05:19.10Z</time>
      </trkpt>
      <trkpt lat="42.349021" lon="2.437624">
        <ele>1212.00</ele>
        <time>2013-05-03T06:55:55.70Z</time>
      </trkpt>
      <trkpt lat="42.349197" lon="2.437701">
        <ele>1211.80</ele>
        <time>2013-05-03T12:41:29.89Z</time>
      </trkpt>
      <trkpt lat="42.349249" lon="2.437733">
        <ele>1211.60</ele>
        <time>2013-05-03T14:28:13.30Z</time>
      </trkpt>
      <trkpt lat="42.349358" lon="2.437881">
        <ele>1210.60</ele>
        <time>2013-05-03T19:16:42.63Z</time>
      </trkpt>
      <trkpt lat="42.349440" lon="2.437976">
        <ele>1210.60</ele>
        <time>2013-05-03T22:38:23.29Z</time>
      </trkpt>
      <trkpt lat="42.349530" lon="2.438066">
        <ele>1210.00</ele>
        <time>2013-05-04T02:07:27.89Z</time>
      </trkpt>
      <trkpt lat="42.349571" lon="2.438128">
        <ele>1210.20</ele>
        <time>2013-05-04T04:02:20.14Z</time>
      </trkpt>
      <trkpt lat="42.349670" lon="2.438311">
        <ele>1210.60</ele>
        <time>2013-05-04T09:15:27.98Z</time>
      </trkpt>
      <trkpt lat="42.349692" lon="2.438374">
        <ele>1210.80</ele>
        <time>2013-05-04T10:51:40.37Z</time>
      </trkpt>
      <trkpt lat="42.349734" lon="2.438469">
        <ele>1212.00</ele>
        <time>2013-05-04T13:24:31.11Z</time>
      </trkpt>
      <trkpt lat="42.349755" lon="2.438508">
        <ele>1212.60</ele>
        <time>2013-05-04T14:31:08.57Z</time>
      </trkpt>
      <trkpt lat="42.349776" lon="2.438553">
        <ele>1213.20</ele>
        <time>2013-05-04T15:44:37.49Z</time>
      </trkpt>
      <trkpt lat="42.349811" lon="2.438639">
        <ele>1214.20</ele>
        <time>2013-05-04T18:00:10.77Z</time>
      </trkpt>
      <trkpt lat="42.349865" lon="2.438784">
        <ele>1215.40</ele>
        <time>2013-05-04T21:44:21.87Z</time>
      </trkpt>
      <trkpt lat="42.349947" lon="2.438953">
        <ele>1216.60</ele>
        <time>2013-05-05T02:23:29.94Z</time>
      </trkpt>
      <trkpt lat="42.349949" lon="2.439007">
        <ele>1217.00</ele>
        <time>2013-05-05T03:38:09.05Z</time>
      </trkpt>
      <trkpt lat="42.349974" lon="2.439154">
        <ele>1217.80</ele>
        <time>2013-05-05T07:06:25.16Z</time>
      </trkpt>
      <trkpt lat="42.350015" lon="2.439252">
        <ele>1218.00</ele>
        <time>2013-05-05T09:41:54.29Z</time>
      </trkpt>
      <trkpt lat="42.350074" lon="2.439354">
        <ele>1218.00</ele>
        <time>2013-05-05T12:40:44.63Z</time>
      </trkpt>
      <trkpt lat="42.350097" lon="2.439352">
        <ele>1218.40</ele>
        <time>2013-05-05T13:23:48.11Z</time>
      </trkpt>
      <trkpt lat="42.350118" lon="2.439339">
        <ele>1219.00</ele>
        <time>2013-05-05T14:06:56.74Z</time>
      </trkpt>
      <trkpt lat="42.350128" lon="2.439294">
        <ele>1220.20</ele>
        <time>2013-05-05T15:11:49.52Z</time>
      </trkpt>
      <trkpt lat="42.350096" lon="2.439170">
        <ele>1221.40</ele>
        <time>2013-05-05T18:13:10.21Z</time>
      </trkpt>
      <trkpt lat="42.350089" lon="2.439086">
        <ele>1222.40</ele>
        <time>2013-05-05T20:09:53.06Z</time>
      </trkpt>
      <trkpt lat="42.350086" lon="2.439062">
        <ele>1222.60</ele>
        <time>2013-05-05T20:43:29.51Z</time>
      </trkpt>
      <trkpt lat="42.350077" lon="2.439006">
        <ele>1223.40</ele>
        <time>2013-05-05T22:02:37.10Z</time>
      </trkpt>
      <trkpt lat="42.350062" lon="2.438957">
        <ele>1223.80</ele>
        <time>2013-05-05T23:15:50.83Z</time>
      </trkpt>
      <trkpt lat="42.350016" lon="2.438812">
        <ele>1224.60</ele>
        <time>2013-05-06T02:53:42.90Z</time>
      </trkpt>
      <trkpt lat="42.349998" lon="2.438761">
        <ele>1225.20</ele>
        <time>2013-05-06T04:11:44.92Z</time>
      </trkpt>
      <trkpt lat="42.349975" lon="2.438669">
        <ele>1226.40</ele>
        <time>2013-05-06T06:25:50.67Z</time>
      </trkpt>
      <trkpt lat="42.349964" lon="2.438610">
        <ele>1227.60</ele>
        <time>2013-05-06T07:49:51.51Z</time>
      </trkpt>
      <trkpt lat="42.349953" lon="2.438579">
        <ele>1228.00</ele>
        <time>2013-05-06T08:37:20.29Z</time>
      </trkpt>
      <trkpt lat="42.349947" lon="2.438510">
        <ele>1228.80</ele>
        <time>2013-05-06T10:13:15.85Z</time>
      </trkpt>
      <trkpt lat="42.349938" lon="2.438482">
        <ele>1229.00</ele>
        <time>2013-05-06T10:55:25.33Z</time>
      </trkpt>
      <trkpt lat="42.349937" lon="2.438379">
        <ele>1229.80</ele>
        <time>2013-05-06T13:17:38.84Z</time>
      </trkpt>
      <trkpt lat="42.349936" lon="2.438293">
        <ele>1230.40</ele>
        <time>2013-05-06T15:16:24.17Z</time>
      </trkpt>
      <trkpt lat="42.349923" lon="2.438209">
        <ele>1230.80</ele>
        <time>2013-05-06T17:14:53.87Z</time>
      </trkpt>
      <trkpt lat="42.349907" lon="2.438104">
        <ele>1231.80</ele>
        <time>2013-05-06T19:42:55.30Z</time>
      </trkpt>
      <trkpt lat="42.349902" lon="2.438075">
        <ele>1232.00</ele>
        <time>2013-05-06T20:24:02.25Z</time>
      </trkpt>
      <trkpt lat="42.349895" lon="2.437987">
        <ele>1233.20</ele>
        <time>2013-05-06T22:26:14.49Z</time>
      </trkpt>
      <trkpt lat="42.349880" lon="2.437901">
        <ele>1234.40</ele>
        <time>2013-05-07T00:28:14.67Z</time>
      </trkpt>
      <trkpt lat="42.349864" lon="2.437772">
        <ele>1235.40</ele>
        <time>2013-05-07T03:28:50.81Z</time>
      </trkpt>
      <trkpt lat="42.349835" lon="2.437673">
        <ele>1235.80</ele>
        <time>2013-05-07T05:55:52.96Z</time>
      </trkpt>
      <trkpt lat="42.349791" lon="2.437551">
        <ele>1236.60</ele>
        <time>2013-05-07T09:03:18.99Z</time>
      </trkpt>
      <trkpt lat="42.349774" lon="2.437463">
        <ele>1237.60</ele>
        <time>2013-05-07T11:08:54.09Z</time>
      </trkpt>
      <trkpt lat="42.349723" lon="2.437389">
        <ele>1238.60</ele>
        <time>2013-05-07T13:28:36.39Z</time>
      </trkpt>
      <trkpt lat="42.349703" lon="2.437369">
        <ele>1239.00</ele>
        <time>2013-05-07T14:15:04.08Z</time>
      </trkpt>
      <trkpt lat="42.349696" lon="2.437344">
        <ele>1239.20</ele>
        <time>2013-05-07T14:51:58.80Z</time>
      </trkpt>
      <trkpt lat="42.349724" lon="2.437281">
        <ele>1240.00</ele>
        <time>2013-05-07T16:33:28.95Z</time>
      </trkpt>
      <trkpt lat="42.349791" lon="2.437328">
        <ele>1241.00</ele>
        <time>2013-05-07T18:54:28.55Z</time>
      </trkpt>
      <trkpt lat="42.349817" lon="2.437395">
        <ele>1241.40</ele>
        <time>2013-05-07T20:38:57.64Z</time>
      </trkpt>
      <trkpt lat="42.349891" lon="2.437513">
        <ele>1242.00</ele>
        <time>2013-05-08T00:12:38.14Z</time>
      </trkpt>
      <trkpt lat="42.349909" lon="2.437539">
        <ele>1242.20</ele>
        <time>2013-05-08T01:01:49.47Z</time>
      </trkpt>
      <trkpt lat="42.349977" lon="2.437645">
        <ele>1243.40</ele>
        <time>2013-05-08T04:15:37.55Z</time>
      </trkpt>
      <trkpt lat="42.350010" lon="2.437695">
        <ele>1244.00</ele>
        <time>2013-05-08T05:48:10.97Z</time>
      </trkpt>
      <trkpt lat="42.350046" lon="2.437736">
        <ele>1244.40</ele>
        <time>2013-05-08T07:16:05.51Z</time>
      </trkpt>
      <trkpt lat="42.350115" lon="2.437816">
        <ele>1245.40</ele>
        <time>2013-05-08T10:05:51.01Z</time>
      </trkpt>
      <trkpt lat="42.350133" lon="2.437835">
        <ele>1245.60</ele>
        <time>2013-05-08T10:48:30.03Z</time>
      </trkpt>
      <trkpt lat="42.350192" lon="2.437903">
        <ele>1246.80</ele>
        <time>2013-05-08T13:13:17.53Z</time>
      </trkpt>
      <trkpt lat="42.350285" lon="2.438022">
        <ele>1247.60</ele>
        <time>2013-05-08T17:12:25.33Z</time>
      </trkpt>
      <trkpt lat="42.350302" lon="2.438042">
        <ele>1247.80</ele>
        <time>2013-05-08T17:54:30.49Z</time>
      </trkpt>
      <trkpt lat="42.350397" lon="2.438154">
        <ele>1248.80</ele>
        <time>2013-05-08T21:49:54.45Z</time>
      </trkpt>
      <trkpt lat="42.350477" lon="2.438251">
        <ele>1249.80</ele>
        <time>2013-05-09T01:10:35.55Z</time>
      </trkpt>
      <trkpt lat="42.350571" lon="2.438349">
        <ele>1251.20</ele>
        <time>2013-05-09T04:52:17.23Z</time>
      </trkpt>
      <trkpt lat="42.350646" lon="2.438430">
        <ele>1252.60</ele>
        <time>2013-05-09T07:51:33.85Z</time>
      </trkpt>
      <trkpt lat="42.350686" lon="2.438451">
        <ele>1253.00</ele>
        <time>2013-05-09T09:11:43.27Z</time>
      </trkpt>
      <trkpt lat="42.350725" lon="2.438468">
        <ele>1253.60</ele>
        <time>2013-05-09T10:28:16.18Z</time>
      </trkpt>
      <trkpt lat="42.350855" lon="2.438483">
        <ele>1254.80</ele>
        <time>2013-05-09T14:32:01.29Z</time>
      </trkpt>
      <trkpt lat="42.350963" lon="2.438466">
        <ele>1256.40</ele>
        <time>2013-05-09T17:55:09.08Z</time>
      </trkpt>
      <trkpt lat="42.351003" lon="2.438441">
        <ele>1256.80</ele>
        <time>2013-05-09T19:17:28.03Z</time>
      </trkpt>
      <trkpt lat="42.351087" lon="2.438401">
        <ele>1257.60</ele>
        <time>2013-05-09T22:03:49.98Z</time>
      </trkpt>
      <trkpt lat="42.351128" lon="2.438391">
        <ele>1258.20</ele>
        <time>2013-05-09T23:21:39.90Z</time>
      </trkpt>
      <trkpt lat="42.351163" lon="2.438363">
        <ele>1259.00</ele>
        <time>2013-05-10T00:37:37.58Z</time>
      </trkpt>
      <trkpt lat="42.351232" lon="2.438317">
        <ele>1260.00</ele>
        <time>2013-05-10T03:01:19.85Z</time>
      </trkpt>
      <trkpt lat="42.351309" lon="2.438283">
        <ele>1261.20</ele>
        <time>2013-05-10T05:32:39.03Z</time>
      </trkpt>
      <trkpt lat="42.351349" lon="2.438272">
        <ele>1261.80</ele>
        <time>2013-05-10T06:48:54.45Z</time>
      </trkpt>
      <trkpt lat="42.351388" lon="2.438256">
        <ele>1262.20</ele>
        <time>2013-05-10T08:05:02.63Z</time>
      </trkpt>
      <trkpt lat="42.351460" lon="2.438239">
        <ele>1263.60</ele>
        <time>2013-05-10T10:21:35.34Z</time>
      </trkpt>
      <trkpt lat="42.351483" lon="2.438233">
        <ele>1263.80</ele>
        <time>2013-05-10T11:05:20.98Z</time>
      </trkpt>
      <trkpt lat="42.351522" lon="2.438201">
        <ele>1264.40</ele>
        <time>2013-05-10T12:30:33.58Z</time>
      </trkpt>
      <trkpt lat="42.351537" lon="2.438185">
        <ele>1264.60</ele>
        <time>2013-05-10T13:06:14.60Z</time>
      </trkpt>
      <trkpt lat="42.351580" lon="2.438163">
        <ele>1265.00</ele>
        <time>2013-05-10T14:32:07.68Z</time>
      </trkpt>
      <trkpt lat="42.351634" lon="2.438121">
        <ele>1265.80</ele>
        <time>2013-05-10T16:28:29.46Z</time>
      </trkpt>
      <trkpt lat="42.351693" lon="2.438099">
        <ele>1266.60</ele>
        <time>2013-05-10T18:22:49.52Z</time>
      </trkpt>
      <trkpt lat="42.351710" lon="2.438084">
        <ele>1266.80</ele>
        <time>2013-05-10T19:00:44.46Z</time>
      </trkpt>
      <trkpt lat="42.351775" lon="2.438052">
        <ele>1268.00</ele>
        <time>2013-05-10T21:09:57.82Z</time>
      </trkpt>
      <trkpt lat="42.351792" lon="2.438043">
        <ele>1268.20</ele>
        <time>2013-05-10T21:44:04.08Z</time>
      </trkpt>
      <trkpt lat="42.351820" lon="2.438025">
        <ele>1269.00</ele>
        <time>2013-05-10T22:41:58.91Z</time>
      </trkpt>
      <trkpt lat="42.351887" lon="2.437987">
        <ele>1270.20</ele>
        <time>2013-05-11T00:57:42.24Z</time>
      </trkpt>
      <trkpt lat="42.351984" lon="2.437931">
        <ele>1271.40</ele>
        <time>2013-05-11T04:14:43.64Z</time>
      </trkpt>
      <trkpt lat="42.352024" lon="2.437910">
        <ele>1271.80</ele>
        <time>2013-05-11T05:34:53.05Z</time>
      </trkpt>
      <trkpt lat="42.352063" lon="2.437895">
        <ele>1272.60</ele>
        <time>2013-05-11T06:50:37.88Z</time>
      </trkpt>
      <trkpt lat="42.352155" lon="2.437857">
        <ele>1273.80</ele>
        <time>2013-05-11T09:50:20.27Z</time>
      </trkpt>
      <trkpt lat="42.352192" lon="2.437841">
        <ele>1274.20</ele>
        <time>2013-05-11T11:02:54.39Z</time>
      </trkpt>
      <trkpt lat="42.352248" lon="2.437808">
        <ele>1274.80</ele>
        <time>2013-05-11T12:57:01.08Z</time>
      </trkpt>
      <trkpt lat="42.352341" lon="2.437757">
        <ele>1275.80</ele>
        <time>2013-05-11T16:04:29.38Z</time>
      </trkpt>
      <trkpt lat="42.352435" lon="2.437710">
        <ele>1277.00</ele>
        <time>2013-05-11T19:11:42.54Z</time>
      </trkpt>
      <trkpt lat="42.352471" lon="2.437692">
        <ele>1277.80</ele>
        <time>2013-05-11T20:23:24.60Z</time>
      </trkpt>
      <trkpt lat="42.352486" lon="2.437682">
        <ele>1278.00</ele>
        <time>2013-05-11T20:54:39Z</time>
      </trkpt>
      <trkpt lat="42.352549" lon="2.437649">
        <ele>1279.00</ele>
        <time>2013-05-11T23:00:51.57Z</time>
      </trkpt>
      <trkpt lat="42.352602" lon="2.437624">
        <ele>1279.80</ele>
        <time>2013-05-12T00:45:43.16Z</time>
      </trkpt>
      <trkpt lat="42.352622" lon="2.437613">
        <ele>1280.20</ele>
        <time>2013-05-12T01:26:03.16Z</time>
      </trkpt>
      <trkpt lat="42.352691" lon="2.437572">
        <ele>1281.40</ele>
        <time>2013-05-12T03:46:50.51Z</time>
      </trkpt>
      <trkpt lat="42.352726" lon="2.437557">
        <ele>1282.00</ele>
        <time>2013-05-12T04:55:25.87Z</time>
      </trkpt>
      <trkpt lat="42.352754" lon="2.437541">
        <ele>1282.80</ele>
        <time>2013-05-12T05:52:12.89Z</time>
      </trkpt>
      <trkpt lat="42.352770" lon="2.437546">
        <ele>1283.20</ele>
        <time>2013-05-12T06:22:53.60Z</time>
      </trkpt>
      <trkpt lat="42.352821" lon="2.437561">
        <ele>1283.80</ele>
        <time>2013-05-12T08:00:23.87Z</time>
      </trkpt>
      <trkpt lat="42.352838" lon="2.437561">
        <ele>1284.20</ele>
        <time>2013-05-12T08:32:09.47Z</time>
      </trkpt>
      <trkpt lat="42.352877" lon="2.437551">
        <ele>1285.00</ele>
        <time>2013-05-12T09:46:18.93Z</time>
      </trkpt>
      <trkpt lat="42.352893" lon="2.437543">
        <ele>1285.60</ele>
        <time>2013-05-12T10:18:10.96Z</time>
      </trkpt>
      <trkpt lat="42.352914" lon="2.437510">
        <ele>1286.20</ele>
        <time>2013-05-12T11:18:18.47Z</time>
      </trkpt>
      <trkpt lat="42.352921" lon="2.437492">
        <ele>1286.40</ele>
        <time>2013-05-12T11:46:23.42Z</time>
      </trkpt>
      <trkpt lat="42.352915" lon="2.437457">
        <ele>1287.00</ele>
        <time>2013-05-12T12:35:59.75Z</time>
      </trkpt>
      <trkpt lat="42.352901" lon="2.437443">
        <ele>1287.20</ele>
        <time>2013-05-12T13:08:31.10Z</time>
      </trkpt>
      <trkpt lat="42.352886" lon="2.437436">
        <ele>1287.60</ele>
        <time>2013-05-12T13:38:09.69Z</time>
      </trkpt>
      <trkpt lat="42.352865" lon="2.437428">
        <ele>1288.00</ele>
        <time>2013-05-12T14:18:55.17Z</time>
      </trkpt>
      <trkpt lat="42.352850" lon="2.437425">
        <ele>1288.40</ele>
        <time>2013-05-12T14:47:14.85Z</time>
      </trkpt>
      <trkpt lat="42.352777" lon="2.437392">
        <ele>1289.60</ele>
        <time>2013-05-12T17:11:02.26Z</time>
      </trkpt>
      <trkpt lat="42.352757" lon="2.437383">
        <ele>1290.00</ele>
        <time>2013-05-12T17:50:24.85Z</time>
      </trkpt>
      <trkpt lat="42.352726" lon="2.437364">
        <ele>1290.80</ele>
        <time>2013-05-12T18:53:59.60Z</time>
      </trkpt>
      <trkpt lat="42.352646" lon="2.437352">
        <ele>1292.00</ele>
        <time>2013-05-12T21:24:22.05Z</time>
      </trkpt>
      <trkpt lat="42.352630" lon="2.437350">
        <ele>1292.20</ele>
        <time>2013-05-12T21:54:23.19Z</time>
      </trkpt>
      <trkpt lat="42.352589" lon="2.437342">
        <ele>1293.00</ele>
        <time>2013-05-12T23:11:46.58Z</time>
      </trkpt>
      <trkpt lat="42.352521" lon="2.437323">
        <ele>1294.40</ele>
        <time>2013-05-13T01:21:29.78Z</time>
      </trkpt>
      <trkpt lat="42.352449" lon="2.437310">
        <ele>1295.40</ele>
        <time>2013-05-13T03:37:12.08Z</time>
      </trkpt>
      <trkpt lat="42.352368" lon="2.437302">
        <ele>1296.20</ele>
        <time>2013-05-13T06:08:55.84Z</time>
      </trkpt>
      <trkpt lat="42.352334" lon="2.437301">
        <ele>1296.60</ele>
        <time>2013-05-13T07:12:27.94Z</time>
      </trkpt>
      <trkpt lat="42.352241" lon="2.437283">
        <ele>1297.60</ele>
        <time>2013-05-13T10:07:58.78Z</time>
      </trkpt>
      <trkpt lat="42.352219" lon="2.437276">
        <ele>1297.80</ele>
        <time>2013-05-13T10:50:12.11Z</time>
      </trkpt>
      <trkpt lat="42.352109" lon="2.437250">
        <ele>1299.00</ele>
        <time>2013-05-13T14:18:49.15Z</time>
      </trkpt>
      <trkpt lat="42.352028" lon="2.437227">
        <ele>1299.80</ele>
        <time>2013-05-13T16:53:26.52Z</time>
      </trkpt>
      <trkpt lat="42.351983" lon="2.437217">
        <ele>1300.00</ele>
        <time>2013-05-13T18:18:38.32Z</time>
      </trkpt>
      <trkpt lat="42.351868" lon="2.437186">
        <ele>1301.00</ele>
        <time>2013-05-13T21:57:42.44Z</time>
      </trkpt>
      <trkpt lat="42.351691" lon="2.437112">
        <ele>1302.00</ele>
        <time>2013-05-14T03:43:48.51Z</time>
      </trkpt>
      <trkpt lat="42.351667" lon="2.437098">
        <ele>1302.00</ele>
        <time>2013-05-14T04:32:38.11Z</time>
      </trkpt>
      <trkpt lat="42.351577" lon="2.437038">
        <ele>1303.20</ele>
        <time>2013-05-14T07:40:04.53Z</time>
      </trkpt>
      <trkpt lat="42.351539" lon="2.437005">
        <ele>1303.60</ele>
        <time>2013-05-14T09:04:25.88Z</time>
      </trkpt>
      <trkpt lat="42.351477" lon="2.436923">
        <ele>1304.40</ele>
        <time>2013-05-14T11:46:24.10Z</time>
      </trkpt>
      <trkpt lat="42.351425" lon="2.436848">
        <ele>1304.80</ele>
        <time>2013-05-14T14:08:23.35Z</time>
      </trkpt>
      <trkpt lat="42.351373" lon="2.436770">
        <ele>1305.40</ele>
        <time>2013-05-14T16:33:25.52Z</time>
      </trkpt>
      <trkpt lat="42.351286" lon="2.436602">
        <ele>1306.60</ele>
        <time>2013-05-14T21:16:39.46Z</time>
      </trkpt>
      <trkpt lat="42.351238" lon="2.436490">
        <ele>1307.80</ele>
        <time>2013-05-15T00:15:24.85Z</time>
      </trkpt>
      <trkpt lat="42.351206" lon="2.436395">
        <ele>1308.80</ele>
        <time>2013-05-15T02:39:33.64Z</time>
      </trkpt>
      <trkpt lat="42.351130" lon="2.436203">
        <ele>1309.80</ele>
        <time>2013-05-15T07:40:16.88Z</time>
      </trkpt>
      <trkpt lat="42.351115" lon="2.436170">
        <ele>1310.00</ele>
        <time>2013-05-15T08:33:46.32Z</time>
      </trkpt>
      <trkpt lat="42.351017" lon="2.435933">
        <ele>1311.20</ele>
        <time>2013-05-15T14:48:43.91Z</time>
      </trkpt>
      <trkpt lat="42.351003" lon="2.435899">
        <ele>1311.40</ele>
        <time>2013-05-15T15:42:28.19Z</time>
      </trkpt>
      <trkpt lat="42.350972" lon="2.435790">
        <ele>1312.20</ele>
        <time>2013-05-15T18:23:43.42Z</time>
      </trkpt>
      <trkpt lat="42.350938" lon="2.435685">
        <ele>1312.60</ele>
        <time>2013-05-15T21:02:00.04Z</time>
      </trkpt>
      <trkpt lat="42.350916" lon="2.435622">
        <ele>1313.60</ele>
        <time>2013-05-15T22:38:12.34Z</time>
      </trkpt>
      <trkpt lat="42.350854" lon="2.435441">
        <ele>1315.00</ele>
        <time>2013-05-16T03:13:38.91Z</time>
      </trkpt>
      <trkpt lat="42.350796" lon="2.435278">
        <ele>1316.00</ele>
        <time>2013-05-16T07:23:25.68Z</time>
      </trkpt>
      <trkpt lat="42.350768" lon="2.435186">
        <ele>1316.80</ele>
        <time>2013-05-16T09:40:48.06Z</time>
      </trkpt>
      <trkpt lat="42.350757" lon="2.435155">
        <ele>1317.00</ele>
        <time>2013-05-16T10:28:16.82Z</time>
      </trkpt>
      <trkpt lat="42.350717" lon="2.435032">
        <ele>1318.00</ele>
        <time>2013-05-16T13:33:49.19Z</time>
      </trkpt>
      <trkpt lat="42.350695" lon="2.434967">
        <ele>1318.40</ele>
        <time>2013-05-16T15:12:31.73Z</time>
      </trkpt>
      <trkpt lat="42.350664" lon="2.434859">
        <ele>1319.20</ele>
        <time>2013-05-16T17:52:29.73Z</time>
      </trkpt>
      <trkpt lat="42.350620" lon="2.434725">
        <ele>1320.20</ele>
        <time>2013-05-16T21:14:56.86Z</time>
      </trkpt>
      <trkpt lat="42.350611" lon="2.434691">
        <ele>1320.40</ele>
        <time>2013-05-16T22:04:48.70Z</time>
      </trkpt>
      <trkpt lat="42.350564" lon="2.434564">
        <ele>1321.20</ele>
        <time>2013-05-17T01:20:54.97Z</time>
      </trkpt>
      <trkpt lat="42.350541" lon="2.434506">
        <ele>1321.60</ele>
        <time>2013-05-17T02:51:47.78Z</time>
      </trkpt>
      <trkpt lat="42.350519" lon="2.434454">
        <ele>1322.20</ele>
        <time>2013-05-17T04:14:31.48Z</time>
      </trkpt>
      <trkpt lat="42.350489" lon="2.434382">
        <ele>1323.20</ele>
        <time>2013-05-17T06:08:38.75Z</time>
      </trkpt>
      <trkpt lat="42.350478" lon="2.434356">
        <ele>1323.60</ele>
        <time>2013-05-17T06:50:00.60Z</time>
      </trkpt>
      <trkpt lat="42.350473" lon="2.434329">
        <ele>1324.20</ele>
        <time>2013-05-17T07:28:26.48Z</time>
      </trkpt>
      <trkpt lat="42.350478" lon="2.434303">
        <ele>1324.40</ele>
        <time>2013-05-17T08:05:32.09Z</time>
      </trkpt>
      <trkpt lat="42.350498" lon="2.434263">
        <ele>1325.00</ele>
        <time>2013-05-17T09:12:12.89Z</time>
      </trkpt>
      <trkpt lat="42.350531" lon="2.434270">
        <ele>1325.60</ele>
        <time>2013-05-17T10:14:37.17Z</time>
      </trkpt>
      <trkpt lat="42.350572" lon="2.434299">
        <ele>1326.20</ele>
        <time>2013-05-17T11:41:03.06Z</time>
      </trkpt>
      <trkpt lat="42.350591" lon="2.434323">
        <ele>1326.40</ele>
        <time>2013-05-17T12:29:36.63Z</time>
      </trkpt>
      <trkpt lat="42.350607" lon="2.434351">
        <ele>1326.60</ele>
        <time>2013-05-17T13:18:28.70Z</time>
      </trkpt>
      <trkpt lat="42.350645" lon="2.434410">
        <ele>1326.80</ele>
        <time>2013-05-17T15:06:32Z</time>
      </trkpt>
      <trkpt lat="42.350762" lon="2.434548">
        <ele>1326.80</ele>
        <time>2013-05-17T19:56:30.17Z</time>
      </trkpt>
      <trkpt lat="42.350901" lon="2.434732">
        <ele>1327.20</ele>
        <time>2013-05-18T01:59:47.24Z</time>
      </trkpt>
      <trkpt lat="42.350970" lon="2.434818">
        <ele>1327.80</ele>
        <time>2013-05-18T04:55:02.87Z</time>
      </trkpt>
      <trkpt lat="42.351068" lon="2.434929">
        <ele>1328.40</ele>
        <time>2013-05-18T08:53:48.70Z</time>
      </trkpt>
      <trkpt lat="42.351119" lon="2.434984">
        <ele>1329.00</ele>
        <time>2013-05-18T10:55:39.04Z</time>
      </trkpt>
      <trkpt lat="42.351237" lon="2.435115">
        <ele>1330.20</ele>
        <time>2013-05-18T15:40:48.25Z</time>
      </trkpt>
      <trkpt lat="42.351345" lon="2.435240">
        <ele>1331.40</ele>
        <time>2013-05-18T20:06:18.93Z</time>
      </trkpt>
      <trkpt lat="42.351384" lon="2.435292">
        <ele>1331.80</ele>
        <time>2013-05-18T21:48:36.35Z</time>
      </trkpt>
      <trkpt lat="42.351443" lon="2.435364">
        <ele>1332.60</ele>
        <time>2013-05-19T00:17:02.21Z</time>
      </trkpt>
      <trkpt lat="42.351482" lon="2.435411">
        <ele>1333.20</ele>
        <time>2013-05-19T01:54:36.34Z</time>
      </trkpt>
      <trkpt lat="42.351518" lon="2.435455">
        <ele>1333.60</ele>
        <time>2013-05-19T03:25:14.19Z</time>
      </trkpt>
      <trkpt lat="42.351579" lon="2.435527">
        <ele>1334.20</ele>
        <time>2013-05-19T05:56:27.77Z</time>
      </trkpt>
      <trkpt lat="42.351627" lon="2.435561">
        <ele>1334.80</ele>
        <time>2013-05-19T07:37:40.90Z</time>
      </trkpt>
      <trkpt lat="42.351685" lon="2.435625">
        <ele>1335.80</ele>
        <time>2013-05-19T09:57:30.04Z</time>
      </trkpt>
      <trkpt lat="42.351703" lon="2.435644">
        <ele>1336.20</ele>
        <time>2013-05-19T10:40:09.03Z</time>
      </trkpt>
      <trkpt lat="42.351757" lon="2.435702">
        <ele>1337.00</ele>
        <time>2013-05-19T12:48:57.24Z</time>
      </trkpt>
      <trkpt lat="42.351838" lon="2.435785">
        <ele>1338.00</ele>
        <time>2013-05-19T15:58:46.48Z</time>
      </trkpt>
      <trkpt lat="42.351859" lon="2.435804">
        <ele>1338.00</ele>
        <time>2013-05-19T16:45:58.18Z</time>
      </trkpt>
      <trkpt lat="42.351920" lon="2.435850">
        <ele>1339.20</ele>
        <time>2013-05-19T18:56:26.05Z</time>
      </trkpt>
      <trkpt lat="42.351983" lon="2.435878">
        <ele>1340.20</ele>
        <time>2013-05-19T21:00:19.15Z</time>
      </trkpt>
      <trkpt lat="42.352005" lon="2.435885">
        <ele>1340.40</ele>
        <time>2013-05-19T21:42:32.47Z</time>
      </trkpt>
      <trkpt lat="42.352103" lon="2.435909">
        <ele>1341.60</ele>
        <time>2013-05-20T00:48:36.15Z</time>
      </trkpt>
      <trkpt lat="42.352178" lon="2.435921">
        <ele>1342.60</ele>
        <time>2013-05-20T03:09:41.77Z</time>
      </trkpt>
      <trkpt lat="42.352225" lon="2.435923">
        <ele>1343.00</ele>
        <time>2013-05-20T04:37:32.79Z</time>
      </trkpt>
      <trkpt lat="42.352327" lon="2.435934">
        <ele>1343.40</ele>
        <time>2013-05-20T07:48:42.63Z</time>
      </trkpt>
      <trkpt lat="42.352354" lon="2.435940">
        <ele>1343.60</ele>
        <time>2013-05-20T08:39:49.71Z</time>
      </trkpt>
      <trkpt lat="42.352465" lon="2.435958">
        <ele>1344.60</ele>
        <time>2013-05-20T12:08:41.18Z</time>
      </trkpt>
      <trkpt lat="42.352525" lon="2.435956">
        <ele>1345.00</ele>
        <time>2013-05-20T14:00:48.86Z</time>
      </trkpt>
      <trkpt lat="42.352612" lon="2.435977">
        <ele>1345.60</ele>
        <time>2013-05-20T16:45:54.98Z</time>
      </trkpt>
      <trkpt lat="42.352724" lon="2.435993">
        <ele>1346.80</ele>
        <time>2013-05-20T20:16:19.28Z</time>
      </trkpt>
      <trkpt lat="42.352776" lon="2.435994">
        <ele>1347.40</ele>
        <time>2013-05-20T21:53:28.76Z</time>
      </trkpt>
      <trkpt lat="42.352831" lon="2.435993">
        <ele>1347.80</ele>
        <time>2013-05-20T23:36:14.48Z</time>
      </trkpt>
      <trkpt lat="42.352941" lon="2.436013">
        <ele>1348.80</ele>
        <time>2013-05-21T03:03:35.63Z</time>
      </trkpt>
      <trkpt lat="42.352967" lon="2.436016">
        <ele>1349.00</ele>
        <time>2013-05-21T03:52:20.65Z</time>
      </trkpt>
      <trkpt lat="42.353109" lon="2.436033">
        <ele>1350.20</ele>
        <time>2013-05-21T08:18:40.18Z</time>
      </trkpt>
      <trkpt lat="42.353141" lon="2.436034">
        <ele>1350.40</ele>
        <time>2013-05-21T09:18:28.14Z</time>
      </trkpt>
      <trkpt lat="42.353278" lon="2.436062">
        <ele>1351.40</ele>
        <time>2013-05-21T13:37:19.20Z</time>
      </trkpt>
      <trkpt lat="42.353305" lon="2.436073">
        <ele>1351.60</ele>
        <time>2013-05-21T14:29:59.93Z</time>
      </trkpt>
      <trkpt lat="42.353412" lon="2.436117">
        <ele>1352.60</ele>
        <time>2013-05-21T17:58:55.58Z</time>
      </trkpt>
      <trkpt lat="42.353441" lon="2.436124">
        <ele>1353.00</ele>
        <time>2013-05-21T18:53:57.62Z</time>
      </trkpt>
      <trkpt lat="42.353524" lon="2.436148">
        <ele>1353.60</ele>
        <time>2013-05-21T21:32:31.47Z</time>
      </trkpt>
      <trkpt lat="42.353604" lon="2.436156">
        <ele>1354.40</ele>
        <time>2013-05-22T00:02:23.44Z</time>
      </trkpt>
      <trkpt lat="42.353632" lon="2.436159">
        <ele>1354.80</ele>
        <time>2013-05-22T00:54:51.90Z</time>
      </trkpt>
      <trkpt lat="42.353752" lon="2.436189">
        <ele>1356.00</ele>
        <time>2013-05-22T04:42:50.82Z</time>
      </trkpt>
      <trkpt lat="42.353784" lon="2.436198">
        <ele>1356.00</ele>
        <time>2013-05-22T05:43:54.48Z</time>
      </trkpt>
      <trkpt lat="42.353898" lon="2.436254">
        <ele>1357.00</ele>
        <time>2013-05-22T09:30:29.15Z</time>
      </trkpt>
      <trkpt lat="42.353924" lon="2.436262">
        <ele>1357.20</ele>
        <time>2013-05-22T10:20:17.99Z</time>
      </trkpt>
      <trkpt lat="42.353973" lon="2.436279">
        <ele>1358.00</ele>
        <time>2013-05-22T11:54:48.24Z</time>
      </trkpt>
      <trkpt lat="42.354072" lon="2.436315">
        <ele>1359.40</ele>
        <time>2013-05-22T15:06:19.26Z</time>
      </trkpt>
      <trkpt lat="42.354099" lon="2.436325">
        <ele>1359.80</ele>
        <time>2013-05-22T15:58:37.11Z</time>
      </trkpt>
      <trkpt lat="42.354148" lon="2.436343">
        <ele>1360.40</ele>
        <time>2013-05-22T17:33:28.51Z</time>
      </trkpt>
      <trkpt lat="42.354214" lon="2.436390">
        <ele>1361.60</ele>
        <time>2013-05-22T19:52:48.62Z</time>
      </trkpt>
      <trkpt lat="42.354298" lon="2.436456">
        <ele>1362.60</ele>
        <time>2013-05-22T22:54:16.67Z</time>
      </trkpt>
      <trkpt lat="42.354323" lon="2.436466">
        <ele>1363.00</ele>
        <time>2013-05-22T23:42:58.89Z</time>
      </trkpt>
      <trkpt lat="42.354398" lon="2.436508">
        <ele>1363.80</ele>
        <time>2013-05-23T02:14:37.40Z</time>
      </trkpt>
      <trkpt lat="42.354462" lon="2.436564">
        <ele>1365.00</ele>
        <time>2013-05-23T04:37:00.55Z</time>
      </trkpt>
      <trkpt lat="42.354501" lon="2.436602">
        <ele>1365.40</ele>
        <time>2013-05-23T06:06:47.57Z</time>
      </trkpt>
      <trkpt lat="42.354557" lon="2.436666">
        <ele>1366.20</ele>
        <time>2013-05-23T08:23:44.03Z</time>
      </trkpt>
      <trkpt lat="42.354611" lon="2.436728">
        <ele>1367.20</ele>
        <time>2013-05-23T10:36:02.34Z</time>
      </trkpt>
      <trkpt lat="42.354630" lon="2.436744">
        <ele>1367.40</ele>
        <time>2013-05-23T11:17:50.85Z</time>
      </trkpt>
      <trkpt lat="42.354690" lon="2.436832">
        <ele>1368.60</ele>
        <time>2013-05-23T14:03:09.13Z</time>
      </trkpt>
      <trkpt lat="42.354708" lon="2.436855">
        <ele>1368.60</ele>
        <time>2013-05-23T14:49:24.19Z</time>
      </trkpt>
      <trkpt lat="42.354829" lon="2.437019">
        <ele>1369.40</ele>
        <time>2013-05-23T20:09:21.08Z</time>
      </trkpt>
      <trkpt lat="42.354849" lon="2.437050">
        <ele>1369.80</ele>
        <time>2013-05-23T21:06:09.92Z</time>
      </trkpt>
      <trkpt lat="42.354932" lon="2.437145">
        <ele>1370.80</ele>
        <time>2013-05-24T00:29:15.50Z</time>
      </trkpt>
      <trkpt lat="42.354979" lon="2.437173">
        <ele>1371.00</ele>
        <time>2013-05-24T02:05:11.88Z</time>
      </trkpt>
      <trkpt lat="42.355029" lon="2.437187">
        <ele>1371.80</ele>
        <time>2013-05-24T03:40:35.30Z</time>
      </trkpt>
      <trkpt lat="42.355103" lon="2.437215">
        <ele>1372.80</ele>
        <time>2013-05-24T06:04:08.43Z</time>
      </trkpt>
      <trkpt lat="42.355186" lon="2.437246">
        <ele>1373.20</ele>
        <time>2013-05-24T08:45:00.10Z</time>
      </trkpt>
      <trkpt lat="42.355279" lon="2.437277">
        <ele>1374.00</ele>
        <time>2013-05-24T11:43:56.46Z</time>
      </trkpt>
      <trkpt lat="42.355383" lon="2.437301">
        <ele>1374.20</ele>
        <time>2013-05-24T15:01:02.54Z</time>
      </trkpt>
      <trkpt lat="42.355666" lon="2.437380">
        <ele>1374.60</ele>
        <time>2013-05-25T00:00:53.08Z</time>
      </trkpt>
      <trkpt lat="42.355750" lon="2.437406">
        <ele>1375.00</ele>
        <time>2013-05-25T02:41:52.15Z</time>
      </trkpt>
      <trkpt lat="42.356022" lon="2.437492">
        <ele>1375.40</ele>
        <time>2013-05-25T11:23:42.88Z</time>
      </trkpt>
      <trkpt lat="42.356072" lon="2.437501">
        <ele>1375.40</ele>
        <time>2013-05-25T12:57:56.94Z</time>
      </trkpt>
      <trkpt lat="42.356194" lon="2.437456">
        <ele>1375.00</ele>
        <time>2013-05-25T16:54:11.32Z</time>
      </trkpt>
      <trkpt lat="42.356191" lon="2.437345">
        <ele>1376.00</ele>
        <time>2013-05-25T19:27:32.07Z</time>
      </trkpt>
      <trkpt lat="42.356182" lon="2.437311">
        <ele>1376.20</ele>
        <time>2013-05-25T20:17:23.67Z</time>
      </trkpt>
      <trkpt lat="42.356147" lon="2.437222">
        <ele>1377.40</ele>
        <time>2013-05-25T22:36:34.85Z</time>
      </trkpt>
      <trkpt lat="42.356129" lon="2.437162">
        <ele>1378.40</ele>
        <time>2013-05-26T00:05:58.85Z</time>
      </trkpt>
      <trkpt lat="42.356122" lon="2.437134">
        <ele>1379.00</ele>
        <time>2013-05-26T00:46:47.34Z</time>
      </trkpt>
      <trkpt lat="42.356117" lon="2.437109">
        <ele>1379.60</ele>
        <time>2013-05-26T01:22:32.70Z</time>
      </trkpt>
      <trkpt lat="42.356098" lon="2.437035">
        <ele>1380.60</ele>
        <time>2013-05-26T03:10:41.90Z</time>
      </trkpt>
      <trkpt lat="42.356075" lon="2.436966">
        <ele>1382.00</ele>
        <time>2013-05-26T04:55:12.04Z</time>
      </trkpt>
      <trkpt lat="42.356061" lon="2.436919">
        <ele>1383.40</ele>
        <time>2013-05-26T06:05:09.64Z</time>
      </trkpt>
      <trkpt lat="42.356030" lon="2.436813">
        <ele>1384.80</ele>
        <time>2013-05-26T08:42:32.69Z</time>
      </trkpt>
      <trkpt lat="42.356002" lon="2.436727">
        <ele>1385.60</ele>
        <time>2013-05-26T10:52:17.23Z</time>
      </trkpt>
      <trkpt lat="42.355990" lon="2.436699">
        <ele>1386.00</ele>
        <time>2013-05-26T11:36:58.43Z</time>
      </trkpt>
      <trkpt lat="42.355920" lon="2.436545">
        <ele>1387.00</ele>
        <time>2013-05-26T15:46:34.99Z</time>
      </trkpt>
      <trkpt lat="42.355895" lon="2.436512">
        <ele>1387.20</ele>
        <time>2013-05-26T16:51:49.76Z</time>
      </trkpt>
      <trkpt lat="42.355714" lon="2.436314">
        <ele>1387.20</ele>
        <time>2013-05-27T00:06:38.95Z</time>
      </trkpt>
      <trkpt lat="42.355566" lon="2.436151">
        <ele>1387.80</ele>
        <time>2013-05-27T06:03:08.94Z</time>
      </trkpt>
      <trkpt lat="42.355509" lon="2.436100">
        <ele>1388.20</ele>
        <time>2013-05-27T08:10:48.64Z</time>
      </trkpt>
      <trkpt lat="42.355418" lon="2.436009">
        <ele>1388.20</ele>
        <time>2013-05-27T11:42:12.20Z</time>
      </trkpt>
      <trkpt lat="42.355337" lon="2.435921">
        <ele>1387.40</ele>
        <time>2013-05-27T14:56:15.92Z</time>
      </trkpt>
      <trkpt lat="42.355311" lon="2.435864">
        <ele>1387.00</ele>
        <time>2013-05-27T16:28:44.58Z</time>
      </trkpt>
      <trkpt lat="42.355287" lon="2.435808">
        <ele>1386.80</ele>
        <time>2013-05-27T17:58:07.02Z</time>
      </trkpt>
      <trkpt lat="42.355217" lon="2.435659">
        <ele>1387.40</ele>
        <time>2013-05-27T22:01:52.53Z</time>
      </trkpt>
      <trkpt lat="42.355165" lon="2.435565">
        <ele>1388.20</ele>
        <time>2013-05-28T00:43:59.10Z</time>
      </trkpt>
      <trkpt lat="42.355140" lon="2.435518">
        <ele>1388.40</ele>
        <time>2013-05-28T02:03:56.05Z</time>
      </trkpt>
      <trkpt lat="42.355081" lon="2.435403">
        <ele>1389.40</ele>
        <time>2013-05-28T05:17:12.84Z</time>
      </trkpt>
      <trkpt lat="42.355049" lon="2.435346">
        <ele>1390.40</ele>
        <time>2013-05-28T06:56:02.46Z</time>
      </trkpt>
      <trkpt lat="42.354983" lon="2.435255">
        <ele>1391.60</ele>
        <time>2013-05-28T09:52:04.45Z</time>
      </trkpt>
      <trkpt lat="42.354889" lon="2.435103">
        <ele>1392.00</ele>
        <time>2013-05-28T14:25:42.72Z</time>
      </trkpt>
      <trkpt lat="42.354813" lon="2.434976">
        <ele>1392.00</ele>
        <time>2013-05-28T18:11:19.70Z</time>
      </trkpt>
      <trkpt lat="42.354734" lon="2.434885">
        <ele>1392.40</ele>
        <time>2013-05-28T21:25:09.02Z</time>
      </trkpt>
      <trkpt lat="42.354707" lon="2.434859">
        <ele>1392.80</ele>
        <time>2013-05-28T22:27:03.66Z</time>
      </trkpt>
      <trkpt lat="42.354619" lon="2.434798">
        <ele>1394.00</ele>
        <time>2013-05-29T01:31:46.83Z</time>
      </trkpt>
      <trkpt lat="42.354561" lon="2.434763">
        <ele>1395.00</ele>
        <time>2013-05-29T03:30:25.45Z</time>
      </trkpt>
      <trkpt lat="42.354533" lon="2.434746">
        <ele>1395.20</ele>
        <time>2013-05-29T04:27:45.52Z</time>
      </trkpt>
      <trkpt lat="42.354373" lon="2.434673">
        <ele>1396.00</ele>
        <time>2013-05-29T09:43:12.55Z</time>
      </trkpt>
      <trkpt lat="42.354165" lon="2.434600">
        <ele>1394.40</ele>
        <time>2013-05-29T16:24:39.53Z</time>
      </trkpt>
      <trkpt lat="42.354107" lon="2.434585">
        <ele>1394.00</ele>
        <time>2013-05-29T18:14:58.65Z</time>
      </trkpt>
      <trkpt lat="42.353937" lon="2.434594">
        <ele>1393.60</ele>
        <time>2013-05-29T23:32:49.21Z</time>
      </trkpt>
      <trkpt lat="42.353808" lon="2.434607">
        <ele>1393.00</ele>
        <time>2013-05-30T03:34:29.38Z</time>
      </trkpt>
      <trkpt lat="42.353740" lon="2.434592">
        <ele>1392.80</ele>
        <time>2013-05-30T05:43:12.39Z</time>
      </trkpt>
      <trkpt lat="42.353675" lon="2.434570">
        <ele>1392.20</ele>
        <time>2013-05-30T07:48:22.96Z</time>
      </trkpt>
      <trkpt lat="42.353612" lon="2.434548">
        <ele>1391.60</ele>
        <time>2013-05-30T09:49:56.24Z</time>
      </trkpt>
      <trkpt lat="42.353552" lon="2.434519">
        <ele>1391.20</ele>
        <time>2013-05-30T11:48:58.04Z</time>
      </trkpt>
      <trkpt lat="42.353459" lon="2.434451">
        <ele>1391.00</ele>
        <time>2013-05-30T15:06:27.32Z</time>
      </trkpt>
      <trkpt lat="42.353323" lon="2.434247">
        <ele>1390.80</ele>
        <time>2013-05-30T21:25:46.43Z</time>
      </trkpt>
      <trkpt lat="42.353286" lon="2.434152">
        <ele>1390.20</ele>
        <time>2013-05-30T23:54:02.07Z</time>
      </trkpt>
      <trkpt lat="42.353249" lon="2.434051">
        <ele>1389.40</ele>
        <time>2013-05-31T02:29:40.28Z</time>
      </trkpt>
      <trkpt lat="42.353212" lon="2.433949">
        <ele>1388.80</ele>
        <time>2013-05-31T05:06:32.80Z</time>
      </trkpt>
      <trkpt lat="42.353126" lon="2.433769">
        <ele>1388.20</ele>
        <time>2013-05-31T10:02:28.51Z</time>
      </trkpt>
      <trkpt lat="42.353073" lon="2.433700">
        <ele>1387.80</ele>
        <time>2013-05-31T12:19:52.66Z</time>
      </trkpt>
      <trkpt lat="42.352970" lon="2.433581">
        <ele>1386.60</ele>
        <time>2013-05-31T16:32:54.18Z</time>
      </trkpt>
      <trkpt lat="42.352920" lon="2.433509">
        <ele>1386.60</ele>
        <time>2013-05-31T18:49:18.70Z</time>
      </trkpt>
      <trkpt lat="42.352812" lon="2.433355">
        <ele>1386.00</ele>
        <time>2013-05-31T23:42:25.72Z</time>
      </trkpt>
      <trkpt lat="42.352640" lon="2.433099">
        <ele>1385.20</ele>
        <time>2013-06-01T07:40:06.67Z</time>
      </trkpt>
      <trkpt lat="42.352591" lon="2.433005">
        <ele>1384.20</ele>
        <time>2013-06-01T10:18:55.78Z</time>
      </trkpt>
      <trkpt lat="42.352520" lon="2.432798">
        <ele>1383.00</ele>
        <time>2013-06-01T15:34:00.36Z</time>
      </trkpt>
      <trkpt lat="42.352486" lon="2.432691">
        <ele>1382.80</ele>
        <time>2013-06-01T18:14:48.76Z</time>
      </trkpt>
      <trkpt lat="42.352377" lon="2.432510">
        <ele>1381.40</ele>
        <time>2013-06-01T23:37:10.48Z</time>
      </trkpt>
      <trkpt lat="42.352308" lon="2.432428">
        <ele>1380.60</ele>
        <time>2013-06-02T02:28:44.40Z</time>
      </trkpt>
      <trkpt lat="42.352236" lon="2.432345">
        <ele>1379.60</ele>
        <time>2013-06-02T05:25:26.86Z</time>
      </trkpt>
      <trkpt lat="42.352163" lon="2.432259">
        <ele>1378.40</ele>
        <time>2013-06-02T08:26:16.43Z</time>
      </trkpt>
      <trkpt lat="42.352021" lon="2.432102">
        <ele>1376.80</ele>
        <time>2013-06-02T14:08:51.56Z</time>
      </trkpt>
      <trkpt lat="42.351895" lon="2.431966">
        <ele>1376.40</ele>
        <time>2013-06-02T19:09:58.39Z</time>
      </trkpt>
      <trkpt lat="42.351520" lon="2.431582">
        <ele>1375.40</ele>
        <time>2013-06-03T09:48:33.44Z</time>
      </trkpt>
      <trkpt lat="42.351444" lon="2.431517">
        <ele>1374.60</ele>
        <time>2013-06-03T12:36:31.64Z</time>
      </trkpt>
      <trkpt lat="42.351363" lon="2.431444">
        <ele>1373.20</ele>
        <time>2013-06-03T15:38:20.81Z</time>
      </trkpt>
      <trkpt lat="42.351275" lon="2.431366">
        <ele>1372.20</ele>
        <time>2013-06-03T18:54:53Z</time>
      </trkpt>
      <trkpt lat="42.351183" lon="2.431289">
        <ele>1370.80</ele>
        <time>2013-06-03T22:16:58.96Z</time>
      </trkpt>
      <trkpt lat="42.351015" lon="2.431143">
        <ele>1368.40</ele>
        <time>2013-06-04T04:30:00.20Z</time>
      </trkpt>
      <trkpt lat="42.350942" lon="2.431080">
        <ele>1368.00</ele>
        <time>2013-06-04T07:11:45.72Z</time>
      </trkpt>
      <trkpt lat="42.350871" lon="2.431019">
        <ele>1367.40</ele>
        <time>2013-06-04T09:48:53.15Z</time>
      </trkpt>
      <trkpt lat="42.350662" lon="2.430842">
        <ele>1366.20</ele>
        <time>2013-06-04T17:29:31.09Z</time>
      </trkpt>
      <trkpt lat="42.350534" lon="2.430726">
        <ele>1366.20</ele>
        <time>2013-06-04T22:17:19.87Z</time>
      </trkpt>
      <trkpt lat="42.350324" lon="2.430536">
        <ele>1364.60</ele>
        <time>2013-06-05T06:09:17.09Z</time>
      </trkpt>
      <trkpt lat="42.350254" lon="2.430512">
        <ele>1363.60</ele>
        <time>2013-06-05T08:24:11.65Z</time>
      </trkpt>
      <trkpt lat="42.350189" lon="2.430504">
        <ele>1363.00</ele>
        <time>2013-06-05T10:26:07.84Z</time>
      </trkpt>
      <trkpt lat="42.350016" lon="2.430497">
        <ele>1362.20</ele>
        <time>2013-06-05T15:49:28.77Z</time>
      </trkpt>
      <trkpt lat="42.349959" lon="2.430492">
        <ele>1361.80</ele>
        <time>2013-06-05T17:36:11.54Z</time>
      </trkpt>
      <trkpt lat="42.349906" lon="2.430494">
        <ele>1361.60</ele>
        <time>2013-06-05T19:15:14.83Z</time>
      </trkpt>
      <trkpt lat="42.349797" lon="2.430482">
        <ele>1361.00</ele>
        <time>2013-06-05T22:39:33.45Z</time>
      </trkpt>
      <trkpt lat="42.349738" lon="2.430466">
        <ele>1360.80</ele>
        <time>2013-06-06T00:31:58.52Z</time>
      </trkpt>
      <trkpt lat="42.349610" lon="2.430432">
        <ele>1359.80</ele>
        <time>2013-06-06T04:35:40.41Z</time>
      </trkpt>
      <trkpt lat="42.349538" lon="2.430412">
        <ele>1359.00</ele>
        <time>2013-06-06T06:52:59.49Z</time>
      </trkpt>
      <trkpt lat="42.349459" lon="2.430392">
        <ele>1358.20</ele>
        <time>2013-06-06T09:23:08.58Z</time>
      </trkpt>
      <trkpt lat="42.349306" lon="2.430331">
        <ele>1356.60</ele>
        <time>2013-06-06T14:21:07.98Z</time>
      </trkpt>
      <trkpt lat="42.349238" lon="2.430289">
        <ele>1356.00</ele>
        <time>2013-06-06T16:40:46.95Z</time>
      </trkpt>
      <trkpt lat="42.349173" lon="2.430240">
        <ele>1355.40</ele>
        <time>2013-06-06T18:59:47.55Z</time>
      </trkpt>
      <trkpt lat="42.348919" lon="2.430068">
        <ele>1355.40</ele>
        <time>2013-06-07T03:50:25.96Z</time>
      </trkpt>
      <trkpt lat="42.348866" lon="2.430040">
        <ele>1355.40</ele>
        <time>2013-06-07T05:36:43.73Z</time>
      </trkpt>
      <trkpt lat="42.348760" lon="2.430054">
        <ele>1354.00</ele>
        <time>2013-06-07T08:55:42.17Z</time>
      </trkpt>
      <trkpt lat="42.348704" lon="2.430051">
        <ele>1352.60</ele>
        <time>2013-06-07T10:40:24.35Z</time>
      </trkpt>
      <trkpt lat="42.348642" lon="2.430032">
        <ele>1351.60</ele>
        <time>2013-06-07T12:39:10.20Z</time>
      </trkpt>
      <trkpt lat="42.348570" lon="2.430007">
        <ele>1350.60</ele>
        <time>2013-06-07T14:58:02.47Z</time>
      </trkpt>
      <trkpt lat="42.348483" lon="2.429993">
        <ele>1349.80</ele>
        <time>2013-06-07T17:41:43.38Z</time>
      </trkpt>
      <trkpt lat="42.348394" lon="2.429986">
        <ele>1346.80</ele>
        <time>2013-06-07T20:28:16.59Z</time>
      </trkpt>
      <trkpt lat="42.348307" lon="2.429990">
        <ele>1344.60</ele>
        <time>2013-06-07T23:10:54.39Z</time>
      </trkpt>
      <trkpt lat="42.348220" lon="2.430006">
        <ele>1343.00</ele>
        <time>2013-06-08T01:54:56.24Z</time>
      </trkpt>
      <trkpt lat="42.348126" lon="2.430008">
        <ele>1340.80</ele>
        <time>2013-06-08T04:50:34.38Z</time>
      </trkpt>
      <trkpt lat="42.348025" lon="2.430001">
        <ele>1339.80</ele>
        <time>2013-06-08T07:59:30.72Z</time>
      </trkpt>
      <trkpt lat="42.347920" lon="2.429993">
        <ele>1338.20</ele>
        <time>2013-06-08T11:15:59.23Z</time>
      </trkpt>
      <trkpt lat="42.347703" lon="2.429999">
        <ele>1336.00</ele>
        <time>2013-06-08T18:01:28.71Z</time>
      </trkpt>
      <trkpt lat="42.347507" lon="2.430015">
        <ele>1334.40</ele>
        <time>2013-06-09T00:08:19.09Z</time>
      </trkpt>
      <trkpt lat="42.347294" lon="2.430018">
        <ele>1332.40</ele>
        <time>2013-06-09T06:46:16.40Z</time>
      </trkpt>
      <trkpt lat="42.347187" lon="2.430010">
        <ele>1331.00</ele>
        <time>2013-06-09T10:06:28.76Z</time>
      </trkpt>
      <trkpt lat="42.347083" lon="2.430013">
        <ele>1330.20</ele>
        <time>2013-06-09T13:20:49.19Z</time>
      </trkpt>
      <trkpt lat="42.346985" lon="2.430022">
        <ele>1329.60</ele>
        <time>2013-06-09T16:24:19.67Z</time>
      </trkpt>
      <trkpt lat="42.346897" lon="2.430037">
        <ele>1329.60</ele>
        <time>2013-06-09T19:10:01.92Z</time>
      </trkpt>
      <trkpt lat="42.346559" lon="2.430093">
        <ele>1328.80</ele>
        <time>2013-06-10T05:46:12.68Z</time>
      </trkpt>
      <trkpt lat="42.346470" lon="2.430104">
        <ele>1328.00</ele>
        <time>2013-06-10T08:33:10.59Z</time>
      </trkpt>
      <trkpt lat="42.346297" lon="2.430152">
        <ele>1325.80</ele>
        <time>2013-06-10T14:03:06.39Z</time>
      </trkpt>
      <trkpt lat="42.346205" lon="2.430190">
        <ele>1324.40</ele>
        <time>2013-06-10T17:02:48.87Z</time>
      </trkpt>
      <trkpt lat="42.346114" lon="2.430227">
        <ele>1321.20</ele>
        <time>2013-06-10T20:00:20.05Z</time>
      </trkpt>
      <trkpt lat="42.346026" lon="2.430258">
        <ele>1320.20</ele>
        <time>2013-06-10T22:50:13.18Z</time>
      </trkpt>
      <trkpt lat="42.345941" lon="2.430286">
        <ele>1319.00</ele>
        <time>2013-06-11T01:33:39.49Z</time>
      </trkpt>
      <trkpt lat="42.345864" lon="2.430295">
        <ele>1318.40</ele>
        <time>2013-06-11T03:58:02.88Z</time>
      </trkpt>
      <trkpt lat="42.345797" lon="2.430280">
        <ele>1317.40</ele>
        <time>2013-06-11T06:04:55.30Z</time>
      </trkpt>
      <trkpt lat="42.345687" lon="2.430203">
        <ele>1316.20</ele>
        <time>2013-06-11T09:56:18.12Z</time>
      </trkpt>
      <trkpt lat="42.345631" lon="2.430150">
        <ele>1316.00</ele>
        <time>2013-06-11T12:03:58.70Z</time>
      </trkpt>
      <trkpt lat="42.345509" lon="2.430037">
        <ele>1316.20</ele>
        <time>2013-06-11T16:40:11.65Z</time>
      </trkpt>
      <trkpt lat="42.345371" lon="2.429956">
        <ele>1316.00</ele>
        <time>2013-06-11T21:21:13.52Z</time>
      </trkpt>
      <trkpt lat="42.345290" lon="2.429891">
        <ele>1315.20</ele>
        <time>2013-06-12T00:17:10Z</time>
      </trkpt>
      <trkpt lat="42.345286" lon="2.429853">
        <ele>1314.80</ele>
        <time>2013-06-12T01:10:10.01Z</time>
      </trkpt>
      <trkpt lat="42.345301" lon="2.429805">
        <ele>1314.60</ele>
        <time>2013-06-12T02:22:07.60Z</time>
      </trkpt>
      <trkpt lat="42.345399" lon="2.429594">
        <ele>1313.60</ele>
        <time>2013-06-12T08:06:13.69Z</time>
      </trkpt>
      <trkpt lat="42.345451" lon="2.429427">
        <ele>1312.40</ele>
        <time>2013-06-12T12:16:27.09Z</time>
      </trkpt>
      <trkpt lat="42.345484" lon="2.429360">
        <ele>1311.60</ele>
        <time>2013-06-12T14:07:37.55Z</time>
      </trkpt>
      <trkpt lat="42.345521" lon="2.429307">
        <ele>1310.60</ele>
        <time>2013-06-12T15:48:17.60Z</time>
      </trkpt>
      <trkpt lat="42.345590" lon="2.429218">
        <ele>1309.00</ele>
        <time>2013-06-12T18:46:23.60Z</time>
      </trkpt>
      <trkpt lat="42.345657" lon="2.429127">
        <ele>1307.80</ele>
        <time>2013-06-12T21:43:45.20Z</time>
      </trkpt>
      <trkpt lat="42.345688" lon="2.429074">
        <ele>1307.20</ele>
        <time>2013-06-12T23:17:04.80Z</time>
      </trkpt>
      <trkpt lat="42.345717" lon="2.429018">
        <ele>1306.60</ele>
        <time>2013-06-13T00:51:29.78Z</time>
      </trkpt>
      <trkpt lat="42.345787" lon="2.428899">
        <ele>1305.40</ele>
        <time>2013-06-13T04:21:30.06Z</time>
      </trkpt>
      <trkpt lat="42.345871" lon="2.428764">
        <ele>1303.60</ele>
        <time>2013-06-13T08:25:10.29Z</time>
      </trkpt>
      <trkpt lat="42.345912" lon="2.428693">
        <ele>1302.60</ele>
        <time>2013-06-13T10:29:35.01Z</time>
      </trkpt>
      <trkpt lat="42.345943" lon="2.428624">
        <ele>1301.40</ele>
        <time>2013-06-13T12:21:04.80Z</time>
      </trkpt>
      <trkpt lat="42.345966" lon="2.428562">
        <ele>1300.00</ele>
        <time>2013-06-13T13:56:52.07Z</time>
      </trkpt>
      <trkpt lat="42.345985" lon="2.428498">
        <ele>1298.40</ele>
        <time>2013-06-13T15:32:06.08Z</time>
      </trkpt>
      <trkpt lat="42.346005" lon="2.428430">
        <ele>1297.20</ele>
        <time>2013-06-13T17:13:09.40Z</time>
      </trkpt>
      <trkpt lat="42.346032" lon="2.428362">
        <ele>1296.00</ele>
        <time>2013-06-13T18:59:44.54Z</time>
      </trkpt>
      <trkpt lat="42.346060" lon="2.428296">
        <ele>1294.60</ele>
        <time>2013-06-13T20:44:49.25Z</time>
      </trkpt>
      <trkpt lat="42.346084" lon="2.428224">
        <ele>1293.40</ele>
        <time>2013-06-13T22:33:52.87Z</time>
      </trkpt>
      <trkpt lat="42.346105" lon="2.428145">
        <ele>1292.40</ele>
        <time>2013-06-14T00:29:48.27Z</time>
      </trkpt>
      <trkpt lat="42.346133" lon="2.428077">
        <ele>1291.80</ele>
        <time>2013-06-14T02:17:17.21Z</time>
      </trkpt>
      <trkpt lat="42.346161" lon="2.428014">
        <ele>1291.00</ele>
        <time>2013-06-14T03:58:47.61Z</time>
      </trkpt>
      <trkpt lat="42.346181" lon="2.427955">
        <ele>1289.80</ele>
        <time>2013-06-14T05:28:25.21Z</time>
      </trkpt>
      <trkpt lat="42.346200" lon="2.427895">
        <ele>1288.40</ele>
        <time>2013-06-14T06:58:33.09Z</time>
      </trkpt>
      <trkpt lat="42.346215" lon="2.427834">
        <ele>1287.20</ele>
        <time>2013-06-14T08:27:19.15Z</time>
      </trkpt>
      <trkpt lat="42.346229" lon="2.427776">
        <ele>1286.00</ele>
        <time>2013-06-14T09:51:34.07Z</time>
      </trkpt>
      <trkpt lat="42.346245" lon="2.427722">
        <ele>1283.80</ele>
        <time>2013-06-14T11:11:53.94Z</time>
      </trkpt>
      <trkpt lat="42.346269" lon="2.427673">
        <ele>1282.60</ele>
        <time>2013-06-14T12:33:03.96Z</time>
      </trkpt>
      <trkpt lat="42.346320" lon="2.427588">
        <ele>1281.00</ele>
        <time>2013-06-14T15:04:14.34Z</time>
      </trkpt>
      <trkpt lat="42.346376" lon="2.427506">
        <ele>1279.60</ele>
        <time>2013-06-14T17:38:23.95Z</time>
      </trkpt>
      <trkpt lat="42.346427" lon="2.427430">
        <ele>1278.00</ele>
        <time>2013-06-14T20:00:08.42Z</time>
      </trkpt>
      <trkpt lat="42.346449" lon="2.427395">
        <ele>1277.40</ele>
        <time>2013-06-14T21:03:34.92Z</time>
      </trkpt>
      <trkpt lat="42.346469" lon="2.427370">
        <ele>1276.80</ele>
        <time>2013-06-14T21:54:27.10Z</time>
      </trkpt>
      <trkpt lat="42.346523" lon="2.427282">
        <ele>1275.20</ele>
        <time>2013-06-15T00:32:22.94Z</time>
      </trkpt>
      <trkpt lat="42.346554" lon="2.427227">
        <ele>1274.40</ele>
        <time>2013-06-15T02:07:53.34Z</time>
      </trkpt>
      <trkpt lat="42.346584" lon="2.427168">
        <ele>1273.60</ele>
        <time>2013-06-15T03:46:46.37Z</time>
      </trkpt>
      <trkpt lat="42.346632" lon="2.427016">
        <ele>1272.40</ele>
        <time>2013-06-15T07:35:00.39Z</time>
      </trkpt>
      <trkpt lat="42.346656" lon="2.426933">
        <ele>1271.80</ele>
        <time>2013-06-15T09:38:04.21Z</time>
      </trkpt>
      <trkpt lat="42.346679" lon="2.426847">
        <ele>1271.20</ele>
        <time>2013-06-15T11:44:21.15Z</time>
      </trkpt>
      <trkpt lat="42.346698" lon="2.426761">
        <ele>1270.40</ele>
        <time>2013-06-15T13:48:17.48Z</time>
      </trkpt>
      <trkpt lat="42.346719" lon="2.426676">
        <ele>1270.00</ele>
        <time>2013-06-15T15:52:02.47Z</time>
      </trkpt>
      <trkpt lat="42.346760" lon="2.426494">
        <ele>1268.60</ele>
        <time>2013-06-15T20:14:45.42Z</time>
      </trkpt>
      <trkpt lat="42.346780" lon="2.426400">
        <ele>1267.60</ele>
        <time>2013-06-15T22:29:49.27Z</time>
      </trkpt>
      <trkpt lat="42.346809" lon="2.426245">
        <ele>1265.60</ele>
        <time>2013-06-16T02:10:35.56Z</time>
      </trkpt>
      <trkpt lat="42.346825" lon="2.426180">
        <ele>1265.00</ele>
        <time>2013-06-16T03:45:11.40Z</time>
      </trkpt>
      <trkpt lat="42.346846" lon="2.426039">
        <ele>1264.20</ele>
        <time>2013-06-16T07:03:47.58Z</time>
      </trkpt>
      <trkpt lat="42.346868" lon="2.425915">
        <ele>1263.20</ele>
        <time>2013-06-16T09:59:52.39Z</time>
      </trkpt>
      <trkpt lat="42.346890" lon="2.425866">
        <ele>1262.40</ele>
        <time>2013-06-16T11:19:02.22Z</time>
      </trkpt>
      <trkpt lat="42.346923" lon="2.425828">
        <ele>1261.00</ele>
        <time>2013-06-16T12:39:59.62Z</time>
      </trkpt>
      <trkpt lat="42.346955" lon="2.425791">
        <ele>1259.80</ele>
        <time>2013-06-16T13:58:37.96Z</time>
      </trkpt>
      <trkpt lat="42.346971" lon="2.425750">
        <ele>1258.80</ele>
        <time>2013-06-16T15:02:39.09Z</time>
      </trkpt>
      <trkpt lat="42.346964" lon="2.425675">
        <ele>1257.60</ele>
        <time>2013-06-16T16:47:01.91Z</time>
      </trkpt>
      <trkpt lat="42.346984" lon="2.425521">
        <ele>1257.00</ele>
        <time>2013-06-16T20:22:55.72Z</time>
      </trkpt>
      <trkpt lat="42.346989" lon="2.425457">
        <ele>1256.40</ele>
        <time>2013-06-16T21:51:47.42Z</time>
      </trkpt>
      <trkpt lat="42.347025" lon="2.425331">
        <ele>1255.20</ele>
        <time>2013-06-17T00:58:18.91Z</time>
      </trkpt>
      <trkpt lat="42.347064" lon="2.425228">
        <ele>1254.20</ele>
        <time>2013-06-17T03:38:06.73Z</time>
      </trkpt>
      <trkpt lat="42.347104" lon="2.425126">
        <ele>1252.40</ele>
        <time>2013-06-17T06:17:32.92Z</time>
      </trkpt>
      <trkpt lat="42.347112" lon="2.425031">
        <ele>1250.40</ele>
        <time>2013-06-17T08:29:34.22Z</time>
      </trkpt>
      <trkpt lat="42.347104" lon="2.424993">
        <ele>1250.00</ele>
        <time>2013-06-17T09:24:07.61Z</time>
      </trkpt>
      <trkpt lat="42.347093" lon="2.424967">
        <ele>1249.60</ele>
        <time>2013-06-17T10:05:29.56Z</time>
      </trkpt>
      <trkpt lat="42.347143" lon="2.424790">
        <ele>1250.20</ele>
        <time>2013-06-17T14:27:07.93Z</time>
      </trkpt>
      <trkpt lat="42.347151" lon="2.424759">
        <ele>1250.00</ele>
        <time>2013-06-17T15:12:28.22Z</time>
      </trkpt>
      <trkpt lat="42.347175" lon="2.424563">
        <ele>1249.80</ele>
        <time>2013-06-17T19:46:47.40Z</time>
      </trkpt>
      <trkpt lat="42.347195" lon="2.424399">
        <ele>1249.80</ele>
        <time>2013-06-17T23:36:17.87Z</time>
      </trkpt>
      <trkpt lat="42.347196" lon="2.424337">
        <ele>1249.60</ele>
        <time>2013-06-18T01:01:55.55Z</time>
      </trkpt>
      <trkpt lat="42.347192" lon="2.424274">
        <ele>1249.80</ele>
        <time>2013-06-18T02:29:14.07Z</time>
      </trkpt>
      <trkpt lat="42.347189" lon="2.424166">
        <ele>1249.40</ele>
        <time>2013-06-18T04:58:27.76Z</time>
      </trkpt>
      <trkpt lat="42.347190" lon="2.424111">
        <ele>1248.80</ele>
        <time>2013-06-18T06:14:25.68Z</time>
      </trkpt>
      <trkpt lat="42.347174" lon="2.423957">
        <ele>1248.20</ele>
        <time>2013-06-18T09:49:09.41Z</time>
      </trkpt>
      <trkpt lat="42.347168" lon="2.423898">
        <ele>1247.60</ele>
        <time>2013-06-18T11:11:23.39Z</time>
      </trkpt>
      <trkpt lat="42.347170" lon="2.423832">
        <ele>1247.60</ele>
        <time>2013-06-18T12:42:35.82Z</time>
      </trkpt>
      <trkpt lat="42.347179" lon="2.423636">
        <ele>1246.40</ele>
        <time>2013-06-18T17:13:44.96Z</time>
      </trkpt>
      <trkpt lat="42.347150" lon="2.423523">
        <ele>1245.20</ele>
        <time>2013-06-18T19:58:54.90Z</time>
      </trkpt>
      <trkpt lat="42.347084" lon="2.423317">
        <ele>1243.80</ele>
        <time>2013-06-19T01:08:55.77Z</time>
      </trkpt>
      <trkpt lat="42.347072" lon="2.423167">
        <ele>1243.00</ele>
        <time>2013-06-19T04:37:15.29Z</time>
      </trkpt>
      <trkpt lat="42.347072" lon="2.423093">
        <ele>1242.40</ele>
        <time>2013-06-19T06:19:25.91Z</time>
      </trkpt>
      <trkpt lat="42.347073" lon="2.423021">
        <ele>1241.00</ele>
        <time>2013-06-19T07:58:51.89Z</time>
      </trkpt>
      <trkpt lat="42.347072" lon="2.422948">
        <ele>1240.20</ele>
        <time>2013-06-19T09:39:40.70Z</time>
      </trkpt>
      <trkpt lat="42.347067" lon="2.422874">
        <ele>1239.40</ele>
        <time>2013-06-19T11:22:16.88Z</time>
      </trkpt>
      <trkpt lat="42.347056" lon="2.422793">
        <ele>1238.60</ele>
        <time>2013-06-19T13:15:59.77Z</time>
      </trkpt>
      <trkpt lat="42.347048" lon="2.422719">
        <ele>1238.00</ele>
        <time>2013-06-19T14:59:15.63Z</time>
      </trkpt>
      <trkpt lat="42.347105" lon="2.422472">
        <ele>1237.00</ele>
        <time>2013-06-19T20:56:32.95Z</time>
      </trkpt>
      <trkpt lat="42.347145" lon="2.422416">
        <ele>1236.60</ele>
        <time>2013-06-19T22:44:04.93Z</time>
      </trkpt>
      <trkpt lat="42.347190" lon="2.422358">
        <ele>1236.20</ele>
        <time>2013-06-20T00:40:11.49Z</time>
      </trkpt>
      <trkpt lat="42.347293" lon="2.422243">
        <ele>1235.60</ele>
        <time>2013-06-20T04:49:40.52Z</time>
      </trkpt>
      <trkpt lat="42.347347" lon="2.422195">
        <ele>1235.20</ele>
        <time>2013-06-20T06:50:22.97Z</time>
      </trkpt>
      <trkpt lat="42.347479" lon="2.422121">
        <ele>1235.00</ele>
        <time>2013-06-20T11:17:19.15Z</time>
      </trkpt>
      <trkpt lat="42.347662" lon="2.422038">
        <ele>1233.80</ele>
        <time>2013-06-20T17:17:54.15Z</time>
      </trkpt>
      <trkpt lat="42.347712" lon="2.422025">
        <ele>1233.20</ele>
        <time>2013-06-20T18:53:01.39Z</time>
      </trkpt>
      <trkpt lat="42.347760" lon="2.422022">
        <ele>1232.60</ele>
        <time>2013-06-20T20:22:47.64Z</time>
      </trkpt>
      <trkpt lat="42.347837" lon="2.422013">
        <ele>1231.20</ele>
        <time>2013-06-20T22:47:11.02Z</time>
      </trkpt>
      <trkpt lat="42.347869" lon="2.422030">
        <ele>1230.20</ele>
        <time>2013-06-20T23:51:24.61Z</time>
      </trkpt>
      <trkpt lat="42.347896" lon="2.422048">
        <ele>1229.00</ele>
        <time>2013-06-21T00:47:38.57Z</time>
      </trkpt>
      <trkpt lat="42.347924" lon="2.422066">
        <ele>1228.60</ele>
        <time>2013-06-21T01:45:33.45Z</time>
      </trkpt>
      <trkpt lat="42.347953" lon="2.422071">
        <ele>1228.20</ele>
        <time>2013-06-21T02:40:10.46Z</time>
      </trkpt>
      <trkpt lat="42.347987" lon="2.422056">
        <ele>1227.40</ele>
        <time>2013-06-21T03:46:59.13Z</time>
      </trkpt>
      <trkpt lat="42.348022" lon="2.422029">
        <ele>1226.40</ele>
        <time>2013-06-21T05:02:15.27Z</time>
      </trkpt>
      <trkpt lat="42.348052" lon="2.421993">
        <ele>1225.60</ele>
        <time>2013-06-21T06:17:10.09Z</time>
      </trkpt>
      <trkpt lat="42.348076" lon="2.421951">
        <ele>1225.00</ele>
        <time>2013-06-21T07:30:28.30Z</time>
      </trkpt>
      <trkpt lat="42.348089" lon="2.421910">
        <ele>1224.60</ele>
        <time>2013-06-21T08:32:04.34Z</time>
      </trkpt>
      <trkpt lat="42.348095" lon="2.421870">
        <ele>1224.00</ele>
        <time>2013-06-21T09:28:25.69Z</time>
      </trkpt>
      <trkpt lat="42.348106" lon="2.421833">
        <ele>1223.60</ele>
        <time>2013-06-21T10:23:29.66Z</time>
      </trkpt>
      <trkpt lat="42.348145" lon="2.421771">
        <ele>1221.80</ele>
        <time>2013-06-21T12:15:54.57Z</time>
      </trkpt>
      <trkpt lat="42.348170" lon="2.421736">
        <ele>1220.60</ele>
        <time>2013-06-21T13:23:07.02Z</time>
      </trkpt>
      <trkpt lat="42.348194" lon="2.421690">
        <ele>1219.40</ele>
        <time>2013-06-21T14:40:51.80Z</time>
      </trkpt>
      <trkpt lat="42.348206" lon="2.421637">
        <ele>1218.20</ele>
        <time>2013-06-21T15:57:23.99Z</time>
      </trkpt>
      <trkpt lat="42.348202" lon="2.421575">
        <ele>1217.00</ele>
        <time>2013-06-21T17:23:19.90Z</time>
      </trkpt>
      <trkpt lat="42.348190" lon="2.421501">
        <ele>1216.20</ele>
        <time>2013-06-21T19:07:56.24Z</time>
      </trkpt>
      <trkpt lat="42.348177" lon="2.421423">
        <ele>1215.80</ele>
        <time>2013-06-21T20:58:20.40Z</time>
      </trkpt>
      <trkpt lat="42.348149" lon="2.421263">
        <ele>1214.20</ele>
        <time>2013-06-22T00:45:22.09Z</time>
      </trkpt>
      <trkpt lat="42.348133" lon="2.421183">
        <ele>1213.00</ele>
        <time>2013-06-22T02:39:48.06Z</time>
      </trkpt>
      <trkpt lat="42.348116" lon="2.421098">
        <ele>1211.80</ele>
        <time>2013-06-22T04:41:23.15Z</time>
      </trkpt>
      <trkpt lat="42.348094" lon="2.421008">
        <ele>1210.60</ele>
        <time>2013-06-22T06:52:16.43Z</time>
      </trkpt>
      <trkpt lat="42.348070" lon="2.420922">
        <ele>1209.40</ele>
        <time>2013-06-22T08:59:12.09Z</time>
      </trkpt>
      <trkpt lat="42.348047" lon="2.420835">
        <ele>1207.00</ele>
        <time>2013-06-22T11:06:46.83Z</time>
      </trkpt>
      <trkpt lat="42.348038" lon="2.420739">
        <ele>1205.60</ele>
        <time>2013-06-22T13:20:23.67Z</time>
      </trkpt>
      <trkpt lat="42.348044" lon="2.420646">
        <ele>1204.40</ele>
        <time>2013-06-22T15:29:17.55Z</time>
      </trkpt>
      <trkpt lat="42.348057" lon="2.420559">
        <ele>1203.40</ele>
        <time>2013-06-22T17:31:50.89Z</time>
      </trkpt>
      <trkpt lat="42.348080" lon="2.420478">
        <ele>1202.00</ele>
        <time>2013-06-22T19:31:39.56Z</time>
      </trkpt>
      <trkpt lat="42.348104" lon="2.420398">
        <ele>1200.60</ele>
        <time>2013-06-22T21:30:52.35Z</time>
      </trkpt>
      <trkpt lat="42.348115" lon="2.420326">
        <ele>1199.20</ele>
        <time>2013-06-22T23:12:23.29Z</time>
      </trkpt>
      <trkpt lat="42.348110" lon="2.420253">
        <ele>1198.00</ele>
        <time>2013-06-23T00:53:36.88Z</time>
      </trkpt>
      <trkpt lat="42.348095" lon="2.420184">
        <ele>1196.60</ele>
        <time>2013-06-23T02:32:55.33Z</time>
      </trkpt>
      <trkpt lat="42.348065" lon="2.420116">
        <ele>1195.20</ele>
        <time>2013-06-23T04:22:16.15Z</time>
      </trkpt>
      <trkpt lat="42.348030" lon="2.420050">
        <ele>1193.40</ele>
        <time>2013-06-23T06:14:25.83Z</time>
      </trkpt>
      <trkpt lat="42.347999" lon="2.419986">
        <ele>1192.40</ele>
        <time>2013-06-23T08:00:05.16Z</time>
      </trkpt>
      <trkpt lat="42.347969" lon="2.419924">
        <ele>1191.00</ele>
        <time>2013-06-23T09:42:24.46Z</time>
      </trkpt>
      <trkpt lat="42.347939" lon="2.419855">
        <ele>1189.80</ele>
        <time>2013-06-23T11:32:56.56Z</time>
      </trkpt>
      <trkpt lat="42.347916" lon="2.419777">
        <ele>1188.00</ele>
        <time>2013-06-23T13:28:53.81Z</time>
      </trkpt>
      <trkpt lat="42.347899" lon="2.419702">
        <ele>1186.80</ele>
        <time>2013-06-23T15:17:12.84Z</time>
      </trkpt>
      <trkpt lat="42.347882" lon="2.419631">
        <ele>1185.40</ele>
        <time>2013-06-23T17:00:15.83Z</time>
      </trkpt>
      <trkpt lat="42.347871" lon="2.419561">
        <ele>1184.20</ele>
        <time>2013-06-23T18:39:04.62Z</time>
      </trkpt>
      <trkpt lat="42.347890" lon="2.419485">
        <ele>1183.20</ele>
        <time>2013-06-23T20:29:51.31Z</time>
      </trkpt>
      <trkpt lat="42.347953" lon="2.419351">
        <ele>1181.60</ele>
        <time>2013-06-24T00:09:08.38Z</time>
      </trkpt>
      <trkpt lat="42.347985" lon="2.419276">
        <ele>1181.00</ele>
        <time>2013-06-24T02:08:42.82Z</time>
      </trkpt>
      <trkpt lat="42.348003" lon="2.419201">
        <ele>1180.60</ele>
        <time>2013-06-24T03:57:35.59Z</time>
      </trkpt>
      <trkpt lat="42.348026" lon="2.419090">
        <ele>1179.80</ele>
        <time>2013-06-24T06:36:45.96Z</time>
      </trkpt>
      <trkpt lat="42.348052" lon="2.418876">
        <ele>1181.20</ele>
        <time>2013-06-24T11:36:12.73Z</time>
      </trkpt>
      <trkpt lat="42.348054" lon="2.418772">
        <ele>1181.00</ele>
        <time>2013-06-24T13:59:51.52Z</time>
      </trkpt>
      <trkpt lat="42.348105" lon="2.418630">
        <ele>1179.60</ele>
        <time>2013-06-24T17:37:51Z</time>
      </trkpt>
      <trkpt lat="42.348135" lon="2.418584">
        <ele>1178.80</ele>
        <time>2013-06-24T19:02:33.44Z</time>
      </trkpt>
      <trkpt lat="42.348170" lon="2.418544">
        <ele>1178.40</ele>
        <time>2013-06-24T20:28:08.95Z</time>
      </trkpt>
      <trkpt lat="42.348242" lon="2.418497">
        <ele>1177.40</ele>
        <time>2013-06-24T22:57:29.88Z</time>
      </trkpt>
      <trkpt lat="42.348280" lon="2.418479">
        <ele>1177.20</ele>
        <time>2013-06-25T00:12:42.93Z</time>
      </trkpt>
      <trkpt lat="42.348310" lon="2.418450">
        <ele>1177.00</ele>
        <time>2013-06-25T01:21:35.79Z</time>
      </trkpt>
      <trkpt lat="42.348345" lon="2.418381">
        <ele>1175.60</ele>
        <time>2013-06-25T03:17:08.90Z</time>
      </trkpt>
      <trkpt lat="42.348356" lon="2.418348">
        <ele>1174.40</ele>
        <time>2013-06-25T04:07:07.97Z</time>
      </trkpt>
      <trkpt lat="42.348363" lon="2.418321">
        <ele>1173.20</ele>
        <time>2013-06-25T04:46:38.40Z</time>
      </trkpt>
      <trkpt lat="42.348392" lon="2.418357">
        <ele>1168.00</ele>
        <time>2013-06-25T06:00:09.97Z</time>
      </trkpt>
      <trkpt lat="42.348406" lon="2.418383">
        <ele>1167.60</ele>
        <time>2013-06-25T06:44:34.98Z</time>
      </trkpt>
      <trkpt lat="42.348434" lon="2.418431">
        <ele>1166.60</ele>
        <time>2013-06-25T08:09:00.93Z</time>
      </trkpt>
      <trkpt lat="42.348459" lon="2.418449">
        <ele>1165.40</ele>
        <time>2013-06-25T09:01:55.33Z</time>
      </trkpt>
      <trkpt lat="42.348464" lon="2.418427">
        <ele>1164.60</ele>
        <time>2013-06-25T09:33:42.14Z</time>
      </trkpt>
      <trkpt lat="42.348461" lon="2.418410">
        <ele>1164.20</ele>
        <time>2013-06-25T09:57:50.09Z</time>
      </trkpt>
      <trkpt lat="42.348459" lon="2.418369">
        <ele>1163.20</ele>
        <time>2013-06-25T10:54:34.10Z</time>
      </trkpt>
      <trkpt lat="42.348451" lon="2.418320">
        <ele>1162.00</ele>
        <time>2013-06-25T12:03:51.34Z</time>
      </trkpt>
      <trkpt lat="42.348453" lon="2.418303">
        <ele>1161.60</ele>
        <time>2013-06-25T12:27:37.43Z</time>
      </trkpt>
      <trkpt lat="42.348454" lon="2.418308">
        <ele>1161.00</ele>
        <time>2013-06-25T12:44:26.27Z</time>
      </trkpt>
      <trkpt lat="42.348490" lon="2.418358">
        <ele>1157.80</ele>
        <time>2013-06-25T14:20:49.21Z</time>
      </trkpt>
      <trkpt lat="42.348503" lon="2.418384">
        <ele>1157.40</ele>
        <time>2013-06-25T15:04:09.78Z</time>
      </trkpt>
      <trkpt lat="42.348516" lon="2.418405">
        <ele>1156.80</ele>
        <time>2013-06-25T15:41:59.18Z</time>
      </trkpt>
      <trkpt lat="42.348603" lon="2.418374">
        <ele>1153.60</ele>
        <time>2013-06-25T18:30:03.85Z</time>
      </trkpt>
      <trkpt lat="42.348612" lon="2.418269">
        <ele>1151.40</ele>
        <time>2013-06-25T20:56:00.79Z</time>
      </trkpt>
      <trkpt lat="42.348611" lon="2.418211">
        <ele>1150.00</ele>
        <time>2013-06-25T22:16:07.06Z</time>
      </trkpt>
      <trkpt lat="42.348617" lon="2.418173">
        <ele>1148.80</ele>
        <time>2013-06-25T23:09:46.18Z</time>
      </trkpt>
      <trkpt lat="42.348633" lon="2.418140">
        <ele>1147.60</ele>
        <time>2013-06-26T00:04:15.84Z</time>
      </trkpt>
      <trkpt lat="42.348650" lon="2.417903">
        <ele>1140.20</ele>
        <time>2013-06-26T05:33:02.15Z</time>
      </trkpt>
      <trkpt lat="42.348649" lon="2.417875">
        <ele>1139.60</ele>
        <time>2013-06-26T06:11:44.50Z</time>
      </trkpt>
      <trkpt lat="42.348646" lon="2.417821">
        <ele>1138.80</ele>
        <time>2013-06-26T07:26:30.70Z</time>
      </trkpt>
      <trkpt lat="42.348647" lon="2.417801">
        <ele>1138.60</ele>
        <time>2013-06-26T07:54:11.37Z</time>
      </trkpt>
      <trkpt lat="42.348648" lon="2.417743">
        <ele>1137.60</ele>
        <time>2013-06-26T09:14:17.64Z</time>
      </trkpt>
      <trkpt lat="42.348664" lon="2.417704">
        <ele>1136.60</ele>
        <time>2013-06-26T10:15:52.97Z</time>
      </trkpt>
      <trkpt lat="42.348671" lon="2.417648">
        <ele>1136.20</ele>
        <time>2013-06-26T11:34:18.13Z</time>
      </trkpt>
      <trkpt lat="42.348693" lon="2.417438">
        <ele>1132.80</ele>
        <time>2013-06-26T16:27:09.30Z</time>
      </trkpt>
      <trkpt lat="42.348694" lon="2.417408">
        <ele>1131.80</ele>
        <time>2013-06-26T17:08:37.15Z</time>
      </trkpt>
      <trkpt lat="42.348694" lon="2.417380">
        <ele>1131.00</ele>
        <time>2013-06-26T17:47:16.79Z</time>
      </trkpt>
      <trkpt lat="42.348694" lon="2.417356">
        <ele>1130.40</ele>
        <time>2013-06-26T18:20:25.04Z</time>
      </trkpt>
      <trkpt lat="42.348695" lon="2.417338">
        <ele>1129.20</ele>
        <time>2013-06-26T18:45:20.44Z</time>
      </trkpt>
      <trkpt lat="42.348774" lon="2.417151">
        <ele>1125.60</ele>
        <time>2013-06-26T23:42:44.64Z</time>
      </trkpt>
      <trkpt lat="42.348782" lon="2.417124">
        <ele>1124.80</ele>
        <time>2013-06-27T00:22:54.49Z</time>
      </trkpt>
      <trkpt lat="42.348786" lon="2.417096">
        <ele>1124.00</ele>
        <time>2013-06-27T01:02:17.06Z</time>
      </trkpt>
      <trkpt lat="42.348787" lon="2.417042">
        <ele>1122.60</ele>
        <time>2013-06-27T02:16:52.04Z</time>
      </trkpt>
      <trkpt lat="42.348797" lon="2.417019">
        <ele>1121.80</ele>
        <time>2013-06-27T02:53:42.72Z</time>
      </trkpt>
      <trkpt lat="42.348806" lon="2.416998">
        <ele>1121.20</ele>
        <time>2013-06-27T03:27:13.79Z</time>
      </trkpt>
      <trkpt lat="42.348809" lon="2.416979">
        <ele>1119.80</ele>
        <time>2013-06-27T03:54:03.34Z</time>
      </trkpt>
      <trkpt lat="42.348818" lon="2.416815">
        <ele>1116.40</ele>
        <time>2013-06-27T07:41:07.15Z</time>
      </trkpt>
      <trkpt lat="42.348821" lon="2.416776">
        <ele>1115.80</ele>
        <time>2013-06-27T08:35:15.51Z</time>
      </trkpt>
      <trkpt lat="42.348820" lon="2.416732">
        <ele>1115.20</ele>
        <time>2013-06-27T09:36:02.37Z</time>
      </trkpt>
      <trkpt lat="42.348838" lon="2.416657">
        <ele>1113.60</ele>
        <time>2013-06-27T11:24:55.06Z</time>
      </trkpt>
      <trkpt lat="42.348874" lon="2.416588">
        <ele>1112.40</ele>
        <time>2013-06-27T13:21:32.17Z</time>
      </trkpt>
      <trkpt lat="42.348896" lon="2.416539">
        <ele>1111.00</ele>
        <time>2013-06-27T14:40:41.89Z</time>
      </trkpt>
      <trkpt lat="42.348919" lon="2.416497">
        <ele>1110.00</ele>
        <time>2013-06-27T15:52:52.41Z</time>
      </trkpt>
      <trkpt lat="42.348918" lon="2.416501">
        <ele>1109.60</ele>
        <time>2013-06-27T16:09:41.25Z</time>
      </trkpt>
      <trkpt lat="42.348943" lon="2.416400">
        <ele>1108.20</ele>
        <time>2013-06-27T18:36:45.29Z</time>
      </trkpt>
      <trkpt lat="42.348965" lon="2.416316">
        <ele>1106.40</ele>
        <time>2013-06-27T20:39:48.20Z</time>
      </trkpt>
      <trkpt lat="42.348983" lon="2.416222">
        <ele>1105.00</ele>
        <time>2013-06-27T22:53:52.65Z</time>
      </trkpt>
      <trkpt lat="42.348995" lon="2.416139">
        <ele>1104.00</ele>
        <time>2013-06-28T00:50:39.01Z</time>
      </trkpt>
      <trkpt lat="42.348997" lon="2.416102">
        <ele>1103.60</ele>
        <time>2013-06-28T01:41:52.42Z</time>
      </trkpt>
      <trkpt lat="42.349000" lon="2.416033">
        <ele>1102.40</ele>
        <time>2013-06-28T03:17:18.51Z</time>
      </trkpt>
      <trkpt lat="42.348989" lon="2.415983">
        <ele>1101.20</ele>
        <time>2013-06-28T04:29:20.33Z</time>
      </trkpt>
      <trkpt lat="42.348977" lon="2.415820">
        <ele>1097.60</ele>
        <time>2013-06-28T08:15:30.68Z</time>
      </trkpt>
      <trkpt lat="42.348949" lon="2.415748">
        <ele>1096.20</ele>
        <time>2013-06-28T10:07:50.80Z</time>
      </trkpt>
      <trkpt lat="42.348946" lon="2.415685">
        <ele>1095.00</ele>
        <time>2013-06-28T11:35:00.78Z</time>
      </trkpt>
      <trkpt lat="42.348947" lon="2.415615">
        <ele>1094.00</ele>
        <time>2013-06-28T13:11:40.92Z</time>
      </trkpt>
      <trkpt lat="42.348924" lon="2.415484">
        <ele>1093.00</ele>
        <time>2013-06-28T16:17:35.49Z</time>
      </trkpt>
      <trkpt lat="42.348890" lon="2.415399">
        <ele>1091.80</ele>
        <time>2013-06-28T18:31:02.43Z</time>
      </trkpt>
      <trkpt lat="42.348870" lon="2.415371">
        <ele>1091.40</ele>
        <time>2013-06-28T19:24:48.37Z</time>
      </trkpt>
      <trkpt lat="42.348801" lon="2.415104">
        <ele>1089.20</ele>
        <time>2013-06-29T01:55:20.96Z</time>
      </trkpt>
      <trkpt lat="42.348785" lon="2.415054">
        <ele>1088.00</ele>
        <time>2013-06-29T03:10:34.77Z</time>
      </trkpt>
      <trkpt lat="42.348744" lon="2.414920">
        <ele>1086.40</ele>
        <time>2013-06-29T06:30:49.60Z</time>
      </trkpt>
      <trkpt lat="42.348726" lon="2.414812">
        <ele>1084.80</ele>
        <time>2013-06-29T09:03:41.44Z</time>
      </trkpt>
      <trkpt lat="42.348710" lon="2.414785">
        <ele>1084.00</ele>
        <time>2013-06-29T09:51:28.47Z</time>
      </trkpt>
      <trkpt lat="42.348681" lon="2.414771">
        <ele>1083.40</ele>
        <time>2013-06-29T10:48:59.90Z</time>
      </trkpt>
      <trkpt lat="42.348579" lon="2.414660">
        <ele>1080.40</ele>
        <time>2013-06-29T14:53:32.60Z</time>
      </trkpt>
      <trkpt lat="42.348565" lon="2.414628">
        <ele>1079.60</ele>
        <time>2013-06-29T15:44:53.28Z</time>
      </trkpt>
      <trkpt lat="42.348545" lon="2.414596">
        <ele>1078.80</ele>
        <time>2013-06-29T16:42:45.16Z</time>
      </trkpt>
      <trkpt lat="42.348513" lon="2.414531">
        <ele>1077.40</ele>
        <time>2013-06-29T18:30:35.36Z</time>
      </trkpt>
      <trkpt lat="42.348500" lon="2.414497">
        <ele>1076.00</ele>
        <time>2013-06-29T19:23:26.69Z</time>
      </trkpt>
      <trkpt lat="42.348489" lon="2.414469">
        <ele>1075.40</ele>
        <time>2013-06-29T20:07:13.69Z</time>
      </trkpt>
      <trkpt lat="42.348478" lon="2.414436">
        <ele>1074.80</ele>
        <time>2013-06-29T20:57:12.75Z</time>
      </trkpt>
      <trkpt lat="42.348451" lon="2.414375">
        <ele>1073.40</ele>
        <time>2013-06-29T22:35:23.24Z</time>
      </trkpt>
      <trkpt lat="42.348422" lon="2.414319">
        <ele>1071.60</ele>
        <time>2013-06-30T00:09:48.06Z</time>
      </trkpt>
      <trkpt lat="42.348410" lon="2.414291">
        <ele>1070.60</ele>
        <time>2013-06-30T00:54:29.50Z</time>
      </trkpt>
      <trkpt lat="42.348403" lon="2.414257">
        <ele>1070.00</ele>
        <time>2013-06-30T01:43:13.46Z</time>
      </trkpt>
      <trkpt lat="42.348365" lon="2.414193">
        <ele>1068.60</ele>
        <time>2013-06-30T03:36:34.61Z</time>
      </trkpt>
      <trkpt lat="42.348325" lon="2.414119">
        <ele>1067.00</ele>
        <time>2013-06-30T05:43:09.81Z</time>
      </trkpt>
      <trkpt lat="42.348286" lon="2.414077">
        <ele>1066.20</ele>
        <time>2013-06-30T07:16:17.14Z</time>
      </trkpt>
      <trkpt lat="42.348240" lon="2.414025">
        <ele>1065.60</ele>
        <time>2013-06-30T09:08:16.21Z</time>
      </trkpt>
      <trkpt lat="42.348195" lon="2.413959">
        <ele>1065.40</ele>
        <time>2013-06-30T11:12:15.33Z</time>
      </trkpt>
      <trkpt lat="42.348081" lon="2.413734">
        <ele>1064.60</ele>
        <time>2013-06-30T17:28:55.07Z</time>
      </trkpt>
      <trkpt lat="42.348038" lon="2.413654">
        <ele>1064.40</ele>
        <time>2013-06-30T19:45:30.05Z</time>
      </trkpt>
      <trkpt lat="42.347917" lon="2.413425">
        <ele>1063.20</ele>
        <time>2013-07-01T02:14:11.36Z</time>
      </trkpt>
      <trkpt lat="42.347886" lon="2.413348">
        <ele>1062.60</ele>
        <time>2013-07-01T04:15:15.49Z</time>
      </trkpt>
      <trkpt lat="42.347858" lon="2.413275">
        <ele>1061.20</ele>
        <time>2013-07-01T06:08:49.13Z</time>
      </trkpt>
      <trkpt lat="42.347843" lon="2.413201">
        <ele>1060.40</ele>
        <time>2013-07-01T07:54:46.07Z</time>
      </trkpt>
      <trkpt lat="42.347837" lon="2.413132">
        <ele>1059.20</ele>
        <time>2013-07-01T09:30:41.82Z</time>
      </trkpt>
      <trkpt lat="42.347836" lon="2.413077">
        <ele>1058.20</ele>
        <time>2013-07-01T10:46:39.68Z</time>
      </trkpt>
      <trkpt lat="42.347837" lon="2.413031">
        <ele>1057.20</ele>
        <time>2013-07-01T11:50:12.21Z</time>
      </trkpt>
      <trkpt lat="42.347834" lon="2.412975">
        <ele>1056.60</ele>
        <time>2013-07-01T13:07:43.71Z</time>
      </trkpt>
      <trkpt lat="42.347828" lon="2.412891">
        <ele>1055.60</ele>
        <time>2013-07-01T15:04:15.13Z</time>
      </trkpt>
      <trkpt lat="42.347843" lon="2.412698">
        <ele>1054.40</ele>
        <time>2013-07-01T19:32:12.42Z</time>
      </trkpt>
      <trkpt lat="42.347836" lon="2.412634">
        <ele>1055.00</ele>
        <time>2013-07-01T21:01:32.26Z</time>
      </trkpt>
      <trkpt lat="42.347839" lon="2.412581">
        <ele>1055.20</ele>
        <time>2013-07-01T22:14:55.92Z</time>
      </trkpt>
      <trkpt lat="42.347826" lon="2.412504">
        <ele>1055.00</ele>
        <time>2013-07-02T00:03:59.32Z</time>
      </trkpt>
      <trkpt lat="42.347817" lon="2.412449">
        <ele>1055.00</ele>
        <time>2013-07-02T01:21:46.16Z</time>
      </trkpt>
      <trkpt lat="42.347783" lon="2.412228">
        <ele>1054.80</ele>
        <time>2013-07-02T06:33:27.42Z</time>
      </trkpt>
      <trkpt lat="42.347781" lon="2.412146">
        <ele>1054.80</ele>
        <time>2013-07-02T08:26:44.43Z</time>
      </trkpt>
      <trkpt lat="42.347843" lon="2.411910">
        <ele>1054.40</ele>
        <time>2013-07-02T14:12:34.38Z</time>
      </trkpt>
      <trkpt lat="42.347992" lon="2.411754">
        <ele>1054.60</ele>
        <time>2013-07-02T20:04:32.68Z</time>
      </trkpt>
      <trkpt lat="42.348050" lon="2.411715">
        <ele>1054.60</ele>
        <time>2013-07-02T22:05:32.70Z</time>
      </trkpt>
      <trkpt lat="42.348102" lon="2.411689">
        <ele>1054.60</ele>
        <time>2013-07-02T23:49:06.84Z</time>
      </trkpt>
      <trkpt lat="42.348194" lon="2.411672">
        <ele>1054.00</ele>
        <time>2013-07-03T02:42:35.21Z</time>
      </trkpt>
      <trkpt lat="42.348244" lon="2.411640">
        <ele>1053.60</ele>
        <time>2013-07-03T04:25:55.26Z</time>
      </trkpt>
      <trkpt lat="42.348246" lon="2.411597">
        <ele>1053.40</ele>
        <time>2013-07-03T05:25:24.63Z</time>
      </trkpt>
      <trkpt lat="42.348243" lon="2.411534">
        <ele>1053.00</ele>
        <time>2013-07-03T06:52:34.67Z</time>
      </trkpt>
      <trkpt lat="42.348229" lon="2.411384">
        <ele>1052.60</ele>
        <time>2013-07-03T10:21:20.07Z</time>
      </trkpt>
      <trkpt lat="42.348210" lon="2.411321">
        <ele>1052.60</ele>
        <time>2013-07-03T11:55:17.10Z</time>
      </trkpt>
      <trkpt lat="42.348152" lon="2.411216">
        <ele>1053.20</ele>
        <time>2013-07-03T14:56:16.95Z</time>
      </trkpt>
      <trkpt lat="42.347953" lon="2.411037">
        <ele>1053.40</ele>
        <time>2013-07-03T22:22:43.06Z</time>
      </trkpt>
      <trkpt lat="42.347898" lon="2.410995">
        <ele>1053.40</ele>
        <time>2013-07-04T00:20:42.34Z</time>
      </trkpt>
      <trkpt lat="42.347799" lon="2.410898">
        <ele>1053.60</ele>
        <time>2013-07-04T04:09:03.70Z</time>
      </trkpt>
      <trkpt lat="42.347724" lon="2.410760">
        <ele>1053.20</ele>
        <time>2013-07-04T08:05:34.68Z</time>
      </trkpt>
      <trkpt lat="42.347665" lon="2.410599">
        <ele>1052.80</ele>
        <time>2013-07-04T12:13:42.40Z</time>
      </trkpt>
      <trkpt lat="42.347536" lon="2.410264">
        <ele>1052.00</ele>
        <time>2013-07-04T20:55:16.77Z</time>
      </trkpt>
      <trkpt lat="42.347503" lon="2.410179">
        <ele>1051.60</ele>
        <time>2013-07-04T23:07:51.10Z</time>
      </trkpt>
      <trkpt lat="42.347455" lon="2.410104">
        <ele>1051.00</ele>
        <time>2013-07-05T01:24:50.38Z</time>
      </trkpt>
      <trkpt lat="42.347338" lon="2.409978">
        <ele>1050.20</ele>
        <time>2013-07-05T06:04:12.45Z</time>
      </trkpt>
      <trkpt lat="42.346887" lon="2.409639">
        <ele>1049.40</ele>
        <time>2013-07-05T22:08:04.15Z</time>
      </trkpt>
      <trkpt lat="42.346822" lon="2.409578">
        <ele>1049.00</ele>
        <time>2013-07-06T00:35:51.32Z</time>
      </trkpt>
      <trkpt lat="42.346616" lon="2.409398">
        <ele>1048.20</ele>
        <time>2013-07-06T08:13:59.33Z</time>
      </trkpt>
      <trkpt lat="42.346546" lon="2.409359">
        <ele>1048.20</ele>
        <time>2013-07-06T10:35:25.10Z</time>
      </trkpt>
      <trkpt lat="42.346479" lon="2.409326">
        <ele>1048.00</ele>
        <time>2013-07-06T12:48:37.54Z</time>
      </trkpt>
      <trkpt lat="42.346195" lon="2.409280">
        <ele>1047.40</ele>
        <time>2013-07-06T21:42:59.54Z</time>
      </trkpt>
      <trkpt lat="42.345918" lon="2.409386">
        <ele>1047.00</ele>
        <time>2013-07-07T06:40:47.57Z</time>
      </trkpt>
      <trkpt lat="42.345829" lon="2.409437">
        <ele>1047.00</ele>
        <time>2013-07-07T09:41:21.80Z</time>
      </trkpt>
      <trkpt lat="42.345734" lon="2.409471">
        <ele>1047.00</ele>
        <time>2013-07-07T12:44:56.98Z</time>
      </trkpt>
      <trkpt lat="42.345544" lon="2.409502">
        <ele>1046.00</ele>
        <time>2013-07-07T18:42:29.13Z</time>
      </trkpt>
      <trkpt lat="42.345092" lon="2.409486">
        <ele>1045.60</ele>
        <time>2013-07-08T08:47:12.96Z</time>
      </trkpt>
      <trkpt lat="42.345030" lon="2.409467">
        <ele>1045.80</ele>
        <time>2013-07-08T10:45:58.83Z</time>
      </trkpt>
      <trkpt lat="42.344982" lon="2.409423">
        <ele>1046.20</ele>
        <time>2013-07-08T12:34:17.95Z</time>
      </trkpt>
      <trkpt lat="42.344999" lon="2.409397">
        <ele>1047.20</ele>
        <time>2013-07-08T13:22:13.94Z</time>
      </trkpt>
      <trkpt lat="42.345014" lon="2.409403">
        <ele>1047.80</ele>
        <time>2013-07-08T13:51:27.29Z</time>
      </trkpt>
      <trkpt lat="42.345033" lon="2.409406">
        <ele>1048.20</ele>
        <time>2013-07-08T14:27:11.53Z</time>
      </trkpt>
      <trkpt lat="42.345095" lon="2.409385">
        <ele>1049.60</ele>
        <time>2013-07-08T16:26:35.83Z</time>
      </trkpt>
      <trkpt lat="42.345108" lon="2.409376">
        <ele>1050.00</ele>
        <time>2013-07-08T16:53:52.74Z</time>
      </trkpt>
      <trkpt lat="42.345110" lon="2.409364">
        <ele>1050.60</ele>
        <time>2013-07-08T17:10:51.88Z</time>
      </trkpt>
      <trkpt lat="42.345086" lon="2.409353">
        <ele>1051.80</ele>
        <time>2013-07-08T17:58:12.31Z</time>
      </trkpt>
      <trkpt lat="42.344998" lon="2.409335">
        <ele>1053.80</ele>
        <time>2013-07-08T20:44:28.67Z</time>
      </trkpt>
      <trkpt lat="42.344940" lon="2.409332">
        <ele>1053.60</ele>
        <time>2013-07-08T22:32:54.87Z</time>
      </trkpt>
      <trkpt lat="42.344855" lon="2.409328">
        <ele>1055.00</ele>
        <time>2013-07-09T01:11:48.62Z</time>
      </trkpt>
      <trkpt lat="42.344771" lon="2.409339">
        <ele>1056.20</ele>
        <time>2013-07-09T03:49:28.52Z</time>
      </trkpt>
      <trkpt lat="42.344746" lon="2.409349">
        <ele>1056.40</ele>
        <time>2013-07-09T04:38:10.78Z</time>
      </trkpt>
      <trkpt lat="42.344697" lon="2.409366">
        <ele>1057.20</ele>
        <time>2013-07-09T06:12:41.09Z</time>
      </trkpt>
      <trkpt lat="42.344631" lon="2.409388">
        <ele>1058.40</ele>
        <time>2013-07-09T08:19:40.51Z</time>
      </trkpt>
      <trkpt lat="42.344604" lon="2.409399">
        <ele>1058.80</ele>
        <time>2013-07-09T09:12:21.28Z</time>
      </trkpt>
      <trkpt lat="42.344549" lon="2.409418">
        <ele>1059.60</ele>
        <time>2013-07-09T10:58:24.24Z</time>
      </trkpt>
      <trkpt lat="42.344441" lon="2.409413">
        <ele>1060.80</ele>
        <time>2013-07-09T14:20:17.48Z</time>
      </trkpt>
      <trkpt lat="42.344333" lon="2.409408">
        <ele>1062.20</ele>
        <time>2013-07-09T17:42:10.72Z</time>
      </trkpt>
      <trkpt lat="42.344304" lon="2.409406">
        <ele>1062.40</ele>
        <time>2013-07-09T18:36:25.66Z</time>
      </trkpt>
      <trkpt lat="42.344208" lon="2.409380">
        <ele>1063.60</ele>
        <time>2013-07-09T21:39:20.17Z</time>
      </trkpt>
      <trkpt lat="42.344153" lon="2.409344">
        <ele>1064.40</ele>
        <time>2013-07-09T23:33:28.91Z</time>
      </trkpt>
      <trkpt lat="42.344129" lon="2.409327">
        <ele>1064.80</ele>
        <time>2013-07-10T00:24:05.55Z</time>
      </trkpt>
      <trkpt lat="42.344066" lon="2.409242">
        <ele>1066.00</ele>
        <time>2013-07-10T03:10:18.73Z</time>
      </trkpt>
      <trkpt lat="42.344052" lon="2.409204">
        <ele>1066.40</ele>
        <time>2013-07-10T04:08:56.48Z</time>
      </trkpt>
      <trkpt lat="42.344004" lon="2.409076">
        <ele>1067.20</ele>
        <time>2013-07-10T07:27:08.17Z</time>
      </trkpt>
      <trkpt lat="42.343995" lon="2.408978">
        <ele>1067.80</ele>
        <time>2013-07-10T09:43:29.93Z</time>
      </trkpt>
      <trkpt lat="42.343977" lon="2.408929">
        <ele>1068.00</ele>
        <time>2013-07-10T10:59:03.36Z</time>
      </trkpt>
      <trkpt lat="42.343922" lon="2.408872">
        <ele>1068.60</ele>
        <time>2013-07-10T13:08:29.38Z</time>
      </trkpt>
      <trkpt lat="42.343815" lon="2.408932">
        <ele>1069.20</ele>
        <time>2013-07-10T16:44:52.77Z</time>
      </trkpt>
      <trkpt lat="42.343783" lon="2.408969">
        <ele>1069.40</ele>
        <time>2013-07-10T18:03:31.22Z</time>
      </trkpt>
      <trkpt lat="42.343741" lon="2.408998">
        <ele>1070.00</ele>
        <time>2013-07-10T19:31:36.82Z</time>
      </trkpt>
      <trkpt lat="42.343604" lon="2.409059">
        <ele>1070.40</ele>
        <time>2013-07-11T00:01:03.93Z</time>
      </trkpt>
      <trkpt lat="42.343554" lon="2.409055">
        <ele>1070.60</ele>
        <time>2013-07-11T01:34:38.42Z</time>
      </trkpt>
      <trkpt lat="42.343419" lon="2.409008">
        <ele>1070.60</ele>
        <time>2013-07-11T05:55:04.09Z</time>
      </trkpt>
      <trkpt lat="42.343283" lon="2.408890">
        <ele>1070.80</ele>
        <time>2013-07-11T10:56:54.36Z</time>
      </trkpt>
      <trkpt lat="42.343155" lon="2.408794">
        <ele>1070.80</ele>
        <time>2013-07-11T15:30:19.48Z</time>
      </trkpt>
      <trkpt lat="42.343116" lon="2.408781">
        <ele>1071.00</ele>
        <time>2013-07-11T16:45:21.87Z</time>
      </trkpt>
      <trkpt lat="42.342978" lon="2.408766">
        <ele>1072.00</ele>
        <time>2013-07-11T21:04:00.69Z</time>
      </trkpt>
      <trkpt lat="42.342930" lon="2.408770">
        <ele>1072.20</ele>
        <time>2013-07-11T22:33:51.39Z</time>
      </trkpt>
      <trkpt lat="42.342770" lon="2.408794">
        <ele>1073.20</ele>
        <time>2013-07-12T03:34:36.33Z</time>
      </trkpt>
      <trkpt lat="42.342687" lon="2.408807">
        <ele>1074.40</ele>
        <time>2013-07-12T06:10:42.27Z</time>
      </trkpt>
      <trkpt lat="42.342591" lon="2.408839">
        <ele>1075.40</ele>
        <time>2013-07-12T09:15:25.09Z</time>
      </trkpt>
      <trkpt lat="42.342561" lon="2.408854">
        <ele>1076.00</ele>
        <time>2013-07-12T10:15:10.20Z</time>
      </trkpt>
      <trkpt lat="42.342473" lon="2.408907">
        <ele>1077.20</ele>
        <time>2013-07-12T13:15:07.71Z</time>
      </trkpt>
      <trkpt lat="42.342423" lon="2.408952">
        <ele>1077.80</ele>
        <time>2013-07-12T15:07:19.23Z</time>
      </trkpt>
      <trkpt lat="42.342394" lon="2.408963">
        <ele>1078.20</ele>
        <time>2013-07-12T16:03:35.29Z</time>
      </trkpt>
      <trkpt lat="42.342325" lon="2.408957">
        <ele>1078.80</ele>
        <time>2013-07-12T18:12:45.74Z</time>
      </trkpt>
      <trkpt lat="42.342301" lon="2.408930">
        <ele>1079.20</ele>
        <time>2013-07-12T19:11:04.56Z</time>
      </trkpt>
      <trkpt lat="42.342284" lon="2.408895">
        <ele>1079.20</ele>
        <time>2013-07-12T20:08:54.48Z</time>
      </trkpt>
      <trkpt lat="42.342291" lon="2.408767">
        <ele>1079.80</ele>
        <time>2013-07-12T23:06:08.59Z</time>
      </trkpt>
      <trkpt lat="42.342313" lon="2.408700">
        <ele>1080.40</ele>
        <time>2013-07-13T00:47:22.83Z</time>
      </trkpt>
      <trkpt lat="42.342324" lon="2.408635">
        <ele>1081.20</ele>
        <time>2013-07-13T02:19:27.59Z</time>
      </trkpt>
      <trkpt lat="42.342321" lon="2.408601">
        <ele>1081.80</ele>
        <time>2013-07-13T03:06:44.58Z</time>
      </trkpt>
      <trkpt lat="42.342314" lon="2.408534">
        <ele>1083.00</ele>
        <time>2013-07-13T04:40:10.88Z</time>
      </trkpt>
      <trkpt lat="42.342272" lon="2.408442">
        <ele>1084.20</ele>
        <time>2013-07-13T07:09:30.02Z</time>
      </trkpt>
      <trkpt lat="42.342249" lon="2.408412">
        <ele>1084.60</ele>
        <time>2013-07-13T08:09:11.22Z</time>
      </trkpt>
      <trkpt lat="42.342197" lon="2.408365">
        <ele>1085.40</ele>
        <time>2013-07-13T10:06:01.20Z</time>
      </trkpt>
      <trkpt lat="42.342135" lon="2.408286">
        <ele>1086.40</ele>
        <time>2013-07-13T12:45:08.02Z</time>
      </trkpt>
      <trkpt lat="42.342117" lon="2.408254">
        <ele>1086.60</ele>
        <time>2013-07-13T13:40:39.75Z</time>
      </trkpt>
      <trkpt lat="42.342100" lon="2.408094">
        <ele>1087.60</ele>
        <time>2013-07-13T17:23:52.45Z</time>
      </trkpt>
      <trkpt lat="42.342109" lon="2.408068">
        <ele>1087.80</ele>
        <time>2013-07-13T18:03:31.15Z</time>
      </trkpt>
      <trkpt lat="42.342174" lon="2.407957">
        <ele>1089.00</ele>
        <time>2013-07-13T21:19:04.26Z</time>
      </trkpt>
      <trkpt lat="42.342242" lon="2.407873">
        <ele>1090.20</ele>
        <time>2013-07-14T00:11:05.94Z</time>
      </trkpt>
      <trkpt lat="42.342258" lon="2.407843">
        <ele>1090.60</ele>
        <time>2013-07-14T01:02:11.03Z</time>
      </trkpt>
      <trkpt lat="42.342304" lon="2.407719">
        <ele>1091.40</ele>
        <time>2013-07-14T04:13:46.11Z</time>
      </trkpt>
      <trkpt lat="42.342339" lon="2.407590">
        <ele>1092.20</ele>
        <time>2013-07-14T07:23:31.40Z</time>
      </trkpt>
      <trkpt lat="42.342351" lon="2.407549">
        <ele>1092.40</ele>
        <time>2013-07-14T08:24:24.98Z</time>
      </trkpt>
      <trkpt lat="42.342393" lon="2.407382">
        <ele>1093.80</ele>
        <time>2013-07-14T12:28:00.36Z</time>
      </trkpt>
      <trkpt lat="42.342415" lon="2.407261">
        <ele>1094.60</ele>
        <time>2013-07-14T15:20:04.35Z</time>
      </trkpt>
      <trkpt lat="42.342426" lon="2.407224">
        <ele>1095.00</ele>
        <time>2013-07-14T16:15:08.58Z</time>
      </trkpt>
      <trkpt lat="42.342494" lon="2.407084">
        <ele>1096.40</ele>
        <time>2013-07-14T20:06:28.24Z</time>
      </trkpt>
      <trkpt lat="42.342528" lon="2.407007">
        <ele>1096.80</ele>
        <time>2013-07-14T22:10:19.58Z</time>
      </trkpt>
      <trkpt lat="42.342579" lon="2.406892">
        <ele>1097.60</ele>
        <time>2013-07-15T01:15:31.04Z</time>
      </trkpt>
      <trkpt lat="42.342610" lon="2.406769">
        <ele>1098.20</ele>
        <time>2013-07-15T04:14:58Z</time>
      </trkpt>
      <trkpt lat="42.342635" lon="2.406691">
        <ele>1098.80</ele>
        <time>2013-07-15T06:12:21.91Z</time>
      </trkpt>
      <trkpt lat="42.342659" lon="2.406670">
        <ele>1099.00</ele>
        <time>2013-07-15T07:05:45.77Z</time>
      </trkpt>
      <trkpt lat="42.342693" lon="2.406673">
        <ele>1099.20</ele>
        <time>2013-07-15T08:09:25.06Z</time>
      </trkpt>
      <trkpt lat="42.342711" lon="2.406748">
        <ele>1099.60</ele>
        <time>2013-07-15T09:58:18.33Z</time>
      </trkpt>
      <trkpt lat="42.342704" lon="2.406792">
        <ele>1099.80</ele>
        <time>2013-07-15T11:00:27.30Z</time>
      </trkpt>
      <trkpt lat="42.342667" lon="2.406914">
        <ele>1100.60</ele>
        <time>2013-07-15T14:02:33.06Z</time>
      </trkpt>
      <trkpt lat="42.342655" lon="2.406956">
        <ele>1101.00</ele>
        <time>2013-07-15T15:04:43.78Z</time>
      </trkpt>
      <trkpt lat="42.342608" lon="2.407125">
        <ele>1102.00</ele>
        <time>2013-07-15T19:14:04.13Z</time>
      </trkpt>
      <trkpt lat="42.342594" lon="2.407269">
        <ele>1102.80</ele>
        <time>2013-07-15T22:34:37.60Z</time>
      </trkpt>
      <trkpt lat="42.342595" lon="2.407369">
        <ele>1103.20</ele>
        <time>2013-07-16T00:52:43.57Z</time>
      </trkpt>
      <trkpt lat="42.342632" lon="2.407508">
        <ele>1104.20</ele>
        <time>2013-07-16T04:16:44.07Z</time>
      </trkpt>
      <trkpt lat="42.342652" lon="2.407545">
        <ele>1104.60</ele>
        <time>2013-07-16T05:20:01.90Z</time>
      </trkpt>
      <trkpt lat="42.342707" lon="2.407598">
        <ele>1105.40</ele>
        <time>2013-07-16T07:26:11.02Z</time>
      </trkpt>
      <trkpt lat="42.342738" lon="2.407600">
        <ele>1106.00</ele>
        <time>2013-07-16T08:24:09.88Z</time>
      </trkpt>
      <trkpt lat="42.342772" lon="2.407583">
        <ele>1106.20</ele>
        <time>2013-07-16T09:31:53.01Z</time>
      </trkpt>
      <trkpt lat="42.342797" lon="2.407551">
        <ele>1106.80</ele>
        <time>2013-07-16T10:36:10.78Z</time>
      </trkpt>
      <trkpt lat="42.342830" lon="2.407469">
        <ele>1107.40</ele>
        <time>2013-07-16T12:45:06.39Z</time>
      </trkpt>
      <trkpt lat="42.342854" lon="2.407385">
        <ele>1108.00</ele>
        <time>2013-07-16T14:49:27.81Z</time>
      </trkpt>
      <trkpt lat="42.342903" lon="2.407276">
        <ele>1109.00</ele>
        <time>2013-07-16T17:45:37.81Z</time>
      </trkpt>
      <trkpt lat="42.342943" lon="2.407199">
        <ele>1109.60</ele>
        <time>2013-07-16T19:55:35.44Z</time>
      </trkpt>
      <trkpt lat="42.342974" lon="2.407117">
        <ele>1110.20</ele>
        <time>2013-07-16T22:02:46.38Z</time>
      </trkpt>
      <trkpt lat="42.343011" lon="2.406957">
        <ele>1111.40</ele>
        <time>2013-07-17T01:54:16.30Z</time>
      </trkpt>
      <trkpt lat="42.343018" lon="2.406918">
        <ele>1112.20</ele>
        <time>2013-07-17T02:49:41.42Z</time>
      </trkpt>
      <trkpt lat="42.343033" lon="2.406833">
        <ele>1112.80</ele>
        <time>2013-07-17T04:50:21.74Z</time>
      </trkpt>
      <trkpt lat="42.343054" lon="2.406660">
        <ele>1113.80</ele>
        <time>2013-07-17T08:52:27.06Z</time>
      </trkpt>
      <trkpt lat="42.343050" lon="2.406615">
        <ele>1114.20</ele>
        <time>2013-07-17T09:55:02.25Z</time>
      </trkpt>
      <trkpt lat="42.343042" lon="2.406481">
        <ele>1115.00</ele>
        <time>2013-07-17T13:00:40.51Z</time>
      </trkpt>
      <trkpt lat="42.343055" lon="2.406323">
        <ele>1116.00</ele>
        <time>2013-07-17T16:40:11.90Z</time>
      </trkpt>
      <trkpt lat="42.343083" lon="2.406319">
        <ele>1116.40</ele>
        <time>2013-07-17T17:32:47.98Z</time>
      </trkpt>
      <trkpt lat="42.343137" lon="2.406434">
        <ele>1117.20</ele>
        <time>2013-07-17T20:40:56.07Z</time>
      </trkpt>
      <trkpt lat="42.343142" lon="2.406486">
        <ele>1117.40</ele>
        <time>2013-07-17T21:53:20.64Z</time>
      </trkpt>
      <trkpt lat="42.343160" lon="2.406703">
        <ele>1118.20</ele>
        <time>2013-07-18T02:54:52.26Z</time>
      </trkpt>
      <trkpt lat="42.343167" lon="2.406758">
        <ele>1118.60</ele>
        <time>2013-07-18T04:11:56.14Z</time>
      </trkpt>
      <trkpt lat="42.343198" lon="2.406861">
        <ele>1119.20</ele>
        <time>2013-07-18T06:45:30.20Z</time>
      </trkpt>
      <trkpt lat="42.343284" lon="2.406997">
        <ele>1120.00</ele>
        <time>2013-07-18T10:52:39.02Z</time>
      </trkpt>
      <trkpt lat="42.343323" lon="2.407037">
        <ele>1120.20</ele>
        <time>2013-07-18T12:24:04.85Z</time>
      </trkpt>
      <trkpt lat="42.343502" lon="2.407131">
        <ele>1121.00</ele>
        <time>2013-07-18T18:22:48.10Z</time>
      </trkpt>
      <trkpt lat="42.343549" lon="2.407133">
        <ele>1121.20</ele>
        <time>2013-07-18T19:50:39.13Z</time>
      </trkpt>
      <trkpt lat="42.343643" lon="2.407121">
        <ele>1121.80</ele>
        <time>2013-07-18T22:47:02.76Z</time>
      </trkpt>
      <trkpt lat="42.343736" lon="2.407098">
        <ele>1122.40</ele>
        <time>2013-07-19T01:43:40.24Z</time>
      </trkpt>
      <trkpt lat="42.343953" lon="2.407007">
        <ele>1123.40</ele>
        <time>2013-07-19T08:48:06.27Z</time>
      </trkpt>
      <trkpt lat="42.344036" lon="2.406960">
        <ele>1124.00</ele>
        <time>2013-07-19T11:36:12.09Z</time>
      </trkpt>
      <trkpt lat="42.344122" lon="2.406920">
        <ele>1124.80</ele>
        <time>2013-07-19T14:26:05.90Z</time>
      </trkpt>
      <trkpt lat="42.344336" lon="2.406845">
        <ele>1125.80</ele>
        <time>2013-07-19T21:19:05.74Z</time>
      </trkpt>
      <trkpt lat="42.344379" lon="2.406836">
        <ele>1126.00</ele>
        <time>2013-07-19T22:40:23.12Z</time>
      </trkpt>
      <trkpt lat="42.344557" lon="2.406802">
        <ele>1127.00</ele>
        <time>2013-07-20T04:16:13.71Z</time>
      </trkpt>
      <trkpt lat="42.344687" lon="2.406791">
        <ele>1128.00</ele>
        <time>2013-07-20T08:19:34.40Z</time>
      </trkpt>
      <trkpt lat="42.344729" lon="2.406787">
        <ele>1128.40</ele>
        <time>2013-07-20T09:38:14Z</time>
      </trkpt>
      <trkpt lat="42.344948" lon="2.406775">
        <ele>1129.40</ele>
        <time>2013-07-20T16:27:42.71Z</time>
      </trkpt>
      <trkpt lat="42.345037" lon="2.406773">
        <ele>1129.80</ele>
        <time>2013-07-20T19:14:00.45Z</time>
      </trkpt>
      <trkpt lat="42.345161" lon="2.406764">
        <ele>1130.80</ele>
        <time>2013-07-20T23:06:00.09Z</time>
      </trkpt>
      <trkpt lat="42.345337" lon="2.406758">
        <ele>1131.80</ele>
        <time>2013-07-21T04:34:54.90Z</time>
      </trkpt>
      <trkpt lat="42.345382" lon="2.406745">
        <ele>1132.20</ele>
        <time>2013-07-21T06:00:52.83Z</time>
      </trkpt>
      <trkpt lat="42.345601" lon="2.406703">
        <ele>1133.40</ele>
        <time>2013-07-21T12:54:06.80Z</time>
      </trkpt>
      <trkpt lat="42.345763" lon="2.406653">
        <ele>1134.40</ele>
        <time>2013-07-21T18:04:32.51Z</time>
      </trkpt>
      <trkpt lat="42.345887" lon="2.406601">
        <ele>1135.20</ele>
        <time>2013-07-21T22:07:04.49Z</time>
      </trkpt>
      <trkpt lat="42.345929" lon="2.406583">
        <ele>1135.40</ele>
        <time>2013-07-21T23:29:22.98Z</time>
      </trkpt>
      <trkpt lat="42.346145" lon="2.406468">
        <ele>1136.60</ele>
        <time>2013-07-22T06:43:02.36Z</time>
      </trkpt>
      <trkpt lat="42.346229" lon="2.406429">
        <ele>1137.40</ele>
        <time>2013-07-22T09:28:57.20Z</time>
      </trkpt>
      <trkpt lat="42.346272" lon="2.406413">
        <ele>1137.60</ele>
        <time>2013-07-22T10:52:16.19Z</time>
      </trkpt>
      <trkpt lat="42.346313" lon="2.406390">
        <ele>1138.00</ele>
        <time>2013-07-22T12:15:11.40Z</time>
      </trkpt>
      <trkpt lat="42.346434" lon="2.406327">
        <ele>1138.80</ele>
        <time>2013-07-22T16:17:24.37Z</time>
      </trkpt>
      <trkpt lat="42.346473" lon="2.406307">
        <ele>1139.00</ele>
        <time>2013-07-22T17:35:19.50Z</time>
      </trkpt>
      <trkpt lat="42.346641" lon="2.406238">
        <ele>1140.00</ele>
        <time>2013-07-22T23:03:19.80Z</time>
      </trkpt>
      <trkpt lat="42.346773" lon="2.406203">
        <ele>1140.60</ele>
        <time>2013-07-23T03:14:37.65Z</time>
      </trkpt>
      <trkpt lat="42.346865" lon="2.406189">
        <ele>1141.20</ele>
        <time>2013-07-23T06:07:35.32Z</time>
      </trkpt>
      <trkpt lat="42.347039" lon="2.406184">
        <ele>1142.40</ele>
        <time>2013-07-23T11:32:44.07Z</time>
      </trkpt>
      <trkpt lat="42.347085" lon="2.406187">
        <ele>1142.60</ele>
        <time>2013-07-23T12:58:46.38Z</time>
      </trkpt>
      <trkpt lat="42.347221" lon="2.406193">
        <ele>1143.40</ele>
        <time>2013-07-23T17:12:59.27Z</time>
      </trkpt>
      <trkpt lat="42.347400" lon="2.406200">
        <ele>1144.60</ele>
        <time>2013-07-23T22:47:32.48Z</time>
      </trkpt>
      <trkpt lat="42.347443" lon="2.406199">
        <ele>1144.80</ele>
        <time>2013-07-24T00:07:53.23Z</time>
      </trkpt>
      <trkpt lat="42.347616" lon="2.406200">
        <ele>1145.80</ele>
        <time>2013-07-24T05:31:05.67Z</time>
      </trkpt>
      <trkpt lat="42.347800" lon="2.406205">
        <ele>1146.80</ele>
        <time>2013-07-24T11:14:55.13Z</time>
      </trkpt>
      <trkpt lat="42.347846" lon="2.406198">
        <ele>1147.20</ele>
        <time>2013-07-24T12:41:23.96Z</time>
      </trkpt>
      <trkpt lat="42.347986" lon="2.406210">
        <ele>1148.00</ele>
        <time>2013-07-24T17:03:28.58Z</time>
      </trkpt>
      <trkpt lat="42.348031" lon="2.406211">
        <ele>1148.40</ele>
        <time>2013-07-24T18:27:33.49Z</time>
      </trkpt>
      <trkpt lat="42.348264" lon="2.406252">
        <ele>1149.40</ele>
        <time>2013-07-25T01:46:31.33Z</time>
      </trkpt>
      <trkpt lat="42.348352" lon="2.406275">
        <ele>1150.00</ele>
        <time>2013-07-25T04:33:57.95Z</time>
      </trkpt>
      <trkpt lat="42.348395" lon="2.406294">
        <ele>1150.40</ele>
        <time>2013-07-25T05:58:28.50Z</time>
      </trkpt>
      <trkpt lat="42.348563" lon="2.406378">
        <ele>1151.60</ele>
        <time>2013-07-25T11:33:04.93Z</time>
      </trkpt>
      <trkpt lat="42.348643" lon="2.406426">
        <ele>1152.20</ele>
        <time>2013-07-25T14:16:34.57Z</time>
      </trkpt>
      <trkpt lat="42.348724" lon="2.406471">
        <ele>1152.60</ele>
        <time>2013-07-25T17:00:09.73Z</time>
      </trkpt>
      <trkpt lat="42.348888" lon="2.406550">
        <ele>1153.80</ele>
        <time>2013-07-25T22:25:23.38Z</time>
      </trkpt>
      <trkpt lat="42.348927" lon="2.406576">
        <ele>1154.00</ele>
        <time>2013-07-25T23:46:36.87Z</time>
      </trkpt>
      <trkpt lat="42.349053" lon="2.406627">
        <ele>1154.80</ele>
        <time>2013-07-26T03:52:19.12Z</time>
      </trkpt>
      <trkpt lat="42.349097" lon="2.406606">
        <ele>1155.20</ele>
        <time>2013-07-26T05:19:29.09Z</time>
      </trkpt>
      <trkpt lat="42.349140" lon="2.406577">
        <ele>1155.40</ele>
        <time>2013-07-26T06:49:14.69Z</time>
      </trkpt>
      <trkpt lat="42.349211" lon="2.406408">
        <ele>1156.40</ele>
        <time>2013-07-26T11:17:39.21Z</time>
      </trkpt>
      <trkpt lat="42.349159" lon="2.406220">
        <ele>1157.20</ele>
        <time>2013-07-26T15:54:48.79Z</time>
      </trkpt>
      <trkpt lat="42.349046" lon="2.406092">
        <ele>1157.80</ele>
        <time>2013-07-26T20:30:08.10Z</time>
      </trkpt>
      <trkpt lat="42.349002" lon="2.406062">
        <ele>1158.00</ele>
        <time>2013-07-26T22:02:11.02Z</time>
      </trkpt>
      <trkpt lat="42.348853" lon="2.406013">
        <ele>1158.60</ele>
        <time>2013-07-27T02:48:39.26Z</time>
      </trkpt>
      <trkpt lat="42.348803" lon="2.405998">
        <ele>1158.80</ele>
        <time>2013-07-27T04:24:20.06Z</time>
      </trkpt>
      <trkpt lat="42.348752" lon="2.405984">
        <ele>1159.00</ele>
        <time>2013-07-27T06:01:33.32Z</time>
      </trkpt>
      <trkpt lat="42.348703" lon="2.405977">
        <ele>1159.20</ele>
        <time>2013-07-27T07:33:36.46Z</time>
      </trkpt>
      <trkpt lat="42.348508" lon="2.405915">
        <ele>1159.60</ele>
        <time>2013-07-27T13:47:50.16Z</time>
      </trkpt>
      <trkpt lat="42.348459" lon="2.405894">
        <ele>1159.80</ele>
        <time>2013-07-27T15:23:51.70Z</time>
      </trkpt>
      <trkpt lat="42.348299" lon="2.405786">
        <ele>1161.00</ele>
        <time>2013-07-27T20:57:54.61Z</time>
      </trkpt>
      <trkpt lat="42.348262" lon="2.405749">
        <ele>1161.20</ele>
        <time>2013-07-27T22:23:51.87Z</time>
      </trkpt>
      <trkpt lat="42.348226" lon="2.405712">
        <ele>1161.40</ele>
        <time>2013-07-27T23:48:19.42Z</time>
      </trkpt>
      <trkpt lat="42.348154" lon="2.405634">
        <ele>1162.00</ele>
        <time>2013-07-28T02:40:38.35Z</time>
      </trkpt>
      <trkpt lat="42.347986" lon="2.405486">
        <ele>1162.80</ele>
        <time>2013-07-28T08:55:09.88Z</time>
      </trkpt>
      <trkpt lat="42.347908" lon="2.405407">
        <ele>1163.20</ele>
        <time>2013-07-28T11:57:11.40Z</time>
      </trkpt>
      <trkpt lat="42.347757" lon="2.405266">
        <ele>1164.00</ele>
        <time>2013-07-28T17:39:57.05Z</time>
      </trkpt>
      <trkpt lat="42.347718" lon="2.405236">
        <ele>1164.20</ele>
        <time>2013-07-28T19:03:45.82Z</time>
      </trkpt>
      <trkpt lat="42.347678" lon="2.405206">
        <ele>1164.20</ele>
        <time>2013-07-28T20:29:12.33Z</time>
      </trkpt>
      <trkpt lat="42.347636" lon="2.405181">
        <ele>1164.40</ele>
        <time>2013-07-28T21:54:55.71Z</time>
      </trkpt>
      <trkpt lat="42.347455" lon="2.405094">
        <ele>1165.40</ele>
        <time>2013-07-29T03:53:46.92Z</time>
      </trkpt>
      <trkpt lat="42.347408" lon="2.405080">
        <ele>1165.60</ele>
        <time>2013-07-29T05:23:41.50Z</time>
      </trkpt>
      <trkpt lat="42.347271" lon="2.405030">
        <ele>1166.60</ele>
        <time>2013-07-29T09:48:47.23Z</time>
      </trkpt>
      <trkpt lat="42.347139" lon="2.404988">
        <ele>1167.40</ele>
        <time>2013-07-29T14:02:07.26Z</time>
      </trkpt>
      <trkpt lat="42.347096" lon="2.404976">
        <ele>1167.60</ele>
        <time>2013-07-29T15:24:08.76Z</time>
      </trkpt>
      <trkpt lat="42.346916" lon="2.404934">
        <ele>1168.80</ele>
        <time>2013-07-29T21:05:23.51Z</time>
      </trkpt>
      <trkpt lat="42.346783" lon="2.404927">
        <ele>1169.40</ele>
        <time>2013-07-30T01:14:03.29Z</time>
      </trkpt>
      <trkpt lat="42.346739" lon="2.404923">
        <ele>1169.60</ele>
        <time>2013-07-30T02:36:26.54Z</time>
      </trkpt>
      <trkpt lat="42.346691" lon="2.404920">
        <ele>1169.80</ele>
        <time>2013-07-30T04:06:12.79Z</time>
      </trkpt>
      <trkpt lat="42.346451" lon="2.404917">
        <ele>1171.00</ele>
        <time>2013-07-30T11:34:36.50Z</time>
      </trkpt>
      <trkpt lat="42.346364" lon="2.404904">
        <ele>1171.60</ele>
        <time>2013-07-30T14:18:07.97Z</time>
      </trkpt>
      <trkpt lat="42.346320" lon="2.404892">
        <ele>1171.80</ele>
        <time>2013-07-30T15:41:59.31Z</time>
      </trkpt>
      <trkpt lat="42.346277" lon="2.404871">
        <ele>1172.20</ele>
        <time>2013-07-30T17:07:23.73Z</time>
      </trkpt>
      <trkpt lat="42.346203" lon="2.404796">
        <ele>1172.60</ele>
        <time>2013-07-30T20:00:07.83Z</time>
      </trkpt>
      <trkpt lat="42.346166" lon="2.404689">
        <ele>1173.20</ele>
        <time>2013-07-30T22:43:14.75Z</time>
      </trkpt>
      <trkpt lat="42.346163" lon="2.404633">
        <ele>1174.20</ele>
        <time>2013-07-31T00:00:46.38Z</time>
      </trkpt>
      <trkpt lat="42.346177" lon="2.404579">
        <ele>1174.40</ele>
        <time>2013-07-31T01:19:47.40Z</time>
      </trkpt>
      <trkpt lat="42.346234" lon="2.404496">
        <ele>1174.80</ele>
        <time>2013-07-31T03:56:13.97Z</time>
      </trkpt>
      <trkpt lat="42.346427" lon="2.404437">
        <ele>1175.20</ele>
        <time>2013-07-31T10:05:53.44Z</time>
      </trkpt>
      <trkpt lat="42.346484" lon="2.404435">
        <ele>1175.20</ele>
        <time>2013-07-31T11:52:24.94Z</time>
      </trkpt>
      <trkpt lat="42.346669" lon="2.404420">
        <ele>1175.00</ele>
        <time>2013-07-31T17:38:39.54Z</time>
      </trkpt>
      <trkpt lat="42.346736" lon="2.404405">
        <ele>1174.60</ele>
        <time>2013-07-31T19:45:31.95Z</time>
      </trkpt>
      <trkpt lat="42.346814" lon="2.404397">
        <ele>1174.20</ele>
        <time>2013-07-31T22:11:40.37Z</time>
      </trkpt>
      <trkpt lat="42.346894" lon="2.404400">
        <ele>1174.00</ele>
        <time>2013-08-01T00:41:11.33Z</time>
      </trkpt>
      <trkpt lat="42.347054" lon="2.404415">
        <ele>1173.60</ele>
        <time>2013-08-01T05:40:49.38Z</time>
      </trkpt>
      <trkpt lat="42.347477" lon="2.404426">
        <ele>1174.20</ele>
        <time>2013-08-01T18:51:13.90Z</time>
      </trkpt>
      <trkpt lat="42.347785" lon="2.404450">
        <ele>1175.60</ele>
        <time>2013-08-02T04:27:36.06Z</time>
      </trkpt>
      <trkpt lat="42.347843" lon="2.404448">
        <ele>1175.80</ele>
        <time>2013-08-02T06:15:59.62Z</time>
      </trkpt>
      <trkpt lat="42.348021" lon="2.404418">
        <ele>1177.00</ele>
        <time>2013-08-02T11:51:06.55Z</time>
      </trkpt>
      <trkpt lat="42.348187" lon="2.404389">
        <ele>1178.00</ele>
        <time>2013-08-02T17:03:48.61Z</time>
      </trkpt>
      <trkpt lat="42.348291" lon="2.404333">
        <ele>1179.00</ele>
        <time>2013-08-02T20:32:55.60Z</time>
      </trkpt>
      <trkpt lat="42.348327" lon="2.404297">
        <ele>1179.40</ele>
        <time>2013-08-02T21:56:33.47Z</time>
      </trkpt>
      <trkpt lat="42.348390" lon="2.404248">
        <ele>1180.20</ele>
        <time>2013-08-03T00:12:18.98Z</time>
      </trkpt>
      <trkpt lat="42.348412" lon="2.404268">
        <ele>1180.60</ele>
        <time>2013-08-03T01:01:49.97Z</time>
      </trkpt>
      <trkpt lat="42.348432" lon="2.404282">
        <ele>1181.20</ele>
        <time>2013-08-03T01:43:54.10Z</time>
      </trkpt>
      <trkpt lat="42.348447" lon="2.404301">
        <ele>1181.60</ele>
        <time>2013-08-03T02:22:17.30Z</time>
      </trkpt>
      <trkpt lat="42.348556" lon="2.404336">
        <ele>1182.80</ele>
        <time>2013-08-03T05:51:34.89Z</time>
      </trkpt>
      <trkpt lat="42.348634" lon="2.404327">
        <ele>1184.00</ele>
        <time>2013-08-03T08:17:49.95Z</time>
      </trkpt>
      <trkpt lat="42.348739" lon="2.404331">
        <ele>1185.40</ele>
        <time>2013-08-03T11:34:04.49Z</time>
      </trkpt>
      <trkpt lat="42.348821" lon="2.404339">
        <ele>1186.80</ele>
        <time>2013-08-03T14:07:40.06Z</time>
      </trkpt>
      <trkpt lat="42.348880" lon="2.404295">
        <ele>1188.20</ele>
        <time>2013-08-03T16:13:31.61Z</time>
      </trkpt>
      <trkpt lat="42.348930" lon="2.404270">
        <ele>1189.00</ele>
        <time>2013-08-03T17:53:06.74Z</time>
      </trkpt>
      <trkpt lat="42.348958" lon="2.404274">
        <ele>1189.40</ele>
        <time>2013-08-03T18:45:42.81Z</time>
      </trkpt>
      <trkpt lat="42.348979" lon="2.404296">
        <ele>1189.80</ele>
        <time>2013-08-03T19:35:19.88Z</time>
      </trkpt>
      <trkpt lat="42.349013" lon="2.404340">
        <ele>1190.40</ele>
        <time>2013-08-03T21:03:13.60Z</time>
      </trkpt>
      <trkpt lat="42.349049" lon="2.404370">
        <ele>1191.20</ele>
        <time>2013-08-03T22:22:12.91Z</time>
      </trkpt>
      <trkpt lat="42.349068" lon="2.404382">
        <ele>1191.60</ele>
        <time>2013-08-03T23:01:23.29Z</time>
      </trkpt>
      <trkpt lat="42.349175" lon="2.404432">
        <ele>1192.60</ele>
        <time>2013-08-04T02:32:52.46Z</time>
      </trkpt>
      <trkpt lat="42.349236" lon="2.404439">
        <ele>1193.20</ele>
        <time>2013-08-04T04:27:14.74Z</time>
      </trkpt>
      <trkpt lat="42.349295" lon="2.404447">
        <ele>1193.80</ele>
        <time>2013-08-04T06:18:01.41Z</time>
      </trkpt>
      <trkpt lat="42.349405" lon="2.404479">
        <ele>1195.00</ele>
        <time>2013-08-04T09:48:13.51Z</time>
      </trkpt>
      <trkpt lat="42.349432" lon="2.404485">
        <ele>1195.20</ele>
        <time>2013-08-04T10:39:20.59Z</time>
      </trkpt>
      <trkpt lat="42.349489" lon="2.404513">
        <ele>1196.00</ele>
        <time>2013-08-04T12:32:37.98Z</time>
      </trkpt>
      <trkpt lat="42.349606" lon="2.404599">
        <ele>1197.20</ele>
        <time>2013-08-04T16:41:23.18Z</time>
      </trkpt>
      <trkpt lat="42.349687" lon="2.404653">
        <ele>1198.20</ele>
        <time>2013-08-04T19:30:05.02Z</time>
      </trkpt>
      <trkpt lat="42.349803" lon="2.404737">
        <ele>1199.60</ele>
        <time>2013-08-04T23:35:52.91Z</time>
      </trkpt>
      <trkpt lat="42.349923" lon="2.404839">
        <ele>1201.00</ele>
        <time>2013-08-05T04:00:38.08Z</time>
      </trkpt>
      <trkpt lat="42.350027" lon="2.404978">
        <ele>1201.80</ele>
        <time>2013-08-05T08:33:44.08Z</time>
      </trkpt>
      <trkpt lat="42.350112" lon="2.405105">
        <ele>1202.20</ele>
        <time>2013-08-05T12:30:18.21Z</time>
      </trkpt>
      <trkpt lat="42.350211" lon="2.405269">
        <ele>1203.40</ele>
        <time>2013-08-05T17:22:40.52Z</time>
      </trkpt>
      <trkpt lat="42.350314" lon="2.405401">
        <ele>1204.00</ele>
        <time>2013-08-05T21:47:42.72Z</time>
      </trkpt>
      <trkpt lat="42.350346" lon="2.405383">
        <ele>1204.20</ele>
        <time>2013-08-05T22:52:27.33Z</time>
      </trkpt>
      <trkpt lat="42.350363" lon="2.405353">
        <ele>1204.40</ele>
        <time>2013-08-05T23:44:39.07Z</time>
      </trkpt>
      <trkpt lat="42.350392" lon="2.405295">
        <ele>1205.20</ele>
        <time>2013-08-06T01:21:20.24Z</time>
      </trkpt>
      <trkpt lat="42.350402" lon="2.405270">
        <ele>1205.60</ele>
        <time>2013-08-06T02:00:35.18Z</time>
      </trkpt>
      <trkpt lat="42.350415" lon="2.405244">
        <ele>1206.00</ele>
        <time>2013-08-06T02:43:55.71Z</time>
      </trkpt>
      <trkpt lat="42.350446" lon="2.405203">
        <ele>1206.80</ele>
        <time>2013-08-06T04:04:54.86Z</time>
      </trkpt>
      <trkpt lat="42.350474" lon="2.405166">
        <ele>1207.80</ele>
        <time>2013-08-06T05:18:01.90Z</time>
      </trkpt>
      <trkpt lat="42.350486" lon="2.405144">
        <ele>1208.20</ele>
        <time>2013-08-06T05:55:47.05Z</time>
      </trkpt>
      <trkpt lat="42.350513" lon="2.405100">
        <ele>1209.20</ele>
        <time>2013-08-06T07:14:44.80Z</time>
      </trkpt>
      <trkpt lat="42.350576" lon="2.405030">
        <ele>1210.40</ele>
        <time>2013-08-06T09:47:02.53Z</time>
      </trkpt>
      <trkpt lat="42.350613" lon="2.404964">
        <ele>1211.60</ele>
        <time>2013-08-06T11:41:25.15Z</time>
      </trkpt>
      <trkpt lat="42.350646" lon="2.404894">
        <ele>1213.00</ele>
        <time>2013-08-06T13:36:03.43Z</time>
      </trkpt>
      <trkpt lat="42.350662" lon="2.404873">
        <ele>1213.40</ele>
        <time>2013-08-06T14:17:42.05Z</time>
      </trkpt>
      <trkpt lat="42.350709" lon="2.404816">
        <ele>1214.20</ele>
        <time>2013-08-06T16:15:36.88Z</time>
      </trkpt>
      <trkpt lat="42.350755" lon="2.404756">
        <ele>1215.20</ele>
        <time>2013-08-06T18:14:58.82Z</time>
      </trkpt>
      <trkpt lat="42.350823" lon="2.404690">
        <ele>1216.40</ele>
        <time>2013-08-06T20:51:19.37Z</time>
      </trkpt>
      <trkpt lat="42.350876" lon="2.404633">
        <ele>1217.00</ele>
        <time>2013-08-06T22:57:48.31Z</time>
      </trkpt>
      <trkpt lat="42.350910" lon="2.404596">
        <ele>1217.60</ele>
        <time>2013-08-07T00:19:19.14Z</time>
      </trkpt>
      <trkpt lat="42.350940" lon="2.404534">
        <ele>1218.60</ele>
        <time>2013-08-07T02:01:38.24Z</time>
      </trkpt>
      <trkpt lat="42.350972" lon="2.404503">
        <ele>1219.20</ele>
        <time>2013-08-07T03:15:09.78Z</time>
      </trkpt>
      <trkpt lat="42.351002" lon="2.404466">
        <ele>1219.80</ele>
        <time>2013-08-07T04:30:59.89Z</time>
      </trkpt>
      <trkpt lat="42.351032" lon="2.404393">
        <ele>1221.00</ele>
        <time>2013-08-07T06:26:19.39Z</time>
      </trkpt>
      <trkpt lat="42.351045" lon="2.404366">
        <ele>1221.40</ele>
        <time>2013-08-07T07:10:48.91Z</time>
      </trkpt>
      <trkpt lat="42.351072" lon="2.404320">
        <ele>1222.00</ele>
        <time>2013-08-07T08:31:55.25Z</time>
      </trkpt>
      <trkpt lat="42.351092" lon="2.404253">
        <ele>1222.60</ele>
        <time>2013-08-07T10:11:41.26Z</time>
      </trkpt>
      <trkpt lat="42.351117" lon="2.404187">
        <ele>1223.20</ele>
        <time>2013-08-07T11:54:05.10Z</time>
      </trkpt>
      <trkpt lat="42.351212" lon="2.404088">
        <ele>1224.20</ele>
        <time>2013-08-07T15:38:06.08Z</time>
      </trkpt>
      <trkpt lat="42.351240" lon="2.404063">
        <ele>1224.40</ele>
        <time>2013-08-07T16:40:46.42Z</time>
      </trkpt>
      <trkpt lat="42.351361" lon="2.403963">
        <ele>1225.20</ele>
        <time>2013-08-07T21:05:39.52Z</time>
      </trkpt>
      <trkpt lat="42.351449" lon="2.403865">
        <ele>1225.80</ele>
        <time>2013-08-08T00:38:34.96Z</time>
      </trkpt>
      <trkpt lat="42.351534" lon="2.403752">
        <ele>1226.40</ele>
        <time>2013-08-08T04:21:11.99Z</time>
      </trkpt>
      <trkpt lat="42.351697" lon="2.403520">
        <ele>1227.20</ele>
        <time>2013-08-08T11:43:10.07Z</time>
      </trkpt>
      <trkpt lat="42.351722" lon="2.403482">
        <ele>1227.40</ele>
        <time>2013-08-08T12:53:24.64Z</time>
      </trkpt>
      <trkpt lat="42.351817" lon="2.403397">
        <ele>1228.40</ele>
        <time>2013-08-08T16:26:11.04Z</time>
      </trkpt>
      <trkpt lat="42.351899" lon="2.403364">
        <ele>1228.80</ele>
        <time>2013-08-08T19:06:00.66Z</time>
      </trkpt>
      <trkpt lat="42.351995" lon="2.403340">
        <ele>1228.80</ele>
        <time>2013-08-08T22:08:23.80Z</time>
      </trkpt>
      <trkpt lat="42.352049" lon="2.403334">
        <ele>1228.60</ele>
        <time>2013-08-08T23:49:37.25Z</time>
      </trkpt>
      <trkpt lat="42.352156" lon="2.403307">
        <ele>1228.00</ele>
        <time>2013-08-09T03:12:58.08Z</time>
      </trkpt>
      <trkpt lat="42.352457" lon="2.403241">
        <ele>1228.20</ele>
        <time>2013-08-09T12:42:38.48Z</time>
      </trkpt>
      <trkpt lat="42.352507" lon="2.403221">
        <ele>1228.20</ele>
        <time>2013-08-09T14:20:02.93Z</time>
      </trkpt>
      <trkpt lat="42.352686" lon="2.403159">
        <ele>1229.60</ele>
        <time>2013-08-09T20:05:14.66Z</time>
      </trkpt>
      <trkpt lat="42.352732" lon="2.403142">
        <ele>1229.80</ele>
        <time>2013-08-09T21:34:19.84Z</time>
      </trkpt>
      <trkpt lat="42.352775" lon="2.403119">
        <ele>1230.20</ele>
        <time>2013-08-09T23:00:42.78Z</time>
      </trkpt>
      <trkpt lat="42.352865" lon="2.403095">
        <ele>1230.80</ele>
        <time>2013-08-10T01:52:05.28Z</time>
      </trkpt>
      <trkpt lat="42.352958" lon="2.403063">
        <ele>1230.80</ele>
        <time>2013-08-10T04:51:21.77Z</time>
      </trkpt>
      <trkpt lat="42.353157" lon="2.403013">
        <ele>1230.60</ele>
        <time>2013-08-10T11:09:29.76Z</time>
      </trkpt>
      <trkpt lat="42.353222" lon="2.403022">
        <ele>1230.40</ele>
        <time>2013-08-10T13:11:33.91Z</time>
      </trkpt>
      <trkpt lat="42.353344" lon="2.403057">
        <ele>1229.60</ele>
        <time>2013-08-10T17:04:33.35Z</time>
      </trkpt>
      <trkpt lat="42.353515" lon="2.403113">
        <ele>1229.80</ele>
        <time>2013-08-10T22:33:14.77Z</time>
      </trkpt>
      <trkpt lat="42.353680" lon="2.403138">
        <ele>1230.40</ele>
        <time>2013-08-11T03:43:25.86Z</time>
      </trkpt>
      <trkpt lat="42.353783" lon="2.403122">
        <ele>1230.20</ele>
        <time>2013-08-11T06:57:07.37Z</time>
      </trkpt>
      <trkpt lat="42.353935" lon="2.403092">
        <ele>1230.80</ele>
        <time>2013-08-11T11:44:05.94Z</time>
      </trkpt>
      <trkpt lat="42.354140" lon="2.403023">
        <ele>1231.40</ele>
        <time>2013-08-11T18:18:45.40Z</time>
      </trkpt>
      <trkpt lat="42.354187" lon="2.402993">
        <ele>1231.60</ele>
        <time>2013-08-11T19:55:50.52Z</time>
      </trkpt>
      <trkpt lat="42.354227" lon="2.402959">
        <ele>1232.20</ele>
        <time>2013-08-11T21:24:05.47Z</time>
      </trkpt>
      <trkpt lat="42.354315" lon="2.402903">
        <ele>1232.40</ele>
        <time>2013-08-12T00:25:46.06Z</time>
      </trkpt>
      <trkpt lat="42.354676" lon="2.402683">
        <ele>1232.80</ele>
        <time>2013-08-12T12:45:26.31Z</time>
      </trkpt>
      <trkpt lat="42.355173" lon="2.402375">
        <ele>1233.20</ele>
        <time>2013-08-13T05:46:41.27Z</time>
      </trkpt>
      <trkpt lat="42.355226" lon="2.402345">
        <ele>1233.20</ele>
        <time>2013-08-13T07:34:01.05Z</time>
      </trkpt>
      <trkpt lat="42.355462" lon="2.402224">
        <ele>1234.20</ele>
        <time>2013-08-13T15:25:30.37Z</time>
      </trkpt>
      <trkpt lat="42.355499" lon="2.402200">
        <ele>1234.40</ele>
        <time>2013-08-13T16:42:09.71Z</time>
      </trkpt>
      <trkpt lat="42.355603" lon="2.402111">
        <ele>1235.40</ele>
        <time>2013-08-13T20:32:03Z</time>
      </trkpt>
      <trkpt lat="42.355640" lon="2.402083">
        <ele>1236.00</ele>
        <time>2013-08-13T21:51:14.96Z</time>
      </trkpt>
      <trkpt lat="42.355715" lon="2.402019">
        <ele>1237.00</ele>
        <time>2013-08-14T00:36:53.95Z</time>
      </trkpt>
      <trkpt lat="42.355864" lon="2.401904">
        <ele>1238.00</ele>
        <time>2013-08-14T05:57:21.58Z</time>
      </trkpt>
      <trkpt lat="42.356028" lon="2.401769">
        <ele>1239.00</ele>
        <time>2013-08-14T11:55:59.06Z</time>
      </trkpt>
      <trkpt lat="42.356067" lon="2.401727">
        <ele>1239.40</ele>
        <time>2013-08-14T13:29:06.12Z</time>
      </trkpt>
      <trkpt lat="42.356211" lon="2.401571">
        <ele>1239.80</ele>
        <time>2013-08-14T19:13:42.94Z</time>
      </trkpt>
      <trkpt lat="42.356246" lon="2.401532">
        <ele>1240.20</ele>
        <time>2013-08-14T20:38:25.12Z</time>
      </trkpt>
      <trkpt lat="42.356281" lon="2.401488">
        <ele>1240.60</ele>
        <time>2013-08-14T22:07:40.12Z</time>
      </trkpt>
      <trkpt lat="42.356358" lon="2.401405">
        <ele>1241.20</ele>
        <time>2013-08-15T01:11:34.93Z</time>
      </trkpt>
      <trkpt lat="42.356507" lon="2.401228">
        <ele>1241.60</ele>
        <time>2013-08-15T07:21:59.22Z</time>
      </trkpt>
      <trkpt lat="42.356728" lon="2.400887">
        <ele>1242.80</ele>
        <time>2013-08-15T17:48:09.72Z</time>
      </trkpt>
      <trkpt lat="42.356754" lon="2.400838">
        <ele>1243.00</ele>
        <time>2013-08-15T19:11:26.53Z</time>
      </trkpt>
      <trkpt lat="42.356893" lon="2.400619">
        <ele>1244.20</ele>
        <time>2013-08-16T01:49:59.87Z</time>
      </trkpt>
      <trkpt lat="42.356920" lon="2.400572">
        <ele>1244.40</ele>
        <time>2013-08-16T03:12:11.06Z</time>
      </trkpt>
      <trkpt lat="42.356941" lon="2.400521">
        <ele>1244.60</ele>
        <time>2013-08-16T04:32:47.13Z</time>
      </trkpt>
      <trkpt lat="42.356995" lon="2.400374">
        <ele>1245.20</ele>
        <time>2013-08-16T08:19:25.15Z</time>
      </trkpt>
      <trkpt lat="42.357011" lon="2.400279">
        <ele>1246.20</ele>
        <time>2013-08-16T10:33:56.09Z</time>
      </trkpt>
      <trkpt lat="42.357028" lon="2.400148">
        <ele>1247.40</ele>
        <time>2013-08-16T13:37:33.28Z</time>
      </trkpt>
      <trkpt lat="42.357035" lon="2.400092">
        <ele>1247.60</ele>
        <time>2013-08-16T14:55:57.83Z</time>
      </trkpt>
      <trkpt lat="42.357090" lon="2.399784">
        <ele>1248.60</ele>
        <time>2013-08-16T22:13:24.75Z</time>
      </trkpt>
      <trkpt lat="42.357104" lon="2.399718">
        <ele>1248.60</ele>
        <time>2013-08-16T23:48:12.51Z</time>
      </trkpt>
      <trkpt lat="42.357250" lon="2.399102">
        <ele>1249.20</ele>
        <time>2013-08-17T14:41:17.90Z</time>
      </trkpt>
      <trkpt lat="42.357400" lon="2.398902">
        <ele>1249.40</ele>
        <time>2013-08-17T21:14:42.22Z</time>
      </trkpt>
      <trkpt lat="42.357424" lon="2.398842">
        <ele>1249.40</ele>
        <time>2013-08-17T22:48:53.59Z</time>
      </trkpt>
      <trkpt lat="42.357471" lon="2.398695">
        <ele>1248.80</ele>
        <time>2013-08-18T02:30:00.86Z</time>
      </trkpt>
      <trkpt lat="42.357608" lon="2.398323">
        <ele>1248.40</ele>
        <time>2013-08-18T12:03:49.27Z</time>
      </trkpt>
      <trkpt lat="42.357648" lon="2.398260">
        <ele>1248.20</ele>
        <time>2013-08-18T13:58:29.39Z</time>
      </trkpt>
      <trkpt lat="42.357775" lon="2.398113">
        <ele>1248.00</ele>
        <time>2013-08-18T19:10:42.39Z</time>
      </trkpt>
      <trkpt lat="42.357811" lon="2.398063">
        <ele>1248.20</ele>
        <time>2013-08-18T20:47:04.88Z</time>
      </trkpt>
      <trkpt lat="42.357861" lon="2.397961">
        <ele>1248.80</ele>
        <time>2013-08-18T23:36:03.71Z</time>
      </trkpt>
      <trkpt lat="42.357887" lon="2.397892">
        <ele>1249.40</ele>
        <time>2013-08-19T01:22:59.31Z</time>
      </trkpt>
      <trkpt lat="42.357902" lon="2.397887">
        <ele>1249.80</ele>
        <time>2013-08-19T01:51:50.97Z</time>
      </trkpt>
      <trkpt lat="42.357929" lon="2.397909">
        <ele>1250.40</ele>
        <time>2013-08-19T02:50:43.78Z</time>
      </trkpt>
      <trkpt lat="42.357943" lon="2.397985">
        <ele>1251.20</ele>
        <time>2013-08-19T04:38:51.66Z</time>
      </trkpt>
      <trkpt lat="42.357947" lon="2.398016">
        <ele>1251.40</ele>
        <time>2013-08-19T05:22:18.30Z</time>
      </trkpt>
      <trkpt lat="42.357952" lon="2.398052">
        <ele>1251.80</ele>
        <time>2013-08-19T06:12:52.46Z</time>
      </trkpt>
      <trkpt lat="42.357961" lon="2.398086">
        <ele>1252.60</ele>
        <time>2013-08-19T07:02:43.99Z</time>
      </trkpt>
      <trkpt lat="42.357986" lon="2.398216">
        <ele>1253.80</ele>
        <time>2013-08-19T10:08:10.80Z</time>
      </trkpt>
      <trkpt lat="42.358012" lon="2.398297">
        <ele>1254.40</ele>
        <time>2013-08-19T12:10:05.84Z</time>
      </trkpt>
      <trkpt lat="42.358034" lon="2.398367">
        <ele>1254.80</ele>
        <time>2013-08-19T13:55:06.70Z</time>
      </trkpt>
      <trkpt lat="42.358078" lon="2.398482">
        <ele>1256.20</ele>
        <time>2013-08-19T16:53:53.49Z</time>
      </trkpt>
      <trkpt lat="42.358090" lon="2.398507">
        <ele>1256.60</ele>
        <time>2013-08-19T17:35:02.81Z</time>
      </trkpt>
      <trkpt lat="42.358125" lon="2.398591">
        <ele>1257.60</ele>
        <time>2013-08-19T19:48:10.55Z</time>
      </trkpt>
      <trkpt lat="42.358167" lon="2.398598">
        <ele>1258.20</ele>
        <time>2013-08-19T21:07:14.07Z</time>
      </trkpt>
      <trkpt lat="42.358187" lon="2.398579">
        <ele>1258.40</ele>
        <time>2013-08-19T21:52:53.21Z</time>
      </trkpt>
      <trkpt lat="42.358192" lon="2.398548">
        <ele>1258.80</ele>
        <time>2013-08-19T22:36:41.44Z</time>
      </trkpt>
      <trkpt lat="42.358187" lon="2.398488">
        <ele>1259.60</ele>
        <time>2013-08-20T00:00:02.84Z</time>
      </trkpt>
      <trkpt lat="42.358182" lon="2.398458">
        <ele>1260.00</ele>
        <time>2013-08-20T00:42:30.21Z</time>
      </trkpt>
      <trkpt lat="42.358169" lon="2.398362">
        <ele>1261.20</ele>
        <time>2013-08-20T02:57:14.46Z</time>
      </trkpt>
      <trkpt lat="42.358163" lon="2.398280">
        <ele>1262.60</ele>
        <time>2013-08-20T04:50:59.86Z</time>
      </trkpt>
      <trkpt lat="42.358161" lon="2.398249">
        <ele>1262.60</ele>
        <time>2013-08-20T05:33:57.41Z</time>
      </trkpt>
      <trkpt lat="42.358169" lon="2.398167">
        <ele>1263.80</ele>
        <time>2013-08-20T07:28:08.54Z</time>
      </trkpt>
      <trkpt lat="42.358182" lon="2.398078">
        <ele>1264.80</ele>
        <time>2013-08-20T09:33:23.20Z</time>
      </trkpt>
      <trkpt lat="42.358163" lon="2.397963">
        <ele>1265.60</ele>
        <time>2013-08-20T12:16:04.02Z</time>
      </trkpt>
      <trkpt lat="42.358159" lon="2.397893">
        <ele>1266.00</ele>
        <time>2013-08-20T13:52:59.54Z</time>
      </trkpt>
      <trkpt lat="42.358164" lon="2.397761">
        <ele>1267.00</ele>
        <time>2013-08-20T16:55:27.67Z</time>
      </trkpt>
      <trkpt lat="42.358164" lon="2.397729">
        <ele>1267.00</ele>
        <time>2013-08-20T17:39:38.28Z</time>
      </trkpt>
      <trkpt lat="42.358166" lon="2.397621">
        <ele>1268.40</ele>
        <time>2013-08-20T20:08:46.90Z</time>
      </trkpt>
      <trkpt lat="42.358185" lon="2.397553">
        <ele>1269.80</ele>
        <time>2013-08-20T21:49:08.65Z</time>
      </trkpt>
      <trkpt lat="42.358208" lon="2.397484">
        <ele>1270.80</ele>
        <time>2013-08-20T23:33:38.62Z</time>
      </trkpt>
      <trkpt lat="42.358248" lon="2.397406">
        <ele>1272.20</ele>
        <time>2013-08-21T01:44:42.89Z</time>
      </trkpt>
      <trkpt lat="42.358255" lon="2.397383">
        <ele>1272.60</ele>
        <time>2013-08-21T02:19:03.28Z</time>
      </trkpt>
      <trkpt lat="42.358271" lon="2.397342">
        <ele>1273.20</ele>
        <time>2013-08-21T03:23:03.86Z</time>
      </trkpt>
      <trkpt lat="42.358321" lon="2.397255">
        <ele>1274.20</ele>
        <time>2013-08-21T05:55:13.15Z</time>
      </trkpt>
      <trkpt lat="42.358338" lon="2.397257">
        <ele>1274.40</ele>
        <time>2013-08-21T06:27:05.93Z</time>
      </trkpt>
      <trkpt lat="42.358356" lon="2.397290">
        <ele>1275.60</ele>
        <time>2013-08-21T07:23:43.39Z</time>
      </trkpt>
      <trkpt lat="42.358360" lon="2.397308">
        <ele>1275.80</ele>
        <time>2013-08-21T07:49:40.32Z</time>
      </trkpt>
      <trkpt lat="42.358363" lon="2.397352">
        <ele>1276.00</ele>
        <time>2013-08-21T08:50:40.38Z</time>
      </trkpt>
      <trkpt lat="42.358353" lon="2.397423">
        <ele>1276.60</ele>
        <time>2013-08-21T10:30:27.28Z</time>
      </trkpt>
      <trkpt lat="42.358347" lon="2.397446">
        <ele>1276.80</ele>
        <time>2013-08-21T11:04:07.63Z</time>
      </trkpt>
      <trkpt lat="42.358354" lon="2.397530">
        <ele>1277.60</ele>
        <time>2013-08-21T13:00:49.57Z</time>
      </trkpt>
      <trkpt lat="42.358351" lon="2.397591">
        <ele>1278.00</ele>
        <time>2013-08-21T14:25:13.46Z</time>
      </trkpt>
      <trkpt lat="42.358361" lon="2.397778">
        <ele>1278.20</ele>
        <time>2013-08-21T18:44:03.42Z</time>
      </trkpt>
      <trkpt lat="42.358369" lon="2.398095">
        <ele>1277.60</ele>
        <time>2013-08-22T02:01:56.26Z</time>
      </trkpt>
      <trkpt lat="42.358360" lon="2.398310">
        <ele>1276.60</ele>
        <time>2013-08-22T06:59:13.55Z</time>
      </trkpt>
      <trkpt lat="42.358374" lon="2.398392">
        <ele>1276.40</ele>
        <time>2013-08-22T08:55:24.65Z</time>
      </trkpt>
      <trkpt lat="42.358397" lon="2.398464">
        <ele>1276.00</ele>
        <time>2013-08-22T10:43:41.92Z</time>
      </trkpt>
      <trkpt lat="42.358486" lon="2.398657">
        <ele>1276.20</ele>
        <time>2013-08-22T15:57:45.85Z</time>
      </trkpt>
      <trkpt lat="42.358576" lon="2.398835">
        <ele>1277.40</ele>
        <time>2013-08-22T20:55:30.92Z</time>
      </trkpt>
      <trkpt lat="42.358609" lon="2.398907">
        <ele>1277.60</ele>
        <time>2013-08-22T22:52:28.80Z</time>
      </trkpt>
      <trkpt lat="42.358682" lon="2.399014">
        <ele>1278.40</ele>
        <time>2013-08-23T02:13:31.57Z</time>
      </trkpt>
      <trkpt lat="42.358714" lon="2.399055">
        <ele>1278.80</ele>
        <time>2013-08-23T03:35:51.20Z</time>
      </trkpt>
      <trkpt lat="42.358765" lon="2.399114">
        <ele>1280.20</ele>
        <time>2013-08-23T05:41:12.15Z</time>
      </trkpt>
      <trkpt lat="42.358799" lon="2.399157">
        <ele>1280.80</ele>
        <time>2013-08-23T07:08:08.57Z</time>
      </trkpt>
      <trkpt lat="42.358833" lon="2.399198">
        <ele>1281.40</ele>
        <time>2013-08-23T08:33:13.32Z</time>
      </trkpt>
      <trkpt lat="42.358882" lon="2.399253">
        <ele>1282.20</ele>
        <time>2013-08-23T10:32:09.35Z</time>
      </trkpt>
      <trkpt lat="42.358920" lon="2.399292">
        <ele>1282.60</ele>
        <time>2013-08-23T12:01:15.33Z</time>
      </trkpt>
      <trkpt lat="42.358986" lon="2.399343">
        <ele>1283.80</ele>
        <time>2013-08-23T14:23:14.63Z</time>
      </trkpt>
      <trkpt lat="42.359001" lon="2.399365">
        <ele>1284.00</ele>
        <time>2013-08-23T15:04:34.11Z</time>
      </trkpt>
      <trkpt lat="42.359036" lon="2.399392">
        <ele>1284.80</ele>
        <time>2013-08-23T16:19:50.06Z</time>
      </trkpt>
      <trkpt lat="42.359049" lon="2.399407">
        <ele>1285.00</ele>
        <time>2013-08-23T16:51:45.05Z</time>
      </trkpt>
      <trkpt lat="42.359098" lon="2.399452">
        <ele>1286.00</ele>
        <time>2013-08-23T18:42:22.97Z</time>
      </trkpt>
      <trkpt lat="42.359111" lon="2.399471">
        <ele>1286.40</ele>
        <time>2013-08-23T19:18:07.80Z</time>
      </trkpt>
      <trkpt lat="42.359137" lon="2.399502">
        <ele>1287.00</ele>
        <time>2013-08-23T20:22:52.03Z</time>
      </trkpt>
      <trkpt lat="42.359226" lon="2.399578">
        <ele>1288.00</ele>
        <time>2013-08-23T23:39:28.48Z</time>
      </trkpt>
      <trkpt lat="42.359239" lon="2.399588">
        <ele>1288.40</ele>
        <time>2013-08-24T00:07:24.66Z</time>
      </trkpt>
      <trkpt lat="42.359268" lon="2.399599">
        <ele>1289.20</ele>
        <time>2013-08-24T01:03:40.66Z</time>
      </trkpt>
      <trkpt lat="42.359333" lon="2.399627">
        <ele>1290.20</ele>
        <time>2013-08-24T03:11:06.98Z</time>
      </trkpt>
      <trkpt lat="42.359359" lon="2.399626">
        <ele>1290.40</ele>
        <time>2013-08-24T03:59:42.61Z</time>
      </trkpt>
      <trkpt lat="42.359478" lon="2.399613">
        <ele>1290.20</ele>
        <time>2013-08-24T07:42:45.18Z</time>
      </trkpt>
      <trkpt lat="42.359534" lon="2.399611">
        <ele>1290.60</ele>
        <time>2013-08-24T09:27:24.63Z</time>
      </trkpt>
      <trkpt lat="42.359679" lon="2.399585">
        <ele>1291.20</ele>
        <time>2013-08-24T14:00:40.32Z</time>
      </trkpt>
      <trkpt lat="42.359701" lon="2.399581">
        <ele>1291.20</ele>
        <time>2013-08-24T14:42:08.54Z</time>
      </trkpt>
      <trkpt lat="42.359868" lon="2.399532">
        <ele>1292.00</ele>
        <time>2013-08-24T20:01:23.17Z</time>
      </trkpt>
      <trkpt lat="42.359935" lon="2.399524">
        <ele>1292.20</ele>
        <time>2013-08-24T22:07:02.64Z</time>
      </trkpt>
      <trkpt lat="42.360152" lon="2.399463">
        <ele>1291.80</ele>
        <time>2013-08-25T05:01:06.25Z</time>
      </trkpt>
      <trkpt lat="42.360370" lon="2.399400">
        <ele>1292.80</ele>
        <time>2013-08-25T11:57:33.69Z</time>
      </trkpt>
      <trkpt lat="42.360472" lon="2.399358">
        <ele>1293.20</ele>
        <time>2013-08-25T15:16:44.80Z</time>
      </trkpt>
      <trkpt lat="42.360649" lon="2.399288">
        <ele>1293.80</ele>
        <time>2013-08-25T21:01:15.25Z</time>
      </trkpt>
      <trkpt lat="42.360787" lon="2.399191">
        <ele>1294.60</ele>
        <time>2013-08-26T01:51:46.25Z</time>
      </trkpt>
      <trkpt lat="42.360919" lon="2.399095">
        <ele>1295.00</ele>
        <time>2013-08-26T06:31:43.87Z</time>
      </trkpt>
      <trkpt lat="42.360988" lon="2.399051">
        <ele>1295.60</ele>
        <time>2013-08-26T08:54:13.96Z</time>
      </trkpt>
      <trkpt lat="42.361188" lon="2.398927">
        <ele>1297.00</ele>
        <time>2013-08-26T15:45:13.42Z</time>
      </trkpt>
      <trkpt lat="42.361310" lon="2.398828">
        <ele>1298.20</ele>
        <time>2013-08-26T20:10:58.86Z</time>
      </trkpt>
      <trkpt lat="42.361379" lon="2.398775">
        <ele>1298.60</ele>
        <time>2013-08-26T22:39:12.29Z</time>
      </trkpt>
      <trkpt lat="42.361482" lon="2.398688">
        <ele>1299.00</ele>
        <time>2013-08-27T02:26:02.17Z</time>
      </trkpt>
      <trkpt lat="42.361545" lon="2.398615">
        <ele>1299.40</ele>
        <time>2013-08-27T05:00:58.92Z</time>
      </trkpt>
      <trkpt lat="42.361573" lon="2.398577">
        <ele>1299.60</ele>
        <time>2013-08-27T06:15:03.84Z</time>
      </trkpt>
      <trkpt lat="42.361598" lon="2.398541">
        <ele>1299.80</ele>
        <time>2013-08-27T07:23:15.80Z</time>
      </trkpt>
      <trkpt lat="42.361716" lon="2.398375">
        <ele>1300.60</ele>
        <time>2013-08-27T12:41:14.55Z</time>
      </trkpt>
      <trkpt lat="42.361774" lon="2.398286">
        <ele>1301.60</ele>
        <time>2013-08-27T15:25:03.55Z</time>
      </trkpt>
      <trkpt lat="42.361809" lon="2.398216">
        <ele>1302.00</ele>
        <time>2013-08-27T17:21:44.09Z</time>
      </trkpt>
      <trkpt lat="42.361871" lon="2.398110">
        <ele>1302.80</ele>
        <time>2013-08-27T20:28:21.51Z</time>
      </trkpt>
      <trkpt lat="42.361916" lon="2.398043">
        <ele>1303.20</ele>
        <time>2013-08-27T22:33:20.84Z</time>
      </trkpt>
      <trkpt lat="42.361927" lon="2.398003">
        <ele>1303.40</ele>
        <time>2013-08-27T23:32:15.91Z</time>
      </trkpt>
      <trkpt lat="42.361958" lon="2.397912">
        <ele>1303.80</ele>
        <time>2013-08-28T01:50:35.60Z</time>
      </trkpt>
      <trkpt lat="42.362032" lon="2.397689">
        <ele>1305.00</ele>
        <time>2013-08-28T07:28:03.04Z</time>
      </trkpt>
      <trkpt lat="42.362102" lon="2.397456">
        <ele>1305.80</ele>
        <time>2013-08-28T13:15:15.78Z</time>
      </trkpt>
      <trkpt lat="42.362136" lon="2.397361">
        <ele>1306.20</ele>
        <time>2013-08-28T15:40:58.70Z</time>
      </trkpt>
      <trkpt lat="42.362230" lon="2.397193">
        <ele>1306.80</ele>
        <time>2013-08-28T20:31:52.84Z</time>
      </trkpt>
      <trkpt lat="42.362289" lon="2.397116">
        <ele>1307.20</ele>
        <time>2013-08-28T23:05:00.50Z</time>
      </trkpt>
      <trkpt lat="42.362391" lon="2.396937">
        <ele>1308.40</ele>
        <time>2013-08-29T04:17:03.03Z</time>
      </trkpt>
      <trkpt lat="42.362470" lon="2.396777">
        <ele>1309.40</ele>
        <time>2013-08-29T08:42:41.61Z</time>
      </trkpt>
      <trkpt lat="42.362490" lon="2.396742">
        <ele>1310.00</ele>
        <time>2013-08-29T09:43:46.26Z</time>
      </trkpt>
      <trkpt lat="42.362521" lon="2.396671">
        <ele>1310.60</ele>
        <time>2013-08-29T11:37:36.85Z</time>
      </trkpt>
      <trkpt lat="42.362566" lon="2.396498">
        <ele>1311.80</ele>
        <time>2013-08-29T15:50:47.65Z</time>
      </trkpt>
      <trkpt lat="42.362596" lon="2.396421">
        <ele>1311.40</ele>
        <time>2013-08-29T17:50:57.52Z</time>
      </trkpt>
      <trkpt lat="42.362647" lon="2.396413">
        <ele>1311.00</ele>
        <time>2013-08-29T19:26:52.58Z</time>
      </trkpt>
      <trkpt lat="42.362726" lon="2.396511">
        <ele>1311.60</ele>
        <time>2013-08-29T22:47:05.20Z</time>
      </trkpt>
      <trkpt lat="42.362805" lon="2.396633">
        <ele>1312.80</ele>
        <time>2013-08-30T02:31:01.11Z</time>
      </trkpt>
      <trkpt lat="42.362869" lon="2.396756">
        <ele>1313.80</ele>
        <time>2013-08-30T05:58:41.14Z</time>
      </trkpt>
      <trkpt lat="42.362884" lon="2.396803">
        <ele>1314.00</ele>
        <time>2013-08-30T07:09:21.53Z</time>
      </trkpt>
      <trkpt lat="42.363005" lon="2.397039">
        <ele>1314.60</ele>
        <time>2013-08-30T13:45:53.16Z</time>
      </trkpt>
      <trkpt lat="42.363173" lon="2.397141">
        <ele>1315.20</ele>
        <time>2013-08-30T19:29:53.11Z</time>
      </trkpt>
      <trkpt lat="42.363222" lon="2.397157">
        <ele>1315.00</ele>
        <time>2013-08-30T21:04:03.32Z</time>
      </trkpt>
      <trkpt lat="42.363491" lon="2.397283">
        <ele>1314.00</ele>
        <time>2013-08-31T05:55:51.46Z</time>
      </trkpt>
      <trkpt lat="42.363786" lon="2.397447">
        <ele>1313.20</ele>
        <time>2013-08-31T15:51:40.28Z</time>
      </trkpt>
      <trkpt lat="42.363884" lon="2.397462">
        <ele>1313.00</ele>
        <time>2013-08-31T18:55:55.52Z</time>
      </trkpt>
      <trkpt lat="42.363985" lon="2.397426">
        <ele>1313.00</ele>
        <time>2013-08-31T22:11:03.06Z</time>
      </trkpt>
      <trkpt lat="42.364158" lon="2.397365">
        <ele>1312.60</ele>
        <time>2013-09-01T03:45:02.65Z</time>
      </trkpt>
      <trkpt lat="42.364281" lon="2.397307">
        <ele>1312.00</ele>
        <time>2013-09-01T07:48:23.10Z</time>
      </trkpt>
      <trkpt lat="42.364528" lon="2.397146">
        <ele>1310.40</ele>
        <time>2013-09-01T16:20:34.07Z</time>
      </trkpt>
      <trkpt lat="42.364660" lon="2.397056">
        <ele>1309.40</ele>
        <time>2013-09-01T20:56:42.03Z</time>
      </trkpt>
      <trkpt lat="42.364916" lon="2.396873">
        <ele>1308.20</ele>
        <time>2013-09-02T05:57:34.86Z</time>
      </trkpt>
      <trkpt lat="42.365035" lon="2.396768">
        <ele>1307.80</ele>
        <time>2013-09-02T10:22:58.45Z</time>
      </trkpt>
      <trkpt lat="42.365141" lon="2.396648">
        <ele>1306.80</ele>
        <time>2013-09-02T14:41:09.05Z</time>
      </trkpt>
      <trkpt lat="42.365215" lon="2.396575">
        <ele>1305.20</ele>
        <time>2013-09-02T17:32:13.59Z</time>
      </trkpt>
      <trkpt lat="42.365249" lon="2.396595">
        <ele>1304.40</ele>
        <time>2013-09-02T18:41:29.19Z</time>
      </trkpt>
      <trkpt lat="42.365292" lon="2.396632">
        <ele>1304.00</ele>
        <time>2013-09-02T20:16:40.89Z</time>
      </trkpt>
      <trkpt lat="42.365397" lon="2.396669">
        <ele>1303.00</ele>
        <time>2013-09-02T23:39:23.15Z</time>
      </trkpt>
      <trkpt lat="42.365457" lon="2.396680">
        <ele>1302.60</ele>
        <time>2013-09-03T01:32:30.21Z</time>
      </trkpt>
      <trkpt lat="42.365515" lon="2.396670">
        <ele>1302.40</ele>
        <time>2013-09-03T03:21:44.21Z</time>
      </trkpt>
      <trkpt lat="42.365628" lon="2.396626">
        <ele>1301.60</ele>
        <time>2013-09-03T07:01:24.62Z</time>
      </trkpt>
      <trkpt lat="42.365682" lon="2.396592">
        <ele>1301.40</ele>
        <time>2013-09-03T08:52:40.64Z</time>
      </trkpt>
      <trkpt lat="42.365737" lon="2.396554">
        <ele>1301.40</ele>
        <time>2013-09-03T10:48:02.66Z</time>
      </trkpt>
      <trkpt lat="42.365785" lon="2.396513">
        <ele>1301.20</ele>
        <time>2013-09-03T12:34:05.09Z</time>
      </trkpt>
      <trkpt lat="42.365924" lon="2.396413">
        <ele>1300.60</ele>
        <time>2013-09-03T17:28:10.59Z</time>
      </trkpt>
      <trkpt lat="42.365971" lon="2.396380">
        <ele>1300.40</ele>
        <time>2013-09-03T19:07:05.75Z</time>
      </trkpt>
      <trkpt lat="42.366191" lon="2.396194">
        <ele>1299.40</ele>
        <time>2013-09-04T03:11:42.45Z</time>
      </trkpt>
      <trkpt lat="42.366251" lon="2.396138">
        <ele>1299.40</ele>
        <time>2013-09-04T05:27:52.22Z</time>
      </trkpt>
      <trkpt lat="42.366446" lon="2.395993">
        <ele>1299.00</ele>
        <time>2013-09-04T12:23:32.21Z</time>
      </trkpt>
      <trkpt lat="42.366552" lon="2.395931">
        <ele>1298.00</ele>
        <time>2013-09-04T15:59:16.24Z</time>
      </trkpt>
      <trkpt lat="42.366665" lon="2.395865">
        <ele>1296.80</ele>
        <time>2013-09-04T19:49:11.97Z</time>
      </trkpt>
      <trkpt lat="42.366776" lon="2.395804">
        <ele>1295.60</ele>
        <time>2013-09-04T23:33:00.94Z</time>
      </trkpt>
      <trkpt lat="42.366885" lon="2.395733">
        <ele>1294.40</ele>
        <time>2013-09-05T03:19:00.54Z</time>
      </trkpt>
      <trkpt lat="42.366999" lon="2.395639">
        <ele>1292.80</ele>
        <time>2013-09-05T07:28:23.93Z</time>
      </trkpt>
      <trkpt lat="42.367043" lon="2.395582">
        <ele>1291.80</ele>
        <time>2013-09-05T09:22:11.18Z</time>
      </trkpt>
      <trkpt lat="42.367076" lon="2.395533">
        <ele>1291.20</ele>
        <time>2013-09-05T10:53:42.28Z</time>
      </trkpt>
      <trkpt lat="42.367087" lon="2.395477">
        <ele>1290.40</ele>
        <time>2013-09-05T12:13:41.30Z</time>
      </trkpt>
      <trkpt lat="42.367100" lon="2.395423">
        <ele>1290.00</ele>
        <time>2013-09-05T13:32:04.99Z</time>
      </trkpt>
      <trkpt lat="42.367112" lon="2.395372">
        <ele>1289.40</ele>
        <time>2013-09-05T14:45:57.81Z</time>
      </trkpt>
      <trkpt lat="42.367131" lon="2.395312">
        <ele>1288.80</ele>
        <time>2013-09-05T16:16:04.18Z</time>
      </trkpt>
      <trkpt lat="42.367205" lon="2.395117">
        <ele>1287.80</ele>
        <time>2013-09-05T21:18:39.72Z</time>
      </trkpt>
      <trkpt lat="42.367227" lon="2.395046">
        <ele>1287.20</ele>
        <time>2013-09-05T23:04:56.10Z</time>
      </trkpt>
      <trkpt lat="42.367242" lon="2.394969">
        <ele>1286.60</ele>
        <time>2013-09-06T00:54:51.15Z</time>
      </trkpt>
      <trkpt lat="42.367248" lon="2.394895">
        <ele>1285.20</ele>
        <time>2013-09-06T02:37:36.60Z</time>
      </trkpt>
      <trkpt lat="42.367283" lon="2.394741">
        <ele>1284.00</ele>
        <time>2013-09-06T06:20:00.59Z</time>
      </trkpt>
      <trkpt lat="42.367309" lon="2.394559">
        <ele>1283.00</ele>
        <time>2013-09-06T10:35:52.92Z</time>
      </trkpt>
      <trkpt lat="42.367320" lon="2.394417">
        <ele>1281.60</ele>
        <time>2013-09-06T13:52:57.76Z</time>
      </trkpt>
      <trkpt lat="42.367319" lon="2.394350">
        <ele>1280.60</ele>
        <time>2013-09-06T15:25:27.80Z</time>
      </trkpt>
      <trkpt lat="42.367304" lon="2.394215">
        <ele>1279.20</ele>
        <time>2013-09-06T18:33:54.16Z</time>
      </trkpt>
      <trkpt lat="42.367284" lon="2.394095">
        <ele>1278.20</ele>
        <time>2013-09-06T21:23:42.23Z</time>
      </trkpt>
      <trkpt lat="42.367274" lon="2.394012">
        <ele>1277.20</ele>
        <time>2013-09-06T23:19:47.05Z</time>
      </trkpt>
      <trkpt lat="42.367279" lon="2.393971">
        <ele>1276.40</ele>
        <time>2013-09-07T00:17:08.59Z</time>
      </trkpt>
      <trkpt lat="42.367279" lon="2.393957">
        <ele>1276.00</ele>
        <time>2013-09-07T00:36:28.07Z</time>
      </trkpt>
      <trkpt lat="42.367368" lon="2.393977">
        <ele>1275.80</ele>
        <time>2013-09-07T03:25:01.01Z</time>
      </trkpt>
      <trkpt lat="42.367411" lon="2.394019">
        <ele>1275.80</ele>
        <time>2013-09-07T05:04:05.09Z</time>
      </trkpt>
      <trkpt lat="42.367443" lon="2.394027">
        <ele>1275.80</ele>
        <time>2013-09-07T06:04:52.78Z</time>
      </trkpt>
      <trkpt lat="42.367479" lon="2.394033">
        <ele>1275.80</ele>
        <time>2013-09-07T07:12:38.64Z</time>
      </trkpt>
      <trkpt lat="42.367561" lon="2.394159">
        <ele>1276.40</ele>
        <time>2013-09-07T11:04:24.81Z</time>
      </trkpt>
      <trkpt lat="42.367596" lon="2.394234">
        <ele>1277.60</ele>
        <time>2013-09-07T13:06:51.52Z</time>
      </trkpt>
      <trkpt lat="42.367618" lon="2.394253">
        <ele>1278.00</ele>
        <time>2013-09-07T13:55:36.86Z</time>
      </trkpt>
      <trkpt lat="42.367653" lon="2.394298">
        <ele>1278.60</ele>
        <time>2013-09-07T15:25:48.11Z</time>
      </trkpt>
      <trkpt lat="42.367686" lon="2.394340">
        <ele>1279.60</ele>
        <time>2013-09-07T16:50:25.77Z</time>
      </trkpt>
      <trkpt lat="42.367706" lon="2.394360">
        <ele>1279.80</ele>
        <time>2013-09-07T17:36:53.18Z</time>
      </trkpt>
      <trkpt lat="42.367742" lon="2.394394">
        <ele>1280.40</ele>
        <time>2013-09-07T18:58:53.88Z</time>
      </trkpt>
      <trkpt lat="42.367752" lon="2.394413">
        <ele>1280.80</ele>
        <time>2013-09-07T19:31:05.87Z</time>
      </trkpt>
      <trkpt lat="42.367813" lon="2.394480">
        <ele>1282.20</ele>
        <time>2013-09-07T21:57:51.81Z</time>
      </trkpt>
      <trkpt lat="42.367886" lon="2.394534">
        <ele>1283.20</ele>
        <time>2013-09-08T00:33:17.04Z</time>
      </trkpt>
      <trkpt lat="42.367933" lon="2.394560">
        <ele>1284.00</ele>
        <time>2013-09-08T02:08:08.52Z</time>
      </trkpt>
      <trkpt lat="42.367957" lon="2.394572">
        <ele>1284.40</ele>
        <time>2013-09-08T02:55:56.47Z</time>
      </trkpt>
      <trkpt lat="42.368046" lon="2.394658">
        <ele>1285.60</ele>
        <time>2013-09-08T06:20:14.39Z</time>
      </trkpt>
      <trkpt lat="42.368067" lon="2.394673">
        <ele>1285.80</ele>
        <time>2013-09-08T07:04:36.05Z</time>
      </trkpt>
      <trkpt lat="42.368142" lon="2.394725">
        <ele>1287.00</ele>
        <time>2013-09-08T09:42:01.95Z</time>
      </trkpt>
      <trkpt lat="42.368149" lon="2.394753">
        <ele>1287.40</ele>
        <time>2013-09-08T10:22:50.02Z</time>
      </trkpt>
      <trkpt lat="42.368160" lon="2.394761">
        <ele>1287.80</ele>
        <time>2013-09-08T10:46:09.78Z</time>
      </trkpt>
      <trkpt lat="42.368177" lon="2.394786">
        <ele>1288.20</ele>
        <time>2013-09-08T11:33:03.70Z</time>
      </trkpt>
      <trkpt lat="42.368270" lon="2.394925">
        <ele>1289.20</ele>
        <time>2013-09-08T15:51:54.17Z</time>
      </trkpt>
      <trkpt lat="42.368315" lon="2.395014">
        <ele>1290.60</ele>
        <time>2013-09-08T18:20:45.76Z</time>
      </trkpt>
      <trkpt lat="42.368320" lon="2.395041">
        <ele>1291.00</ele>
        <time>2013-09-08T18:59:11.02Z</time>
      </trkpt>
      <trkpt lat="42.368333" lon="2.395062">
        <ele>1291.20</ele>
        <time>2013-09-08T19:37:00Z</time>
      </trkpt>
      <trkpt lat="42.368345" lon="2.395079">
        <ele>1291.60</ele>
        <time>2013-09-08T20:09:27.19Z</time>
      </trkpt>
      <trkpt lat="42.368381" lon="2.395146">
        <ele>1292.60</ele>
        <time>2013-09-08T22:03:48.22Z</time>
      </trkpt>
      <trkpt lat="42.368401" lon="2.395185">
        <ele>1293.80</ele>
        <time>2013-09-08T23:09:19.93Z</time>
      </trkpt>
      <trkpt lat="42.368422" lon="2.395288">
        <ele>1294.40</ele>
        <time>2013-09-09T01:36:49.03Z</time>
      </trkpt>
      <trkpt lat="42.368432" lon="2.395348">
        <ele>1294.60</ele>
        <time>2013-09-09T03:01:42.97Z</time>
      </trkpt>
      <trkpt lat="42.368441" lon="2.395388">
        <ele>1294.80</ele>
        <time>2013-09-09T03:59:25.91Z</time>
      </trkpt>
      <trkpt lat="42.368455" lon="2.395446">
        <ele>1295.40</ele>
        <time>2013-09-09T05:23:39.21Z</time>
      </trkpt>
      <trkpt lat="42.368467" lon="2.395500">
        <ele>1296.00</ele>
        <time>2013-09-09T06:41:29.29Z</time>
      </trkpt>
      <trkpt lat="42.368478" lon="2.395528">
        <ele>1296.40</ele>
        <time>2013-09-09T07:25:15.64Z</time>
      </trkpt>
      <trkpt lat="42.368495" lon="2.395590">
        <ele>1297.20</ele>
        <time>2013-09-09T08:56:32.55Z</time>
      </trkpt>
      <trkpt lat="42.368513" lon="2.395620">
        <ele>1297.40</ele>
        <time>2013-09-09T09:49:53.18Z</time>
      </trkpt>
      <trkpt lat="42.368626" lon="2.395810">
        <ele>1298.40</ele>
        <time>2013-09-09T15:26:33.33Z</time>
      </trkpt>
      <trkpt lat="42.368647" lon="2.395845">
        <ele>1298.40</ele>
        <time>2013-09-09T16:28:47.39Z</time>
      </trkpt>
      <trkpt lat="42.368729" lon="2.396145">
        <ele>1297.60</ele>
        <time>2013-09-09T23:50:18.46Z</time>
      </trkpt>
      <trkpt lat="42.368732" lon="2.396211">
        <ele>1297.40</ele>
        <time>2013-09-10T01:21:34.76Z</time>
      </trkpt>
      <trkpt lat="42.368733" lon="2.396376">
        <ele>1296.60</ele>
        <time>2013-09-10T05:09:20.14Z</time>
      </trkpt>
      <trkpt lat="42.368741" lon="2.396427">
        <ele>1296.40</ele>
        <time>2013-09-10T06:21:17.98Z</time>
      </trkpt>
      <trkpt lat="42.368750" lon="2.396426">
        <ele>1296.40</ele>
        <time>2013-09-10T06:38:10.22Z</time>
      </trkpt>
      <trkpt lat="42.368788" lon="2.396358">
        <ele>1297.00</ele>
        <time>2013-09-10T08:35:51.30Z</time>
      </trkpt>
      <trkpt lat="42.368812" lon="2.396297">
        <ele>1297.60</ele>
        <time>2013-09-10T10:11:14.84Z</time>
      </trkpt>
      <trkpt lat="42.368823" lon="2.396269">
        <ele>1298.00</ele>
        <time>2013-09-10T10:55:01.18Z</time>
      </trkpt>
      <trkpt lat="42.368843" lon="2.396220">
        <ele>1299.00</ele>
        <time>2013-09-10T12:12:17.32Z</time>
      </trkpt>
      <trkpt lat="42.368854" lon="2.396197">
        <ele>1299.40</ele>
        <time>2013-09-10T12:50:06.39Z</time>
      </trkpt>
      <trkpt lat="42.368861" lon="2.396139">
        <ele>1300.20</ele>
        <time>2013-09-10T14:11:13.47Z</time>
      </trkpt>
      <trkpt lat="42.368869" lon="2.396084">
        <ele>1301.20</ele>
        <time>2013-09-10T15:28:35.86Z</time>
      </trkpt>
      <trkpt lat="42.368869" lon="2.395995">
        <ele>1302.20</ele>
        <time>2013-09-10T17:31:26.62Z</time>
      </trkpt>
      <trkpt lat="42.368868" lon="2.395960">
        <ele>1302.40</ele>
        <time>2013-09-10T18:19:47.40Z</time>
      </trkpt>
      <trkpt lat="42.368856" lon="2.395810">
        <ele>1303.80</ele>
        <time>2013-09-10T21:48:02.63Z</time>
      </trkpt>
      <trkpt lat="42.368857" lon="2.395785">
        <ele>1304.00</ele>
        <time>2013-09-10T22:22:36.10Z</time>
      </trkpt>
      <trkpt lat="42.368866" lon="2.395765">
        <ele>1304.40</ele>
        <time>2013-09-10T22:54:55.50Z</time>
      </trkpt>
      <trkpt lat="42.368882" lon="2.395751">
        <ele>1304.80</ele>
        <time>2013-09-10T23:30:31.14Z</time>
      </trkpt>
      <trkpt lat="42.368916" lon="2.395745">
        <ele>1305.40</ele>
        <time>2013-09-11T00:34:34.59Z</time>
      </trkpt>
      <trkpt lat="42.368959" lon="2.395814">
        <ele>1306.00</ele>
        <time>2013-09-11T02:39:10.37Z</time>
      </trkpt>
      <trkpt lat="42.368967" lon="2.395849">
        <ele>1306.20</ele>
        <time>2013-09-11T03:29:44.52Z</time>
      </trkpt>
      <trkpt lat="42.368975" lon="2.395884">
        <ele>1306.20</ele>
        <time>2013-09-11T04:20:18.67Z</time>
      </trkpt>
      <trkpt lat="42.369014" lon="2.396055">
        <ele>1307.20</ele>
        <time>2013-09-11T08:27:19.84Z</time>
      </trkpt>
      <trkpt lat="42.369054" lon="2.396163">
        <ele>1308.40</ele>
        <time>2013-09-11T11:14:05.03Z</time>
      </trkpt>
      <trkpt lat="42.369077" lon="2.396246">
        <ele>1308.80</ele>
        <time>2013-09-11T13:16:26.45Z</time>
      </trkpt>
      <trkpt lat="42.369101" lon="2.396341">
        <ele>1309.60</ele>
        <time>2013-09-11T15:35:01.33Z</time>
      </trkpt>
      <trkpt lat="42.369105" lon="2.396372">
        <ele>1309.80</ele>
        <time>2013-09-11T16:18:27.52Z</time>
      </trkpt>
      <trkpt lat="42.369104" lon="2.396469">
        <ele>1310.80</ele>
        <time>2013-09-11T18:32:21.57Z</time>
      </trkpt>
      <trkpt lat="42.369118" lon="2.396582">
        <ele>1311.40</ele>
        <time>2013-09-11T21:10:30.57Z</time>
      </trkpt>
      <trkpt lat="42.369155" lon="2.396674">
        <ele>1312.00</ele>
        <time>2013-09-11T23:35:05.45Z</time>
      </trkpt>
      <trkpt lat="42.369194" lon="2.396750">
        <ele>1313.20</ele>
        <time>2013-09-12T01:42:48.81Z</time>
      </trkpt>
      <trkpt lat="42.369215" lon="2.396770">
        <ele>1313.60</ele>
        <time>2013-09-12T02:30:47.12Z</time>
      </trkpt>
      <trkpt lat="42.369275" lon="2.396832">
        <ele>1314.40</ele>
        <time>2013-09-12T04:51:48.73Z</time>
      </trkpt>
      <trkpt lat="42.369353" lon="2.396863">
        <ele>1315.00</ele>
        <time>2013-09-12T07:23:41.19Z</time>
      </trkpt>
      <trkpt lat="42.369480" lon="2.396860">
        <ele>1315.40</ele>
        <time>2013-09-12T11:20:59.30Z</time>
      </trkpt>
      <trkpt lat="42.369511" lon="2.396850">
        <ele>1315.80</ele>
        <time>2013-09-12T12:20:31.54Z</time>
      </trkpt>
      <trkpt lat="42.369571" lon="2.396833">
        <ele>1316.40</ele>
        <time>2013-09-12T14:15:02.96Z</time>
      </trkpt>
      <trkpt lat="42.369713" lon="2.396782">
        <ele>1317.20</ele>
        <time>2013-09-12T18:49:31.14Z</time>
      </trkpt>
      <trkpt lat="42.369743" lon="2.396771">
        <ele>1317.60</ele>
        <time>2013-09-12T19:47:35.17Z</time>
      </trkpt>
      <trkpt lat="42.369852" lon="2.396716">
        <ele>1318.80</ele>
        <time>2013-09-12T23:24:54.82Z</time>
      </trkpt>
      <trkpt lat="42.369899" lon="2.396696">
        <ele>1319.20</ele>
        <time>2013-09-13T00:56:57.47Z</time>
      </trkpt>
      <trkpt lat="42.369946" lon="2.396675">
        <ele>1319.80</ele>
        <time>2013-09-13T02:29:25.52Z</time>
      </trkpt>
      <trkpt lat="42.370016" lon="2.396585">
        <ele>1321.20</ele>
        <time>2013-09-13T05:29:47.84Z</time>
      </trkpt>
      <trkpt lat="42.370032" lon="2.396565">
        <ele>1321.40</ele>
        <time>2013-09-13T06:10:29.16Z</time>
      </trkpt>
      <trkpt lat="42.370053" lon="2.396512">
        <ele>1322.20</ele>
        <time>2013-09-13T07:33:29.79Z</time>
      </trkpt>
      <trkpt lat="42.370084" lon="2.396415">
        <ele>1323.20</ele>
        <time>2013-09-13T09:59:22.30Z</time>
      </trkpt>
      <trkpt lat="42.370092" lon="2.396390">
        <ele>1323.60</ele>
        <time>2013-09-13T10:36:58.56Z</time>
      </trkpt>
      <trkpt lat="42.370104" lon="2.396302">
        <ele>1324.40</ele>
        <time>2013-09-13T12:40:29.45Z</time>
      </trkpt>
      <trkpt lat="42.370108" lon="2.396187">
        <ele>1326.00</ele>
        <time>2013-09-13T15:19:23.82Z</time>
      </trkpt>
      <trkpt lat="42.370105" lon="2.396160">
        <ele>1326.20</ele>
        <time>2013-09-13T15:57:04.99Z</time>
      </trkpt>
      <trkpt lat="42.370090" lon="2.396081">
        <ele>1327.20</ele>
        <time>2013-09-13T17:49:40.05Z</time>
      </trkpt>
      <trkpt lat="42.370071" lon="2.396014">
        <ele>1328.60</ele>
        <time>2013-09-13T19:28:43.42Z</time>
      </trkpt>
      <trkpt lat="42.370056" lon="2.395943">
        <ele>1329.80</ele>
        <time>2013-09-13T21:10:39.04Z</time>
      </trkpt>
      <trkpt lat="42.370049" lon="2.395871">
        <ele>1330.60</ele>
        <time>2013-09-13T22:50:53.19Z</time>
      </trkpt>
      <trkpt lat="42.370045" lon="2.395843">
        <ele>1330.80</ele>
        <time>2013-09-13T23:30:14.99Z</time>
      </trkpt>
      <trkpt lat="42.370045" lon="2.395770">
        <ele>1332.00</ele>
        <time>2013-09-14T01:11:00.55Z</time>
      </trkpt>
      <trkpt lat="42.370060" lon="2.395697">
        <ele>1333.00</ele>
        <time>2013-09-14T02:55:35.57Z</time>
      </trkpt>
      <trkpt lat="42.370098" lon="2.395616">
        <ele>1334.20</ele>
        <time>2013-09-14T05:08:01.79Z</time>
      </trkpt>
      <trkpt lat="42.370139" lon="2.395568">
        <ele>1334.80</ele>
        <time>2013-09-14T06:49:18.29Z</time>
      </trkpt>
      <trkpt lat="42.370168" lon="2.395532">
        <ele>1335.20</ele>
        <time>2013-09-14T08:02:49.16Z</time>
      </trkpt>
      <trkpt lat="42.370221" lon="2.395468">
        <ele>1336.40</ele>
        <time>2013-09-14T10:15:30.78Z</time>
      </trkpt>
      <trkpt lat="42.370251" lon="2.395445">
        <ele>1336.80</ele>
        <time>2013-09-14T11:19:55.58Z</time>
      </trkpt>
      <trkpt lat="42.370278" lon="2.395422">
        <ele>1337.20</ele>
        <time>2013-09-14T12:19:31.62Z</time>
      </trkpt>
      <trkpt lat="42.370292" lon="2.395412">
        <ele>1337.60</ele>
        <time>2013-09-14T12:49:06.04Z</time>
      </trkpt>
      <trkpt lat="42.370323" lon="2.395388">
        <ele>1338.20</ele>
        <time>2013-09-14T13:55:49.23Z</time>
      </trkpt>
      <trkpt lat="42.370358" lon="2.395364">
        <ele>1338.60</ele>
        <time>2013-09-14T15:09:07.26Z</time>
      </trkpt>
      <trkpt lat="42.370416" lon="2.395320">
        <ele>1339.60</ele>
        <time>2013-09-14T17:13:20.23Z</time>
      </trkpt>
      <trkpt lat="42.370433" lon="2.395308">
        <ele>1339.80</ele>
        <time>2013-09-14T17:49:09.39Z</time>
      </trkpt>
      <trkpt lat="42.370468" lon="2.395283">
        <ele>1340.80</ele>
        <time>2013-09-14T19:03:05.46Z</time>
      </trkpt>
      <trkpt lat="42.370487" lon="2.395269">
        <ele>1341.00</ele>
        <time>2013-09-14T19:43:30.38Z</time>
      </trkpt>
      <trkpt lat="42.370566" lon="2.395214">
        <ele>1342.20</ele>
        <time>2013-09-14T22:29:28.55Z</time>
      </trkpt>
      <trkpt lat="42.370659" lon="2.395136">
        <ele>1343.20</ele>
        <time>2013-09-15T01:53:52.38Z</time>
      </trkpt>
      <trkpt lat="42.370728" lon="2.395074">
        <ele>1344.40</ele>
        <time>2013-09-15T04:28:36Z</time>
      </trkpt>
      <trkpt lat="42.370791" lon="2.395030">
        <ele>1345.20</ele>
        <time>2013-09-15T06:41:02.60Z</time>
      </trkpt>
      <trkpt lat="42.370831" lon="2.394996">
        <ele>1345.60</ele>
        <time>2013-09-15T08:09:17.16Z</time>
      </trkpt>
      <trkpt lat="42.370925" lon="2.394919">
        <ele>1347.00</ele>
        <time>2013-09-15T11:34:33.32Z</time>
      </trkpt>
      <trkpt lat="42.370946" lon="2.394904">
        <ele>1347.40</ele>
        <time>2013-09-15T12:18:54.95Z</time>
      </trkpt>
      <trkpt lat="42.371023" lon="2.394837">
        <ele>1348.20</ele>
        <time>2013-09-15T15:09:55.80Z</time>
      </trkpt>
      <trkpt lat="42.371053" lon="2.394786">
        <ele>1348.80</ele>
        <time>2013-09-15T16:39:54.59Z</time>
      </trkpt>
      <trkpt lat="42.371087" lon="2.394765">
        <ele>1349.40</ele>
        <time>2013-09-15T17:49:43.83Z</time>
      </trkpt>
      <trkpt lat="42.371139" lon="2.394711">
        <ele>1350.40</ele>
        <time>2013-09-15T19:52:10.57Z</time>
      </trkpt>
      <trkpt lat="42.371153" lon="2.394694">
        <ele>1350.80</ele>
        <time>2013-09-15T20:27:18.83Z</time>
      </trkpt>
      <trkpt lat="42.371224" lon="2.394624">
        <ele>1351.80</ele>
        <time>2013-09-15T23:11:24.94Z</time>
      </trkpt>
      <trkpt lat="42.371258" lon="2.394600">
        <ele>1352.60</ele>
        <time>2013-09-16T00:23:03.26Z</time>
      </trkpt>
      <trkpt lat="42.371274" lon="2.394591">
        <ele>1353.00</ele>
        <time>2013-09-16T00:55:25.47Z</time>
      </trkpt>
      <trkpt lat="42.371400" lon="2.394538">
        <ele>1354.00</ele>
        <time>2013-09-16T05:01:55.59Z</time>
      </trkpt>
      <trkpt lat="42.371425" lon="2.394541">
        <ele>1354.00</ele>
        <time>2013-09-16T05:48:48.93Z</time>
      </trkpt>
      <trkpt lat="42.371547" lon="2.394554">
        <ele>1354.40</ele>
        <time>2013-09-16T09:37:26.71Z</time>
      </trkpt>
      <trkpt lat="42.371635" lon="2.394555">
        <ele>1355.20</ele>
        <time>2013-09-16T12:21:51.33Z</time>
      </trkpt>
      <trkpt lat="42.371739" lon="2.394553">
        <ele>1355.60</ele>
        <time>2013-09-16T15:36:10.28Z</time>
      </trkpt>
      <trkpt lat="42.371923" lon="2.394503">
        <ele>1356.40</ele>
        <time>2013-09-16T21:26:47.11Z</time>
      </trkpt>
      <trkpt lat="42.371956" lon="2.394491">
        <ele>1356.60</ele>
        <time>2013-09-16T22:30:37.37Z</time>
      </trkpt>
      <trkpt lat="42.372076" lon="2.394451">
        <ele>1357.40</ele>
        <time>2013-09-17T02:21:30.53Z</time>
      </trkpt>
      <trkpt lat="42.372134" lon="2.394437">
        <ele>1358.00</ele>
        <time>2013-09-17T04:11:34.54Z</time>
      </trkpt>
      <trkpt lat="42.372256" lon="2.394403">
        <ele>1358.60</ele>
        <time>2013-09-17T08:04:16.86Z</time>
      </trkpt>
      <trkpt lat="42.372358" lon="2.394395">
        <ele>1359.60</ele>
        <time>2013-09-17T11:15:09.63Z</time>
      </trkpt>
      <trkpt lat="42.372428" lon="2.394372">
        <ele>1359.80</ele>
        <time>2013-09-17T13:29:44.07Z</time>
      </trkpt>
      <trkpt lat="42.372579" lon="2.394322">
        <ele>1360.80</ele>
        <time>2013-09-17T18:20:09.37Z</time>
      </trkpt>
      <trkpt lat="42.372605" lon="2.394320">
        <ele>1361.20</ele>
        <time>2013-09-17T19:08:48.52Z</time>
      </trkpt>
      <trkpt lat="42.372639" lon="2.394312">
        <ele>1361.40</ele>
        <time>2013-09-17T20:13:16.87Z</time>
      </trkpt>
      <trkpt lat="42.372740" lon="2.394283">
        <ele>1361.80</ele>
        <time>2013-09-17T23:26:10.27Z</time>
      </trkpt>
      <trkpt lat="42.372802" lon="2.394262">
        <ele>1362.20</ele>
        <time>2013-09-18T01:25:34.38Z</time>
      </trkpt>
      <trkpt lat="42.372855" lon="2.394233">
        <ele>1363.20</ele>
        <time>2013-09-18T03:12:22.40Z</time>
      </trkpt>
      <trkpt lat="42.372940" lon="2.394179">
        <ele>1364.00</ele>
        <time>2013-09-18T06:07:47.61Z</time>
      </trkpt>
      <trkpt lat="42.372971" lon="2.394157">
        <ele>1364.20</ele>
        <time>2013-09-18T07:13:11.16Z</time>
      </trkpt>
      <trkpt lat="42.373098" lon="2.394064">
        <ele>1364.60</ele>
        <time>2013-09-18T11:42:56.81Z</time>
      </trkpt>
      <trkpt lat="42.373278" lon="2.393911">
        <ele>1365.40</ele>
        <time>2013-09-18T18:20:02.05Z</time>
      </trkpt>
      <trkpt lat="42.373308" lon="2.393884">
        <ele>1365.40</ele>
        <time>2013-09-18T19:27:20.36Z</time>
      </trkpt>
      <trkpt lat="42.373526" lon="2.393661">
        <ele>1366.40</ele>
        <time>2013-09-19T03:57:49.93Z</time>
      </trkpt>
      <trkpt lat="42.373720" lon="2.393463">
        <ele>1367.20</ele>
        <time>2013-09-19T11:31:44.98Z</time>
      </trkpt>
      <trkpt lat="42.373764" lon="2.393390">
        <ele>1367.40</ele>
        <time>2013-09-19T13:41:46.93Z</time>
      </trkpt>
      <trkpt lat="42.373810" lon="2.393315">
        <ele>1368.20</ele>
        <time>2013-09-19T15:56:19.23Z</time>
      </trkpt>
      <trkpt lat="42.373820" lon="2.393286">
        <ele>1368.80</ele>
        <time>2013-09-19T16:40:29.48Z</time>
      </trkpt>
      <trkpt lat="42.373849" lon="2.393194">
        <ele>1370.00</ele>
        <time>2013-09-19T18:58:32.62Z</time>
      </trkpt>
      <trkpt lat="42.373867" lon="2.393126">
        <ele>1370.60</ele>
        <time>2013-09-19T20:38:14.32Z</time>
      </trkpt>
      <trkpt lat="42.373880" lon="2.393091">
        <ele>1371.00</ele>
        <time>2013-09-19T21:32:18.41Z</time>
      </trkpt>
      <trkpt lat="42.373966" lon="2.392851">
        <ele>1372.00</ele>
        <time>2013-09-20T03:40:27.57Z</time>
      </trkpt>
      <trkpt lat="42.374004" lon="2.392764">
        <ele>1372.40</ele>
        <time>2013-09-20T05:59:57.11Z</time>
      </trkpt>
      <trkpt lat="42.374061" lon="2.392622">
        <ele>1373.40</ele>
        <time>2013-09-20T09:42:59.96Z</time>
      </trkpt>
      <trkpt lat="42.374073" lon="2.392582">
        <ele>1373.60</ele>
        <time>2013-09-20T10:42:35.09Z</time>
      </trkpt>
      <trkpt lat="42.374174" lon="2.392329">
        <ele>1374.60</ele>
        <time>2013-09-20T17:19:29.44Z</time>
      </trkpt>
      <trkpt lat="42.374305" lon="2.392096">
        <ele>1375.80</ele>
        <time>2013-09-21T00:03:36.49Z</time>
      </trkpt>
      <trkpt lat="42.374403" lon="2.391821">
        <ele>1376.40</ele>
        <time>2013-09-21T07:05:00.40Z</time>
      </trkpt>
      <trkpt lat="42.374434" lon="2.391717">
        <ele>1376.80</ele>
        <time>2013-09-21T09:39:47.27Z</time>
      </trkpt>
      <trkpt lat="42.374493" lon="2.391508">
        <ele>1377.60</ele>
        <time>2013-09-21T14:48:35.14Z</time>
      </trkpt>
      <trkpt lat="42.374509" lon="2.391456">
        <ele>1377.60</ele>
        <time>2013-09-21T16:06:19.83Z</time>
      </trkpt>
      <trkpt lat="42.374532" lon="2.391409">
        <ele>1377.80</ele>
        <time>2013-09-21T17:24:08.36Z</time>
      </trkpt>
      <trkpt lat="42.374598" lon="2.391257">
        <ele>1378.60</ele>
        <time>2013-09-21T21:27:28.66Z</time>
      </trkpt>
      <trkpt lat="42.374603" lon="2.391221">
        <ele>1379.00</ele>
        <time>2013-09-21T22:18:02.05Z</time>
      </trkpt>
      <trkpt lat="42.374580" lon="2.391161">
        <ele>1379.60</ele>
        <time>2013-09-21T23:51:19.71Z</time>
      </trkpt>
      <trkpt lat="42.374556" lon="2.391149">
        <ele>1380.00</ele>
        <time>2013-09-22T00:39:07.63Z</time>
      </trkpt>
      <trkpt lat="42.374535" lon="2.391151">
        <ele>1380.40</ele>
        <time>2013-09-22T01:18:27.42Z</time>
      </trkpt>
      <trkpt lat="42.374490" lon="2.391166">
        <ele>1381.00</ele>
        <time>2013-09-22T02:45:02.34Z</time>
      </trkpt>
      <trkpt lat="42.374464" lon="2.391173">
        <ele>1381.40</ele>
        <time>2013-09-22T03:34:33.88Z</time>
      </trkpt>
      <trkpt lat="42.374392" lon="2.391193">
        <ele>1382.40</ele>
        <time>2013-09-22T05:51:52.83Z</time>
      </trkpt>
      <trkpt lat="42.374318" lon="2.391216">
        <ele>1383.60</ele>
        <time>2013-09-22T08:13:43.64Z</time>
      </trkpt>
      <trkpt lat="42.374292" lon="2.391224">
        <ele>1383.80</ele>
        <time>2013-09-22T09:03:32.43Z</time>
      </trkpt>
      <trkpt lat="42.374200" lon="2.391234">
        <ele>1384.80</ele>
        <time>2013-09-22T11:55:58.27Z</time>
      </trkpt>
      <trkpt lat="42.374140" lon="2.391259">
        <ele>1385.60</ele>
        <time>2013-09-22T13:53:15.34Z</time>
      </trkpt>
      <trkpt lat="42.374121" lon="2.391276">
        <ele>1386.00</ele>
        <time>2013-09-22T14:35:48.34Z</time>
      </trkpt>
      <trkpt lat="42.374052" lon="2.391345">
        <ele>1387.20</ele>
        <time>2013-09-22T17:16:04.54Z</time>
      </trkpt>
      <trkpt lat="42.374041" lon="2.391367">
        <ele>1387.40</ele>
        <time>2013-09-22T17:52:44.41Z</time>
      </trkpt>
      <trkpt lat="42.374009" lon="2.391439">
        <ele>1388.60</ele>
        <time>2013-09-22T19:48:42.61Z</time>
      </trkpt>
      <trkpt lat="42.373952" lon="2.391550">
        <ele>1389.60</ele>
        <time>2013-09-22T22:55:17.10Z</time>
      </trkpt>
      <trkpt lat="42.373804" lon="2.391711">
        <ele>1390.80</ele>
        <time>2013-09-23T04:50:00.48Z</time>
      </trkpt>
      <trkpt lat="42.373780" lon="2.391739">
        <ele>1390.80</ele>
        <time>2013-09-23T05:49:12.08Z</time>
      </trkpt>
      <trkpt lat="42.373651" lon="2.391906">
        <ele>1391.80</ele>
        <time>2013-09-23T11:22:40.80Z</time>
      </trkpt>
      <trkpt lat="42.373581" lon="2.391963">
        <ele>1392.60</ele>
        <time>2013-09-23T13:55:17.74Z</time>
      </trkpt>
      <trkpt lat="42.373531" lon="2.392005">
        <ele>1393.00</ele>
        <time>2013-09-23T15:45:13.92Z</time>
      </trkpt>
      <trkpt lat="42.373425" lon="2.392132">
        <ele>1393.80</ele>
        <time>2013-09-23T20:09:41.80Z</time>
      </trkpt>
      <trkpt lat="42.373404" lon="2.392156">
        <ele>1394.00</ele>
        <time>2013-09-23T21:01:02.58Z</time>
      </trkpt>
      <trkpt lat="42.373325" lon="2.392245">
        <ele>1395.40</ele>
        <time>2013-09-24T00:13:03.82Z</time>
      </trkpt>
      <trkpt lat="42.373256" lon="2.392297">
        <ele>1396.20</ele>
        <time>2013-09-24T02:40:36.26Z</time>
      </trkpt>
      <trkpt lat="42.373230" lon="2.392317">
        <ele>1396.40</ele>
        <time>2013-09-24T03:36:28.44Z</time>
      </trkpt>
      <trkpt lat="42.373201" lon="2.392332">
        <ele>1396.60</ele>
        <time>2013-09-24T04:34:28.41Z</time>
      </trkpt>
      <trkpt lat="42.373047" lon="2.392413">
        <ele>1397.20</ele>
        <time>2013-09-24T09:43:08.32Z</time>
      </trkpt>
      <trkpt lat="42.373017" lon="2.392426">
        <ele>1397.80</ele>
        <time>2013-09-24T10:41:59.26Z</time>
      </trkpt>
      <trkpt lat="42.372843" lon="2.392493">
        <ele>1398.80</ele>
        <time>2013-09-24T16:19:57.45Z</time>
      </trkpt>
      <trkpt lat="42.372787" lon="2.392499">
        <ele>1399.40</ele>
        <time>2013-09-24T18:04:54.35Z</time>
      </trkpt>
      <trkpt lat="42.372738" lon="2.392498">
        <ele>1400.00</ele>
        <time>2013-09-24T19:36:27.58Z</time>
      </trkpt>
      <trkpt lat="42.372660" lon="2.392498">
        <ele>1401.00</ele>
        <time>2013-09-24T22:02:10.91Z</time>
      </trkpt>
      <trkpt lat="42.372575" lon="2.392483">
        <ele>1401.80</ele>
        <time>2013-09-25T00:42:19.53Z</time>
      </trkpt>
      <trkpt lat="42.372547" lon="2.392476">
        <ele>1402.20</ele>
        <time>2013-09-25T01:35:31.25Z</time>
      </trkpt>
      <trkpt lat="42.372425" lon="2.392437">
        <ele>1403.20</ele>
        <time>2013-09-25T05:29:42.92Z</time>
      </trkpt>
      <trkpt lat="42.372295" lon="2.392420">
        <ele>1404.00</ele>
        <time>2013-09-25T09:33:42.98Z</time>
      </trkpt>
      <trkpt lat="42.372260" lon="2.392415">
        <ele>1404.20</ele>
        <time>2013-09-25T10:39:28.06Z</time>
      </trkpt>
      <trkpt lat="42.372058" lon="2.392342">
        <ele>1405.20</ele>
        <time>2013-09-25T17:10:04.18Z</time>
      </trkpt>
      <trkpt lat="42.371973" lon="2.392294">
        <ele>1406.60</ele>
        <time>2013-09-25T20:02:08.11Z</time>
      </trkpt>
      <trkpt lat="42.371819" lon="2.392223">
        <ele>1407.40</ele>
        <time>2013-09-26T01:06:04.46Z</time>
      </trkpt>
      <trkpt lat="42.371688" lon="2.392175">
        <ele>1407.80</ele>
        <time>2013-09-26T05:19:37.29Z</time>
      </trkpt>
      <trkpt lat="42.371643" lon="2.392129">
        <ele>1408.20</ele>
        <time>2013-09-26T07:04:58.37Z</time>
      </trkpt>
      <trkpt lat="42.371635" lon="2.392100">
        <ele>1408.40</ele>
        <time>2013-09-26T07:47:41.93Z</time>
      </trkpt>
      <trkpt lat="42.371637" lon="2.392041">
        <ele>1409.00</ele>
        <time>2013-09-26T09:09:13.09Z</time>
      </trkpt>
      <trkpt lat="42.371649" lon="2.392023">
        <ele>1409.40</ele>
        <time>2013-09-26T09:42:40.93Z</time>
      </trkpt>
      <trkpt lat="42.371666" lon="2.392016">
        <ele>1409.60</ele>
        <time>2013-09-26T10:15:52.75Z</time>
      </trkpt>
      <trkpt lat="42.371684" lon="2.392009">
        <ele>1410.20</ele>
        <time>2013-09-26T10:50:52.06Z</time>
      </trkpt>
      <trkpt lat="42.371745" lon="2.391984">
        <ele>1410.80</ele>
        <time>2013-09-26T12:49:56.36Z</time>
      </trkpt>
      <trkpt lat="42.371765" lon="2.391972">
        <ele>1411.20</ele>
        <time>2013-09-26T13:30:48.62Z</time>
      </trkpt>
      <trkpt lat="42.371786" lon="2.391959">
        <ele>1411.40</ele>
        <time>2013-09-26T14:13:57.10Z</time>
      </trkpt>
      <trkpt lat="42.371831" lon="2.391932">
        <ele>1412.40</ele>
        <time>2013-09-26T15:45:54.69Z</time>
      </trkpt>
      <trkpt lat="42.371955" lon="2.391869">
        <ele>1413.60</ele>
        <time>2013-09-26T19:53:21.24Z</time>
      </trkpt>
      <trkpt lat="42.372067" lon="2.391791">
        <ele>1415.00</ele>
        <time>2013-09-26T23:48:40.04Z</time>
      </trkpt>
      <trkpt lat="42.372094" lon="2.391776">
        <ele>1415.20</ele>
        <time>2013-09-27T00:43:11.59Z</time>
      </trkpt>
      <trkpt lat="42.372197" lon="2.391724">
        <ele>1416.00</ele>
        <time>2013-09-27T04:08:34.20Z</time>
      </trkpt>
      <trkpt lat="42.372274" lon="2.391682">
        <ele>1416.80</ele>
        <time>2013-09-27T06:43:39.89Z</time>
      </trkpt>
      <trkpt lat="42.372328" lon="2.391641">
        <ele>1417.00</ele>
        <time>2013-09-27T08:39:20.21Z</time>
      </trkpt>
      <trkpt lat="42.372471" lon="2.391532">
        <ele>1417.80</ele>
        <time>2013-09-27T13:45:56.47Z</time>
      </trkpt>
      <trkpt lat="42.372521" lon="2.391485">
        <ele>1418.20</ele>
        <time>2013-09-27T15:39:40.09Z</time>
      </trkpt>
      <trkpt lat="42.372660" lon="2.391300">
        <ele>1419.20</ele>
        <time>2013-09-27T21:43:51.46Z</time>
      </trkpt>
      <trkpt lat="42.372816" lon="2.391048">
        <ele>1420.20</ele>
        <time>2013-09-28T05:17:38.04Z</time>
      </trkpt>
      <trkpt lat="42.372835" lon="2.391015">
        <ele>1420.40</ele>
        <time>2013-09-28T06:15:22.75Z</time>
      </trkpt>
      <trkpt lat="42.372926" lon="2.390806">
        <ele>1421.60</ele>
        <time>2013-09-28T11:50:12.78Z</time>
      </trkpt>
      <trkpt lat="42.372966" lon="2.390611">
        <ele>1422.60</ele>
        <time>2013-09-28T16:29:32.07Z</time>
      </trkpt>
      <trkpt lat="42.372971" lon="2.390584">
        <ele>1423.00</ele>
        <time>2013-09-28T17:07:57.17Z</time>
      </trkpt>
      <trkpt lat="42.372982" lon="2.390507">
        <ele>1424.00</ele>
        <time>2013-09-28T18:56:11.82Z</time>
      </trkpt>
      <trkpt lat="42.372993" lon="2.390430">
        <ele>1424.80</ele>
        <time>2013-09-28T20:44:26.47Z</time>
      </trkpt>
      <trkpt lat="42.373006" lon="2.390375">
        <ele>1425.60</ele>
        <time>2013-09-28T22:04:08.56Z</time>
      </trkpt>
      <trkpt lat="42.373032" lon="2.390268">
        <ele>1426.80</ele>
        <time>2013-09-29T00:39:36.44Z</time>
      </trkpt>
      <trkpt lat="42.373045" lon="2.390215">
        <ele>1427.20</ele>
        <time>2013-09-29T01:56:41.06Z</time>
      </trkpt>
      <trkpt lat="42.373063" lon="2.390142">
        <ele>1428.20</ele>
        <time>2013-09-29T03:42:54.16Z</time>
      </trkpt>
      <trkpt lat="42.373068" lon="2.390089">
        <ele>1428.80</ele>
        <time>2013-09-29T04:56:38.83Z</time>
      </trkpt>
      <trkpt lat="42.373076" lon="2.390037">
        <ele>1429.40</ele>
        <time>2013-09-29T06:09:57.44Z</time>
      </trkpt>
      <trkpt lat="42.373104" lon="2.389932">
        <ele>1430.20</ele>
        <time>2013-09-29T08:44:01.81Z</time>
      </trkpt>
      <trkpt lat="42.373110" lon="2.389904">
        <ele>1430.60</ele>
        <time>2013-09-29T09:24:16.11Z</time>
      </trkpt>
      <trkpt lat="42.373122" lon="2.389790">
        <ele>1431.80</ele>
        <time>2013-09-29T12:03:12.01Z</time>
      </trkpt>
      <trkpt lat="42.373129" lon="2.389764">
        <ele>1432.00</ele>
        <time>2013-09-29T12:41:23.64Z</time>
      </trkpt>
      <trkpt lat="42.373141" lon="2.389680">
        <ele>1432.80</ele>
        <time>2013-09-29T14:39:28.70Z</time>
      </trkpt>
      <trkpt lat="42.373161" lon="2.389575">
        <ele>1434.00</ele>
        <time>2013-09-29T17:09:08.30Z</time>
      </trkpt>
      <trkpt lat="42.373184" lon="2.389506">
        <ele>1435.00</ele>
        <time>2013-09-29T18:53:37.02Z</time>
      </trkpt>
      <trkpt lat="42.373231" lon="2.389408">
        <ele>1436.40</ele>
        <time>2013-09-29T21:34:52.68Z</time>
      </trkpt>
      <trkpt lat="42.373244" lon="2.389380">
        <ele>1436.60</ele>
        <time>2013-09-29T22:20:31.30Z</time>
      </trkpt>
      <trkpt lat="42.373334" lon="2.389172">
        <ele>1437.20</ele>
        <time>2013-09-30T03:53:13.05Z</time>
      </trkpt>
      <trkpt lat="42.373351" lon="2.389134">
        <ele>1437.40</ele>
        <time>2013-09-30T04:54:31.89Z</time>
      </trkpt>
      <trkpt lat="42.373442" lon="2.388931">
        <ele>1437.60</ele>
        <time>2013-09-30T10:22:15.37Z</time>
      </trkpt>
      <trkpt lat="42.373499" lon="2.388742">
        <ele>1438.60</ele>
        <time>2013-09-30T15:04:00.66Z</time>
      </trkpt>
      <trkpt lat="42.373498" lon="2.388713">
        <ele>1439.00</ele>
        <time>2013-09-30T15:44:04.80Z</time>
      </trkpt>
      <trkpt lat="42.373490" lon="2.388687">
        <ele>1439.20</ele>
        <time>2013-09-30T16:22:57.18Z</time>
      </trkpt>
      <trkpt lat="42.373474" lon="2.388667">
        <ele>1439.60</ele>
        <time>2013-09-30T17:03:38.44Z</time>
      </trkpt>
      <trkpt lat="42.373434" lon="2.388651">
        <ele>1440.20</ele>
        <time>2013-09-30T18:21:33.87Z</time>
      </trkpt>
      <trkpt lat="42.373395" lon="2.388659">
        <ele>1440.80</ele>
        <time>2013-09-30T19:35:15.45Z</time>
      </trkpt>
      <trkpt lat="42.373353" lon="2.388686">
        <ele>1441.20</ele>
        <time>2013-09-30T21:02:07.37Z</time>
      </trkpt>
      <trkpt lat="42.373330" lon="2.388700">
        <ele>1441.60</ele>
        <time>2013-09-30T21:49:14.21Z</time>
      </trkpt>
      <trkpt lat="42.373289" lon="2.388718">
        <ele>1442.20</ele>
        <time>2013-09-30T23:09:45.75Z</time>
      </trkpt>
      <trkpt lat="42.373201" lon="2.388772">
        <ele>1443.20</ele>
        <time>2013-10-01T02:10:16.32Z</time>
      </trkpt>
      <trkpt lat="42.373182" lon="2.388786">
        <ele>1443.60</ele>
        <time>2013-10-01T02:50:41.21Z</time>
      </trkpt>
      <trkpt lat="42.373145" lon="2.388808">
        <ele>1443.80</ele>
        <time>2013-10-01T04:06:11.20Z</time>
      </trkpt>
      <trkpt lat="42.373105" lon="2.388826">
        <ele>1444.40</ele>
        <time>2013-10-01T05:24:56.24Z</time>
      </trkpt>
      <trkpt lat="42.373064" lon="2.388847">
        <ele>1444.80</ele>
        <time>2013-10-01T06:46:50.12Z</time>
      </trkpt>
      <trkpt lat="42.373018" lon="2.388873">
        <ele>1445.60</ele>
        <time>2013-10-01T08:19:57.92Z</time>
      </trkpt>
      <trkpt lat="42.372948" lon="2.388915">
        <ele>1446.80</ele>
        <time>2013-10-01T10:43:00.81Z</time>
      </trkpt>
      <trkpt lat="42.372912" lon="2.388948">
        <ele>1447.20</ele>
        <time>2013-10-01T12:04:14.47Z</time>
      </trkpt>
      <trkpt lat="42.372859" lon="2.388995">
        <ele>1448.00</ele>
        <time>2013-10-01T14:02:36.88Z</time>
      </trkpt>
      <trkpt lat="42.372798" lon="2.389041">
        <ele>1448.60</ele>
        <time>2013-10-01T16:13:04.13Z</time>
      </trkpt>
      <trkpt lat="42.372779" lon="2.389057">
        <ele>1448.80</ele>
        <time>2013-10-01T16:54:52.44Z</time>
      </trkpt>
      <trkpt lat="42.372738" lon="2.389083">
        <ele>1449.00</ele>
        <time>2013-10-01T18:19:27.66Z</time>
      </trkpt>
      <trkpt lat="42.372680" lon="2.389142">
        <ele>1449.40</ele>
        <time>2013-10-01T20:35:00.38Z</time>
      </trkpt>
      <trkpt lat="42.372629" lon="2.389206">
        <ele>1450.20</ele>
        <time>2013-10-01T22:44:56Z</time>
      </trkpt>
      <trkpt lat="42.372550" lon="2.389273">
        <ele>1451.40</ele>
        <time>2013-10-02T01:39:06.07Z</time>
      </trkpt>
      <trkpt lat="42.372528" lon="2.389290">
        <ele>1451.80</ele>
        <time>2013-10-02T02:26:25.68Z</time>
      </trkpt>
      <trkpt lat="42.372460" lon="2.389318">
        <ele>1452.40</ele>
        <time>2013-10-02T04:39:12.96Z</time>
      </trkpt>
      <trkpt lat="42.372395" lon="2.389307">
        <ele>1453.20</ele>
        <time>2013-10-02T06:41:35.80Z</time>
      </trkpt>
      <trkpt lat="42.372358" lon="2.389288">
        <ele>1453.60</ele>
        <time>2013-10-02T07:55:31.71Z</time>
      </trkpt>
      <trkpt lat="42.372333" lon="2.389214">
        <ele>1454.40</ele>
        <time>2013-10-02T09:47:50.21Z</time>
      </trkpt>
      <trkpt lat="42.372329" lon="2.389188">
        <ele>1454.80</ele>
        <time>2013-10-02T10:24:29.54Z</time>
      </trkpt>
      <trkpt lat="42.372325" lon="2.389110">
        <ele>1455.80</ele>
        <time>2013-10-02T12:12:24.49Z</time>
      </trkpt>
      <trkpt lat="42.372321" lon="2.389052">
        <ele>1456.40</ele>
        <time>2013-10-02T13:32:48.52Z</time>
      </trkpt>
      <trkpt lat="42.372322" lon="2.389022">
        <ele>1456.60</ele>
        <time>2013-10-02T14:14:15.43Z</time>
      </trkpt>
      <trkpt lat="42.372317" lon="2.388960">
        <ele>1457.00</ele>
        <time>2013-10-02T15:40:20.34Z</time>
      </trkpt>
      <trkpt lat="42.372296" lon="2.388876">
        <ele>1457.60</ele>
        <time>2013-10-02T17:42:44.12Z</time>
      </trkpt>
      <trkpt lat="42.372278" lon="2.388831">
        <ele>1458.20</ele>
        <time>2013-10-02T18:53:21.86Z</time>
      </trkpt>
      <trkpt lat="42.372224" lon="2.388753">
        <ele>1459.20</ele>
        <time>2013-10-02T21:20:54.20Z</time>
      </trkpt>
      <trkpt lat="42.372206" lon="2.388736">
        <ele>1459.40</ele>
        <time>2013-10-02T22:01:54.49Z</time>
      </trkpt>
      <trkpt lat="42.372128" lon="2.388664">
        <ele>1460.60</ele>
        <time>2013-10-03T00:58:17.39Z</time>
      </trkpt>
      <trkpt lat="42.372092" lon="2.388629">
        <ele>1461.00</ele>
        <time>2013-10-03T02:21:05.83Z</time>
      </trkpt>
      <trkpt lat="42.372018" lon="2.388547">
        <ele>1461.80</ele>
        <time>2013-10-03T05:19:45.90Z</time>
      </trkpt>
      <trkpt lat="42.371979" lon="2.388504">
        <ele>1462.20</ele>
        <time>2013-10-03T06:53:44.34Z</time>
      </trkpt>
      <trkpt lat="42.371903" lon="2.388377">
        <ele>1463.20</ele>
        <time>2013-10-03T10:39:19.09Z</time>
      </trkpt>
      <trkpt lat="42.371872" lon="2.388325">
        <ele>1463.20</ele>
        <time>2013-10-03T12:11:32.56Z</time>
      </trkpt>
      <trkpt lat="42.371825" lon="2.388248">
        <ele>1463.80</ele>
        <time>2013-10-03T14:29:24.06Z</time>
      </trkpt>
      <trkpt lat="42.371728" lon="2.388143">
        <ele>1464.20</ele>
        <time>2013-10-03T18:21:26.53Z</time>
      </trkpt>
      <trkpt lat="42.371708" lon="2.388119">
        <ele>1464.40</ele>
        <time>2013-10-03T19:11:22.58Z</time>
      </trkpt>
      <trkpt lat="42.371547" lon="2.387909">
        <ele>1465.20</ele>
        <time>2013-10-04T02:09:05.36Z</time>
      </trkpt>
      <trkpt lat="42.371517" lon="2.387845">
        <ele>1465.20</ele>
        <time>2013-10-04T03:53:42.26Z</time>
      </trkpt>
      <trkpt lat="42.371436" lon="2.387665">
        <ele>1466.60</ele>
        <time>2013-10-04T08:44:36.32Z</time>
      </trkpt>
      <trkpt lat="42.371388" lon="2.387576">
        <ele>1468.00</ele>
        <time>2013-10-04T11:16:41.75Z</time>
      </trkpt>
      <trkpt lat="42.371343" lon="2.387516">
        <ele>1468.80</ele>
        <time>2013-10-04T13:14:42.27Z</time>
      </trkpt>
      <trkpt lat="42.371328" lon="2.387496">
        <ele>1469.00</ele>
        <time>2013-10-04T13:54:02.44Z</time>
      </trkpt>
      <trkpt lat="42.371276" lon="2.387417">
        <ele>1470.20</ele>
        <time>2013-10-04T16:20:04.75Z</time>
      </trkpt>
      <trkpt lat="42.371248" lon="2.387380">
        <ele>1470.80</ele>
        <time>2013-10-04T17:33:11.08Z</time>
      </trkpt>
      <trkpt lat="42.371222" lon="2.387341">
        <ele>1471.20</ele>
        <time>2013-10-04T18:45:41.40Z</time>
      </trkpt>
      <trkpt lat="42.371172" lon="2.387261">
        <ele>1472.40</ele>
        <time>2013-10-04T21:10:19.27Z</time>
      </trkpt>
      <trkpt lat="42.371134" lon="2.387197">
        <ele>1473.20</ele>
        <time>2013-10-04T23:03:38.92Z</time>
      </trkpt>
      <trkpt lat="42.371123" lon="2.387177">
        <ele>1473.40</ele>
        <time>2013-10-04T23:38:03.79Z</time>
      </trkpt>
      <trkpt lat="42.371082" lon="2.387082">
        <ele>1474.60</ele>
        <time>2013-10-05T02:09:55.18Z</time>
      </trkpt>
      <trkpt lat="42.371054" lon="2.387013">
        <ele>1475.60</ele>
        <time>2013-10-05T03:58:34.63Z</time>
      </trkpt>
      <trkpt lat="42.371013" lon="2.386873">
        <ele>1477.00</ele>
        <time>2013-10-05T07:26:26.35Z</time>
      </trkpt>
      <trkpt lat="42.371007" lon="2.386848">
        <ele>1477.20</ele>
        <time>2013-10-05T08:02:43.22Z</time>
      </trkpt>
      <trkpt lat="42.370992" lon="2.386771">
        <ele>1478.00</ele>
        <time>2013-10-05T09:52:37.90Z</time>
      </trkpt>
      <trkpt lat="42.370986" lon="2.386671">
        <ele>1479.40</ele>
        <time>2013-10-05T12:11:06.63Z</time>
      </trkpt>
      <trkpt lat="42.370992" lon="2.386616">
        <ele>1480.00</ele>
        <time>2013-10-05T13:27:50.83Z</time>
      </trkpt>
      <trkpt lat="42.371000" lon="2.386595">
        <ele>1480.20</ele>
        <time>2013-10-05T14:00:27.52Z</time>
      </trkpt>
      <trkpt lat="42.371011" lon="2.386578">
        <ele>1480.60</ele>
        <time>2013-10-05T14:31:38.99Z</time>
      </trkpt>
      <trkpt lat="42.371046" lon="2.386527">
        <ele>1481.60</ele>
        <time>2013-10-05T16:07:43.59Z</time>
      </trkpt>
      <trkpt lat="42.371073" lon="2.386496">
        <ele>1482.20</ele>
        <time>2013-10-05T17:13:52.31Z</time>
      </trkpt>
      <trkpt lat="42.371099" lon="2.386465">
        <ele>1482.80</ele>
        <time>2013-10-05T18:18:36.22Z</time>
      </trkpt>
      <trkpt lat="42.371126" lon="2.386436">
        <ele>1483.80</ele>
        <time>2013-10-05T19:22:59.86Z</time>
      </trkpt>
      <trkpt lat="42.371153" lon="2.386377">
        <ele>1484.80</ele>
        <time>2013-10-05T20:58:47.33Z</time>
      </trkpt>
      <trkpt lat="42.371201" lon="2.386313">
        <ele>1485.80</ele>
        <time>2013-10-05T23:04:39.90Z</time>
      </trkpt>
      <trkpt lat="42.371239" lon="2.386262">
        <ele>1486.80</ele>
        <time>2013-10-06T00:44:38.41Z</time>
      </trkpt>
      <trkpt lat="42.371252" lon="2.386249">
        <ele>1487.40</ele>
        <time>2013-10-06T01:14:50.19Z</time>
      </trkpt>
      <trkpt lat="42.371314" lon="2.386203">
        <ele>1488.60</ele>
        <time>2013-10-06T03:26:55.60Z</time>
      </trkpt>
      <trkpt lat="42.371343" lon="2.386175">
        <ele>1489.20</ele>
        <time>2013-10-06T04:33:28.60Z</time>
      </trkpt>
      <trkpt lat="42.371367" lon="2.386144">
        <ele>1489.80</ele>
        <time>2013-10-06T05:35:27.22Z</time>
      </trkpt>
      <trkpt lat="42.371428" lon="2.386099">
        <ele>1491.20</ele>
        <time>2013-10-06T07:45:14.55Z</time>
      </trkpt>
      <trkpt lat="42.371443" lon="2.386088">
        <ele>1491.40</ele>
        <time>2013-10-06T08:17:06.87Z</time>
      </trkpt>
      <trkpt lat="42.371473" lon="2.386036">
        <ele>1492.20</ele>
        <time>2013-10-06T09:48:10.67Z</time>
      </trkpt>
      <trkpt lat="42.371504" lon="2.385984">
        <ele>1492.80</ele>
        <time>2013-10-06T11:20:24.16Z</time>
      </trkpt>
      <trkpt lat="42.371513" lon="2.385963">
        <ele>1493.20</ele>
        <time>2013-10-06T11:53:54.68Z</time>
      </trkpt>
      <trkpt lat="42.371564" lon="2.385867">
        <ele>1494.40</ele>
        <time>2013-10-06T14:37:06.85Z</time>
      </trkpt>
      <trkpt lat="42.371584" lon="2.385829">
        <ele>1494.80</ele>
        <time>2013-10-06T15:41:30.68Z</time>
      </trkpt>
      <trkpt lat="42.371633" lon="2.385765">
        <ele>1495.60</ele>
        <time>2013-10-06T17:48:43.48Z</time>
      </trkpt>
      <trkpt lat="42.371661" lon="2.385736">
        <ele>1496.00</ele>
        <time>2013-10-06T18:54:35.53Z</time>
      </trkpt>
      <trkpt lat="42.371688" lon="2.385705">
        <ele>1496.60</ele>
        <time>2013-10-06T20:00:44.23Z</time>
      </trkpt>
      <trkpt lat="42.371755" lon="2.385634">
        <ele>1497.80</ele>
        <time>2013-10-06T22:39:42.38Z</time>
      </trkpt>
      <trkpt lat="42.371817" lon="2.385556">
        <ele>1499.00</ele>
        <time>2013-10-07T01:17:50.52Z</time>
      </trkpt>
      <trkpt lat="42.371829" lon="2.385539">
        <ele>1499.20</ele>
        <time>2013-10-07T01:50:17.66Z</time>
      </trkpt>
      <trkpt lat="42.371869" lon="2.385495">
        <ele>1500.00</ele>
        <time>2013-10-07T03:26:35.32Z</time>
      </trkpt>
      <trkpt lat="42.371918" lon="2.385434">
        <ele>1501.20</ele>
        <time>2013-10-07T05:30:57.73Z</time>
      </trkpt>
      <trkpt lat="42.371982" lon="2.385321">
        <ele>1502.20</ele>
        <time>2013-10-07T08:47:29.13Z</time>
      </trkpt>
      <trkpt lat="42.372008" lon="2.385221">
        <ele>1503.40</ele>
        <time>2013-10-07T11:13:48.34Z</time>
      </trkpt>
      <trkpt lat="42.372011" lon="2.385157">
        <ele>1504.00</ele>
        <time>2013-10-07T12:42:19.05Z</time>
      </trkpt>
      <trkpt lat="42.372028" lon="2.385089">
        <ele>1504.60</ele>
        <time>2013-10-07T14:21:24.04Z</time>
      </trkpt>
      <trkpt lat="42.372064" lon="2.384986">
        <ele>1505.80</ele>
        <time>2013-10-07T16:58:40.21Z</time>
      </trkpt>
      <trkpt lat="42.372080" lon="2.384897">
        <ele>1506.80</ele>
        <time>2013-10-07T19:05:05.67Z</time>
      </trkpt>
      <trkpt lat="42.372089" lon="2.384876">
        <ele>1506.80</ele>
        <time>2013-10-07T19:38:36.18Z</time>
      </trkpt>
      <trkpt lat="42.372095" lon="2.384853">
        <ele>1507.00</ele>
        <time>2013-10-07T20:12:16.14Z</time>
      </trkpt>
      <trkpt lat="42.372105" lon="2.384786">
        <ele>1507.80</ele>
        <time>2013-10-07T21:46:36.72Z</time>
      </trkpt>
      <trkpt lat="42.372107" lon="2.384762">
        <ele>1508.00</ele>
        <time>2013-10-07T22:19:56.84Z</time>
      </trkpt>
      <trkpt lat="42.372128" lon="2.384680">
        <ele>1508.80</ele>
        <time>2013-10-08T00:19:43.95Z</time>
      </trkpt>
      <trkpt lat="42.372130" lon="2.384659">
        <ele>1509.00</ele>
        <time>2013-10-08T00:48:57.42Z</time>
      </trkpt>
      <trkpt lat="42.372155" lon="2.384530">
        <ele>1510.60</ele>
        <time>2013-10-08T03:53:01.76Z</time>
      </trkpt>
      <trkpt lat="42.372156" lon="2.384507">
        <ele>1510.80</ele>
        <time>2013-10-08T04:24:49.76Z</time>
      </trkpt>
      <trkpt lat="42.372164" lon="2.384465">
        <ele>1511.20</ele>
        <time>2013-10-08T05:24:41.65Z</time>
      </trkpt>
      <trkpt lat="42.372176" lon="2.384425">
        <ele>1511.60</ele>
        <time>2013-10-08T06:24:16.87Z</time>
      </trkpt>
      <trkpt lat="42.372178" lon="2.384402">
        <ele>1512.00</ele>
        <time>2013-10-08T06:56:14.72Z</time>
      </trkpt>
      <trkpt lat="42.372186" lon="2.384333">
        <ele>1512.80</ele>
        <time>2013-10-08T08:32:38.76Z</time>
      </trkpt>
      <trkpt lat="42.372200" lon="2.384228">
        <ele>1514.00</ele>
        <time>2013-10-08T10:59:54.62Z</time>
      </trkpt>
      <trkpt lat="42.372214" lon="2.384115">
        <ele>1515.00</ele>
        <time>2013-10-08T13:38:03.17Z</time>
      </trkpt>
      <trkpt lat="42.372234" lon="2.384040">
        <ele>1515.80</ele>
        <time>2013-10-08T15:28:06.37Z</time>
      </trkpt>
      <trkpt lat="42.372250" lon="2.383992">
        <ele>1516.20</ele>
        <time>2013-10-08T16:40:47.28Z</time>
      </trkpt>
      <trkpt lat="42.372280" lon="2.383879">
        <ele>1516.40</ele>
        <time>2013-10-08T19:26:31.03Z</time>
      </trkpt>
      <trkpt lat="42.372307" lon="2.383686">
        <ele>1517.20</ele>
        <time>2013-10-08T23:57:37.96Z</time>
      </trkpt>
      <trkpt lat="42.372305" lon="2.383592">
        <ele>1518.20</ele>
        <time>2013-10-09T02:07:25.61Z</time>
      </trkpt>
      <trkpt lat="42.372303" lon="2.383498">
        <ele>1519.20</ele>
        <time>2013-10-09T04:17:13.25Z</time>
      </trkpt>
      <trkpt lat="42.372304" lon="2.383475">
        <ele>1519.40</ele>
        <time>2013-10-09T04:49:01.24Z</time>
      </trkpt>
      <trkpt lat="42.372306" lon="2.383392">
        <ele>1520.60</ele>
        <time>2013-10-09T06:43:38.37Z</time>
      </trkpt>
      <trkpt lat="42.372295" lon="2.383327">
        <ele>1521.20</ele>
        <time>2013-10-09T08:15:40.63Z</time>
      </trkpt>
      <trkpt lat="42.372289" lon="2.383305">
        <ele>1521.60</ele>
        <time>2013-10-09T08:48:02.70Z</time>
      </trkpt>
      <trkpt lat="42.372277" lon="2.383221">
        <ele>1522.80</ele>
        <time>2013-10-09T10:46:07.85Z</time>
      </trkpt>
      <trkpt lat="42.372279" lon="2.383153">
        <ele>1523.60</ele>
        <time>2013-10-09T12:20:03.59Z</time>
      </trkpt>
      <trkpt lat="42.372280" lon="2.383126">
        <ele>1524.00</ele>
        <time>2013-10-09T12:57:22.35Z</time>
      </trkpt>
      <trkpt lat="42.372295" lon="2.383038">
        <ele>1525.20</ele>
        <time>2013-10-09T15:02:01.35Z</time>
      </trkpt>
      <trkpt lat="42.372313" lon="2.382936">
        <ele>1526.20</ele>
        <time>2013-10-09T17:26:45.90Z</time>
      </trkpt>
      <trkpt lat="42.372324" lon="2.382878">
        <ele>1527.20</ele>
        <time>2013-10-09T18:49:24.80Z</time>
      </trkpt>
      <trkpt lat="42.372326" lon="2.382858">
        <ele>1527.20</ele>
        <time>2013-10-09T19:17:16.16Z</time>
      </trkpt>
      <trkpt lat="42.372332" lon="2.382756">
        <ele>1528.40</ele>
        <time>2013-10-09T21:38:29.81Z</time>
      </trkpt>
      <trkpt lat="42.372325" lon="2.382691">
        <ele>1529.20</ele>
        <time>2013-10-09T23:09:09.54Z</time>
      </trkpt>
      <trkpt lat="42.372316" lon="2.382648">
        <ele>1529.60</ele>
        <time>2013-10-10T00:10:50.64Z</time>
      </trkpt>
      <trkpt lat="42.372281" lon="2.382556">
        <ele>1530.80</ele>
        <time>2013-10-10T02:33:40.25Z</time>
      </trkpt>
      <trkpt lat="42.372273" lon="2.382540">
        <ele>1531.00</ele>
        <time>2013-10-10T03:00:20.19Z</time>
      </trkpt>
      <trkpt lat="42.372248" lon="2.382439">
        <ele>1532.00</ele>
        <time>2013-10-10T05:27:21.28Z</time>
      </trkpt>
      <trkpt lat="42.372237" lon="2.382393">
        <ele>1532.20</ele>
        <time>2013-10-10T06:34:05.26Z</time>
      </trkpt>
      <trkpt lat="42.372204" lon="2.382312">
        <ele>1533.20</ele>
        <time>2013-10-10T08:41:45.47Z</time>
      </trkpt>
      <trkpt lat="42.372193" lon="2.382246">
        <ele>1534.00</ele>
        <time>2013-10-10T10:15:08.49Z</time>
      </trkpt>
      <trkpt lat="42.372190" lon="2.382224">
        <ele>1534.20</ele>
        <time>2013-10-10T10:46:01.15Z</time>
      </trkpt>
      <trkpt lat="42.372166" lon="2.382139">
        <ele>1535.40</ele>
        <time>2013-10-10T12:51:36.84Z</time>
      </trkpt>
      <trkpt lat="42.372142" lon="2.382081">
        <ele>1536.00</ele>
        <time>2013-10-10T14:23:22.10Z</time>
      </trkpt>
      <trkpt lat="42.372126" lon="2.382046">
        <ele>1536.60</ele>
        <time>2013-10-10T15:20:10.58Z</time>
      </trkpt>
      <trkpt lat="42.372101" lon="2.381969">
        <ele>1537.80</ele>
        <time>2013-10-10T17:16:15.80Z</time>
      </trkpt>
      <trkpt lat="42.372089" lon="2.381928">
        <ele>1538.40</ele>
        <time>2013-10-10T18:17:07.89Z</time>
      </trkpt>
      <trkpt lat="42.372081" lon="2.381907">
        <ele>1539.00</ele>
        <time>2013-10-10T18:49:44.56Z</time>
      </trkpt>
      <trkpt lat="42.372056" lon="2.381799">
        <ele>1540.00</ele>
        <time>2013-10-10T21:25:57.14Z</time>
      </trkpt>
      <trkpt lat="42.372052" lon="2.381780">
        <ele>1540.20</ele>
        <time>2013-10-10T21:53:13.23Z</time>
      </trkpt>
      <trkpt lat="42.372035" lon="2.381725">
        <ele>1541.20</ele>
        <time>2013-10-10T23:15:30.52Z</time>
      </trkpt>
      <trkpt lat="42.372018" lon="2.381627">
        <ele>1542.20</ele>
        <time>2013-10-11T01:34:26.95Z</time>
      </trkpt>
      <trkpt lat="42.372016" lon="2.381609">
        <ele>1542.40</ele>
        <time>2013-10-11T01:59:34.35Z</time>
      </trkpt>
      <trkpt lat="42.371993" lon="2.381527">
        <ele>1543.60</ele>
        <time>2013-10-11T04:00:37.99Z</time>
      </trkpt>
      <trkpt lat="42.371981" lon="2.381474">
        <ele>1544.40</ele>
        <time>2013-10-11T05:17:08.59Z</time>
      </trkpt>
      <trkpt lat="42.371978" lon="2.381454">
        <ele>1544.60</ele>
        <time>2013-10-11T05:45:18.66Z</time>
      </trkpt>
      <trkpt lat="42.371972" lon="2.381420">
        <ele>1545.40</ele>
        <time>2013-10-11T06:33:33.52Z</time>
      </trkpt>
      <trkpt lat="42.371972" lon="2.381401">
        <ele>1545.60</ele>
        <time>2013-10-11T06:59:46.98Z</time>
      </trkpt>
      <trkpt lat="42.371950" lon="2.381308">
        <ele>1546.80</ele>
        <time>2013-10-11T09:14:33.81Z</time>
      </trkpt>
      <trkpt lat="42.371942" lon="2.381291">
        <ele>1547.00</ele>
        <time>2013-10-11T09:42:22.98Z</time>
      </trkpt>
      <trkpt lat="42.371938" lon="2.381270">
        <ele>1547.00</ele>
        <time>2013-10-11T10:12:18.94Z</time>
      </trkpt>
      <trkpt lat="42.371916" lon="2.381214">
        <ele>1547.80</ele>
        <time>2013-10-11T11:39:51.40Z</time>
      </trkpt>
      <trkpt lat="42.371907" lon="2.381197">
        <ele>1548.00</ele>
        <time>2013-10-11T12:08:43.38Z</time>
      </trkpt>
      <trkpt lat="42.371900" lon="2.381182">
        <ele>1548.20</ele>
        <time>2013-10-11T12:33:12.65Z</time>
      </trkpt>
      <trkpt lat="42.371890" lon="2.381174">
        <ele>1548.60</ele>
        <time>2013-10-11T12:54:54.73Z</time>
      </trkpt>
      <trkpt lat="42.371883" lon="2.381164">
        <ele>1548.80</ele>
        <time>2013-10-11T13:13:55.57Z</time>
      </trkpt>
      <trkpt lat="42.371848" lon="2.381134">
        <ele>1550.00</ele>
        <time>2013-10-11T14:31:19.32Z</time>
      </trkpt>
      <trkpt lat="42.371802" lon="2.381106">
        <ele>1551.00</ele>
        <time>2013-10-11T16:05:33.03Z</time>
      </trkpt>
      <trkpt lat="42.371783" lon="2.381099">
        <ele>1552.40</ele>
        <time>2013-10-11T16:42:20.30Z</time>
      </trkpt>
      <trkpt lat="42.371765" lon="2.381092">
        <ele>1552.60</ele>
        <time>2013-10-11T17:17:19.62Z</time>
      </trkpt>
      <trkpt lat="42.371752" lon="2.381092">
        <ele>1553.00</ele>
        <time>2013-10-11T17:41:36.84Z</time>
      </trkpt>
      <trkpt lat="42.371722" lon="2.381092">
        <ele>1553.40</ele>
        <time>2013-10-11T18:37:39.66Z</time>
      </trkpt>
      <trkpt lat="42.371706" lon="2.381083">
        <ele>1553.60</ele>
        <time>2013-10-11T19:10:01.87Z</time>
      </trkpt>
      <trkpt lat="42.371676" lon="2.381067">
        <ele>1554.40</ele>
        <time>2013-10-11T20:10:16.31Z</time>
      </trkpt>
      <trkpt lat="42.371662" lon="2.381063">
        <ele>1554.60</ele>
        <time>2013-10-11T20:37:00.21Z</time>
      </trkpt>
      <trkpt lat="42.371614" lon="2.381067">
        <ele>1555.20</ele>
        <time>2013-10-11T22:06:50.91Z</time>
      </trkpt>
      <trkpt lat="42.371600" lon="2.381070">
        <ele>1555.60</ele>
        <time>2013-10-11T22:33:19.77Z</time>
      </trkpt>
      <trkpt lat="42.371590" lon="2.381070">
        <ele>1556.00</ele>
        <time>2013-10-11T22:52:00.71Z</time>
      </trkpt>
      <trkpt lat="42.371554" lon="2.381066">
        <ele>1556.80</ele>
        <time>2013-10-11T23:59:29.67Z</time>
      </trkpt>
      <trkpt lat="42.371507" lon="2.381049">
        <ele>1557.60</ele>
        <time>2013-10-12T01:30:22.94Z</time>
      </trkpt>
      <trkpt lat="42.371492" lon="2.381039">
        <ele>1558.00</ele>
        <time>2013-10-12T02:01:37.23Z</time>
      </trkpt>
      <trkpt lat="42.371434" lon="2.381025">
        <ele>1559.00</ele>
        <time>2013-10-12T03:51:41.25Z</time>
      </trkpt>
      <trkpt lat="42.371421" lon="2.381030">
        <ele>1559.40</ele>
        <time>2013-10-12T04:16:56.16Z</time>
      </trkpt>
      <trkpt lat="42.371378" lon="2.381058">
        <ele>1560.20</ele>
        <time>2013-10-12T05:46:04.96Z</time>
      </trkpt>
      <trkpt lat="42.371356" lon="2.381076">
        <ele>1560.60</ele>
        <time>2013-10-12T06:34:06.55Z</time>
      </trkpt>
      <trkpt lat="42.371339" lon="2.381083">
        <ele>1560.80</ele>
        <time>2013-10-12T07:07:18.37Z</time>
      </trkpt>
      <trkpt lat="42.371310" lon="2.381091">
        <ele>1561.40</ele>
        <time>2013-10-12T08:02:35.92Z</time>
      </trkpt>
      <trkpt lat="42.371276" lon="2.381062">
        <ele>1562.40</ele>
        <time>2013-10-12T09:17:40.69Z</time>
      </trkpt>
      <trkpt lat="42.371256" lon="2.381028">
        <ele>1562.60</ele>
        <time>2013-10-12T10:17:39.87Z</time>
      </trkpt>
      <trkpt lat="42.371214" lon="2.380932">
        <ele>1563.60</ele>
        <time>2013-10-12T12:51:39.47Z</time>
      </trkpt>
      <trkpt lat="42.371178" lon="2.380838">
        <ele>1564.60</ele>
        <time>2013-10-12T15:17:47.80Z</time>
      </trkpt>
      <trkpt lat="42.371172" lon="2.380822">
        <ele>1564.80</ele>
        <time>2013-10-12T15:42:33.75Z</time>
      </trkpt>
      <trkpt lat="42.371149" lon="2.380769">
        <ele>1565.60</ele>
        <time>2013-10-12T17:07:24.10Z</time>
      </trkpt>
      <trkpt lat="42.371124" lon="2.380720">
        <ele>1566.40</ele>
        <time>2013-10-12T18:29:35.61Z</time>
      </trkpt>
      <trkpt lat="42.371104" lon="2.380690">
        <ele>1567.00</ele>
        <time>2013-10-12T19:25:22.02Z</time>
      </trkpt>
      <trkpt lat="42.371082" lon="2.380644">
        <ele>1567.80</ele>
        <time>2013-10-12T20:41:00.03Z</time>
      </trkpt>
      <trkpt lat="42.371072" lon="2.380628">
        <ele>1568.00</ele>
        <time>2013-10-12T21:09:55.61Z</time>
      </trkpt>
      <trkpt lat="42.371007" lon="2.380572">
        <ele>1569.20</ele>
        <time>2013-10-12T23:33:52.44Z</time>
      </trkpt>
      <trkpt lat="42.370995" lon="2.380559">
        <ele>1569.60</ele>
        <time>2013-10-13T00:02:35.35Z</time>
      </trkpt>
      <trkpt lat="42.370959" lon="2.380518">
        <ele>1570.40</ele>
        <time>2013-10-13T01:30:29.16Z</time>
      </trkpt>
      <trkpt lat="42.370905" lon="2.380478">
        <ele>1571.00</ele>
        <time>2013-10-13T03:25:29.38Z</time>
      </trkpt>
      <trkpt lat="42.370873" lon="2.380455">
        <ele>1571.40</ele>
        <time>2013-10-13T04:33:10.74Z</time>
      </trkpt>
      <trkpt lat="42.370798" lon="2.380413">
        <ele>1572.60</ele>
        <time>2013-10-13T07:04:48.90Z</time>
      </trkpt>
      <trkpt lat="42.370782" lon="2.380407">
        <ele>1572.80</ele>
        <time>2013-10-13T07:35:49.97Z</time>
      </trkpt>
      <trkpt lat="42.370713" lon="2.380363">
        <ele>1573.60</ele>
        <time>2013-10-13T09:58:19.82Z</time>
      </trkpt>
      <trkpt lat="42.370661" lon="2.380331">
        <ele>1574.00</ele>
        <time>2013-10-13T11:45:02.86Z</time>
      </trkpt>
      <trkpt lat="42.370597" lon="2.380300">
        <ele>1574.80</ele>
        <time>2013-10-13T13:52:02.40Z</time>
      </trkpt>
      <trkpt lat="42.370519" lon="2.380237">
        <ele>1575.60</ele>
        <time>2013-10-13T16:41:44.08Z</time>
      </trkpt>
      <trkpt lat="42.370486" lon="2.380216">
        <ele>1576.00</ele>
        <time>2013-10-13T17:49:51.61Z</time>
      </trkpt>
      <trkpt lat="42.370369" lon="2.380191">
        <ele>1577.00</ele>
        <time>2013-10-13T21:31:09.02Z</time>
      </trkpt>
      <trkpt lat="42.370229" lon="2.380192">
        <ele>1577.20</ele>
        <time>2013-10-14T01:52:42.40Z</time>
      </trkpt>
      <trkpt lat="42.370090" lon="2.380124">
        <ele>1577.40</ele>
        <time>2013-10-14T06:28:49.94Z</time>
      </trkpt>
      <trkpt lat="42.369914" lon="2.380091">
        <ele>1577.00</ele>
        <time>2013-10-14T12:00:46.87Z</time>
      </trkpt>
      <trkpt lat="42.369862" lon="2.380099">
        <ele>1576.00</ele>
        <time>2013-10-14T13:38:33.29Z</time>
      </trkpt>
      <trkpt lat="42.369838" lon="2.380110">
        <ele>1575.40</ele>
        <time>2013-10-14T14:25:53.60Z</time>
      </trkpt>
      <trkpt lat="42.369811" lon="2.380118">
        <ele>1574.60</ele>
        <time>2013-10-14T15:17:31.81Z</time>
      </trkpt>
      <trkpt lat="42.369784" lon="2.380113">
        <ele>1574.20</ele>
        <time>2013-10-14T16:08:26.54Z</time>
      </trkpt>
      <trkpt lat="42.369728" lon="2.380074">
        <ele>1573.00</ele>
        <time>2013-10-14T18:06:06Z</time>
      </trkpt>
      <trkpt lat="42.369706" lon="2.380045">
        <ele>1572.20</ele>
        <time>2013-10-14T19:03:28.31Z</time>
      </trkpt>
      <trkpt lat="42.369685" lon="2.380021">
        <ele>1571.60</ele>
        <time>2013-10-14T19:54:49.18Z</time>
      </trkpt>
      <trkpt lat="42.369675" lon="2.379990">
        <ele>1571.00</ele>
        <time>2013-10-14T20:41:30.53Z</time>
      </trkpt>
      <trkpt lat="42.369676" lon="2.379963">
        <ele>1570.40</ele>
        <time>2013-10-14T21:18:49.38Z</time>
      </trkpt>
      <trkpt lat="42.369674" lon="2.379942">
        <ele>1570.00</ele>
        <time>2013-10-14T21:48:02.91Z</time>
      </trkpt>
      <trkpt lat="42.369585" lon="2.379861">
        <ele>1568.00</ele>
        <time>2013-10-15T01:08:24.85Z</time>
      </trkpt>
      <trkpt lat="42.369579" lon="2.379850">
        <ele>1567.80</ele>
        <time>2013-10-15T01:27:17.21Z</time>
      </trkpt>
      <trkpt lat="42.369472" lon="2.379761">
        <ele>1564.80</ele>
        <time>2013-10-15T05:21:55Z</time>
      </trkpt>
      <trkpt lat="42.369454" lon="2.379749">
        <ele>1564.60</ele>
        <time>2013-10-15T05:59:24.16Z</time>
      </trkpt>
      <trkpt lat="42.369407" lon="2.379711">
        <ele>1563.60</ele>
        <time>2013-10-15T07:41:40.94Z</time>
      </trkpt>
      <trkpt lat="42.369390" lon="2.379694">
        <ele>1563.20</ele>
        <time>2013-10-15T08:21:10.21Z</time>
      </trkpt>
      <trkpt lat="42.369360" lon="2.379656">
        <ele>1562.40</ele>
        <time>2013-10-15T09:37:55.91Z</time>
      </trkpt>
      <trkpt lat="42.369335" lon="2.379568">
        <ele>1561.80</ele>
        <time>2013-10-15T11:48:04.01Z</time>
      </trkpt>
      <trkpt lat="42.369299" lon="2.379513">
        <ele>1561.80</ele>
        <time>2013-10-15T13:29:29.37Z</time>
      </trkpt>
      <trkpt lat="42.369283" lon="2.379504">
        <ele>1561.80</ele>
        <time>2013-10-15T14:01:51.59Z</time>
      </trkpt>
      <trkpt lat="42.369201" lon="2.379421">
        <ele>1562.40</ele>
        <time>2013-10-15T17:13:09.25Z</time>
      </trkpt>
      <trkpt lat="42.369103" lon="2.379352">
        <ele>1562.40</ele>
        <time>2013-10-15T20:39:31.86Z</time>
      </trkpt>
      <trkpt lat="42.369048" lon="2.379304">
        <ele>1561.80</ele>
        <time>2013-10-15T22:41:47.51Z</time>
      </trkpt>
      <trkpt lat="42.368989" lon="2.379265">
        <ele>1560.40</ele>
        <time>2013-10-16T00:44:27.61Z</time>
      </trkpt>
      <trkpt lat="42.368911" lon="2.379196">
        <ele>1559.40</ele>
        <time>2013-10-16T03:38:32.72Z</time>
      </trkpt>
      <trkpt lat="42.368889" lon="2.379168">
        <ele>1559.20</ele>
        <time>2013-10-16T04:34:57.79Z</time>
      </trkpt>
      <trkpt lat="42.368762" lon="2.378989">
        <ele>1558.20</ele>
        <time>2013-10-16T10:17:30.72Z</time>
      </trkpt>
      <trkpt lat="42.368729" lon="2.378982">
        <ele>1558.40</ele>
        <time>2013-10-16T11:19:54.98Z</time>
      </trkpt>
      <trkpt lat="42.368685" lon="2.378977">
        <ele>1558.40</ele>
        <time>2013-10-16T12:42:24.47Z</time>
      </trkpt>
      <trkpt lat="42.368638" lon="2.378943">
        <ele>1558.20</ele>
        <time>2013-10-16T14:21:58.16Z</time>
      </trkpt>
      <trkpt lat="42.368579" lon="2.378882">
        <ele>1558.40</ele>
        <time>2013-10-16T16:40:40.45Z</time>
      </trkpt>
      <trkpt lat="42.368474" lon="2.378911">
        <ele>1558.80</ele>
        <time>2013-10-16T20:00:52.87Z</time>
      </trkpt>
      <trkpt lat="42.368408" lon="2.378938">
        <ele>1559.40</ele>
        <time>2013-10-16T22:09:41.61Z</time>
      </trkpt>
      <trkpt lat="42.368339" lon="2.378934">
        <ele>1559.60</ele>
        <time>2013-10-17T00:18:43.19Z</time>
      </trkpt>
      <trkpt lat="42.368252" lon="2.378998">
        <ele>1559.40</ele>
        <time>2013-10-17T03:23:42.69Z</time>
      </trkpt>
      <trkpt lat="42.368224" lon="2.379010">
        <ele>1559.40</ele>
        <time>2013-10-17T04:18:34.90Z</time>
      </trkpt>
      <trkpt lat="42.368122" lon="2.379034">
        <ele>1559.00</ele>
        <time>2013-10-17T07:31:59.98Z</time>
      </trkpt>
      <trkpt lat="42.368030" lon="2.379064">
        <ele>1558.40</ele>
        <time>2013-10-17T10:28:47.70Z</time>
      </trkpt>
      <trkpt lat="42.367968" lon="2.379086">
        <ele>1557.80</ele>
        <time>2013-10-17T12:28:32.39Z</time>
      </trkpt>
      <trkpt lat="42.367927" lon="2.379098">
        <ele>1557.00</ele>
        <time>2013-10-17T13:46:54.47Z</time>
      </trkpt>
      <trkpt lat="42.367892" lon="2.379118">
        <ele>1556.80</ele>
        <time>2013-10-17T14:57:53.08Z</time>
      </trkpt>
      <trkpt lat="42.367771" lon="2.379196">
        <ele>1556.20</ele>
        <time>2013-10-17T19:08:16.24Z</time>
      </trkpt>
      <trkpt lat="42.367742" lon="2.379218">
        <ele>1556.00</ele>
        <time>2013-10-17T20:10:22.76Z</time>
      </trkpt>
      <trkpt lat="42.367648" lon="2.379296">
        <ele>1555.60</ele>
        <time>2013-10-17T23:36:22.17Z</time>
      </trkpt>
      <trkpt lat="42.367522" lon="2.379382">
        <ele>1555.60</ele>
        <time>2013-10-18T04:00:00.27Z</time>
      </trkpt>
      <trkpt lat="42.367365" lon="2.379554">
        <ele>1556.00</ele>
        <time>2013-10-18T10:17:21.70Z</time>
      </trkpt>
      <trkpt lat="42.367252" lon="2.379629">
        <ele>1555.20</ele>
        <time>2013-10-18T14:12:29.34Z</time>
      </trkpt>
      <trkpt lat="42.367213" lon="2.379635">
        <ele>1555.20</ele>
        <time>2013-10-18T15:25:49.16Z</time>
      </trkpt>
      <trkpt lat="42.367172" lon="2.379649">
        <ele>1555.00</ele>
        <time>2013-10-18T16:44:49.02Z</time>
      </trkpt>
      <trkpt lat="42.367148" lon="2.379644">
        <ele>1554.80</ele>
        <time>2013-10-18T17:30:10.96Z</time>
      </trkpt>
      <trkpt lat="42.367120" lon="2.379635">
        <ele>1554.40</ele>
        <time>2013-10-18T18:23:56.88Z</time>
      </trkpt>
      <trkpt lat="42.367057" lon="2.379653">
        <ele>1553.60</ele>
        <time>2013-10-18T20:24:14.44Z</time>
      </trkpt>
      <trkpt lat="42.367031" lon="2.379674">
        <ele>1553.40</ele>
        <time>2013-10-18T21:20:48.38Z</time>
      </trkpt>
      <trkpt lat="42.366885" lon="2.379747">
        <ele>1552.60</ele>
        <time>2013-10-19T02:11:35.14Z</time>
      </trkpt>
      <trkpt lat="42.366846" lon="2.379763">
        <ele>1552.40</ele>
        <time>2013-10-19T03:27:43.23Z</time>
      </trkpt>
      <trkpt lat="42.366766" lon="2.379809">
        <ele>1552.00</ele>
        <time>2013-10-19T06:10:06.45Z</time>
      </trkpt>
      <trkpt lat="42.366679" lon="2.379853">
        <ele>1551.80</ele>
        <time>2013-10-19T09:03:37.24Z</time>
      </trkpt>
      <trkpt lat="42.366587" lon="2.379895">
        <ele>1551.60</ele>
        <time>2013-10-19T12:05:00.73Z</time>
      </trkpt>
      <trkpt lat="42.366518" lon="2.379899">
        <ele>1551.60</ele>
        <time>2013-10-19T14:14:02.31Z</time>
      </trkpt>
      <trkpt lat="42.366433" lon="2.379929">
        <ele>1551.40</ele>
        <time>2013-10-19T16:58:08.93Z</time>
      </trkpt>
      <trkpt lat="42.366373" lon="2.379956">
        <ele>1551.20</ele>
        <time>2013-10-19T18:56:16.57Z</time>
      </trkpt>
      <trkpt lat="42.366205" lon="2.380038">
        <ele>1550.20</ele>
        <time>2013-10-20T00:29:55.52Z</time>
      </trkpt>
      <trkpt lat="42.366148" lon="2.380054">
        <ele>1549.40</ele>
        <time>2013-10-20T02:18:40.84Z</time>
      </trkpt>
      <trkpt lat="42.366092" lon="2.380066">
        <ele>1549.20</ele>
        <time>2013-10-20T04:04:36.30Z</time>
      </trkpt>
      <trkpt lat="42.365858" lon="2.380093">
        <ele>1548.20</ele>
        <time>2013-10-20T11:23:21.44Z</time>
      </trkpt>
      <trkpt lat="42.365792" lon="2.380104">
        <ele>1547.60</ele>
        <time>2013-10-20T13:27:35.53Z</time>
      </trkpt>
      <trkpt lat="42.365582" lon="2.380145">
        <ele>1546.40</ele>
        <time>2013-10-20T20:03:58.93Z</time>
      </trkpt>
      <trkpt lat="42.365509" lon="2.380168">
        <ele>1545.60</ele>
        <time>2013-10-20T22:24:00.59Z</time>
      </trkpt>
      <trkpt lat="42.365432" lon="2.380186">
        <ele>1545.00</ele>
        <time>2013-10-21T00:49:59.63Z</time>
      </trkpt>
      <trkpt lat="42.365275" lon="2.380201">
        <ele>1544.40</ele>
        <time>2013-10-21T05:44:02.18Z</time>
      </trkpt>
      <trkpt lat="42.365134" lon="2.380147">
        <ele>1544.00</ele>
        <time>2013-10-21T10:17:48.03Z</time>
      </trkpt>
      <trkpt lat="42.365084" lon="2.380113">
        <ele>1543.80</ele>
        <time>2013-10-21T12:02:20.38Z</time>
      </trkpt>
      <trkpt lat="42.365041" lon="2.380106">
        <ele>1543.20</ele>
        <time>2013-10-21T13:23:15.16Z</time>
      </trkpt>
      <trkpt lat="42.365009" lon="2.380119">
        <ele>1543.00</ele>
        <time>2013-10-21T14:25:40.28Z</time>
      </trkpt>
      <trkpt lat="42.364987" lon="2.380163">
        <ele>1542.60</ele>
        <time>2013-10-21T15:39:00.46Z</time>
      </trkpt>
      <trkpt lat="42.364941" lon="2.380288">
        <ele>1542.00</ele>
        <time>2013-10-21T18:51:46.31Z</time>
      </trkpt>
      <trkpt lat="42.364805" lon="2.380464">
        <ele>1541.60</ele>
        <time>2013-10-22T00:43:18.64Z</time>
      </trkpt>
      <trkpt lat="42.364748" lon="2.380517">
        <ele>1541.40</ele>
        <time>2013-10-22T02:52:30.58Z</time>
      </trkpt>
      <trkpt lat="42.364696" lon="2.380578">
        <ele>1541.00</ele>
        <time>2013-10-22T05:01:04.25Z</time>
      </trkpt>
      <trkpt lat="42.364646" lon="2.380646">
        <ele>1540.00</ele>
        <time>2013-10-22T07:13:29.80Z</time>
      </trkpt>
      <trkpt lat="42.364527" lon="2.380763">
        <ele>1539.00</ele>
        <time>2013-10-22T11:48:17.24Z</time>
      </trkpt>
      <trkpt lat="42.364395" lon="2.380936">
        <ele>1537.60</ele>
        <time>2013-10-22T17:31:34.27Z</time>
      </trkpt>
      <trkpt lat="42.364373" lon="2.381012">
        <ele>1536.80</ele>
        <time>2013-10-22T19:24:14.69Z</time>
      </trkpt>
      <trkpt lat="42.364326" lon="2.381159">
        <ele>1536.40</ele>
        <time>2013-10-22T23:05:20.73Z</time>
      </trkpt>
      <trkpt lat="42.364231" lon="2.381376">
        <ele>1536.00</ele>
        <time>2013-10-23T04:53:31.35Z</time>
      </trkpt>
      <trkpt lat="42.364135" lon="2.381528">
        <ele>1535.20</ele>
        <time>2013-10-23T09:29:32.97Z</time>
      </trkpt>
      <trkpt lat="42.364081" lon="2.381597">
        <ele>1535.20</ele>
        <time>2013-10-23T11:48:17.58Z</time>
      </trkpt>
      <trkpt lat="42.363974" lon="2.381731">
        <ele>1534.60</ele>
        <time>2013-10-23T16:20:38.69Z</time>
      </trkpt>
      <trkpt lat="42.363914" lon="2.381791">
        <ele>1533.80</ele>
        <time>2013-10-23T18:40:01.08Z</time>
      </trkpt>
      <trkpt lat="42.363717" lon="2.381956">
        <ele>1532.80</ele>
        <time>2013-10-24T01:52:50.23Z</time>
      </trkpt>
      <trkpt lat="42.363649" lon="2.382011">
        <ele>1532.20</ele>
        <time>2013-10-24T04:20:50.09Z</time>
      </trkpt>
      <trkpt lat="42.363577" lon="2.382068">
        <ele>1531.60</ele>
        <time>2013-10-24T06:56:40.23Z</time>
      </trkpt>
      <trkpt lat="42.363438" lon="2.382185">
        <ele>1530.20</ele>
        <time>2013-10-24T12:02:28.93Z</time>
      </trkpt>
      <trkpt lat="42.363297" lon="2.382289">
        <ele>1529.20</ele>
        <time>2013-10-24T17:02:29.02Z</time>
      </trkpt>
      <trkpt lat="42.363227" lon="2.382336">
        <ele>1529.00</ele>
        <time>2013-10-24T19:28:28.16Z</time>
      </trkpt>
      <trkpt lat="42.363090" lon="2.382436">
        <ele>1528.20</ele>
        <time>2013-10-25T00:19:16.18Z</time>
      </trkpt>
      <trkpt lat="42.362956" lon="2.382520">
        <ele>1527.00</ele>
        <time>2013-10-25T04:55:09.81Z</time>
      </trkpt>
      <trkpt lat="42.362822" lon="2.382586">
        <ele>1526.60</ele>
        <time>2013-10-25T09:21:34.20Z</time>
      </trkpt>
      <trkpt lat="42.362678" lon="2.382633">
        <ele>1525.60</ele>
        <time>2013-10-25T13:58:18.51Z</time>
      </trkpt>
      <trkpt lat="42.362555" lon="2.382625">
        <ele>1524.40</ele>
        <time>2013-10-25T17:48:21.98Z</time>
      </trkpt>
      <trkpt lat="42.362482" lon="2.382586">
        <ele>1523.00</ele>
        <time>2013-10-25T20:14:59.34Z</time>
      </trkpt>
      <trkpt lat="42.362474" lon="2.382553">
        <ele>1522.60</ele>
        <time>2013-10-25T21:02:55.94Z</time>
      </trkpt>
      <trkpt lat="42.362477" lon="2.382448">
        <ele>1522.40</ele>
        <time>2013-10-25T23:27:59.16Z</time>
      </trkpt>
      <trkpt lat="42.362501" lon="2.382396">
        <ele>1523.20</ele>
        <time>2013-10-26T00:52:37.28Z</time>
      </trkpt>
      <trkpt lat="42.362524" lon="2.382336">
        <ele>1524.00</ele>
        <time>2013-10-26T02:25:55.79Z</time>
      </trkpt>
      <trkpt lat="42.362535" lon="2.382309">
        <ele>1524.80</ele>
        <time>2013-10-26T03:08:29.50Z</time>
      </trkpt>
      <trkpt lat="42.362552" lon="2.382251">
        <ele>1525.40</ele>
        <time>2013-10-26T04:34:37.54Z</time>
      </trkpt>
      <trkpt lat="42.362558" lon="2.382225">
        <ele>1525.80</ele>
        <time>2013-10-26T05:12:13.60Z</time>
      </trkpt>
      <trkpt lat="42.362558" lon="2.382170">
        <ele>1526.60</ele>
        <time>2013-10-26T06:28:09.02Z</time>
      </trkpt>
      <trkpt lat="42.362558" lon="2.382142">
        <ele>1527.00</ele>
        <time>2013-10-26T07:06:48.14Z</time>
      </trkpt>
      <trkpt lat="42.362559" lon="2.382087">
        <ele>1527.60</ele>
        <time>2013-10-26T08:22:44.94Z</time>
      </trkpt>
      <trkpt lat="42.362563" lon="2.382061">
        <ele>1528.00</ele>
        <time>2013-10-26T08:59:24.59Z</time>
      </trkpt>
      <trkpt lat="42.362572" lon="2.381982">
        <ele>1529.20</ele>
        <time>2013-10-26T10:49:45.14Z</time>
      </trkpt>
      <trkpt lat="42.362590" lon="2.381882">
        <ele>1530.40</ele>
        <time>2013-10-26T13:11:49.94Z</time>
      </trkpt>
      <trkpt lat="42.362603" lon="2.381840">
        <ele>1531.40</ele>
        <time>2013-10-26T14:14:41.51Z</time>
      </trkpt>
      <trkpt lat="42.362651" lon="2.381770">
        <ele>1532.80</ele>
        <time>2013-10-26T16:26:31.27Z</time>
      </trkpt>
      <trkpt lat="42.362679" lon="2.381742">
        <ele>1534.00</ele>
        <time>2013-10-26T17:31:33.75Z</time>
      </trkpt>
      <trkpt lat="42.362723" lon="2.381704">
        <ele>1535.20</ele>
        <time>2013-10-26T19:09:04.55Z</time>
      </trkpt>
      <trkpt lat="42.362755" lon="2.381663">
        <ele>1536.20</ele>
        <time>2013-10-26T20:31:24.03Z</time>
      </trkpt>
      <trkpt lat="42.362773" lon="2.381642">
        <ele>1537.00</ele>
        <time>2013-10-26T21:15:47.93Z</time>
      </trkpt>
      <trkpt lat="42.362782" lon="2.381625">
        <ele>1537.40</ele>
        <time>2013-10-26T21:44:40.08Z</time>
      </trkpt>
      <trkpt lat="42.362832" lon="2.381571">
        <ele>1538.80</ele>
        <time>2013-10-26T23:44:10.61Z</time>
      </trkpt>
      <trkpt lat="42.362877" lon="2.381545">
        <ele>1539.80</ele>
        <time>2013-10-27T01:15:35.29Z</time>
      </trkpt>
      <trkpt lat="42.362888" lon="2.381534">
        <ele>1540.20</ele>
        <time>2013-10-27T01:41:08.40Z</time>
      </trkpt>
      <trkpt lat="42.362902" lon="2.381526">
        <ele>1540.40</ele>
        <time>2013-10-27T02:09:31.87Z</time>
      </trkpt>
      <trkpt lat="42.362934" lon="2.381521">
        <ele>1541.00</ele>
        <time>2013-10-27T03:09:42.70Z</time>
      </trkpt>
      <trkpt lat="42.362986" lon="2.381504">
        <ele>1542.00</ele>
        <time>2013-10-27T04:49:39.24Z</time>
      </trkpt>
      <trkpt lat="42.363014" lon="2.381485">
        <ele>1543.40</ele>
        <time>2013-10-27T05:48:10.29Z</time>
      </trkpt>
      <trkpt lat="42.363045" lon="2.381436">
        <ele>1544.60</ele>
        <time>2013-10-27T07:17:13.13Z</time>
      </trkpt>
      <trkpt lat="42.363075" lon="2.381396">
        <ele>1545.60</ele>
        <time>2013-10-27T08:35:53.78Z</time>
      </trkpt>
      <trkpt lat="42.363088" lon="2.381385">
        <ele>1545.80</ele>
        <time>2013-10-27T09:04:32.37Z</time>
      </trkpt>
      <trkpt lat="42.363121" lon="2.381342">
        <ele>1546.80</ele>
        <time>2013-10-27T10:30:07.30Z</time>
      </trkpt>
      <trkpt lat="42.363155" lon="2.381279">
        <ele>1547.80</ele>
        <time>2013-10-27T12:17:48.92Z</time>
      </trkpt>
      <trkpt lat="42.363202" lon="2.381200">
        <ele>1549.20</ele>
        <time>2013-10-27T14:37:49.48Z</time>
      </trkpt>
      <trkpt lat="42.363220" lon="2.381175">
        <ele>1549.80</ele>
        <time>2013-10-27T15:26:00.59Z</time>
      </trkpt>
      <trkpt lat="42.363236" lon="2.381140">
        <ele>1550.60</ele>
        <time>2013-10-27T16:22:49.42Z</time>
      </trkpt>
      <trkpt lat="42.363272" lon="2.381057">
        <ele>1551.60</ele>
        <time>2013-10-27T18:35:40.78Z</time>
      </trkpt>
      <trkpt lat="42.363318" lon="2.380985">
        <ele>1552.60</ele>
        <time>2013-10-27T20:47:04.29Z</time>
      </trkpt>
      <trkpt lat="42.363344" lon="2.380965">
        <ele>1553.20</ele>
        <time>2013-10-27T21:42:56.60Z</time>
      </trkpt>
      <trkpt lat="42.363391" lon="2.380915">
        <ele>1553.80</ele>
        <time>2013-10-27T23:34:37.80Z</time>
      </trkpt>
      <trkpt lat="42.363435" lon="2.380857">
        <ele>1554.80</ele>
        <time>2013-10-28T01:29:22.76Z</time>
      </trkpt>
      <trkpt lat="42.363443" lon="2.380839">
        <ele>1555.00</ele>
        <time>2013-10-28T01:58:22.53Z</time>
      </trkpt>
      <trkpt lat="42.363475" lon="2.380778">
        <ele>1556.00</ele>
        <time>2013-10-28T03:41:38.68Z</time>
      </trkpt>
      <trkpt lat="42.363486" lon="2.380743">
        <ele>1556.60</ele>
        <time>2013-10-28T04:34:08.88Z</time>
      </trkpt>
      <trkpt lat="42.363496" lon="2.380706">
        <ele>1557.20</ele>
        <time>2013-10-28T05:28:31.97Z</time>
      </trkpt>
      <trkpt lat="42.363517" lon="2.380636">
        <ele>1558.20</ele>
        <time>2013-10-28T07:12:49.34Z</time>
      </trkpt>
      <trkpt lat="42.363522" lon="2.380613">
        <ele>1558.80</ele>
        <time>2013-10-28T07:45:55.05Z</time>
      </trkpt>
      <trkpt lat="42.363534" lon="2.380578">
        <ele>1559.40</ele>
        <time>2013-10-28T08:39:10.78Z</time>
      </trkpt>
      <trkpt lat="42.363547" lon="2.380506">
        <ele>1560.60</ele>
        <time>2013-10-28T10:21:29.61Z</time>
      </trkpt>
      <trkpt lat="42.363569" lon="2.380438">
        <ele>1562.00</ele>
        <time>2013-10-28T12:03:57.92Z</time>
      </trkpt>
      <trkpt lat="42.363574" lon="2.380420">
        <ele>1562.40</ele>
        <time>2013-10-28T12:30:30.63Z</time>
      </trkpt>
      <trkpt lat="42.363594" lon="2.380367">
        <ele>1563.60</ele>
        <time>2013-10-28T13:52:39.67Z</time>
      </trkpt>
      <trkpt lat="42.363618" lon="2.380302">
        <ele>1564.80</ele>
        <time>2013-10-28T15:32:58.02Z</time>
      </trkpt>
      <trkpt lat="42.363620" lon="2.380286">
        <ele>1565.40</ele>
        <time>2013-10-28T15:55:22.04Z</time>
      </trkpt>
      <trkpt lat="42.363622" lon="2.380257">
        <ele>1566.00</ele>
        <time>2013-10-28T16:35:34.38Z</time>
      </trkpt>
      <trkpt lat="42.363816" lon="2.379309">
        <ele>1580.80</ele>
        <time>2013-10-29T15:13:27.58Z</time>
      </trkpt>
      <trkpt lat="42.363819" lon="2.379288">
        <ele>1581.00</ele>
        <time>2013-10-29T15:42:59.09Z</time>
      </trkpt>
      <trkpt lat="42.363826" lon="2.379217">
        <ele>1581.80</ele>
        <time>2013-10-29T17:21:51.73Z</time>
      </trkpt>
      <trkpt lat="42.363851" lon="2.379148">
        <ele>1583.20</ele>
        <time>2013-10-29T19:07:56.69Z</time>
      </trkpt>
      <trkpt lat="42.363858" lon="2.379131">
        <ele>1583.40</ele>
        <time>2013-10-29T19:34:48.58Z</time>
      </trkpt>
      <trkpt lat="42.363887" lon="2.379066">
        <ele>1584.40</ele>
        <time>2013-10-29T21:19:37.46Z</time>
      </trkpt>
      <trkpt lat="42.363904" lon="2.379009">
        <ele>1585.40</ele>
        <time>2013-10-29T22:44:28.52Z</time>
      </trkpt>
      <trkpt lat="42.363943" lon="2.378941">
        <ele>1586.20</ele>
        <time>2013-10-30T00:43:18.12Z</time>
      </trkpt>
      <trkpt lat="42.363950" lon="2.378928">
        <ele>1586.40</ele>
        <time>2013-10-30T01:05:30.41Z</time>
      </trkpt>
      <trkpt lat="42.363955" lon="2.378913">
        <ele>1586.60</ele>
        <time>2013-10-30T01:28:13.34Z</time>
      </trkpt>
      <trkpt lat="42.363985" lon="2.378850">
        <ele>1587.60</ele>
        <time>2013-10-30T03:11:41.01Z</time>
      </trkpt>
      <trkpt lat="42.364008" lon="2.378797">
        <ele>1588.40</ele>
        <time>2013-10-30T04:36:31.79Z</time>
      </trkpt>
      <trkpt lat="42.364011" lon="2.378781">
        <ele>1588.80</ele>
        <time>2013-10-30T04:59:18.98Z</time>
      </trkpt>
      <trkpt lat="42.364045" lon="2.378718">
        <ele>1589.80</ele>
        <time>2013-10-30T06:47:00.54Z</time>
      </trkpt>
      <trkpt lat="42.364066" lon="2.378690">
        <ele>1590.40</ele>
        <time>2013-10-30T07:42:04.97Z</time>
      </trkpt>
      <trkpt lat="42.364075" lon="2.378675">
        <ele>1591.00</ele>
        <time>2013-10-30T08:08:45.35Z</time>
      </trkpt>
      <trkpt lat="42.364128" lon="2.378606">
        <ele>1592.20</ele>
        <time>2013-10-30T10:26:08.81Z</time>
      </trkpt>
      <trkpt lat="42.364154" lon="2.378579">
        <ele>1592.60</ele>
        <time>2013-10-30T11:27:22.33Z</time>
      </trkpt>
      <trkpt lat="42.364184" lon="2.378541">
        <ele>1593.20</ele>
        <time>2013-10-30T12:44:08.20Z</time>
      </trkpt>
      <trkpt lat="42.364226" lon="2.378490">
        <ele>1594.40</ele>
        <time>2013-10-30T14:29:33.31Z</time>
      </trkpt>
      <trkpt lat="42.364259" lon="2.378454">
        <ele>1595.20</ele>
        <time>2013-10-30T15:48:44.48Z</time>
      </trkpt>
      <trkpt lat="42.364279" lon="2.378436">
        <ele>1595.40</ele>
        <time>2013-10-30T16:33:36.80Z</time>
      </trkpt>
      <trkpt lat="42.364315" lon="2.378380">
        <ele>1596.20</ele>
        <time>2013-10-30T18:16:04.68Z</time>
      </trkpt>
      <trkpt lat="42.364321" lon="2.378363">
        <ele>1596.60</ele>
        <time>2013-10-30T18:42:05.06Z</time>
      </trkpt>
      <trkpt lat="42.364361" lon="2.378310">
        <ele>1597.80</ele>
        <time>2013-10-30T20:26:39.86Z</time>
      </trkpt>
      <trkpt lat="42.364367" lon="2.378299">
        <ele>1598.00</ele>
        <time>2013-10-30T20:45:32.28Z</time>
      </trkpt>
      <trkpt lat="42.364398" lon="2.378261">
        <ele>1598.80</ele>
        <time>2013-10-30T22:03:40.61Z</time>
      </trkpt>
      <trkpt lat="42.364435" lon="2.378209">
        <ele>1599.80</ele>
        <time>2013-10-30T23:43:19.76Z</time>
      </trkpt>
      <trkpt lat="42.364489" lon="2.378158">
        <ele>1600.80</ele>
        <time>2013-10-31T01:46:20.94Z</time>
      </trkpt>
      <trkpt lat="42.364499" lon="2.378144">
        <ele>1601.20</ele>
        <time>2013-10-31T02:13:13.70Z</time>
      </trkpt>
      <trkpt lat="42.364520" lon="2.378117">
        <ele>1601.80</ele>
        <time>2013-10-31T03:07:20.53Z</time>
      </trkpt>
      <trkpt lat="42.364578" lon="2.378071">
        <ele>1603.00</ele>
        <time>2013-10-31T05:12:56.04Z</time>
      </trkpt>
      <trkpt lat="42.364604" lon="2.378049">
        <ele>1603.40</ele>
        <time>2013-10-31T06:10:13.20Z</time>
      </trkpt>
      <trkpt lat="42.364634" lon="2.378012">
        <ele>1604.20</ele>
        <time>2013-10-31T07:26:02.87Z</time>
      </trkpt>
      <trkpt lat="42.364670" lon="2.377966">
        <ele>1605.40</ele>
        <time>2013-10-31T08:58:32.58Z</time>
      </trkpt>
      <trkpt lat="42.364706" lon="2.377932">
        <ele>1606.00</ele>
        <time>2013-10-31T10:20:33.36Z</time>
      </trkpt>
      <trkpt lat="42.364716" lon="2.377914">
        <ele>1606.40</ele>
        <time>2013-10-31T10:51:38.58Z</time>
      </trkpt>
      <trkpt lat="42.364729" lon="2.377882">
        <ele>1607.00</ele>
        <time>2013-10-31T11:42:03.11Z</time>
      </trkpt>
      <trkpt lat="42.364747" lon="2.377857">
        <ele>1607.60</ele>
        <time>2013-10-31T12:30:14.19Z</time>
      </trkpt>
      <trkpt lat="42.364791" lon="2.377812">
        <ele>1608.60</ele>
        <time>2013-10-31T14:13:16.16Z</time>
      </trkpt>
      <trkpt lat="42.364804" lon="2.377801">
        <ele>1608.80</ele>
        <time>2013-10-31T14:41:54.73Z</time>
      </trkpt>
      <trkpt lat="42.364833" lon="2.377782">
        <ele>1609.40</ele>
        <time>2013-10-31T15:42:06.32Z</time>
      </trkpt>
      <trkpt lat="42.364860" lon="2.377758">
        <ele>1610.00</ele>
        <time>2013-10-31T16:42:27.24Z</time>
      </trkpt>
      <trkpt lat="42.364910" lon="2.377718">
        <ele>1610.80</ele>
        <time>2013-10-31T18:30:57.85Z</time>
      </trkpt>
      <trkpt lat="42.364936" lon="2.377705">
        <ele>1611.00</ele>
        <time>2013-10-31T19:22:44.82Z</time>
      </trkpt>
      <trkpt lat="42.365003" lon="2.377672">
        <ele>1612.20</ele>
        <time>2013-10-31T21:35:56.98Z</time>
      </trkpt>
      <trkpt lat="42.365055" lon="2.377643">
        <ele>1613.20</ele>
        <time>2013-10-31T23:21:01.33Z</time>
      </trkpt>
      <trkpt lat="42.365065" lon="2.377635">
        <ele>1613.40</ele>
        <time>2013-10-31T23:42:43.45Z</time>
      </trkpt>
      <trkpt lat="42.365115" lon="2.377613">
        <ele>1614.20</ele>
        <time>2013-11-01T01:20:56.90Z</time>
      </trkpt>
      <trkpt lat="42.365139" lon="2.377602">
        <ele>1615.40</ele>
        <time>2013-11-01T02:08:17.23Z</time>
      </trkpt>
      <trkpt lat="42.365155" lon="2.377598">
        <ele>1615.60</ele>
        <time>2013-11-01T02:38:41.07Z</time>
      </trkpt>
      <trkpt lat="42.365221" lon="2.377565">
        <ele>1616.40</ele>
        <time>2013-11-01T04:50:07.99Z</time>
      </trkpt>
      <trkpt lat="42.365278" lon="2.377535">
        <ele>1617.40</ele>
        <time>2013-11-01T06:44:23.46Z</time>
      </trkpt>
      <trkpt lat="42.365286" lon="2.377524">
        <ele>1617.60</ele>
        <time>2013-11-01T07:05:41.81Z</time>
      </trkpt>
      <trkpt lat="42.365335" lon="2.377480">
        <ele>1619.00</ele>
        <time>2013-11-01T08:55:33.37Z</time>
      </trkpt>
      <trkpt lat="42.365360" lon="2.377458">
        <ele>1619.80</ele>
        <time>2013-11-01T09:51:16Z</time>
      </trkpt>
      <trkpt lat="42.365371" lon="2.377447">
        <ele>1620.00</ele>
        <time>2013-11-01T10:16:49.09Z</time>
      </trkpt>
      <trkpt lat="42.365406" lon="2.377397">
        <ele>1621.20</ele>
        <time>2013-11-01T11:51:53.56Z</time>
      </trkpt>
      <trkpt lat="42.365428" lon="2.377370">
        <ele>1621.80</ele>
        <time>2013-11-01T12:47:22.53Z</time>
      </trkpt>
      <trkpt lat="42.365442" lon="2.377357">
        <ele>1622.40</ele>
        <time>2013-11-01T13:19:05.69Z</time>
      </trkpt>
      <trkpt lat="42.365473" lon="2.377313">
        <ele>1623.60</ele>
        <time>2013-11-01T14:43:01.06Z</time>
      </trkpt>
      <trkpt lat="42.365546" lon="2.377200">
        <ele>1626.40</ele>
        <time>2013-11-01T18:10:12.79Z</time>
      </trkpt>
      <trkpt lat="42.365580" lon="2.377157">
        <ele>1627.40</ele>
        <time>2013-11-01T19:37:08.95Z</time>
      </trkpt>
      <trkpt lat="42.365626" lon="2.377100">
        <ele>1628.60</ele>
        <time>2013-11-01T21:33:39.95Z</time>
      </trkpt>
      <trkpt lat="42.365676" lon="2.377066">
        <ele>1629.60</ele>
        <time>2013-11-01T23:18:12.28Z</time>
      </trkpt>
      <trkpt lat="42.365721" lon="2.377029">
        <ele>1630.80</ele>
        <time>2013-11-02T00:56:34.38Z</time>
      </trkpt>
      <trkpt lat="42.365754" lon="2.377002">
        <ele>1631.80</ele>
        <time>2013-11-02T02:08:36.87Z</time>
      </trkpt>
      <trkpt lat="42.365763" lon="2.376989">
        <ele>1632.20</ele>
        <time>2013-11-02T02:33:12.34Z</time>
      </trkpt>
      <trkpt lat="42.365803" lon="2.376958">
        <ele>1633.20</ele>
        <time>2013-11-02T03:59:19.15Z</time>
      </trkpt>
      <trkpt lat="42.365834" lon="2.376914">
        <ele>1634.20</ele>
        <time>2013-11-02T05:23:14.51Z</time>
      </trkpt>
      <trkpt lat="42.365842" lon="2.376900">
        <ele>1634.60</ele>
        <time>2013-11-02T05:47:40.32Z</time>
      </trkpt>
      <trkpt lat="42.365864" lon="2.376871">
        <ele>1635.20</ele>
        <time>2013-11-02T06:45:02.74Z</time>
      </trkpt>
      <trkpt lat="42.365893" lon="2.376830">
        <ele>1636.40</ele>
        <time>2013-11-02T08:03:23.58Z</time>
      </trkpt>
      <trkpt lat="42.365911" lon="2.376806">
        <ele>1637.00</ele>
        <time>2013-11-02T08:50:35.91Z</time>
      </trkpt>
      <trkpt lat="42.365919" lon="2.376789">
        <ele>1637.40</ele>
        <time>2013-11-02T09:18:25.20Z</time>
      </trkpt>
      <trkpt lat="42.365947" lon="2.376745">
        <ele>1638.60</ele>
        <time>2013-11-02T10:38:34.64Z</time>
      </trkpt>
      <trkpt lat="42.365978" lon="2.376705">
        <ele>1639.80</ele>
        <time>2013-11-02T11:58:35.68Z</time>
      </trkpt>
      <trkpt lat="42.366002" lon="2.376690">
        <ele>1640.20</ele>
        <time>2013-11-02T12:47:58.93Z</time>
      </trkpt>
      <trkpt lat="42.366027" lon="2.376678">
        <ele>1640.80</ele>
        <time>2013-11-02T13:37:32.30Z</time>
      </trkpt>
      <trkpt lat="42.366097" lon="2.376630">
        <ele>1641.80</ele>
        <time>2013-11-02T16:04:08.48Z</time>
      </trkpt>
      <trkpt lat="42.366179" lon="2.376615">
        <ele>1642.60</ele>
        <time>2013-11-02T18:38:43.76Z</time>
      </trkpt>
      <trkpt lat="42.366195" lon="2.376610">
        <ele>1643.00</ele>
        <time>2013-11-02T19:09:24.45Z</time>
      </trkpt>
      <trkpt lat="42.366277" lon="2.376579">
        <ele>1644.00</ele>
        <time>2013-11-02T21:48:28Z</time>
      </trkpt>
      <trkpt lat="42.366427" lon="2.376527">
        <ele>1644.80</ele>
        <time>2013-11-03T02:37:44.88Z</time>
      </trkpt>
      <trkpt lat="42.366620" lon="2.376474">
        <ele>1644.80</ele>
        <time>2013-11-03T08:45:39.84Z</time>
      </trkpt>
      <trkpt lat="42.366865" lon="2.376411">
        <ele>1644.20</ele>
        <time>2013-11-03T16:31:34.13Z</time>
      </trkpt>
      <trkpt lat="42.367124" lon="2.376362">
        <ele>1644.60</ele>
        <time>2013-11-04T00:40:08.74Z</time>
      </trkpt>
      <trkpt lat="42.367406" lon="2.376292">
        <ele>1644.00</ele>
        <time>2013-11-04T09:35:46.47Z</time>
      </trkpt>
      <trkpt lat="42.367593" lon="2.376299">
        <ele>1644.60</ele>
        <time>2013-11-04T15:25:16.06Z</time>
      </trkpt>
      <trkpt lat="42.367704" lon="2.376258">
        <ele>1642.80</ele>
        <time>2013-11-04T19:00:13.51Z</time>
      </trkpt>
      <trkpt lat="42.367779" lon="2.376238">
        <ele>1642.40</ele>
        <time>2013-11-04T21:23:02.18Z</time>
      </trkpt>
      <trkpt lat="42.367858" lon="2.376235">
        <ele>1642.20</ele>
        <time>2013-11-04T23:50:41.09Z</time>
      </trkpt>
      <trkpt lat="42.367948" lon="2.376222">
        <ele>1642.20</ele>
        <time>2013-11-05T02:39:46.84Z</time>
      </trkpt>
      <trkpt lat="42.368020" lon="2.376156">
        <ele>1642.40</ele>
        <time>2013-11-05T05:22:14.39Z</time>
      </trkpt>
      <trkpt lat="42.367947" lon="2.376129">
        <ele>1642.40</ele>
        <time>2013-11-05T07:43:37.28Z</time>
      </trkpt>
      <trkpt lat="42.367870" lon="2.376148">
        <ele>1642.40</ele>
        <time>2013-11-05T10:09:50.78Z</time>
      </trkpt>
      <trkpt lat="42.367750" lon="2.376168">
        <ele>1642.40</ele>
        <time>2013-11-05T13:55:43.66Z</time>
      </trkpt>
      <trkpt lat="42.367546" lon="2.376183">
        <ele>1643.60</ele>
        <time>2013-11-05T20:17:24.56Z</time>
      </trkpt>
      <trkpt lat="42.367517" lon="2.376186">
        <ele>1643.80</ele>
        <time>2013-11-05T21:11:44.77Z</time>
      </trkpt>
      <trkpt lat="42.367330" lon="2.376225">
        <ele>1644.60</ele>
        <time>2013-11-06T03:05:13.74Z</time>
      </trkpt>
      <trkpt lat="42.367085" lon="2.376261">
        <ele>1645.00</ele>
        <time>2013-11-06T10:45:38.14Z</time>
      </trkpt>
      <trkpt lat="42.367044" lon="2.376269">
        <ele>1645.20</ele>
        <time>2013-11-06T12:03:01.51Z</time>
      </trkpt>
      <trkpt lat="42.366813" lon="2.376313">
        <ele>1645.80</ele>
        <time>2013-11-06T19:18:50.38Z</time>
      </trkpt>
      <trkpt lat="42.366445" lon="2.376365">
        <ele>1646.20</ele>
        <time>2013-11-07T06:50:05.18Z</time>
      </trkpt>
      <trkpt lat="42.366285" lon="2.376369">
        <ele>1647.20</ele>
        <time>2013-11-07T11:49:03.28Z</time>
      </trkpt>
      <trkpt lat="42.366232" lon="2.376364">
        <ele>1647.00</ele>
        <time>2013-11-07T13:28:18.68Z</time>
      </trkpt>
      <trkpt lat="42.366171" lon="2.376358">
        <ele>1646.20</ele>
        <time>2013-11-07T15:22:34.45Z</time>
      </trkpt>
      <trkpt lat="42.366027" lon="2.376346">
        <ele>1645.00</ele>
        <time>2013-11-07T19:52:06.55Z</time>
      </trkpt>
      <trkpt lat="42.365951" lon="2.376343">
        <ele>1644.00</ele>
        <time>2013-11-07T22:14:09.32Z</time>
      </trkpt>
      <trkpt lat="42.365869" lon="2.376335">
        <ele>1642.80</ele>
        <time>2013-11-08T00:47:44.88Z</time>
      </trkpt>
      <trkpt lat="42.365778" lon="2.376332">
        <ele>1641.20</ele>
        <time>2013-11-08T03:37:48.46Z</time>
      </trkpt>
      <trkpt lat="42.365689" lon="2.376324">
        <ele>1640.20</ele>
        <time>2013-11-08T06:24:26.80Z</time>
      </trkpt>
      <trkpt lat="42.365606" lon="2.376315">
        <ele>1639.00</ele>
        <time>2013-11-08T09:00:00.42Z</time>
      </trkpt>
      <trkpt lat="42.365521" lon="2.376313">
        <ele>1637.60</ele>
        <time>2013-11-08T11:38:49.85Z</time>
      </trkpt>
      <trkpt lat="42.365434" lon="2.376317">
        <ele>1636.00</ele>
        <time>2013-11-08T14:21:27.65Z</time>
      </trkpt>
      <trkpt lat="42.365342" lon="2.376314">
        <ele>1634.60</ele>
        <time>2013-11-08T17:13:23.29Z</time>
      </trkpt>
      <trkpt lat="42.365253" lon="2.376312">
        <ele>1632.80</ele>
        <time>2013-11-08T19:59:41.03Z</time>
      </trkpt>
      <trkpt lat="42.365161" lon="2.376323">
        <ele>1631.40</ele>
        <time>2013-11-08T22:52:13.85Z</time>
      </trkpt>
      <trkpt lat="42.365069" lon="2.376338">
        <ele>1630.20</ele>
        <time>2013-11-09T01:45:21.06Z</time>
      </trkpt>
      <trkpt lat="42.364895" lon="2.376328">
        <ele>1628.20</ele>
        <time>2013-11-09T07:10:42.99Z</time>
      </trkpt>
      <trkpt lat="42.364806" lon="2.376321">
        <ele>1627.60</ele>
        <time>2013-11-09T09:57:16.19Z</time>
      </trkpt>
      <trkpt lat="42.364714" lon="2.376320">
        <ele>1626.60</ele>
        <time>2013-11-09T12:49:09.17Z</time>
      </trkpt>
      <trkpt lat="42.364536" lon="2.376303">
        <ele>1624.20</ele>
        <time>2013-11-09T18:22:31.52Z</time>
      </trkpt>
      <trkpt lat="42.364453" lon="2.376296">
        <ele>1623.00</ele>
        <time>2013-11-09T20:57:53.37Z</time>
      </trkpt>
      <trkpt lat="42.364370" lon="2.376294">
        <ele>1621.80</ele>
        <time>2013-11-09T23:32:58.65Z</time>
      </trkpt>
      <trkpt lat="42.364205" lon="2.376302">
        <ele>1620.20</ele>
        <time>2013-11-10T04:41:26.02Z</time>
      </trkpt>
      <trkpt lat="42.363969" lon="2.376321">
        <ele>1619.20</ele>
        <time>2013-11-10T12:03:06.97Z</time>
      </trkpt>
      <trkpt lat="42.363895" lon="2.376325">
        <ele>1618.80</ele>
        <time>2013-11-10T14:21:28.54Z</time>
      </trkpt>
      <trkpt lat="42.363744" lon="2.376322">
        <ele>1617.80</ele>
        <time>2013-11-10T19:03:36.56Z</time>
      </trkpt>
      <trkpt lat="42.363679" lon="2.376301">
        <ele>1617.40</ele>
        <time>2013-11-10T21:08:27.39Z</time>
      </trkpt>
      <trkpt lat="42.363618" lon="2.376279">
        <ele>1617.40</ele>
        <time>2013-11-10T23:06:23.75Z</time>
      </trkpt>
      <trkpt lat="42.363498" lon="2.376252">
        <ele>1617.40</ele>
        <time>2013-11-11T02:53:39.65Z</time>
      </trkpt>
      <trkpt lat="42.363381" lon="2.376222">
        <ele>1617.60</ele>
        <time>2013-11-11T06:36:07.95Z</time>
      </trkpt>
      <trkpt lat="42.363325" lon="2.376203">
        <ele>1617.60</ele>
        <time>2013-11-11T08:23:59.46Z</time>
      </trkpt>
      <trkpt lat="42.363159" lon="2.376152">
        <ele>1618.00</ele>
        <time>2013-11-11T13:42:00.50Z</time>
      </trkpt>
      <trkpt lat="42.363049" lon="2.376169">
        <ele>1618.20</ele>
        <time>2013-11-11T17:08:50.97Z</time>
      </trkpt>
      <trkpt lat="42.362872" lon="2.376205">
        <ele>1618.00</ele>
        <time>2013-11-11T22:43:14.41Z</time>
      </trkpt>
      <trkpt lat="42.362679" lon="2.376228">
        <ele>1615.80</ele>
        <time>2013-11-12T04:45:12.26Z</time>
      </trkpt>
      <trkpt lat="42.362606" lon="2.376235">
        <ele>1614.80</ele>
        <time>2013-11-12T07:01:55.64Z</time>
      </trkpt>
      <trkpt lat="42.362452" lon="2.376242">
        <ele>1613.00</ele>
        <time>2013-11-12T11:49:47.85Z</time>
      </trkpt>
      <trkpt lat="42.362375" lon="2.376233">
        <ele>1612.20</ele>
        <time>2013-11-12T14:14:11.22Z</time>
      </trkpt>
      <trkpt lat="42.362301" lon="2.376210">
        <ele>1610.40</ele>
        <time>2013-11-12T16:36:02.11Z</time>
      </trkpt>
      <trkpt lat="42.362173" lon="2.376168">
        <ele>1609.00</ele>
        <time>2013-11-12T20:42:05.83Z</time>
      </trkpt>
      <trkpt lat="42.362042" lon="2.376171">
        <ele>1607.80</ele>
        <time>2013-11-13T00:46:52.25Z</time>
      </trkpt>
      <trkpt lat="42.361911" lon="2.376139">
        <ele>1606.40</ele>
        <time>2013-11-13T04:55:33.84Z</time>
      </trkpt>
      <trkpt lat="42.361846" lon="2.376105">
        <ele>1605.80</ele>
        <time>2013-11-13T07:05:45.23Z</time>
      </trkpt>
      <trkpt lat="42.361783" lon="2.376063">
        <ele>1604.60</ele>
        <time>2013-11-13T09:16:57.48Z</time>
      </trkpt>
      <trkpt lat="42.361669" lon="2.376012">
        <ele>1603.00</ele>
        <time>2013-11-13T13:01:16.28Z</time>
      </trkpt>
      <trkpt lat="42.361609" lon="2.375991">
        <ele>1602.20</ele>
        <time>2013-11-13T14:57:03.20Z</time>
      </trkpt>
      <trkpt lat="42.361546" lon="2.375963">
        <ele>1601.20</ele>
        <time>2013-11-13T17:00:56.18Z</time>
      </trkpt>
      <trkpt lat="42.361482" lon="2.375927">
        <ele>1600.00</ele>
        <time>2013-11-13T19:10:25.19Z</time>
      </trkpt>
      <trkpt lat="42.361343" lon="2.375844">
        <ele>1598.20</ele>
        <time>2013-11-13T23:54:15.48Z</time>
      </trkpt>
      <trkpt lat="42.361274" lon="2.375782">
        <ele>1597.40</ele>
        <time>2013-11-14T02:28:59.53Z</time>
      </trkpt>
      <trkpt lat="42.361209" lon="2.375718">
        <ele>1596.60</ele>
        <time>2013-11-14T04:59:09.94Z</time>
      </trkpt>
      <trkpt lat="42.361097" lon="2.375602">
        <ele>1594.60</ele>
        <time>2013-11-14T09:22:39.12Z</time>
      </trkpt>
      <trkpt lat="42.361037" lon="2.375552">
        <ele>1594.00</ele>
        <time>2013-11-14T11:34:17.56Z</time>
      </trkpt>
      <trkpt lat="42.360974" lon="2.375511">
        <ele>1593.40</ele>
        <time>2013-11-14T13:44:53.57Z</time>
      </trkpt>
      <trkpt lat="42.360757" lon="2.375408">
        <ele>1592.20</ele>
        <time>2013-11-14T20:54:30.68Z</time>
      </trkpt>
      <trkpt lat="42.360694" lon="2.375386">
        <ele>1591.20</ele>
        <time>2013-11-14T22:56:03.91Z</time>
      </trkpt>
      <trkpt lat="42.360640" lon="2.375364">
        <ele>1590.20</ele>
        <time>2013-11-15T00:41:25.32Z</time>
      </trkpt>
      <trkpt lat="42.360596" lon="2.375342">
        <ele>1589.00</ele>
        <time>2013-11-15T02:09:03.31Z</time>
      </trkpt>
      <trkpt lat="42.360555" lon="2.375319">
        <ele>1588.20</ele>
        <time>2013-11-15T03:31:58.36Z</time>
      </trkpt>
      <trkpt lat="42.360514" lon="2.375288">
        <ele>1587.20</ele>
        <time>2013-11-15T04:59:42.85Z</time>
      </trkpt>
      <trkpt lat="42.360447" lon="2.375211">
        <ele>1586.00</ele>
        <time>2013-11-15T07:43:55.82Z</time>
      </trkpt>
      <trkpt lat="42.360416" lon="2.375174">
        <ele>1585.40</ele>
        <time>2013-11-15T09:01:09.08Z</time>
      </trkpt>
      <trkpt lat="42.360394" lon="2.375139">
        <ele>1584.40</ele>
        <time>2013-11-15T10:04:35.09Z</time>
      </trkpt>
      <trkpt lat="42.360373" lon="2.375106">
        <ele>1583.40</ele>
        <time>2013-11-15T11:04:42.36Z</time>
      </trkpt>
      <trkpt lat="42.360353" lon="2.375070">
        <ele>1582.20</ele>
        <time>2013-11-15T12:06:52.96Z</time>
      </trkpt>
      <trkpt lat="42.360328" lon="2.375035">
        <ele>1581.00</ele>
        <time>2013-11-15T13:14:05Z</time>
      </trkpt>
      <trkpt lat="42.360306" lon="2.374995">
        <ele>1580.00</ele>
        <time>2013-11-15T14:22:55.19Z</time>
      </trkpt>
      <trkpt lat="42.360256" lon="2.374909">
        <ele>1578.00</ele>
        <time>2013-11-15T16:53:59.06Z</time>
      </trkpt>
      <trkpt lat="42.360226" lon="2.374866">
        <ele>1577.00</ele>
        <time>2013-11-15T18:15:37.41Z</time>
      </trkpt>
      <trkpt lat="42.360171" lon="2.374774">
        <ele>1574.80</ele>
        <time>2013-11-15T20:58:59.33Z</time>
      </trkpt>
      <trkpt lat="42.360150" lon="2.374734">
        <ele>1573.20</ele>
        <time>2013-11-15T22:06:43.59Z</time>
      </trkpt>
      <trkpt lat="42.360129" lon="2.374703">
        <ele>1572.40</ele>
        <time>2013-11-15T23:04:47.02Z</time>
      </trkpt>
      <trkpt lat="42.360111" lon="2.374663">
        <ele>1571.20</ele>
        <time>2013-11-16T00:09:26.21Z</time>
      </trkpt>
      <trkpt lat="42.360075" lon="2.374597">
        <ele>1569.40</ele>
        <time>2013-11-16T02:02:41.01Z</time>
      </trkpt>
      <trkpt lat="42.360047" lon="2.374583">
        <ele>1568.40</ele>
        <time>2013-11-16T02:58:27.01Z</time>
      </trkpt>
      <trkpt lat="42.360013" lon="2.374573">
        <ele>1567.60</ele>
        <time>2013-11-16T04:03:27.17Z</time>
      </trkpt>
      <trkpt lat="42.359978" lon="2.374566">
        <ele>1566.60</ele>
        <time>2013-11-16T05:09:33.08Z</time>
      </trkpt>
      <trkpt lat="42.359928" lon="2.374546">
        <ele>1564.80</ele>
        <time>2013-11-16T06:46:57.47Z</time>
      </trkpt>
      <trkpt lat="42.359909" lon="2.374535">
        <ele>1564.20</ele>
        <time>2013-11-16T07:25:33.96Z</time>
      </trkpt>
      <trkpt lat="42.359888" lon="2.374514">
        <ele>1563.60</ele>
        <time>2013-11-16T08:14:20.86Z</time>
      </trkpt>
      <trkpt lat="42.359864" lon="2.374493">
        <ele>1563.00</ele>
        <time>2013-11-16T09:07:44.46Z</time>
      </trkpt>
      <trkpt lat="42.359834" lon="2.374478">
        <ele>1562.00</ele>
        <time>2013-11-16T10:07:29.46Z</time>
      </trkpt>
      <trkpt lat="42.359805" lon="2.374453">
        <ele>1561.20</ele>
        <time>2013-11-16T11:11:43.70Z</time>
      </trkpt>
      <trkpt lat="42.359777" lon="2.374413">
        <ele>1560.20</ele>
        <time>2013-11-16T12:27:47.49Z</time>
      </trkpt>
      <trkpt lat="42.359716" lon="2.374307">
        <ele>1558.60</ele>
        <time>2013-11-16T15:33:15.91Z</time>
      </trkpt>
      <trkpt lat="42.359690" lon="2.374261">
        <ele>1557.60</ele>
        <time>2013-11-16T16:53:12.92Z</time>
      </trkpt>
      <trkpt lat="42.359662" lon="2.374217">
        <ele>1556.40</ele>
        <time>2013-11-16T18:13:22.64Z</time>
      </trkpt>
      <trkpt lat="42.359592" lon="2.374134">
        <ele>1554.60</ele>
        <time>2013-11-16T21:07:14.92Z</time>
      </trkpt>
      <trkpt lat="42.359526" lon="2.374085">
        <ele>1553.80</ele>
        <time>2013-11-16T23:27:53.30Z</time>
      </trkpt>
      <trkpt lat="42.359516" lon="2.374051">
        <ele>1552.80</ele>
        <time>2013-11-17T00:18:24.40Z</time>
      </trkpt>
      <trkpt lat="42.359477" lon="2.373981">
        <ele>1552.00</ele>
        <time>2013-11-17T02:19:25.89Z</time>
      </trkpt>
      <trkpt lat="42.359453" lon="2.373956">
        <ele>1551.80</ele>
        <time>2013-11-17T03:16:00.81Z</time>
      </trkpt>
      <trkpt lat="42.359396" lon="2.373915">
        <ele>1550.40</ele>
        <time>2013-11-17T05:16:36.62Z</time>
      </trkpt>
      <trkpt lat="42.359351" lon="2.373849">
        <ele>1549.00</ele>
        <time>2013-11-17T07:20:35.02Z</time>
      </trkpt>
      <trkpt lat="42.359340" lon="2.373803">
        <ele>1548.40</ele>
        <time>2013-11-17T08:27:19.75Z</time>
      </trkpt>
      <trkpt lat="42.359326" lon="2.373755">
        <ele>1547.60</ele>
        <time>2013-11-17T09:38:34.10Z</time>
      </trkpt>
      <trkpt lat="42.359314" lon="2.373696">
        <ele>1546.80</ele>
        <time>2013-11-17T11:03:02.82Z</time>
      </trkpt>
      <trkpt lat="42.359307" lon="2.373622">
        <ele>1546.00</ele>
        <time>2013-11-17T12:46:02.27Z</time>
      </trkpt>
      <trkpt lat="42.359311" lon="2.373543">
        <ele>1545.60</ele>
        <time>2013-11-17T14:35:21.19Z</time>
      </trkpt>
      <trkpt lat="42.359317" lon="2.373445">
        <ele>1544.60</ele>
        <time>2013-11-17T16:51:06.35Z</time>
      </trkpt>
      <trkpt lat="42.359309" lon="2.373400">
        <ele>1544.00</ele>
        <time>2013-11-17T17:55:00.06Z</time>
      </trkpt>
      <trkpt lat="42.359292" lon="2.373344">
        <ele>1543.20</ele>
        <time>2013-11-17T19:18:34.72Z</time>
      </trkpt>
      <trkpt lat="42.359248" lon="2.373245">
        <ele>1541.40</ele>
        <time>2013-11-17T21:58:03.89Z</time>
      </trkpt>
      <trkpt lat="42.359212" lon="2.373234">
        <ele>1540.60</ele>
        <time>2013-11-17T23:07:00.85Z</time>
      </trkpt>
      <trkpt lat="42.359181" lon="2.373246">
        <ele>1539.80</ele>
        <time>2013-11-18T00:07:15.13Z</time>
      </trkpt>
      <trkpt lat="42.359135" lon="2.373313">
        <ele>1538.80</ele>
        <time>2013-11-18T02:13:30.49Z</time>
      </trkpt>
      <trkpt lat="42.359070" lon="2.373373">
        <ele>1536.60</ele>
        <time>2013-11-18T04:40:30.16Z</time>
      </trkpt>
      <trkpt lat="42.359016" lon="2.373423">
        <ele>1535.00</ele>
        <time>2013-11-18T06:42:44.45Z</time>
      </trkpt>
      <trkpt lat="42.358979" lon="2.373423">
        <ele>1534.60</ele>
        <time>2013-11-18T07:51:51.93Z</time>
      </trkpt>
      <trkpt lat="42.358875" lon="2.373415">
        <ele>1533.20</ele>
        <time>2013-11-18T11:06:28.53Z</time>
      </trkpt>
      <trkpt lat="42.358814" lon="2.373389">
        <ele>1532.20</ele>
        <time>2013-11-18T13:05:57.39Z</time>
      </trkpt>
      <trkpt lat="42.358749" lon="2.373360">
        <ele>1531.20</ele>
        <time>2013-11-18T15:13:49.25Z</time>
      </trkpt>
      <trkpt lat="42.358678" lon="2.373322">
        <ele>1530.00</ele>
        <time>2013-11-18T17:36:27.74Z</time>
      </trkpt>
      <trkpt lat="42.358609" lon="2.373275">
        <ele>1528.60</ele>
        <time>2013-11-18T20:00:46.73Z</time>
      </trkpt>
      <trkpt lat="42.358541" lon="2.373215">
        <ele>1527.00</ele>
        <time>2013-11-18T22:32:26.20Z</time>
      </trkpt>
      <trkpt lat="42.358479" lon="2.373159">
        <ele>1525.80</ele>
        <time>2013-11-19T00:51:41.81Z</time>
      </trkpt>
      <trkpt lat="42.358422" lon="2.373102">
        <ele>1524.80</ele>
        <time>2013-11-19T03:04:06.33Z</time>
      </trkpt>
      <trkpt lat="42.358372" lon="2.373054">
        <ele>1523.60</ele>
        <time>2013-11-19T04:58:38.04Z</time>
      </trkpt>
      <trkpt lat="42.358322" lon="2.373006">
        <ele>1522.20</ele>
        <time>2013-11-19T06:53:09.76Z</time>
      </trkpt>
      <trkpt lat="42.358274" lon="2.372975">
        <ele>1521.00</ele>
        <time>2013-11-19T08:32:31.59Z</time>
      </trkpt>
      <trkpt lat="42.358226" lon="2.372979">
        <ele>1519.80</ele>
        <time>2013-11-19T10:02:22.29Z</time>
      </trkpt>
      <trkpt lat="42.358152" lon="2.373035">
        <ele>1518.00</ele>
        <time>2013-11-19T12:40:46.11Z</time>
      </trkpt>
      <trkpt lat="42.358110" lon="2.373065">
        <ele>1517.40</ele>
        <time>2013-11-19T14:09:29.62Z</time>
      </trkpt>
      <trkpt lat="42.358073" lon="2.373092">
        <ele>1516.80</ele>
        <time>2013-11-19T15:28:01.66Z</time>
      </trkpt>
      <trkpt lat="42.358033" lon="2.373110">
        <ele>1516.40</ele>
        <time>2013-11-19T16:46:46.81Z</time>
      </trkpt>
      <trkpt lat="42.357996" lon="2.373118">
        <ele>1515.40</ele>
        <time>2013-11-19T17:56:46.90Z</time>
      </trkpt>
      <trkpt lat="42.357952" lon="2.373121">
        <ele>1514.60</ele>
        <time>2013-11-19T19:19:05.29Z</time>
      </trkpt>
      <trkpt lat="42.357901" lon="2.373119">
        <ele>1513.20</ele>
        <time>2013-11-19T20:54:24.48Z</time>
      </trkpt>
      <trkpt lat="42.357793" lon="2.373137">
        <ele>1512.00</ele>
        <time>2013-11-20T00:17:42.10Z</time>
      </trkpt>
      <trkpt lat="42.357736" lon="2.373155">
        <ele>1511.40</ele>
        <time>2013-11-20T02:07:03.12Z</time>
      </trkpt>
      <trkpt lat="42.357681" lon="2.373180">
        <ele>1510.80</ele>
        <time>2013-11-20T03:55:26.77Z</time>
      </trkpt>
      <trkpt lat="42.357587" lon="2.373228">
        <ele>1509.20</ele>
        <time>2013-11-20T07:03:08.80Z</time>
      </trkpt>
      <trkpt lat="42.357535" lon="2.373249">
        <ele>1508.40</ele>
        <time>2013-11-20T08:44:31.70Z</time>
      </trkpt>
      <trkpt lat="42.357473" lon="2.373254">
        <ele>1507.60</ele>
        <time>2013-11-20T10:40:33.86Z</time>
      </trkpt>
      <trkpt lat="42.357346" lon="2.373259">
        <ele>1505.60</ele>
        <time>2013-11-20T14:37:55.82Z</time>
      </trkpt>
      <trkpt lat="42.357284" lon="2.373263">
        <ele>1504.40</ele>
        <time>2013-11-20T16:33:53.54Z</time>
      </trkpt>
      <trkpt lat="42.357161" lon="2.373267">
        <ele>1502.80</ele>
        <time>2013-11-20T20:23:45.09Z</time>
      </trkpt>
      <trkpt lat="42.357115" lon="2.373284">
        <ele>1502.20</ele>
        <time>2013-11-20T21:52:50.23Z</time>
      </trkpt>
      <trkpt lat="42.357070" lon="2.373299">
        <ele>1501.20</ele>
        <time>2013-11-20T23:19:25.24Z</time>
      </trkpt>
      <trkpt lat="42.356981" lon="2.373333">
        <ele>1499.80</ele>
        <time>2013-11-21T02:12:11.51Z</time>
      </trkpt>
      <trkpt lat="42.356933" lon="2.373344">
        <ele>1499.20</ele>
        <time>2013-11-21T03:43:08.62Z</time>
      </trkpt>
      <trkpt lat="42.356878" lon="2.373355">
        <ele>1498.60</ele>
        <time>2013-11-21T05:27:00.76Z</time>
      </trkpt>
      <trkpt lat="42.356748" lon="2.373373">
        <ele>1497.00</ele>
        <time>2013-11-21T09:31:09.06Z</time>
      </trkpt>
      <trkpt lat="42.356625" lon="2.373395">
        <ele>1495.40</ele>
        <time>2013-11-21T13:22:56.54Z</time>
      </trkpt>
      <trkpt lat="42.356561" lon="2.373403">
        <ele>1493.80</ele>
        <time>2013-11-21T15:23:01.09Z</time>
      </trkpt>
      <trkpt lat="42.356435" lon="2.373429">
        <ele>1492.20</ele>
        <time>2013-11-21T19:21:08.20Z</time>
      </trkpt>
      <trkpt lat="42.356380" lon="2.373434">
        <ele>1491.80</ele>
        <time>2013-11-21T21:04:07.26Z</time>
      </trkpt>
      <trkpt lat="42.356229" lon="2.373451">
        <ele>1493.00</ele>
        <time>2013-11-22T01:47:11.93Z</time>
      </trkpt>
      <trkpt lat="42.356204" lon="2.373452">
        <ele>1493.40</ele>
        <time>2013-11-22T02:33:55.51Z</time>
      </trkpt>
      <trkpt lat="42.356123" lon="2.373458">
        <ele>1493.80</ele>
        <time>2013-11-22T05:05:28.72Z</time>
      </trkpt>
      <trkpt lat="42.356049" lon="2.373447">
        <ele>1493.80</ele>
        <time>2013-11-22T07:24:33.57Z</time>
      </trkpt>
      <trkpt lat="42.356008" lon="2.373430">
        <ele>1493.40</ele>
        <time>2013-11-22T08:44:40.32Z</time>
      </trkpt>
      <trkpt lat="42.355857" lon="2.373345">
        <ele>1492.40</ele>
        <time>2013-11-22T13:50:12.55Z</time>
      </trkpt>
      <trkpt lat="42.355818" lon="2.373321">
        <ele>1492.40</ele>
        <time>2013-11-22T15:10:15.03Z</time>
      </trkpt>
      <trkpt lat="42.355661" lon="2.373233">
        <ele>1493.20</ele>
        <time>2013-11-22T20:27:43.72Z</time>
      </trkpt>
      <trkpt lat="42.355638" lon="2.373219">
        <ele>1493.60</ele>
        <time>2013-11-22T21:14:50.69Z</time>
      </trkpt>
      <trkpt lat="42.355529" lon="2.373140">
        <ele>1494.60</ele>
        <time>2013-11-23T01:05:51.03Z</time>
      </trkpt>
      <trkpt lat="42.355453" lon="2.373095">
        <ele>1494.80</ele>
        <time>2013-11-23T03:40:49.99Z</time>
      </trkpt>
      <trkpt lat="42.355319" lon="2.373054">
        <ele>1494.80</ele>
        <time>2013-11-23T07:57:29.76Z</time>
      </trkpt>
      <trkpt lat="42.355033" lon="2.372933">
        <ele>1493.40</ele>
        <time>2013-11-23T17:17:18.96Z</time>
      </trkpt>
      <trkpt lat="42.354920" lon="2.372846">
        <ele>1491.80</ele>
        <time>2013-11-23T21:20:12.23Z</time>
      </trkpt>
      <trkpt lat="42.354771" lon="2.372725">
        <ele>1490.80</ele>
        <time>2013-11-24T02:44:50.95Z</time>
      </trkpt>
      <trkpt lat="42.354730" lon="2.372707">
        <ele>1490.20</ele>
        <time>2013-11-24T04:05:22.63Z</time>
      </trkpt>
      <trkpt lat="42.354516" lon="2.372608">
        <ele>1490.20</ele>
        <time>2013-11-24T11:07:53.82Z</time>
      </trkpt>
      <trkpt lat="42.354357" lon="2.372490">
        <ele>1491.00</ele>
        <time>2013-11-24T16:46:41.20Z</time>
      </trkpt>
      <trkpt lat="42.354292" lon="2.372448">
        <ele>1491.40</ele>
        <time>2013-11-24T19:01:15.34Z</time>
      </trkpt>
      <trkpt lat="42.354170" lon="2.372358">
        <ele>1492.40</ele>
        <time>2013-11-24T23:20:50.97Z</time>
      </trkpt>
      <trkpt lat="42.354058" lon="2.372293">
        <ele>1492.80</ele>
        <time>2013-11-25T03:08:31.42Z</time>
      </trkpt>
      <trkpt lat="42.353945" lon="2.372244">
        <ele>1493.20</ele>
        <time>2013-11-25T06:50:12.51Z</time>
      </trkpt>
      <trkpt lat="42.353792" lon="2.372150">
        <ele>1493.40</ele>
        <time>2013-11-25T12:04:07.80Z</time>
      </trkpt>
      <trkpt lat="42.353572" lon="2.372013">
        <ele>1493.20</ele>
        <time>2013-11-25T19:36:34.50Z</time>
      </trkpt>
      <trkpt lat="42.353530" lon="2.371993">
        <ele>1493.00</ele>
        <time>2013-11-25T20:59:45.45Z</time>
      </trkpt>
      <trkpt lat="42.353348" lon="2.371884">
        <ele>1494.00</ele>
        <time>2013-11-26T03:11:35.40Z</time>
      </trkpt>
      <trkpt lat="42.353333" lon="2.371870">
        <ele>1494.60</ele>
        <time>2013-11-26T03:45:37.98Z</time>
      </trkpt>
      <trkpt lat="42.353245" lon="2.371836">
        <ele>1495.60</ele>
        <time>2013-11-26T06:36:36.46Z</time>
      </trkpt>
      <trkpt lat="42.353223" lon="2.371828">
        <ele>1495.80</ele>
        <time>2013-11-26T07:19:10.02Z</time>
      </trkpt>
      <trkpt lat="42.353154" lon="2.371807">
        <ele>1497.20</ele>
        <time>2013-11-26T09:31:17.73Z</time>
      </trkpt>
      <trkpt lat="42.353107" lon="2.371774">
        <ele>1498.00</ele>
        <time>2013-11-26T11:10:13.14Z</time>
      </trkpt>
      <trkpt lat="42.353089" lon="2.371760">
        <ele>1498.40</ele>
        <time>2013-11-26T11:49:00.38Z</time>
      </trkpt>
      <trkpt lat="42.352994" lon="2.371728">
        <ele>1499.20</ele>
        <time>2013-11-26T14:51:54.29Z</time>
      </trkpt>
      <trkpt lat="42.352808" lon="2.371700">
        <ele>1498.80</ele>
        <time>2013-11-26T20:41:32.40Z</time>
      </trkpt>
      <trkpt lat="42.352623" lon="2.371673">
        <ele>1498.60</ele>
        <time>2013-11-27T02:29:10.06Z</time>
      </trkpt>
      <trkpt lat="42.352430" lon="2.371725">
        <ele>1498.40</ele>
        <time>2013-11-27T08:36:48.88Z</time>
      </trkpt>
      <trkpt lat="42.352384" lon="2.371733">
        <ele>1498.00</ele>
        <time>2013-11-27T10:03:27.62Z</time>
      </trkpt>
      <trkpt lat="42.352292" lon="2.371730">
        <ele>1497.00</ele>
        <time>2013-11-27T12:55:23.26Z</time>
      </trkpt>
      <trkpt lat="42.352259" lon="2.371729">
        <ele>1496.40</ele>
        <time>2013-11-27T13:57:03.29Z</time>
      </trkpt>
      <trkpt lat="42.352228" lon="2.371731">
        <ele>1495.40</ele>
        <time>2013-11-27T14:55:02.16Z</time>
      </trkpt>
      <trkpt lat="42.352169" lon="2.371724">
        <ele>1493.80</ele>
        <time>2013-11-27T16:45:41.08Z</time>
      </trkpt>
      <trkpt lat="42.352106" lon="2.371716">
        <ele>1492.60</ele>
        <time>2013-11-27T18:43:54.03Z</time>
      </trkpt>
      <trkpt lat="42.352044" lon="2.371708">
        <ele>1491.40</ele>
        <time>2013-11-27T20:40:15.38Z</time>
      </trkpt>
      <trkpt lat="42.351984" lon="2.371687">
        <ele>1489.60</ele>
        <time>2013-11-27T22:36:02.36Z</time>
      </trkpt>
      <trkpt lat="42.351924" lon="2.371697">
        <ele>1488.00</ele>
        <time>2013-11-28T00:28:58.83Z</time>
      </trkpt>
      <trkpt lat="42.351885" lon="2.371708">
        <ele>1486.80</ele>
        <time>2013-11-28T01:43:24.45Z</time>
      </trkpt>
      <trkpt lat="42.351786" lon="2.371743">
        <ele>1486.20</ele>
        <time>2013-11-28T04:54:34.27Z</time>
      </trkpt>
      <trkpt lat="42.351737" lon="2.371768">
        <ele>1485.60</ele>
        <time>2013-11-28T06:32:24.35Z</time>
      </trkpt>
      <trkpt lat="42.351680" lon="2.371778">
        <ele>1483.80</ele>
        <time>2013-11-28T08:19:47.18Z</time>
      </trkpt>
      <trkpt lat="42.351657" lon="2.371803">
        <ele>1483.20</ele>
        <time>2013-11-28T09:14:54.14Z</time>
      </trkpt>
      <trkpt lat="42.351630" lon="2.371799">
        <ele>1482.40</ele>
        <time>2013-11-28T10:05:38.77Z</time>
      </trkpt>
      <trkpt lat="42.351548" lon="2.371787">
        <ele>1481.20</ele>
        <time>2013-11-28T12:39:44.07Z</time>
      </trkpt>
      <trkpt lat="42.351435" lon="2.371792">
        <ele>1480.00</ele>
        <time>2013-11-28T16:10:57.47Z</time>
      </trkpt>
      <trkpt lat="42.351388" lon="2.371802">
        <ele>1479.20</ele>
        <time>2013-11-28T17:39:50.62Z</time>
      </trkpt>
      <trkpt lat="42.351354" lon="2.371822">
        <ele>1478.40</ele>
        <time>2013-11-28T18:49:06.36Z</time>
      </trkpt>
      <trkpt lat="42.351207" lon="2.371971">
        <ele>1477.60</ele>
        <time>2013-11-29T00:32:14.58Z</time>
      </trkpt>
      <trkpt lat="42.351184" lon="2.371977">
        <ele>1477.20</ele>
        <time>2013-11-29T01:16:00.22Z</time>
      </trkpt>
      <trkpt lat="42.351144" lon="2.372012">
        <ele>1476.40</ele>
        <time>2013-11-29T02:44:59.77Z</time>
      </trkpt>
      <trkpt lat="42.351123" lon="2.372037">
        <ele>1476.00</ele>
        <time>2013-11-29T03:37:15.10Z</time>
      </trkpt>
      <trkpt lat="42.351008" lon="2.372075">
        <ele>1475.20</ele>
        <time>2013-11-29T07:18:24.71Z</time>
      </trkpt>
      <trkpt lat="42.350965" lon="2.372094">
        <ele>1474.80</ele>
        <time>2013-11-29T08:42:55.24Z</time>
      </trkpt>
      <trkpt lat="42.350921" lon="2.372102">
        <ele>1474.60</ele>
        <time>2013-11-29T10:05:51.70Z</time>
      </trkpt>
      <trkpt lat="42.350834" lon="2.372073">
        <ele>1474.40</ele>
        <time>2013-11-29T12:53:15.43Z</time>
      </trkpt>
      <trkpt lat="42.350744" lon="2.372023">
        <ele>1475.40</ele>
        <time>2013-11-29T15:55:01.10Z</time>
      </trkpt>
      <trkpt lat="42.350719" lon="2.372011">
        <ele>1476.00</ele>
        <time>2013-11-29T16:44:34.55Z</time>
      </trkpt>
      <trkpt lat="42.350692" lon="2.371996">
        <ele>1476.40</ele>
        <time>2013-11-29T17:39:06.26Z</time>
      </trkpt>
      <trkpt lat="42.350638" lon="2.371967">
        <ele>1476.80</ele>
        <time>2013-11-29T19:27:38.65Z</time>
      </trkpt>
      <trkpt lat="42.350618" lon="2.371933">
        <ele>1476.80</ele>
        <time>2013-11-29T20:27:38.56Z</time>
      </trkpt>
      <trkpt lat="42.350567" lon="2.371876">
        <ele>1477.00</ele>
        <time>2013-11-29T22:31:13.32Z</time>
      </trkpt>
      <trkpt lat="42.350464" lon="2.371805">
        <ele>1477.60</ele>
        <time>2013-11-30T02:07:10.86Z</time>
      </trkpt>
      <trkpt lat="42.350397" lon="2.371763">
        <ele>1477.80</ele>
        <time>2013-11-30T04:25:07.97Z</time>
      </trkpt>
      <trkpt lat="42.350339" lon="2.371710">
        <ele>1478.20</ele>
        <time>2013-11-30T06:35:53.12Z</time>
      </trkpt>
      <trkpt lat="42.350243" lon="2.371628">
        <ele>1478.40</ele>
        <time>2013-11-30T10:07:58.88Z</time>
      </trkpt>
      <trkpt lat="42.350089" lon="2.371563">
        <ele>1477.60</ele>
        <time>2013-11-30T15:09:21.71Z</time>
      </trkpt>
      <trkpt lat="42.349937" lon="2.371567">
        <ele>1476.80</ele>
        <time>2013-11-30T19:53:23.22Z</time>
      </trkpt>
      <trkpt lat="42.349891" lon="2.371550">
        <ele>1476.40</ele>
        <time>2013-11-30T21:22:28.41Z</time>
      </trkpt>
      <trkpt lat="42.349724" lon="2.371477">
        <ele>1475.80</ele>
        <time>2013-12-01T02:50:20.71Z</time>
      </trkpt>
      <trkpt lat="42.349622" lon="2.371412">
        <ele>1475.60</ele>
        <time>2013-12-01T06:20:58.86Z</time>
      </trkpt>
      <trkpt lat="42.349581" lon="2.371388">
        <ele>1475.60</ele>
        <time>2013-12-01T07:44:26.35Z</time>
      </trkpt>
      <trkpt lat="42.349425" lon="2.371311">
        <ele>1477.20</ele>
        <time>2013-12-01T12:54:40.16Z</time>
      </trkpt>
      <trkpt lat="42.349390" lon="2.371291">
        <ele>1478.80</ele>
        <time>2013-12-01T14:05:38.96Z</time>
      </trkpt>
      <trkpt lat="42.349375" lon="2.371299">
        <ele>1479.20</ele>
        <time>2013-12-01T14:35:46.27Z</time>
      </trkpt>
      <trkpt lat="42.349382" lon="2.371296">
        <ele>1479.20</ele>
        <time>2013-12-01T14:52:35.12Z</time>
      </trkpt>
      <trkpt lat="42.349371" lon="2.371279">
        <ele>1479.40</ele>
        <time>2013-12-01T15:23:46.96Z</time>
      </trkpt>
      <trkpt lat="42.349350" lon="2.371261">
        <ele>1480.00</ele>
        <time>2013-12-01T16:10:13.50Z</time>
      </trkpt>
      <trkpt lat="42.349340" lon="2.371251">
        <ele>1480.20</ele>
        <time>2013-12-01T16:33:27.34Z</time>
      </trkpt>
      <trkpt lat="42.349279" lon="2.371219">
        <ele>1481.00</ele>
        <time>2013-12-01T18:35:40.99Z</time>
      </trkpt>
      <trkpt lat="42.349263" lon="2.371218">
        <ele>1481.40</ele>
        <time>2013-12-01T19:05:36.40Z</time>
      </trkpt>
      <trkpt lat="42.349194" lon="2.371252">
        <ele>1481.40</ele>
        <time>2013-12-01T21:22:47.80Z</time>
      </trkpt>
      <trkpt lat="42.349064" lon="2.371303">
        <ele>1480.40</ele>
        <time>2013-12-02T01:35:40.16Z</time>
      </trkpt>
      <trkpt lat="42.349028" lon="2.371323">
        <ele>1479.80</ele>
        <time>2013-12-02T02:48:22.45Z</time>
      </trkpt>
      <trkpt lat="42.348929" lon="2.371363">
        <ele>1478.80</ele>
        <time>2013-12-02T06:01:23.95Z</time>
      </trkpt>
      <trkpt lat="42.348872" lon="2.371398">
        <ele>1478.20</ele>
        <time>2013-12-02T07:58:20.44Z</time>
      </trkpt>
      <trkpt lat="42.348817" lon="2.371414">
        <ele>1477.60</ele>
        <time>2013-12-02T09:43:26.49Z</time>
      </trkpt>
      <trkpt lat="42.348708" lon="2.371439">
        <ele>1475.40</ele>
        <time>2013-12-02T13:09:59.03Z</time>
      </trkpt>
      <trkpt lat="42.348650" lon="2.371461">
        <ele>1474.20</ele>
        <time>2013-12-02T15:02:31.11Z</time>
      </trkpt>
      <trkpt lat="42.348591" lon="2.371497">
        <ele>1473.40</ele>
        <time>2013-12-02T17:03:26.02Z</time>
      </trkpt>
      <trkpt lat="42.348528" lon="2.371516">
        <ele>1472.20</ele>
        <time>2013-12-02T19:04:01.24Z</time>
      </trkpt>
      <trkpt lat="42.348479" lon="2.371529">
        <ele>1471.40</ele>
        <time>2013-12-02T20:37:18.43Z</time>
      </trkpt>
      <trkpt lat="42.348442" lon="2.371545">
        <ele>1470.40</ele>
        <time>2013-12-02T21:49:52.57Z</time>
      </trkpt>
      <trkpt lat="42.348378" lon="2.371530">
        <ele>1468.80</ele>
        <time>2013-12-02T23:51:13.42Z</time>
      </trkpt>
      <trkpt lat="42.348285" lon="2.371513">
        <ele>1467.20</ele>
        <time>2013-12-03T02:46:32.87Z</time>
      </trkpt>
      <trkpt lat="42.348233" lon="2.371518">
        <ele>1466.40</ele>
        <time>2013-12-03T04:23:56.45Z</time>
      </trkpt>
      <trkpt lat="42.348186" lon="2.371515">
        <ele>1465.60</ele>
        <time>2013-12-03T05:51:50.73Z</time>
      </trkpt>
      <trkpt lat="42.348085" lon="2.371518">
        <ele>1464.00</ele>
        <time>2013-12-03T09:00:34.95Z</time>
      </trkpt>
      <trkpt lat="42.347996" lon="2.371505">
        <ele>1462.40</ele>
        <time>2013-12-03T11:47:49.28Z</time>
      </trkpt>
      <trkpt lat="42.347964" lon="2.371500">
        <ele>1461.60</ele>
        <time>2013-12-03T12:48:00.13Z</time>
      </trkpt>
      <trkpt lat="42.347935" lon="2.371489">
        <ele>1460.60</ele>
        <time>2013-12-03T13:44:16.18Z</time>
      </trkpt>
      <trkpt lat="42.347897" lon="2.371486">
        <ele>1459.40</ele>
        <time>2013-12-03T14:55:22.99Z</time>
      </trkpt>
      <trkpt lat="42.347851" lon="2.371499">
        <ele>1458.60</ele>
        <time>2013-12-03T16:23:10.59Z</time>
      </trkpt>
      <trkpt lat="42.347815" lon="2.371498">
        <ele>1458.00</ele>
        <time>2013-12-03T17:30:26.82Z</time>
      </trkpt>
      <trkpt lat="42.347778" lon="2.371501">
        <ele>1456.80</ele>
        <time>2013-12-03T18:39:41.74Z</time>
      </trkpt>
      <trkpt lat="42.347718" lon="2.371485">
        <ele>1455.00</ele>
        <time>2013-12-03T20:33:56.76Z</time>
      </trkpt>
      <trkpt lat="42.347664" lon="2.371462">
        <ele>1453.60</ele>
        <time>2013-12-03T22:19:42.66Z</time>
      </trkpt>
      <trkpt lat="42.347616" lon="2.371411">
        <ele>1452.00</ele>
        <time>2013-12-04T00:13:43.82Z</time>
      </trkpt>
      <trkpt lat="42.347557" lon="2.371370">
        <ele>1450.00</ele>
        <time>2013-12-04T02:17:38.63Z</time>
      </trkpt>
      <trkpt lat="42.347462" lon="2.371289">
        <ele>1448.40</ele>
        <time>2013-12-04T05:47:25.55Z</time>
      </trkpt>
      <trkpt lat="42.347363" lon="2.371184">
        <ele>1447.40</ele>
        <time>2013-12-04T09:42:25.88Z</time>
      </trkpt>
      <trkpt lat="42.347312" lon="2.371125">
        <ele>1447.00</ele>
        <time>2013-12-04T11:47:47.41Z</time>
      </trkpt>
      <trkpt lat="42.347212" lon="2.371011">
        <ele>1446.00</ele>
        <time>2013-12-04T15:52:05.10Z</time>
      </trkpt>
      <trkpt lat="42.347072" lon="2.370848">
        <ele>1445.00</ele>
        <time>2013-12-04T21:37:08.51Z</time>
      </trkpt>
      <trkpt lat="42.347033" lon="2.370787">
        <ele>1444.80</ele>
        <time>2013-12-04T23:28:30.62Z</time>
      </trkpt>
      <trkpt lat="42.346998" lon="2.370723">
        <ele>1444.80</ele>
        <time>2013-12-05T01:18:26.46Z</time>
      </trkpt>
      <trkpt lat="42.346918" lon="2.370609">
        <ele>1444.60</ele>
        <time>2013-12-05T04:55:30.08Z</time>
      </trkpt>
      <trkpt lat="42.346803" lon="2.370433">
        <ele>1444.40</ele>
        <time>2013-12-05T10:19:52.30Z</time>
      </trkpt>
      <trkpt lat="42.346720" lon="2.370235">
        <ele>1444.20</ele>
        <time>2013-12-05T15:34:10.72Z</time>
      </trkpt>
      <trkpt lat="42.346681" lon="2.370096">
        <ele>1443.80</ele>
        <time>2013-12-05T18:59:28.29Z</time>
      </trkpt>
      <trkpt lat="42.346659" lon="2.370025">
        <ele>1443.40</ele>
        <time>2013-12-05T20:45:46.44Z</time>
      </trkpt>
      <trkpt lat="42.346631" lon="2.369964">
        <ele>1443.00</ele>
        <time>2013-12-05T22:24:55.43Z</time>
      </trkpt>
      <trkpt lat="42.346588" lon="2.369873">
        <ele>1443.20</ele>
        <time>2013-12-06T00:54:03.62Z</time>
      </trkpt>
      <trkpt lat="42.346539" lon="2.369800">
        <ele>1443.00</ele>
        <time>2013-12-06T03:10:13.38Z</time>
      </trkpt>
      <trkpt lat="42.346470" lon="2.369679">
        <ele>1443.20</ele>
        <time>2013-12-06T06:41:14.83Z</time>
      </trkpt>
      <trkpt lat="42.346402" lon="2.369582">
        <ele>1442.00</ele>
        <time>2013-12-06T09:45:50.97Z</time>
      </trkpt>
      <trkpt lat="42.346268" lon="2.369419">
        <ele>1440.80</ele>
        <time>2013-12-06T15:22:29.45Z</time>
      </trkpt>
      <trkpt lat="42.346206" lon="2.369362">
        <ele>1439.20</ele>
        <time>2013-12-06T17:42:31.85Z</time>
      </trkpt>
      <trkpt lat="42.346145" lon="2.369332">
        <ele>1438.60</ele>
        <time>2013-12-06T19:43:47.28Z</time>
      </trkpt>
      <trkpt lat="42.346088" lon="2.369337">
        <ele>1438.40</ele>
        <time>2013-12-06T21:30:30.05Z</time>
      </trkpt>
      <trkpt lat="42.346029" lon="2.369347">
        <ele>1437.80</ele>
        <time>2013-12-06T23:21:35.29Z</time>
      </trkpt>
      <trkpt lat="42.345859" lon="2.369329">
        <ele>1437.80</ele>
        <time>2013-12-07T04:40:09.53Z</time>
      </trkpt>
      <trkpt lat="42.345814" lon="2.369317">
        <ele>1437.80</ele>
        <time>2013-12-07T06:05:50.80Z</time>
      </trkpt>
      <trkpt lat="42.345700" lon="2.369275">
        <ele>1438.20</ele>
        <time>2013-12-07T09:46:34.79Z</time>
      </trkpt>
      <trkpt lat="42.345612" lon="2.369256">
        <ele>1436.80</ele>
        <time>2013-12-07T12:33:03.87Z</time>
      </trkpt>
      <trkpt lat="42.345552" lon="2.369219">
        <ele>1435.20</ele>
        <time>2013-12-07T14:36:15.14Z</time>
      </trkpt>
      <trkpt lat="42.345505" lon="2.369215">
        <ele>1434.40</ele>
        <time>2013-12-07T16:04:13.97Z</time>
      </trkpt>
      <trkpt lat="42.345449" lon="2.369210">
        <ele>1433.40</ele>
        <time>2013-12-07T17:49:04.88Z</time>
      </trkpt>
      <trkpt lat="42.345397" lon="2.369214">
        <ele>1432.40</ele>
        <time>2013-12-07T19:26:23.19Z</time>
      </trkpt>
      <trkpt lat="42.345352" lon="2.369225">
        <ele>1431.40</ele>
        <time>2013-12-07T20:51:49.08Z</time>
      </trkpt>
      <trkpt lat="42.345276" lon="2.369224">
        <ele>1429.60</ele>
        <time>2013-12-07T23:13:48.63Z</time>
      </trkpt>
      <trkpt lat="42.345220" lon="2.369205">
        <ele>1427.20</ele>
        <time>2013-12-08T01:01:40.25Z</time>
      </trkpt>
      <trkpt lat="42.345193" lon="2.369191">
        <ele>1426.40</ele>
        <time>2013-12-08T01:55:41.43Z</time>
      </trkpt>
      <trkpt lat="42.345173" lon="2.369179">
        <ele>1425.60</ele>
        <time>2013-12-08T02:36:33.87Z</time>
      </trkpt>
      <trkpt lat="42.345150" lon="2.369161">
        <ele>1424.80</ele>
        <time>2013-12-08T03:26:12.26Z</time>
      </trkpt>
      <trkpt lat="42.345138" lon="2.369143">
        <ele>1424.00</ele>
        <time>2013-12-08T03:59:40.56Z</time>
      </trkpt>
      <trkpt lat="42.345122" lon="2.369139">
        <ele>1423.20</ele>
        <time>2013-12-08T04:30:04.43Z</time>
      </trkpt>
      <trkpt lat="42.345102" lon="2.369140">
        <ele>1422.60</ele>
        <time>2013-12-08T05:07:27.84Z</time>
      </trkpt>
      <trkpt lat="42.345078" lon="2.369142">
        <ele>1421.80</ele>
        <time>2013-12-08T05:52:23.19Z</time>
      </trkpt>
      <trkpt lat="42.345052" lon="2.369139">
        <ele>1421.20</ele>
        <time>2013-12-08T06:41:08.21Z</time>
      </trkpt>
      <trkpt lat="42.344988" lon="2.369122">
        <ele>1419.60</ele>
        <time>2013-12-08T08:42:59.18Z</time>
      </trkpt>
      <trkpt lat="42.344918" lon="2.369102">
        <ele>1418.00</ele>
        <time>2013-12-08T10:56:38.80Z</time>
      </trkpt>
      <trkpt lat="42.344852" lon="2.369098">
        <ele>1416.00</ele>
        <time>2013-12-08T13:00:04.43Z</time>
      </trkpt>
      <trkpt lat="42.344784" lon="2.369097">
        <ele>1414.40</ele>
        <time>2013-12-08T15:07:07.27Z</time>
      </trkpt>
      <trkpt lat="42.344754" lon="2.369103">
        <ele>1413.60</ele>
        <time>2013-12-08T16:03:46.63Z</time>
      </trkpt>
      <trkpt lat="42.344730" lon="2.369109">
        <ele>1412.60</ele>
        <time>2013-12-08T16:49:22.43Z</time>
      </trkpt>
      <trkpt lat="42.344683" lon="2.369106">
        <ele>1411.20</ele>
        <time>2013-12-08T18:17:16.71Z</time>
      </trkpt>
      <trkpt lat="42.344646" lon="2.369079">
        <ele>1410.20</ele>
        <time>2013-12-08T19:35:48.97Z</time>
      </trkpt>
      <trkpt lat="42.344618" lon="2.369078">
        <ele>1409.20</ele>
        <time>2013-12-08T20:28:08.70Z</time>
      </trkpt>
      <trkpt lat="42.344579" lon="2.369063">
        <ele>1408.40</ele>
        <time>2013-12-08T21:43:53.57Z</time>
      </trkpt>
      <trkpt lat="42.344539" lon="2.369057">
        <ele>1406.60</ele>
        <time>2013-12-08T22:59:04.80Z</time>
      </trkpt>
      <trkpt lat="42.344460" lon="2.369038">
        <ele>1405.00</ele>
        <time>2013-12-09T01:28:59.05Z</time>
      </trkpt>
      <trkpt lat="42.344393" lon="2.368994">
        <ele>1403.20</ele>
        <time>2013-12-09T03:48:07.31Z</time>
      </trkpt>
      <trkpt lat="42.344360" lon="2.368988">
        <ele>1402.20</ele>
        <time>2013-12-09T04:50:19.66Z</time>
      </trkpt>
      <trkpt lat="42.344329" lon="2.368990">
        <ele>1401.80</ele>
        <time>2013-12-09T05:48:18.53Z</time>
      </trkpt>
      <trkpt lat="42.344300" lon="2.368972">
        <ele>1400.80</ele>
        <time>2013-12-09T06:47:55Z</time>
      </trkpt>
      <trkpt lat="42.344234" lon="2.368946">
        <ele>1399.20</ele>
        <time>2013-12-09T08:56:20.43Z</time>
      </trkpt>
      <trkpt lat="42.344133" lon="2.368888">
        <ele>1398.00</ele>
        <time>2013-12-09T12:21:19.50Z</time>
      </trkpt>
      <trkpt lat="42.344102" lon="2.368865">
        <ele>1396.80</ele>
        <time>2013-12-09T13:27:22.60Z</time>
      </trkpt>
      <trkpt lat="42.344081" lon="2.368841">
        <ele>1396.00</ele>
        <time>2013-12-09T14:18:43.98Z</time>
      </trkpt>
      <trkpt lat="42.344054" lon="2.368810">
        <ele>1395.40</ele>
        <time>2013-12-09T15:24:53.42Z</time>
      </trkpt>
      <trkpt lat="42.343963" lon="2.368741">
        <ele>1394.00</ele>
        <time>2013-12-09T18:39:46.64Z</time>
      </trkpt>
      <trkpt lat="42.343920" lon="2.368722">
        <ele>1393.40</ele>
        <time>2013-12-09T20:04:17.22Z</time>
      </trkpt>
      <trkpt lat="42.343881" lon="2.368706">
        <ele>1392.80</ele>
        <time>2013-12-09T21:20:25.45Z</time>
      </trkpt>
      <trkpt lat="42.343816" lon="2.368677">
        <ele>1391.60</ele>
        <time>2013-12-09T23:28:17.49Z</time>
      </trkpt>
      <trkpt lat="42.343768" lon="2.368672">
        <ele>1389.60</ele>
        <time>2013-12-10T00:58:13.93Z</time>
      </trkpt>
      <trkpt lat="42.343700" lon="2.368621">
        <ele>1388.20</ele>
        <time>2013-12-10T03:23:29.13Z</time>
      </trkpt>
      <trkpt lat="42.343686" lon="2.368581">
        <ele>1387.80</ele>
        <time>2013-12-10T04:24:35.94Z</time>
      </trkpt>
      <trkpt lat="42.343674" lon="2.368480">
        <ele>1386.60</ele>
        <time>2013-12-10T06:45:51.28Z</time>
      </trkpt>
      <trkpt lat="42.343639" lon="2.368413">
        <ele>1385.80</ele>
        <time>2013-12-10T08:39:08.77Z</time>
      </trkpt>
      <trkpt lat="42.343575" lon="2.368400">
        <ele>1385.40</ele>
        <time>2013-12-10T10:40:03.18Z</time>
      </trkpt>
      <trkpt lat="42.343456" lon="2.368368">
        <ele>1384.20</ele>
        <time>2013-12-10T14:26:43.29Z</time>
      </trkpt>
      <trkpt lat="42.343290" lon="2.368371">
        <ele>1383.00</ele>
        <time>2013-12-10T19:36:52.56Z</time>
      </trkpt>
      <trkpt lat="42.343187" lon="2.368381">
        <ele>1382.20</ele>
        <time>2013-12-10T22:49:47.93Z</time>
      </trkpt>
      <trkpt lat="42.343144" lon="2.368349">
        <ele>1381.60</ele>
        <time>2013-12-11T00:21:29.01Z</time>
      </trkpt>
      <trkpt lat="42.343068" lon="2.368300">
        <ele>1380.00</ele>
        <time>2013-12-11T02:58:46.02Z</time>
      </trkpt>
      <trkpt lat="42.343001" lon="2.368264">
        <ele>1378.60</ele>
        <time>2013-12-11T05:13:26.91Z</time>
      </trkpt>
      <trkpt lat="42.342930" lon="2.368219">
        <ele>1377.00</ele>
        <time>2013-12-11T07:39:55.59Z</time>
      </trkpt>
      <trkpt lat="42.342876" lon="2.368205">
        <ele>1376.00</ele>
        <time>2013-12-11T09:22:38.80Z</time>
      </trkpt>
      <trkpt lat="42.342688" lon="2.368228">
        <ele>1375.00</ele>
        <time>2013-12-11T15:15:18.45Z</time>
      </trkpt>
      <trkpt lat="42.342629" lon="2.368236">
        <ele>1374.60</ele>
        <time>2013-12-11T17:06:05.13Z</time>
      </trkpt>
      <trkpt lat="42.342520" lon="2.368221">
        <ele>1375.80</ele>
        <time>2013-12-11T20:30:46.42Z</time>
      </trkpt>
      <trkpt lat="42.342441" lon="2.368184">
        <ele>1375.80</ele>
        <time>2013-12-11T23:06:57.44Z</time>
      </trkpt>
      <trkpt lat="42.342402" lon="2.368156">
        <ele>1376.00</ele>
        <time>2013-12-12T00:29:26.51Z</time>
      </trkpt>
      <trkpt lat="42.342366" lon="2.368143">
        <ele>1376.00</ele>
        <time>2013-12-12T01:39:03.16Z</time>
      </trkpt>
      <trkpt lat="42.342260" lon="2.368083">
        <ele>1376.00</ele>
        <time>2013-12-12T05:13:43.12Z</time>
      </trkpt>
      <trkpt lat="42.342228" lon="2.368055">
        <ele>1375.60</ele>
        <time>2013-12-12T06:24:54.94Z</time>
      </trkpt>
      <trkpt lat="42.342197" lon="2.368030">
        <ele>1375.00</ele>
        <time>2013-12-12T07:32:20.36Z</time>
      </trkpt>
      <trkpt lat="42.342166" lon="2.368000">
        <ele>1374.20</ele>
        <time>2013-12-12T08:43:32.73Z</time>
      </trkpt>
      <trkpt lat="42.342096" lon="2.367926">
        <ele>1372.80</ele>
        <time>2013-12-12T11:29:30.60Z</time>
      </trkpt>
      <trkpt lat="42.342056" lon="2.367892">
        <ele>1371.80</ele>
        <time>2013-12-12T12:57:45.84Z</time>
      </trkpt>
      <trkpt lat="42.342011" lon="2.367868">
        <ele>1371.00</ele>
        <time>2013-12-12T14:28:07.85Z</time>
      </trkpt>
      <trkpt lat="42.341962" lon="2.367861">
        <ele>1370.00</ele>
        <time>2013-12-12T16:00:11Z</time>
      </trkpt>
      <trkpt lat="42.341912" lon="2.367854">
        <ele>1369.20</ele>
        <time>2013-12-12T17:34:05.62Z</time>
      </trkpt>
      <trkpt lat="42.341856" lon="2.367847">
        <ele>1368.00</ele>
        <time>2013-12-12T19:19:09.62Z</time>
      </trkpt>
      <trkpt lat="42.341804" lon="2.367842">
        <ele>1367.80</ele>
        <time>2013-12-12T20:56:33.21Z</time>
      </trkpt>
      <trkpt lat="42.341753" lon="2.367840">
        <ele>1367.20</ele>
        <time>2013-12-12T22:31:52.41Z</time>
      </trkpt>
      <trkpt lat="42.341709" lon="2.367828">
        <ele>1367.00</ele>
        <time>2013-12-12T23:55:43.76Z</time>
      </trkpt>
      <trkpt lat="42.341651" lon="2.367801">
        <ele>1366.40</ele>
        <time>2013-12-13T01:50:19.31Z</time>
      </trkpt>
      <trkpt lat="42.341560" lon="2.367731">
        <ele>1366.00</ele>
        <time>2013-12-13T05:05:53.38Z</time>
      </trkpt>
      <trkpt lat="42.341531" lon="2.367715">
        <ele>1365.40</ele>
        <time>2013-12-13T06:04:24.02Z</time>
      </trkpt>
      <trkpt lat="42.341485" lon="2.367687">
        <ele>1364.60</ele>
        <time>2013-12-13T07:38:38.18Z</time>
      </trkpt>
      <trkpt lat="42.341382" lon="2.367591">
        <ele>1362.80</ele>
        <time>2013-12-13T11:32:18.46Z</time>
      </trkpt>
      <trkpt lat="42.341252" lon="2.367511">
        <ele>1361.80</ele>
        <time>2013-12-13T15:59:07.33Z</time>
      </trkpt>
      <trkpt lat="42.341108" lon="2.367463">
        <ele>1361.00</ele>
        <time>2013-12-13T20:36:11.58Z</time>
      </trkpt>
      <trkpt lat="42.341039" lon="2.367448">
        <ele>1360.20</ele>
        <time>2013-12-13T22:46:45.28Z</time>
      </trkpt>
      <trkpt lat="42.340919" lon="2.367409">
        <ele>1358.60</ele>
        <time>2013-12-14T02:37:19.24Z</time>
      </trkpt>
      <trkpt lat="42.340863" lon="2.367379">
        <ele>1357.80</ele>
        <time>2013-12-14T04:29:50.71Z</time>
      </trkpt>
      <trkpt lat="42.340804" lon="2.367358">
        <ele>1357.00</ele>
        <time>2013-12-14T06:23:49.31Z</time>
      </trkpt>
      <trkpt lat="42.340745" lon="2.367347">
        <ele>1356.20</ele>
        <time>2013-12-14T08:15:05.36Z</time>
      </trkpt>
      <trkpt lat="42.340678" lon="2.367335">
        <ele>1355.80</ele>
        <time>2013-12-14T10:21:21.18Z</time>
      </trkpt>
      <trkpt lat="42.340614" lon="2.367325">
        <ele>1356.00</ele>
        <time>2013-12-14T12:21:42.89Z</time>
      </trkpt>
      <trkpt lat="42.340325" lon="2.367284">
        <ele>1356.20</ele>
        <time>2013-12-14T21:24:35.68Z</time>
      </trkpt>
      <trkpt lat="42.340192" lon="2.367228">
        <ele>1357.00</ele>
        <time>2013-12-15T01:44:49.52Z</time>
      </trkpt>
      <trkpt lat="42.340094" lon="2.367198">
        <ele>1357.00</ele>
        <time>2013-12-15T04:52:32.45Z</time>
      </trkpt>
      <trkpt lat="42.339937" lon="2.367132">
        <ele>1356.80</ele>
        <time>2013-12-15T09:59:41.24Z</time>
      </trkpt>
      <trkpt lat="42.339757" lon="2.367071">
        <ele>1355.80</ele>
        <time>2013-12-15T15:46:21.55Z</time>
      </trkpt>
      <trkpt lat="42.339641" lon="2.367018">
        <ele>1355.60</ele>
        <time>2013-12-15T19:35:05.97Z</time>
      </trkpt>
      <trkpt lat="42.339541" lon="2.366966">
        <ele>1355.40</ele>
        <time>2013-12-15T22:55:14.88Z</time>
      </trkpt>
      <trkpt lat="42.339458" lon="2.366944">
        <ele>1356.00</ele>
        <time>2013-12-16T01:33:15.57Z</time>
      </trkpt>
      <trkpt lat="42.339383" lon="2.366919">
        <ele>1356.80</ele>
        <time>2013-12-16T03:57:34.05Z</time>
      </trkpt>
      <trkpt lat="42.339339" lon="2.366900">
        <ele>1357.00</ele>
        <time>2013-12-16T05:23:51.33Z</time>
      </trkpt>
      <trkpt lat="42.339263" lon="2.366883">
        <ele>1356.80</ele>
        <time>2013-12-16T07:47:46.14Z</time>
      </trkpt>
      <trkpt lat="42.339180" lon="2.366873">
        <ele>1355.60</ele>
        <time>2013-12-16T10:23:26.76Z</time>
      </trkpt>
      <trkpt lat="42.339095" lon="2.366867">
        <ele>1354.00</ele>
        <time>2013-12-16T13:02:27.72Z</time>
      </trkpt>
      <trkpt lat="42.339004" lon="2.366850">
        <ele>1352.40</ele>
        <time>2013-12-16T15:54:05.06Z</time>
      </trkpt>
      <trkpt lat="42.338951" lon="2.366838">
        <ele>1351.40</ele>
        <time>2013-12-16T17:34:28.67Z</time>
      </trkpt>
      <trkpt lat="42.338893" lon="2.366833">
        <ele>1350.40</ele>
        <time>2013-12-16T19:23:03.31Z</time>
      </trkpt>
      <trkpt lat="42.338832" lon="2.366842">
        <ele>1349.60</ele>
        <time>2013-12-16T21:17:41.59Z</time>
      </trkpt>
      <trkpt lat="42.338772" lon="2.366848">
        <ele>1348.80</ele>
        <time>2013-12-16T23:10:05.58Z</time>
      </trkpt>
      <trkpt lat="42.338715" lon="2.366847">
        <ele>1347.80</ele>
        <time>2013-12-17T00:56:35.47Z</time>
      </trkpt>
      <trkpt lat="42.338668" lon="2.366865">
        <ele>1346.60</ele>
        <time>2013-12-17T02:27:50.93Z</time>
      </trkpt>
      <trkpt lat="42.338576" lon="2.366904">
        <ele>1345.40</ele>
        <time>2013-12-17T05:27:58Z</time>
      </trkpt>
      <trkpt lat="42.338458" lon="2.366925">
        <ele>1344.60</ele>
        <time>2013-12-17T09:10:19.05Z</time>
      </trkpt>
      <trkpt lat="42.338396" lon="2.366934">
        <ele>1344.20</ele>
        <time>2013-12-17T11:06:48.78Z</time>
      </trkpt>
      <trkpt lat="42.338334" lon="2.366948">
        <ele>1344.00</ele>
        <time>2013-12-17T13:04:14.75Z</time>
      </trkpt>
      <trkpt lat="42.338083" lon="2.366936">
        <ele>1343.80</ele>
        <time>2013-12-17T20:53:27.91Z</time>
      </trkpt>
      <trkpt lat="42.338033" lon="2.366919">
        <ele>1344.20</ele>
        <time>2013-12-17T22:29:46.90Z</time>
      </trkpt>
      <trkpt lat="42.337889" lon="2.366910">
        <ele>1345.20</ele>
        <time>2013-12-18T02:59:05.66Z</time>
      </trkpt>
      <trkpt lat="42.337844" lon="2.366903">
        <ele>1345.40</ele>
        <time>2013-12-18T04:23:43.12Z</time>
      </trkpt>
      <trkpt lat="42.337682" lon="2.366924">
        <ele>1344.80</ele>
        <time>2013-12-18T09:27:45.53Z</time>
      </trkpt>
      <trkpt lat="42.337620" lon="2.366934">
        <ele>1344.40</ele>
        <time>2013-12-18T11:24:24.58Z</time>
      </trkpt>
      <trkpt lat="42.337564" lon="2.366941">
        <ele>1344.20</ele>
        <time>2013-12-18T13:09:28.58Z</time>
      </trkpt>
      <trkpt lat="42.337415" lon="2.366972">
        <ele>1344.60</ele>
        <time>2013-12-18T17:51:06.95Z</time>
      </trkpt>
      <trkpt lat="42.337302" lon="2.367023">
        <ele>1344.20</ele>
        <time>2013-12-18T21:33:39.88Z</time>
      </trkpt>
      <trkpt lat="42.337219" lon="2.367041">
        <ele>1344.20</ele>
        <time>2013-12-19T00:10:42.47Z</time>
      </trkpt>
      <trkpt lat="42.337150" lon="2.367071">
        <ele>1343.80</ele>
        <time>2013-12-19T02:26:06.59Z</time>
      </trkpt>
      <trkpt lat="42.337009" lon="2.367140">
        <ele>1343.60</ele>
        <time>2013-12-19T07:06:14.14Z</time>
      </trkpt>
      <trkpt lat="42.336916" lon="2.367156">
        <ele>1343.40</ele>
        <time>2013-12-19T10:01:22.84Z</time>
      </trkpt>
      <trkpt lat="42.336863" lon="2.367171">
        <ele>1343.00</ele>
        <time>2013-12-19T11:42:32.44Z</time>
      </trkpt>
      <trkpt lat="42.336682" lon="2.367199">
        <ele>1342.00</ele>
        <time>2013-12-19T17:22:53.68Z</time>
      </trkpt>
      <trkpt lat="42.336608" lon="2.367195">
        <ele>1341.40</ele>
        <time>2013-12-19T19:41:15.26Z</time>
      </trkpt>
      <trkpt lat="42.336467" lon="2.367198">
        <ele>1340.20</ele>
        <time>2013-12-20T00:04:42.47Z</time>
      </trkpt>
      <trkpt lat="42.336402" lon="2.367214">
        <ele>1339.60</ele>
        <time>2013-12-20T02:08:08.21Z</time>
      </trkpt>
      <trkpt lat="42.336341" lon="2.367221">
        <ele>1338.80</ele>
        <time>2013-12-20T04:02:30.50Z</time>
      </trkpt>
      <trkpt lat="42.336214" lon="2.367236">
        <ele>1337.60</ele>
        <time>2013-12-20T08:00:40.60Z</time>
      </trkpt>
      <trkpt lat="42.336088" lon="2.367228">
        <ele>1336.00</ele>
        <time>2013-12-20T11:56:19.99Z</time>
      </trkpt>
      <trkpt lat="42.335963" lon="2.367259">
        <ele>1334.60</ele>
        <time>2013-12-20T15:53:45.24Z</time>
      </trkpt>
      <trkpt lat="42.335896" lon="2.367259">
        <ele>1334.40</ele>
        <time>2013-12-20T17:58:55.54Z</time>
      </trkpt>
      <trkpt lat="42.335831" lon="2.367268">
        <ele>1333.40</ele>
        <time>2013-12-20T20:00:59.72Z</time>
      </trkpt>
      <trkpt lat="42.335582" lon="2.367256">
        <ele>1334.00</ele>
        <time>2013-12-21T03:46:28.83Z</time>
      </trkpt>
      <trkpt lat="42.335537" lon="2.367218">
        <ele>1334.00</ele>
        <time>2013-12-21T05:25:35.16Z</time>
      </trkpt>
      <trkpt lat="42.335494" lon="2.367121">
        <ele>1334.40</ele>
        <time>2013-12-21T08:01:47.20Z</time>
      </trkpt>
      <trkpt lat="42.335483" lon="2.367092">
        <ele>1335.00</ele>
        <time>2013-12-21T08:46:48.07Z</time>
      </trkpt>
      <trkpt lat="42.335485" lon="2.367037">
        <ele>1335.80</ele>
        <time>2013-12-21T10:02:50.96Z</time>
      </trkpt>
      <trkpt lat="42.335472" lon="2.366998">
        <ele>1336.60</ele>
        <time>2013-12-21T11:01:55.92Z</time>
      </trkpt>
      <trkpt lat="42.335451" lon="2.366992">
        <ele>1337.00</ele>
        <time>2013-12-21T11:42:01.82Z</time>
      </trkpt>
      <trkpt lat="42.335417" lon="2.366973">
        <ele>1338.00</ele>
        <time>2013-12-21T12:50:45.39Z</time>
      </trkpt>
      <trkpt lat="42.335402" lon="2.366955">
        <ele>1338.60</ele>
        <time>2013-12-21T13:28:13Z</time>
      </trkpt>
      <trkpt lat="42.335386" lon="2.366934">
        <ele>1338.80</ele>
        <time>2013-12-21T14:09:51.92Z</time>
      </trkpt>
      <trkpt lat="42.335371" lon="2.366920">
        <ele>1339.20</ele>
        <time>2013-12-21T14:43:54.68Z</time>
      </trkpt>
      <trkpt lat="42.335294" lon="2.366855">
        <ele>1339.40</ele>
        <time>2013-12-21T17:33:28.54Z</time>
      </trkpt>
      <trkpt lat="42.335266" lon="2.366844">
        <ele>1339.20</ele>
        <time>2013-12-21T18:27:56.84Z</time>
      </trkpt>
      <trkpt lat="42.335160" lon="2.366757">
        <ele>1337.80</ele>
        <time>2013-12-21T22:19:34.70Z</time>
      </trkpt>
      <trkpt lat="42.335105" lon="2.366710">
        <ele>1337.20</ele>
        <time>2013-12-22T00:21:06.92Z</time>
      </trkpt>
      <trkpt lat="42.335042" lon="2.366673">
        <ele>1336.40</ele>
        <time>2013-12-22T02:29:25.65Z</time>
      </trkpt>
      <trkpt lat="42.334886" lon="2.366574">
        <ele>1335.20</ele>
        <time>2013-12-22T07:51:20.89Z</time>
      </trkpt>
      <trkpt lat="42.334739" lon="2.366484">
        <ele>1334.20</ele>
        <time>2013-12-22T12:52:47.75Z</time>
      </trkpt>
      <trkpt lat="42.334630" lon="2.366396">
        <ele>1334.00</ele>
        <time>2013-12-22T16:49:56.51Z</time>
      </trkpt>
      <trkpt lat="42.334583" lon="2.366358">
        <ele>1334.00</ele>
        <time>2013-12-22T18:32:14.18Z</time>
      </trkpt>
      <trkpt lat="42.334543" lon="2.366336">
        <ele>1334.60</ele>
        <time>2013-12-22T19:52:54.36Z</time>
      </trkpt>
      <trkpt lat="42.334483" lon="2.366284">
        <ele>1335.20</ele>
        <time>2013-12-22T22:06:01.89Z</time>
      </trkpt>
      <trkpt lat="42.334444" lon="2.366245">
        <ele>1336.20</ele>
        <time>2013-12-22T23:36:38.34Z</time>
      </trkpt>
      <trkpt lat="42.334405" lon="2.366214">
        <ele>1337.40</ele>
        <time>2013-12-23T01:01:08.84Z</time>
      </trkpt>
      <trkpt lat="42.334358" lon="2.366173">
        <ele>1338.20</ele>
        <time>2013-12-23T02:45:37.68Z</time>
      </trkpt>
      <trkpt lat="42.334333" lon="2.366156">
        <ele>1338.60</ele>
        <time>2013-12-23T03:37:54.17Z</time>
      </trkpt>
      <trkpt lat="42.334193" lon="2.366059">
        <ele>1339.20</ele>
        <time>2013-12-23T08:31:45.96Z</time>
      </trkpt>
      <trkpt lat="42.334124" lon="2.365983">
        <ele>1338.60</ele>
        <time>2013-12-23T11:18:00.03Z</time>
      </trkpt>
      <trkpt lat="42.334036" lon="2.365885">
        <ele>1337.60</ele>
        <time>2013-12-23T14:50:56.89Z</time>
      </trkpt>
      <trkpt lat="42.333987" lon="2.365825">
        <ele>1337.40</ele>
        <time>2013-12-23T16:54:25.51Z</time>
      </trkpt>
      <trkpt lat="42.333854" lon="2.365685">
        <ele>1337.00</ele>
        <time>2013-12-23T22:09:15.83Z</time>
      </trkpt>
      <trkpt lat="42.333731" lon="2.365537">
        <ele>1338.20</ele>
        <time>2013-12-24T03:16:48.43Z</time>
      </trkpt>
      <trkpt lat="42.333702" lon="2.365513">
        <ele>1338.60</ele>
        <time>2013-12-24T04:20:19.24Z</time>
      </trkpt>
      <trkpt lat="42.333535" lon="2.365371">
        <ele>1338.40</ele>
        <time>2013-12-24T10:28:49.91Z</time>
      </trkpt>
      <trkpt lat="42.333481" lon="2.365348">
        <ele>1337.80</ele>
        <time>2013-12-24T12:14:35.94Z</time>
      </trkpt>
      <trkpt lat="42.333424" lon="2.365336">
        <ele>1337.40</ele>
        <time>2013-12-24T14:02:22.21Z</time>
      </trkpt>
      <trkpt lat="42.333313" lon="2.365320">
        <ele>1337.00</ele>
        <time>2013-12-24T17:30:55.08Z</time>
      </trkpt>
      <trkpt lat="42.333076" lon="2.365323">
        <ele>1337.80</ele>
        <time>2013-12-25T00:53:42.53Z</time>
      </trkpt>
      <trkpt lat="42.333020" lon="2.365335">
        <ele>1338.60</ele>
        <time>2013-12-25T02:39:38.06Z</time>
      </trkpt>
      <trkpt lat="42.332927" lon="2.365348">
        <ele>1339.40</ele>
        <time>2013-12-25T05:34:18.32Z</time>
      </trkpt>
      <trkpt lat="42.332803" lon="2.365373">
        <ele>1338.80</ele>
        <time>2013-12-25T09:28:31.50Z</time>
      </trkpt>
      <trkpt lat="42.332691" lon="2.365383">
        <ele>1338.20</ele>
        <time>2013-12-25T12:58:13.35Z</time>
      </trkpt>
      <trkpt lat="42.332582" lon="2.365388">
        <ele>1338.00</ele>
        <time>2013-12-25T16:21:58.62Z</time>
      </trkpt>
      <trkpt lat="42.332464" lon="2.365356">
        <ele>1338.80</ele>
        <time>2013-12-25T20:06:48.89Z</time>
      </trkpt>
      <trkpt lat="42.332423" lon="2.365318">
        <ele>1339.80</ele>
        <time>2013-12-25T21:39:40.01Z</time>
      </trkpt>
      <trkpt lat="42.332374" lon="2.365256">
        <ele>1341.20</ele>
        <time>2013-12-25T23:45:00.94Z</time>
      </trkpt>
      <trkpt lat="42.332352" lon="2.365195">
        <ele>1341.80</ele>
        <time>2013-12-26T01:18:45.21Z</time>
      </trkpt>
      <trkpt lat="42.332327" lon="2.365139">
        <ele>1342.20</ele>
        <time>2013-12-26T02:49:06.21Z</time>
      </trkpt>
      <trkpt lat="42.332296" lon="2.365104">
        <ele>1342.40</ele>
        <time>2013-12-26T04:04:32.44Z</time>
      </trkpt>
      <trkpt lat="42.332242" lon="2.365031">
        <ele>1343.40</ele>
        <time>2013-12-26T06:27:10.04Z</time>
      </trkpt>
      <trkpt lat="42.332230" lon="2.364996">
        <ele>1343.40</ele>
        <time>2013-12-26T07:20:27.09Z</time>
      </trkpt>
      <trkpt lat="42.332185" lon="2.364838">
        <ele>1343.60</ele>
        <time>2013-12-26T11:14:17.96Z</time>
      </trkpt>
      <trkpt lat="42.332117" lon="2.364649">
        <ele>1344.00</ele>
        <time>2013-12-26T16:04:36Z</time>
      </trkpt>
      <trkpt lat="42.332096" lon="2.364560">
        <ele>1344.60</ele>
        <time>2013-12-26T18:13:37.63Z</time>
      </trkpt>
      <trkpt lat="42.332057" lon="2.364486">
        <ele>1345.20</ele>
        <time>2013-12-26T20:19:08.50Z</time>
      </trkpt>
      <trkpt lat="42.332024" lon="2.364428">
        <ele>1345.80</ele>
        <time>2013-12-26T22:00:13.41Z</time>
      </trkpt>
      <trkpt lat="42.331981" lon="2.364328">
        <ele>1346.80</ele>
        <time>2013-12-27T00:39:59.89Z</time>
      </trkpt>
      <trkpt lat="42.331973" lon="2.364313">
        <ele>1347.00</ele>
        <time>2013-12-27T01:05:32.60Z</time>
      </trkpt>
      <trkpt lat="42.331940" lon="2.364244">
        <ele>1347.60</ele>
        <time>2013-12-27T02:59:02.61Z</time>
      </trkpt>
      <trkpt lat="42.331913" lon="2.364198">
        <ele>1348.20</ele>
        <time>2013-12-27T04:20:09.85Z</time>
      </trkpt>
      <trkpt lat="42.331856" lon="2.364120">
        <ele>1349.00</ele>
        <time>2013-12-27T06:51:38.39Z</time>
      </trkpt>
      <trkpt lat="42.331845" lon="2.364104">
        <ele>1349.20</ele>
        <time>2013-12-27T07:21:48.99Z</time>
      </trkpt>
      <trkpt lat="42.331838" lon="2.364084">
        <ele>1349.40</ele>
        <time>2013-12-27T07:52:22.68Z</time>
      </trkpt>
      <trkpt lat="42.331801" lon="2.363994">
        <ele>1349.80</ele>
        <time>2013-12-27T10:14:36.31Z</time>
      </trkpt>
      <trkpt lat="42.331783" lon="2.363957">
        <ele>1349.60</ele>
        <time>2013-12-27T11:15:46.71Z</time>
      </trkpt>
      <trkpt lat="42.331751" lon="2.363865">
        <ele>1350.40</ele>
        <time>2013-12-27T13:36:12.11Z</time>
      </trkpt>
      <trkpt lat="42.331711" lon="2.363793">
        <ele>1351.00</ele>
        <time>2013-12-27T15:40:35.48Z</time>
      </trkpt>
      <trkpt lat="42.331689" lon="2.363761">
        <ele>1351.40</ele>
        <time>2013-12-27T16:40:56.69Z</time>
      </trkpt>
      <trkpt lat="42.331594" lon="2.363588">
        <ele>1351.80</ele>
        <time>2013-12-27T21:38:34.97Z</time>
      </trkpt>
      <trkpt lat="42.331537" lon="2.363423">
        <ele>1352.40</ele>
        <time>2013-12-28T01:50:07.17Z</time>
      </trkpt>
      <trkpt lat="42.331509" lon="2.363388">
        <ele>1352.60</ele>
        <time>2013-12-28T03:01:20.69Z</time>
      </trkpt>
      <trkpt lat="42.331361" lon="2.363268">
        <ele>1352.40</ele>
        <time>2013-12-28T08:23:42.58Z</time>
      </trkpt>
      <trkpt lat="42.331129" lon="2.363124">
        <ele>1352.80</ele>
        <time>2013-12-28T16:20:35.43Z</time>
      </trkpt>
      <trkpt lat="42.331012" lon="2.363067">
        <ele>1352.20</ele>
        <time>2013-12-28T20:12:55.09Z</time>
      </trkpt>
      <trkpt lat="42.330975" lon="2.363023">
        <ele>1351.20</ele>
        <time>2013-12-28T21:44:57.41Z</time>
      </trkpt>
      <trkpt lat="42.330917" lon="2.362967">
        <ele>1349.80</ele>
        <time>2013-12-28T23:58:05.15Z</time>
      </trkpt>
      <trkpt lat="42.330883" lon="2.362941">
        <ele>1349.20</ele>
        <time>2013-12-29T01:11:03.20Z</time>
      </trkpt>
      <trkpt lat="42.330823" lon="2.362872">
        <ele>1348.40</ele>
        <time>2013-12-29T03:38:10.89Z</time>
      </trkpt>
      <trkpt lat="42.330777" lon="2.362805">
        <ele>1348.00</ele>
        <time>2013-12-29T05:44:28.08Z</time>
      </trkpt>
      <trkpt lat="42.330700" lon="2.362691">
        <ele>1347.00</ele>
        <time>2013-12-29T09:17:44.28Z</time>
      </trkpt>
      <trkpt lat="42.330635" lon="2.362537">
        <ele>1345.80</ele>
        <time>2013-12-29T13:22:39.41Z</time>
      </trkpt>
      <trkpt lat="42.330622" lon="2.362380">
        <ele>1344.60</ele>
        <time>2013-12-29T17:00:51.02Z</time>
      </trkpt>
      <trkpt lat="42.330630" lon="2.362252">
        <ele>1344.20</ele>
        <time>2013-12-29T19:58:15.95Z</time>
      </trkpt>
      <trkpt lat="42.330635" lon="2.362156">
        <ele>1345.00</ele>
        <time>2013-12-29T22:11:10.98Z</time>
      </trkpt>
      <trkpt lat="42.330637" lon="2.362086">
        <ele>1346.00</ele>
        <time>2013-12-29T23:47:56.07Z</time>
      </trkpt>
      <trkpt lat="42.330623" lon="2.362044">
        <ele>1346.80</ele>
        <time>2013-12-30T00:51:33.96Z</time>
      </trkpt>
      <trkpt lat="42.330612" lon="2.362015">
        <ele>1347.20</ele>
        <time>2013-12-30T01:36:34.99Z</time>
      </trkpt>
      <trkpt lat="42.330600" lon="2.361881">
        <ele>1348.20</ele>
        <time>2013-12-30T04:43:00.47Z</time>
      </trkpt>
      <trkpt lat="42.330590" lon="2.361851">
        <ele>1348.60</ele>
        <time>2013-12-30T05:28:27.53Z</time>
      </trkpt>
      <trkpt lat="42.330571" lon="2.361782">
        <ele>1349.60</ele>
        <time>2013-12-30T07:10:09.19Z</time>
      </trkpt>
      <trkpt lat="42.330561" lon="2.361697">
        <ele>1350.60</ele>
        <time>2013-12-30T09:09:01.60Z</time>
      </trkpt>
      <trkpt lat="42.330552" lon="2.361660">
        <ele>1350.80</ele>
        <time>2013-12-30T10:02:49.42Z</time>
      </trkpt>
      <trkpt lat="42.330466" lon="2.361519">
        <ele>1350.20</ele>
        <time>2013-12-30T14:15:17.24Z</time>
      </trkpt>
      <trkpt lat="42.330372" lon="2.361366">
        <ele>1350.80</ele>
        <time>2013-12-30T18:50:02.91Z</time>
      </trkpt>
      <trkpt lat="42.330225" lon="2.361192">
        <ele>1350.40</ele>
        <time>2013-12-31T00:54:58.77Z</time>
      </trkpt>
      <trkpt lat="42.330134" lon="2.361114">
        <ele>1349.80</ele>
        <time>2013-12-31T04:16:14.83Z</time>
      </trkpt>
      <trkpt lat="42.330059" lon="2.361062">
        <ele>1350.00</ele>
        <time>2013-12-31T06:53:41.92Z</time>
      </trkpt>
      <trkpt lat="42.329947" lon="2.360971">
        <ele>1349.60</ele>
        <time>2013-12-31T10:57:47.18Z</time>
      </trkpt>
      <trkpt lat="42.329844" lon="2.360912">
        <ele>1349.40</ele>
        <time>2013-12-31T14:26:45.43Z</time>
      </trkpt>
      <trkpt lat="42.329808" lon="2.360879">
        <ele>1349.60</ele>
        <time>2013-12-31T15:48:00.13Z</time>
      </trkpt>
      <trkpt lat="42.329716" lon="2.360823">
        <ele>1349.00</ele>
        <time>2013-12-31T18:56:28.82Z</time>
      </trkpt>
      <trkpt lat="42.329678" lon="2.360806">
        <ele>1347.80</ele>
        <time>2013-12-31T20:11:15.31Z</time>
      </trkpt>
      <trkpt lat="42.329647" lon="2.360789">
        <ele>1345.00</ele>
        <time>2013-12-31T21:13:44.94Z</time>
      </trkpt>
      <trkpt lat="42.329618" lon="2.360745">
        <ele>1344.40</ele>
        <time>2013-12-31T22:35:09.85Z</time>
      </trkpt>
      <trkpt lat="42.329586" lon="2.360695">
        <ele>1343.40</ele>
        <time>2014-01-01T00:06:30.26Z</time>
      </trkpt>
      <trkpt lat="42.329544" lon="2.360650">
        <ele>1342.40</ele>
        <time>2014-01-01T01:46:36.18Z</time>
      </trkpt>
      <trkpt lat="42.329488" lon="2.360616">
        <ele>1341.20</ele>
        <time>2014-01-01T03:41:16.78Z</time>
      </trkpt>
      <trkpt lat="42.329428" lon="2.360590">
        <ele>1340.00</ele>
        <time>2014-01-01T05:38:59.11Z</time>
      </trkpt>
      <trkpt lat="42.329365" lon="2.360570">
        <ele>1338.80</ele>
        <time>2014-01-01T07:39:52.92Z</time>
      </trkpt>
      <trkpt lat="42.329303" lon="2.360548">
        <ele>1336.80</ele>
        <time>2014-01-01T09:39:37.90Z</time>
      </trkpt>
      <trkpt lat="42.329251" lon="2.360541">
        <ele>1335.60</ele>
        <time>2014-01-01T11:17:15.58Z</time>
      </trkpt>
      <trkpt lat="42.329212" lon="2.360543">
        <ele>1334.00</ele>
        <time>2014-01-01T12:30:10.39Z</time>
      </trkpt>
      <trkpt lat="42.329178" lon="2.360544">
        <ele>1333.00</ele>
        <time>2014-01-01T13:33:42.48Z</time>
      </trkpt>
      <trkpt lat="42.329147" lon="2.360536">
        <ele>1331.40</ele>
        <time>2014-01-01T14:32:40.07Z</time>
      </trkpt>
      <trkpt lat="42.329118" lon="2.360508">
        <ele>1330.40</ele>
        <time>2014-01-01T15:39:13.98Z</time>
      </trkpt>
      <trkpt lat="42.329095" lon="2.360466">
        <ele>1329.00</ele>
        <time>2014-01-01T16:51:25.38Z</time>
      </trkpt>
      <trkpt lat="42.329092" lon="2.360406">
        <ele>1328.00</ele>
        <time>2014-01-01T18:14:28.93Z</time>
      </trkpt>
      <trkpt lat="42.329082" lon="2.360356">
        <ele>1326.80</ele>
        <time>2014-01-01T19:26:01.37Z</time>
      </trkpt>
      <trkpt lat="42.329067" lon="2.360314">
        <ele>1325.80</ele>
        <time>2014-01-01T20:30:26.77Z</time>
      </trkpt>
      <trkpt lat="42.329063" lon="2.360262">
        <ele>1324.80</ele>
        <time>2014-01-01T21:42:39.27Z</time>
      </trkpt>
      <trkpt lat="42.329084" lon="2.360202">
        <ele>1324.00</ele>
        <time>2014-01-01T23:14:20.53Z</time>
      </trkpt>
      <trkpt lat="42.329119" lon="2.360157">
        <ele>1323.20</ele>
        <time>2014-01-02T00:44:33.36Z</time>
      </trkpt>
      <trkpt lat="42.329175" lon="2.360062">
        <ele>1322.00</ele>
        <time>2014-01-02T03:32:22.25Z</time>
      </trkpt>
      <trkpt lat="42.329247" lon="2.359910">
        <ele>1320.60</ele>
        <time>2014-01-02T07:41:42.25Z</time>
      </trkpt>
      <trkpt lat="42.329274" lon="2.359869">
        <ele>1320.00</ele>
        <time>2014-01-02T08:57:32.41Z</time>
      </trkpt>
      <trkpt lat="42.329295" lon="2.359812">
        <ele>1319.20</ele>
        <time>2014-01-02T10:25:30.04Z</time>
      </trkpt>
      <trkpt lat="42.329355" lon="2.359691">
        <ele>1317.40</ele>
        <time>2014-01-02T13:46:43.95Z</time>
      </trkpt>
      <trkpt lat="42.329351" lon="2.359618">
        <ele>1316.80</ele>
        <time>2014-01-02T15:27:50.02Z</time>
      </trkpt>
      <trkpt lat="42.329334" lon="2.359537">
        <ele>1315.80</ele>
        <time>2014-01-02T17:24:07.71Z</time>
      </trkpt>
      <trkpt lat="42.329282" lon="2.359356">
        <ele>1314.20</ele>
        <time>2014-01-02T21:52:19.88Z</time>
      </trkpt>
      <trkpt lat="42.329251" lon="2.359268">
        <ele>1313.40</ele>
        <time>2014-01-03T00:06:58Z</time>
      </trkpt>
      <trkpt lat="42.329212" lon="2.359099">
        <ele>1312.80</ele>
        <time>2014-01-03T04:11:29.43Z</time>
      </trkpt>
      <trkpt lat="42.329184" lon="2.358998">
        <ele>1311.80</ele>
        <time>2014-01-03T06:40:28.41Z</time>
      </trkpt>
      <trkpt lat="42.329152" lon="2.358895">
        <ele>1310.60</ele>
        <time>2014-01-03T09:14:47.07Z</time>
      </trkpt>
      <trkpt lat="42.329139" lon="2.358831">
        <ele>1309.80</ele>
        <time>2014-01-03T10:46:27.29Z</time>
      </trkpt>
      <trkpt lat="42.329115" lon="2.358776">
        <ele>1309.20</ele>
        <time>2014-01-03T12:14:39.87Z</time>
      </trkpt>
      <trkpt lat="42.329099" lon="2.358723">
        <ele>1308.80</ele>
        <time>2014-01-03T13:33:44.05Z</time>
      </trkpt>
      <trkpt lat="42.329089" lon="2.358665">
        <ele>1308.40</ele>
        <time>2014-01-03T14:55:59.48Z</time>
      </trkpt>
      <trkpt lat="42.329094" lon="2.358542">
        <ele>1307.60</ele>
        <time>2014-01-03T17:46:07.88Z</time>
      </trkpt>
      <trkpt lat="42.329096" lon="2.358489">
        <ele>1307.20</ele>
        <time>2014-01-03T18:59:25.70Z</time>
      </trkpt>
      <trkpt lat="42.329089" lon="2.358425">
        <ele>1306.80</ele>
        <time>2014-01-03T20:28:47.10Z</time>
      </trkpt>
      <trkpt lat="42.329092" lon="2.358369">
        <ele>1305.60</ele>
        <time>2014-01-03T21:46:19.99Z</time>
      </trkpt>
      <trkpt lat="42.329119" lon="2.358286">
        <ele>1303.60</ele>
        <time>2014-01-03T23:51:34.61Z</time>
      </trkpt>
      <trkpt lat="42.329169" lon="2.358190">
        <ele>1302.20</ele>
        <time>2014-01-04T02:33:46.14Z</time>
      </trkpt>
      <trkpt lat="42.329173" lon="2.358120">
        <ele>1301.40</ele>
        <time>2014-01-04T04:10:44.33Z</time>
      </trkpt>
      <trkpt lat="42.329176" lon="2.358082">
        <ele>1300.60</ele>
        <time>2014-01-04T05:03:31.29Z</time>
      </trkpt>
      <trkpt lat="42.329171" lon="2.357972">
        <ele>1299.00</ele>
        <time>2014-01-04T07:35:44.18Z</time>
      </trkpt>
      <trkpt lat="42.329137" lon="2.357934">
        <ele>1298.40</ele>
        <time>2014-01-04T08:58:08.04Z</time>
      </trkpt>
      <trkpt lat="42.329092" lon="2.357896">
        <ele>1297.40</ele>
        <time>2014-01-04T10:37:14.53Z</time>
      </trkpt>
      <trkpt lat="42.328997" lon="2.357823">
        <ele>1296.00</ele>
        <time>2014-01-04T14:01:21.83Z</time>
      </trkpt>
      <trkpt lat="42.328942" lon="2.357716">
        <ele>1294.00</ele>
        <time>2014-01-04T17:01:21.59Z</time>
      </trkpt>
      <trkpt lat="42.328945" lon="2.357654">
        <ele>1293.40</ele>
        <time>2014-01-04T18:27:10.52Z</time>
      </trkpt>
      <trkpt lat="42.328890" lon="2.357564">
        <ele>1292.60</ele>
        <time>2014-01-04T21:08:27.08Z</time>
      </trkpt>
      <trkpt lat="42.328829" lon="2.357461">
        <ele>1291.20</ele>
        <time>2014-01-05T00:10:43.79Z</time>
      </trkpt>
      <trkpt lat="42.328798" lon="2.357436">
        <ele>1290.40</ele>
        <time>2014-01-05T01:18:09.43Z</time>
      </trkpt>
      <trkpt lat="42.328775" lon="2.357410">
        <ele>1289.80</ele>
        <time>2014-01-05T02:14:09.39Z</time>
      </trkpt>
      <trkpt lat="42.328756" lon="2.357374">
        <ele>1288.20</ele>
        <time>2014-01-05T03:15:14.94Z</time>
      </trkpt>
      <trkpt lat="42.328720" lon="2.357289">
        <ele>1286.60</ele>
        <time>2014-01-05T05:30:32.95Z</time>
      </trkpt>
      <trkpt lat="42.328707" lon="2.357253">
        <ele>1285.80</ele>
        <time>2014-01-05T06:25:53.15Z</time>
      </trkpt>
      <trkpt lat="42.328696" lon="2.357221">
        <ele>1285.00</ele>
        <time>2014-01-05T07:14:37.65Z</time>
      </trkpt>
      <trkpt lat="42.328665" lon="2.357161">
        <ele>1283.80</ele>
        <time>2014-01-05T08:55:43.79Z</time>
      </trkpt>
      <trkpt lat="42.328609" lon="2.357075">
        <ele>1282.20</ele>
        <time>2014-01-05T11:34:00.96Z</time>
      </trkpt>
      <trkpt lat="42.328589" lon="2.357027">
        <ele>1281.00</ele>
        <time>2014-01-05T12:50:07.01Z</time>
      </trkpt>
      <trkpt lat="42.328575" lon="2.356982">
        <ele>1279.80</ele>
        <time>2014-01-05T13:57:32.94Z</time>
      </trkpt>
      <trkpt lat="42.328573" lon="2.356947">
        <ele>1278.80</ele>
        <time>2014-01-05T14:46:02.06Z</time>
      </trkpt>
      <trkpt lat="42.328566" lon="2.356902">
        <ele>1277.40</ele>
        <time>2014-01-05T15:49:32.89Z</time>
      </trkpt>
      <trkpt lat="42.328570" lon="2.356859">
        <ele>1276.40</ele>
        <time>2014-01-05T16:49:24.42Z</time>
      </trkpt>
      <trkpt lat="42.328559" lon="2.356819">
        <ele>1275.20</ele>
        <time>2014-01-05T17:48:21.15Z</time>
      </trkpt>
      <trkpt lat="42.328529" lon="2.356709">
        <ele>1273.40</ele>
        <time>2014-01-05T20:30:17.41Z</time>
      </trkpt>
      <trkpt lat="42.328499" lon="2.356664">
        <ele>1272.20</ele>
        <time>2014-01-05T21:53:58.90Z</time>
      </trkpt>
      <trkpt lat="42.328451" lon="2.356546">
        <ele>1270.40</ele>
        <time>2014-01-06T01:00:00.16Z</time>
      </trkpt>
      <trkpt lat="42.328428" lon="2.356495">
        <ele>1269.60</ele>
        <time>2014-01-06T02:22:30.87Z</time>
      </trkpt>
      <trkpt lat="42.328417" lon="2.356453">
        <ele>1268.80</ele>
        <time>2014-01-06T03:24:03.39Z</time>
      </trkpt>
      <trkpt lat="42.328391" lon="2.356407">
        <ele>1267.60</ele>
        <time>2014-01-06T04:44:01.91Z</time>
      </trkpt>
      <trkpt lat="42.328399" lon="2.356383">
        <ele>1266.00</ele>
        <time>2014-01-06T05:20:23.63Z</time>
      </trkpt>
      <trkpt lat="42.328390" lon="2.356335">
        <ele>1264.40</ele>
        <time>2014-01-06T06:28:47.36Z</time>
      </trkpt>
      <trkpt lat="42.328384" lon="2.356287">
        <ele>1263.20</ele>
        <time>2014-01-06T07:36:01.62Z</time>
      </trkpt>
      <trkpt lat="42.328389" lon="2.356255">
        <ele>1262.40</ele>
        <time>2014-01-06T08:21:12.07Z</time>
      </trkpt>
      <trkpt lat="42.328391" lon="2.356222">
        <ele>1261.80</ele>
        <time>2014-01-06T09:06:55.98Z</time>
      </trkpt>
      <trkpt lat="42.328381" lon="2.356194">
        <ele>1261.00</ele>
        <time>2014-01-06T09:49:52.93Z</time>
      </trkpt>
      <trkpt lat="42.328366" lon="2.356182">
        <ele>1260.20</ele>
        <time>2014-01-06T10:22:26.41Z</time>
      </trkpt>
      <trkpt lat="42.328340" lon="2.356148">
        <ele>1258.80</ele>
        <time>2014-01-06T11:30:00.16Z</time>
      </trkpt>
      <trkpt lat="42.328323" lon="2.356092">
        <ele>1257.40</ele>
        <time>2014-01-06T12:53:36.94Z</time>
      </trkpt>
      <trkpt lat="42.328294" lon="2.355994">
        <ele>1255.80</ele>
        <time>2014-01-06T15:19:24.71Z</time>
      </trkpt>
      <trkpt lat="42.328282" lon="2.355941">
        <ele>1254.80</ele>
        <time>2014-01-06T16:35:58.23Z</time>
      </trkpt>
      <trkpt lat="42.328265" lon="2.355908">
        <ele>1254.20</ele>
        <time>2014-01-06T17:31:31.42Z</time>
      </trkpt>
      <trkpt lat="42.328249" lon="2.355872">
        <ele>1253.40</ele>
        <time>2014-01-06T18:29:32.38Z</time>
      </trkpt>
      <trkpt lat="42.328231" lon="2.355839">
        <ele>1252.80</ele>
        <time>2014-01-06T19:26:10.89Z</time>
      </trkpt>
      <trkpt lat="42.328188" lon="2.355740">
        <ele>1249.80</ele>
        <time>2014-01-06T22:04:46.26Z</time>
      </trkpt>
      <trkpt lat="42.328163" lon="2.355678">
        <ele>1248.60</ele>
        <time>2014-01-06T23:42:18.81Z</time>
      </trkpt>
      <trkpt lat="42.328147" lon="2.355657">
        <ele>1248.20</ele>
        <time>2014-01-07T00:23:57.86Z</time>
      </trkpt>
      <trkpt lat="42.328121" lon="2.355635">
        <ele>1247.20</ele>
        <time>2014-01-07T01:21:15.58Z</time>
      </trkpt>
      <trkpt lat="42.328129" lon="2.355643">
        <ele>1247.00</ele>
        <time>2014-01-07T01:39:50.79Z</time>
      </trkpt>
      <trkpt lat="42.328070" lon="2.355584">
        <ele>1246.40</ele>
        <time>2014-01-07T03:56:55.47Z</time>
      </trkpt>
      <trkpt lat="42.328047" lon="2.355565">
        <ele>1246.00</ele>
        <time>2014-01-07T04:47:16.42Z</time>
      </trkpt>
      <trkpt lat="42.328021" lon="2.355547">
        <ele>1245.80</ele>
        <time>2014-01-07T05:41:50.42Z</time>
      </trkpt>
      <trkpt lat="42.327960" lon="2.355486">
        <ele>1244.60</ele>
        <time>2014-01-07T08:03:33.90Z</time>
      </trkpt>
      <trkpt lat="42.327929" lon="2.355422">
        <ele>1243.80</ele>
        <time>2014-01-07T09:49:14.64Z</time>
      </trkpt>
      <trkpt lat="42.327907" lon="2.355345">
        <ele>1243.00</ele>
        <time>2014-01-07T11:43:15.69Z</time>
      </trkpt>
      <trkpt lat="42.327881" lon="2.355194">
        <ele>1241.00</ele>
        <time>2014-01-07T15:17:24.19Z</time>
      </trkpt>
      <trkpt lat="42.327880" lon="2.355124">
        <ele>1239.80</ele>
        <time>2014-01-07T16:54:06.28Z</time>
      </trkpt>
      <trkpt lat="42.327789" lon="2.355020">
        <ele>1238.00</ele>
        <time>2014-01-07T20:36:40.39Z</time>
      </trkpt>
      <trkpt lat="42.327750" lon="2.354997">
        <ele>1237.00</ele>
        <time>2014-01-07T21:56:09.51Z</time>
      </trkpt>
      <trkpt lat="42.327723" lon="2.354959">
        <ele>1235.80</ele>
        <time>2014-01-07T23:08:57.22Z</time>
      </trkpt>
      <trkpt lat="42.327673" lon="2.354887">
        <ele>1234.40</ele>
        <time>2014-01-08T01:25:23.49Z</time>
      </trkpt>
      <trkpt lat="42.327652" lon="2.354863">
        <ele>1233.80</ele>
        <time>2014-01-08T02:16:45.21Z</time>
      </trkpt>
      <trkpt lat="42.327633" lon="2.354839">
        <ele>1233.00</ele>
        <time>2014-01-08T03:05:19.28Z</time>
      </trkpt>
      <trkpt lat="42.327589" lon="2.354794">
        <ele>1231.60</ele>
        <time>2014-01-08T04:48:22.58Z</time>
      </trkpt>
      <trkpt lat="42.327542" lon="2.354715">
        <ele>1229.80</ele>
        <time>2014-01-08T07:08:26.02Z</time>
      </trkpt>
      <trkpt lat="42.327517" lon="2.354693">
        <ele>1228.60</ele>
        <time>2014-01-08T08:04:09.25Z</time>
      </trkpt>
      <trkpt lat="42.327489" lon="2.354679">
        <ele>1227.40</ele>
        <time>2014-01-08T08:59:55.45Z</time>
      </trkpt>
      <trkpt lat="42.327432" lon="2.354657">
        <ele>1225.80</ele>
        <time>2014-01-08T10:50:39.84Z</time>
      </trkpt>
      <trkpt lat="42.327410" lon="2.354659">
        <ele>1225.40</ele>
        <time>2014-01-08T11:31:51.47Z</time>
      </trkpt>
      <trkpt lat="42.327385" lon="2.354658">
        <ele>1224.60</ele>
        <time>2014-01-08T12:18:35.05Z</time>
      </trkpt>
      <trkpt lat="42.327365" lon="2.354636">
        <ele>1223.80</ele>
        <time>2014-01-08T13:06:44.69Z</time>
      </trkpt>
      <trkpt lat="42.327357" lon="2.354601">
        <ele>1223.20</ele>
        <time>2014-01-08T13:57:20.68Z</time>
      </trkpt>
      <trkpt lat="42.327344" lon="2.354554">
        <ele>1222.40</ele>
        <time>2014-01-08T15:06:39.34Z</time>
      </trkpt>
      <trkpt lat="42.327333" lon="2.354501">
        <ele>1221.80</ele>
        <time>2014-01-08T16:22:41.36Z</time>
      </trkpt>
      <trkpt lat="42.327325" lon="2.354461">
        <ele>1221.20</ele>
        <time>2014-01-08T17:19:55.40Z</time>
      </trkpt>
      <trkpt lat="42.327332" lon="2.354431">
        <ele>1220.60</ele>
        <time>2014-01-08T18:03:22.46Z</time>
      </trkpt>
      <trkpt lat="42.327347" lon="2.354414">
        <ele>1219.60</ele>
        <time>2014-01-08T18:39:56.07Z</time>
      </trkpt>
      <trkpt lat="42.327358" lon="2.354398">
        <ele>1218.40</ele>
        <time>2014-01-08T19:10:06.74Z</time>
      </trkpt>
      <trkpt lat="42.327372" lon="2.354375">
        <ele>1217.60</ele>
        <time>2014-01-08T19:51:15.71Z</time>
      </trkpt>
      <trkpt lat="42.327392" lon="2.354337">
        <ele>1217.00</ele>
        <time>2014-01-08T20:55:41.34Z</time>
      </trkpt>
      <trkpt lat="42.327403" lon="2.354315">
        <ele>1216.20</ele>
        <time>2014-01-08T21:32:22.34Z</time>
      </trkpt>
      <trkpt lat="42.327405" lon="2.354301">
        <ele>1216.00</ele>
        <time>2014-01-08T21:52:04.01Z</time>
      </trkpt>
      <trkpt lat="42.327449" lon="2.354203">
        <ele>1212.80</ele>
        <time>2014-01-09T00:30:25.81Z</time>
      </trkpt>
      <trkpt lat="42.327461" lon="2.354191">
        <ele>1212.40</ele>
        <time>2014-01-09T00:58:18.63Z</time>
      </trkpt>
      <trkpt lat="42.327472" lon="2.354181">
        <ele>1212.00</ele>
        <time>2014-01-09T01:23:04.28Z</time>
      </trkpt>
      <trkpt lat="42.327492" lon="2.354160">
        <ele>1211.40</ele>
        <time>2014-01-09T02:10:22.36Z</time>
      </trkpt>
      <trkpt lat="42.327520" lon="2.354122">
        <ele>1210.20</ele>
        <time>2014-01-09T03:24:28.49Z</time>
      </trkpt>
      <trkpt lat="42.327538" lon="2.354097">
        <ele>1209.80</ele>
        <time>2014-01-09T04:12:40.45Z</time>
      </trkpt>
      <trkpt lat="42.327540" lon="2.354065">
        <ele>1209.20</ele>
        <time>2014-01-09T04:57:01.81Z</time>
      </trkpt>
      <trkpt lat="42.327524" lon="2.353996">
        <ele>1208.40</ele>
        <time>2014-01-09T06:36:54.65Z</time>
      </trkpt>
      <trkpt lat="42.327516" lon="2.353988">
        <ele>1208.00</ele>
        <time>2014-01-09T06:55:29.86Z</time>
      </trkpt>
      <trkpt lat="42.327538" lon="2.353910">
        <ele>1206.80</ele>
        <time>2014-01-09T08:50:48.31Z</time>
      </trkpt>
      <trkpt lat="42.327543" lon="2.353823">
        <ele>1205.40</ele>
        <time>2014-01-09T10:51:19.92Z</time>
      </trkpt>
      <trkpt lat="42.327567" lon="2.353748">
        <ele>1204.80</ele>
        <time>2014-01-09T12:44:12.56Z</time>
      </trkpt>
      <trkpt lat="42.327586" lon="2.353691">
        <ele>1204.80</ele>
        <time>2014-01-09T14:10:34.19Z</time>
      </trkpt>
      <trkpt lat="42.327591" lon="2.353639">
        <ele>1204.40</ele>
        <time>2014-01-09T15:22:59.82Z</time>
      </trkpt>
      <trkpt lat="42.327589" lon="2.353589">
        <ele>1203.20</ele>
        <time>2014-01-09T16:32:09.47Z</time>
      </trkpt>
      <trkpt lat="42.327587" lon="2.353543">
        <ele>1202.80</ele>
        <time>2014-01-09T17:35:48.17Z</time>
      </trkpt>
      <trkpt lat="42.327622" lon="2.353380">
        <ele>1202.60</ele>
        <time>2014-01-09T21:30:14.49Z</time>
      </trkpt>
      <trkpt lat="42.327599" lon="2.353266">
        <ele>1203.00</ele>
        <time>2014-01-10T00:13:27.35Z</time>
      </trkpt>
      <trkpt lat="42.327588" lon="2.353167">
        <ele>1202.80</ele>
        <time>2014-01-10T02:31:43.80Z</time>
      </trkpt>
      <trkpt lat="42.327556" lon="2.353087">
        <ele>1202.20</ele>
        <time>2014-01-10T04:37:21.72Z</time>
      </trkpt>
      <trkpt lat="42.327490" lon="2.352986">
        <ele>1201.20</ele>
        <time>2014-01-10T07:43:32.73Z</time>
      </trkpt>
      <trkpt lat="42.327456" lon="2.352911">
        <ele>1200.80</ele>
        <time>2014-01-10T09:45:03.58Z</time>
      </trkpt>
      <trkpt lat="42.327422" lon="2.352797">
        <ele>1199.40</ele>
        <time>2014-01-10T12:34:50.77Z</time>
      </trkpt>
      <trkpt lat="42.327408" lon="2.352740">
        <ele>1198.60</ele>
        <time>2014-01-10T13:57:48.34Z</time>
      </trkpt>
      <trkpt lat="42.327393" lon="2.352688">
        <ele>1198.40</ele>
        <time>2014-01-10T15:14:54.10Z</time>
      </trkpt>
      <trkpt lat="42.327360" lon="2.352665">
        <ele>1198.20</ele>
        <time>2014-01-10T16:24:15.40Z</time>
      </trkpt>
      <trkpt lat="42.327294" lon="2.352584">
        <ele>1197.80</ele>
        <time>2014-01-10T19:10:45.05Z</time>
      </trkpt>
      <trkpt lat="42.327249" lon="2.352509">
        <ele>1197.00</ele>
        <time>2014-01-10T21:24:09.78Z</time>
      </trkpt>
      <trkpt lat="42.327245" lon="2.352408">
        <ele>1196.40</ele>
        <time>2014-01-10T23:43:51.89Z</time>
      </trkpt>
      <trkpt lat="42.327252" lon="2.352347">
        <ele>1195.80</ele>
        <time>2014-01-11T01:09:07.63Z</time>
      </trkpt>
      <trkpt lat="42.327264" lon="2.352280">
        <ele>1194.60</ele>
        <time>2014-01-11T02:44:20.69Z</time>
      </trkpt>
      <trkpt lat="42.327260" lon="2.352311">
        <ele>1194.20</ele>
        <time>2014-01-11T03:27:48.56Z</time>
      </trkpt>
      <trkpt lat="42.327195" lon="2.352174">
        <ele>1190.60</ele>
        <time>2014-01-11T07:12:38.92Z</time>
      </trkpt>
      <trkpt lat="42.327178" lon="2.352147">
        <ele>1189.40</ele>
        <time>2014-01-11T08:01:37.96Z</time>
      </trkpt>
      <trkpt lat="42.327175" lon="2.352129">
        <ele>1188.80</ele>
        <time>2014-01-11T08:27:07.10Z</time>
      </trkpt>
      <trkpt lat="42.327168" lon="2.352100">
        <ele>1188.20</ele>
        <time>2014-01-11T09:09:15.25Z</time>
      </trkpt>
      <trkpt lat="42.327173" lon="2.352112">
        <ele>1187.20</ele>
        <time>2014-01-11T09:28:16.78Z</time>
      </trkpt>
      <trkpt lat="42.327165" lon="2.352099">
        <ele>1187.00</ele>
        <time>2014-01-11T09:51:38.50Z</time>
      </trkpt>
      <trkpt lat="42.327148" lon="2.352078">
        <ele>1186.80</ele>
        <time>2014-01-11T10:34:39.20Z</time>
      </trkpt>
      <trkpt lat="42.327077" lon="2.352020">
        <ele>1185.80</ele>
        <time>2014-01-11T13:09:36.73Z</time>
      </trkpt>
      <trkpt lat="42.327013" lon="2.351919">
        <ele>1184.20</ele>
        <time>2014-01-11T16:13:20.59Z</time>
      </trkpt>
      <trkpt lat="42.326992" lon="2.351841">
        <ele>1183.60</ele>
        <time>2014-01-11T18:07:59.94Z</time>
      </trkpt>
      <trkpt lat="42.326968" lon="2.351775">
        <ele>1182.80</ele>
        <time>2014-01-11T19:49:35.34Z</time>
      </trkpt>
      <trkpt lat="42.326941" lon="2.351698">
        <ele>1181.60</ele>
        <time>2014-01-11T21:47:17.89Z</time>
      </trkpt>
      <trkpt lat="42.326905" lon="2.351601">
        <ele>1180.20</ele>
        <time>2014-01-12T00:17:12.58Z</time>
      </trkpt>
      <trkpt lat="42.326868" lon="2.351506">
        <ele>1179.00</ele>
        <time>2014-01-12T02:45:31.14Z</time>
      </trkpt>
      <trkpt lat="42.326836" lon="2.351412">
        <ele>1178.20</ele>
        <time>2014-01-12T05:08:27.35Z</time>
      </trkpt>
      <trkpt lat="42.326811" lon="2.351342">
        <ele>1177.80</ele>
        <time>2014-01-12T06:55:49.87Z</time>
      </trkpt>
      <trkpt lat="42.326803" lon="2.351275">
        <ele>1177.20</ele>
        <time>2014-01-12T08:29:34.30Z</time>
      </trkpt>
      <trkpt lat="42.326827" lon="2.351227">
        <ele>1176.80</ele>
        <time>2014-01-12T09:49:36.50Z</time>
      </trkpt>
      <trkpt lat="42.326850" lon="2.351180">
        <ele>1176.80</ele>
        <time>2014-01-12T11:07:27.49Z</time>
      </trkpt>
      <trkpt lat="42.326868" lon="2.351133">
        <ele>1176.60</ele>
        <time>2014-01-12T12:20:34.10Z</time>
      </trkpt>
      <trkpt lat="42.326882" lon="2.351077">
        <ele>1176.60</ele>
        <time>2014-01-12T13:42:13.13Z</time>
      </trkpt>
      <trkpt lat="42.326925" lon="2.350838">
        <ele>1176.40</ele>
        <time>2014-01-12T19:21:57.78Z</time>
      </trkpt>
      <trkpt lat="42.326955" lon="2.350663">
        <ele>1175.40</ele>
        <time>2014-01-12T23:30:05.28Z</time>
      </trkpt>
      <trkpt lat="42.326970" lon="2.350476">
        <ele>1175.20</ele>
        <time>2014-01-13T03:49:53.42Z</time>
      </trkpt>
      <trkpt lat="42.326975" lon="2.350274">
        <ele>1175.60</ele>
        <time>2014-01-13T08:29:03.08Z</time>
      </trkpt>
      <trkpt lat="42.326892" lon="2.350221">
        <ele>1175.00</ele>
        <time>2014-01-13T11:20:31.56Z</time>
      </trkpt>
      <trkpt lat="42.326831" lon="2.350199">
        <ele>1174.20</ele>
        <time>2014-01-13T13:18:28.18Z</time>
      </trkpt>
      <trkpt lat="42.326758" lon="2.350151">
        <ele>1173.20</ele>
        <time>2014-01-13T15:50:06.70Z</time>
      </trkpt>
      <trkpt lat="42.326680" lon="2.350119">
        <ele>1172.00</ele>
        <time>2014-01-13T18:22:23.36Z</time>
      </trkpt>
      <trkpt lat="42.326644" lon="2.350092">
        <ele>1171.60</ele>
        <time>2014-01-13T19:39:17.59Z</time>
      </trkpt>
      <trkpt lat="42.326613" lon="2.350061">
        <ele>1170.00</ele>
        <time>2014-01-13T20:51:19.06Z</time>
      </trkpt>
      <trkpt lat="42.326557" lon="2.350016">
        <ele>1168.40</ele>
        <time>2014-01-13T22:53:00.54Z</time>
      </trkpt>
      <trkpt lat="42.326503" lon="2.349984">
        <ele>1167.00</ele>
        <time>2014-01-14T00:43:09.06Z</time>
      </trkpt>
      <trkpt lat="42.326398" lon="2.349842">
        <ele>1165.80</ele>
        <time>2014-01-14T05:20:32.87Z</time>
      </trkpt>
      <trkpt lat="42.326370" lon="2.349795">
        <ele>1165.20</ele>
        <time>2014-01-14T06:43:55.11Z</time>
      </trkpt>
      <trkpt lat="42.326340" lon="2.349758">
        <ele>1164.40</ele>
        <time>2014-01-14T07:59:46.03Z</time>
      </trkpt>
      <trkpt lat="42.326233" lon="2.349657">
        <ele>1163.20</ele>
        <time>2014-01-14T12:03:31.98Z</time>
      </trkpt>
      <trkpt lat="42.326180" lon="2.349655">
        <ele>1162.40</ele>
        <time>2014-01-14T13:42:35.27Z</time>
      </trkpt>
      <trkpt lat="42.326143" lon="2.349658">
        <ele>1162.00</ele>
        <time>2014-01-14T14:51:50.19Z</time>
      </trkpt>
      <trkpt lat="42.326113" lon="2.349683">
        <ele>1161.60</ele>
        <time>2014-01-14T15:57:40.02Z</time>
      </trkpt>
      <trkpt lat="42.326041" lon="2.349742">
        <ele>1160.80</ele>
        <time>2014-01-14T18:34:56.39Z</time>
      </trkpt>
      <trkpt lat="42.325993" lon="2.349769">
        <ele>1160.60</ele>
        <time>2014-01-14T20:12:03.63Z</time>
      </trkpt>
      <trkpt lat="42.325937" lon="2.349804">
        <ele>1160.20</ele>
        <time>2014-01-14T22:07:18.65Z</time>
      </trkpt>
      <trkpt lat="42.325851" lon="2.349844">
        <ele>1160.00</ele>
        <time>2014-01-15T00:57:12.77Z</time>
      </trkpt>
      <trkpt lat="42.325761" lon="2.349890">
        <ele>1158.60</ele>
        <time>2014-01-15T03:56:57.49Z</time>
      </trkpt>
      <trkpt lat="42.325714" lon="2.349923">
        <ele>1158.00</ele>
        <time>2014-01-15T05:35:53.45Z</time>
      </trkpt>
      <trkpt lat="42.325672" lon="2.349961">
        <ele>1157.80</ele>
        <time>2014-01-15T07:10:17.58Z</time>
      </trkpt>
      <trkpt lat="42.325592" lon="2.350032">
        <ele>1157.40</ele>
        <time>2014-01-15T10:09:03.20Z</time>
      </trkpt>
      <trkpt lat="42.325563" lon="2.350074">
        <ele>1157.00</ele>
        <time>2014-01-15T11:28:25.84Z</time>
      </trkpt>
      <trkpt lat="42.325540" lon="2.350143">
        <ele>1156.40</ele>
        <time>2014-01-15T13:12:58.51Z</time>
      </trkpt>
      <trkpt lat="42.325524" lon="2.350203">
        <ele>1155.60</ele>
        <time>2014-01-15T14:41:04.54Z</time>
      </trkpt>
      <trkpt lat="42.325499" lon="2.350243">
        <ele>1155.00</ele>
        <time>2014-01-15T15:53:25.31Z</time>
      </trkpt>
      <trkpt lat="42.325444" lon="2.350365">
        <ele>1153.80</ele>
        <time>2014-01-15T19:10:47.43Z</time>
      </trkpt>
      <trkpt lat="42.325416" lon="2.350430">
        <ele>1152.80</ele>
        <time>2014-01-15T20:54:41.95Z</time>
      </trkpt>
      <trkpt lat="42.325389" lon="2.350499">
        <ele>1151.40</ele>
        <time>2014-01-15T22:42:31.85Z</time>
      </trkpt>
      <trkpt lat="42.325361" lon="2.350570">
        <ele>1150.40</ele>
        <time>2014-01-16T00:33:40.71Z</time>
      </trkpt>
      <trkpt lat="42.325311" lon="2.350715">
        <ele>1148.40</ele>
        <time>2014-01-16T04:14:40.33Z</time>
      </trkpt>
      <trkpt lat="42.325287" lon="2.350827">
        <ele>1146.80</ele>
        <time>2014-01-16T06:55:44.32Z</time>
      </trkpt>
      <trkpt lat="42.325259" lon="2.350882">
        <ele>1145.00</ele>
        <time>2014-01-16T08:27:58.53Z</time>
      </trkpt>
      <trkpt lat="42.325245" lon="2.350879">
        <ele>1144.00</ele>
        <time>2014-01-16T08:54:27.42Z</time>
      </trkpt>
      <trkpt lat="42.325231" lon="2.350863">
        <ele>1143.60</ele>
        <time>2014-01-16T09:28:41.93Z</time>
      </trkpt>
      <trkpt lat="42.325221" lon="2.350737">
        <ele>1142.00</ele>
        <time>2014-01-16T12:23:44.18Z</time>
      </trkpt>
      <trkpt lat="42.325212" lon="2.350656">
        <ele>1141.20</ele>
        <time>2014-01-16T14:16:52.43Z</time>
      </trkpt>
      <trkpt lat="42.325202" lon="2.350568">
        <ele>1140.60</ele>
        <time>2014-01-16T16:19:51.08Z</time>
      </trkpt>
      <trkpt lat="42.325193" lon="2.350476">
        <ele>1139.60</ele>
        <time>2014-01-16T18:28:02.03Z</time>
      </trkpt>
      <trkpt lat="42.325171" lon="2.350305">
        <ele>1138.00</ele>
        <time>2014-01-16T22:27:46.63Z</time>
      </trkpt>
      <trkpt lat="42.325164" lon="2.350221">
        <ele>1137.00</ele>
        <time>2014-01-17T00:24:32.22Z</time>
      </trkpt>
      <trkpt lat="42.325162" lon="2.350136">
        <ele>1136.00</ele>
        <time>2014-01-17T02:22:00.17Z</time>
      </trkpt>
      <trkpt lat="42.325164" lon="2.350048">
        <ele>1135.00</ele>
        <time>2014-01-17T04:23:36.62Z</time>
      </trkpt>
      <trkpt lat="42.325168" lon="2.349898">
        <ele>1133.20</ele>
        <time>2014-01-17T07:50:55.96Z</time>
      </trkpt>
      <trkpt lat="42.325168" lon="2.349836">
        <ele>1132.40</ele>
        <time>2014-01-17T09:16:34.22Z</time>
      </trkpt>
      <trkpt lat="42.325180" lon="2.349776">
        <ele>1131.80</ele>
        <time>2014-01-17T10:42:25.45Z</time>
      </trkpt>
      <trkpt lat="42.325190" lon="2.349677">
        <ele>1130.60</ele>
        <time>2014-01-17T13:00:26.30Z</time>
      </trkpt>
      <trkpt lat="42.325188" lon="2.349629">
        <ele>1129.80</ele>
        <time>2014-01-17T14:06:50.61Z</time>
      </trkpt>
      <trkpt lat="42.325169" lon="2.349557">
        <ele>1128.80</ele>
        <time>2014-01-17T15:52:26.31Z</time>
      </trkpt>
      <trkpt lat="42.325143" lon="2.349423">
        <ele>1128.00</ele>
        <time>2014-01-17T19:03:47.64Z</time>
      </trkpt>
      <trkpt lat="42.325128" lon="2.349356">
        <ele>1127.40</ele>
        <time>2014-01-17T20:40:29.26Z</time>
      </trkpt>
      <trkpt lat="42.325112" lon="2.349294">
        <ele>1126.60</ele>
        <time>2014-01-17T22:11:11.54Z</time>
      </trkpt>
      <trkpt lat="42.325096" lon="2.349228">
        <ele>1125.80</ele>
        <time>2014-01-17T23:47:07.83Z</time>
      </trkpt>
      <trkpt lat="42.325084" lon="2.349164">
        <ele>1125.20</ele>
        <time>2014-01-18T01:18:19.75Z</time>
      </trkpt>
      <trkpt lat="42.325081" lon="2.349114">
        <ele>1125.00</ele>
        <time>2014-01-18T02:27:37.13Z</time>
      </trkpt>
      <trkpt lat="42.325085" lon="2.349067">
        <ele>1124.60</ele>
        <time>2014-01-18T03:32:57.99Z</time>
      </trkpt>
      <trkpt lat="42.325106" lon="2.348971">
        <ele>1123.80</ele>
        <time>2014-01-18T05:51:14.94Z</time>
      </trkpt>
      <trkpt lat="42.325133" lon="2.348917">
        <ele>1123.40</ele>
        <time>2014-01-18T07:21:17.52Z</time>
      </trkpt>
      <trkpt lat="42.325145" lon="2.348868">
        <ele>1123.20</ele>
        <time>2014-01-18T08:32:35.38Z</time>
      </trkpt>
      <trkpt lat="42.325186" lon="2.348774">
        <ele>1122.60</ele>
        <time>2014-01-18T11:03:20.27Z</time>
      </trkpt>
      <trkpt lat="42.325241" lon="2.348654">
        <ele>1122.40</ele>
        <time>2014-01-18T14:18:21.22Z</time>
      </trkpt>
      <trkpt lat="42.325339" lon="2.348469">
        <ele>1120.60</ele>
        <time>2014-01-18T19:32:42.31Z</time>
      </trkpt>
      <trkpt lat="42.325375" lon="2.348408">
        <ele>1120.00</ele>
        <time>2014-01-18T21:20:30.78Z</time>
      </trkpt>
      <trkpt lat="42.325414" lon="2.348350">
        <ele>1119.40</ele>
        <time>2014-01-18T23:08:48.18Z</time>
      </trkpt>
      <trkpt lat="42.325505" lon="2.348254">
        <ele>1118.20</ele>
        <time>2014-01-19T02:44:24.51Z</time>
      </trkpt>
      <trkpt lat="42.325559" lon="2.348208">
        <ele>1117.20</ele>
        <time>2014-01-19T04:43:38.03Z</time>
      </trkpt>
      <trkpt lat="42.325615" lon="2.348163">
        <ele>1116.40</ele>
        <time>2014-01-19T06:45:19.55Z</time>
      </trkpt>
      <trkpt lat="42.325682" lon="2.348128">
        <ele>1116.00</ele>
        <time>2014-01-19T08:59:30.51Z</time>
      </trkpt>
      <trkpt lat="42.325800" lon="2.348066">
        <ele>1115.00</ele>
        <time>2014-01-19T12:56:00.55Z</time>
      </trkpt>
      <trkpt lat="42.325803" lon="2.348053">
        <ele>1114.40</ele>
        <time>2014-01-19T13:14:49.18Z</time>
      </trkpt>
      <trkpt lat="42.325804" lon="2.348024">
        <ele>1114.00</ele>
        <time>2014-01-19T13:54:55.15Z</time>
      </trkpt>
      <trkpt lat="42.325764" lon="2.347984">
        <ele>1113.20</ele>
        <time>2014-01-19T15:27:51.27Z</time>
      </trkpt>
      <trkpt lat="42.325720" lon="2.347972">
        <ele>1112.40</ele>
        <time>2014-01-19T16:51:42.67Z</time>
      </trkpt>
      <trkpt lat="42.325653" lon="2.347960">
        <ele>1111.60</ele>
        <time>2014-01-19T18:57:58.52Z</time>
      </trkpt>
      <trkpt lat="42.325582" lon="2.347940">
        <ele>1110.60</ele>
        <time>2014-01-19T21:13:27.96Z</time>
      </trkpt>
      <trkpt lat="42.325507" lon="2.347919">
        <ele>1109.20</ele>
        <time>2014-01-19T23:36:33.26Z</time>
      </trkpt>
      <trkpt lat="42.325427" lon="2.347896">
        <ele>1108.00</ele>
        <time>2014-01-20T02:09:21.12Z</time>
      </trkpt>
      <trkpt lat="42.325349" lon="2.347867">
        <ele>1106.80</ele>
        <time>2014-01-20T04:40:28.76Z</time>
      </trkpt>
      <trkpt lat="42.325284" lon="2.347843">
        <ele>1105.80</ele>
        <time>2014-01-20T06:46:21.48Z</time>
      </trkpt>
      <trkpt lat="42.325247" lon="2.347829">
        <ele>1104.00</ele>
        <time>2014-01-20T07:58:08.19Z</time>
      </trkpt>
      <trkpt lat="42.325228" lon="2.347808">
        <ele>1102.80</ele>
        <time>2014-01-20T08:43:58.62Z</time>
      </trkpt>
      <trkpt lat="42.325216" lon="2.347774">
        <ele>1101.80</ele>
        <time>2014-01-20T09:36:00.98Z</time>
      </trkpt>
      <trkpt lat="42.325193" lon="2.347673">
        <ele>1099.80</ele>
        <time>2014-01-20T12:01:59.41Z</time>
      </trkpt>
      <trkpt lat="42.325180" lon="2.347622">
        <ele>1098.20</ele>
        <time>2014-01-20T13:16:30.19Z</time>
      </trkpt>
      <trkpt lat="42.325170" lon="2.347578">
        <ele>1096.80</ele>
        <time>2014-01-20T14:20:05.09Z</time>
      </trkpt>
      <trkpt lat="42.325160" lon="2.347544">
        <ele>1095.60</ele>
        <time>2014-01-20T15:10:37.62Z</time>
      </trkpt>
      <trkpt lat="42.325147" lon="2.347515">
        <ele>1094.40</ele>
        <time>2014-01-20T15:57:28.26Z</time>
      </trkpt>
      <trkpt lat="42.325121" lon="2.347483">
        <ele>1093.40</ele>
        <time>2014-01-20T17:03:08.71Z</time>
      </trkpt>
      <trkpt lat="42.325032" lon="2.347413">
        <ele>1092.20</ele>
        <time>2014-01-20T20:15:29.18Z</time>
      </trkpt>
      <trkpt lat="42.324934" lon="2.347349">
        <ele>1090.40</ele>
        <time>2014-01-20T23:38:47.85Z</time>
      </trkpt>
      <trkpt lat="42.324899" lon="2.347322">
        <ele>1089.20</ele>
        <time>2014-01-21T00:54:04.40Z</time>
      </trkpt>
      <trkpt lat="42.324874" lon="2.347294">
        <ele>1088.00</ele>
        <time>2014-01-21T01:54:42.80Z</time>
      </trkpt>
      <trkpt lat="42.324852" lon="2.347264">
        <ele>1086.60</ele>
        <time>2014-01-21T02:53:04.66Z</time>
      </trkpt>
      <trkpt lat="42.324830" lon="2.347230">
        <ele>1084.40</ele>
        <time>2014-01-21T03:55:29.16Z</time>
      </trkpt>
      <trkpt lat="42.324807" lon="2.347195">
        <ele>1083.40</ele>
        <time>2014-01-21T05:00:09.97Z</time>
      </trkpt>
      <trkpt lat="42.324787" lon="2.347161">
        <ele>1082.20</ele>
        <time>2014-01-21T06:00:10.78Z</time>
      </trkpt>
      <trkpt lat="42.324767" lon="2.347135">
        <ele>1081.00</ele>
        <time>2014-01-21T06:52:00.29Z</time>
      </trkpt>
      <trkpt lat="42.324712" lon="2.347095">
        <ele>1078.80</ele>
        <time>2014-01-21T08:48:40.19Z</time>
      </trkpt>
      <trkpt lat="42.324680" lon="2.347078">
        <ele>1077.40</ele>
        <time>2014-01-21T09:52:53.97Z</time>
      </trkpt>
      <trkpt lat="42.324647" lon="2.347067">
        <ele>1075.80</ele>
        <time>2014-01-21T10:56:23.75Z</time>
      </trkpt>
      <trkpt lat="42.324609" lon="2.347058">
        <ele>1074.20</ele>
        <time>2014-01-21T12:08:28.14Z</time>
      </trkpt>
      <trkpt lat="42.324564" lon="2.347049">
        <ele>1072.60</ele>
        <time>2014-01-21T13:33:27.21Z</time>
      </trkpt>
      <trkpt lat="42.324515" lon="2.347038">
        <ele>1071.00</ele>
        <time>2014-01-21T15:06:14.96Z</time>
      </trkpt>
      <trkpt lat="42.324462" lon="2.347030">
        <ele>1069.60</ele>
        <time>2014-01-21T16:45:52.82Z</time>
      </trkpt>
      <trkpt lat="42.324406" lon="2.347026">
        <ele>1068.40</ele>
        <time>2014-01-21T18:30:38.84Z</time>
      </trkpt>
      <trkpt lat="42.324290" lon="2.347015">
        <ele>1066.60</ele>
        <time>2014-01-21T22:07:53.66Z</time>
      </trkpt>
      <trkpt lat="42.324227" lon="2.347013">
        <ele>1065.60</ele>
        <time>2014-01-22T00:05:37.53Z</time>
      </trkpt>
      <trkpt lat="42.324164" lon="2.347017">
        <ele>1064.00</ele>
        <time>2014-01-22T02:03:27.23Z</time>
      </trkpt>
      <trkpt lat="42.324106" lon="2.347023">
        <ele>1062.80</ele>
        <time>2014-01-22T03:52:07.67Z</time>
      </trkpt>
      <trkpt lat="42.324052" lon="2.347023">
        <ele>1061.60</ele>
        <time>2014-01-22T05:33:00.74Z</time>
      </trkpt>
      <trkpt lat="42.323995" lon="2.347016">
        <ele>1060.60</ele>
        <time>2014-01-22T07:19:56.38Z</time>
      </trkpt>
      <trkpt lat="42.323935" lon="2.347006">
        <ele>1059.20</ele>
        <time>2014-01-22T09:12:52.89Z</time>
      </trkpt>
      <trkpt lat="42.323872" lon="2.346996">
        <ele>1057.60</ele>
        <time>2014-01-22T11:11:23.28Z</time>
      </trkpt>
      <trkpt lat="42.323811" lon="2.346992">
        <ele>1055.80</ele>
        <time>2014-01-22T13:05:29.05Z</time>
      </trkpt>
      <trkpt lat="42.323754" lon="2.346995">
        <ele>1054.00</ele>
        <time>2014-01-22T14:52:03.24Z</time>
      </trkpt>
      <trkpt lat="42.323711" lon="2.347007">
        <ele>1052.00</ele>
        <time>2014-01-22T16:14:04.82Z</time>
      </trkpt>
      <trkpt lat="42.323673" lon="2.347013">
        <ele>1051.20</ele>
        <time>2014-01-22T17:25:33.31Z</time>
      </trkpt>
      <trkpt lat="42.323640" lon="2.347026">
        <ele>1050.20</ele>
        <time>2014-01-22T18:29:46.13Z</time>
      </trkpt>
      <trkpt lat="42.323585" lon="2.347060">
        <ele>1048.20</ele>
        <time>2014-01-22T20:22:44.73Z</time>
      </trkpt>
      <trkpt lat="42.323556" lon="2.347075">
        <ele>1047.40</ele>
        <time>2014-01-22T21:20:45.05Z</time>
      </trkpt>
      <trkpt lat="42.323525" lon="2.347093">
        <ele>1046.60</ele>
        <time>2014-01-22T22:23:46.65Z</time>
      </trkpt>
      <trkpt lat="42.323478" lon="2.347128">
        <ele>1045.00</ele>
        <time>2014-01-23T00:04:00.82Z</time>
      </trkpt>
      <trkpt lat="42.323435" lon="2.347158">
        <ele>1043.80</ele>
        <time>2014-01-23T01:34:24.35Z</time>
      </trkpt>
      <trkpt lat="42.323418" lon="2.347173">
        <ele>1043.20</ele>
        <time>2014-01-23T02:12:19.59Z</time>
      </trkpt>
      <trkpt lat="42.323403" lon="2.347191">
        <ele>1042.80</ele>
        <time>2014-01-23T02:49:47.39Z</time>
      </trkpt>
      <trkpt lat="42.323379" lon="2.347218">
        <ele>1041.60</ele>
        <time>2014-01-23T03:48:06.64Z</time>
      </trkpt>
      <trkpt lat="42.323337" lon="2.347271">
        <ele>1040.60</ele>
        <time>2014-01-23T05:35:25.49Z</time>
      </trkpt>
      <trkpt lat="42.323295" lon="2.347312">
        <ele>1039.40</ele>
        <time>2014-01-23T07:12:11.61Z</time>
      </trkpt>
      <trkpt lat="42.323244" lon="2.347359">
        <ele>1038.60</ele>
        <time>2014-01-23T09:07:29.32Z</time>
      </trkpt>
      <trkpt lat="42.323221" lon="2.347385">
        <ele>1037.40</ele>
        <time>2014-01-23T10:03:29.41Z</time>
      </trkpt>
      <trkpt lat="42.323170" lon="2.347447">
        <ele>1036.00</ele>
        <time>2014-01-23T12:11:36.09Z</time>
      </trkpt>
      <trkpt lat="42.323092" lon="2.347534">
        <ele>1034.60</ele>
        <time>2014-01-23T15:20:29.01Z</time>
      </trkpt>
      <trkpt lat="42.323031" lon="2.347609">
        <ele>1033.00</ele>
        <time>2014-01-23T17:54:29.75Z</time>
      </trkpt>
      <trkpt lat="42.322978" lon="2.347671">
        <ele>1031.60</ele>
        <time>2014-01-23T20:05:24.61Z</time>
      </trkpt>
      <trkpt lat="42.322952" lon="2.347696">
        <ele>1031.00</ele>
        <time>2014-01-23T21:05:00.49Z</time>
      </trkpt>
      <trkpt lat="42.322903" lon="2.347749">
        <ele>1030.00</ele>
        <time>2014-01-23T23:02:13.49Z</time>
      </trkpt>
      <trkpt lat="42.322838" lon="2.347791">
        <ele>1028.40</ele>
        <time>2014-01-24T01:16:48.39Z</time>
      </trkpt>
      <trkpt lat="42.322802" lon="2.347819">
        <ele>1027.80</ele>
        <time>2014-01-24T02:34:23.43Z</time>
      </trkpt>
      <trkpt lat="42.322760" lon="2.347857">
        <ele>1027.00</ele>
        <time>2014-01-24T04:08:47.65Z</time>
      </trkpt>
      <trkpt lat="42.322687" lon="2.347941">
        <ele>1025.60</ele>
        <time>2014-01-24T07:07:51.28Z</time>
      </trkpt>
      <trkpt lat="42.322649" lon="2.347989">
        <ele>1024.60</ele>
        <time>2014-01-24T08:44:59.63Z</time>
      </trkpt>
      <trkpt lat="42.322616" lon="2.348035">
        <ele>1023.60</ele>
        <time>2014-01-24T10:13:31.67Z</time>
      </trkpt>
      <trkpt lat="42.322558" lon="2.348118">
        <ele>1021.80</ele>
        <time>2014-01-24T12:51:16.79Z</time>
      </trkpt>
      <trkpt lat="42.322504" lon="2.348206">
        <ele>1020.60</ele>
        <time>2014-01-24T15:29:14.77Z</time>
      </trkpt>
      <trkpt lat="42.322480" lon="2.348238">
        <ele>1019.00</ele>
        <time>2014-01-24T16:32:12.49Z</time>
      </trkpt>
      <trkpt lat="42.322463" lon="2.348247">
        <ele>1018.20</ele>
        <time>2014-01-24T17:06:18.87Z</time>
      </trkpt>
      <trkpt lat="42.322450" lon="2.348247">
        <ele>1018.00</ele>
        <time>2014-01-24T17:30:36.09Z</time>
      </trkpt>
      <trkpt lat="42.322444" lon="2.348185">
        <ele>1017.00</ele>
        <time>2014-01-24T18:56:58.40Z</time>
      </trkpt>
      <trkpt lat="42.322438" lon="2.348146">
        <ele>1016.20</ele>
        <time>2014-01-24T19:51:59.90Z</time>
      </trkpt>
      <trkpt lat="42.322419" lon="2.348153">
        <ele>1016.20</ele>
        <time>2014-01-24T20:28:47.29Z</time>
      </trkpt>
      <trkpt lat="42.322401" lon="2.348174">
        <ele>1016.00</ele>
        <time>2014-01-24T21:13:11.92Z</time>
      </trkpt>
      <trkpt lat="42.322366" lon="2.348205">
        <ele>1015.80</ele>
        <time>2014-01-24T22:31:21.61Z</time>
      </trkpt>
      <trkpt lat="42.322323" lon="2.348252">
        <ele>1015.40</ele>
        <time>2014-01-25T00:14:38.88Z</time>
      </trkpt>
      <trkpt lat="42.322284" lon="2.348317">
        <ele>1014.60</ele>
        <time>2014-01-25T02:10:16.65Z</time>
      </trkpt>
      <trkpt lat="42.322248" lon="2.348399">
        <ele>1013.20</ele>
        <time>2014-01-25T04:22:00.50Z</time>
      </trkpt>
      <trkpt lat="42.322225" lon="2.348487">
        <ele>1011.60</ele>
        <time>2014-01-25T06:30:56.12Z</time>
      </trkpt>
      <trkpt lat="42.322216" lon="2.348566">
        <ele>1010.20</ele>
        <time>2014-01-25T08:21:20.82Z</time>
      </trkpt>
      <trkpt lat="42.322210" lon="2.348631">
        <ele>1008.60</ele>
        <time>2014-01-25T09:51:49.78Z</time>
      </trkpt>
      <trkpt lat="42.322191" lon="2.348686">
        <ele>1007.20</ele>
        <time>2014-01-25T11:15:41.13Z</time>
      </trkpt>
      <trkpt lat="42.322151" lon="2.348730">
        <ele>1006.20</ele>
        <time>2014-01-25T12:52:00.60Z</time>
      </trkpt>
      <trkpt lat="42.322034" lon="2.348796">
        <ele>1004.40</ele>
        <time>2014-01-25T16:48:50.61Z</time>
      </trkpt>
      <trkpt lat="42.321966" lon="2.348813">
        <ele>1002.20</ele>
        <time>2014-01-25T18:58:02.13Z</time>
      </trkpt>
      <trkpt lat="42.321893" lon="2.348817">
        <ele>1000.80</ele>
        <time>2014-01-25T21:14:31.70Z</time>
      </trkpt>
      <trkpt lat="42.321816" lon="2.348805">
        <ele>999.80</ele>
        <time>2014-01-25T23:39:20.05Z</time>
      </trkpt>
      <trkpt lat="42.321735" lon="2.348775">
        <ele>998.80</ele>
        <time>2014-01-26T02:16:13.95Z</time>
      </trkpt>
      <trkpt lat="42.321655" lon="2.348730">
        <ele>998.00</ele>
        <time>2014-01-26T04:58:06.12Z</time>
      </trkpt>
      <trkpt lat="42.321578" lon="2.348678">
        <ele>997.20</ele>
        <time>2014-01-26T07:38:53.51Z</time>
      </trkpt>
      <trkpt lat="42.321516" lon="2.348610">
        <ele>996.20</ele>
        <time>2014-01-26T10:08:01.29Z</time>
      </trkpt>
      <trkpt lat="42.321469" lon="2.348537">
        <ele>994.60</ele>
        <time>2014-01-26T12:21:43.86Z</time>
      </trkpt>
      <trkpt lat="42.321450" lon="2.348440">
        <ele>993.40</ele>
        <time>2014-01-26T14:40:20.54Z</time>
      </trkpt>
      <trkpt lat="42.321454" lon="2.348328">
        <ele>992.20</ele>
        <time>2014-01-26T17:15:13.92Z</time>
      </trkpt>
      <trkpt lat="42.321585" lon="2.347987">
        <ele>989.80</ele>
        <time>2014-01-27T02:06:03.12Z</time>
      </trkpt>
      <trkpt lat="42.321702" lon="2.347702">
        <ele>988.20</ele>
        <time>2014-01-27T09:36:20.55Z</time>
      </trkpt>
      <trkpt lat="42.321816" lon="2.347430">
        <ele>986.20</ele>
        <time>2014-01-27T16:48:13.74Z</time>
      </trkpt>
      <trkpt lat="42.321851" lon="2.347314">
        <ele>984.80</ele>
        <time>2014-01-27T19:41:17.45Z</time>
      </trkpt>
      <trkpt lat="42.321893" lon="2.347180">
        <ele>983.80</ele>
        <time>2014-01-27T23:02:19.98Z</time>
      </trkpt>
      <trkpt lat="42.321871" lon="2.347086">
        <ele>983.00</ele>
        <time>2014-01-28T01:18:31.63Z</time>
      </trkpt>
      <trkpt lat="42.321843" lon="2.347005">
        <ele>982.60</ele>
        <time>2014-01-28T03:22:02.33Z</time>
      </trkpt>
      <trkpt lat="42.321813" lon="2.346930">
        <ele>982.40</ele>
        <time>2014-01-28T05:19:49.63Z</time>
      </trkpt>
      <trkpt lat="42.321735" lon="2.346793">
        <ele>982.00</ele>
        <time>2014-01-28T09:18:40.38Z</time>
      </trkpt>
      <trkpt lat="42.321512" lon="2.346527">
        <ele>981.60</ele>
        <time>2014-01-28T18:34:10.17Z</time>
      </trkpt>
      <trkpt lat="42.321458" lon="2.346453">
        <ele>981.60</ele>
        <time>2014-01-28T20:57:47.30Z</time>
      </trkpt>
      <trkpt lat="42.321286" lon="2.346253">
        <ele>981.40</ele>
        <time>2014-01-29T04:01:33.45Z</time>
      </trkpt>
      <trkpt lat="42.321100" lon="2.346052">
        <ele>981.40</ele>
        <time>2014-01-29T11:26:20.92Z</time>
      </trkpt>
      <trkpt lat="42.320984" lon="2.345911">
        <ele>981.20</ele>
        <time>2014-01-29T16:17:43.53Z</time>
      </trkpt>
      <trkpt lat="42.320871" lon="2.345807">
        <ele>981.00</ele>
        <time>2014-01-29T20:33:04.78Z</time>
      </trkpt>
      <trkpt lat="42.320817" lon="2.345797">
        <ele>980.60</ele>
        <time>2014-01-29T22:14:54.33Z</time>
      </trkpt>
      <trkpt lat="42.320091" lon="2.342329">
        <ele>980.20</ele>
        <time>2014-02-02T09:13:45.07Z</time>
      </trkpt>
      <trkpt lat="42.320096" lon="2.342330">
        <ele>984.00</ele>
        <time>2014-02-02T09:30:33.92Z</time>
      </trkpt>
      <trkpt lat="42.320122" lon="2.342327">
        <ele>984.80</ele>
        <time>2014-02-02T10:19:18.95Z</time>
      </trkpt>
      <trkpt lat="42.320146" lon="2.342292">
        <ele>985.40</ele>
        <time>2014-02-02T11:25:15.27Z</time>
      </trkpt>
      <trkpt lat="42.320158" lon="2.342158">
        <ele>985.80</ele>
        <time>2014-02-02T14:31:42.57Z</time>
      </trkpt>
      <trkpt lat="42.320233" lon="2.341857">
        <ele>986.20</ele>
        <time>2014-02-02T21:50:28.41Z</time>
      </trkpt>
      <trkpt lat="42.320278" lon="2.341795">
        <ele>986.60</ele>
        <time>2014-02-02T23:50:29.11Z</time>
      </trkpt>
      <trkpt lat="42.320324" lon="2.341735">
        <ele>986.80</ele>
        <time>2014-02-03T01:49:52.72Z</time>
      </trkpt>
      <trkpt lat="42.320412" lon="2.341594">
        <ele>987.20</ele>
        <time>2014-02-03T06:04:45.62Z</time>
      </trkpt>
      <trkpt lat="42.320456" lon="2.341519">
        <ele>987.20</ele>
        <time>2014-02-03T08:17:00.72Z</time>
      </trkpt>
      <trkpt lat="42.320507" lon="2.341450">
        <ele>987.40</ele>
        <time>2014-02-03T10:31:46.91Z</time>
      </trkpt>
      <trkpt lat="42.320555" lon="2.341387">
        <ele>987.80</ele>
        <time>2014-02-03T12:36:44.52Z</time>
      </trkpt>
      <trkpt lat="42.320634" lon="2.341255">
        <ele>989.00</ele>
        <time>2014-02-03T16:31:19.63Z</time>
      </trkpt>
      <trkpt lat="42.320672" lon="2.341205">
        <ele>989.80</ele>
        <time>2014-02-03T18:10:22.46Z</time>
      </trkpt>
      <trkpt lat="42.320710" lon="2.341160">
        <ele>990.40</ele>
        <time>2014-02-03T19:44:44.10Z</time>
      </trkpt>
      <trkpt lat="42.320783" lon="2.341075">
        <ele>991.60</ele>
        <time>2014-02-03T22:44:41.76Z</time>
      </trkpt>
      <trkpt lat="42.320821" lon="2.341033">
        <ele>992.80</ele>
        <time>2014-02-04T00:16:22.79Z</time>
      </trkpt>
      <trkpt lat="42.320889" lon="2.340953">
        <ele>994.00</ele>
        <time>2014-02-04T03:04:45.45Z</time>
      </trkpt>
      <trkpt lat="42.320983" lon="2.340831">
        <ele>995.40</ele>
        <time>2014-02-04T07:08:09.08Z</time>
      </trkpt>
      <trkpt lat="42.321045" lon="2.340747">
        <ele>996.60</ele>
        <time>2014-02-04T09:52:06.21Z</time>
      </trkpt>
      <trkpt lat="42.321101" lon="2.340666">
        <ele>997.60</ele>
        <time>2014-02-04T12:25:17.11Z</time>
      </trkpt>
      <trkpt lat="42.321161" lon="2.340614">
        <ele>998.40</ele>
        <time>2014-02-04T14:38:25.13Z</time>
      </trkpt>
      <trkpt lat="42.321195" lon="2.340625">
        <ele>998.80</ele>
        <time>2014-02-04T15:43:43.86Z</time>
      </trkpt>
      <trkpt lat="42.321223" lon="2.340668">
        <ele>999.40</ele>
        <time>2014-02-04T17:02:52.76Z</time>
      </trkpt>
      <trkpt lat="42.321263" lon="2.340788">
        <ele>1000.20</ele>
        <time>2014-02-04T20:04:42.37Z</time>
      </trkpt>
      <trkpt lat="42.321271" lon="2.340852">
        <ele>1000.60</ele>
        <time>2014-02-04T21:34:21.97Z</time>
      </trkpt>
      <trkpt lat="42.321280" lon="2.340998">
        <ele>1001.20</ele>
        <time>2014-02-05T00:56:44.46Z</time>
      </trkpt>
      <trkpt lat="42.321283" lon="2.341071">
        <ele>1001.40</ele>
        <time>2014-02-05T02:37:44.05Z</time>
      </trkpt>
      <trkpt lat="42.321286" lon="2.341223">
        <ele>1002.00</ele>
        <time>2014-02-05T06:07:46.33Z</time>
      </trkpt>
      <trkpt lat="42.321300" lon="2.341548">
        <ele>1002.40</ele>
        <time>2014-02-05T13:37:28.06Z</time>
      </trkpt>
      <trkpt lat="42.321311" lon="2.341798">
        <ele>1002.60</ele>
        <time>2014-02-05T19:23:24.75Z</time>
      </trkpt>
      <trkpt lat="42.321333" lon="2.342389">
        <ele>1003.40</ele>
        <time>2014-02-06T09:00:48.95Z</time>
      </trkpt>
      <trkpt lat="42.321340" lon="2.342469">
        <ele>1003.40</ele>
        <time>2014-02-06T10:52:05.63Z</time>
      </trkpt>
      <trkpt lat="42.321367" lon="2.342682">
        <ele>1004.80</ele>
        <time>2014-02-06T15:50:36.65Z</time>
      </trkpt>
      <trkpt lat="42.321359" lon="2.342654">
        <ele>1006.00</ele>
        <time>2014-02-06T16:32:04.53Z</time>
      </trkpt>
      <trkpt lat="42.321426" lon="2.342487">
        <ele>1007.40</ele>
        <time>2014-02-06T20:54:31.81Z</time>
      </trkpt>
      <trkpt lat="42.321441" lon="2.342427">
        <ele>1007.80</ele>
        <time>2014-02-06T22:22:01.18Z</time>
      </trkpt>
      <trkpt lat="42.321458" lon="2.342368">
        <ele>1008.80</ele>
        <time>2014-02-06T23:49:29.28Z</time>
      </trkpt>
      <trkpt lat="42.321502" lon="2.342197">
        <ele>1010.00</ele>
        <time>2014-02-07T03:59:35.44Z</time>
      </trkpt>
      <trkpt lat="42.321551" lon="2.342024">
        <ele>1011.20</ele>
        <time>2014-02-07T08:15:29.70Z</time>
      </trkpt>
      <trkpt lat="42.321578" lon="2.341865">
        <ele>1012.20</ele>
        <time>2014-02-07T12:00:50.67Z</time>
      </trkpt>
      <trkpt lat="42.321586" lon="2.341809">
        <ele>1012.40</ele>
        <time>2014-02-07T13:19:37.78Z</time>
      </trkpt>
      <trkpt lat="42.321604" lon="2.341641">
        <ele>1013.40</ele>
        <time>2014-02-07T17:14:07.01Z</time>
      </trkpt>
      <trkpt lat="42.321626" lon="2.341414">
        <ele>1014.40</ele>
        <time>2014-02-07T22:30:21.65Z</time>
      </trkpt>
      <trkpt lat="42.321633" lon="2.341356">
        <ele>1014.60</ele>
        <time>2014-02-07T23:51:32.29Z</time>
      </trkpt>
      <trkpt lat="42.321674" lon="2.341197">
        <ele>1015.80</ele>
        <time>2014-02-08T03:44:08.59Z</time>
      </trkpt>
      <trkpt lat="42.321695" lon="2.341112">
        <ele>1016.40</ele>
        <time>2014-02-08T05:47:56.24Z</time>
      </trkpt>
      <trkpt lat="42.321709" lon="2.341073">
        <ele>1017.20</ele>
        <time>2014-02-08T06:47:49.37Z</time>
      </trkpt>
      <trkpt lat="42.321751" lon="2.340987">
        <ele>1018.40</ele>
        <time>2014-02-08T09:10:11.50Z</time>
      </trkpt>
      <trkpt lat="42.321812" lon="2.340859">
        <ele>1019.60</ele>
        <time>2014-02-08T12:40:32.78Z</time>
      </trkpt>
      <trkpt lat="42.321861" lon="2.340750">
        <ele>1020.80</ele>
        <time>2014-02-08T15:36:45.35Z</time>
      </trkpt>
      <trkpt lat="42.321933" lon="2.340653">
        <ele>1022.00</ele>
        <time>2014-02-08T18:46:36.91Z</time>
      </trkpt>
      <trkpt lat="42.322015" lon="2.340547">
        <ele>1023.40</ele>
        <time>2014-02-08T22:18:31.76Z</time>
      </trkpt>
      <trkpt lat="42.322028" lon="2.340514">
        <ele>1024.00</ele>
        <time>2014-02-08T23:10:10.76Z</time>
      </trkpt>
      <trkpt lat="42.322053" lon="2.340442">
        <ele>1024.80</ele>
        <time>2014-02-09T01:00:03.32Z</time>
      </trkpt>
      <trkpt lat="42.322090" lon="2.340385">
        <ele>1025.20</ele>
        <time>2014-02-09T02:44:49.72Z</time>
      </trkpt>
      <trkpt lat="42.322116" lon="2.340383">
        <ele>1025.60</ele>
        <time>2014-02-09T03:33:28.87Z</time>
      </trkpt>
      <trkpt lat="42.322132" lon="2.340405">
        <ele>1025.80</ele>
        <time>2014-02-09T04:16:06.45Z</time>
      </trkpt>
      <trkpt lat="42.322131" lon="2.340468">
        <ele>1026.80</ele>
        <time>2014-02-09T05:43:09.04Z</time>
      </trkpt>
      <trkpt lat="42.322135" lon="2.340549">
        <ele>1028.40</ele>
        <time>2014-02-09T07:35:17.20Z</time>
      </trkpt>
      <trkpt lat="42.322135" lon="2.340630">
        <ele>1029.60</ele>
        <time>2014-02-09T09:27:10.40Z</time>
      </trkpt>
      <trkpt lat="42.322136" lon="2.340661">
        <ele>1030.20</ele>
        <time>2014-02-09T10:10:02.10Z</time>
      </trkpt>
      <trkpt lat="42.322143" lon="2.340717">
        <ele>1031.00</ele>
        <time>2014-02-09T11:28:29.19Z</time>
      </trkpt>
      <trkpt lat="42.322157" lon="2.340801">
        <ele>1032.20</ele>
        <time>2014-02-09T13:27:25.71Z</time>
      </trkpt>
      <trkpt lat="42.322161" lon="2.340887">
        <ele>1033.40</ele>
        <time>2014-02-09T15:26:27.39Z</time>
      </trkpt>
      <trkpt lat="42.322175" lon="2.341007">
        <ele>1034.60</ele>
        <time>2014-02-09T18:14:15.93Z</time>
      </trkpt>
      <trkpt lat="42.322185" lon="2.341106">
        <ele>1035.40</ele>
        <time>2014-02-09T20:32:17.16Z</time>
      </trkpt>
      <trkpt lat="42.322188" lon="2.341139">
        <ele>1035.60</ele>
        <time>2014-02-09T21:18:12.77Z</time>
      </trkpt>
      <trkpt lat="42.322195" lon="2.341201">
        <ele>1036.60</ele>
        <time>2014-02-09T22:44:50.83Z</time>
      </trkpt>
      <trkpt lat="42.322213" lon="2.341316">
        <ele>1038.00</ele>
        <time>2014-02-10T01:27:13.14Z</time>
      </trkpt>
      <trkpt lat="42.322216" lon="2.341344">
        <ele>1038.40</ele>
        <time>2014-02-10T02:06:17.99Z</time>
      </trkpt>
      <trkpt lat="42.322233" lon="2.341402">
        <ele>1039.20</ele>
        <time>2014-02-10T03:32:28.90Z</time>
      </trkpt>
      <trkpt lat="42.322250" lon="2.341478">
        <ele>1040.40</ele>
        <time>2014-02-10T05:22:09.64Z</time>
      </trkpt>
      <trkpt lat="42.322257" lon="2.341504">
        <ele>1040.60</ele>
        <time>2014-02-10T06:00:22.91Z</time>
      </trkpt>
      <trkpt lat="42.322269" lon="2.341564">
        <ele>1041.40</ele>
        <time>2014-02-10T07:26:14.36Z</time>
      </trkpt>
      <trkpt lat="42.322296" lon="2.341677">
        <ele>1042.60</ele>
        <time>2014-02-10T10:10:16.57Z</time>
      </trkpt>
      <trkpt lat="42.322301" lon="2.341699">
        <ele>1043.00</ele>
        <time>2014-02-10T10:42:04.10Z</time>
      </trkpt>
      <trkpt lat="42.322311" lon="2.341748">
        <ele>1043.60</ele>
        <time>2014-02-10T11:52:17.02Z</time>
      </trkpt>
      <trkpt lat="42.322336" lon="2.341824">
        <ele>1045.40</ele>
        <time>2014-02-10T13:47:11.07Z</time>
      </trkpt>
      <trkpt lat="42.322357" lon="2.341866">
        <ele>1046.20</ele>
        <time>2014-02-10T14:57:13.21Z</time>
      </trkpt>
      <trkpt lat="42.322373" lon="2.341884">
        <ele>1046.80</ele>
        <time>2014-02-10T15:36:06.05Z</time>
      </trkpt>
      <trkpt lat="42.322402" lon="2.341914">
        <ele>1047.80</ele>
        <time>2014-02-10T16:44:18.63Z</time>
      </trkpt>
      <trkpt lat="42.322463" lon="2.341925">
        <ele>1048.40</ele>
        <time>2014-02-10T18:39:16.88Z</time>
      </trkpt>
      <trkpt lat="42.322556" lon="2.341904">
        <ele>1048.80</ele>
        <time>2014-02-10T21:35:25.91Z</time>
      </trkpt>
      <trkpt lat="42.322651" lon="2.341900">
        <ele>1049.20</ele>
        <time>2014-02-11T00:33:00Z</time>
      </trkpt>
      <trkpt lat="42.322751" lon="2.341897">
        <ele>1050.00</ele>
        <time>2014-02-11T03:39:52.16Z</time>
      </trkpt>
      <trkpt lat="42.322801" lon="2.341879">
        <ele>1050.80</ele>
        <time>2014-02-11T05:16:32Z</time>
      </trkpt>
      <trkpt lat="42.322825" lon="2.341874">
        <ele>1051.20</ele>
        <time>2014-02-11T06:01:53.98Z</time>
      </trkpt>
      <trkpt lat="42.322886" lon="2.341852">
        <ele>1052.80</ele>
        <time>2014-02-11T07:59:50.64Z</time>
      </trkpt>
      <trkpt lat="42.322932" lon="2.341833">
        <ele>1053.60</ele>
        <time>2014-02-11T09:29:42.05Z</time>
      </trkpt>
      <trkpt lat="42.322976" lon="2.341814">
        <ele>1054.00</ele>
        <time>2014-02-11T10:55:59.46Z</time>
      </trkpt>
      <trkpt lat="42.323078" lon="2.341737">
        <ele>1055.20</ele>
        <time>2014-02-11T14:34:13.42Z</time>
      </trkpt>
      <trkpt lat="42.323111" lon="2.341709">
        <ele>1055.40</ele>
        <time>2014-02-11T15:47:00.16Z</time>
      </trkpt>
      <trkpt lat="42.323250" lon="2.341567">
        <ele>1056.40</ele>
        <time>2014-02-11T21:12:26.31Z</time>
      </trkpt>
      <trkpt lat="42.323289" lon="2.341519">
        <ele>1057.00</ele>
        <time>2014-02-11T22:50:57.05Z</time>
      </trkpt>
      <trkpt lat="42.323322" lon="2.341475">
        <ele>1057.80</ele>
        <time>2014-02-12T00:17:31.39Z</time>
      </trkpt>
      <trkpt lat="42.323390" lon="2.341416">
        <ele>1059.20</ele>
        <time>2014-02-12T02:48:27.37Z</time>
      </trkpt>
      <trkpt lat="42.323414" lon="2.341402">
        <ele>1059.40</ele>
        <time>2014-02-12T03:37:17.17Z</time>
      </trkpt>
      <trkpt lat="42.323463" lon="2.341377">
        <ele>1060.20</ele>
        <time>2014-02-12T05:15:07.57Z</time>
      </trkpt>
      <trkpt lat="42.323534" lon="2.341341">
        <ele>1061.40</ele>
        <time>2014-02-12T07:36:47.12Z</time>
      </trkpt>
      <trkpt lat="42.323593" lon="2.341298">
        <ele>1062.60</ele>
        <time>2014-02-12T09:41:59.71Z</time>
      </trkpt>
      <trkpt lat="42.323644" lon="2.341276">
        <ele>1063.80</ele>
        <time>2014-02-12T11:22:00.22Z</time>
      </trkpt>
      <trkpt lat="42.323702" lon="2.341253">
        <ele>1064.80</ele>
        <time>2014-02-12T13:14:55.35Z</time>
      </trkpt>
      <trkpt lat="42.323721" lon="2.341247">
        <ele>1065.00</ele>
        <time>2014-02-12T13:51:22.42Z</time>
      </trkpt>
      <trkpt lat="42.323810" lon="2.341221">
        <ele>1066.00</ele>
        <time>2014-02-12T16:41:28.84Z</time>
      </trkpt>
      <trkpt lat="42.323907" lon="2.341200">
        <ele>1067.20</ele>
        <time>2014-02-12T19:45:00.37Z</time>
      </trkpt>
      <trkpt lat="42.324008" lon="2.341188">
        <ele>1068.20</ele>
        <time>2014-02-12T22:54:25.46Z</time>
      </trkpt>
      <trkpt lat="42.324086" lon="2.341161">
        <ele>1069.40</ele>
        <time>2014-02-13T01:24:50.59Z</time>
      </trkpt>
      <trkpt lat="42.324219" lon="2.341151">
        <ele>1070.40</ele>
        <time>2014-02-13T05:33:42.12Z</time>
      </trkpt>
      <trkpt lat="42.324246" lon="2.341148">
        <ele>1070.80</ele>
        <time>2014-02-13T06:24:18.85Z</time>
      </trkpt>
      <trkpt lat="42.324325" lon="2.341139">
        <ele>1071.60</ele>
        <time>2014-02-13T08:52:25.63Z</time>
      </trkpt>
      <trkpt lat="42.324420" lon="2.341115">
        <ele>1072.80</ele>
        <time>2014-02-13T11:52:58.73Z</time>
      </trkpt>
      <trkpt lat="42.324496" lon="2.341085">
        <ele>1074.00</ele>
        <time>2014-02-13T14:20:53.26Z</time>
      </trkpt>
      <trkpt lat="42.324567" lon="2.341067">
        <ele>1075.40</ele>
        <time>2014-02-13T16:35:50.54Z</time>
      </trkpt>
      <trkpt lat="42.324608" lon="2.341051">
        <ele>1076.40</ele>
        <time>2014-02-13T17:55:33.86Z</time>
      </trkpt>
      <trkpt lat="42.324628" lon="2.341044">
        <ele>1076.60</ele>
        <time>2014-02-13T18:34:09.59Z</time>
      </trkpt>
      <trkpt lat="42.324724" lon="2.341035">
        <ele>1078.00</ele>
        <time>2014-02-13T21:33:56.43Z</time>
      </trkpt>
      <trkpt lat="42.324771" lon="2.341032">
        <ele>1078.80</ele>
        <time>2014-02-13T23:01:50.71Z</time>
      </trkpt>
      <trkpt lat="42.324795" lon="2.341023">
        <ele>1079.00</ele>
        <time>2014-02-13T23:48:22.45Z</time>
      </trkpt>
      <trkpt lat="42.324888" lon="2.341027">
        <ele>1080.00</ele>
        <time>2014-02-14T02:42:12.47Z</time>
      </trkpt>
      <trkpt lat="42.325010" lon="2.341047">
        <ele>1081.20</ele>
        <time>2014-02-14T06:31:48.02Z</time>
      </trkpt>
      <trkpt lat="42.325059" lon="2.341055">
        <ele>1081.60</ele>
        <time>2014-02-14T08:04:00.49Z</time>
      </trkpt>
      <trkpt lat="42.325109" lon="2.341055">
        <ele>1082.20</ele>
        <time>2014-02-14T09:37:25.19Z</time>
      </trkpt>
      <trkpt lat="42.325183" lon="2.341053">
        <ele>1083.40</ele>
        <time>2014-02-14T11:55:41.81Z</time>
      </trkpt>
      <trkpt lat="42.325252" lon="2.341051">
        <ele>1084.60</ele>
        <time>2014-02-14T14:04:38.07Z</time>
      </trkpt>
      <trkpt lat="42.325337" lon="2.341046">
        <ele>1086.00</ele>
        <time>2014-02-14T16:43:35.06Z</time>
      </trkpt>
      <trkpt lat="42.325355" lon="2.341033">
        <ele>1086.40</ele>
        <time>2014-02-14T17:21:42.38Z</time>
      </trkpt>
      <trkpt lat="42.325393" lon="2.341021">
        <ele>1087.40</ele>
        <time>2014-02-14T18:34:36.51Z</time>
      </trkpt>
      <trkpt lat="42.325450" lon="2.341036">
        <ele>1088.80</ele>
        <time>2014-02-14T20:23:05.67Z</time>
      </trkpt>
      <trkpt lat="42.325468" lon="2.341035">
        <ele>1089.20</ele>
        <time>2014-02-14T20:56:45.07Z</time>
      </trkpt>
      <trkpt lat="42.325502" lon="2.341032">
        <ele>1090.40</ele>
        <time>2014-02-14T22:00:24.36Z</time>
      </trkpt>
      <trkpt lat="42.325539" lon="2.341033">
        <ele>1091.40</ele>
        <time>2014-02-14T23:09:32.67Z</time>
      </trkpt>
      <trkpt lat="42.325574" lon="2.341022">
        <ele>1092.60</ele>
        <time>2014-02-15T00:16:40.48Z</time>
      </trkpt>
      <trkpt lat="42.325613" lon="2.341016">
        <ele>1093.60</ele>
        <time>2014-02-15T01:30:00.34Z</time>
      </trkpt>
      <trkpt lat="42.325648" lon="2.341001">
        <ele>1095.00</ele>
        <time>2014-02-15T02:38:35.86Z</time>
      </trkpt>
      <trkpt lat="42.325685" lon="2.340980">
        <ele>1095.60</ele>
        <time>2014-02-15T03:53:33.69Z</time>
      </trkpt>
      <trkpt lat="42.325702" lon="2.340970">
        <ele>1096.00</ele>
        <time>2014-02-15T04:28:11.70Z</time>
      </trkpt>
      <trkpt lat="42.325748" lon="2.340918">
        <ele>1097.00</ele>
        <time>2014-02-15T06:20:11.75Z</time>
      </trkpt>
      <trkpt lat="42.325796" lon="2.340874">
        <ele>1098.40</ele>
        <time>2014-02-15T08:08:31.49Z</time>
      </trkpt>
      <trkpt lat="42.325853" lon="2.340824">
        <ele>1099.60</ele>
        <time>2014-02-15T10:15:26.89Z</time>
      </trkpt>
      <trkpt lat="42.325899" lon="2.340787">
        <ele>1100.80</ele>
        <time>2014-02-15T11:55:26.07Z</time>
      </trkpt>
      <trkpt lat="42.325940" lon="2.340736">
        <ele>1101.80</ele>
        <time>2014-02-15T13:39:29.93Z</time>
      </trkpt>
      <trkpt lat="42.325979" lon="2.340688">
        <ele>1103.00</ele>
        <time>2014-02-15T15:18:00.56Z</time>
      </trkpt>
      <trkpt lat="42.326015" lon="2.340587">
        <ele>1104.20</ele>
        <time>2014-02-15T17:52:52.81Z</time>
      </trkpt>
      <trkpt lat="42.326027" lon="2.340565">
        <ele>1104.40</ele>
        <time>2014-02-15T18:30:38.53Z</time>
      </trkpt>
      <trkpt lat="42.326066" lon="2.340502">
        <ele>1105.20</ele>
        <time>2014-02-15T20:24:08.15Z</time>
      </trkpt>
      <trkpt lat="42.326115" lon="2.340439">
        <ele>1106.20</ele>
        <time>2014-02-15T22:30:26.29Z</time>
      </trkpt>
      <trkpt lat="42.326145" lon="2.340386">
        <ele>1107.60</ele>
        <time>2014-02-16T00:02:38.10Z</time>
      </trkpt>
      <trkpt lat="42.326177" lon="2.340328">
        <ele>1108.60</ele>
        <time>2014-02-16T01:42:35.66Z</time>
      </trkpt>
      <trkpt lat="42.326187" lon="2.340311">
        <ele>1109.00</ele>
        <time>2014-02-16T02:12:36.05Z</time>
      </trkpt>
      <trkpt lat="42.326207" lon="2.340276">
        <ele>1109.80</ele>
        <time>2014-02-16T03:13:42.02Z</time>
      </trkpt>
      <trkpt lat="42.326236" lon="2.340218">
        <ele>1111.00</ele>
        <time>2014-02-16T04:50:24.72Z</time>
      </trkpt>
      <trkpt lat="42.326253" lon="2.340180">
        <ele>1112.40</ele>
        <time>2014-02-16T05:51:45.59Z</time>
      </trkpt>
      <trkpt lat="42.326277" lon="2.340112">
        <ele>1113.40</ele>
        <time>2014-02-16T07:35:50.21Z</time>
      </trkpt>
      <trkpt lat="42.326284" lon="2.340062">
        <ele>1114.20</ele>
        <time>2014-02-16T08:46:07.53Z</time>
      </trkpt>
      <trkpt lat="42.326291" lon="2.340038">
        <ele>1114.80</ele>
        <time>2014-02-16T09:21:45.67Z</time>
      </trkpt>
      <trkpt lat="42.326306" lon="2.340020">
        <ele>1115.20</ele>
        <time>2014-02-16T09:59:13.42Z</time>
      </trkpt>
      <trkpt lat="42.326320" lon="2.339985">
        <ele>1115.80</ele>
        <time>2014-02-16T10:54:11.32Z</time>
      </trkpt>
      <trkpt lat="42.326336" lon="2.339968">
        <ele>1116.20</ele>
        <time>2014-02-16T11:32:12Z</time>
      </trkpt>
      <trkpt lat="42.326354" lon="2.339926">
        <ele>1116.60</ele>
        <time>2014-02-16T12:39:15.21Z</time>
      </trkpt>
      <trkpt lat="42.326365" lon="2.339906">
        <ele>1116.80</ele>
        <time>2014-02-16T13:13:41.03Z</time>
      </trkpt>
      <trkpt lat="42.326399" lon="2.339853">
        <ele>1117.80</ele>
        <time>2014-02-16T14:50:36.30Z</time>
      </trkpt>
      <trkpt lat="42.326407" lon="2.339835">
        <ele>1118.00</ele>
        <time>2014-02-16T15:19:36.82Z</time>
      </trkpt>
      <trkpt lat="42.326452" lon="2.339760">
        <ele>1119.20</ele>
        <time>2014-02-16T17:33:01.62Z</time>
      </trkpt>
      <trkpt lat="42.326464" lon="2.339737">
        <ele>1119.60</ele>
        <time>2014-02-16T18:11:54.54Z</time>
      </trkpt>
      <trkpt lat="42.326491" lon="2.339698">
        <ele>1120.20</ele>
        <time>2014-02-16T19:25:42.43Z</time>
      </trkpt>
      <trkpt lat="42.326521" lon="2.339649">
        <ele>1121.40</ele>
        <time>2014-02-16T20:53:34.86Z</time>
      </trkpt>
      <trkpt lat="42.326542" lon="2.339626">
        <ele>1122.00</ele>
        <time>2014-02-16T21:44:03.78Z</time>
      </trkpt>
      <trkpt lat="42.326559" lon="2.339595">
        <ele>1122.60</ele>
        <time>2014-02-16T22:37:22.44Z</time>
      </trkpt>
      <trkpt lat="42.326601" lon="2.339522">
        <ele>1123.80</ele>
        <time>2014-02-17T00:45:08.22Z</time>
      </trkpt>
      <trkpt lat="42.326644" lon="2.339466">
        <ele>1125.20</ele>
        <time>2014-02-17T02:36:39.32Z</time>
      </trkpt>
      <trkpt lat="42.326658" lon="2.339459">
        <ele>1125.60</ele>
        <time>2014-02-17T03:04:32.42Z</time>
      </trkpt>
      <trkpt lat="42.326691" lon="2.339428">
        <ele>1126.40</ele>
        <time>2014-02-17T04:19:36.14Z</time>
      </trkpt>
      <trkpt lat="42.326707" lon="2.339414">
        <ele>1126.80</ele>
        <time>2014-02-17T04:55:12.20Z</time>
      </trkpt>
      <trkpt lat="42.326739" lon="2.339382">
        <ele>1127.60</ele>
        <time>2014-02-17T06:09:33.08Z</time>
      </trkpt>
      <trkpt lat="42.326773" lon="2.339336">
        <ele>1129.20</ele>
        <time>2014-02-17T07:39:23.60Z</time>
      </trkpt>
      <trkpt lat="42.326798" lon="2.339308">
        <ele>1130.00</ele>
        <time>2014-02-17T08:40:01.96Z</time>
      </trkpt>
      <trkpt lat="42.326813" lon="2.339288">
        <ele>1130.40</ele>
        <time>2014-02-17T09:19:22.95Z</time>
      </trkpt>
      <trkpt lat="42.326853" lon="2.339218">
        <ele>1131.80</ele>
        <time>2014-02-17T11:21:34.86Z</time>
      </trkpt>
      <trkpt lat="42.326887" lon="2.339163">
        <ele>1133.00</ele>
        <time>2014-02-17T13:00:36.29Z</time>
      </trkpt>
      <trkpt lat="42.326919" lon="2.339113">
        <ele>1134.20</ele>
        <time>2014-02-17T14:31:56.84Z</time>
      </trkpt>
      <trkpt lat="42.326975" lon="2.339050">
        <ele>1135.40</ele>
        <time>2014-02-17T16:48:01.56Z</time>
      </trkpt>
      <trkpt lat="42.327018" lon="2.338993">
        <ele>1136.60</ele>
        <time>2014-02-17T18:40:30.38Z</time>
      </trkpt>
      <trkpt lat="42.327051" lon="2.338944">
        <ele>1137.60</ele>
        <time>2014-02-17T20:12:03.39Z</time>
      </trkpt>
      <trkpt lat="42.327098" lon="2.338857">
        <ele>1138.80</ele>
        <time>2014-02-17T22:40:53.06Z</time>
      </trkpt>
      <trkpt lat="42.327116" lon="2.338818">
        <ele>1139.40</ele>
        <time>2014-02-17T23:44:23.19Z</time>
      </trkpt>
      <trkpt lat="42.327141" lon="2.338785">
        <ele>1140.00</ele>
        <time>2014-02-18T00:49:38.83Z</time>
      </trkpt>
      <trkpt lat="42.327195" lon="2.338721">
        <ele>1141.00</ele>
        <time>2014-02-18T03:03:46.84Z</time>
      </trkpt>
      <trkpt lat="42.327223" lon="2.338691">
        <ele>1141.60</ele>
        <time>2014-02-18T04:10:30.84Z</time>
      </trkpt>
      <trkpt lat="42.327248" lon="2.338656">
        <ele>1142.00</ele>
        <time>2014-02-18T05:17:43.99Z</time>
      </trkpt>
      <trkpt lat="42.327291" lon="2.338598">
        <ele>1143.20</ele>
        <time>2014-02-18T07:11:11.05Z</time>
      </trkpt>
      <trkpt lat="42.327327" lon="2.338562">
        <ele>1144.40</ele>
        <time>2014-02-18T08:34:49.52Z</time>
      </trkpt>
      <trkpt lat="42.327363" lon="2.338520">
        <ele>1145.80</ele>
        <time>2014-02-18T10:03:38.60Z</time>
      </trkpt>
      <trkpt lat="42.327410" lon="2.338463">
        <ele>1147.20</ele>
        <time>2014-02-18T12:01:34.60Z</time>
      </trkpt>
      <trkpt lat="42.327436" lon="2.338446">
        <ele>1148.00</ele>
        <time>2014-02-18T12:55:31.69Z</time>
      </trkpt>
      <trkpt lat="42.327460" lon="2.338427">
        <ele>1148.60</ele>
        <time>2014-02-18T13:47:28.86Z</time>
      </trkpt>
      <trkpt lat="42.327501" lon="2.338394">
        <ele>1149.80</ele>
        <time>2014-02-18T15:16:36.84Z</time>
      </trkpt>
      <trkpt lat="42.327530" lon="2.338366">
        <ele>1150.40</ele>
        <time>2014-02-18T16:23:10.78Z</time>
      </trkpt>
      <trkpt lat="42.327554" lon="2.338349">
        <ele>1151.00</ele>
        <time>2014-02-18T17:13:47.59Z</time>
      </trkpt>
      <trkpt lat="42.327617" lon="2.338313">
        <ele>1152.00</ele>
        <time>2014-02-18T19:21:33.84Z</time>
      </trkpt>
      <trkpt lat="42.327631" lon="2.338302">
        <ele>1152.20</ele>
        <time>2014-02-18T19:51:48.71Z</time>
      </trkpt>
      <trkpt lat="42.327665" lon="2.338274">
        <ele>1153.60</ele>
        <time>2014-02-18T21:06:10.72Z</time>
      </trkpt>
      <trkpt lat="42.327678" lon="2.338272">
        <ele>1153.80</ele>
        <time>2014-02-18T21:30:37.34Z</time>
      </trkpt>
      <trkpt lat="42.327693" lon="2.338266">
        <ele>1154.00</ele>
        <time>2014-02-18T21:59:50.73Z</time>
      </trkpt>
      <trkpt lat="42.327744" lon="2.338241">
        <ele>1154.60</ele>
        <time>2014-02-18T23:41:11.36Z</time>
      </trkpt>
      <trkpt lat="42.327761" lon="2.338231">
        <ele>1154.80</ele>
        <time>2014-02-19T00:15:49.36Z</time>
      </trkpt>
      <trkpt lat="42.327811" lon="2.338201">
        <ele>1155.60</ele>
        <time>2014-02-19T01:58:00.72Z</time>
      </trkpt>
      <trkpt lat="42.327879" lon="2.338158">
        <ele>1157.00</ele>
        <time>2014-02-19T04:18:14.95Z</time>
      </trkpt>
      <trkpt lat="42.327936" lon="2.338150">
        <ele>1157.60</ele>
        <time>2014-02-19T06:05:18.61Z</time>
      </trkpt>
      <trkpt lat="42.327982" lon="2.338153">
        <ele>1158.00</ele>
        <time>2014-02-19T07:31:20.92Z</time>
      </trkpt>
      <trkpt lat="42.328109" lon="2.338147">
        <ele>1159.00</ele>
        <time>2014-02-19T11:28:45.54Z</time>
      </trkpt>
      <trkpt lat="42.328133" lon="2.338147">
        <ele>1159.40</ele>
        <time>2014-02-19T12:13:35.80Z</time>
      </trkpt>
      <trkpt lat="42.328200" lon="2.338149">
        <ele>1160.00</ele>
        <time>2014-02-19T14:18:47.93Z</time>
      </trkpt>
      <trkpt lat="42.328270" lon="2.338141">
        <ele>1161.00</ele>
        <time>2014-02-19T16:30:02.46Z</time>
      </trkpt>
      <trkpt lat="42.328289" lon="2.338138">
        <ele>1161.20</ele>
        <time>2014-02-19T17:05:46.71Z</time>
      </trkpt>
      <trkpt lat="42.328350" lon="2.338136">
        <ele>1162.40</ele>
        <time>2014-02-19T18:59:46.45Z</time>
      </trkpt>
      <trkpt lat="42.328414" lon="2.338132">
        <ele>1163.20</ele>
        <time>2014-02-19T20:59:28.12Z</time>
      </trkpt>
      <trkpt lat="42.328436" lon="2.338130">
        <ele>1163.40</ele>
        <time>2014-02-19T21:40:39.76Z</time>
      </trkpt>
      <trkpt lat="42.328511" lon="2.338135">
        <ele>1164.80</ele>
        <time>2014-02-20T00:00:57.01Z</time>
      </trkpt>
      <trkpt lat="42.328561" lon="2.338134">
        <ele>1165.20</ele>
        <time>2014-02-20T01:34:22.32Z</time>
      </trkpt>
      <trkpt lat="42.328635" lon="2.338141">
        <ele>1165.80</ele>
        <time>2014-02-20T03:52:57.54Z</time>
      </trkpt>
      <trkpt lat="42.328702" lon="2.338147">
        <ele>1167.00</ele>
        <time>2014-02-20T05:58:24.28Z</time>
      </trkpt>
      <trkpt lat="42.328790" lon="2.338154">
        <ele>1168.20</ele>
        <time>2014-02-20T08:43:05.60Z</time>
      </trkpt>
      <trkpt lat="42.328833" lon="2.338164">
        <ele>1169.00</ele>
        <time>2014-02-20T10:04:36.36Z</time>
      </trkpt>
      <trkpt lat="42.328877" lon="2.338165">
        <ele>1169.40</ele>
        <time>2014-02-20T11:26:49.19Z</time>
      </trkpt>
      <trkpt lat="42.328929" lon="2.338192">
        <ele>1170.40</ele>
        <time>2014-02-20T13:10:52.77Z</time>
      </trkpt>
      <trkpt lat="42.328953" lon="2.338194">
        <ele>1170.80</ele>
        <time>2014-02-20T13:55:48.13Z</time>
      </trkpt>
      <trkpt lat="42.329018" lon="2.338201">
        <ele>1171.60</ele>
        <time>2014-02-20T15:57:37.30Z</time>
      </trkpt>
      <trkpt lat="42.329105" lon="2.338208">
        <ele>1172.80</ele>
        <time>2014-02-20T18:40:26.71Z</time>
      </trkpt>
      <trkpt lat="42.329169" lon="2.338209">
        <ele>1174.40</ele>
        <time>2014-02-20T20:40:01.21Z</time>
      </trkpt>
      <trkpt lat="42.329252" lon="2.338185">
        <ele>1175.60</ele>
        <time>2014-02-20T23:18:35.22Z</time>
      </trkpt>
      <trkpt lat="42.329270" lon="2.338176">
        <ele>1175.80</ele>
        <time>2014-02-20T23:54:26.34Z</time>
      </trkpt>
      <trkpt lat="42.329332" lon="2.338150">
        <ele>1176.80</ele>
        <time>2014-02-21T01:55:42.50Z</time>
      </trkpt>
      <trkpt lat="42.329388" lon="2.338115">
        <ele>1177.80</ele>
        <time>2014-02-21T03:50:57.45Z</time>
      </trkpt>
      <trkpt lat="42.329402" lon="2.338101">
        <ele>1178.20</ele>
        <time>2014-02-21T04:23:29.05Z</time>
      </trkpt>
      <trkpt lat="42.329510" lon="2.338036">
        <ele>1179.60</ele>
        <time>2014-02-21T08:04:19.47Z</time>
      </trkpt>
      <trkpt lat="42.329590" lon="2.337980">
        <ele>1180.80</ele>
        <time>2014-02-21T10:52:36.61Z</time>
      </trkpt>
      <trkpt lat="42.329631" lon="2.337953">
        <ele>1181.40</ele>
        <time>2014-02-21T12:17:48.18Z</time>
      </trkpt>
      <trkpt lat="42.329654" lon="2.337938">
        <ele>1182.20</ele>
        <time>2014-02-21T13:05:30.36Z</time>
      </trkpt>
      <trkpt lat="42.329770" lon="2.337836">
        <ele>1183.20</ele>
        <time>2014-02-21T17:23:59.15Z</time>
      </trkpt>
      <trkpt lat="42.329790" lon="2.337814">
        <ele>1183.60</ele>
        <time>2014-02-21T18:12:08.75Z</time>
      </trkpt>
      <trkpt lat="42.329891" lon="2.337690">
        <ele>1184.40</ele>
        <time>2014-02-21T22:26:58.20Z</time>
      </trkpt>
      <trkpt lat="42.329987" lon="2.337565">
        <ele>1185.40</ele>
        <time>2014-02-22T02:35:54.74Z</time>
      </trkpt>
      <trkpt lat="42.330007" lon="2.337547">
        <ele>1185.60</ele>
        <time>2014-02-22T03:20:47.51Z</time>
      </trkpt>
      <trkpt lat="42.330068" lon="2.337505">
        <ele>1186.60</ele>
        <time>2014-02-22T05:28:40.08Z</time>
      </trkpt>
      <trkpt lat="42.330149" lon="2.337449">
        <ele>1188.20</ele>
        <time>2014-02-22T08:18:36.89Z</time>
      </trkpt>
      <trkpt lat="42.330166" lon="2.337433">
        <ele>1188.40</ele>
        <time>2014-02-22T08:57:18.38Z</time>
      </trkpt>
      <trkpt lat="42.330213" lon="2.337426">
        <ele>1189.20</ele>
        <time>2014-02-22T10:25:38.64Z</time>
      </trkpt>
      <trkpt lat="42.330273" lon="2.337408">
        <ele>1190.00</ele>
        <time>2014-02-22T12:20:27.70Z</time>
      </trkpt>
      <trkpt lat="42.330296" lon="2.337407">
        <ele>1190.20</ele>
        <time>2014-02-22T13:03:27.19Z</time>
      </trkpt>
      <trkpt lat="42.330365" lon="2.337400">
        <ele>1191.20</ele>
        <time>2014-02-22T15:12:43.40Z</time>
      </trkpt>
      <trkpt lat="42.330413" lon="2.337404">
        <ele>1191.80</ele>
        <time>2014-02-22T16:42:34.12Z</time>
      </trkpt>
      <trkpt lat="42.330489" lon="2.337409">
        <ele>1192.40</ele>
        <time>2014-02-22T19:04:43.33Z</time>
      </trkpt>
      <trkpt lat="42.330569" lon="2.337406">
        <ele>1193.20</ele>
        <time>2014-02-22T21:34:14.30Z</time>
      </trkpt>
      <trkpt lat="42.330637" lon="2.337397">
        <ele>1193.60</ele>
        <time>2014-02-22T23:41:53.09Z</time>
      </trkpt>
      <trkpt lat="42.330758" lon="2.337380">
        <ele>1194.40</ele>
        <time>2014-02-23T03:29:09.43Z</time>
      </trkpt>
      <trkpt lat="42.330789" lon="2.337377">
        <ele>1194.60</ele>
        <time>2014-02-23T04:27:13.22Z</time>
      </trkpt>
      <trkpt lat="42.330907" lon="2.337354">
        <ele>1195.80</ele>
        <time>2014-02-23T08:09:56.93Z</time>
      </trkpt>
      <trkpt lat="42.331035" lon="2.337231">
        <ele>1197.00</ele>
        <time>2014-02-23T13:03:16.85Z</time>
      </trkpt>
      <trkpt lat="42.331095" lon="2.337106">
        <ele>1198.20</ele>
        <time>2014-02-23T16:29:07.19Z</time>
      </trkpt>
      <trkpt lat="42.331123" lon="2.337041">
        <ele>1198.60</ele>
        <time>2014-02-23T18:13:01.29Z</time>
      </trkpt>
      <trkpt lat="42.331148" lon="2.336979">
        <ele>1199.20</ele>
        <time>2014-02-23T19:50:33.62Z</time>
      </trkpt>
      <trkpt lat="42.331207" lon="2.336879">
        <ele>1200.60</ele>
        <time>2014-02-23T22:47:15.92Z</time>
      </trkpt>
      <trkpt lat="42.331218" lon="2.336856">
        <ele>1200.80</ele>
        <time>2014-02-23T23:25:05.94Z</time>
      </trkpt>
      <trkpt lat="42.331256" lon="2.336815">
        <ele>1201.80</ele>
        <time>2014-02-24T00:55:54.54Z</time>
      </trkpt>
      <trkpt lat="42.331308" lon="2.336754">
        <ele>1202.80</ele>
        <time>2014-02-24T03:04:29.97Z</time>
      </trkpt>
      <trkpt lat="42.331364" lon="2.336710">
        <ele>1204.00</ele>
        <time>2014-02-24T05:05:29.34Z</time>
      </trkpt>
      <trkpt lat="42.331423" lon="2.336667">
        <ele>1204.80</ele>
        <time>2014-02-24T07:10:41.72Z</time>
      </trkpt>
      <trkpt lat="42.331443" lon="2.336653">
        <ele>1205.00</ele>
        <time>2014-02-24T07:52:45.99Z</time>
      </trkpt>
      <trkpt lat="42.331525" lon="2.336613">
        <ele>1206.20</ele>
        <time>2014-02-24T10:35:37.10Z</time>
      </trkpt>
      <trkpt lat="42.331560" lon="2.336611">
        <ele>1207.00</ele>
        <time>2014-02-24T11:41:03.89Z</time>
      </trkpt>
      <trkpt lat="42.331580" lon="2.336618">
        <ele>1207.40</ele>
        <time>2014-02-24T12:19:39.60Z</time>
      </trkpt>
      <trkpt lat="42.331642" lon="2.336636">
        <ele>1208.60</ele>
        <time>2014-02-24T14:18:07.69Z</time>
      </trkpt>
      <trkpt lat="42.331689" lon="2.336639">
        <ele>1209.20</ele>
        <time>2014-02-24T15:46:01.97Z</time>
      </trkpt>
      <trkpt lat="42.331721" lon="2.336640">
        <ele>1210.00</ele>
        <time>2014-02-24T16:45:49.94Z</time>
      </trkpt>
      <trkpt lat="42.331753" lon="2.336644">
        <ele>1211.00</ele>
        <time>2014-02-24T17:45:52.23Z</time>
      </trkpt>
      <trkpt lat="42.331789" lon="2.336656">
        <ele>1211.80</ele>
        <time>2014-02-24T18:55:08.32Z</time>
      </trkpt>
      <trkpt lat="42.331802" lon="2.336677">
        <ele>1212.20</ele>
        <time>2014-02-24T19:32:58.08Z</time>
      </trkpt>
      <trkpt lat="42.331827" lon="2.336755">
        <ele>1213.20</ele>
        <time>2014-02-24T21:30:23Z</time>
      </trkpt>
      <trkpt lat="42.331824" lon="2.336778">
        <ele>1213.60</ele>
        <time>2014-02-24T22:02:38.36Z</time>
      </trkpt>
      <trkpt lat="42.331795" lon="2.336857">
        <ele>1214.80</ele>
        <time>2014-02-25T00:04:27.47Z</time>
      </trkpt>
      <trkpt lat="42.331784" lon="2.336920">
        <ele>1215.80</ele>
        <time>2014-02-25T01:33:51.69Z</time>
      </trkpt>
      <trkpt lat="42.331788" lon="2.336983">
        <ele>1217.00</ele>
        <time>2014-02-25T03:01:11.49Z</time>
      </trkpt>
      <trkpt lat="42.331791" lon="2.337014">
        <ele>1217.00</ele>
        <time>2014-02-25T03:44:22.26Z</time>
      </trkpt>
      <trkpt lat="42.331813" lon="2.337132">
        <ele>1218.00</ele>
        <time>2014-02-25T06:32:26.67Z</time>
      </trkpt>
      <trkpt lat="42.331839" lon="2.337218">
        <ele>1219.00</ele>
        <time>2014-02-25T08:40:46.08Z</time>
      </trkpt>
      <trkpt lat="42.331848" lon="2.337248">
        <ele>1219.20</ele>
        <time>2014-02-25T09:25:28.97Z</time>
      </trkpt>
      <trkpt lat="42.331866" lon="2.337367">
        <ele>1220.40</ele>
        <time>2014-02-25T12:13:14.36Z</time>
      </trkpt>
      <trkpt lat="42.331885" lon="2.337417">
        <ele>1220.80</ele>
        <time>2014-02-25T13:30:53.01Z</time>
      </trkpt>
      <trkpt lat="42.331906" lon="2.337465">
        <ele>1221.40</ele>
        <time>2014-02-25T14:47:54.95Z</time>
      </trkpt>
      <trkpt lat="42.331948" lon="2.337552">
        <ele>1222.80</ele>
        <time>2014-02-25T17:11:25.39Z</time>
      </trkpt>
      <trkpt lat="42.331981" lon="2.337603">
        <ele>1223.20</ele>
        <time>2014-02-25T18:45:01.78Z</time>
      </trkpt>
      <trkpt lat="42.332009" lon="2.337642">
        <ele>1223.80</ele>
        <time>2014-02-25T20:00:06.82Z</time>
      </trkpt>
      <trkpt lat="42.332056" lon="2.337686">
        <ele>1225.00</ele>
        <time>2014-02-25T21:46:53.87Z</time>
      </trkpt>
      <trkpt lat="42.332086" lon="2.337704">
        <ele>1225.80</ele>
        <time>2014-02-25T22:48:12.65Z</time>
      </trkpt>
      <trkpt lat="42.332102" lon="2.337714">
        <ele>1226.20</ele>
        <time>2014-02-25T23:21:08.34Z</time>
      </trkpt>
      <trkpt lat="42.332172" lon="2.337722">
        <ele>1227.60</ele>
        <time>2014-02-26T01:32:22.87Z</time>
      </trkpt>
      <trkpt lat="42.332211" lon="2.337734">
        <ele>1228.20</ele>
        <time>2014-02-26T02:47:06.20Z</time>
      </trkpt>
      <trkpt lat="42.332260" lon="2.337733">
        <ele>1228.60</ele>
        <time>2014-02-26T04:18:39.44Z</time>
      </trkpt>
      <trkpt lat="42.332380" lon="2.337709">
        <ele>1229.80</ele>
        <time>2014-02-26T08:05:16.94Z</time>
      </trkpt>
      <trkpt lat="42.332463" lon="2.337659">
        <ele>1231.00</ele>
        <time>2014-02-26T10:55:01.61Z</time>
      </trkpt>
      <trkpt lat="42.332540" lon="2.337585">
        <ele>1233.00</ele>
        <time>2014-02-26T13:51:29.35Z</time>
      </trkpt>
      <trkpt lat="42.332607" lon="2.337502">
        <ele>1234.00</ele>
        <time>2014-02-26T16:41:13.11Z</time>
      </trkpt>
      <trkpt lat="42.332636" lon="2.337438">
        <ele>1235.40</ele>
        <time>2014-02-26T18:24:53.48Z</time>
      </trkpt>
      <trkpt lat="42.332651" lon="2.337362">
        <ele>1236.40</ele>
        <time>2014-02-26T20:13:31.83Z</time>
      </trkpt>
      <trkpt lat="42.332652" lon="2.337336">
        <ele>1236.80</ele>
        <time>2014-02-26T20:49:29.24Z</time>
      </trkpt>
      <trkpt lat="42.332666" lon="2.337286">
        <ele>1237.40</ele>
        <time>2014-02-26T22:03:19.74Z</time>
      </trkpt>
      <trkpt lat="42.332673" lon="2.337261">
        <ele>1237.60</ele>
        <time>2014-02-26T22:40:14.99Z</time>
      </trkpt>
      <trkpt lat="42.332712" lon="2.337170">
        <ele>1238.60</ele>
        <time>2014-02-27T01:05:31.30Z</time>
      </trkpt>
      <trkpt lat="42.332725" lon="2.337125">
        <ele>1239.20</ele>
        <time>2014-02-27T02:12:14.86Z</time>
      </trkpt>
      <trkpt lat="42.332748" lon="2.337079">
        <ele>1240.00</ele>
        <time>2014-02-27T03:28:56.67Z</time>
      </trkpt>
      <trkpt lat="42.332796" lon="2.337032">
        <ele>1241.00</ele>
        <time>2014-02-27T05:19:38.83Z</time>
      </trkpt>
      <trkpt lat="42.332814" lon="2.337016">
        <ele>1241.20</ele>
        <time>2014-02-27T05:59:53.15Z</time>
      </trkpt>
      <trkpt lat="42.332857" lon="2.336970">
        <ele>1242.00</ele>
        <time>2014-02-27T07:42:18.27Z</time>
      </trkpt>
      <trkpt lat="42.332864" lon="2.336945">
        <ele>1242.40</ele>
        <time>2014-02-27T08:19:13.51Z</time>
      </trkpt>
      <trkpt lat="42.332879" lon="2.336920">
        <ele>1242.60</ele>
        <time>2014-02-27T09:03:41.62Z</time>
      </trkpt>
      <trkpt lat="42.332915" lon="2.336844">
        <ele>1243.20</ele>
        <time>2014-02-27T11:08:21.30Z</time>
      </trkpt>
      <trkpt lat="42.332969" lon="2.336753">
        <ele>1244.40</ele>
        <time>2014-02-27T13:49:30.94Z</time>
      </trkpt>
      <trkpt lat="42.333011" lon="2.336695">
        <ele>1245.40</ele>
        <time>2014-02-27T15:41:38.79Z</time>
      </trkpt>
      <trkpt lat="42.333072" lon="2.336593">
        <ele>1246.60</ele>
        <time>2014-02-27T18:42:50.51Z</time>
      </trkpt>
      <trkpt lat="42.333084" lon="2.336567">
        <ele>1246.80</ele>
        <time>2014-02-27T19:25:10.42Z</time>
      </trkpt>
      <trkpt lat="42.333115" lon="2.336522">
        <ele>1248.00</ele>
        <time>2014-02-27T20:50:07.46Z</time>
      </trkpt>
      <trkpt lat="42.333173" lon="2.336440">
        <ele>1249.20</ele>
        <time>2014-02-27T23:26:51.68Z</time>
      </trkpt>
      <trkpt lat="42.333188" lon="2.336415">
        <ele>1249.40</ele>
        <time>2014-02-28T00:11:19.78Z</time>
      </trkpt>
      <trkpt lat="42.333235" lon="2.336369">
        <ele>1250.40</ele>
        <time>2014-02-28T01:59:42.53Z</time>
      </trkpt>
      <trkpt lat="42.333270" lon="2.336368">
        <ele>1251.20</ele>
        <time>2014-02-28T03:05:06.69Z</time>
      </trkpt>
      <trkpt lat="42.333288" lon="2.336378">
        <ele>1251.60</ele>
        <time>2014-02-28T03:41:27.92Z</time>
      </trkpt>
      <trkpt lat="42.333310" lon="2.336451">
        <ele>1252.80</ele>
        <time>2014-02-28T05:30:20.38Z</time>
      </trkpt>
      <trkpt lat="42.333305" lon="2.336531">
        <ele>1253.60</ele>
        <time>2014-02-28T07:21:13.18Z</time>
      </trkpt>
      <trkpt lat="42.333303" lon="2.336564">
        <ele>1254.00</ele>
        <time>2014-02-28T08:06:56.87Z</time>
      </trkpt>
      <trkpt lat="42.333306" lon="2.336616">
        <ele>1254.80</ele>
        <time>2014-02-28T09:18:58.92Z</time>
      </trkpt>
      <trkpt lat="42.333314" lon="2.336709">
        <ele>1255.20</ele>
        <time>2014-02-28T11:28:17.31Z</time>
      </trkpt>
      <trkpt lat="42.333322" lon="2.336772">
        <ele>1256.20</ele>
        <time>2014-02-28T12:56:34.22Z</time>
      </trkpt>
      <trkpt lat="42.333329" lon="2.336800">
        <ele>1256.40</ele>
        <time>2014-02-28T13:37:23.51Z</time>
      </trkpt>
      <trkpt lat="42.333359" lon="2.336876">
        <ele>1257.60</ele>
        <time>2014-02-28T15:36:22.80Z</time>
      </trkpt>
      <trkpt lat="42.333406" lon="2.336933">
        <ele>1258.60</ele>
        <time>2014-02-28T17:34:18.49Z</time>
      </trkpt>
      <trkpt lat="42.333549" lon="2.337065">
        <ele>1259.80</ele>
        <time>2014-02-28T22:57:44.27Z</time>
      </trkpt>
      <trkpt lat="42.333612" lon="2.337232">
        <ele>1261.00</ele>
        <time>2014-03-01T03:16:40.32Z</time>
      </trkpt>
      <trkpt lat="42.333634" lon="2.337375">
        <ele>1262.20</ele>
        <time>2014-03-01T06:38:23.76Z</time>
      </trkpt>
      <trkpt lat="42.333659" lon="2.337485">
        <ele>1263.20</ele>
        <time>2014-03-01T09:17:19.84Z</time>
      </trkpt>
      <trkpt lat="42.333669" lon="2.337515">
        <ele>1263.40</ele>
        <time>2014-03-01T10:02:46.80Z</time>
      </trkpt>
      <trkpt lat="42.333709" lon="2.337604">
        <ele>1264.40</ele>
        <time>2014-03-01T12:26:37.73Z</time>
      </trkpt>
      <trkpt lat="42.333759" lon="2.337716">
        <ele>1265.20</ele>
        <time>2014-03-01T15:27:19.54Z</time>
      </trkpt>
      <trkpt lat="42.333773" lon="2.337744">
        <ele>1265.60</ele>
        <time>2014-03-01T16:14:00.61Z</time>
      </trkpt>
      <trkpt lat="42.333843" lon="2.337862">
        <ele>1266.60</ele>
        <time>2014-03-01T19:42:57.62Z</time>
      </trkpt>
      <trkpt lat="42.333857" lon="2.337885">
        <ele>1267.00</ele>
        <time>2014-03-01T20:24:06.43Z</time>
      </trkpt>
      <trkpt lat="42.333883" lon="2.337960">
        <ele>1268.00</ele>
        <time>2014-03-01T22:18:30.64Z</time>
      </trkpt>
      <trkpt lat="42.333904" lon="2.338042">
        <ele>1269.00</ele>
        <time>2014-03-02T00:18:21.66Z</time>
      </trkpt>
      <trkpt lat="42.333923" lon="2.338090">
        <ele>1270.40</ele>
        <time>2014-03-02T01:33:33.43Z</time>
      </trkpt>
      <trkpt lat="42.333953" lon="2.338162">
        <ele>1271.40</ele>
        <time>2014-03-02T03:27:42.06Z</time>
      </trkpt>
      <trkpt lat="42.333992" lon="2.338225">
        <ele>1272.40</ele>
        <time>2014-03-02T05:21:11.18Z</time>
      </trkpt>
      <trkpt lat="42.334041" lon="2.338282">
        <ele>1273.40</ele>
        <time>2014-03-02T07:21:55.31Z</time>
      </trkpt>
      <trkpt lat="42.334120" lon="2.338339">
        <ele>1274.60</ele>
        <time>2014-03-02T10:09:11.61Z</time>
      </trkpt>
      <trkpt lat="42.334170" lon="2.338383">
        <ele>1275.80</ele>
        <time>2014-03-02T12:00:37.85Z</time>
      </trkpt>
      <trkpt lat="42.334204" lon="2.338438">
        <ele>1277.00</ele>
        <time>2014-03-02T13:39:38.88Z</time>
      </trkpt>
      <trkpt lat="42.334231" lon="2.338475">
        <ele>1277.60</ele>
        <time>2014-03-02T14:51:27Z</time>
      </trkpt>
      <trkpt lat="42.334244" lon="2.338495">
        <ele>1278.00</ele>
        <time>2014-03-02T15:28:13.81Z</time>
      </trkpt>
      <trkpt lat="42.334272" lon="2.338529">
        <ele>1279.00</ele>
        <time>2014-03-02T16:38:31.45Z</time>
      </trkpt>
      <trkpt lat="42.334336" lon="2.338561">
        <ele>1280.00</ele>
        <time>2014-03-02T18:45:59.82Z</time>
      </trkpt>
      <trkpt lat="42.334359" lon="2.338570">
        <ele>1280.40</ele>
        <time>2014-03-02T19:30:43.67Z</time>
      </trkpt>
      <trkpt lat="42.334427" lon="2.338618">
        <ele>1281.00</ele>
        <time>2014-03-02T21:54:01.39Z</time>
      </trkpt>
      <trkpt lat="42.334528" lon="2.338697">
        <ele>1282.20</ele>
        <time>2014-03-03T01:31:59.18Z</time>
      </trkpt>
      <trkpt lat="42.334676" lon="2.338802">
        <ele>1283.20</ele>
        <time>2014-03-03T06:44:12.18Z</time>
      </trkpt>
      <trkpt lat="42.334708" lon="2.338821">
        <ele>1283.40</ele>
        <time>2014-03-03T07:49:29.49Z</time>
      </trkpt>
      <trkpt lat="42.334920" lon="2.338983">
        <ele>1284.60</ele>
        <time>2014-03-03T15:24:22.71Z</time>
      </trkpt>
      <trkpt lat="42.335069" lon="2.339137">
        <ele>1285.40</ele>
        <time>2014-03-03T21:14:41.61Z</time>
      </trkpt>
      <trkpt lat="42.335098" lon="2.339169">
        <ele>1285.80</ele>
        <time>2014-03-03T22:24:36.62Z</time>
      </trkpt>
      <trkpt lat="42.335207" lon="2.339293">
        <ele>1287.00</ele>
        <time>2014-03-04T02:50:40.92Z</time>
      </trkpt>
      <trkpt lat="42.335285" lon="2.339405">
        <ele>1288.20</ele>
        <time>2014-03-04T06:23:11.37Z</time>
      </trkpt>
      <trkpt lat="42.335314" lon="2.339439">
        <ele>1288.80</ele>
        <time>2014-03-04T07:34:53.04Z</time>
      </trkpt>
      <trkpt lat="42.335372" lon="2.339504">
        <ele>1289.40</ele>
        <time>2014-03-04T09:55:35.67Z</time>
      </trkpt>
      <trkpt lat="42.335480" lon="2.339635">
        <ele>1290.60</ele>
        <time>2014-03-04T14:26:35.65Z</time>
      </trkpt>
      <trkpt lat="42.335508" lon="2.339667">
        <ele>1290.80</ele>
        <time>2014-03-04T15:35:04.40Z</time>
      </trkpt>
      <trkpt lat="42.335593" lon="2.339752">
        <ele>1291.80</ele>
        <time>2014-03-04T18:52:33.01Z</time>
      </trkpt>
      <trkpt lat="42.335728" lon="2.339850">
        <ele>1292.40</ele>
        <time>2014-03-04T23:38:46.80Z</time>
      </trkpt>
      <trkpt lat="42.335804" lon="2.339909">
        <ele>1292.20</ele>
        <time>2014-03-05T02:22:29.03Z</time>
      </trkpt>
      <trkpt lat="42.335877" lon="2.340002">
        <ele>1292.20</ele>
        <time>2014-03-05T05:29:49.26Z</time>
      </trkpt>
      <trkpt lat="42.336074" lon="2.340302">
        <ele>1293.00</ele>
        <time>2014-03-05T14:43:59.38Z</time>
      </trkpt>
      <trkpt lat="42.336142" lon="2.340397">
        <ele>1293.40</ele>
        <time>2014-03-05T17:46:36.82Z</time>
      </trkpt>
      <trkpt lat="42.336339" lon="2.340590">
        <ele>1294.20</ele>
        <time>2014-03-06T01:21:01.89Z</time>
      </trkpt>
      <trkpt lat="42.336379" lon="2.340623">
        <ele>1294.60</ele>
        <time>2014-03-06T02:48:33.65Z</time>
      </trkpt>
      <trkpt lat="42.336462" lon="2.340686">
        <ele>1295.40</ele>
        <time>2014-03-06T05:46:21.88Z</time>
      </trkpt>
      <trkpt lat="42.336544" lon="2.340762">
        <ele>1295.40</ele>
        <time>2014-03-06T08:52:03.89Z</time>
      </trkpt>
      <trkpt lat="42.336639" lon="2.340832">
        <ele>1295.20</ele>
        <time>2014-03-06T12:14:09.98Z</time>
      </trkpt>
      <trkpt lat="42.336896" lon="2.340936">
        <ele>1295.40</ele>
        <time>2014-03-06T20:35:19.40Z</time>
      </trkpt>
      <trkpt lat="42.337018" lon="2.340944">
        <ele>1295.20</ele>
        <time>2014-03-07T00:23:30.93Z</time>
      </trkpt>
      <trkpt lat="42.337080" lon="2.340937">
        <ele>1295.00</ele>
        <time>2014-03-07T02:19:44.92Z</time>
      </trkpt>
      <trkpt lat="42.337198" lon="2.340938">
        <ele>1295.00</ele>
        <time>2014-03-07T06:00:12.27Z</time>
      </trkpt>
      <trkpt lat="42.337361" lon="2.340918">
        <ele>1295.60</ele>
        <time>2014-03-07T11:05:58.59Z</time>
      </trkpt>
      <trkpt lat="42.337481" lon="2.340887">
        <ele>1296.60</ele>
        <time>2014-03-07T14:54:12.93Z</time>
      </trkpt>
      <trkpt lat="42.337543" lon="2.340883">
        <ele>1298.20</ele>
        <time>2014-03-07T16:50:10.65Z</time>
      </trkpt>
      <trkpt lat="42.337611" lon="2.340890">
        <ele>1299.40</ele>
        <time>2014-03-07T18:57:35.08Z</time>
      </trkpt>
      <trkpt lat="42.337751" lon="2.340996">
        <ele>1300.80</ele>
        <time>2014-03-07T23:57:18.87Z</time>
      </trkpt>
      <trkpt lat="42.337904" lon="2.341116">
        <ele>1302.00</ele>
        <time>2014-03-08T05:27:43.07Z</time>
      </trkpt>
      <trkpt lat="42.337986" lon="2.341179">
        <ele>1302.60</ele>
        <time>2014-03-08T08:23:53.63Z</time>
      </trkpt>
      <trkpt lat="42.338175" lon="2.341358">
        <ele>1303.20</ele>
        <time>2014-03-08T15:34:55.04Z</time>
      </trkpt>
      <trkpt lat="42.338242" lon="2.341432">
        <ele>1303.40</ele>
        <time>2014-03-08T18:16:30.38Z</time>
      </trkpt>
      <trkpt lat="42.338334" lon="2.341524">
        <ele>1304.20</ele>
        <time>2014-03-08T21:50:14.56Z</time>
      </trkpt>
      <trkpt lat="42.338429" lon="2.341622">
        <ele>1304.60</ele>
        <time>2014-03-09T01:33:26.16Z</time>
      </trkpt>
      <trkpt lat="42.338498" lon="2.341671">
        <ele>1305.60</ele>
        <time>2014-03-09T03:59:01.50Z</time>
      </trkpt>
      <trkpt lat="42.338600" lon="2.341719">
        <ele>1306.60</ele>
        <time>2014-03-09T07:20:47.06Z</time>
      </trkpt>
      <trkpt lat="42.338712" lon="2.341760">
        <ele>1307.80</ele>
        <time>2014-03-09T10:57:33.09Z</time>
      </trkpt>
      <trkpt lat="42.338822" lon="2.341811">
        <ele>1308.80</ele>
        <time>2014-03-09T14:34:47.43Z</time>
      </trkpt>
      <trkpt lat="42.338954" lon="2.341945">
        <ele>1309.40</ele>
        <time>2014-03-09T19:43:06.26Z</time>
      </trkpt>
      <trkpt lat="42.338980" lon="2.342001">
        <ele>1309.60</ele>
        <time>2014-03-09T21:14:25.63Z</time>
      </trkpt>
      <trkpt lat="42.339092" lon="2.342120">
        <ele>1309.40</ele>
        <time>2014-03-10T01:40:29.18Z</time>
      </trkpt>
      <trkpt lat="42.339231" lon="2.342297">
        <ele>1309.60</ele>
        <time>2014-03-10T07:37:06.61Z</time>
      </trkpt>
      <trkpt lat="42.339269" lon="2.342345">
        <ele>1309.80</ele>
        <time>2014-03-10T09:14:14.25Z</time>
      </trkpt>
      <trkpt lat="42.339306" lon="2.342396">
        <ele>1310.00</ele>
        <time>2014-03-10T10:52:55.23Z</time>
      </trkpt>
      <trkpt lat="42.339489" lon="2.342615">
        <ele>1310.80</ele>
        <time>2014-03-10T18:29:22.30Z</time>
      </trkpt>
      <trkpt lat="42.339526" lon="2.342649">
        <ele>1311.00</ele>
        <time>2014-03-10T19:52:56.05Z</time>
      </trkpt>
      <trkpt lat="42.339622" lon="2.342764">
        <ele>1312.00</ele>
        <time>2014-03-10T23:52:29.33Z</time>
      </trkpt>
      <trkpt lat="42.339649" lon="2.342827">
        <ele>1312.40</ele>
        <time>2014-03-11T01:33:03.20Z</time>
      </trkpt>
      <trkpt lat="42.339750" lon="2.342981">
        <ele>1312.60</ele>
        <time>2014-03-11T06:17:21.60Z</time>
      </trkpt>
      <trkpt lat="42.339851" lon="2.343111">
        <ele>1313.20</ele>
        <time>2014-03-11T10:37:48.37Z</time>
      </trkpt>
      <trkpt lat="42.340106" lon="2.343418">
        <ele>1314.60</ele>
        <time>2014-03-11T21:15:31.50Z</time>
      </trkpt>
      <trkpt lat="42.340267" lon="2.343598">
        <ele>1315.40</ele>
        <time>2014-03-12T03:45:43.57Z</time>
      </trkpt>
      <trkpt lat="42.340303" lon="2.343649">
        <ele>1315.60</ele>
        <time>2014-03-12T05:23:06.52Z</time>
      </trkpt>
      <trkpt lat="42.340333" lon="2.343708">
        <ele>1315.80</ele>
        <time>2014-03-12T07:01:59.95Z</time>
      </trkpt>
      <trkpt lat="42.340446" lon="2.343979">
        <ele>1316.20</ele>
        <time>2014-03-12T14:11:40.02Z</time>
      </trkpt>
      <trkpt lat="42.340491" lon="2.344136">
        <ele>1316.00</ele>
        <time>2014-03-12T18:04:12.02Z</time>
      </trkpt>
      <trkpt lat="42.340568" lon="2.344348">
        <ele>1315.80</ele>
        <time>2014-03-12T23:30:23.31Z</time>
      </trkpt>
      <trkpt lat="42.340618" lon="2.344498">
        <ele>1316.20</ele>
        <time>2014-03-13T03:17:36.83Z</time>
      </trkpt>
      <trkpt lat="42.340667" lon="2.344638">
        <ele>1316.60</ele>
        <time>2014-03-13T06:51:31.19Z</time>
      </trkpt>
      <trkpt lat="42.340721" lon="2.344753">
        <ele>1317.20</ele>
        <time>2014-03-13T09:59:39.59Z</time>
      </trkpt>
      <trkpt lat="42.340803" lon="2.344820">
        <ele>1317.60</ele>
        <time>2014-03-13T12:58:37.55Z</time>
      </trkpt>
      <trkpt lat="42.340860" lon="2.344814">
        <ele>1317.80</ele>
        <time>2014-03-13T14:45:26.22Z</time>
      </trkpt>
      <trkpt lat="42.340912" lon="2.344819">
        <ele>1318.00</ele>
        <time>2014-03-13T16:22:49.81Z</time>
      </trkpt>
      <trkpt lat="42.340968" lon="2.344824">
        <ele>1318.20</ele>
        <time>2014-03-13T18:07:40.73Z</time>
      </trkpt>
      <trkpt lat="42.341132" lon="2.344864">
        <ele>1318.40</ele>
        <time>2014-03-13T23:19:00.50Z</time>
      </trkpt>
      <trkpt lat="42.341293" lon="2.344903">
        <ele>1319.00</ele>
        <time>2014-03-14T04:24:34.63Z</time>
      </trkpt>
      <trkpt lat="42.341387" lon="2.344951">
        <ele>1319.20</ele>
        <time>2014-03-14T07:32:17.02Z</time>
      </trkpt>
      <trkpt lat="42.341413" lon="2.345053">
        <ele>1319.60</ele>
        <time>2014-03-14T10:01:16.52Z</time>
      </trkpt>
      <trkpt lat="42.341399" lon="2.345096">
        <ele>1320.00</ele>
        <time>2014-03-14T11:06:09.54Z</time>
      </trkpt>
      <trkpt lat="42.341347" lon="2.345173">
        <ele>1321.20</ele>
        <time>2014-03-14T13:30:11.13Z</time>
      </trkpt>
      <trkpt lat="42.341316" lon="2.345220">
        <ele>1321.60</ele>
        <time>2014-03-14T14:57:10.25Z</time>
      </trkpt>
      <trkpt lat="42.341286" lon="2.345280">
        <ele>1321.80</ele>
        <time>2014-03-14T16:37:12.06Z</time>
      </trkpt>
      <trkpt lat="42.341189" lon="2.345445">
        <ele>1322.00</ele>
        <time>2014-03-14T21:28:19.68Z</time>
      </trkpt>
      <trkpt lat="42.341071" lon="2.345579">
        <ele>1322.00</ele>
        <time>2014-03-15T02:16:08.74Z</time>
      </trkpt>
      <trkpt lat="42.341034" lon="2.345624">
        <ele>1322.40</ele>
        <time>2014-03-15T03:49:05.73Z</time>
      </trkpt>
      <trkpt lat="42.340974" lon="2.345726">
        <ele>1322.80</ele>
        <time>2014-03-15T06:49:06.46Z</time>
      </trkpt>
      <trkpt lat="42.341002" lon="2.345871">
        <ele>1323.00</ele>
        <time>2014-03-15T10:16:03.54Z</time>
      </trkpt>
      <trkpt lat="42.341135" lon="2.345960">
        <ele>1323.60</ele>
        <time>2014-03-15T14:53:16.02Z</time>
      </trkpt>
      <trkpt lat="42.341225" lon="2.345995">
        <ele>1325.00</ele>
        <time>2014-03-15T17:48:12.99Z</time>
      </trkpt>
      <trkpt lat="42.341290" lon="2.346051">
        <ele>1326.00</ele>
        <time>2014-03-15T20:12:11.01Z</time>
      </trkpt>
      <trkpt lat="42.341320" lon="2.346080">
        <ele>1326.40</ele>
        <time>2014-03-15T21:21:04.03Z</time>
      </trkpt>
      <trkpt lat="42.341383" lon="2.346218">
        <ele>1327.60</ele>
        <time>2014-03-16T01:05:02.88Z</time>
      </trkpt>
      <trkpt lat="42.341411" lon="2.346253">
        <ele>1328.00</ele>
        <time>2014-03-16T02:16:16.09Z</time>
      </trkpt>
      <trkpt lat="42.341457" lon="2.346320">
        <ele>1328.80</ele>
        <time>2014-03-16T04:22:32.60Z</time>
      </trkpt>
      <trkpt lat="42.341517" lon="2.346375">
        <ele>1329.40</ele>
        <time>2014-03-16T06:37:56.64Z</time>
      </trkpt>
      <trkpt lat="42.341547" lon="2.346401">
        <ele>1329.80</ele>
        <time>2014-03-16T07:44:30.27Z</time>
      </trkpt>
      <trkpt lat="42.341602" lon="2.346433">
        <ele>1330.80</ele>
        <time>2014-03-16T09:36:21.36Z</time>
      </trkpt>
      <trkpt lat="42.341692" lon="2.346487">
        <ele>1331.60</ele>
        <time>2014-03-16T12:40:17.41Z</time>
      </trkpt>
      <trkpt lat="42.341755" lon="2.346505">
        <ele>1332.00</ele>
        <time>2014-03-16T14:40:35.09Z</time>
      </trkpt>
      <trkpt lat="42.341849" lon="2.346524">
        <ele>1332.80</ele>
        <time>2014-03-16T17:38:08.87Z</time>
      </trkpt>
      <trkpt lat="42.341880" lon="2.346529">
        <ele>1333.20</ele>
        <time>2014-03-16T18:36:28.40Z</time>
      </trkpt>
      <trkpt lat="42.342010" lon="2.346550">
        <ele>1334.40</ele>
        <time>2014-03-16T22:41:04.12Z</time>
      </trkpt>
      <trkpt lat="42.342105" lon="2.346566">
        <ele>1335.60</ele>
        <time>2014-03-17T01:39:55.25Z</time>
      </trkpt>
      <trkpt lat="42.342169" lon="2.346578">
        <ele>1336.00</ele>
        <time>2014-03-17T03:40:37.83Z</time>
      </trkpt>
      <trkpt lat="42.342228" lon="2.346584">
        <ele>1336.60</ele>
        <time>2014-03-17T05:31:10.03Z</time>
      </trkpt>
      <trkpt lat="42.342352" lon="2.346616">
        <ele>1337.60</ele>
        <time>2014-03-17T09:27:00.29Z</time>
      </trkpt>
      <trkpt lat="42.342384" lon="2.346619">
        <ele>1338.20</ele>
        <time>2014-03-17T10:26:55.90Z</time>
      </trkpt>
      <trkpt lat="42.342471" lon="2.346630">
        <ele>1339.20</ele>
        <time>2014-03-17T13:10:10.57Z</time>
      </trkpt>
      <trkpt lat="42.342595" lon="2.346645">
        <ele>1340.60</ele>
        <time>2014-03-17T17:02:45.68Z</time>
      </trkpt>
      <trkpt lat="42.342712" lon="2.346662">
        <ele>1341.60</ele>
        <time>2014-03-17T20:42:36.09Z</time>
      </trkpt>
      <trkpt lat="42.342797" lon="2.346670">
        <ele>1342.80</ele>
        <time>2014-03-17T23:21:47.11Z</time>
      </trkpt>
      <trkpt lat="42.342909" lon="2.346680">
        <ele>1344.00</ele>
        <time>2014-03-18T02:51:28.94Z</time>
      </trkpt>
      <trkpt lat="42.342961" lon="2.346685">
        <ele>1344.60</ele>
        <time>2014-03-18T04:28:52.54Z</time>
      </trkpt>
      <trkpt lat="42.343014" lon="2.346687">
        <ele>1345.20</ele>
        <time>2014-03-18T06:07:55.83Z</time>
      </trkpt>
      <trkpt lat="42.343103" lon="2.346669">
        <ele>1346.20</ele>
        <time>2014-03-18T08:56:03.05Z</time>
      </trkpt>
      <trkpt lat="42.343135" lon="2.346669">
        <ele>1346.60</ele>
        <time>2014-03-18T09:55:50.05Z</time>
      </trkpt>
      <trkpt lat="42.343199" lon="2.346668">
        <ele>1347.40</ele>
        <time>2014-03-18T11:55:24.55Z</time>
      </trkpt>
      <trkpt lat="42.343317" lon="2.346658">
        <ele>1348.80</ele>
        <time>2014-03-18T15:36:17.56Z</time>
      </trkpt>
      <trkpt lat="42.343402" lon="2.346643">
        <ele>1349.80</ele>
        <time>2014-03-18T18:16:26.26Z</time>
      </trkpt>
      <trkpt lat="42.343509" lon="2.346615">
        <ele>1350.80</ele>
        <time>2014-03-18T21:40:02.60Z</time>
      </trkpt>
      <trkpt lat="42.343595" lon="2.346601">
        <ele>1352.00</ele>
        <time>2014-03-19T00:21:52.22Z</time>
      </trkpt>
      <trkpt lat="42.343627" lon="2.346598">
        <ele>1352.20</ele>
        <time>2014-03-19T01:21:47.83Z</time>
      </trkpt>
      <trkpt lat="42.343718" lon="2.346574">
        <ele>1353.20</ele>
        <time>2014-03-19T04:15:00.38Z</time>
      </trkpt>
      <trkpt lat="42.343803" lon="2.346550">
        <ele>1354.40</ele>
        <time>2014-03-19T06:57:13.64Z</time>
      </trkpt>
      <trkpt lat="42.343831" lon="2.346543">
        <ele>1354.60</ele>
        <time>2014-03-19T07:50:25.41Z</time>
      </trkpt>
      <trkpt lat="42.343917" lon="2.346526">
        <ele>1355.60</ele>
        <time>2014-03-19T10:32:47.84Z</time>
      </trkpt>
      <trkpt lat="42.343943" lon="2.346517">
        <ele>1355.80</ele>
        <time>2014-03-19T11:22:56.16Z</time>
      </trkpt>
      <trkpt lat="42.344026" lon="2.346496">
        <ele>1356.80</ele>
        <time>2014-03-19T14:00:41.24Z</time>
      </trkpt>
      <trkpt lat="42.344080" lon="2.346485">
        <ele>1357.40</ele>
        <time>2014-03-19T15:42:42.54Z</time>
      </trkpt>
      <trkpt lat="42.344138" lon="2.346479">
        <ele>1358.00</ele>
        <time>2014-03-19T17:31:22.97Z</time>
      </trkpt>
      <trkpt lat="42.344234" lon="2.346482">
        <ele>1358.80</ele>
        <time>2014-03-19T20:30:46.87Z</time>
      </trkpt>
      <trkpt lat="42.344263" lon="2.346481">
        <ele>1359.20</ele>
        <time>2014-03-19T21:24:58.65Z</time>
      </trkpt>
      <trkpt lat="42.344371" lon="2.346473">
        <ele>1360.60</ele>
        <time>2014-03-20T00:47:02.93Z</time>
      </trkpt>
      <trkpt lat="42.344398" lon="2.346467">
        <ele>1360.80</ele>
        <time>2014-03-20T01:38:10.02Z</time>
      </trkpt>
      <trkpt lat="42.344452" lon="2.346448">
        <ele>1361.60</ele>
        <time>2014-03-20T03:22:24.43Z</time>
      </trkpt>
      <trkpt lat="42.344538" lon="2.346423">
        <ele>1362.60</ele>
        <time>2014-03-20T06:06:44.52Z</time>
      </trkpt>
      <trkpt lat="42.344602" lon="2.346405">
        <ele>1363.40</ele>
        <time>2014-03-20T08:08:51.89Z</time>
      </trkpt>
      <trkpt lat="42.344660" lon="2.346382">
        <ele>1364.00</ele>
        <time>2014-03-20T10:01:46.84Z</time>
      </trkpt>
      <trkpt lat="42.344768" lon="2.346354">
        <ele>1365.20</ele>
        <time>2014-03-20T13:27:13.25Z</time>
      </trkpt>
      <trkpt lat="42.344799" lon="2.346345">
        <ele>1365.40</ele>
        <time>2014-03-20T14:26:27.27Z</time>
      </trkpt>
      <trkpt lat="42.344887" lon="2.346308">
        <ele>1366.20</ele>
        <time>2014-03-20T17:18:36.87Z</time>
      </trkpt>
      <trkpt lat="42.345004" lon="2.346268">
        <ele>1367.40</ele>
        <time>2014-03-20T21:04:04.08Z</time>
      </trkpt>
      <trkpt lat="42.345032" lon="2.346259">
        <ele>1367.60</ele>
        <time>2014-03-20T21:57:50.07Z</time>
      </trkpt>
      <trkpt lat="42.345110" lon="2.346238">
        <ele>1368.60</ele>
        <time>2014-03-21T00:26:24.82Z</time>
      </trkpt>
      <trkpt lat="42.345159" lon="2.346221">
        <ele>1369.60</ele>
        <time>2014-03-21T02:00:55.13Z</time>
      </trkpt>
      <trkpt lat="42.345240" lon="2.346195">
        <ele>1370.40</ele>
        <time>2014-03-21T04:36:26.77Z</time>
      </trkpt>
      <trkpt lat="42.345296" lon="2.346175">
        <ele>1371.00</ele>
        <time>2014-03-21T06:24:39.04Z</time>
      </trkpt>
      <trkpt lat="42.345405" lon="2.346155">
        <ele>1372.20</ele>
        <time>2014-03-21T09:50:09.13Z</time>
      </trkpt>
      <trkpt lat="42.345494" lon="2.346153">
        <ele>1373.20</ele>
        <time>2014-03-21T12:36:26.87Z</time>
      </trkpt>
      <trkpt lat="42.345614" lon="2.346163">
        <ele>1374.60</ele>
        <time>2014-03-21T16:21:03.64Z</time>
      </trkpt>
      <trkpt lat="42.345640" lon="2.346164">
        <ele>1374.80</ele>
        <time>2014-03-21T17:09:39.26Z</time>
      </trkpt>
      <trkpt lat="42.345693" lon="2.346166">
        <ele>1375.60</ele>
        <time>2014-03-21T18:48:42.55Z</time>
      </trkpt>
      <trkpt lat="42.345812" lon="2.346159">
        <ele>1376.60</ele>
        <time>2014-03-21T22:31:14.34Z</time>
      </trkpt>
      <trkpt lat="42.345837" lon="2.346138">
        <ele>1377.20</ele>
        <time>2014-03-21T23:26:12.84Z</time>
      </trkpt>
      <trkpt lat="42.345858" lon="2.346067">
        <ele>1377.80</ele>
        <time>2014-03-22T01:11:48.57Z</time>
      </trkpt>
      <trkpt lat="42.345842" lon="2.346000">
        <ele>1378.40</ele>
        <time>2014-03-22T02:49:01.92Z</time>
      </trkpt>
      <trkpt lat="42.345797" lon="2.345959">
        <ele>1379.20</ele>
        <time>2014-03-22T04:30:23.23Z</time>
      </trkpt>
      <trkpt lat="42.345767" lon="2.345943">
        <ele>1379.40</ele>
        <time>2014-03-22T05:30:37.88Z</time>
      </trkpt>
      <trkpt lat="42.345699" lon="2.345918">
        <ele>1380.00</ele>
        <time>2014-03-22T07:42:16.66Z</time>
      </trkpt>
      <trkpt lat="42.345638" lon="2.345887">
        <ele>1380.60</ele>
        <time>2014-03-22T09:44:00.82Z</time>
      </trkpt>
      <trkpt lat="42.345607" lon="2.345876">
        <ele>1380.80</ele>
        <time>2014-03-22T10:43:53.24Z</time>
      </trkpt>
      <trkpt lat="42.345498" lon="2.345815">
        <ele>1382.00</ele>
        <time>2014-03-22T14:24:15.42Z</time>
      </trkpt>
      <trkpt lat="42.345471" lon="2.345800">
        <ele>1382.20</ele>
        <time>2014-03-22T15:18:47.16Z</time>
      </trkpt>
      <trkpt lat="42.345382" lon="2.345765">
        <ele>1383.00</ele>
        <time>2014-03-22T18:11:56.39Z</time>
      </trkpt>
      <trkpt lat="42.345325" lon="2.345747">
        <ele>1383.60</ele>
        <time>2014-03-22T20:01:17.47Z</time>
      </trkpt>
      <trkpt lat="42.345266" lon="2.345741">
        <ele>1384.40</ele>
        <time>2014-03-22T21:51:49.67Z</time>
      </trkpt>
      <trkpt lat="42.345125" lon="2.345683">
        <ele>1385.80</ele>
        <time>2014-03-23T02:27:09.25Z</time>
      </trkpt>
      <trkpt lat="42.345018" lon="2.345622">
        <ele>1387.00</ele>
        <time>2014-03-23T06:04:04.55Z</time>
      </trkpt>
      <trkpt lat="42.344942" lon="2.345570">
        <ele>1388.20</ele>
        <time>2014-03-23T08:43:11.06Z</time>
      </trkpt>
      <trkpt lat="42.344841" lon="2.345505">
        <ele>1389.40</ele>
        <time>2014-03-23T12:12:08.07Z</time>
      </trkpt>
      <trkpt lat="42.344817" lon="2.345491">
        <ele>1389.60</ele>
        <time>2014-03-23T13:00:57.72Z</time>
      </trkpt>
      <trkpt lat="42.344739" lon="2.345452">
        <ele>1390.40</ele>
        <time>2014-03-23T15:36:18.98Z</time>
      </trkpt>
      <trkpt lat="42.344687" lon="2.345424">
        <ele>1390.60</ele>
        <time>2014-03-23T17:20:52.52Z</time>
      </trkpt>
      <trkpt lat="42.344636" lon="2.345391">
        <ele>1391.60</ele>
        <time>2014-03-23T19:06:29.45Z</time>
      </trkpt>
      <trkpt lat="42.344537" lon="2.345342">
        <ele>1392.80</ele>
        <time>2014-03-23T22:23:26Z</time>
      </trkpt>
      <trkpt lat="42.344484" lon="2.345313">
        <ele>1393.20</ele>
        <time>2014-03-24T00:10:14.42Z</time>
      </trkpt>
      <trkpt lat="42.344405" lon="2.345257">
        <ele>1393.80</ele>
        <time>2014-03-24T02:56:51.64Z</time>
      </trkpt>
      <trkpt lat="42.344357" lon="2.345226">
        <ele>1394.40</ele>
        <time>2014-03-24T04:36:13.71Z</time>
      </trkpt>
      <trkpt lat="42.344285" lon="2.345180">
        <ele>1395.00</ele>
        <time>2014-03-24T07:04:59.05Z</time>
      </trkpt>
      <trkpt lat="42.344215" lon="2.345134">
        <ele>1396.00</ele>
        <time>2014-03-24T09:30:22.20Z</time>
      </trkpt>
      <trkpt lat="42.344169" lon="2.345101">
        <ele>1396.40</ele>
        <time>2014-03-24T11:07:38.53Z</time>
      </trkpt>
      <trkpt lat="42.344122" lon="2.345080">
        <ele>1397.00</ele>
        <time>2014-03-24T12:40:06.80Z</time>
      </trkpt>
      <trkpt lat="42.344036" lon="2.345057">
        <ele>1398.20</ele>
        <time>2014-03-24T15:23:53.41Z</time>
      </trkpt>
      <trkpt lat="42.344009" lon="2.345049">
        <ele>1398.40</ele>
        <time>2014-03-24T16:15:31.68Z</time>
      </trkpt>
      <trkpt lat="42.343933" lon="2.345012">
        <ele>1399.20</ele>
        <time>2014-03-24T18:46:25.56Z</time>
      </trkpt>
      <trkpt lat="42.343876" lon="2.344936">
        <ele>1400.20</ele>
        <time>2014-03-24T21:15:56.15Z</time>
      </trkpt>
      <trkpt lat="42.343863" lon="2.344903">
        <ele>1400.60</ele>
        <time>2014-03-24T22:07:34.31Z</time>
      </trkpt>
      <trkpt lat="42.343817" lon="2.344774">
        <ele>1402.00</ele>
        <time>2014-03-25T01:25:20.85Z</time>
      </trkpt>
      <trkpt lat="42.343797" lon="2.344701">
        <ele>1402.80</ele>
        <time>2014-03-25T03:12:51.08Z</time>
      </trkpt>
      <trkpt lat="42.343768" lon="2.344588">
        <ele>1403.20</ele>
        <time>2014-03-25T05:58:01.49Z</time>
      </trkpt>
      <trkpt lat="42.343737" lon="2.344442">
        <ele>1404.20</ele>
        <time>2014-03-25T09:27:46.91Z</time>
      </trkpt>
      <trkpt lat="42.343711" lon="2.344331">
        <ele>1405.60</ele>
        <time>2014-03-25T12:08:34.09Z</time>
      </trkpt>
      <trkpt lat="42.343681" lon="2.344225">
        <ele>1406.60</ele>
        <time>2014-03-25T14:45:18.08Z</time>
      </trkpt>
      <trkpt lat="42.343647" lon="2.344115">
        <ele>1407.60</ele>
        <time>2014-03-25T17:29:56.47Z</time>
      </trkpt>
      <trkpt lat="42.343619" lon="2.344053">
        <ele>1408.00</ele>
        <time>2014-03-25T19:10:16.20Z</time>
      </trkpt>
      <trkpt lat="42.343588" lon="2.343944">
        <ele>1408.60</ele>
        <time>2014-03-25T21:51:32.42Z</time>
      </trkpt>
      <trkpt lat="42.343593" lon="2.343909">
        <ele>1409.00</ele>
        <time>2014-03-25T22:40:45.86Z</time>
      </trkpt>
      <trkpt lat="42.343605" lon="2.343882">
        <ele>1409.40</ele>
        <time>2014-03-25T23:24:16.11Z</time>
      </trkpt>
      <trkpt lat="42.343647" lon="2.343861">
        <ele>1409.80</ele>
        <time>2014-03-26T00:47:55.27Z</time>
      </trkpt>
      <trkpt lat="42.343720" lon="2.343884">
        <ele>1411.20</ele>
        <time>2014-03-26T03:07:57.08Z</time>
      </trkpt>
      <trkpt lat="42.343746" lon="2.343899">
        <ele>1411.40</ele>
        <time>2014-03-26T04:00:45.43Z</time>
      </trkpt>
      <trkpt lat="42.343771" lon="2.343915">
        <ele>1411.80</ele>
        <time>2014-03-26T04:52:25.49Z</time>
      </trkpt>
      <trkpt lat="42.343798" lon="2.343933">
        <ele>1412.20</ele>
        <time>2014-03-26T05:48:39.50Z</time>
      </trkpt>
      <trkpt lat="42.343914" lon="2.343973">
        <ele>1413.40</ele>
        <time>2014-03-26T09:32:18.08Z</time>
      </trkpt>
      <trkpt lat="42.343971" lon="2.343979">
        <ele>1414.00</ele>
        <time>2014-03-26T11:19:06.75Z</time>
      </trkpt>
      <trkpt lat="42.344028" lon="2.343974">
        <ele>1414.60</ele>
        <time>2014-03-26T13:05:49.52Z</time>
      </trkpt>
      <trkpt lat="42.344138" lon="2.343944">
        <ele>1416.00</ele>
        <time>2014-03-26T16:35:27.88Z</time>
      </trkpt>
      <trkpt lat="42.344165" lon="2.343936">
        <ele>1416.20</ele>
        <time>2014-03-26T17:27:06.14Z</time>
      </trkpt>
      <trkpt lat="42.344244" lon="2.343914">
        <ele>1417.40</ele>
        <time>2014-03-26T19:57:47.20Z</time>
      </trkpt>
      <trkpt lat="42.344327" lon="2.343898">
        <ele>1418.00</ele>
        <time>2014-03-26T22:34:24.97Z</time>
      </trkpt>
      <trkpt lat="42.344383" lon="2.343890">
        <ele>1418.40</ele>
        <time>2014-03-27T00:19:37.13Z</time>
      </trkpt>
      <trkpt lat="42.344472" lon="2.343869">
        <ele>1419.40</ele>
        <time>2014-03-27T03:08:24.07Z</time>
      </trkpt>
      <trkpt lat="42.344498" lon="2.343859">
        <ele>1419.60</ele>
        <time>2014-03-27T03:58:53.98Z</time>
      </trkpt>
      <trkpt lat="42.344544" lon="2.343843">
        <ele>1420.80</ele>
        <time>2014-03-27T05:27:37.97Z</time>
      </trkpt>
      <trkpt lat="42.344619" lon="2.343825">
        <ele>1421.60</ele>
        <time>2014-03-27T07:49:56.27Z</time>
      </trkpt>
      <trkpt lat="42.344643" lon="2.343819">
        <ele>1421.80</ele>
        <time>2014-03-27T08:35:32.06Z</time>
      </trkpt>
      <trkpt lat="42.344723" lon="2.343797">
        <ele>1423.00</ele>
        <time>2014-03-27T11:08:02.94Z</time>
      </trkpt>
      <trkpt lat="42.344823" lon="2.343760">
        <ele>1424.00</ele>
        <time>2014-03-27T14:21:43.94Z</time>
      </trkpt>
      <trkpt lat="42.344950" lon="2.343734">
        <ele>1425.20</ele>
        <time>2014-03-27T18:21:41.92Z</time>
      </trkpt>
      <trkpt lat="42.344974" lon="2.343728">
        <ele>1425.60</ele>
        <time>2014-03-27T19:07:17.72Z</time>
      </trkpt>
      <trkpt lat="42.345021" lon="2.343717">
        <ele>1426.20</ele>
        <time>2014-03-27T20:36:24.38Z</time>
      </trkpt>
      <trkpt lat="42.345044" lon="2.343715">
        <ele>1426.40</ele>
        <time>2014-03-27T21:19:27.86Z</time>
      </trkpt>
      <trkpt lat="42.345094" lon="2.343699">
        <ele>1427.00</ele>
        <time>2014-03-27T22:55:27.19Z</time>
      </trkpt>
      <trkpt lat="42.345147" lon="2.343683">
        <ele>1427.80</ele>
        <time>2014-03-28T00:36:54.26Z</time>
      </trkpt>
      <trkpt lat="42.345243" lon="2.343643">
        <ele>1429.00</ele>
        <time>2014-03-28T03:44:34Z</time>
      </trkpt>
      <trkpt lat="42.345382" lon="2.343589">
        <ele>1430.00</ele>
        <time>2014-03-28T08:14:44.64Z</time>
      </trkpt>
      <trkpt lat="42.345438" lon="2.343568">
        <ele>1430.80</ele>
        <time>2014-03-28T10:03:18.55Z</time>
      </trkpt>
      <trkpt lat="42.345491" lon="2.343555">
        <ele>1431.00</ele>
        <time>2014-03-28T11:43:56.37Z</time>
      </trkpt>
      <trkpt lat="42.345571" lon="2.343543">
        <ele>1432.00</ele>
        <time>2014-03-28T14:14:18.83Z</time>
      </trkpt>
      <trkpt lat="42.345644" lon="2.343522">
        <ele>1433.20</ele>
        <time>2014-03-28T16:33:44.60Z</time>
      </trkpt>
      <trkpt lat="42.345765" lon="2.343483">
        <ele>1434.60</ele>
        <time>2014-03-28T20:26:07.52Z</time>
      </trkpt>
      <trkpt lat="42.345839" lon="2.343465">
        <ele>1435.40</ele>
        <time>2014-03-28T22:46:35.46Z</time>
      </trkpt>
      <trkpt lat="42.345863" lon="2.343460">
        <ele>1435.80</ele>
        <time>2014-03-28T23:31:57.42Z</time>
      </trkpt>
      <trkpt lat="42.346003" lon="2.343431">
        <ele>1436.80</ele>
        <time>2014-03-29T03:56:33.43Z</time>
      </trkpt>
      <trkpt lat="42.346083" lon="2.343398">
        <ele>1438.00</ele>
        <time>2014-03-29T06:32:48.45Z</time>
      </trkpt>
      <trkpt lat="42.346189" lon="2.343348">
        <ele>1439.20</ele>
        <time>2014-03-29T10:02:31.79Z</time>
      </trkpt>
      <trkpt lat="42.346290" lon="2.343285">
        <ele>1440.40</ele>
        <time>2014-03-29T13:30:18.47Z</time>
      </trkpt>
      <trkpt lat="42.346381" lon="2.343221">
        <ele>1441.80</ele>
        <time>2014-03-29T16:41:54.77Z</time>
      </trkpt>
      <trkpt lat="42.346401" lon="2.343207">
        <ele>1442.20</ele>
        <time>2014-03-29T17:23:58.91Z</time>
      </trkpt>
      <trkpt lat="42.346450" lon="2.343174">
        <ele>1442.80</ele>
        <time>2014-03-29T19:06:14.32Z</time>
      </trkpt>
      <trkpt lat="42.346522" lon="2.343120">
        <ele>1443.40</ele>
        <time>2014-03-29T21:40:02.08Z</time>
      </trkpt>
      <trkpt lat="42.346565" lon="2.343076">
        <ele>1444.00</ele>
        <time>2014-03-29T23:20:45.32Z</time>
      </trkpt>
      <trkpt lat="42.346618" lon="2.342993">
        <ele>1445.20</ele>
        <time>2014-03-30T01:52:12.60Z</time>
      </trkpt>
      <trkpt lat="42.346690" lon="2.342888">
        <ele>1446.40</ele>
        <time>2014-03-30T05:09:58.87Z</time>
      </trkpt>
      <trkpt lat="42.346762" lon="2.342777">
        <ele>1447.40</ele>
        <time>2014-03-30T08:33:54.20Z</time>
      </trkpt>
      <trkpt lat="42.346779" lon="2.342746">
        <ele>1447.80</ele>
        <time>2014-03-30T09:27:12.20Z</time>
      </trkpt>
      <trkpt lat="42.346858" lon="2.342640">
        <ele>1449.20</ele>
        <time>2014-03-30T12:55:03.66Z</time>
      </trkpt>
      <trkpt lat="42.346876" lon="2.342615">
        <ele>1449.60</ele>
        <time>2014-03-30T13:43:15.17Z</time>
      </trkpt>
      <trkpt lat="42.346908" lon="2.342561">
        <ele>1450.40</ele>
        <time>2014-03-30T15:18:49.34Z</time>
      </trkpt>
      <trkpt lat="42.346928" lon="2.342465">
        <ele>1451.20</ele>
        <time>2014-03-30T17:36:32.52Z</time>
      </trkpt>
      <trkpt lat="42.346917" lon="2.342431">
        <ele>1451.40</ele>
        <time>2014-03-30T18:27:47.36Z</time>
      </trkpt>
      <trkpt lat="42.346830" lon="2.342381">
        <ele>1452.80</ele>
        <time>2014-03-30T21:24:22.82Z</time>
      </trkpt>
      <trkpt lat="42.346805" lon="2.342386">
        <ele>1453.20</ele>
        <time>2014-03-30T22:11:35.62Z</time>
      </trkpt>
      <trkpt lat="42.346754" lon="2.342390">
        <ele>1453.80</ele>
        <time>2014-03-30T23:47:02.01Z</time>
      </trkpt>
      <trkpt lat="42.346664" lon="2.342381">
        <ele>1454.40</ele>
        <time>2014-03-31T02:35:37.99Z</time>
      </trkpt>
      <trkpt lat="42.346607" lon="2.342362">
        <ele>1454.80</ele>
        <time>2014-03-31T04:25:18.39Z</time>
      </trkpt>
      <trkpt lat="42.346529" lon="2.342336">
        <ele>1456.00</ele>
        <time>2014-03-31T06:55:23.15Z</time>
      </trkpt>
      <trkpt lat="42.346479" lon="2.342311">
        <ele>1456.80</ele>
        <time>2014-03-31T08:34:58.30Z</time>
      </trkpt>
      <trkpt lat="42.346453" lon="2.342301">
        <ele>1457.20</ele>
        <time>2014-03-31T09:25:28.21Z</time>
      </trkpt>
      <trkpt lat="42.346379" lon="2.342270">
        <ele>1458.20</ele>
        <time>2014-03-31T11:50:11.65Z</time>
      </trkpt>
      <trkpt lat="42.346306" lon="2.342229">
        <ele>1458.80</ele>
        <time>2014-03-31T14:17:51.51Z</time>
      </trkpt>
      <trkpt lat="42.346282" lon="2.342214">
        <ele>1459.20</ele>
        <time>2014-03-31T15:07:14.92Z</time>
      </trkpt>
      <trkpt lat="42.346190" lon="2.342148">
        <ele>1460.20</ele>
        <time>2014-03-31T18:21:47.49Z</time>
      </trkpt>
      <trkpt lat="42.346167" lon="2.342130">
        <ele>1460.40</ele>
        <time>2014-03-31T19:11:25.87Z</time>
      </trkpt>
      <trkpt lat="42.346088" lon="2.342048">
        <ele>1461.40</ele>
        <time>2014-03-31T22:17:26.97Z</time>
      </trkpt>
      <trkpt lat="42.346046" lon="2.342017">
        <ele>1462.00</ele>
        <time>2014-03-31T23:46:49.88Z</time>
      </trkpt>
      <trkpt lat="42.346004" lon="2.341981">
        <ele>1462.60</ele>
        <time>2014-04-01T01:19:43.04Z</time>
      </trkpt>
      <trkpt lat="42.345944" lon="2.341915">
        <ele>1463.80</ele>
        <time>2014-04-01T03:44:10.95Z</time>
      </trkpt>
      <trkpt lat="42.345902" lon="2.341871">
        <ele>1464.40</ele>
        <time>2014-04-01T05:23:25.20Z</time>
      </trkpt>
      <trkpt lat="42.345863" lon="2.341822">
        <ele>1464.80</ele>
        <time>2014-04-01T07:02:51.04Z</time>
      </trkpt>
      <trkpt lat="42.345771" lon="2.341702">
        <ele>1466.00</ele>
        <time>2014-04-01T11:01:35.46Z</time>
      </trkpt>
      <trkpt lat="42.345749" lon="2.341677">
        <ele>1466.40</ele>
        <time>2014-04-01T11:55:15.92Z</time>
      </trkpt>
      <trkpt lat="42.345689" lon="2.341602">
        <ele>1467.20</ele>
        <time>2014-04-01T14:27:52.51Z</time>
      </trkpt>
      <trkpt lat="42.345589" lon="2.341483">
        <ele>1468.20</ele>
        <time>2014-04-01T18:36:40.64Z</time>
      </trkpt>
      <trkpt lat="42.345568" lon="2.341461">
        <ele>1468.40</ele>
        <time>2014-04-01T19:26:17.76Z</time>
      </trkpt>
      <trkpt lat="42.345510" lon="2.341394">
        <ele>1469.60</ele>
        <time>2014-04-01T21:48:46.48Z</time>
      </trkpt>
      <trkpt lat="42.345470" lon="2.341343">
        <ele>1470.40</ele>
        <time>2014-04-01T23:31:27.40Z</time>
      </trkpt>
      <trkpt lat="42.345452" lon="2.341317">
        <ele>1470.60</ele>
        <time>2014-04-02T00:20:38.85Z</time>
      </trkpt>
      <trkpt lat="42.345386" lon="2.341211">
        <ele>1472.00</ele>
        <time>2014-04-02T03:32:01.69Z</time>
      </trkpt>
      <trkpt lat="42.345338" lon="2.341130">
        <ele>1473.20</ele>
        <time>2014-04-02T05:55:23.08Z</time>
      </trkpt>
      <trkpt lat="42.345323" lon="2.341102">
        <ele>1473.60</ele>
        <time>2014-04-02T06:43:08.11Z</time>
      </trkpt>
      <trkpt lat="42.345293" lon="2.341046">
        <ele>1474.20</ele>
        <time>2014-04-02T08:18:38.18Z</time>
      </trkpt>
      <trkpt lat="42.345228" lon="2.340916">
        <ele>1475.40</ele>
        <time>2014-04-02T11:55:21.53Z</time>
      </trkpt>
      <trkpt lat="42.345211" lon="2.340885">
        <ele>1475.60</ele>
        <time>2014-04-02T12:48:39.58Z</time>
      </trkpt>
      <trkpt lat="42.345182" lon="2.340825">
        <ele>1476.40</ele>
        <time>2014-04-02T14:27:39.04Z</time>
      </trkpt>
      <trkpt lat="42.345138" lon="2.340746">
        <ele>1477.40</ele>
        <time>2014-04-02T16:44:14.39Z</time>
      </trkpt>
      <trkpt lat="42.345124" lon="2.340721">
        <ele>1477.80</ele>
        <time>2014-04-02T17:27:32.98Z</time>
      </trkpt>
      <trkpt lat="42.345091" lon="2.340675">
        <ele>1478.60</ele>
        <time>2014-04-02T18:56:04.05Z</time>
      </trkpt>
      <trkpt lat="42.345027" lon="2.340587">
        <ele>1480.00</ele>
        <time>2014-04-02T21:46:32.48Z</time>
      </trkpt>
      <trkpt lat="42.344972" lon="2.340534">
        <ele>1481.00</ele>
        <time>2014-04-02T23:52:41.51Z</time>
      </trkpt>
      <trkpt lat="42.344898" lon="2.340481">
        <ele>1482.20</ele>
        <time>2014-04-03T02:29:06.98Z</time>
      </trkpt>
      <trkpt lat="42.344840" lon="2.340437">
        <ele>1483.20</ele>
        <time>2014-04-03T04:33:20.67Z</time>
      </trkpt>
      <trkpt lat="42.344795" lon="2.340374">
        <ele>1484.20</ele>
        <time>2014-04-03T06:34:19.29Z</time>
      </trkpt>
      <trkpt lat="42.344779" lon="2.340351">
        <ele>1484.60</ele>
        <time>2014-04-03T07:17:56.10Z</time>
      </trkpt>
      <trkpt lat="42.344736" lon="2.340275">
        <ele>1485.60</ele>
        <time>2014-04-03T09:30:05.74Z</time>
      </trkpt>
      <trkpt lat="42.344725" lon="2.340251">
        <ele>1485.80</ele>
        <time>2014-04-03T10:09:05.41Z</time>
      </trkpt>
      <trkpt lat="42.344687" lon="2.340169">
        <ele>1486.60</ele>
        <time>2014-04-03T12:22:43.99Z</time>
      </trkpt>
      <trkpt lat="42.344651" lon="2.340076">
        <ele>1488.00</ele>
        <time>2014-04-03T14:47:41.76Z</time>
      </trkpt>
      <trkpt lat="42.344644" lon="2.340047">
        <ele>1488.20</ele>
        <time>2014-04-03T15:29:49.27Z</time>
      </trkpt>
      <trkpt lat="42.344616" lon="2.339952">
        <ele>1489.20</ele>
        <time>2014-04-03T17:51:02.69Z</time>
      </trkpt>
      <trkpt lat="42.344589" lon="2.339847">
        <ele>1490.00</ele>
        <time>2014-04-03T20:24:33.33Z</time>
      </trkpt>
      <trkpt lat="42.344575" lon="2.339772">
        <ele>1490.40</ele>
        <time>2014-04-03T22:11:22.15Z</time>
      </trkpt>
      <trkpt lat="42.344523" lon="2.339626">
        <ele>1491.40</ele>
        <time>2014-04-04T01:55:09.36Z</time>
      </trkpt>
      <trkpt lat="42.344506" lon="2.339591">
        <ele>1491.60</ele>
        <time>2014-04-04T02:52:59.20Z</time>
      </trkpt>
      <trkpt lat="42.344400" lon="2.339439">
        <ele>1492.40</ele>
        <time>2014-04-04T07:41:33.02Z</time>
      </trkpt>
      <trkpt lat="42.344379" lon="2.339415">
        <ele>1492.80</ele>
        <time>2014-04-04T08:32:54.40Z</time>
      </trkpt>
      <trkpt lat="42.344300" lon="2.339324">
        <ele>1494.00</ele>
        <time>2014-04-04T11:46:44.54Z</time>
      </trkpt>
      <trkpt lat="42.344264" lon="2.339283">
        <ele>1494.60</ele>
        <time>2014-04-04T13:14:39.28Z</time>
      </trkpt>
      <trkpt lat="42.344246" lon="2.339264">
        <ele>1495.00</ele>
        <time>2014-04-04T13:57:18.38Z</time>
      </trkpt>
      <trkpt lat="42.344151" lon="2.339141">
        <ele>1496.20</ele>
        <time>2014-04-04T18:02:57.69Z</time>
      </trkpt>
      <trkpt lat="42.344092" lon="2.339038">
        <ele>1497.20</ele>
        <time>2014-04-04T21:02:54.01Z</time>
      </trkpt>
      <trkpt lat="42.344068" lon="2.338983">
        <ele>1497.80</ele>
        <time>2014-04-04T22:31:05.66Z</time>
      </trkpt>
      <trkpt lat="42.344048" lon="2.338923">
        <ele>1498.40</ele>
        <time>2014-04-05T00:01:58.82Z</time>
      </trkpt>
      <trkpt lat="42.344017" lon="2.338826">
        <ele>1499.60</ele>
        <time>2014-04-05T02:27:54.38Z</time>
      </trkpt>
      <trkpt lat="42.344010" lon="2.338794">
        <ele>1500.20</ele>
        <time>2014-04-05T03:13:59.27Z</time>
      </trkpt>
      <trkpt lat="42.343994" lon="2.338731">
        <ele>1500.60</ele>
        <time>2014-04-05T04:45:58.37Z</time>
      </trkpt>
      <trkpt lat="42.344010" lon="2.338624">
        <ele>1501.60</ele>
        <time>2014-04-05T07:16:42.96Z</time>
      </trkpt>
      <trkpt lat="42.344030" lon="2.338608">
        <ele>1501.80</ele>
        <time>2014-04-05T08:00:07.42Z</time>
      </trkpt>
      <trkpt lat="42.344076" lon="2.338614">
        <ele>1502.60</ele>
        <time>2014-04-05T09:26:27.66Z</time>
      </trkpt>
      <trkpt lat="42.344098" lon="2.338628">
        <ele>1503.00</ele>
        <time>2014-04-05T10:11:52.88Z</time>
      </trkpt>
      <trkpt lat="42.344151" lon="2.338699">
        <ele>1503.80</ele>
        <time>2014-04-05T12:31:13.35Z</time>
      </trkpt>
      <trkpt lat="42.344171" lon="2.338724">
        <ele>1504.00</ele>
        <time>2014-04-05T13:22:05.58Z</time>
      </trkpt>
      <trkpt lat="42.344189" lon="2.338749">
        <ele>1504.40</ele>
        <time>2014-04-05T14:10:17.15Z</time>
      </trkpt>
      <trkpt lat="42.344231" lon="2.338797">
        <ele>1505.20</ele>
        <time>2014-04-05T15:52:59.91Z</time>
      </trkpt>
      <trkpt lat="42.344307" lon="2.338818">
        <ele>1506.20</ele>
        <time>2014-04-05T18:17:54.91Z</time>
      </trkpt>
      <trkpt lat="42.344409" lon="2.338775">
        <ele>1507.60</ele>
        <time>2014-04-05T21:37:30.66Z</time>
      </trkpt>
      <trkpt lat="42.344467" lon="2.338766">
        <ele>1507.80</ele>
        <time>2014-04-05T23:26:34.73Z</time>
      </trkpt>
      <trkpt lat="42.344582" lon="2.338769">
        <ele>1509.00</ele>
        <time>2014-04-06T03:01:27.94Z</time>
      </trkpt>
      <trkpt lat="42.344726" lon="2.338777">
        <ele>1510.20</ele>
        <time>2014-04-06T07:30:43.08Z</time>
      </trkpt>
      <trkpt lat="42.344873" lon="2.338792">
        <ele>1511.40</ele>
        <time>2014-04-06T12:06:07.69Z</time>
      </trkpt>
      <trkpt lat="42.344992" lon="2.338808">
        <ele>1512.40</ele>
        <time>2014-04-06T15:49:32.58Z</time>
      </trkpt>
      <trkpt lat="42.345080" lon="2.338820">
        <ele>1513.40</ele>
        <time>2014-04-06T18:34:46.83Z</time>
      </trkpt>
      <trkpt lat="42.345110" lon="2.338833">
        <ele>1513.60</ele>
        <time>2014-04-06T19:33:37.91Z</time>
      </trkpt>
      <trkpt lat="42.345234" lon="2.338875">
        <ele>1514.80</ele>
        <time>2014-04-06T23:32:26.50Z</time>
      </trkpt>
      <trkpt lat="42.345263" lon="2.338881">
        <ele>1515.20</ele>
        <time>2014-04-07T00:27:15.01Z</time>
      </trkpt>
      <trkpt lat="42.345322" lon="2.338890">
        <ele>1516.00</ele>
        <time>2014-04-07T02:18:10.46Z</time>
      </trkpt>
      <trkpt lat="42.345455" lon="2.338902">
        <ele>1517.20</ele>
        <time>2014-04-07T06:27:12.07Z</time>
      </trkpt>
      <trkpt lat="42.345491" lon="2.338904">
        <ele>1517.60</ele>
        <time>2014-04-07T07:34:30.86Z</time>
      </trkpt>
      <trkpt lat="42.345598" lon="2.338918">
        <ele>1518.20</ele>
        <time>2014-04-07T10:55:20.87Z</time>
      </trkpt>
      <trkpt lat="42.345696" lon="2.338914">
        <ele>1519.60</ele>
        <time>2014-04-07T13:58:31.08Z</time>
      </trkpt>
      <trkpt lat="42.345729" lon="2.338917">
        <ele>1520.00</ele>
        <time>2014-04-07T15:00:18.52Z</time>
      </trkpt>
      <trkpt lat="42.345871" lon="2.338927">
        <ele>1520.80</ele>
        <time>2014-04-07T19:25:57.42Z</time>
      </trkpt>
      <trkpt lat="42.345937" lon="2.338924">
        <ele>1522.20</ele>
        <time>2014-04-07T21:29:19.80Z</time>
      </trkpt>
      <trkpt lat="42.345968" lon="2.338920">
        <ele>1522.60</ele>
        <time>2014-04-07T22:27:30.48Z</time>
      </trkpt>
      <trkpt lat="42.346028" lon="2.338912">
        <ele>1523.40</ele>
        <time>2014-04-08T00:20:08.70Z</time>
      </trkpt>
      <trkpt lat="42.346117" lon="2.338887">
        <ele>1524.40</ele>
        <time>2014-04-08T03:09:57.79Z</time>
      </trkpt>
      <trkpt lat="42.346204" lon="2.338864">
        <ele>1525.80</ele>
        <time>2014-04-08T05:55:34.39Z</time>
      </trkpt>
      <trkpt lat="42.346287" lon="2.338818">
        <ele>1526.80</ele>
        <time>2014-04-08T08:43:08.45Z</time>
      </trkpt>
      <trkpt lat="42.346363" lon="2.338751">
        <ele>1528.00</ele>
        <time>2014-04-08T11:32:36.38Z</time>
      </trkpt>
      <trkpt lat="42.346444" lon="2.338645">
        <ele>1529.20</ele>
        <time>2014-04-08T15:03:08.06Z</time>
      </trkpt>
      <trkpt lat="42.346473" lon="2.338586">
        <ele>1530.00</ele>
        <time>2014-04-08T16:40:58.28Z</time>
      </trkpt>
      <trkpt lat="42.346485" lon="2.338552">
        <ele>1530.40</ele>
        <time>2014-04-08T17:32:59.77Z</time>
      </trkpt>
      <trkpt lat="42.346557" lon="2.338428">
        <ele>1531.40</ele>
        <time>2014-04-08T21:10:43.93Z</time>
      </trkpt>
      <trkpt lat="42.346573" lon="2.338401">
        <ele>1531.80</ele>
        <time>2014-04-08T21:58:31.03Z</time>
      </trkpt>
      <trkpt lat="42.346605" lon="2.338355">
        <ele>1532.40</ele>
        <time>2014-04-08T23:25:44.57Z</time>
      </trkpt>
      <trkpt lat="42.346660" lon="2.338276">
        <ele>1533.20</ele>
        <time>2014-04-09T01:55:35.96Z</time>
      </trkpt>
      <trkpt lat="42.346676" lon="2.338254">
        <ele>1533.60</ele>
        <time>2014-04-09T02:38:13.03Z</time>
      </trkpt>
      <trkpt lat="42.346746" lon="2.338176">
        <ele>1534.60</ele>
        <time>2014-04-09T05:27:38.01Z</time>
      </trkpt>
      <trkpt lat="42.346762" lon="2.338157">
        <ele>1535.00</ele>
        <time>2014-04-09T06:07:24.31Z</time>
      </trkpt>
      <trkpt lat="42.346812" lon="2.338100">
        <ele>1536.00</ele>
        <time>2014-04-09T08:09:33.18Z</time>
      </trkpt>
      <trkpt lat="42.346876" lon="2.338034">
        <ele>1537.00</ele>
        <time>2014-04-09T10:39:53.38Z</time>
      </trkpt>
      <trkpt lat="42.346919" lon="2.337978">
        <ele>1538.40</ele>
        <time>2014-04-09T12:31:23.44Z</time>
      </trkpt>
      <trkpt lat="42.346964" lon="2.337915">
        <ele>1539.40</ele>
        <time>2014-04-09T14:32:21.92Z</time>
      </trkpt>
      <trkpt lat="42.346990" lon="2.337875">
        <ele>1540.00</ele>
        <time>2014-04-09T15:45:55.04Z</time>
      </trkpt>
      <trkpt lat="42.347013" lon="2.337838">
        <ele>1540.60</ele>
        <time>2014-04-09T16:52:40.42Z</time>
      </trkpt>
      <trkpt lat="42.347043" lon="2.337769">
        <ele>1541.80</ele>
        <time>2014-04-09T18:43:12.59Z</time>
      </trkpt>
      <trkpt lat="42.347072" lon="2.337702">
        <ele>1542.80</ele>
        <time>2014-04-09T20:30:25.12Z</time>
      </trkpt>
      <trkpt lat="42.347082" lon="2.337680">
        <ele>1543.20</ele>
        <time>2014-04-09T21:06:04.85Z</time>
      </trkpt>
      <trkpt lat="42.347109" lon="2.337610">
        <ele>1544.20</ele>
        <time>2014-04-09T22:55:06.34Z</time>
      </trkpt>
      <trkpt lat="42.347143" lon="2.337541">
        <ele>1545.20</ele>
        <time>2014-04-10T00:49:36.73Z</time>
      </trkpt>
      <trkpt lat="42.347155" lon="2.337513">
        <ele>1545.60</ele>
        <time>2014-04-10T01:34:18.21Z</time>
      </trkpt>
      <trkpt lat="42.347207" lon="2.337404">
        <ele>1546.80</ele>
        <time>2014-04-10T04:33:26.27Z</time>
      </trkpt>
      <trkpt lat="42.347219" lon="2.337379">
        <ele>1547.20</ele>
        <time>2014-04-10T05:14:35.89Z</time>
      </trkpt>
      <trkpt lat="42.347273" lon="2.337294">
        <ele>1548.00</ele>
        <time>2014-04-10T07:49:21.80Z</time>
      </trkpt>
      <trkpt lat="42.347285" lon="2.337271">
        <ele>1548.20</ele>
        <time>2014-04-10T08:28:14.21Z</time>
      </trkpt>
      <trkpt lat="42.347327" lon="2.337204">
        <ele>1549.20</ele>
        <time>2014-04-10T10:29:32.59Z</time>
      </trkpt>
      <trkpt lat="42.347394" lon="2.337120">
        <ele>1550.20</ele>
        <time>2014-04-10T13:20:11.39Z</time>
      </trkpt>
      <trkpt lat="42.347467" lon="2.336982">
        <ele>1551.20</ele>
        <time>2014-04-10T17:14:30.77Z</time>
      </trkpt>
      <trkpt lat="42.347488" lon="2.336925">
        <ele>1551.80</ele>
        <time>2014-04-10T18:42:27.17Z</time>
      </trkpt>
      <trkpt lat="42.347525" lon="2.336830">
        <ele>1552.60</ele>
        <time>2014-04-10T21:10:43.44Z</time>
      </trkpt>
      <trkpt lat="42.347586" lon="2.336673">
        <ele>1553.60</ele>
        <time>2014-04-11T01:15:38.01Z</time>
      </trkpt>
      <trkpt lat="42.347674" lon="2.336462">
        <ele>1555.00</ele>
        <time>2014-04-11T06:50:09.58Z</time>
      </trkpt>
      <trkpt lat="42.347725" lon="2.336339">
        <ele>1556.20</ele>
        <time>2014-04-11T10:04:53.65Z</time>
      </trkpt>
      <trkpt lat="42.347774" lon="2.336224">
        <ele>1557.40</ele>
        <time>2014-04-11T13:08:10.76Z</time>
      </trkpt>
      <trkpt lat="42.347786" lon="2.336199">
        <ele>1557.60</ele>
        <time>2014-04-11T13:49:20.37Z</time>
      </trkpt>
      <trkpt lat="42.347828" lon="2.336101">
        <ele>1558.60</ele>
        <time>2014-04-11T16:25:45.48Z</time>
      </trkpt>
      <trkpt lat="42.347861" lon="2.336014">
        <ele>1559.60</ele>
        <time>2014-04-11T18:40:46.83Z</time>
      </trkpt>
      <trkpt lat="42.347909" lon="2.335895">
        <ele>1560.80</ele>
        <time>2014-04-11T21:47:58.09Z</time>
      </trkpt>
      <trkpt lat="42.347963" lon="2.335776">
        <ele>1561.80</ele>
        <time>2014-04-12T01:00:46.63Z</time>
      </trkpt>
      <trkpt lat="42.348044" lon="2.335621">
        <ele>1563.00</ele>
        <time>2014-04-12T05:22:53.35Z</time>
      </trkpt>
      <trkpt lat="42.348074" lon="2.335556">
        <ele>1563.40</ele>
        <time>2014-04-12T07:08:42.05Z</time>
      </trkpt>
      <trkpt lat="42.348106" lon="2.335486">
        <ele>1564.20</ele>
        <time>2014-04-12T09:02:20.89Z</time>
      </trkpt>
      <trkpt lat="42.348165" lon="2.335354">
        <ele>1565.20</ele>
        <time>2014-04-12T12:35:20.74Z</time>
      </trkpt>
      <trkpt lat="42.348194" lon="2.335293">
        <ele>1566.00</ele>
        <time>2014-04-12T14:15:29.52Z</time>
      </trkpt>
      <trkpt lat="42.348219" lon="2.335220">
        <ele>1566.40</ele>
        <time>2014-04-12T16:06:34.90Z</time>
      </trkpt>
      <trkpt lat="42.348258" lon="2.335102">
        <ele>1566.80</ele>
        <time>2014-04-12T19:05:03.56Z</time>
      </trkpt>
      <trkpt lat="42.348292" lon="2.335002">
        <ele>1567.60</ele>
        <time>2014-04-12T21:37:02.63Z</time>
      </trkpt>
      <trkpt lat="42.348330" lon="2.334919">
        <ele>1568.80</ele>
        <time>2014-04-12T23:51:51.18Z</time>
      </trkpt>
      <trkpt lat="42.348342" lon="2.334891">
        <ele>1569.00</ele>
        <time>2014-04-13T00:36:32.63Z</time>
      </trkpt>
      <trkpt lat="42.348366" lon="2.334834">
        <ele>1569.80</ele>
        <time>2014-04-13T02:07:07.34Z</time>
      </trkpt>
      <trkpt lat="42.348398" lon="2.334740">
        <ele>1570.80</ele>
        <time>2014-04-13T04:30:01.13Z</time>
      </trkpt>
      <trkpt lat="42.348424" lon="2.334655">
        <ele>1571.80</ele>
        <time>2014-04-13T06:37:02.19Z</time>
      </trkpt>
      <trkpt lat="42.348435" lon="2.334624">
        <ele>1572.00</ele>
        <time>2014-04-13T07:24:31.04Z</time>
      </trkpt>
      <trkpt lat="42.348467" lon="2.334533">
        <ele>1573.20</ele>
        <time>2014-04-13T09:43:39.73Z</time>
      </trkpt>
      <trkpt lat="42.348507" lon="2.334439">
        <ele>1574.20</ele>
        <time>2014-04-13T12:13:25.68Z</time>
      </trkpt>
      <trkpt lat="42.348521" lon="2.334408">
        <ele>1574.40</ele>
        <time>2014-04-13T13:03:35.37Z</time>
      </trkpt>
      <trkpt lat="42.348595" lon="2.334249">
        <ele>1575.60</ele>
        <time>2014-04-13T17:23:01.81Z</time>
      </trkpt>
      <trkpt lat="42.348616" lon="2.334225">
        <ele>1575.80</ele>
        <time>2014-04-13T18:14:23.11Z</time>
      </trkpt>
      <trkpt lat="42.348677" lon="2.334157">
        <ele>1576.60</ele>
        <time>2014-04-13T20:42:02.56Z</time>
      </trkpt>
      <trkpt lat="42.348717" lon="2.334114">
        <ele>1577.00</ele>
        <time>2014-04-13T22:17:29.16Z</time>
      </trkpt>
      <trkpt lat="42.348755" lon="2.334064">
        <ele>1577.60</ele>
        <time>2014-04-13T23:56:30.69Z</time>
      </trkpt>
      <trkpt lat="42.348834" lon="2.333975">
        <ele>1579.00</ele>
        <time>2014-04-14T03:08:33.77Z</time>
      </trkpt>
      <trkpt lat="42.348895" lon="2.333905">
        <ele>1580.20</ele>
        <time>2014-04-14T05:37:59.48Z</time>
      </trkpt>
      <trkpt lat="42.348964" lon="2.333789">
        <ele>1581.00</ele>
        <time>2014-04-14T09:03:35.28Z</time>
      </trkpt>
      <trkpt lat="42.348982" lon="2.333759">
        <ele>1581.40</ele>
        <time>2014-04-14T09:56:56.50Z</time>
      </trkpt>
      <trkpt lat="42.349085" lon="2.333603">
        <ele>1582.20</ele>
        <time>2014-04-14T14:45:46.31Z</time>
      </trkpt>
      <trkpt lat="42.349103" lon="2.333580">
        <ele>1582.60</ele>
        <time>2014-04-14T15:32:01.50Z</time>
      </trkpt>
      <trkpt lat="42.349147" lon="2.333495">
        <ele>1583.80</ele>
        <time>2014-04-14T17:55:18.68Z</time>
      </trkpt>
      <trkpt lat="42.349181" lon="2.333443">
        <ele>1584.40</ele>
        <time>2014-04-14T19:31:10.45Z</time>
      </trkpt>
      <trkpt lat="42.349238" lon="2.333381">
        <ele>1585.00</ele>
        <time>2014-04-14T21:47:48.33Z</time>
      </trkpt>
      <trkpt lat="42.349291" lon="2.333324">
        <ele>1586.20</ele>
        <time>2014-04-14T23:54:17.35Z</time>
      </trkpt>
      <trkpt lat="42.349310" lon="2.333307">
        <ele>1586.40</ele>
        <time>2014-04-15T00:36:50.66Z</time>
      </trkpt>
      <trkpt lat="42.349367" lon="2.333256">
        <ele>1587.40</ele>
        <time>2014-04-15T02:44:30.60Z</time>
      </trkpt>
      <trkpt lat="42.349422" lon="2.333207">
        <ele>1588.40</ele>
        <time>2014-04-15T04:47:32.15Z</time>
      </trkpt>
      <trkpt lat="42.349459" lon="2.333169">
        <ele>1589.20</ele>
        <time>2014-04-15T06:14:19.04Z</time>
      </trkpt>
      <trkpt lat="42.349477" lon="2.333151">
        <ele>1589.60</ele>
        <time>2014-04-15T06:56:07.96Z</time>
      </trkpt>
      <trkpt lat="42.349546" lon="2.333074">
        <ele>1590.60</ele>
        <time>2014-04-15T09:43:13.57Z</time>
      </trkpt>
      <trkpt lat="42.349562" lon="2.333055">
        <ele>1591.00</ele>
        <time>2014-04-15T10:22:59.82Z</time>
      </trkpt>
      <trkpt lat="42.349591" lon="2.333014">
        <ele>1591.80</ele>
        <time>2014-04-15T11:41:21.29Z</time>
      </trkpt>
      <trkpt lat="42.349643" lon="2.332921">
        <ele>1593.00</ele>
        <time>2014-04-15T14:22:22.22Z</time>
      </trkpt>
      <trkpt lat="42.349674" lon="2.332847">
        <ele>1594.20</ele>
        <time>2014-04-15T16:19:48.95Z</time>
      </trkpt>
      <trkpt lat="42.349706" lon="2.332777">
        <ele>1595.20</ele>
        <time>2014-04-15T18:13:27.67Z</time>
      </trkpt>
      <trkpt lat="42.349728" lon="2.332728">
        <ele>1595.80</ele>
        <time>2014-04-15T19:32:37.34Z</time>
      </trkpt>
      <trkpt lat="42.349750" lon="2.332682">
        <ele>1596.60</ele>
        <time>2014-04-15T20:48:16.44Z</time>
      </trkpt>
      <trkpt lat="42.349802" lon="2.332601">
        <ele>1597.60</ele>
        <time>2014-04-15T23:16:24.82Z</time>
      </trkpt>
      <trkpt lat="42.349815" lon="2.332583">
        <ele>1598.00</ele>
        <time>2014-04-15T23:51:09.79Z</time>
      </trkpt>
      <trkpt lat="42.349857" lon="2.332527">
        <ele>1598.80</ele>
        <time>2014-04-16T01:41:19.39Z</time>
      </trkpt>
      <trkpt lat="42.349914" lon="2.332455">
        <ele>1600.20</ele>
        <time>2014-04-16T04:07:00.16Z</time>
      </trkpt>
      <trkpt lat="42.349925" lon="2.332433">
        <ele>1600.40</ele>
        <time>2014-04-16T04:43:40.61Z</time>
      </trkpt>
      <trkpt lat="42.349970" lon="2.332369">
        <ele>1601.20</ele>
        <time>2014-04-16T06:45:38.71Z</time>
      </trkpt>
      <trkpt lat="42.350001" lon="2.332325">
        <ele>1601.80</ele>
        <time>2014-04-16T08:09:34.73Z</time>
      </trkpt>
      <trkpt lat="42.350017" lon="2.332301">
        <ele>1602.00</ele>
        <time>2014-04-16T08:54:12.36Z</time>
      </trkpt>
      <trkpt lat="42.350032" lon="2.332277">
        <ele>1602.20</ele>
        <time>2014-04-16T09:37:36.23Z</time>
      </trkpt>
      <trkpt lat="42.350087" lon="2.332144">
        <ele>1603.40</ele>
        <time>2014-04-16T13:08:01.84Z</time>
      </trkpt>
      <trkpt lat="42.350112" lon="2.332093">
        <ele>1603.60</ele>
        <time>2014-04-16T14:32:31.69Z</time>
      </trkpt>
      <trkpt lat="42.350153" lon="2.332015">
        <ele>1604.40</ele>
        <time>2014-04-16T16:44:41.09Z</time>
      </trkpt>
      <trkpt lat="42.350213" lon="2.331928">
        <ele>1605.40</ele>
        <time>2014-04-16T19:28:59.02Z</time>
      </trkpt>
      <trkpt lat="42.350225" lon="2.331906">
        <ele>1605.80</ele>
        <time>2014-04-16T20:06:44.19Z</time>
      </trkpt>
      <trkpt lat="42.350257" lon="2.331844">
        <ele>1606.80</ele>
        <time>2014-04-16T21:51:08.95Z</time>
      </trkpt>
      <trkpt lat="42.350292" lon="2.331780">
        <ele>1607.80</ele>
        <time>2014-04-16T23:41:04.57Z</time>
      </trkpt>
      <trkpt lat="42.350314" lon="2.331737">
        <ele>1608.40</ele>
        <time>2014-04-17T00:53:17.10Z</time>
      </trkpt>
      <trkpt lat="42.350334" lon="2.331692">
        <ele>1609.00</ele>
        <time>2014-04-17T02:05:47.17Z</time>
      </trkpt>
      <trkpt lat="42.350382" lon="2.331577">
        <ele>1610.20</ele>
        <time>2014-04-17T05:08:08.38Z</time>
      </trkpt>
      <trkpt lat="42.350402" lon="2.331504">
        <ele>1611.20</ele>
        <time>2014-04-17T06:55:38.01Z</time>
      </trkpt>
      <trkpt lat="42.350412" lon="2.331483">
        <ele>1611.40</ele>
        <time>2014-04-17T07:30:07.55Z</time>
      </trkpt>
      <trkpt lat="42.350458" lon="2.331370">
        <ele>1612.60</ele>
        <time>2014-04-17T10:28:14.85Z</time>
      </trkpt>
      <trkpt lat="42.350485" lon="2.331299">
        <ele>1613.20</ele>
        <time>2014-04-17T12:18:29.61Z</time>
      </trkpt>
      <trkpt lat="42.350499" lon="2.331274">
        <ele>1613.40</ele>
        <time>2014-04-17T13:01:48.06Z</time>
      </trkpt>
      <trkpt lat="42.350512" lon="2.331248">
        <ele>1613.60</ele>
        <time>2014-04-17T13:45:08.58Z</time>
      </trkpt>
      <trkpt lat="42.350595" lon="2.331146">
        <ele>1614.60</ele>
        <time>2014-04-17T17:14:36.82Z</time>
      </trkpt>
      <trkpt lat="42.350732" lon="2.331092">
        <ele>1615.80</ele>
        <time>2014-04-17T21:41:11.99Z</time>
      </trkpt>
      <trkpt lat="42.350757" lon="2.331080">
        <ele>1615.80</ele>
        <time>2014-04-17T22:30:45.44Z</time>
      </trkpt>
      <trkpt lat="42.350907" lon="2.331015">
        <ele>1616.40</ele>
        <time>2014-04-18T03:25:00.71Z</time>
      </trkpt>
      <trkpt lat="42.350993" lon="2.330952">
        <ele>1616.80</ele>
        <time>2014-04-18T06:27:42.88Z</time>
      </trkpt>
      <trkpt lat="42.351028" lon="2.330909">
        <ele>1617.40</ele>
        <time>2014-04-18T07:56:02.05Z</time>
      </trkpt>
      <trkpt lat="42.351042" lon="2.330887">
        <ele>1618.00</ele>
        <time>2014-04-18T08:36:07.10Z</time>
      </trkpt>
      <trkpt lat="42.351098" lon="2.330803">
        <ele>1619.00</ele>
        <time>2014-04-18T11:12:18.69Z</time>
      </trkpt>
      <trkpt lat="42.351145" lon="2.330760">
        <ele>1620.00</ele>
        <time>2014-04-18T12:58:18.35Z</time>
      </trkpt>
      <trkpt lat="42.351159" lon="2.330741">
        <ele>1620.40</ele>
        <time>2014-04-18T13:35:20.99Z</time>
      </trkpt>
      <trkpt lat="42.351216" lon="2.330674">
        <ele>1621.60</ele>
        <time>2014-04-18T15:56:24.45Z</time>
      </trkpt>
      <trkpt lat="42.351228" lon="2.330656">
        <ele>1622.00</ele>
        <time>2014-04-18T16:29:52.64Z</time>
      </trkpt>
      <trkpt lat="42.351267" lon="2.330604">
        <ele>1622.80</ele>
        <time>2014-04-18T18:12:10.06Z</time>
      </trkpt>
      <trkpt lat="42.351309" lon="2.330555">
        <ele>1623.80</ele>
        <time>2014-04-18T19:55:46.31Z</time>
      </trkpt>
      <trkpt lat="42.351323" lon="2.330538">
        <ele>1624.00</ele>
        <time>2014-04-18T20:30:54.88Z</time>
      </trkpt>
      <trkpt lat="42.351347" lon="2.330509">
        <ele>1624.80</ele>
        <time>2014-04-18T21:31:01.66Z</time>
      </trkpt>
      <trkpt lat="42.351373" lon="2.330480">
        <ele>1626.00</ele>
        <time>2014-04-18T22:33:58.62Z</time>
      </trkpt>
      <trkpt lat="42.351413" lon="2.330430">
        <ele>1626.80</ele>
        <time>2014-04-19T00:15:42.75Z</time>
      </trkpt>
      <trkpt lat="42.351425" lon="2.330412">
        <ele>1627.20</ele>
        <time>2014-04-19T00:49:10.94Z</time>
      </trkpt>
      <trkpt lat="42.351469" lon="2.330330">
        <ele>1628.60</ele>
        <time>2014-04-19T03:09:05.57Z</time>
      </trkpt>
      <trkpt lat="42.351506" lon="2.330269">
        <ele>1629.20</ele>
        <time>2014-04-19T04:58:02.92Z</time>
      </trkpt>
      <trkpt lat="42.351532" lon="2.330234">
        <ele>1629.60</ele>
        <time>2014-04-19T06:06:33.96Z</time>
      </trkpt>
      <trkpt lat="42.351580" lon="2.330151">
        <ele>1630.80</ele>
        <time>2014-04-19T08:32:04.69Z</time>
      </trkpt>
      <trkpt lat="42.351593" lon="2.330135">
        <ele>1631.00</ele>
        <time>2014-04-19T09:04:54.54Z</time>
      </trkpt>
      <trkpt lat="42.351628" lon="2.330081">
        <ele>1632.00</ele>
        <time>2014-04-19T10:44:04.60Z</time>
      </trkpt>
      <trkpt lat="42.351669" lon="2.330036">
        <ele>1633.20</ele>
        <time>2014-04-19T12:22:42.24Z</time>
      </trkpt>
      <trkpt lat="42.351680" lon="2.330019">
        <ele>1633.60</ele>
        <time>2014-04-19T12:53:54.04Z</time>
      </trkpt>
      <trkpt lat="42.351718" lon="2.329980">
        <ele>1634.60</ele>
        <time>2014-04-19T14:23:00.23Z</time>
      </trkpt>
      <trkpt lat="42.351757" lon="2.329929">
        <ele>1635.40</ele>
        <time>2014-04-19T16:04:19.77Z</time>
      </trkpt>
      <trkpt lat="42.351770" lon="2.329914">
        <ele>1635.60</ele>
        <time>2014-04-19T16:36:14.86Z</time>
      </trkpt>
      <trkpt lat="42.351780" lon="2.329896">
        <ele>1636.00</ele>
        <time>2014-04-19T17:07:20.32Z</time>
      </trkpt>
      <trkpt lat="42.351819" lon="2.329842">
        <ele>1636.80</ele>
        <time>2014-04-19T18:51:35.11Z</time>
      </trkpt>
      <trkpt lat="42.351870" lon="2.329774">
        <ele>1638.00</ele>
        <time>2014-04-19T21:05:20.92Z</time>
      </trkpt>
      <trkpt lat="42.351915" lon="2.329698">
        <ele>1639.00</ele>
        <time>2014-04-19T23:19:48.25Z</time>
      </trkpt>
      <trkpt lat="42.351942" lon="2.329624">
        <ele>1640.40</ele>
        <time>2014-04-20T01:13:44.81Z</time>
      </trkpt>
      <trkpt lat="42.351961" lon="2.329599">
        <ele>1641.00</ele>
        <time>2014-04-20T02:03:15.50Z</time>
      </trkpt>
      <trkpt lat="42.351990" lon="2.329577">
        <ele>1641.80</ele>
        <time>2014-04-20T03:05:22.25Z</time>
      </trkpt>
      <trkpt lat="42.352016" lon="2.329545">
        <ele>1642.20</ele>
        <time>2014-04-20T04:11:01.93Z</time>
      </trkpt>
      <trkpt lat="42.352042" lon="2.329509">
        <ele>1642.80</ele>
        <time>2014-04-20T05:20:31.79Z</time>
      </trkpt>
      <trkpt lat="42.352056" lon="2.329495">
        <ele>1643.00</ele>
        <time>2014-04-20T05:53:03.14Z</time>
      </trkpt>
      <trkpt lat="42.352095" lon="2.329452">
        <ele>1644.20</ele>
        <time>2014-04-20T07:27:02.29Z</time>
      </trkpt>
      <trkpt lat="42.352134" lon="2.329416">
        <ele>1645.40</ele>
        <time>2014-04-20T08:55:14.28Z</time>
      </trkpt>
      <trkpt lat="42.352145" lon="2.329402">
        <ele>1645.80</ele>
        <time>2014-04-20T09:23:27.03Z</time>
      </trkpt>
      <trkpt lat="42.352168" lon="2.329373">
        <ele>1646.40</ele>
        <time>2014-04-20T10:22:10.97Z</time>
      </trkpt>
      <trkpt lat="42.352238" lon="2.329328">
        <ele>1647.20</ele>
        <time>2014-04-20T12:46:58.04Z</time>
      </trkpt>
      <trkpt lat="42.352269" lon="2.329332">
        <ele>1647.80</ele>
        <time>2014-04-20T13:45:08.72Z</time>
      </trkpt>
      <trkpt lat="42.352280" lon="2.329326">
        <ele>1648.20</ele>
        <time>2014-04-20T14:07:18.16Z</time>
      </trkpt>
      <trkpt lat="42.352305" lon="2.329307">
        <ele>1649.00</ele>
        <time>2014-04-20T15:00:52.27Z</time>
      </trkpt>
      <trkpt lat="42.352346" lon="2.329277">
        <ele>1650.20</ele>
        <time>2014-04-20T16:27:57.01Z</time>
      </trkpt>
      <trkpt lat="42.352385" lon="2.329242">
        <ele>1651.40</ele>
        <time>2014-04-20T17:55:22.76Z</time>
      </trkpt>
      <trkpt lat="42.352410" lon="2.329218">
        <ele>1652.20</ele>
        <time>2014-04-20T18:52:38.73Z</time>
      </trkpt>
      <trkpt lat="42.352422" lon="2.329204">
        <ele>1652.60</ele>
        <time>2014-04-20T19:22:14.78Z</time>
      </trkpt>
      <trkpt lat="42.352459" lon="2.329179">
        <ele>1653.80</ele>
        <time>2014-04-20T20:39:30.57Z</time>
      </trkpt>
      <trkpt lat="42.352493" lon="2.329151">
        <ele>1655.00</ele>
        <time>2014-04-20T21:53:52.10Z</time>
      </trkpt>
      <trkpt lat="42.352577" lon="2.329114">
        <ele>1656.00</ele>
        <time>2014-04-21T00:38:54.31Z</time>
      </trkpt>
      <trkpt lat="42.352615" lon="2.329071">
        <ele>1657.40</ele>
        <time>2014-04-21T02:11:26.99Z</time>
      </trkpt>
      <trkpt lat="42.352642" lon="2.329033">
        <ele>1658.40</ele>
        <time>2014-04-21T03:24:13.81Z</time>
      </trkpt>
      <trkpt lat="42.352651" lon="2.329017">
        <ele>1658.80</ele>
        <time>2014-04-21T03:51:59.49Z</time>
      </trkpt>
      <trkpt lat="42.352686" lon="2.328916">
        <ele>1659.80</ele>
        <time>2014-04-21T06:26:00.39Z</time>
      </trkpt>
      <trkpt lat="42.352695" lon="2.328894">
        <ele>1660.00</ele>
        <time>2014-04-21T07:00:43.45Z</time>
      </trkpt>
      <trkpt lat="42.352757" lon="2.328764">
        <ele>1660.60</ele>
        <time>2014-04-21T10:34:20.32Z</time>
      </trkpt>
      <trkpt lat="42.352774" lon="2.328727">
        <ele>1660.80</ele>
        <time>2014-04-21T11:34:29.44Z</time>
      </trkpt>
      <trkpt lat="42.352810" lon="2.328644">
        <ele>1661.20</ele>
        <time>2014-04-21T13:47:21.79Z</time>
      </trkpt>
      <trkpt lat="42.352867" lon="2.328512">
        <ele>1661.80</ele>
        <time>2014-04-21T17:18:26.36Z</time>
      </trkpt>
      <trkpt lat="42.352887" lon="2.328471">
        <ele>1662.20</ele>
        <time>2014-04-21T18:26:15.94Z</time>
      </trkpt>
      <trkpt lat="42.352928" lon="2.328393">
        <ele>1662.80</ele>
        <time>2014-04-21T20:38:25.10Z</time>
      </trkpt>
      <trkpt lat="42.352975" lon="2.328299">
        <ele>1664.00</ele>
        <time>2014-04-21T23:15:06.73Z</time>
      </trkpt>
      <trkpt lat="42.352981" lon="2.328279">
        <ele>1664.20</ele>
        <time>2014-04-21T23:44:54.81Z</time>
      </trkpt>
      <trkpt lat="42.353023" lon="2.328202">
        <ele>1665.40</ele>
        <time>2014-04-22T01:57:02.66Z</time>
      </trkpt>
      <trkpt lat="42.353057" lon="2.328142">
        <ele>1666.60</ele>
        <time>2014-04-22T03:41:25.97Z</time>
      </trkpt>
      <trkpt lat="42.353096" lon="2.328070">
        <ele>1668.00</ele>
        <time>2014-04-22T05:44:40.90Z</time>
      </trkpt>
      <trkpt lat="42.353104" lon="2.328053">
        <ele>1668.00</ele>
        <time>2014-04-22T06:12:30.44Z</time>
      </trkpt>
      <trkpt lat="42.353187" lon="2.327907">
        <ele>1668.80</ele>
        <time>2014-04-22T10:26:49.36Z</time>
      </trkpt>
      <trkpt lat="42.353200" lon="2.327886">
        <ele>1669.00</ele>
        <time>2014-04-22T11:04:38.65Z</time>
      </trkpt>
      <trkpt lat="42.353273" lon="2.327773">
        <ele>1670.00</ele>
        <time>2014-04-22T14:31:51.76Z</time>
      </trkpt>
      <trkpt lat="42.353292" lon="2.327734">
        <ele>1670.60</ele>
        <time>2014-04-22T15:36:21.29Z</time>
      </trkpt>
      <trkpt lat="42.353313" lon="2.327699">
        <ele>1671.40</ele>
        <time>2014-04-22T16:38:35.90Z</time>
      </trkpt>
      <trkpt lat="42.353349" lon="2.327650">
        <ele>1672.40</ele>
        <time>2014-04-22T18:13:59.56Z</time>
      </trkpt>
      <trkpt lat="42.353372" lon="2.327618">
        <ele>1673.20</ele>
        <time>2014-04-22T19:15:37.36Z</time>
      </trkpt>
      <trkpt lat="42.353380" lon="2.327605">
        <ele>1673.40</ele>
        <time>2014-04-22T19:38:58.74Z</time>
      </trkpt>
      <trkpt lat="42.353414" lon="2.327542">
        <ele>1674.60</ele>
        <time>2014-04-22T21:26:41.01Z</time>
      </trkpt>
      <trkpt lat="42.353416" lon="2.327521">
        <ele>1675.00</ele>
        <time>2014-04-22T21:55:54.99Z</time>
      </trkpt>
      <trkpt lat="42.353425" lon="2.327483">
        <ele>1675.80</ele>
        <time>2014-04-22T22:51:00.54Z</time>
      </trkpt>
      <trkpt lat="42.353465" lon="2.327424">
        <ele>1677.20</ele>
        <time>2014-04-23T00:41:33.12Z</time>
      </trkpt>
      <trkpt lat="42.353471" lon="2.327405">
        <ele>1677.40</ele>
        <time>2014-04-23T01:10:04.71Z</time>
      </trkpt>
      <trkpt lat="42.353478" lon="2.327347">
        <ele>1678.40</ele>
        <time>2014-04-23T02:31:12.96Z</time>
      </trkpt>
      <trkpt lat="42.353502" lon="2.327290">
        <ele>1680.00</ele>
        <time>2014-04-23T04:01:47.33Z</time>
      </trkpt>
      <trkpt lat="42.353558" lon="2.327242">
        <ele>1681.00</ele>
        <time>2014-04-23T06:05:37.96Z</time>
      </trkpt>
      <trkpt lat="42.353576" lon="2.327209">
        <ele>1681.60</ele>
        <time>2014-04-23T07:02:15.59Z</time>
      </trkpt>
      <trkpt lat="42.353596" lon="2.327176">
        <ele>1682.20</ele>
        <time>2014-04-23T08:01:10.96Z</time>
      </trkpt>
      <trkpt lat="42.353630" lon="2.327116">
        <ele>1683.20</ele>
        <time>2014-04-23T09:45:34.24Z</time>
      </trkpt>
      <trkpt lat="42.353640" lon="2.327103">
        <ele>1683.60</ele>
        <time>2014-04-23T10:11:28.65Z</time>
      </trkpt>
      <trkpt lat="42.353658" lon="2.327075">
        <ele>1684.20</ele>
        <time>2014-04-23T11:02:42.88Z</time>
      </trkpt>
      <trkpt lat="42.353699" lon="2.327019">
        <ele>1685.40</ele>
        <time>2014-04-23T12:51:32.91Z</time>
      </trkpt>
      <trkpt lat="42.353728" lon="2.326981">
        <ele>1686.40</ele>
        <time>2014-04-23T14:06:57.96Z</time>
      </trkpt>
      <trkpt lat="42.353739" lon="2.326966">
        <ele>1686.80</ele>
        <time>2014-04-23T14:36:08.48Z</time>
      </trkpt>
      <trkpt lat="42.353778" lon="2.326911">
        <ele>1688.00</ele>
        <time>2014-04-23T16:21:22.68Z</time>
      </trkpt>
      <trkpt lat="42.353797" lon="2.326881">
        <ele>1688.40</ele>
        <time>2014-04-23T17:15:55.57Z</time>
      </trkpt>
      <trkpt lat="42.353816" lon="2.326846">
        <ele>1689.00</ele>
        <time>2014-04-23T18:15:53.06Z</time>
      </trkpt>
      <trkpt lat="42.353862" lon="2.326767">
        <ele>1690.00</ele>
        <time>2014-04-23T20:34:44.54Z</time>
      </trkpt>
      <trkpt lat="42.353869" lon="2.326750">
        <ele>1690.40</ele>
        <time>2014-04-23T21:01:36.62Z</time>
      </trkpt>
      <trkpt lat="42.353898" lon="2.326707">
        <ele>1691.20</ele>
        <time>2014-04-23T22:21:58.98Z</time>
      </trkpt>
      <trkpt lat="42.353926" lon="2.326646">
        <ele>1692.20</ele>
        <time>2014-04-24T00:01:07.46Z</time>
      </trkpt>
      <trkpt lat="42.353933" lon="2.326635">
        <ele>1692.60</ele>
        <time>2014-04-24T00:21:09.96Z</time>
      </trkpt>
      <trkpt lat="42.353956" lon="2.326597">
        <ele>1693.60</ele>
        <time>2014-04-24T01:28:58.82Z</time>
      </trkpt>
      <trkpt lat="42.353968" lon="2.326566">
        <ele>1694.20</ele>
        <time>2014-04-24T02:17:17.74Z</time>
      </trkpt>
      <trkpt lat="42.353979" lon="2.326534">
        <ele>1694.80</ele>
        <time>2014-04-24T03:06:01.27Z</time>
      </trkpt>
      <trkpt lat="42.354014" lon="2.326477">
        <ele>1696.00</ele>
        <time>2014-04-24T04:48:20.23Z</time>
      </trkpt>
      <trkpt lat="42.354037" lon="2.326437">
        <ele>1696.80</ele>
        <time>2014-04-24T05:58:18.57Z</time>
      </trkpt>
      <trkpt lat="42.354047" lon="2.326426">
        <ele>1697.20</ele>
        <time>2014-04-24T06:22:23.15Z</time>
      </trkpt>
      <trkpt lat="42.354083" lon="2.326377">
        <ele>1698.60</ele>
        <time>2014-04-24T07:57:46.78Z</time>
      </trkpt>
      <trkpt lat="42.354112" lon="2.326353">
        <ele>1699.40</ele>
        <time>2014-04-24T09:01:17.25Z</time>
      </trkpt>
      <trkpt lat="42.354126" lon="2.326343">
        <ele>1699.60</ele>
        <time>2014-04-24T09:30:51.78Z</time>
      </trkpt>
      <trkpt lat="42.354142" lon="2.326323">
        <ele>1700.20</ele>
        <time>2014-04-24T10:11:33.38Z</time>
      </trkpt>
      <trkpt lat="42.354161" lon="2.326311">
        <ele>1700.80</ele>
        <time>2014-04-24T10:50:43.73Z</time>
      </trkpt>
      <trkpt lat="42.354190" lon="2.326293">
        <ele>1702.00</ele>
        <time>2014-04-24T11:50:20.11Z</time>
      </trkpt>
      <trkpt lat="42.354200" lon="2.326292">
        <ele>1702.20</ele>
        <time>2014-04-24T12:09:04.10Z</time>
      </trkpt>
      <trkpt lat="42.354236" lon="2.326289">
        <ele>1703.00</ele>
        <time>2014-04-24T13:16:27.13Z</time>
      </trkpt>
      <trkpt lat="42.354290" lon="2.326283">
        <ele>1704.20</ele>
        <time>2014-04-24T14:57:40.58Z</time>
      </trkpt>
      <trkpt lat="42.354328" lon="2.326291">
        <ele>1705.40</ele>
        <time>2014-04-24T16:09:31.39Z</time>
      </trkpt>
      <trkpt lat="42.354372" lon="2.326279">
        <ele>1706.40</ele>
        <time>2014-04-24T17:33:22.70Z</time>
      </trkpt>
      <trkpt lat="42.354415" lon="2.326286">
        <ele>1707.80</ele>
        <time>2014-04-24T18:54:17.50Z</time>
      </trkpt>
      <trkpt lat="42.354469" lon="2.326249">
        <ele>1709.20</ele>
        <time>2014-04-24T20:47:22.31Z</time>
      </trkpt>
      <trkpt lat="42.354479" lon="2.326238">
        <ele>1709.40</ele>
        <time>2014-04-24T21:11:26.88Z</time>
      </trkpt>
      <trkpt lat="42.354520" lon="2.326175">
        <ele>1710.20</ele>
        <time>2014-04-24T23:07:20.78Z</time>
      </trkpt>
      <trkpt lat="42.354534" lon="2.326121">
        <ele>1711.40</ele>
        <time>2014-04-25T00:26:21.24Z</time>
      </trkpt>
      <trkpt lat="42.354547" lon="2.326052">
        <ele>1712.40</ele>
        <time>2014-04-25T02:04:39.78Z</time>
      </trkpt>
      <trkpt lat="42.354560" lon="2.325996">
        <ele>1713.20</ele>
        <time>2014-04-25T03:25:42.12Z</time>
      </trkpt>
      <trkpt lat="42.354585" lon="2.325949">
        <ele>1713.60</ele>
        <time>2014-04-25T04:45:39.09Z</time>
      </trkpt>
      <trkpt lat="42.354627" lon="2.325904">
        <ele>1714.00</ele>
        <time>2014-04-25T06:25:44.09Z</time>
      </trkpt>
      <trkpt lat="42.354699" lon="2.325815">
        <ele>1714.60</ele>
        <time>2014-04-25T09:27:55.24Z</time>
      </trkpt>
      <trkpt lat="42.354717" lon="2.325799">
        <ele>1714.80</ele>
        <time>2014-04-25T10:08:09.30Z</time>
      </trkpt>
      <trkpt lat="42.354823" lon="2.325702">
        <ele>1715.20</ele>
        <time>2014-04-25T14:07:13.08Z</time>
      </trkpt>
      <trkpt lat="42.354942" lon="2.325639">
        <ele>1715.60</ele>
        <time>2014-04-25T18:05:56.78Z</time>
      </trkpt>
      <trkpt lat="42.354970" lon="2.325628">
        <ele>1715.60</ele>
        <time>2014-04-25T19:00:25Z</time>
      </trkpt>
      <trkpt lat="42.355110" lon="2.325581">
        <ele>1715.60</ele>
        <time>2014-04-25T23:29:53.89Z</time>
      </trkpt>
      <trkpt lat="42.355281" lon="2.325462">
        <ele>1716.00</ele>
        <time>2014-04-26T05:29:08.10Z</time>
      </trkpt>
      <trkpt lat="42.355411" lon="2.325312">
        <ele>1716.00</ele>
        <time>2014-04-26T10:48:18.49Z</time>
      </trkpt>
      <trkpt lat="42.355523" lon="2.325286">
        <ele>1715.60</ele>
        <time>2014-04-26T14:20:36.41Z</time>
      </trkpt>
      <trkpt lat="42.355550" lon="2.325384">
        <ele>1715.20</ele>
        <time>2014-04-26T16:45:00.08Z</time>
      </trkpt>
      <trkpt lat="42.355541" lon="2.325421">
        <ele>1715.40</ele>
        <time>2014-04-26T17:38:46.75Z</time>
      </trkpt>
      <trkpt lat="42.355511" lon="2.325575">
        <ele>1716.60</ele>
        <time>2014-04-26T21:18:39.15Z</time>
      </trkpt>
      <trkpt lat="42.355500" lon="2.325609">
        <ele>1716.80</ele>
        <time>2014-04-26T22:09:53.63Z</time>
      </trkpt>
      <trkpt lat="42.355473" lon="2.325745">
        <ele>1718.00</ele>
        <time>2014-04-27T01:24:18.67Z</time>
      </trkpt>
      <trkpt lat="42.355472" lon="2.325806">
        <ele>1718.40</ele>
        <time>2014-04-27T02:48:32.85Z</time>
      </trkpt>
      <trkpt lat="42.355487" lon="2.325860">
        <ele>1719.20</ele>
        <time>2014-04-27T04:08:11.53Z</time>
      </trkpt>
      <trkpt lat="42.355526" lon="2.325905">
        <ele>1719.80</ele>
        <time>2014-04-27T05:43:56.64Z</time>
      </trkpt>
      <trkpt lat="42.355562" lon="2.325901">
        <ele>1720.20</ele>
        <time>2014-04-27T06:51:25.61Z</time>
      </trkpt>
      <trkpt lat="42.355613" lon="2.325896">
        <ele>1721.40</ele>
        <time>2014-04-27T08:26:57.38Z</time>
      </trkpt>
      <trkpt lat="42.355627" lon="2.325884">
        <ele>1721.60</ele>
        <time>2014-04-27T08:57:55.02Z</time>
      </trkpt>
      <trkpt lat="42.355671" lon="2.325858">
        <ele>1722.40</ele>
        <time>2014-04-27T10:27:36.89Z</time>
      </trkpt>
      <trkpt lat="42.355734" lon="2.325828">
        <ele>1723.40</ele>
        <time>2014-04-27T12:32:23.29Z</time>
      </trkpt>
      <trkpt lat="42.355744" lon="2.325813">
        <ele>1723.80</ele>
        <time>2014-04-27T13:00:16.72Z</time>
      </trkpt>
      <trkpt lat="42.355781" lon="2.325787">
        <ele>1725.20</ele>
        <time>2014-04-27T14:18:10.05Z</time>
      </trkpt>
      <trkpt lat="42.355810" lon="2.325778">
        <ele>1725.80</ele>
        <time>2014-04-27T15:13:45.16Z</time>
      </trkpt>
      <trkpt lat="42.355827" lon="2.325773">
        <ele>1726.00</ele>
        <time>2014-04-27T15:46:15.25Z</time>
      </trkpt>
      <trkpt lat="42.355844" lon="2.325767">
        <ele>1726.40</ele>
        <time>2014-04-27T16:19:04.60Z</time>
      </trkpt>
      <trkpt lat="42.355884" lon="2.325753">
        <ele>1727.60</ele>
        <time>2014-04-27T17:36:15.90Z</time>
      </trkpt>
      <trkpt lat="42.355929" lon="2.325734">
        <ele>1728.60</ele>
        <time>2014-04-27T19:04:19.96Z</time>
      </trkpt>
      <trkpt lat="42.355962" lon="2.325703">
        <ele>1729.80</ele>
        <time>2014-04-27T20:19:22.99Z</time>
      </trkpt>
      <trkpt lat="42.355993" lon="2.325673">
        <ele>1731.00</ele>
        <time>2014-04-27T21:30:35.05Z</time>
      </trkpt>
      <trkpt lat="42.356002" lon="2.325665">
        <ele>1731.20</ele>
        <time>2014-04-27T21:50:42.07Z</time>
      </trkpt>
      <trkpt lat="42.356029" lon="2.325631">
        <ele>1732.20</ele>
        <time>2014-04-27T22:59:36.30Z</time>
      </trkpt>
      <trkpt lat="42.356070" lon="2.325593">
        <ele>1733.80</ele>
        <time>2014-04-28T00:32:26.75Z</time>
      </trkpt>
      <trkpt lat="42.356097" lon="2.325568">
        <ele>1734.80</ele>
        <time>2014-04-28T01:33:33.96Z</time>
      </trkpt>
      <trkpt lat="42.356126" lon="2.325537">
        <ele>1735.80</ele>
        <time>2014-04-28T02:42:36.56Z</time>
      </trkpt>
      <trkpt lat="42.356137" lon="2.325527">
        <ele>1736.00</ele>
        <time>2014-04-28T03:07:22Z</time>
      </trkpt>
      <trkpt lat="42.356182" lon="2.325486">
        <ele>1737.40</ele>
        <time>2014-04-28T04:48:42.99Z</time>
      </trkpt>
      <trkpt lat="42.356218" lon="2.325459">
        <ele>1738.20</ele>
        <time>2014-04-28T06:05:36.70Z</time>
      </trkpt>
      <trkpt lat="42.356228" lon="2.325448">
        <ele>1738.40</ele>
        <time>2014-04-28T06:29:41.26Z</time>
      </trkpt>
      <trkpt lat="42.356264" lon="2.325392">
        <ele>1739.80</ele>
        <time>2014-04-28T08:12:09.59Z</time>
      </trkpt>
      <trkpt lat="42.356292" lon="2.325357">
        <ele>1740.60</ele>
        <time>2014-04-28T09:23:22.33Z</time>
      </trkpt>
      <trkpt lat="42.356304" lon="2.325349">
        <ele>1740.80</ele>
        <time>2014-04-28T09:48:21.83Z</time>
      </trkpt>
      <trkpt lat="42.356344" lon="2.325315">
        <ele>1741.80</ele>
        <time>2014-04-28T11:16:36.73Z</time>
      </trkpt>
      <trkpt lat="42.356365" lon="2.325291">
        <ele>1742.20</ele>
        <time>2014-04-28T12:07:57.87Z</time>
      </trkpt>
      <trkpt lat="42.356404" lon="2.325242">
        <ele>1742.80</ele>
        <time>2014-04-28T13:47:23.26Z</time>
      </trkpt>
      <trkpt lat="42.356445" lon="2.325184">
        <ele>1743.60</ele>
        <time>2014-04-28T15:38:11.85Z</time>
      </trkpt>
      <trkpt lat="42.356464" lon="2.325161">
        <ele>1744.00</ele>
        <time>2014-04-28T16:25:49.42Z</time>
      </trkpt>
      <trkpt lat="42.356525" lon="2.325122">
        <ele>1745.20</ele>
        <time>2014-04-28T18:31:51.88Z</time>
      </trkpt>
      <trkpt lat="42.356571" lon="2.325095">
        <ele>1746.40</ele>
        <time>2014-04-28T20:05:32.35Z</time>
      </trkpt>
      <trkpt lat="42.356610" lon="2.325086">
        <ele>1746.80</ele>
        <time>2014-04-28T21:19:27.13Z</time>
      </trkpt>
      <trkpt lat="42.356627" lon="2.325084">
        <ele>1747.00</ele>
        <time>2014-04-28T21:51:19.91Z</time>
      </trkpt>
      <trkpt lat="42.356650" lon="2.325064">
        <ele>1747.40</ele>
        <time>2014-04-28T22:42:24.46Z</time>
      </trkpt>
      <trkpt lat="42.356681" lon="2.325026">
        <ele>1748.60</ele>
        <time>2014-04-29T00:00:33.06Z</time>
      </trkpt>
      <trkpt lat="42.356743" lon="2.325004">
        <ele>1749.40</ele>
        <time>2014-04-29T02:00:17.83Z</time>
      </trkpt>
      <trkpt lat="42.356756" lon="2.324994">
        <ele>1749.60</ele>
        <time>2014-04-29T02:28:14.03Z</time>
      </trkpt>
      <trkpt lat="42.356814" lon="2.324960">
        <ele>1750.80</ele>
        <time>2014-04-29T04:26:19.27Z</time>
      </trkpt>
      <trkpt lat="42.356826" lon="2.324951">
        <ele>1751.00</ele>
        <time>2014-04-29T04:51:57.17Z</time>
      </trkpt>
      <trkpt lat="42.356860" lon="2.324932">
        <ele>1752.20</ele>
        <time>2014-04-29T06:00:40.54Z</time>
      </trkpt>
      <trkpt lat="42.356916" lon="2.324896">
        <ele>1753.40</ele>
        <time>2014-04-29T07:56:30.10Z</time>
      </trkpt>
      <trkpt lat="42.356959" lon="2.324870">
        <ele>1754.40</ele>
        <time>2014-04-29T09:24:29.40Z</time>
      </trkpt>
      <trkpt lat="42.356980" lon="2.324849">
        <ele>1755.00</ele>
        <time>2014-04-29T10:13:16.36Z</time>
      </trkpt>
      <trkpt lat="42.357003" lon="2.324835">
        <ele>1755.60</ele>
        <time>2014-04-29T11:00:23.32Z</time>
      </trkpt>
      <trkpt lat="42.357059" lon="2.324821">
        <ele>1756.80</ele>
        <time>2014-04-29T12:46:46.81Z</time>
      </trkpt>
      <trkpt lat="42.357105" lon="2.324806">
        <ele>1758.00</ele>
        <time>2014-04-29T14:15:10.72Z</time>
      </trkpt>
      <trkpt lat="42.357169" lon="2.324780">
        <ele>1759.00</ele>
        <time>2014-04-29T16:20:01.03Z</time>
      </trkpt>
      <trkpt lat="42.357205" lon="2.324772">
        <ele>1760.20</ele>
        <time>2014-04-29T17:28:10.46Z</time>
      </trkpt>
      <trkpt lat="42.357212" lon="2.324759">
        <ele>1760.40</ele>
        <time>2014-04-29T17:50:22.84Z</time>
      </trkpt>
      <trkpt lat="42.357230" lon="2.324731">
        <ele>1761.00</ele>
        <time>2014-04-29T18:41:36.98Z</time>
      </trkpt>
      <trkpt lat="42.357241" lon="2.324727">
        <ele>1761.40</ele>
        <time>2014-04-29T19:02:53.75Z</time>
      </trkpt>
      <trkpt lat="42.357264" lon="2.324720">
        <ele>1761.80</ele>
        <time>2014-04-29T19:46:56.31Z</time>
      </trkpt>
      <trkpt lat="42.357286" lon="2.324711">
        <ele>1762.40</ele>
        <time>2014-04-29T20:29:52.60Z</time>
      </trkpt>
      <trkpt lat="42.357298" lon="2.324703">
        <ele>1762.80</ele>
        <time>2014-04-29T20:54:52.10Z</time>
      </trkpt>
      <trkpt lat="42.357331" lon="2.324683">
        <ele>1763.40</ele>
        <time>2014-04-29T22:02:25.23Z</time>
      </trkpt>
      <trkpt lat="42.357391" lon="2.324663">
        <ele>1764.40</ele>
        <time>2014-04-29T23:57:51.90Z</time>
      </trkpt>
      <trkpt lat="42.357400" lon="2.324656">
        <ele>1764.60</ele>
        <time>2014-04-30T00:17:15.50Z</time>
      </trkpt>
      <trkpt lat="42.357440" lon="2.324641">
        <ele>1765.80</ele>
        <time>2014-04-30T01:34:48.23Z</time>
      </trkpt>
      <trkpt lat="42.357466" lon="2.324632">
        <ele>1766.40</ele>
        <time>2014-04-30T02:24:56.51Z</time>
      </trkpt>
      <trkpt lat="42.357487" lon="2.324618">
        <ele>1767.20</ele>
        <time>2014-04-30T03:08:40.62Z</time>
      </trkpt>
      <trkpt lat="42.357513" lon="2.324590">
        <ele>1768.60</ele>
        <time>2014-04-30T04:10:45.30Z</time>
      </trkpt>
      <trkpt lat="42.357525" lon="2.324584">
        <ele>1768.80</ele>
        <time>2014-04-30T04:34:39.30Z</time>
      </trkpt>
      <trkpt lat="42.357533" lon="2.324581">
        <ele>1769.20</ele>
        <time>2014-04-30T04:51:28.15Z</time>
      </trkpt>
      <trkpt lat="42.357542" lon="2.324571">
        <ele>1769.60</ele>
        <time>2014-04-30T05:13:13.48Z</time>
      </trkpt>
      <trkpt lat="42.357559" lon="2.324571">
        <ele>1770.00</ele>
        <time>2014-04-30T05:44:59.08Z</time>
      </trkpt>
      <trkpt lat="42.357599" lon="2.324561">
        <ele>1770.60</ele>
        <time>2014-04-30T07:00:58.71Z</time>
      </trkpt>
      <trkpt lat="42.357602" lon="2.324560">
        <ele>1771.20</ele>
        <time>2014-04-30T07:17:47.55Z</time>
      </trkpt>
      <trkpt lat="42.357608" lon="2.324554">
        <ele>1772.20</ele>
        <time>2014-04-30T07:34:36.40Z</time>
      </trkpt>
      <trkpt lat="42.357610" lon="2.324557">
        <ele>1772.60</ele>
        <time>2014-04-30T07:51:25.25Z</time>
      </trkpt>
      <trkpt lat="42.358024" lon="2.324372">
        <ele>1780.40</ele>
        <time>2014-04-30T21:25:56.76Z</time>
      </trkpt>
      <trkpt lat="42.358048" lon="2.324347">
        <ele>1781.20</ele>
        <time>2014-04-30T22:22:31.71Z</time>
      </trkpt>
      <trkpt lat="42.358059" lon="2.324329">
        <ele>1781.60</ele>
        <time>2014-04-30T22:54:46.49Z</time>
      </trkpt>
      <trkpt lat="42.358091" lon="2.324314">
        <ele>1782.40</ele>
        <time>2014-04-30T23:58:02.59Z</time>
      </trkpt>
      <trkpt lat="42.358097" lon="2.324305">
        <ele>1782.60</ele>
        <time>2014-05-01T00:14:51.43Z</time>
      </trkpt>
      <trkpt lat="42.358115" lon="2.324268">
        <ele>1783.60</ele>
        <time>2014-05-01T01:16:00.75Z</time>
      </trkpt>
      <trkpt lat="42.358124" lon="2.324258">
        <ele>1783.80</ele>
        <time>2014-05-01T01:37:46.08Z</time>
      </trkpt>
      <trkpt lat="42.358150" lon="2.324222">
        <ele>1784.80</ele>
        <time>2014-05-01T02:47:15.72Z</time>
      </trkpt>
      <trkpt lat="42.358154" lon="2.324215">
        <ele>1785.00</ele>
        <time>2014-05-01T03:04:04.57Z</time>
      </trkpt>
      <trkpt lat="42.358177" lon="2.324177">
        <ele>1786.00</ele>
        <time>2014-05-01T04:11:53.27Z</time>
      </trkpt>
      <trkpt lat="42.358189" lon="2.324153">
        <ele>1786.40</ele>
        <time>2014-05-01T04:51:53.55Z</time>
      </trkpt>
      <trkpt lat="42.358194" lon="2.324144">
        <ele>1786.80</ele>
        <time>2014-05-01T05:08:42.40Z</time>
      </trkpt>
      <trkpt lat="42.358199" lon="2.324137">
        <ele>1787.00</ele>
        <time>2014-05-01T05:25:31.24Z</time>
      </trkpt>
      <trkpt lat="42.358232" lon="2.324094">
        <ele>1788.20</ele>
        <time>2014-05-01T06:51:06.36Z</time>
      </trkpt>
      <trkpt lat="42.358242" lon="2.324071">
        <ele>1788.80</ele>
        <time>2014-05-01T07:27:56.79Z</time>
      </trkpt>
      <trkpt lat="42.358260" lon="2.324040">
        <ele>1789.40</ele>
        <time>2014-05-01T08:22:22.45Z</time>
      </trkpt>
      <trkpt lat="42.358277" lon="2.324013">
        <ele>1790.00</ele>
        <time>2014-05-01T09:11:20.65Z</time>
      </trkpt>
      <trkpt lat="42.358532" lon="2.322718">
        <ele>1818.60</ele>
        <time>2014-05-02T16:01:30.31Z</time>
      </trkpt>
      <trkpt lat="42.358538" lon="2.322711">
        <ele>1818.80</ele>
        <time>2014-05-02T16:18:19.16Z</time>
      </trkpt>
      <trkpt lat="42.358560" lon="2.322669">
        <ele>1819.60</ele>
        <time>2014-05-02T17:29:23.46Z</time>
      </trkpt>
      <trkpt lat="42.358573" lon="2.322648">
        <ele>1820.00</ele>
        <time>2014-05-02T18:07:12.64Z</time>
      </trkpt>
      <trkpt lat="42.358579" lon="2.322637">
        <ele>1820.20</ele>
        <time>2014-05-02T18:26:05.13Z</time>
      </trkpt>
      <trkpt lat="42.358594" lon="2.322605">
        <ele>1820.80</ele>
        <time>2014-05-02T19:18:24.04Z</time>
      </trkpt>
      <trkpt lat="42.358596" lon="2.322565">
        <ele>1821.40</ele>
        <time>2014-05-02T20:13:44.86Z</time>
      </trkpt>
      <trkpt lat="42.358596" lon="2.322572">
        <ele>1821.60</ele>
        <time>2014-05-02T20:30:33.70Z</time>
      </trkpt>
      <trkpt lat="42.358597" lon="2.322512">
        <ele>1822.00</ele>
        <time>2014-05-02T21:53:24.83Z</time>
      </trkpt>
      <trkpt lat="42.358616" lon="2.322474">
        <ele>1822.40</ele>
        <time>2014-05-02T22:56:45.26Z</time>
      </trkpt>
      <trkpt lat="42.358644" lon="2.322457">
        <ele>1823.00</ele>
        <time>2014-05-02T23:54:05.29Z</time>
      </trkpt>
      <trkpt lat="42.358673" lon="2.322410">
        <ele>1823.60</ele>
        <time>2014-05-03T01:18:37.08Z</time>
      </trkpt>
      <trkpt lat="42.358689" lon="2.322369">
        <ele>1824.00</ele>
        <time>2014-05-03T02:22:37.65Z</time>
      </trkpt>
      <trkpt lat="42.358717" lon="2.322291">
        <ele>1825.00</ele>
        <time>2014-05-03T04:22:20.48Z</time>
      </trkpt>
      <trkpt lat="42.358726" lon="2.322273">
        <ele>1825.20</ele>
        <time>2014-05-03T04:52:20.68Z</time>
      </trkpt>
      <trkpt lat="42.358763" lon="2.322209">
        <ele>1826.40</ele>
        <time>2014-05-03T06:44:31.50Z</time>
      </trkpt>
      <trkpt lat="42.358770" lon="2.322171">
        <ele>1827.20</ele>
        <time>2014-05-03T07:38:35.40Z</time>
      </trkpt>
      <trkpt lat="42.358775" lon="2.322154">
        <ele>1827.40</ele>
        <time>2014-05-03T08:03:50.97Z</time>
      </trkpt>
      <trkpt lat="42.358794" lon="2.322103">
        <ele>1828.80</ele>
        <time>2014-05-03T09:22:41.85Z</time>
      </trkpt>
      <trkpt lat="42.358801" lon="2.322086">
        <ele>1829.80</ele>
        <time>2014-05-03T09:49:33.84Z</time>
      </trkpt>
      <trkpt lat="42.359151" lon="2.321567">
        <ele>1844.60</ele>
        <time>2014-05-04T01:59:34.17Z</time>
      </trkpt>
      <trkpt lat="42.359166" lon="2.321560">
        <ele>1845.20</ele>
        <time>2014-05-04T02:29:12.74Z</time>
      </trkpt>
      <trkpt lat="42.359189" lon="2.321545">
        <ele>1845.60</ele>
        <time>2014-05-04T03:16:54.66Z</time>
      </trkpt>
      <trkpt lat="42.359233" lon="2.321518">
        <ele>1846.60</ele>
        <time>2014-05-04T04:47:10.15Z</time>
      </trkpt>
      <trkpt lat="42.359243" lon="2.321514">
        <ele>1846.80</ele>
        <time>2014-05-04T05:06:39.03Z</time>
      </trkpt>
      <trkpt lat="42.359281" lon="2.321495">
        <ele>1847.80</ele>
        <time>2014-05-04T06:22:20.04Z</time>
      </trkpt>
      <trkpt lat="42.359294" lon="2.321492">
        <ele>1848.00</ele>
        <time>2014-05-04T06:46:58.29Z</time>
      </trkpt>
      <trkpt lat="42.359319" lon="2.321500">
        <ele>1848.40</ele>
        <time>2014-05-04T07:34:57.92Z</time>
      </trkpt>
      <trkpt lat="42.359352" lon="2.321503">
        <ele>1848.60</ele>
        <time>2014-05-04T08:36:45.36Z</time>
      </trkpt>
      <trkpt lat="42.359396" lon="2.321514">
        <ele>1848.80</ele>
        <time>2014-05-04T10:00:20.95Z</time>
      </trkpt>
      <trkpt lat="42.359497" lon="2.321565">
        <ele>1849.40</ele>
        <time>2014-05-04T13:21:44.87Z</time>
      </trkpt>
      <trkpt lat="42.359645" lon="2.321721">
        <ele>1848.40</ele>
        <time>2014-05-04T19:12:13.16Z</time>
      </trkpt>
      <trkpt lat="42.359716" lon="2.321778">
        <ele>1847.80</ele>
        <time>2014-05-04T21:46:26.86Z</time>
      </trkpt>
      <trkpt lat="42.359850" lon="2.321886">
        <ele>1847.60</ele>
        <time>2014-05-05T02:37:49.47Z</time>
      </trkpt>
      <trkpt lat="42.359993" lon="2.322039">
        <ele>1847.00</ele>
        <time>2014-05-05T08:18:23.39Z</time>
      </trkpt>
      <trkpt lat="42.360025" lon="2.322076">
        <ele>1846.80</ele>
        <time>2014-05-05T09:37:01.32Z</time>
      </trkpt>
      <trkpt lat="42.360131" lon="2.322177">
        <ele>1847.00</ele>
        <time>2014-05-05T13:39:12.89Z</time>
      </trkpt>
      <trkpt lat="42.360273" lon="2.322287">
        <ele>1847.60</ele>
        <time>2014-05-05T18:44:53.44Z</time>
      </trkpt>
      <trkpt lat="42.360372" lon="2.322348">
        <ele>1848.00</ele>
        <time>2014-05-05T22:08:06.82Z</time>
      </trkpt>
      <trkpt lat="42.360421" lon="2.322371">
        <ele>1848.20</ele>
        <time>2014-05-05T23:45:00.42Z</time>
      </trkpt>
      <trkpt lat="42.360611" lon="2.322453">
        <ele>1848.60</ele>
        <time>2014-05-06T05:57:35.05Z</time>
      </trkpt>
      <trkpt lat="42.360721" lon="2.322582">
        <ele>1848.80</ele>
        <time>2014-05-06T10:29:30.78Z</time>
      </trkpt>
      <trkpt lat="42.360743" lon="2.322603">
        <ele>1849.20</ele>
        <time>2014-05-06T11:19:48.56Z</time>
      </trkpt>
      <trkpt lat="42.360814" lon="2.322632">
        <ele>1850.20</ele>
        <time>2014-05-06T13:38:21.81Z</time>
      </trkpt>
      <trkpt lat="42.360842" lon="2.322619">
        <ele>1850.80</ele>
        <time>2014-05-06T14:33:40.01Z</time>
      </trkpt>
      <trkpt lat="42.360860" lon="2.322577">
        <ele>1851.40</ele>
        <time>2014-05-06T15:40:41.58Z</time>
      </trkpt>
      <trkpt lat="42.360891" lon="2.322554">
        <ele>1851.60</ele>
        <time>2014-05-06T16:46:44.43Z</time>
      </trkpt>
      <trkpt lat="42.360915" lon="2.322517">
        <ele>1852.00</ele>
        <time>2014-05-06T17:54:42.36Z</time>
      </trkpt>
      <trkpt lat="42.360947" lon="2.322493">
        <ele>1852.60</ele>
        <time>2014-05-06T19:03:03.36Z</time>
      </trkpt>
      <trkpt lat="42.361023" lon="2.322460">
        <ele>1853.40</ele>
        <time>2014-05-06T21:32:10.25Z</time>
      </trkpt>
      <trkpt lat="42.361060" lon="2.322443">
        <ele>1853.60</ele>
        <time>2014-05-06T22:45:10.24Z</time>
      </trkpt>
      <trkpt lat="42.361164" lon="2.322362">
        <ele>1854.40</ele>
        <time>2014-05-07T02:29:20.70Z</time>
      </trkpt>
      <trkpt lat="42.361177" lon="2.322345">
        <ele>1854.80</ele>
        <time>2014-05-07T03:03:07.07Z</time>
      </trkpt>
      <trkpt lat="42.361288" lon="2.322301">
        <ele>1855.80</ele>
        <time>2014-05-07T06:39:12.25Z</time>
      </trkpt>
      <trkpt lat="42.361401" lon="2.322236">
        <ele>1856.20</ele>
        <time>2014-05-07T10:28:35.55Z</time>
      </trkpt>
      <trkpt lat="42.361431" lon="2.322219">
        <ele>1856.60</ele>
        <time>2014-05-07T11:29:21.26Z</time>
      </trkpt>
      <trkpt lat="42.361451" lon="2.322218">
        <ele>1856.80</ele>
        <time>2014-05-07T12:06:44.67Z</time>
      </trkpt>
      <trkpt lat="42.361504" lon="2.322232">
        <ele>1856.60</ele>
        <time>2014-05-07T13:47:37.76Z</time>
      </trkpt>
      <trkpt lat="42.361536" lon="2.322236">
        <ele>1856.20</ele>
        <time>2014-05-07T14:47:40.03Z</time>
      </trkpt>
      <trkpt lat="42.361621" lon="2.322228">
        <ele>1855.80</ele>
        <time>2014-05-07T17:26:51.04Z</time>
      </trkpt>
      <trkpt lat="42.361668" lon="2.322221">
        <ele>1855.60</ele>
        <time>2014-05-07T18:55:11.26Z</time>
      </trkpt>
      <trkpt lat="42.361837" lon="2.322199">
        <ele>1856.40</ele>
        <time>2014-05-08T00:12:22.59Z</time>
      </trkpt>
      <trkpt lat="42.361903" lon="2.322209">
        <ele>1857.00</ele>
        <time>2014-05-08T02:16:27.01Z</time>
      </trkpt>
      <trkpt lat="42.361960" lon="2.322220">
        <ele>1857.20</ele>
        <time>2014-05-08T04:04:01Z</time>
      </trkpt>
      <trkpt lat="42.362127" lon="2.322228">
        <ele>1858.00</ele>
        <time>2014-05-08T09:16:12.42Z</time>
      </trkpt>
      <trkpt lat="42.362254" lon="2.322223">
        <ele>1858.20</ele>
        <time>2014-05-08T13:13:34.38Z</time>
      </trkpt>
      <trkpt lat="42.362394" lon="2.322244">
        <ele>1859.20</ele>
        <time>2014-05-08T17:36:43.64Z</time>
      </trkpt>
      <trkpt lat="42.362419" lon="2.322235">
        <ele>1859.40</ele>
        <time>2014-05-08T18:25:03.44Z</time>
      </trkpt>
      <trkpt lat="42.362533" lon="2.322229">
        <ele>1860.20</ele>
        <time>2014-05-08T21:58:11.82Z</time>
      </trkpt>
      <trkpt lat="42.362631" lon="2.322229">
        <ele>1861.40</ele>
        <time>2014-05-09T01:01:17.03Z</time>
      </trkpt>
      <trkpt lat="42.362677" lon="2.322226">
        <ele>1861.80</ele>
        <time>2014-05-09T02:27:19.34Z</time>
      </trkpt>
      <trkpt lat="42.362697" lon="2.322225">
        <ele>1862.00</ele>
        <time>2014-05-09T03:04:42.75Z</time>
      </trkpt>
      <trkpt lat="42.362737" lon="2.322223">
        <ele>1862.60</ele>
        <time>2014-05-09T04:19:29.57Z</time>
      </trkpt>
      <trkpt lat="42.362823" lon="2.322252">
        <ele>1863.40</ele>
        <time>2014-05-09T07:05:04.38Z</time>
      </trkpt>
      <trkpt lat="42.362867" lon="2.322279">
        <ele>1863.60</ele>
        <time>2014-05-09T08:35:19.82Z</time>
      </trkpt>
      <trkpt lat="42.363009" lon="2.322356">
        <ele>1862.80</ele>
        <time>2014-05-09T13:21:07.27Z</time>
      </trkpt>
      <trkpt lat="42.363135" lon="2.322411">
        <ele>1862.40</ele>
        <time>2014-05-09T17:28:27.57Z</time>
      </trkpt>
      <trkpt lat="42.363218" lon="2.322440">
        <ele>1862.40</ele>
        <time>2014-05-09T20:08:36.42Z</time>
      </trkpt>
      <trkpt lat="42.363422" lon="2.322517">
        <ele>1862.20</ele>
        <time>2014-05-10T02:44:16.27Z</time>
      </trkpt>
      <trkpt lat="42.363618" lon="2.322612">
        <ele>1862.00</ele>
        <time>2014-05-10T09:13:13.15Z</time>
      </trkpt>
      <trkpt lat="42.363805" lon="2.322685">
        <ele>1862.40</ele>
        <time>2014-05-10T15:16:49.29Z</time>
      </trkpt>
      <trkpt lat="42.363978" lon="2.322737">
        <ele>1862.80</ele>
        <time>2014-05-10T20:47:54.06Z</time>
      </trkpt>
      <trkpt lat="42.364096" lon="2.322783">
        <ele>1863.40</ele>
        <time>2014-05-11T00:37:18.91Z</time>
      </trkpt>
      <trkpt lat="42.364138" lon="2.322808">
        <ele>1863.60</ele>
        <time>2014-05-11T02:03:02.08Z</time>
      </trkpt>
      <trkpt lat="42.364206" lon="2.322807">
        <ele>1863.80</ele>
        <time>2014-05-11T04:10:04.92Z</time>
      </trkpt>
      <trkpt lat="42.364272" lon="2.322805">
        <ele>1864.80</ele>
        <time>2014-05-11T06:13:24.98Z</time>
      </trkpt>
      <trkpt lat="42.364391" lon="2.322814">
        <ele>1865.80</ele>
        <time>2014-05-11T09:56:04.98Z</time>
      </trkpt>
      <trkpt lat="42.364516" lon="2.322814">
        <ele>1867.00</ele>
        <time>2014-05-11T13:49:36.73Z</time>
      </trkpt>
      <trkpt lat="42.364538" lon="2.322814">
        <ele>1867.20</ele>
        <time>2014-05-11T14:30:42.80Z</time>
      </trkpt>
      <trkpt lat="42.364687" lon="2.322789">
        <ele>1868.20</ele>
        <time>2014-05-11T19:11:12.66Z</time>
      </trkpt>
      <trkpt lat="42.364781" lon="2.322736">
        <ele>1869.20</ele>
        <time>2014-05-11T22:21:27.29Z</time>
      </trkpt>
      <trkpt lat="42.364822" lon="2.322716">
        <ele>1869.60</ele>
        <time>2014-05-11T23:42:52.54Z</time>
      </trkpt>
      <trkpt lat="42.364893" lon="2.322651">
        <ele>1870.40</ele>
        <time>2014-05-12T02:23:00.99Z</time>
      </trkpt>
      <trkpt lat="42.364943" lon="2.322610">
        <ele>1871.60</ele>
        <time>2014-05-12T04:12:14.13Z</time>
      </trkpt>
      <trkpt lat="42.365023" lon="2.322566">
        <ele>1872.60</ele>
        <time>2014-05-12T06:53:33.83Z</time>
      </trkpt>
      <trkpt lat="42.365054" lon="2.322548">
        <ele>1873.20</ele>
        <time>2014-05-12T07:56:35.04Z</time>
      </trkpt>
      <trkpt lat="42.365106" lon="2.322528">
        <ele>1873.80</ele>
        <time>2014-05-12T09:37:34.72Z</time>
      </trkpt>
      <trkpt lat="42.365170" lon="2.322498">
        <ele>1874.60</ele>
        <time>2014-05-12T11:44:06.83Z</time>
      </trkpt>
      <trkpt lat="42.365187" lon="2.322492">
        <ele>1874.80</ele>
        <time>2014-05-12T12:16:56.16Z</time>
      </trkpt>
      <trkpt lat="42.365278" lon="2.322436">
        <ele>1876.00</ele>
        <time>2014-05-12T15:23:41.64Z</time>
      </trkpt>
      <trkpt lat="42.365345" lon="2.322384">
        <ele>1877.00</ele>
        <time>2014-05-12T17:47:59.16Z</time>
      </trkpt>
      <trkpt lat="42.365389" lon="2.322325">
        <ele>1878.20</ele>
        <time>2014-05-12T19:43:42.06Z</time>
      </trkpt>
      <trkpt lat="42.365467" lon="2.322273">
        <ele>1879.40</ele>
        <time>2014-05-12T22:26:08.55Z</time>
      </trkpt>
      <trkpt lat="42.365520" lon="2.322238">
        <ele>1879.60</ele>
        <time>2014-05-13T00:16:19Z</time>
      </trkpt>
      <trkpt lat="42.365551" lon="2.322220">
        <ele>1880.40</ele>
        <time>2014-05-13T01:19:20.20Z</time>
      </trkpt>
      <trkpt lat="42.365626" lon="2.322174">
        <ele>1881.00</ele>
        <time>2014-05-13T03:53:10.22Z</time>
      </trkpt>
      <trkpt lat="42.365686" lon="2.322149">
        <ele>1881.40</ele>
        <time>2014-05-13T05:50:27.36Z</time>
      </trkpt>
      <trkpt lat="42.365736" lon="2.322120">
        <ele>1882.00</ele>
        <time>2014-05-13T07:32:05.02Z</time>
      </trkpt>
      <trkpt lat="42.365791" lon="2.322084">
        <ele>1882.60</ele>
        <time>2014-05-13T09:26:13.31Z</time>
      </trkpt>
      <trkpt lat="42.365850" lon="2.322056">
        <ele>1883.00</ele>
        <time>2014-05-13T11:23:01.65Z</time>
      </trkpt>
      <trkpt lat="42.365910" lon="2.322052">
        <ele>1883.80</ele>
        <time>2014-05-13T13:15:15.44Z</time>
      </trkpt>
      <trkpt lat="42.365964" lon="2.322042">
        <ele>1885.00</ele>
        <time>2014-05-13T14:57:04.91Z</time>
      </trkpt>
      <trkpt lat="42.365982" lon="2.322040">
        <ele>1885.60</ele>
        <time>2014-05-13T15:30:49.39Z</time>
      </trkpt>
      <trkpt lat="42.366006" lon="2.322027">
        <ele>1886.20</ele>
        <time>2014-05-13T16:19:07.10Z</time>
      </trkpt>
      <trkpt lat="42.366053" lon="2.321994">
        <ele>1886.60</ele>
        <time>2014-05-13T17:58:02.26Z</time>
      </trkpt>
      <trkpt lat="42.366070" lon="2.321997">
        <ele>1886.40</ele>
        <time>2014-05-13T18:30:03.99Z</time>
      </trkpt>
      <trkpt lat="42.366114" lon="2.322068">
        <ele>1886.00</ele>
        <time>2014-05-13T20:37:58.87Z</time>
      </trkpt>
      <trkpt lat="42.366173" lon="2.322143">
        <ele>1886.40</ele>
        <time>2014-05-13T23:09:12.06Z</time>
      </trkpt>
      <trkpt lat="42.366204" lon="2.322175">
        <ele>1887.20</ele>
        <time>2014-05-14T00:22:02.30Z</time>
      </trkpt>
      <trkpt lat="42.366245" lon="2.322226">
        <ele>1888.20</ele>
        <time>2014-05-14T02:06:04.33Z</time>
      </trkpt>
      <trkpt lat="42.366284" lon="2.322286">
        <ele>1888.80</ele>
        <time>2014-05-14T03:56:22.86Z</time>
      </trkpt>
      <trkpt lat="42.366314" lon="2.322320">
        <ele>1889.40</ele>
        <time>2014-05-14T05:09:28.96Z</time>
      </trkpt>
      <trkpt lat="42.366355" lon="2.322373">
        <ele>1890.80</ele>
        <time>2014-05-14T06:55:24.25Z</time>
      </trkpt>
      <trkpt lat="42.366378" lon="2.322402">
        <ele>1891.80</ele>
        <time>2014-05-14T07:54:07.82Z</time>
      </trkpt>
      <trkpt lat="42.366389" lon="2.322421">
        <ele>1892.20</ele>
        <time>2014-05-14T08:27:26.96Z</time>
      </trkpt>
      <trkpt lat="42.366419" lon="2.322466">
        <ele>1893.60</ele>
        <time>2014-05-14T09:51:06.78Z</time>
      </trkpt>
      <trkpt lat="42.366454" lon="2.322516">
        <ele>1895.40</ele>
        <time>2014-05-14T11:26:11.20Z</time>
      </trkpt>
      <trkpt lat="42.366490" lon="2.322557">
        <ele>1896.80</ele>
        <time>2014-05-14T12:54:05.17Z</time>
      </trkpt>
      <trkpt lat="42.366525" lon="2.322593">
        <ele>1898.00</ele>
        <time>2014-05-14T14:16:12.82Z</time>
      </trkpt>
      <trkpt lat="42.366561" lon="2.322638">
        <ele>1899.40</ele>
        <time>2014-05-14T15:47:45.94Z</time>
      </trkpt>
      <trkpt lat="42.366597" lon="2.322686">
        <ele>1900.40</ele>
        <time>2014-05-14T17:22:10.56Z</time>
      </trkpt>
      <trkpt lat="42.366611" lon="2.322703">
        <ele>1900.60</ele>
        <time>2014-05-14T17:57:18.90Z</time>
      </trkpt>
      <trkpt lat="42.366706" lon="2.322852">
        <ele>1900.60</ele>
        <time>2014-05-14T22:28:58.63Z</time>
      </trkpt>
      <trkpt lat="42.366783" lon="2.323093">
        <ele>1899.80</ele>
        <time>2014-05-15T04:31:24.60Z</time>
      </trkpt>
      <trkpt lat="42.366820" lon="2.323193">
        <ele>1899.20</ele>
        <time>2014-05-15T07:05:47.07Z</time>
      </trkpt>
      <trkpt lat="42.366876" lon="2.323305">
        <ele>1898.00</ele>
        <time>2014-05-15T10:12:27.32Z</time>
      </trkpt>
      <trkpt lat="42.366907" lon="2.323362">
        <ele>1897.60</ele>
        <time>2014-05-15T11:50:09.10Z</time>
      </trkpt>
      <trkpt lat="42.366960" lon="2.323449">
        <ele>1897.00</ele>
        <time>2014-05-15T14:25:47.85Z</time>
      </trkpt>
      <trkpt lat="42.367012" lon="2.323571">
        <ele>1896.40</ele>
        <time>2014-05-15T17:40:12.65Z</time>
      </trkpt>
      <trkpt lat="42.367031" lon="2.323651">
        <ele>1896.00</ele>
        <time>2014-05-15T19:36:12.13Z</time>
      </trkpt>
      <trkpt lat="42.367077" lon="2.323810">
        <ele>1895.00</ele>
        <time>2014-05-15T23:31:54.03Z</time>
      </trkpt>
      <trkpt lat="42.367125" lon="2.323912">
        <ele>1893.40</ele>
        <time>2014-05-16T02:18:49.63Z</time>
      </trkpt>
      <trkpt lat="42.367142" lon="2.323938">
        <ele>1892.60</ele>
        <time>2014-05-16T03:06:45.06Z</time>
      </trkpt>
      <trkpt lat="42.367149" lon="2.323967">
        <ele>1892.20</ele>
        <time>2014-05-16T03:48:51.75Z</time>
      </trkpt>
      <trkpt lat="42.367214" lon="2.324083">
        <ele>1891.20</ele>
        <time>2014-05-16T07:09:49.26Z</time>
      </trkpt>
      <trkpt lat="42.367236" lon="2.324131">
        <ele>1890.40</ele>
        <time>2014-05-16T08:27:47.39Z</time>
      </trkpt>
      <trkpt lat="42.367262" lon="2.324173">
        <ele>1889.20</ele>
        <time>2014-05-16T09:43:25.38Z</time>
      </trkpt>
      <trkpt lat="42.367310" lon="2.324250">
        <ele>1886.00</ele>
        <time>2014-05-16T12:02:29.09Z</time>
      </trkpt>
      <trkpt lat="42.367333" lon="2.324304">
        <ele>1885.00</ele>
        <time>2014-05-16T13:28:31.25Z</time>
      </trkpt>
      <trkpt lat="42.367360" lon="2.324364">
        <ele>1883.80</ele>
        <time>2014-05-16T15:05:29.55Z</time>
      </trkpt>
      <trkpt lat="42.367392" lon="2.324420">
        <ele>1882.80</ele>
        <time>2014-05-16T16:43:12.71Z</time>
      </trkpt>
      <trkpt lat="42.367424" lon="2.324468">
        <ele>1881.20</ele>
        <time>2014-05-16T18:12:27.14Z</time>
      </trkpt>
      <trkpt lat="42.367452" lon="2.324518">
        <ele>1880.20</ele>
        <time>2014-05-16T19:39:03.16Z</time>
      </trkpt>
      <trkpt lat="42.367480" lon="2.324561">
        <ele>1879.20</ele>
        <time>2014-05-16T20:58:10.09Z</time>
      </trkpt>
      <trkpt lat="42.367503" lon="2.324600">
        <ele>1878.60</ele>
        <time>2014-05-16T22:07:02.83Z</time>
      </trkpt>
      <trkpt lat="42.367530" lon="2.324641">
        <ele>1877.60</ele>
        <time>2014-05-16T23:22:51.45Z</time>
      </trkpt>
      <trkpt lat="42.367557" lon="2.324690">
        <ele>1876.40</ele>
        <time>2014-05-17T00:47:13.90Z</time>
      </trkpt>
      <trkpt lat="42.367589" lon="2.324738">
        <ele>1875.20</ele>
        <time>2014-05-17T02:16:28.32Z</time>
      </trkpt>
      <trkpt lat="42.367625" lon="2.324794">
        <ele>1874.00</ele>
        <time>2014-05-17T03:58:56.02Z</time>
      </trkpt>
      <trkpt lat="42.367670" lon="2.324855">
        <ele>1872.40</ele>
        <time>2014-05-17T05:57:55.11Z</time>
      </trkpt>
      <trkpt lat="42.367724" lon="2.324935">
        <ele>1870.80</ele>
        <time>2014-05-17T08:27:29.37Z</time>
      </trkpt>
      <trkpt lat="42.367787" lon="2.325038">
        <ele>1869.00</ele>
        <time>2014-05-17T11:32:03.55Z</time>
      </trkpt>
      <trkpt lat="42.367860" lon="2.325147">
        <ele>1867.40</ele>
        <time>2014-05-17T14:55:07.58Z</time>
      </trkpt>
      <trkpt lat="42.367933" lon="2.325257">
        <ele>1865.60</ele>
        <time>2014-05-17T18:19:13.09Z</time>
      </trkpt>
      <trkpt lat="42.368003" lon="2.325357">
        <ele>1864.00</ele>
        <time>2014-05-17T21:29:21.78Z</time>
      </trkpt>
      <trkpt lat="42.368055" lon="2.325444">
        <ele>1863.20</ele>
        <time>2014-05-18T00:03:49.52Z</time>
      </trkpt>
      <trkpt lat="42.368102" lon="2.325514">
        <ele>1863.00</ele>
        <time>2014-05-18T02:14:23.10Z</time>
      </trkpt>
      <trkpt lat="42.368160" lon="2.325602">
        <ele>1864.00</ele>
        <time>2014-05-18T04:57:09.58Z</time>
      </trkpt>
      <trkpt lat="42.368188" lon="2.325635">
        <ele>1864.40</ele>
        <time>2014-05-18T06:06:31.35Z</time>
      </trkpt>
      <trkpt lat="42.368241" lon="2.325704">
        <ele>1865.60</ele>
        <time>2014-05-18T08:23:54.55Z</time>
      </trkpt>
      <trkpt lat="42.368290" lon="2.325783">
        <ele>1866.20</ele>
        <time>2014-05-18T10:46:17.09Z</time>
      </trkpt>
      <trkpt lat="42.368309" lon="2.325833">
        <ele>1866.40</ele>
        <time>2014-05-18T12:03:53.60Z</time>
      </trkpt>
      <trkpt lat="42.368393" lon="2.326054">
        <ele>1865.80</ele>
        <time>2014-05-18T17:46:56.41Z</time>
      </trkpt>
      <trkpt lat="42.368434" lon="2.326187">
        <ele>1865.40</ele>
        <time>2014-05-18T21:05:51.56Z</time>
      </trkpt>
      <trkpt lat="42.368449" lon="2.326389">
        <ele>1865.20</ele>
        <time>2014-05-19T01:46:05.09Z</time>
      </trkpt>
      <trkpt lat="42.368463" lon="2.326448">
        <ele>1865.20</ele>
        <time>2014-05-19T03:11:37.18Z</time>
      </trkpt>
      <trkpt lat="42.368518" lon="2.326704">
        <ele>1864.40</ele>
        <time>2014-05-19T09:19:36.78Z</time>
      </trkpt>
      <trkpt lat="42.368609" lon="2.326939">
        <ele>1864.20</ele>
        <time>2014-05-19T15:25:50.14Z</time>
      </trkpt>
      <trkpt lat="42.368744" lon="2.327178">
        <ele>1865.40</ele>
        <time>2014-05-19T22:21:05.57Z</time>
      </trkpt>
      <trkpt lat="42.368767" lon="2.327212">
        <ele>1865.60</ele>
        <time>2014-05-19T23:24:43.37Z</time>
      </trkpt>
      <trkpt lat="42.368866" lon="2.327332">
        <ele>1866.80</ele>
        <time>2014-05-20T03:33:00.22Z</time>
      </trkpt>
      <trkpt lat="42.368911" lon="2.327393">
        <ele>1867.40</ele>
        <time>2014-05-20T05:31:59.24Z</time>
      </trkpt>
      <trkpt lat="42.369028" lon="2.327528">
        <ele>1867.60</ele>
        <time>2014-05-20T10:19:13.02Z</time>
      </trkpt>
      <trkpt lat="42.369092" lon="2.327615">
        <ele>1867.20</ele>
        <time>2014-05-20T13:08:40.62Z</time>
      </trkpt>
      <trkpt lat="42.369156" lon="2.327748">
        <ele>1867.80</ele>
        <time>2014-05-20T16:47:45.57Z</time>
      </trkpt>
      <trkpt lat="42.369187" lon="2.327822">
        <ele>1867.80</ele>
        <time>2014-05-20T18:45:10.64Z</time>
      </trkpt>
      <trkpt lat="42.369308" lon="2.328123">
        <ele>1867.40</ele>
        <time>2014-05-21T02:38:09.61Z</time>
      </trkpt>
      <trkpt lat="42.369339" lon="2.328184">
        <ele>1866.80</ele>
        <time>2014-05-21T04:20:21.17Z</time>
      </trkpt>
      <trkpt lat="42.369505" lon="2.328415">
        <ele>1865.80</ele>
        <time>2014-05-21T11:45:08.72Z</time>
      </trkpt>
      <trkpt lat="42.369551" lon="2.328464">
        <ele>1865.80</ele>
        <time>2014-05-21T13:34:30.36Z</time>
      </trkpt>
      <trkpt lat="42.369601" lon="2.328510">
        <ele>1865.80</ele>
        <time>2014-05-21T15:27:27.19Z</time>
      </trkpt>
      <trkpt lat="42.369791" lon="2.328700">
        <ele>1865.00</ele>
        <time>2014-05-21T22:48:47.24Z</time>
      </trkpt>
      <trkpt lat="42.369833" lon="2.328751">
        <ele>1865.00</ele>
        <time>2014-05-22T00:34:12.09Z</time>
      </trkpt>
      <trkpt lat="42.369948" lon="2.328898">
        <ele>1864.60</ele>
        <time>2014-05-22T05:29:42.82Z</time>
      </trkpt>
      <trkpt lat="42.370007" lon="2.329029">
        <ele>1864.20</ele>
        <time>2014-05-22T09:01:28.62Z</time>
      </trkpt>
      <trkpt lat="42.370042" lon="2.329350">
        <ele>1863.40</ele>
        <time>2014-05-22T16:29:20.49Z</time>
      </trkpt>
      <trkpt lat="42.370075" lon="2.329743">
        <ele>1862.20</ele>
        <time>2014-05-23T01:35:16.68Z</time>
      </trkpt>
      <trkpt lat="42.370092" lon="2.329817">
        <ele>1861.60</ele>
        <time>2014-05-23T03:22:14.49Z</time>
      </trkpt>
      <trkpt lat="42.370117" lon="2.329957">
        <ele>1860.80</ele>
        <time>2014-05-23T06:41:02.56Z</time>
      </trkpt>
      <trkpt lat="42.370162" lon="2.330213">
        <ele>1861.00</ele>
        <time>2014-05-23T12:44:15.23Z</time>
      </trkpt>
      <trkpt lat="42.370242" lon="2.330413">
        <ele>1862.00</ele>
        <time>2014-05-23T17:58:10.14Z</time>
      </trkpt>
      <trkpt lat="42.370259" lon="2.330448">
        <ele>1862.40</ele>
        <time>2014-05-23T18:55:58.99Z</time>
      </trkpt>
      <trkpt lat="42.370294" lon="2.330512">
        <ele>1863.20</ele>
        <time>2014-05-23T20:45:53.25Z</time>
      </trkpt>
      <trkpt lat="42.370351" lon="2.330581">
        <ele>1864.20</ele>
        <time>2014-05-23T23:08:45.11Z</time>
      </trkpt>
      <trkpt lat="42.370369" lon="2.330599">
        <ele>1864.40</ele>
        <time>2014-05-23T23:50:33.74Z</time>
      </trkpt>
      <trkpt lat="42.370420" lon="2.330655">
        <ele>1865.60</ele>
        <time>2014-05-24T01:53:15.11Z</time>
      </trkpt>
      <trkpt lat="42.370466" lon="2.330701">
        <ele>1867.00</ele>
        <time>2014-05-24T03:40:06.04Z</time>
      </trkpt>
      <trkpt lat="42.370492" lon="2.330739">
        <ele>1868.00</ele>
        <time>2014-05-24T04:51:35.27Z</time>
      </trkpt>
      <trkpt lat="42.370532" lon="2.330795">
        <ele>1869.20</ele>
        <time>2014-05-24T06:39:06Z</time>
      </trkpt>
      <trkpt lat="42.370542" lon="2.330815">
        <ele>1869.80</ele>
        <time>2014-05-24T07:12:25.96Z</time>
      </trkpt>
      <trkpt lat="42.370564" lon="2.330858">
        <ele>1870.60</ele>
        <time>2014-05-24T08:24:37.55Z</time>
      </trkpt>
      <trkpt lat="42.370586" lon="2.330937">
        <ele>1871.60</ele>
        <time>2014-05-24T10:21:09.29Z</time>
      </trkpt>
      <trkpt lat="42.370602" lon="2.331022">
        <ele>1873.00</ele>
        <time>2014-05-24T12:22:13.47Z</time>
      </trkpt>
      <trkpt lat="42.370603" lon="2.331045">
        <ele>1873.40</ele>
        <time>2014-05-24T12:54:01.52Z</time>
      </trkpt>
      <trkpt lat="42.370618" lon="2.331091">
        <ele>1874.20</ele>
        <time>2014-05-24T14:03:25.58Z</time>
      </trkpt>
      <trkpt lat="42.370624" lon="2.331190">
        <ele>1875.20</ele>
        <time>2014-05-24T16:20:31.82Z</time>
      </trkpt>
      <trkpt lat="42.370626" lon="2.331218">
        <ele>1875.20</ele>
        <time>2014-05-24T16:59:21.46Z</time>
      </trkpt>
      <trkpt lat="42.370692" lon="2.331399">
        <ele>1874.60</ele>
        <time>2014-05-24T21:37:57.31Z</time>
      </trkpt>
      <trkpt lat="42.370724" lon="2.331419">
        <ele>1874.20</ele>
        <time>2014-05-24T22:43:48.25Z</time>
      </trkpt>
      <trkpt lat="42.370800" lon="2.331446">
        <ele>1873.20</ele>
        <time>2014-05-25T01:10:35.95Z</time>
      </trkpt>
      <trkpt lat="42.370839" lon="2.331463">
        <ele>1872.60</ele>
        <time>2014-05-25T02:27:08.72Z</time>
      </trkpt>
      <trkpt lat="42.370885" lon="2.331482">
        <ele>1872.20</ele>
        <time>2014-05-25T03:56:59.78Z</time>
      </trkpt>
      <trkpt lat="42.370976" lon="2.331531">
        <ele>1870.80</ele>
        <time>2014-05-25T06:59:57.85Z</time>
      </trkpt>
      <trkpt lat="42.371011" lon="2.331586">
        <ele>1870.20</ele>
        <time>2014-05-25T08:40:09.38Z</time>
      </trkpt>
      <trkpt lat="42.371040" lon="2.331664">
        <ele>1869.40</ele>
        <time>2014-05-25T10:40:40.76Z</time>
      </trkpt>
      <trkpt lat="42.371077" lon="2.331861">
        <ele>1865.80</ele>
        <time>2014-05-25T15:21:14.17Z</time>
      </trkpt>
      <trkpt lat="42.371096" lon="2.331973">
        <ele>1863.80</ele>
        <time>2014-05-25T17:59:50.78Z</time>
      </trkpt>
      <trkpt lat="42.371124" lon="2.332091">
        <ele>1861.80</ele>
        <time>2014-05-25T20:50:54.56Z</time>
      </trkpt>
      <trkpt lat="42.371145" lon="2.332204">
        <ele>1858.80</ele>
        <time>2014-05-25T23:31:44.12Z</time>
      </trkpt>
      <trkpt lat="42.371162" lon="2.332301">
        <ele>1856.40</ele>
        <time>2014-05-26T01:49:20.06Z</time>
      </trkpt>
      <trkpt lat="42.371185" lon="2.332380">
        <ele>1854.00</ele>
        <time>2014-05-26T03:46:32.06Z</time>
      </trkpt>
      <trkpt lat="42.371219" lon="2.332445">
        <ele>1852.60</ele>
        <time>2014-05-26T05:36:27.61Z</time>
      </trkpt>
      <trkpt lat="42.371260" lon="2.332504">
        <ele>1851.00</ele>
        <time>2014-05-26T07:28:15.46Z</time>
      </trkpt>
      <trkpt lat="42.371309" lon="2.332549">
        <ele>1849.40</ele>
        <time>2014-05-26T09:18:52.98Z</time>
      </trkpt>
      <trkpt lat="42.371371" lon="2.332594">
        <ele>1848.20</ele>
        <time>2014-05-26T11:30:18.91Z</time>
      </trkpt>
      <trkpt lat="42.371437" lon="2.332632">
        <ele>1846.80</ele>
        <time>2014-05-26T13:44:18.60Z</time>
      </trkpt>
      <trkpt lat="42.371546" lon="2.332735">
        <ele>1845.60</ele>
        <time>2014-05-26T17:52:39.74Z</time>
      </trkpt>
      <trkpt lat="42.371585" lon="2.332798">
        <ele>1845.40</ele>
        <time>2014-05-26T19:46:06.46Z</time>
      </trkpt>
      <trkpt lat="42.371631" lon="2.332852">
        <ele>1845.00</ele>
        <time>2014-05-26T21:39:51.85Z</time>
      </trkpt>
      <trkpt lat="42.371666" lon="2.332913">
        <ele>1844.80</ele>
        <time>2014-05-26T23:26:28.05Z</time>
      </trkpt>
      <trkpt lat="42.371704" lon="2.332966">
        <ele>1844.40</ele>
        <time>2014-05-27T01:08:24.29Z</time>
      </trkpt>
      <trkpt lat="42.371749" lon="2.333014">
        <ele>1843.80</ele>
        <time>2014-05-27T02:55:26.54Z</time>
      </trkpt>
      <trkpt lat="42.371802" lon="2.333055">
        <ele>1843.00</ele>
        <time>2014-05-27T04:49:29.33Z</time>
      </trkpt>
      <trkpt lat="42.371900" lon="2.333179">
        <ele>1841.60</ele>
        <time>2014-05-27T09:00:06.78Z</time>
      </trkpt>
      <trkpt lat="42.371995" lon="2.333326">
        <ele>1840.40</ele>
        <time>2014-05-27T13:29:40.69Z</time>
      </trkpt>
      <trkpt lat="42.372067" lon="2.333481">
        <ele>1838.20</ele>
        <time>2014-05-27T17:42:23.21Z</time>
      </trkpt>
      <trkpt lat="42.372140" lon="2.333715">
        <ele>1837.00</ele>
        <time>2014-05-27T23:32:58.35Z</time>
      </trkpt>
      <trkpt lat="42.372190" lon="2.333866">
        <ele>1836.00</ele>
        <time>2014-05-28T03:21:21.72Z</time>
      </trkpt>
      <trkpt lat="42.372222" lon="2.333935">
        <ele>1835.40</ele>
        <time>2014-05-28T05:13:48.39Z</time>
      </trkpt>
      <trkpt lat="42.372262" lon="2.333993">
        <ele>1835.00</ele>
        <time>2014-05-28T07:03:19.12Z</time>
      </trkpt>
      <trkpt lat="42.372313" lon="2.334046">
        <ele>1834.80</ele>
        <time>2014-05-28T09:03:26.46Z</time>
      </trkpt>
      <trkpt lat="42.372425" lon="2.334108">
        <ele>1833.40</ele>
        <time>2014-05-28T12:49:30.32Z</time>
      </trkpt>
      <trkpt lat="42.372545" lon="2.334150">
        <ele>1831.60</ele>
        <time>2014-05-28T16:41:04Z</time>
      </trkpt>
      <trkpt lat="42.372609" lon="2.334156">
        <ele>1830.60</ele>
        <time>2014-05-28T18:40:55.20Z</time>
      </trkpt>
      <trkpt lat="42.372741" lon="2.334143">
        <ele>1829.00</ele>
        <time>2014-05-28T22:48:10.72Z</time>
      </trkpt>
      <trkpt lat="42.372811" lon="2.334142">
        <ele>1828.20</ele>
        <time>2014-05-29T00:58:57.74Z</time>
      </trkpt>
      <trkpt lat="42.372883" lon="2.334138">
        <ele>1827.40</ele>
        <time>2014-05-29T03:13:35.30Z</time>
      </trkpt>
      <trkpt lat="42.372959" lon="2.334134">
        <ele>1826.40</ele>
        <time>2014-05-29T05:35:40.89Z</time>
      </trkpt>
      <trkpt lat="42.373039" lon="2.334154">
        <ele>1825.60</ele>
        <time>2014-05-29T08:07:40.07Z</time>
      </trkpt>
      <trkpt lat="42.373112" lon="2.334178">
        <ele>1824.60</ele>
        <time>2014-05-29T10:28:00.84Z</time>
      </trkpt>
      <trkpt lat="42.373184" lon="2.334217">
        <ele>1823.40</ele>
        <time>2014-05-29T12:52:53.83Z</time>
      </trkpt>
      <trkpt lat="42.373251" lon="2.334277">
        <ele>1822.40</ele>
        <time>2014-05-29T15:22:58.97Z</time>
      </trkpt>
      <trkpt lat="42.373367" lon="2.334421">
        <ele>1820.00</ele>
        <time>2014-05-29T20:17:02.05Z</time>
      </trkpt>
      <trkpt lat="42.373444" lon="2.334527">
        <ele>1818.60</ele>
        <time>2014-05-29T23:42:12.69Z</time>
      </trkpt>
      <trkpt lat="42.373489" lon="2.334590">
        <ele>1818.20</ele>
        <time>2014-05-30T01:43:09.59Z</time>
      </trkpt>
      <trkpt lat="42.373542" lon="2.334654">
        <ele>1817.60</ele>
        <time>2014-05-30T03:55:51.03Z</time>
      </trkpt>
      <trkpt lat="42.373649" lon="2.334811">
        <ele>1816.00</ele>
        <time>2014-05-30T08:50:39.81Z</time>
      </trkpt>
      <trkpt lat="42.373710" lon="2.334879">
        <ele>1815.00</ele>
        <time>2014-05-30T11:18:17.83Z</time>
      </trkpt>
      <trkpt lat="42.373774" lon="2.334928">
        <ele>1813.80</ele>
        <time>2014-05-30T13:35:39.90Z</time>
      </trkpt>
      <trkpt lat="42.373902" lon="2.335031">
        <ele>1811.60</ele>
        <time>2014-05-30T18:13:51.78Z</time>
      </trkpt>
      <trkpt lat="42.373960" lon="2.335078">
        <ele>1811.00</ele>
        <time>2014-05-30T20:20:09.21Z</time>
      </trkpt>
      <trkpt lat="42.374018" lon="2.335126">
        <ele>1810.00</ele>
        <time>2014-05-30T22:27:09.50Z</time>
      </trkpt>
      <trkpt lat="42.374080" lon="2.335172">
        <ele>1809.00</ele>
        <time>2014-05-31T00:39:14.82Z</time>
      </trkpt>
      <trkpt lat="42.374136" lon="2.335232">
        <ele>1807.80</ele>
        <time>2014-05-31T02:52:40.53Z</time>
      </trkpt>
      <trkpt lat="42.374200" lon="2.335301">
        <ele>1806.60</ele>
        <time>2014-05-31T05:25:31.98Z</time>
      </trkpt>
      <trkpt lat="42.374261" lon="2.335370">
        <ele>1805.40</ele>
        <time>2014-05-31T07:54:02.84Z</time>
      </trkpt>
      <trkpt lat="42.374327" lon="2.335444">
        <ele>1804.20</ele>
        <time>2014-05-31T10:34:09.37Z</time>
      </trkpt>
      <trkpt lat="42.374397" lon="2.335536">
        <ele>1802.80</ele>
        <time>2014-05-31T13:36:26.05Z</time>
      </trkpt>
      <trkpt lat="42.374467" lon="2.335636">
        <ele>1801.80</ele>
        <time>2014-05-31T16:46:34.12Z</time>
      </trkpt>
      <trkpt lat="42.374518" lon="2.335745">
        <ele>1800.80</ele>
        <time>2014-05-31T19:44:38.49Z</time>
      </trkpt>
      <trkpt lat="42.374571" lon="2.335840">
        <ele>1800.20</ele>
        <time>2014-05-31T22:28:56.69Z</time>
      </trkpt>
      <trkpt lat="42.374653" lon="2.335961">
        <ele>1799.40</ele>
        <time>2014-06-01T02:15:34.04Z</time>
      </trkpt>
      <trkpt lat="42.374690" lon="2.336001">
        <ele>1798.80</ele>
        <time>2014-06-01T03:44:01.91Z</time>
      </trkpt>
      <trkpt lat="42.374781" lon="2.336098">
        <ele>1797.40</ele>
        <time>2014-06-01T07:20:25.48Z</time>
      </trkpt>
      <trkpt lat="42.374829" lon="2.336155">
        <ele>1796.20</ele>
        <time>2014-06-01T09:19:42.98Z</time>
      </trkpt>
      <trkpt lat="42.374892" lon="2.336213">
        <ele>1795.00</ele>
        <time>2014-06-01T11:42:03.42Z</time>
      </trkpt>
      <trkpt lat="42.374942" lon="2.336252">
        <ele>1794.00</ele>
        <time>2014-06-01T13:29:52.02Z</time>
      </trkpt>
      <trkpt lat="42.374989" lon="2.336276">
        <ele>1792.60</ele>
        <time>2014-06-01T15:03:42.84Z</time>
      </trkpt>
      <trkpt lat="42.375032" lon="2.336285">
        <ele>1791.40</ele>
        <time>2014-06-01T16:25:00.16Z</time>
      </trkpt>
      <trkpt lat="42.375072" lon="2.336274">
        <ele>1789.60</ele>
        <time>2014-06-01T17:41:15.51Z</time>
      </trkpt>
      <trkpt lat="42.375084" lon="2.336229">
        <ele>1788.40</ele>
        <time>2014-06-01T18:47:17.27Z</time>
      </trkpt>
      <trkpt lat="42.375079" lon="2.336204">
        <ele>1788.00</ele>
        <time>2014-06-01T19:23:02.03Z</time>
      </trkpt>
      <trkpt lat="42.375004" lon="2.336011">
        <ele>1787.40</ele>
        <time>2014-06-02T00:24:00.53Z</time>
      </trkpt>
      <trkpt lat="42.374974" lon="2.335925">
        <ele>1786.80</ele>
        <time>2014-06-02T02:35:16.18Z</time>
      </trkpt>
      <trkpt lat="42.374934" lon="2.335827">
        <ele>1786.20</ele>
        <time>2014-06-02T05:09:47.78Z</time>
      </trkpt>
      <trkpt lat="42.374891" lon="2.335734">
        <ele>1785.80</ele>
        <time>2014-06-02T07:41:13.07Z</time>
      </trkpt>
      <trkpt lat="42.374809" lon="2.335515">
        <ele>1784.80</ele>
        <time>2014-06-02T13:20:04.74Z</time>
      </trkpt>
      <trkpt lat="42.374776" lon="2.335402">
        <ele>1784.00</ele>
        <time>2014-06-02T16:07:46.85Z</time>
      </trkpt>
      <trkpt lat="42.374709" lon="2.335165">
        <ele>1782.00</ele>
        <time>2014-06-02T21:58:00.67Z</time>
      </trkpt>
      <trkpt lat="42.374647" lon="2.334951">
        <ele>1780.80</ele>
        <time>2014-06-03T03:15:16.02Z</time>
      </trkpt>
      <trkpt lat="42.374621" lon="2.334851">
        <ele>1779.60</ele>
        <time>2014-06-03T05:41:34.90Z</time>
      </trkpt>
      <trkpt lat="42.374564" lon="2.334664">
        <ele>1778.20</ele>
        <time>2014-06-03T10:20:46.72Z</time>
      </trkpt>
      <trkpt lat="42.374501" lon="2.334507">
        <ele>1776.40</ele>
        <time>2014-06-03T14:27:22.03Z</time>
      </trkpt>
      <trkpt lat="42.374373" lon="2.334237">
        <ele>1775.40</ele>
        <time>2014-06-03T21:50:08.53Z</time>
      </trkpt>
      <trkpt lat="42.374272" lon="2.334042">
        <ele>1773.60</ele>
        <time>2014-06-04T03:18:49.95Z</time>
      </trkpt>
      <trkpt lat="42.374244" lon="2.333967">
        <ele>1772.60</ele>
        <time>2014-06-04T05:14:48.74Z</time>
      </trkpt>
      <trkpt lat="42.374200" lon="2.333850">
        <ele>1771.00</ele>
        <time>2014-06-04T08:16:00.68Z</time>
      </trkpt>
      <trkpt lat="42.374200" lon="2.333764">
        <ele>1769.60</ele>
        <time>2014-06-04T10:14:42.38Z</time>
      </trkpt>
      <trkpt lat="42.374219" lon="2.333749">
        <ele>1769.00</ele>
        <time>2014-06-04T10:55:47.93Z</time>
      </trkpt>
      <trkpt lat="42.374256" lon="2.333757">
        <ele>1768.40</ele>
        <time>2014-06-04T12:05:47.99Z</time>
      </trkpt>
      <trkpt lat="42.374306" lon="2.333840">
        <ele>1768.00</ele>
        <time>2014-06-04T14:33:36.72Z</time>
      </trkpt>
      <trkpt lat="42.374390" lon="2.334011">
        <ele>1767.20</ele>
        <time>2014-06-04T19:17:02.02Z</time>
      </trkpt>
      <trkpt lat="42.374423" lon="2.334069">
        <ele>1766.60</ele>
        <time>2014-06-04T20:58:04.37Z</time>
      </trkpt>
      <trkpt lat="42.374490" lon="2.334201">
        <ele>1765.80</ele>
        <time>2014-06-05T00:39:06.72Z</time>
      </trkpt>
      <trkpt lat="42.374613" lon="2.334390">
        <ele>1764.80</ele>
        <time>2014-06-05T06:26:44.65Z</time>
      </trkpt>
      <trkpt lat="42.374775" lon="2.334667">
        <ele>1763.60</ele>
        <time>2014-06-05T14:34:20.83Z</time>
      </trkpt>
      <trkpt lat="42.374862" lon="2.334796">
        <ele>1762.60</ele>
        <time>2014-06-05T18:35:25.25Z</time>
      </trkpt>
      <trkpt lat="42.374902" lon="2.334859">
        <ele>1762.40</ele>
        <time>2014-06-05T20:30:04.29Z</time>
      </trkpt>
      <trkpt lat="42.375092" lon="2.335093">
        <ele>1761.00</ele>
        <time>2014-06-06T04:29:58.08Z</time>
      </trkpt>
      <trkpt lat="42.375142" lon="2.335155">
        <ele>1760.60</ele>
        <time>2014-06-06T06:36:38.90Z</time>
      </trkpt>
      <trkpt lat="42.375338" lon="2.335399">
        <ele>1759.20</ele>
        <time>2014-06-06T14:54:07.83Z</time>
      </trkpt>
      <trkpt lat="42.375392" lon="2.335457">
        <ele>1758.60</ele>
        <time>2014-06-06T17:02:54.90Z</time>
      </trkpt>
      <trkpt lat="42.375444" lon="2.335518">
        <ele>1758.00</ele>
        <time>2014-06-06T19:11:28.01Z</time>
      </trkpt>
      <trkpt lat="42.375496" lon="2.335586">
        <ele>1757.80</ele>
        <time>2014-06-06T21:26:32.58Z</time>
      </trkpt>
      <trkpt lat="42.375588" lon="2.335748">
        <ele>1757.00</ele>
        <time>2014-06-07T02:08:33.37Z</time>
      </trkpt>
      <trkpt lat="42.375628" lon="2.335847">
        <ele>1756.60</ele>
        <time>2014-06-07T04:44:17.46Z</time>
      </trkpt>
      <trkpt lat="42.375654" lon="2.335922">
        <ele>1756.20</ele>
        <time>2014-06-07T06:38:37.93Z</time>
      </trkpt>
      <trkpt lat="42.375692" lon="2.335986">
        <ele>1755.60</ele>
        <time>2014-06-07T08:31:57.29Z</time>
      </trkpt>
      <trkpt lat="42.375800" lon="2.336070">
        <ele>1754.80</ele>
        <time>2014-06-07T12:24:39.51Z</time>
      </trkpt>
      <trkpt lat="42.376057" lon="2.336229">
        <ele>1754.40</ele>
        <time>2014-06-07T21:12:33.90Z</time>
      </trkpt>
      <trkpt lat="42.376128" lon="2.336242">
        <ele>1754.00</ele>
        <time>2014-06-07T23:26:25.04Z</time>
      </trkpt>
      <trkpt lat="42.376332" lon="2.336291">
        <ele>1753.40</ele>
        <time>2014-06-08T05:53:29.42Z</time>
      </trkpt>
      <trkpt lat="42.376402" lon="2.336316">
        <ele>1753.40</ele>
        <time>2014-06-08T08:08:44.50Z</time>
      </trkpt>
      <trkpt lat="42.376541" lon="2.336338">
        <ele>1752.60</ele>
        <time>2014-06-08T12:30:11.71Z</time>
      </trkpt>
      <trkpt lat="42.376609" lon="2.336333">
        <ele>1752.20</ele>
        <time>2014-06-08T14:37:25.34Z</time>
      </trkpt>
      <trkpt lat="42.376682" lon="2.336325">
        <ele>1752.00</ele>
        <time>2014-06-08T16:54:14.97Z</time>
      </trkpt>
      <trkpt lat="42.376841" lon="2.336330">
        <ele>1750.80</ele>
        <time>2014-06-08T21:51:22.73Z</time>
      </trkpt>
      <trkpt lat="42.376923" lon="2.336324">
        <ele>1749.80</ele>
        <time>2014-06-09T00:24:47.86Z</time>
      </trkpt>
      <trkpt lat="42.377076" lon="2.336312">
        <ele>1749.20</ele>
        <time>2014-06-09T05:11:07Z</time>
      </trkpt>
      <trkpt lat="42.377212" lon="2.336300">
        <ele>1748.40</ele>
        <time>2014-06-09T09:25:44.14Z</time>
      </trkpt>
      <trkpt lat="42.377269" lon="2.336269">
        <ele>1747.80</ele>
        <time>2014-06-09T11:20:29.87Z</time>
      </trkpt>
      <trkpt lat="42.377326" lon="2.336238">
        <ele>1747.40</ele>
        <time>2014-06-09T13:15:15.61Z</time>
      </trkpt>
      <trkpt lat="42.377369" lon="2.336217">
        <ele>1747.00</ele>
        <time>2014-06-09T14:40:39.74Z</time>
      </trkpt>
      <trkpt lat="42.377472" lon="2.336195">
        <ele>1746.00</ele>
        <time>2014-06-09T17:55:28.26Z</time>
      </trkpt>
      <trkpt lat="42.377556" lon="2.336152">
        <ele>1744.60</ele>
        <time>2014-06-09T20:43:14.91Z</time>
      </trkpt>
      <trkpt lat="42.377687" lon="2.336068">
        <ele>1743.80</ele>
        <time>2014-06-10T01:14:03.32Z</time>
      </trkpt>
      <trkpt lat="42.377736" lon="2.336056">
        <ele>1743.60</ele>
        <time>2014-06-10T02:47:05.09Z</time>
      </trkpt>
      <trkpt lat="42.377855" lon="2.336018">
        <ele>1742.80</ele>
        <time>2014-06-10T06:35:30.38Z</time>
      </trkpt>
      <trkpt lat="42.377927" lon="2.335990">
        <ele>1742.40</ele>
        <time>2014-06-10T08:55:27.58Z</time>
      </trkpt>
      <trkpt lat="42.378000" lon="2.335952">
        <ele>1741.20</ele>
        <time>2014-06-10T11:21:34.59Z</time>
      </trkpt>
      <trkpt lat="42.378078" lon="2.335917">
        <ele>1740.40</ele>
        <time>2014-06-10T13:55:05.74Z</time>
      </trkpt>
      <trkpt lat="42.378152" lon="2.335873">
        <ele>1739.60</ele>
        <time>2014-06-10T16:26:05.59Z</time>
      </trkpt>
      <trkpt lat="42.378284" lon="2.335820">
        <ele>1738.00</ele>
        <time>2014-06-10T20:43:19.13Z</time>
      </trkpt>
      <trkpt lat="42.378374" lon="2.335776">
        <ele>1736.40</ele>
        <time>2014-06-10T23:42:05.34Z</time>
      </trkpt>
      <trkpt lat="42.378377" lon="2.335705">
        <ele>1735.20</ele>
        <time>2014-06-11T01:20:14.10Z</time>
      </trkpt>
      <trkpt lat="42.378344" lon="2.335678">
        <ele>1734.80</ele>
        <time>2014-06-11T02:32:16.35Z</time>
      </trkpt>
      <trkpt lat="42.378183" lon="2.335712">
        <ele>1734.20</ele>
        <time>2014-06-11T07:36:41.77Z</time>
      </trkpt>
      <trkpt lat="42.378111" lon="2.335725">
        <ele>1734.00</ele>
        <time>2014-06-11T09:52:24.01Z</time>
      </trkpt>
      <trkpt lat="42.377950" lon="2.335701">
        <ele>1732.80</ele>
        <time>2014-06-11T14:55:00.24Z</time>
      </trkpt>
      <trkpt lat="42.377868" lon="2.335690">
        <ele>1732.20</ele>
        <time>2014-06-11T17:28:56.97Z</time>
      </trkpt>
      <trkpt lat="42.377785" lon="2.335674">
        <ele>1731.60</ele>
        <time>2014-06-11T20:05:34.63Z</time>
      </trkpt>
      <trkpt lat="42.377619" lon="2.335655">
        <ele>1730.20</ele>
        <time>2014-06-12T01:16:48.63Z</time>
      </trkpt>
      <trkpt lat="42.377458" lon="2.335644">
        <ele>1729.00</ele>
        <time>2014-06-12T06:17:58.74Z</time>
      </trkpt>
      <trkpt lat="42.377379" lon="2.335634">
        <ele>1728.80</ele>
        <time>2014-06-12T08:46:12.80Z</time>
      </trkpt>
      <trkpt lat="42.377228" lon="2.335638">
        <ele>1727.60</ele>
        <time>2014-06-12T13:28:22.23Z</time>
      </trkpt>
      <trkpt lat="42.376998" lon="2.335614">
        <ele>1726.60</ele>
        <time>2014-06-12T20:39:20.34Z</time>
      </trkpt>
      <trkpt lat="42.376926" lon="2.335581">
        <ele>1726.40</ele>
        <time>2014-06-12T23:01:21.17Z</time>
      </trkpt>
      <trkpt lat="42.376799" lon="2.335477">
        <ele>1725.40</ele>
        <time>2014-06-13T03:38:39.29Z</time>
      </trkpt>
      <trkpt lat="42.376738" lon="2.335404">
        <ele>1725.20</ele>
        <time>2014-06-13T06:10:45.93Z</time>
      </trkpt>
      <trkpt lat="42.376673" lon="2.335334">
        <ele>1724.80</ele>
        <time>2014-06-13T08:45:56.51Z</time>
      </trkpt>
      <trkpt lat="42.376531" lon="2.335183">
        <ele>1723.60</ele>
        <time>2014-06-13T14:23:17.79Z</time>
      </trkpt>
      <trkpt lat="42.376389" lon="2.335045">
        <ele>1722.20</ele>
        <time>2014-06-13T19:49:52.39Z</time>
      </trkpt>
      <trkpt lat="42.376265" lon="2.334891">
        <ele>1721.00</ele>
        <time>2014-06-14T01:04:15.67Z</time>
      </trkpt>
      <trkpt lat="42.376214" lon="2.334809">
        <ele>1720.40</ele>
        <time>2014-06-14T03:32:11.99Z</time>
      </trkpt>
      <trkpt lat="42.376167" lon="2.334734">
        <ele>1720.00</ele>
        <time>2014-06-14T05:47:56.17Z</time>
      </trkpt>
      <trkpt lat="42.376127" lon="2.334675">
        <ele>1719.20</ele>
        <time>2014-06-14T07:38:27.44Z</time>
      </trkpt>
      <trkpt lat="42.376086" lon="2.334621">
        <ele>1718.80</ele>
        <time>2014-06-14T09:25:19.73Z</time>
      </trkpt>
      <trkpt lat="42.376065" lon="2.334570">
        <ele>1718.20</ele>
        <time>2014-06-14T10:45:54.67Z</time>
      </trkpt>
      <trkpt lat="42.376036" lon="2.334523">
        <ele>1717.60</ele>
        <time>2014-06-14T12:10:25.63Z</time>
      </trkpt>
      <trkpt lat="42.375963" lon="2.334426">
        <ele>1716.60</ele>
        <time>2014-06-14T15:21:32.04Z</time>
      </trkpt>
      <trkpt lat="42.375883" lon="2.334304">
        <ele>1715.80</ele>
        <time>2014-06-14T19:06:40.51Z</time>
      </trkpt>
      <trkpt lat="42.375871" lon="2.334229">
        <ele>1715.40</ele>
        <time>2014-06-14T20:52:35.13Z</time>
      </trkpt>
      <trkpt lat="42.375860" lon="2.334052">
        <ele>1714.80</ele>
        <time>2014-06-15T00:57:43.96Z</time>
      </trkpt>
      <trkpt lat="42.375824" lon="2.333876">
        <ele>1714.20</ele>
        <time>2014-06-15T05:09:46.57Z</time>
      </trkpt>
      <trkpt lat="42.375815" lon="2.333677">
        <ele>1713.60</ele>
        <time>2014-06-15T09:44:56.28Z</time>
      </trkpt>
      <trkpt lat="42.375811" lon="2.333480">
        <ele>1712.80</ele>
        <time>2014-06-15T14:16:55.68Z</time>
      </trkpt>
      <trkpt lat="42.375790" lon="2.333182">
        <ele>1711.80</ele>
        <time>2014-06-15T21:10:04.58Z</time>
      </trkpt>
      <trkpt lat="42.375779" lon="2.333084">
        <ele>1711.40</ele>
        <time>2014-06-15T23:26:52.94Z</time>
      </trkpt>
      <trkpt lat="42.375777" lon="2.332886">
        <ele>1710.60</ele>
        <time>2014-06-16T04:00:10.53Z</time>
      </trkpt>
      <trkpt lat="42.375803" lon="2.332697">
        <ele>1709.80</ele>
        <time>2014-06-16T08:25:30.35Z</time>
      </trkpt>
      <trkpt lat="42.375826" lon="2.332607">
        <ele>1709.40</ele>
        <time>2014-06-16T10:36:56.44Z</time>
      </trkpt>
      <trkpt lat="42.375836" lon="2.332465">
        <ele>1709.00</ele>
        <time>2014-06-16T13:53:48.53Z</time>
      </trkpt>
      <trkpt lat="42.375827" lon="2.332396">
        <ele>1708.80</ele>
        <time>2014-06-16T15:30:30.68Z</time>
      </trkpt>
      <trkpt lat="42.375809" lon="2.332320">
        <ele>1708.40</ele>
        <time>2014-06-16T17:20:39.64Z</time>
      </trkpt>
      <trkpt lat="42.375724" lon="2.332182">
        <ele>1707.20</ele>
        <time>2014-06-16T21:28:38.20Z</time>
      </trkpt>
      <trkpt lat="42.375678" lon="2.332109">
        <ele>1707.00</ele>
        <time>2014-06-16T23:41:03.64Z</time>
      </trkpt>
      <trkpt lat="42.375645" lon="2.332018">
        <ele>1706.40</ele>
        <time>2014-06-17T02:00:58.17Z</time>
      </trkpt>
      <trkpt lat="42.375619" lon="2.331924">
        <ele>1706.00</ele>
        <time>2014-06-17T04:19:29.90Z</time>
      </trkpt>
      <trkpt lat="42.375600" lon="2.331828">
        <ele>1705.20</ele>
        <time>2014-06-17T06:36:39.87Z</time>
      </trkpt>
      <trkpt lat="42.375577" lon="2.331733">
        <ele>1705.00</ele>
        <time>2014-06-17T08:54:38.38Z</time>
      </trkpt>
      <trkpt lat="42.375566" lon="2.331631">
        <ele>1704.40</ele>
        <time>2014-06-17T11:16:54.39Z</time>
      </trkpt>
      <trkpt lat="42.375567" lon="2.331527">
        <ele>1703.80</ele>
        <time>2014-06-17T13:40:27.22Z</time>
      </trkpt>
      <trkpt lat="42.375572" lon="2.331424">
        <ele>1703.00</ele>
        <time>2014-06-17T16:02:54.90Z</time>
      </trkpt>
      <trkpt lat="42.375567" lon="2.331320">
        <ele>1702.20</ele>
        <time>2014-06-17T18:26:45.22Z</time>
      </trkpt>
      <trkpt lat="42.375531" lon="2.331110">
        <ele>1702.00</ele>
        <time>2014-06-17T23:24:17.12Z</time>
      </trkpt>
      <trkpt lat="42.375514" lon="2.331001">
        <ele>1702.00</ele>
        <time>2014-06-18T01:58:02.23Z</time>
      </trkpt>
      <trkpt lat="42.375500" lon="2.330774">
        <ele>1701.20</ele>
        <time>2014-06-18T07:12:25.20Z</time>
      </trkpt>
      <trkpt lat="42.375462" lon="2.330450">
        <ele>1699.80</ele>
        <time>2014-06-18T14:45:11.26Z</time>
      </trkpt>
      <trkpt lat="42.375414" lon="2.330125">
        <ele>1698.60</ele>
        <time>2014-06-18T22:22:36.70Z</time>
      </trkpt>
      <trkpt lat="42.375413" lon="2.330013">
        <ele>1698.00</ele>
        <time>2014-06-19T00:57:11.97Z</time>
      </trkpt>
      <trkpt lat="42.375393" lon="2.329797">
        <ele>1697.40</ele>
        <time>2014-06-19T05:57:38.63Z</time>
      </trkpt>
      <trkpt lat="42.375378" lon="2.329696">
        <ele>1696.40</ele>
        <time>2014-06-19T08:19:49.67Z</time>
      </trkpt>
      <trkpt lat="42.375331" lon="2.329491">
        <ele>1694.80</ele>
        <time>2014-06-19T13:16:04.23Z</time>
      </trkpt>
      <trkpt lat="42.375296" lon="2.329396">
        <ele>1694.40</ele>
        <time>2014-06-19T15:42:35.11Z</time>
      </trkpt>
      <trkpt lat="42.375264" lon="2.329296">
        <ele>1694.20</ele>
        <time>2014-06-19T18:12:59.52Z</time>
      </trkpt>
      <trkpt lat="42.375243" lon="2.329181">
        <ele>1693.60</ele>
        <time>2014-06-19T20:56:29.18Z</time>
      </trkpt>
      <trkpt lat="42.375208" lon="2.328962">
        <ele>1692.20</ele>
        <time>2014-06-20T02:05:43.89Z</time>
      </trkpt>
      <trkpt lat="42.375198" lon="2.328853">
        <ele>1691.80</ele>
        <time>2014-06-20T04:37:19.43Z</time>
      </trkpt>
      <trkpt lat="42.375200" lon="2.328751">
        <ele>1691.60</ele>
        <time>2014-06-20T06:58:08.93Z</time>
      </trkpt>
      <trkpt lat="42.375186" lon="2.328452">
        <ele>1690.80</ele>
        <time>2014-06-20T13:51:38.55Z</time>
      </trkpt>
      <trkpt lat="42.375167" lon="2.328252">
        <ele>1689.80</ele>
        <time>2014-06-20T18:29:56.76Z</time>
      </trkpt>
      <trkpt lat="42.375119" lon="2.327924">
        <ele>1688.60</ele>
        <time>2014-06-21T02:11:25.97Z</time>
      </trkpt>
      <trkpt lat="42.375106" lon="2.327804">
        <ele>1688.40</ele>
        <time>2014-06-21T04:58:49.36Z</time>
      </trkpt>
      <trkpt lat="42.375090" lon="2.327564">
        <ele>1687.60</ele>
        <time>2014-06-21T10:31:24.34Z</time>
      </trkpt>
      <trkpt lat="42.375046" lon="2.327223">
        <ele>1686.00</ele>
        <time>2014-06-21T18:29:09.81Z</time>
      </trkpt>
      <trkpt lat="42.374994" lon="2.327004">
        <ele>1684.80</ele>
        <time>2014-06-21T23:46:38.78Z</time>
      </trkpt>
      <trkpt lat="42.374924" lon="2.326803">
        <ele>1684.00</ele>
        <time>2014-06-22T04:53:20.27Z</time>
      </trkpt>
      <trkpt lat="42.374878" lon="2.326710">
        <ele>1683.40</ele>
        <time>2014-06-22T07:27:48.36Z</time>
      </trkpt>
      <trkpt lat="42.374691" lon="2.326479">
        <ele>1682.40</ele>
        <time>2014-06-22T15:20:46.30Z</time>
      </trkpt>
      <trkpt lat="42.374618" lon="2.326433">
        <ele>1681.80</ele>
        <time>2014-06-22T17:51:12.36Z</time>
      </trkpt>
      <trkpt lat="42.374538" lon="2.326392">
        <ele>1681.20</ele>
        <time>2014-06-22T20:31:01.09Z</time>
      </trkpt>
      <trkpt lat="42.374466" lon="2.326344">
        <ele>1681.00</ele>
        <time>2014-06-22T23:00:57.59Z</time>
      </trkpt>
      <trkpt lat="42.374337" lon="2.326224">
        <ele>1681.00</ele>
        <time>2014-06-23T03:53:23.07Z</time>
      </trkpt>
      <trkpt lat="42.374288" lon="2.326153">
        <ele>1680.80</ele>
        <time>2014-06-23T06:07:29.04Z</time>
      </trkpt>
      <trkpt lat="42.374113" lon="2.325972">
        <ele>1680.60</ele>
        <time>2014-06-23T12:58:56.40Z</time>
      </trkpt>
      <trkpt lat="42.374055" lon="2.325906">
        <ele>1680.20</ele>
        <time>2014-06-23T15:20:29.96Z</time>
      </trkpt>
      <trkpt lat="42.374003" lon="2.325831">
        <ele>1679.80</ele>
        <time>2014-06-23T17:42:27.59Z</time>
      </trkpt>
      <trkpt lat="42.373918" lon="2.325686">
        <ele>1679.80</ele>
        <time>2014-06-23T21:57:56.13Z</time>
      </trkpt>
      <trkpt lat="42.373737" lon="2.325515">
        <ele>1678.80</ele>
        <time>2014-06-24T04:50:18.17Z</time>
      </trkpt>
      <trkpt lat="42.373669" lon="2.325467">
        <ele>1678.80</ele>
        <time>2014-06-24T07:13:34.74Z</time>
      </trkpt>
      <trkpt lat="42.373320" lon="2.325329">
        <ele>1678.40</ele>
        <time>2014-06-24T18:32:50.55Z</time>
      </trkpt>
      <trkpt lat="42.373266" lon="2.325313">
        <ele>1677.80</ele>
        <time>2014-06-24T20:16:06.95Z</time>
      </trkpt>
      <trkpt lat="42.373218" lon="2.325310">
        <ele>1677.00</ele>
        <time>2014-06-24T21:45:53.19Z</time>
      </trkpt>
      <trkpt lat="42.373183" lon="2.325319">
        <ele>1676.60</ele>
        <time>2014-06-24T22:52:26.65Z</time>
      </trkpt>
      <trkpt lat="42.373127" lon="2.325321">
        <ele>1675.60</ele>
        <time>2014-06-25T00:37:06.10Z</time>
      </trkpt>
      <trkpt lat="42.373120" lon="2.325303">
        <ele>1675.00</ele>
        <time>2014-06-25T01:05:10.62Z</time>
      </trkpt>
      <trkpt lat="42.373108" lon="2.325270">
        <ele>1674.60</ele>
        <time>2014-06-25T01:55:56.52Z</time>
      </trkpt>
      <trkpt lat="42.373105" lon="2.325255">
        <ele>1674.40</ele>
        <time>2014-06-25T02:17:23.41Z</time>
      </trkpt>
      <trkpt lat="42.373173" lon="2.325119">
        <ele>1672.60</ele>
        <time>2014-06-25T06:04:02.78Z</time>
      </trkpt>
      <trkpt lat="42.373181" lon="2.324941">
        <ele>1671.80</ele>
        <time>2014-06-25T10:10:10.53Z</time>
      </trkpt>
      <trkpt lat="42.373178" lon="2.324899">
        <ele>1671.60</ele>
        <time>2014-06-25T11:08:24.85Z</time>
      </trkpt>
      <trkpt lat="42.373197" lon="2.324790">
        <ele>1671.80</ele>
        <time>2014-06-25T13:42:59.19Z</time>
      </trkpt>
      <trkpt lat="42.373216" lon="2.324725">
        <ele>1672.80</ele>
        <time>2014-06-25T15:19:27.98Z</time>
      </trkpt>
      <trkpt lat="42.373206" lon="2.324625">
        <ele>1673.80</ele>
        <time>2014-06-25T17:38:44.68Z</time>
      </trkpt>
      <trkpt lat="42.373205" lon="2.324576">
        <ele>1673.80</ele>
        <time>2014-06-25T18:46:24Z</time>
      </trkpt>
      <trkpt lat="42.373214" lon="2.324526">
        <ele>1674.00</ele>
        <time>2014-06-25T19:57:25.72Z</time>
      </trkpt>
      <trkpt lat="42.373209" lon="2.324359">
        <ele>1673.60</ele>
        <time>2014-06-25T23:48:06.63Z</time>
      </trkpt>
      <trkpt lat="42.373192" lon="2.324314">
        <ele>1673.80</ele>
        <time>2014-06-26T00:57:52.12Z</time>
      </trkpt>
      <trkpt lat="42.373200" lon="2.324216">
        <ele>1673.20</ele>
        <time>2014-06-26T03:13:57.07Z</time>
      </trkpt>
      <trkpt lat="42.373197" lon="2.324067">
        <ele>1672.80</ele>
        <time>2014-06-26T06:39:40.61Z</time>
      </trkpt>
      <trkpt lat="42.373194" lon="2.324010">
        <ele>1672.60</ele>
        <time>2014-06-26T07:58:32.84Z</time>
      </trkpt>
      <trkpt lat="42.373209" lon="2.323951">
        <ele>1671.40</ele>
        <time>2014-06-26T09:24:39.96Z</time>
      </trkpt>
      <trkpt lat="42.373218" lon="2.323946">
        <ele>1671.20</ele>
        <time>2014-06-26T09:42:50.47Z</time>
      </trkpt>
      <trkpt lat="42.373242" lon="2.323947">
        <ele>1670.80</ele>
        <time>2014-06-26T10:27:42Z</time>
      </trkpt>
      <trkpt lat="42.373273" lon="2.323908">
        <ele>1670.40</ele>
        <time>2014-06-26T11:46:46.02Z</time>
      </trkpt>
      <trkpt lat="42.373337" lon="2.323808">
        <ele>1669.60</ele>
        <time>2014-06-26T14:49:22.48Z</time>
      </trkpt>
      <trkpt lat="42.373368" lon="2.323749">
        <ele>1669.00</ele>
        <time>2014-06-26T16:29:18.05Z</time>
      </trkpt>
      <trkpt lat="42.373410" lon="2.323606">
        <ele>1667.80</ele>
        <time>2014-06-26T20:01:41.64Z</time>
      </trkpt>
      <trkpt lat="42.373423" lon="2.323524">
        <ele>1667.40</ele>
        <time>2014-06-26T21:57:26.77Z</time>
      </trkpt>
      <trkpt lat="42.373449" lon="2.323381">
        <ele>1666.40</ele>
        <time>2014-06-27T01:20:42.18Z</time>
      </trkpt>
      <trkpt lat="42.373472" lon="2.323334">
        <ele>1665.80</ele>
        <time>2014-06-27T02:38:30.76Z</time>
      </trkpt>
      <trkpt lat="42.373489" lon="2.323276">
        <ele>1665.40</ele>
        <time>2014-06-27T04:04:38.03Z</time>
      </trkpt>
      <trkpt lat="42.373507" lon="2.323223">
        <ele>1665.00</ele>
        <time>2014-06-27T05:25:08.60Z</time>
      </trkpt>
      <trkpt lat="42.373529" lon="2.323133">
        <ele>1663.40</ele>
        <time>2014-06-27T07:35:59.02Z</time>
      </trkpt>
      <trkpt lat="42.373546" lon="2.323043">
        <ele>1661.80</ele>
        <time>2014-06-27T09:44:11.79Z</time>
      </trkpt>
      <trkpt lat="42.373534" lon="2.323015">
        <ele>1661.20</ele>
        <time>2014-06-27T10:28:52.43Z</time>
      </trkpt>
      <trkpt lat="42.373527" lon="2.323000">
        <ele>1660.60</ele>
        <time>2014-06-27T10:53:21.67Z</time>
      </trkpt>
      <trkpt lat="42.373523" lon="2.322977">
        <ele>1660.20</ele>
        <time>2014-06-27T11:25:58.40Z</time>
      </trkpt>
      <trkpt lat="42.373520" lon="2.322927">
        <ele>1659.40</ele>
        <time>2014-06-27T12:35:12.60Z</time>
      </trkpt>
      <trkpt lat="42.373515" lon="2.322859">
        <ele>1658.00</ele>
        <time>2014-06-27T14:09:31.59Z</time>
      </trkpt>
      <trkpt lat="42.373514" lon="2.322826">
        <ele>1657.60</ele>
        <time>2014-06-27T14:55:06.66Z</time>
      </trkpt>
      <trkpt lat="42.373515" lon="2.322785">
        <ele>1657.20</ele>
        <time>2014-06-27T15:51:43.78Z</time>
      </trkpt>
      <trkpt lat="42.373504" lon="2.322759">
        <ele>1656.80</ele>
        <time>2014-06-27T16:33:04.95Z</time>
      </trkpt>
      <trkpt lat="42.373464" lon="2.322646">
        <ele>1656.00</ele>
        <time>2014-06-27T19:26:01.38Z</time>
      </trkpt>
      <trkpt lat="42.373429" lon="2.322581">
        <ele>1655.60</ele>
        <time>2014-06-27T21:17:02.17Z</time>
      </trkpt>
      <trkpt lat="42.373377" lon="2.322472">
        <ele>1654.60</ele>
        <time>2014-06-28T00:16:07.07Z</time>
      </trkpt>
      <trkpt lat="42.373378" lon="2.322396">
        <ele>1654.20</ele>
        <time>2014-06-28T02:01:01.74Z</time>
      </trkpt>
      <trkpt lat="42.373379" lon="2.322334">
        <ele>1653.60</ele>
        <time>2014-06-28T03:26:37.28Z</time>
      </trkpt>
      <trkpt lat="42.373372" lon="2.322290">
        <ele>1652.80</ele>
        <time>2014-06-28T04:28:44.52Z</time>
      </trkpt>
      <trkpt lat="42.373369" lon="2.322253">
        <ele>1651.80</ele>
        <time>2014-06-28T05:20:06.94Z</time>
      </trkpt>
      <trkpt lat="42.373360" lon="2.322225">
        <ele>1650.40</ele>
        <time>2014-06-28T06:02:15.63Z</time>
      </trkpt>
      <trkpt lat="42.373345" lon="2.322176">
        <ele>1649.20</ele>
        <time>2014-06-28T07:15:27.96Z</time>
      </trkpt>
      <trkpt lat="42.373330" lon="2.322146">
        <ele>1648.20</ele>
        <time>2014-06-28T08:05:27.82Z</time>
      </trkpt>
      <trkpt lat="42.373304" lon="2.322074">
        <ele>1647.00</ele>
        <time>2014-06-28T09:56:04.43Z</time>
      </trkpt>
      <trkpt lat="42.373280" lon="2.322055">
        <ele>1646.00</ele>
        <time>2014-06-28T10:48:01.02Z</time>
      </trkpt>
      <trkpt lat="42.373276" lon="2.322042">
        <ele>1645.80</ele>
        <time>2014-06-28T11:07:27.21Z</time>
      </trkpt>
      <trkpt lat="42.373217" lon="2.321941">
        <ele>1643.80</ele>
        <time>2014-06-28T14:05:10.01Z</time>
      </trkpt>
      <trkpt lat="42.373198" lon="2.321930">
        <ele>1643.60</ele>
        <time>2014-06-28T14:43:46.42Z</time>
      </trkpt>
      <trkpt lat="42.373147" lon="2.321886">
        <ele>1643.20</ele>
        <time>2014-06-28T16:36:45.69Z</time>
      </trkpt>
      <trkpt lat="42.373113" lon="2.321875">
        <ele>1642.40</ele>
        <time>2014-06-28T17:42:04.24Z</time>
      </trkpt>
      <trkpt lat="42.373061" lon="2.321860">
        <ele>1641.20</ele>
        <time>2014-06-28T19:21:24.01Z</time>
      </trkpt>
      <trkpt lat="42.373037" lon="2.321853">
        <ele>1640.80</ele>
        <time>2014-06-28T20:07:16.01Z</time>
      </trkpt>
      <trkpt lat="42.373013" lon="2.321844">
        <ele>1640.20</ele>
        <time>2014-06-28T20:53:47.60Z</time>
      </trkpt>
      <trkpt lat="42.372982" lon="2.321809">
        <ele>1639.40</ele>
        <time>2014-06-28T22:09:12.63Z</time>
      </trkpt>
      <trkpt lat="42.372967" lon="2.321771">
        <ele>1639.00</ele>
        <time>2014-06-28T23:08:40.52Z</time>
      </trkpt>
      <trkpt lat="42.372956" lon="2.321740">
        <ele>1638.80</ele>
        <time>2014-06-28T23:56:08.46Z</time>
      </trkpt>
      <trkpt lat="42.372902" lon="2.321634">
        <ele>1638.00</ele>
        <time>2014-06-29T02:53:51.22Z</time>
      </trkpt>
      <trkpt lat="42.372882" lon="2.321605">
        <ele>1637.60</ele>
        <time>2014-06-29T03:48:36.57Z</time>
      </trkpt>
      <trkpt lat="42.372820" lon="2.321490">
        <ele>1636.00</ele>
        <time>2014-06-29T07:05:06.20Z</time>
      </trkpt>
      <trkpt lat="42.372792" lon="2.321428">
        <ele>1635.60</ele>
        <time>2014-06-29T08:45:23.89Z</time>
      </trkpt>
      <trkpt lat="42.372765" lon="2.321366">
        <ele>1634.20</ele>
        <time>2014-06-29T10:24:43.90Z</time>
      </trkpt>
      <trkpt lat="42.372737" lon="2.321304">
        <ele>1634.20</ele>
        <time>2014-06-29T12:05:01.60Z</time>
      </trkpt>
      <trkpt lat="42.372673" lon="2.321168">
        <ele>1634.40</ele>
        <time>2014-06-29T15:47:34.88Z</time>
      </trkpt>
      <trkpt lat="42.372604" lon="2.321079">
        <ele>1634.60</ele>
        <time>2014-06-29T18:45:38.69Z</time>
      </trkpt>
      <trkpt lat="42.372446" lon="2.320947">
        <ele>1634.00</ele>
        <time>2014-06-30T00:32:31.35Z</time>
      </trkpt>
      <trkpt lat="42.372401" lon="2.320878">
        <ele>1634.00</ele>
        <time>2014-06-30T02:39:33.36Z</time>
      </trkpt>
      <trkpt lat="42.372376" lon="2.320816">
        <ele>1634.40</ele>
        <time>2014-06-30T04:17:02.74Z</time>
      </trkpt>
      <trkpt lat="42.372298" lon="2.320657">
        <ele>1634.20</ele>
        <time>2014-06-30T08:40:28.51Z</time>
      </trkpt>
      <trkpt lat="42.372287" lon="2.320629">
        <ele>1634.20</ele>
        <time>2014-06-30T09:24:14.73Z</time>
      </trkpt>
      <trkpt lat="42.372277" lon="2.320545">
        <ele>1633.60</ele>
        <time>2014-06-30T11:21:40.75Z</time>
      </trkpt>
      <trkpt lat="42.372393" lon="2.320411">
        <ele>1626.00</ele>
        <time>2014-06-30T16:06:35.12Z</time>
      </trkpt>
      <trkpt lat="42.372414" lon="2.320398">
        <ele>1625.00</ele>
        <time>2014-06-30T16:49:43.59Z</time>
      </trkpt>
      <trkpt lat="42.372425" lon="2.320386">
        <ele>1624.60</ele>
        <time>2014-06-30T17:16:07.23Z</time>
      </trkpt>
      <trkpt lat="42.372445" lon="2.320369">
        <ele>1623.60</ele>
        <time>2014-06-30T18:00:14.49Z</time>
      </trkpt>
      <trkpt lat="42.372473" lon="2.320358">
        <ele>1622.20</ele>
        <time>2014-06-30T18:54:42.64Z</time>
      </trkpt>
      <trkpt lat="42.372586" lon="2.320289">
        <ele>1617.60</ele>
        <time>2014-06-30T22:46:18.47Z</time>
      </trkpt>
      <trkpt lat="42.372595" lon="2.320275">
        <ele>1617.00</ele>
        <time>2014-06-30T23:11:55.33Z</time>
      </trkpt>
      <trkpt lat="42.372603" lon="2.320261">
        <ele>1616.20</ele>
        <time>2014-06-30T23:36:21.04Z</time>
      </trkpt>
      <trkpt lat="42.372633" lon="2.320227">
        <ele>1614.80</ele>
        <time>2014-07-01T00:49:26.96Z</time>
      </trkpt>
      <trkpt lat="42.372661" lon="2.320228">
        <ele>1614.20</ele>
        <time>2014-07-01T01:41:46.69Z</time>
      </trkpt>
      <trkpt lat="42.372692" lon="2.320248">
        <ele>1613.60</ele>
        <time>2014-07-01T02:45:56.13Z</time>
      </trkpt>
      <trkpt lat="42.372708" lon="2.320259">
        <ele>1613.00</ele>
        <time>2014-07-01T03:19:27.71Z</time>
      </trkpt>
      <trkpt lat="42.372730" lon="2.320274">
        <ele>1612.40</ele>
        <time>2014-07-01T04:05:28.96Z</time>
      </trkpt>
      <trkpt lat="42.372774" lon="2.320291">
        <ele>1611.40</ele>
        <time>2014-07-01T05:30:58.08Z</time>
      </trkpt>
      <trkpt lat="42.372811" lon="2.320296">
        <ele>1610.00</ele>
        <time>2014-07-01T06:40:26.18Z</time>
      </trkpt>
      <trkpt lat="42.372828" lon="2.320291">
        <ele>1609.40</ele>
        <time>2014-07-01T07:12:56.24Z</time>
      </trkpt>
      <trkpt lat="42.372841" lon="2.320291">
        <ele>1609.00</ele>
        <time>2014-07-01T07:37:13.47Z</time>
      </trkpt>
      <trkpt lat="42.372853" lon="2.320292">
        <ele>1608.80</ele>
        <time>2014-07-01T07:59:41.14Z</time>
      </trkpt>
      <trkpt lat="42.372915" lon="2.320341">
        <ele>1605.20</ele>
        <time>2014-07-01T10:13:48.86Z</time>
      </trkpt>
      <trkpt lat="42.372937" lon="2.320356">
        <ele>1604.20</ele>
        <time>2014-07-01T10:59:50.11Z</time>
      </trkpt>
      <trkpt lat="42.372949" lon="2.320356">
        <ele>1603.60</ele>
        <time>2014-07-01T11:22:15.24Z</time>
      </trkpt>
      <trkpt lat="42.372960" lon="2.320351">
        <ele>1603.00</ele>
        <time>2014-07-01T11:43:55.94Z</time>
      </trkpt>
      <trkpt lat="42.372969" lon="2.320347">
        <ele>1602.00</ele>
        <time>2014-07-01T12:01:37.78Z</time>
      </trkpt>
      <trkpt lat="42.373055" lon="2.320298">
        <ele>1599.20</ele>
        <time>2014-07-01T14:55:57.07Z</time>
      </trkpt>
      <trkpt lat="42.373070" lon="2.320287">
        <ele>1598.20</ele>
        <time>2014-07-01T15:27:49.39Z</time>
      </trkpt>
      <trkpt lat="42.373149" lon="2.320140">
        <ele>1595.00</ele>
        <time>2014-07-01T19:38:42.92Z</time>
      </trkpt>
      <trkpt lat="42.373182" lon="2.320061">
        <ele>1594.20</ele>
        <time>2014-07-01T21:43:58.43Z</time>
      </trkpt>
      <trkpt lat="42.373217" lon="2.319989">
        <ele>1593.80</ele>
        <time>2014-07-01T23:42:55.86Z</time>
      </trkpt>
      <trkpt lat="42.373237" lon="2.319885">
        <ele>1593.20</ele>
        <time>2014-07-02T02:11:15.29Z</time>
      </trkpt>
      <trkpt lat="42.373231" lon="2.319861">
        <ele>1593.40</ele>
        <time>2014-07-02T02:46:13.49Z</time>
      </trkpt>
      <trkpt lat="42.373217" lon="2.319751">
        <ele>1594.40</ele>
        <time>2014-07-02T05:20:16.97Z</time>
      </trkpt>
      <trkpt lat="42.373209" lon="2.319662">
        <ele>1595.00</ele>
        <time>2014-07-02T07:24:01.57Z</time>
      </trkpt>
      <trkpt lat="42.373190" lon="2.319552">
        <ele>1595.00</ele>
        <time>2014-07-02T09:59:56.52Z</time>
      </trkpt>
      <trkpt lat="42.373183" lon="2.319525">
        <ele>1594.60</ele>
        <time>2014-07-02T10:39:26.13Z</time>
      </trkpt>
      <trkpt lat="42.373165" lon="2.319473">
        <ele>1594.00</ele>
        <time>2014-07-02T11:58:41.60Z</time>
      </trkpt>
      <trkpt lat="42.373153" lon="2.319450">
        <ele>1593.80</ele>
        <time>2014-07-02T12:37:33.37Z</time>
      </trkpt>
      <trkpt lat="42.372964" lon="2.318995">
        <ele>1583.60</ele>
        <time>2014-07-03T00:38:00.41Z</time>
      </trkpt>
      <trkpt lat="42.373003" lon="2.318960">
        <ele>1583.20</ele>
        <time>2014-07-03T02:05:25.63Z</time>
      </trkpt>
      <trkpt lat="42.373009" lon="2.318945">
        <ele>1583.00</ele>
        <time>2014-07-03T02:28:58.20Z</time>
      </trkpt>
      <trkpt lat="42.372971" lon="2.318707">
        <ele>1585.20</ele>
        <time>2014-07-03T08:05:02.50Z</time>
      </trkpt>
      <trkpt lat="42.372936" lon="2.318660">
        <ele>1585.00</ele>
        <time>2014-07-03T09:37:08.91Z</time>
      </trkpt>
      <trkpt lat="42.372898" lon="2.318604">
        <ele>1584.00</ele>
        <time>2014-07-03T11:22:05.75Z</time>
      </trkpt>
      <trkpt lat="42.372865" lon="2.318546">
        <ele>1583.40</ele>
        <time>2014-07-03T13:03:08.19Z</time>
      </trkpt>
      <trkpt lat="42.372854" lon="2.318459">
        <ele>1583.00</ele>
        <time>2014-07-03T15:04:57.60Z</time>
      </trkpt>
      <trkpt lat="42.372856" lon="2.318400">
        <ele>1582.80</ele>
        <time>2014-07-03T16:26:28.66Z</time>
      </trkpt>
      <trkpt lat="42.372887" lon="2.318316">
        <ele>1583.00</ele>
        <time>2014-07-03T18:36:04.53Z</time>
      </trkpt>
      <trkpt lat="42.372936" lon="2.318147">
        <ele>1583.60</ele>
        <time>2014-07-03T22:46:39.02Z</time>
      </trkpt>
      <trkpt lat="42.372958" lon="2.318103">
        <ele>1584.40</ele>
        <time>2014-07-03T23:59:58.82Z</time>
      </trkpt>
      <trkpt lat="42.373125" lon="2.317652">
        <ele>1586.80</ele>
        <time>2014-07-04T11:36:15.79Z</time>
      </trkpt>
      <trkpt lat="42.373131" lon="2.317617">
        <ele>1587.20</ele>
        <time>2014-07-04T12:25:51.22Z</time>
      </trkpt>
      <trkpt lat="42.373167" lon="2.317436">
        <ele>1587.40</ele>
        <time>2014-07-04T16:44:33.87Z</time>
      </trkpt>
      <trkpt lat="42.373254" lon="2.317193">
        <ele>1586.40</ele>
        <time>2014-07-04T22:57:15.67Z</time>
      </trkpt>
      <trkpt lat="42.373267" lon="2.317141">
        <ele>1585.60</ele>
        <time>2014-07-05T00:13:01.76Z</time>
      </trkpt>
      <trkpt lat="42.374073" lon="2.317128">
        <ele>1549.00</ele>
        <time>2014-07-06T01:18:55.95Z</time>
      </trkpt>
      <trkpt lat="42.374084" lon="2.317098">
        <ele>1548.60</ele>
        <time>2014-07-06T02:05:09.43Z</time>
      </trkpt>
      <trkpt lat="42.374104" lon="2.317032">
        <ele>1548.40</ele>
        <time>2014-07-06T03:43:36.86Z</time>
      </trkpt>
      <trkpt lat="42.374140" lon="2.316786">
        <ele>1548.00</ele>
        <time>2014-07-06T09:29:44.09Z</time>
      </trkpt>
      <trkpt lat="42.374141" lon="2.316746">
        <ele>1547.80</ele>
        <time>2014-07-06T10:24:58.41Z</time>
      </trkpt>
      <trkpt lat="42.374173" lon="2.316526">
        <ele>1547.00</ele>
        <time>2014-07-06T15:34:26.49Z</time>
      </trkpt>
      <trkpt lat="42.374184" lon="2.316473">
        <ele>1546.60</ele>
        <time>2014-07-06T16:50:25.36Z</time>
      </trkpt>
      <trkpt lat="42.374206" lon="2.316290">
        <ele>1545.80</ele>
        <time>2014-07-06T21:06:19.01Z</time>
      </trkpt>
      <trkpt lat="42.374155" lon="2.316159">
        <ele>1544.60</ele>
        <time>2014-07-07T00:30:41.33Z</time>
      </trkpt>
      <trkpt lat="42.374122" lon="2.315943">
        <ele>1541.20</ele>
        <time>2014-07-07T05:35:06.89Z</time>
      </trkpt>
      <trkpt lat="42.374133" lon="2.315915">
        <ele>1541.40</ele>
        <time>2014-07-07T06:18:53.06Z</time>
      </trkpt>
      <trkpt lat="42.374150" lon="2.315886">
        <ele>1541.40</ele>
        <time>2014-07-07T07:09:58.76Z</time>
      </trkpt>
      <trkpt lat="42.374205" lon="2.315779">
        <ele>1540.80</ele>
        <time>2014-07-07T10:09:53.28Z</time>
      </trkpt>
      <trkpt lat="42.374206" lon="2.315746">
        <ele>1540.60</ele>
        <time>2014-07-07T10:55:28.32Z</time>
      </trkpt>
      <trkpt lat="42.374141" lon="2.315527">
        <ele>1540.60</ele>
        <time>2014-07-07T16:21:12.72Z</time>
      </trkpt>
      <trkpt lat="42.374133" lon="2.315370">
        <ele>1540.20</ele>
        <time>2014-07-07T19:58:24.87Z</time>
      </trkpt>
      <trkpt lat="42.374189" lon="2.315215">
        <ele>1539.00</ele>
        <time>2014-07-07T23:56:33.23Z</time>
      </trkpt>
      <trkpt lat="42.374199" lon="2.315195">
        <ele>1538.40</ele>
        <time>2014-07-08T00:29:53.11Z</time>
      </trkpt>
      <trkpt lat="42.374221" lon="2.315165">
        <ele>1537.60</ele>
        <time>2014-07-08T01:28:13.59Z</time>
      </trkpt>
      <trkpt lat="42.374236" lon="2.315161">
        <ele>1536.80</ele>
        <time>2014-07-08T01:56:47.31Z</time>
      </trkpt>
      <trkpt lat="42.374244" lon="2.315167">
        <ele>1536.40</ele>
        <time>2014-07-08T02:13:52.51Z</time>
      </trkpt>
      <trkpt lat="42.374278" lon="2.315165">
        <ele>1535.20</ele>
        <time>2014-07-08T03:17:27.31Z</time>
      </trkpt>
      <trkpt lat="42.374306" lon="2.315147">
        <ele>1533.80</ele>
        <time>2014-07-08T04:15:21.91Z</time>
      </trkpt>
      <trkpt lat="42.374330" lon="2.315110">
        <ele>1532.40</ele>
        <time>2014-07-08T05:23:19.34Z</time>
      </trkpt>
      <trkpt lat="42.374349" lon="2.315076">
        <ele>1531.80</ele>
        <time>2014-07-08T06:22:09.68Z</time>
      </trkpt>
      <trkpt lat="42.374358" lon="2.315049">
        <ele>1531.40</ele>
        <time>2014-07-08T07:03:02.62Z</time>
      </trkpt>
      <trkpt lat="42.374396" lon="2.314923">
        <ele>1530.60</ele>
        <time>2014-07-08T10:10:52.68Z</time>
      </trkpt>
      <trkpt lat="42.374407" lon="2.314874">
        <ele>1530.20</ele>
        <time>2014-07-08T11:21:33.58Z</time>
      </trkpt>
      <trkpt lat="42.374434" lon="2.314739">
        <ele>1528.80</ele>
        <time>2014-07-08T14:34:35.39Z</time>
      </trkpt>
      <trkpt lat="42.374445" lon="2.314709">
        <ele>1528.20</ele>
        <time>2014-07-08T15:20:48.86Z</time>
      </trkpt>
      <trkpt lat="42.374454" lon="2.314679">
        <ele>1527.80</ele>
        <time>2014-07-08T16:05:30.19Z</time>
      </trkpt>
      <trkpt lat="42.374495" lon="2.314628">
        <ele>1527.00</ele>
        <time>2014-07-08T17:49:31.85Z</time>
      </trkpt>
      <trkpt lat="42.374519" lon="2.314605">
        <ele>1526.40</ele>
        <time>2014-07-08T18:44:28.07Z</time>
      </trkpt>
      <trkpt lat="42.374547" lon="2.314583">
        <ele>1525.80</ele>
        <time>2014-07-08T19:44:57.13Z</time>
      </trkpt>
      <trkpt lat="42.374575" lon="2.314564">
        <ele>1524.80</ele>
        <time>2014-07-08T20:43:28.05Z</time>
      </trkpt>
      <trkpt lat="42.374636" lon="2.314542">
        <ele>1523.00</ele>
        <time>2014-07-08T22:41:24.32Z</time>
      </trkpt>
      <trkpt lat="42.374708" lon="2.314514">
        <ele>1521.40</ele>
        <time>2014-07-09T01:01:21.56Z</time>
      </trkpt>
      <trkpt lat="42.374745" lon="2.314505">
        <ele>1520.80</ele>
        <time>2014-07-09T02:11:35.47Z</time>
      </trkpt>
      <trkpt lat="42.374780" lon="2.314497">
        <ele>1520.00</ele>
        <time>2014-07-09T03:17:54.29Z</time>
      </trkpt>
      <trkpt lat="42.374813" lon="2.314490">
        <ele>1518.20</ele>
        <time>2014-07-09T04:20:18.54Z</time>
      </trkpt>
      <trkpt lat="42.374843" lon="2.314482">
        <ele>1517.00</ele>
        <time>2014-07-09T05:17:25.99Z</time>
      </trkpt>
      <trkpt lat="42.374888" lon="2.314463">
        <ele>1515.20</ele>
        <time>2014-07-09T06:45:29.91Z</time>
      </trkpt>
      <trkpt lat="42.374914" lon="2.314436">
        <ele>1514.40</ele>
        <time>2014-07-09T07:46:43.20Z</time>
      </trkpt>
      <trkpt lat="42.374942" lon="2.314416">
        <ele>1513.40</ele>
        <time>2014-07-09T08:45:52Z</time>
      </trkpt>
      <trkpt lat="42.374990" lon="2.314382">
        <ele>1512.00</ele>
        <time>2014-07-09T10:27:04.65Z</time>
      </trkpt>
      <trkpt lat="42.375023" lon="2.314328">
        <ele>1510.80</ele>
        <time>2014-07-09T12:03:48.05Z</time>
      </trkpt>
      <trkpt lat="42.375050" lon="2.314246">
        <ele>1509.60</ele>
        <time>2014-07-09T14:07:42.37Z</time>
      </trkpt>
      <trkpt lat="42.375046" lon="2.314136">
        <ele>1508.60</ele>
        <time>2014-07-09T16:39:42.42Z</time>
      </trkpt>
      <trkpt lat="42.374991" lon="2.313943">
        <ele>1507.20</ele>
        <time>2014-07-09T21:25:12.52Z</time>
      </trkpt>
      <trkpt lat="42.374965" lon="2.313876">
        <ele>1506.80</ele>
        <time>2014-07-09T23:09:39.64Z</time>
      </trkpt>
      <trkpt lat="42.374944" lon="2.313803">
        <ele>1506.20</ele>
        <time>2014-07-10T00:57:46.89Z</time>
      </trkpt>
      <trkpt lat="42.374920" lon="2.313646">
        <ele>1504.80</ele>
        <time>2014-07-10T04:39:03.40Z</time>
      </trkpt>
      <trkpt lat="42.374916" lon="2.313567">
        <ele>1503.80</ele>
        <time>2014-07-10T06:28:20.70Z</time>
      </trkpt>
      <trkpt lat="42.374912" lon="2.313490">
        <ele>1502.80</ele>
        <time>2014-07-10T08:14:52.77Z</time>
      </trkpt>
      <trkpt lat="42.374911" lon="2.313348">
        <ele>1499.80</ele>
        <time>2014-07-10T11:30:52.26Z</time>
      </trkpt>
      <trkpt lat="42.374916" lon="2.313243">
        <ele>1498.00</ele>
        <time>2014-07-10T13:56:05.30Z</time>
      </trkpt>
      <trkpt lat="42.374909" lon="2.313147">
        <ele>1496.60</ele>
        <time>2014-07-10T16:09:13.64Z</time>
      </trkpt>
      <trkpt lat="42.374904" lon="2.313030">
        <ele>1495.40</ele>
        <time>2014-07-10T18:50:58.55Z</time>
      </trkpt>
      <trkpt lat="42.374907" lon="2.312962">
        <ele>1494.80</ele>
        <time>2014-07-10T20:24:59.63Z</time>
      </trkpt>
      <trkpt lat="42.374904" lon="2.312891">
        <ele>1494.40</ele>
        <time>2014-07-10T22:03:08.72Z</time>
      </trkpt>
      <trkpt lat="42.374913" lon="2.312815">
        <ele>1493.60</ele>
        <time>2014-07-10T23:49:22.59Z</time>
      </trkpt>
      <trkpt lat="42.374966" lon="2.312662">
        <ele>1492.20</ele>
        <time>2014-07-11T03:42:36.17Z</time>
      </trkpt>
      <trkpt lat="42.375011" lon="2.312526">
        <ele>1491.20</ele>
        <time>2014-07-11T07:08:16.29Z</time>
      </trkpt>
      <trkpt lat="42.375032" lon="2.312469">
        <ele>1490.40</ele>
        <time>2014-07-11T08:36:10.84Z</time>
      </trkpt>
      <trkpt lat="42.375080" lon="2.312352">
        <ele>1488.80</ele>
        <time>2014-07-11T11:40:53.29Z</time>
      </trkpt>
      <trkpt lat="42.375117" lon="2.312261">
        <ele>1487.20</ele>
        <time>2014-07-11T14:04:14.89Z</time>
      </trkpt>
      <trkpt lat="42.375125" lon="2.312195">
        <ele>1485.60</ele>
        <time>2014-07-11T15:36:33.38Z</time>
      </trkpt>
      <trkpt lat="42.375126" lon="2.312168">
        <ele>1485.20</ele>
        <time>2014-07-11T16:13:52.03Z</time>
      </trkpt>
      <trkpt lat="42.375126" lon="2.312124">
        <ele>1484.40</ele>
        <time>2014-07-11T17:14:35.64Z</time>
      </trkpt>
      <trkpt lat="42.375123" lon="2.312090">
        <ele>1483.20</ele>
        <time>2014-07-11T18:01:51.16Z</time>
      </trkpt>
      <trkpt lat="42.375097" lon="2.311985">
        <ele>1481.00</ele>
        <time>2014-07-11T20:34:41.58Z</time>
      </trkpt>
      <trkpt lat="42.375101" lon="2.311703">
        <ele>1474.00</ele>
        <time>2014-07-12T03:03:58.09Z</time>
      </trkpt>
      <trkpt lat="42.375114" lon="2.311650">
        <ele>1472.80</ele>
        <time>2014-07-12T04:21:02.58Z</time>
      </trkpt>
      <trkpt lat="42.375118" lon="2.311593">
        <ele>1471.80</ele>
        <time>2014-07-12T05:40:03.95Z</time>
      </trkpt>
      <trkpt lat="42.375119" lon="2.311567">
        <ele>1471.20</ele>
        <time>2014-07-12T06:15:59.91Z</time>
      </trkpt>
      <trkpt lat="42.375119" lon="2.311542">
        <ele>1470.80</ele>
        <time>2014-07-12T06:50:30.14Z</time>
      </trkpt>
      <trkpt lat="42.375119" lon="2.311546">
        <ele>1470.20</ele>
        <time>2014-07-12T07:07:18.99Z</time>
      </trkpt>
      <trkpt lat="42.375096" lon="2.311199">
        <ele>1464.20</ele>
        <time>2014-07-12T15:08:09.22Z</time>
      </trkpt>
      <trkpt lat="42.375087" lon="2.311132">
        <ele>1462.80</ele>
        <time>2014-07-12T16:42:08.42Z</time>
      </trkpt>
      <trkpt lat="42.375086" lon="2.311070">
        <ele>1461.60</ele>
        <time>2014-07-12T18:07:43.82Z</time>
      </trkpt>
      <trkpt lat="42.375083" lon="2.310979">
        <ele>1460.60</ele>
        <time>2014-07-12T20:13:26.96Z</time>
      </trkpt>
      <trkpt lat="42.375086" lon="2.310895">
        <ele>1459.40</ele>
        <time>2014-07-12T22:09:31.07Z</time>
      </trkpt>
      <trkpt lat="42.375081" lon="2.310859">
        <ele>1458.80</ele>
        <time>2014-07-12T23:00:04.43Z</time>
      </trkpt>
      <trkpt lat="42.375074" lon="2.310828">
        <ele>1458.20</ele>
        <time>2014-07-12T23:44:48.76Z</time>
      </trkpt>
      <trkpt lat="42.375055" lon="2.310750">
        <ele>1456.80</ele>
        <time>2014-07-13T01:38:09.96Z</time>
      </trkpt>
      <trkpt lat="42.375041" lon="2.310692">
        <ele>1456.00</ele>
        <time>2014-07-13T03:02:22.78Z</time>
      </trkpt>
      <trkpt lat="42.375040" lon="2.310659">
        <ele>1455.60</ele>
        <time>2014-07-13T03:47:57.78Z</time>
      </trkpt>
      <trkpt lat="42.375049" lon="2.310621">
        <ele>1454.40</ele>
        <time>2014-07-13T04:43:02.30Z</time>
      </trkpt>
      <trkpt lat="42.375169" lon="2.310164">
        <ele>1445.20</ele>
        <time>2014-07-13T15:52:25.62Z</time>
      </trkpt>
      <trkpt lat="42.375189" lon="2.310108">
        <ele>1443.60</ele>
        <time>2014-07-13T17:18:16.41Z</time>
      </trkpt>
      <trkpt lat="42.375197" lon="2.310063">
        <ele>1442.40</ele>
        <time>2014-07-13T18:22:09.21Z</time>
      </trkpt>
      <trkpt lat="42.375289" lon="2.309427">
        <ele>1427.80</ele>
        <time>2014-07-14T09:16:35.94Z</time>
      </trkpt>
      <trkpt lat="42.375288" lon="2.309412">
        <ele>1427.40</ele>
        <time>2014-07-14T09:37:23.12Z</time>
      </trkpt>
      <trkpt lat="42.375327" lon="2.309226">
        <ele>1420.60</ele>
        <time>2014-07-14T14:04:13.98Z</time>
      </trkpt>
      <trkpt lat="42.375317" lon="2.309169">
        <ele>1419.40</ele>
        <time>2014-07-14T15:25:05.37Z</time>
      </trkpt>
      <trkpt lat="42.375305" lon="2.309113">
        <ele>1417.60</ele>
        <time>2014-07-14T16:45:33.82Z</time>
      </trkpt>
      <trkpt lat="42.375285" lon="2.309067">
        <ele>1416.60</ele>
        <time>2014-07-14T17:59:13.79Z</time>
      </trkpt>
      <trkpt lat="42.375276" lon="2.309056">
        <ele>1416.20</ele>
        <time>2014-07-14T18:21:53.02Z</time>
      </trkpt>
      <trkpt lat="42.375262" lon="2.309026">
        <ele>1415.40</ele>
        <time>2014-07-14T19:10:51.45Z</time>
      </trkpt>
      <trkpt lat="42.375256" lon="2.308977">
        <ele>1414.00</ele>
        <time>2014-07-14T20:19:24.45Z</time>
      </trkpt>
      <trkpt lat="42.375254" lon="2.308959">
        <ele>1413.60</ele>
        <time>2014-07-14T20:44:31.78Z</time>
      </trkpt>
      <trkpt lat="42.375248" lon="2.308922">
        <ele>1412.80</ele>
        <time>2014-07-14T21:36:48.67Z</time>
      </trkpt>
      <trkpt lat="42.375229" lon="2.308726">
        <ele>1408.40</ele>
        <time>2014-07-15T02:09:38.38Z</time>
      </trkpt>
      <trkpt lat="42.375243" lon="2.308663">
        <ele>1407.20</ele>
        <time>2014-07-15T03:40:26.28Z</time>
      </trkpt>
      <trkpt lat="42.375257" lon="2.308601">
        <ele>1406.20</ele>
        <time>2014-07-15T05:09:54.93Z</time>
      </trkpt>
      <trkpt lat="42.375266" lon="2.308553">
        <ele>1405.20</ele>
        <time>2014-07-15T06:18:15.79Z</time>
      </trkpt>
      <trkpt lat="42.375280" lon="2.308527">
        <ele>1403.60</ele>
        <time>2014-07-15T07:02:40.05Z</time>
      </trkpt>
      <trkpt lat="42.375289" lon="2.308533">
        <ele>1403.20</ele>
        <time>2014-07-15T07:21:24.61Z</time>
      </trkpt>
      <trkpt lat="42.375344" lon="2.308533">
        <ele>1402.80</ele>
        <time>2014-07-15T09:04:09.78Z</time>
      </trkpt>
      <trkpt lat="42.375364" lon="2.308514">
        <ele>1401.80</ele>
        <time>2014-07-15T09:49:48.67Z</time>
      </trkpt>
      <trkpt lat="42.375392" lon="2.308465">
        <ele>1400.40</ele>
        <time>2014-07-15T11:15:18.53Z</time>
      </trkpt>
      <trkpt lat="42.375409" lon="2.308403">
        <ele>1398.80</ele>
        <time>2014-07-15T12:46:34.92Z</time>
      </trkpt>
      <trkpt lat="42.375438" lon="2.308338">
        <ele>1397.20</ele>
        <time>2014-07-15T14:31:22.95Z</time>
      </trkpt>
      <trkpt lat="42.375477" lon="2.308281">
        <ele>1395.60</ele>
        <time>2014-07-15T16:18:36.51Z</time>
      </trkpt>
      <trkpt lat="42.375509" lon="2.308215">
        <ele>1394.40</ele>
        <time>2014-07-15T18:07:33.87Z</time>
      </trkpt>
      <trkpt lat="42.375535" lon="2.308160">
        <ele>1392.80</ele>
        <time>2014-07-15T19:37:41.02Z</time>
      </trkpt>
      <trkpt lat="42.375561" lon="2.308110">
        <ele>1391.40</ele>
        <time>2014-07-15T21:02:04.33Z</time>
      </trkpt>
      <trkpt lat="42.375573" lon="2.308054">
        <ele>1390.40</ele>
        <time>2014-07-15T22:22:32.77Z</time>
      </trkpt>
      <trkpt lat="42.375581" lon="2.307998">
        <ele>1389.20</ele>
        <time>2014-07-15T23:41:15.96Z</time>
      </trkpt>
      <trkpt lat="42.375591" lon="2.307943">
        <ele>1388.20</ele>
        <time>2014-07-16T00:59:26.35Z</time>
      </trkpt>
      <trkpt lat="42.375597" lon="2.307897">
        <ele>1387.40</ele>
        <time>2014-07-16T02:03:54.46Z</time>
      </trkpt>
      <trkpt lat="42.375595" lon="2.307872">
        <ele>1386.80</ele>
        <time>2014-07-16T02:38:36.78Z</time>
      </trkpt>
      <trkpt lat="42.375594" lon="2.307844">
        <ele>1385.80</ele>
        <time>2014-07-16T03:17:18.13Z</time>
      </trkpt>
      <trkpt lat="42.375600" lon="2.307781">
        <ele>1384.60</ele>
        <time>2014-07-16T04:44:58.25Z</time>
      </trkpt>
      <trkpt lat="42.375599" lon="2.307711">
        <ele>1383.40</ele>
        <time>2014-07-16T06:21:35.93Z</time>
      </trkpt>
      <trkpt lat="42.375597" lon="2.307668">
        <ele>1382.80</ele>
        <time>2014-07-16T07:21:03.75Z</time>
      </trkpt>
      <trkpt lat="42.375597" lon="2.307619">
        <ele>1382.00</ele>
        <time>2014-07-16T08:28:41.38Z</time>
      </trkpt>
      <trkpt lat="42.375614" lon="2.307515">
        <ele>1380.20</ele>
        <time>2014-07-16T10:55:41.78Z</time>
      </trkpt>
      <trkpt lat="42.375638" lon="2.307377">
        <ele>1378.40</ele>
        <time>2014-07-16T14:11:21.75Z</time>
      </trkpt>
      <trkpt lat="42.375663" lon="2.307216">
        <ele>1376.60</ele>
        <time>2014-07-16T17:58:25.26Z</time>
      </trkpt>
      <trkpt lat="42.375675" lon="2.307036">
        <ele>1374.20</ele>
        <time>2014-07-16T22:07:51.37Z</time>
      </trkpt>
      <trkpt lat="42.375673" lon="2.306945">
        <ele>1372.80</ele>
        <time>2014-07-17T00:13:30.28Z</time>
      </trkpt>
      <trkpt lat="42.375671" lon="2.306858">
        <ele>1371.40</ele>
        <time>2014-07-17T02:13:38.10Z</time>
      </trkpt>
      <trkpt lat="42.375667" lon="2.306776">
        <ele>1370.20</ele>
        <time>2014-07-17T04:07:03.19Z</time>
      </trkpt>
      <trkpt lat="42.375664" lon="2.306699">
        <ele>1369.00</ele>
        <time>2014-07-17T05:53:28.31Z</time>
      </trkpt>
      <trkpt lat="42.375660" lon="2.306629">
        <ele>1367.80</ele>
        <time>2014-07-17T07:30:22.22Z</time>
      </trkpt>
      <trkpt lat="42.375650" lon="2.306558">
        <ele>1366.80</ele>
        <time>2014-07-17T09:10:07.53Z</time>
      </trkpt>
      <trkpt lat="42.375620" lon="2.306419">
        <ele>1365.20</ele>
        <time>2014-07-17T12:29:59.09Z</time>
      </trkpt>
      <trkpt lat="42.375566" lon="2.306308">
        <ele>1362.60</ele>
        <time>2014-07-17T15:33:24.91Z</time>
      </trkpt>
      <trkpt lat="42.375487" lon="2.306224">
        <ele>1361.20</ele>
        <time>2014-07-17T18:41:05.62Z</time>
      </trkpt>
      <trkpt lat="42.375441" lon="2.306195">
        <ele>1360.80</ele>
        <time>2014-07-17T20:15:53.74Z</time>
      </trkpt>
      <trkpt lat="42.375396" lon="2.306164">
        <ele>1359.80</ele>
        <time>2014-07-17T21:50:13.61Z</time>
      </trkpt>
      <trkpt lat="42.375360" lon="2.306134">
        <ele>1358.80</ele>
        <time>2014-07-17T23:09:12.37Z</time>
      </trkpt>
      <trkpt lat="42.375317" lon="2.306105">
        <ele>1357.40</ele>
        <time>2014-07-18T00:38:57.52Z</time>
      </trkpt>
      <trkpt lat="42.375292" lon="2.306096">
        <ele>1356.60</ele>
        <time>2014-07-18T01:27:17.28Z</time>
      </trkpt>
      <trkpt lat="42.375272" lon="2.306088">
        <ele>1356.00</ele>
        <time>2014-07-18T02:06:14.99Z</time>
      </trkpt>
      <trkpt lat="42.375227" lon="2.306064">
        <ele>1354.60</ele>
        <time>2014-07-18T03:36:36.62Z</time>
      </trkpt>
      <trkpt lat="42.375166" lon="2.306027">
        <ele>1353.00</ele>
        <time>2014-07-18T05:41:29.44Z</time>
      </trkpt>
      <trkpt lat="42.375138" lon="2.305989">
        <ele>1352.00</ele>
        <time>2014-07-18T06:55:33.88Z</time>
      </trkpt>
      <trkpt lat="42.375111" lon="2.305946">
        <ele>1350.80</ele>
        <time>2014-07-18T08:13:27.12Z</time>
      </trkpt>
      <trkpt lat="42.375080" lon="2.305884">
        <ele>1349.80</ele>
        <time>2014-07-18T09:56:46.70Z</time>
      </trkpt>
      <trkpt lat="42.375048" lon="2.305814">
        <ele>1348.80</ele>
        <time>2014-07-18T11:50:23.43Z</time>
      </trkpt>
      <trkpt lat="42.375015" lon="2.305744">
        <ele>1347.40</ele>
        <time>2014-07-18T13:44:59.81Z</time>
      </trkpt>
      <trkpt lat="42.374983" lon="2.305677">
        <ele>1346.20</ele>
        <time>2014-07-18T15:35:06.58Z</time>
      </trkpt>
      <trkpt lat="42.374952" lon="2.305612">
        <ele>1345.00</ele>
        <time>2014-07-18T17:21:53.42Z</time>
      </trkpt>
      <trkpt lat="42.374898" lon="2.305484">
        <ele>1342.60</ele>
        <time>2014-07-18T20:45:19.63Z</time>
      </trkpt>
      <trkpt lat="42.374879" lon="2.305427">
        <ele>1342.00</ele>
        <time>2014-07-18T22:11:38.02Z</time>
      </trkpt>
      <trkpt lat="42.374852" lon="2.305367">
        <ele>1341.40</ele>
        <time>2014-07-18T23:48:35.81Z</time>
      </trkpt>
      <trkpt lat="42.374825" lon="2.305298">
        <ele>1340.20</ele>
        <time>2014-07-19T01:36:21.73Z</time>
      </trkpt>
      <trkpt lat="42.374799" lon="2.305222">
        <ele>1339.00</ele>
        <time>2014-07-19T03:31:57.33Z</time>
      </trkpt>
      <trkpt lat="42.374776" lon="2.305141">
        <ele>1338.20</ele>
        <time>2014-07-19T05:31:43.33Z</time>
      </trkpt>
      <trkpt lat="42.374757" lon="2.305064">
        <ele>1337.80</ele>
        <time>2014-07-19T07:23:45.97Z</time>
      </trkpt>
      <trkpt lat="42.374726" lon="2.304912">
        <ele>1336.00</ele>
        <time>2014-07-19T11:01:23.90Z</time>
      </trkpt>
      <trkpt lat="42.374688" lon="2.304744">
        <ele>1334.40</ele>
        <time>2014-07-19T15:03:53.43Z</time>
      </trkpt>
      <trkpt lat="42.374641" lon="2.304589">
        <ele>1332.60</ele>
        <time>2014-07-19T18:55:08.12Z</time>
      </trkpt>
      <trkpt lat="42.374598" lon="2.304445">
        <ele>1331.20</ele>
        <time>2014-07-19T22:29:30.06Z</time>
      </trkpt>
      <trkpt lat="42.374579" lon="2.304378">
        <ele>1330.40</ele>
        <time>2014-07-20T00:08:33.05Z</time>
      </trkpt>
      <trkpt lat="42.374558" lon="2.304307">
        <ele>1329.60</ele>
        <time>2014-07-20T01:54:06.28Z</time>
      </trkpt>
      <trkpt lat="42.374536" lon="2.304244">
        <ele>1328.80</ele>
        <time>2014-07-20T03:30:16.80Z</time>
      </trkpt>
      <trkpt lat="42.374510" lon="2.304193">
        <ele>1327.80</ele>
        <time>2014-07-20T04:55:48.11Z</time>
      </trkpt>
      <trkpt lat="42.374475" lon="2.304148">
        <ele>1326.80</ele>
        <time>2014-07-20T06:25:59.09Z</time>
      </trkpt>
      <trkpt lat="42.374406" lon="2.304068">
        <ele>1325.20</ele>
        <time>2014-07-20T09:15:42.92Z</time>
      </trkpt>
      <trkpt lat="42.374353" lon="2.304018">
        <ele>1324.00</ele>
        <time>2014-07-20T11:16:24.40Z</time>
      </trkpt>
      <trkpt lat="42.374325" lon="2.303999">
        <ele>1322.60</ele>
        <time>2014-07-20T12:14:55.33Z</time>
      </trkpt>
      <trkpt lat="42.374271" lon="2.303955">
        <ele>1320.80</ele>
        <time>2014-07-20T14:12:40.45Z</time>
      </trkpt>
      <trkpt lat="42.374210" lon="2.303915">
        <ele>1319.40</ele>
        <time>2014-07-20T16:19:18.26Z</time>
      </trkpt>
      <trkpt lat="42.374185" lon="2.303900">
        <ele>1318.80</ele>
        <time>2014-07-20T17:10:23.57Z</time>
      </trkpt>
      <trkpt lat="42.374161" lon="2.303884">
        <ele>1318.00</ele>
        <time>2014-07-20T18:00:22.40Z</time>
      </trkpt>
      <trkpt lat="42.374155" lon="2.303866">
        <ele>1317.20</ele>
        <time>2014-07-20T18:27:37.70Z</time>
      </trkpt>
      <trkpt lat="42.374163" lon="2.303855">
        <ele>1316.40</ele>
        <time>2014-07-20T18:48:55.95Z</time>
      </trkpt>
      <trkpt lat="42.374194" lon="2.303843">
        <ele>1315.40</ele>
        <time>2014-07-20T19:49:10.16Z</time>
      </trkpt>
      <trkpt lat="42.374247" lon="2.303847">
        <ele>1314.20</ele>
        <time>2014-07-20T21:28:20.37Z</time>
      </trkpt>
      <trkpt lat="42.374279" lon="2.303849">
        <ele>1313.40</ele>
        <time>2014-07-20T22:28:11.20Z</time>
      </trkpt>
      <trkpt lat="42.374315" lon="2.303847">
        <ele>1312.60</ele>
        <time>2014-07-20T23:35:29.99Z</time>
      </trkpt>
      <trkpt lat="42.374353" lon="2.303846">
        <ele>1311.40</ele>
        <time>2014-07-21T00:46:30.36Z</time>
      </trkpt>
      <trkpt lat="42.374389" lon="2.303847">
        <ele>1310.20</ele>
        <time>2014-07-21T01:53:46.60Z</time>
      </trkpt>
      <trkpt lat="42.374426" lon="2.303851">
        <ele>1308.80</ele>
        <time>2014-07-21T03:03:07.28Z</time>
      </trkpt>
      <trkpt lat="42.374477" lon="2.303857">
        <ele>1307.60</ele>
        <time>2014-07-21T04:38:45.63Z</time>
      </trkpt>
      <trkpt lat="42.374529" lon="2.303857">
        <ele>1306.40</ele>
        <time>2014-07-21T06:15:54.52Z</time>
      </trkpt>
      <trkpt lat="42.374575" lon="2.303856">
        <ele>1305.20</ele>
        <time>2014-07-21T07:41:51.50Z</time>
      </trkpt>
      <trkpt lat="42.374618" lon="2.303860">
        <ele>1304.00</ele>
        <time>2014-07-21T09:02:22.91Z</time>
      </trkpt>
      <trkpt lat="42.374660" lon="2.303858">
        <ele>1302.60</ele>
        <time>2014-07-21T10:20:53.78Z</time>
      </trkpt>
      <trkpt lat="42.374693" lon="2.303844">
        <ele>1301.60</ele>
        <time>2014-07-21T11:25:30.30Z</time>
      </trkpt>
      <trkpt lat="42.374725" lon="2.303828">
        <ele>1300.00</ele>
        <time>2014-07-21T12:29:14.19Z</time>
      </trkpt>
      <trkpt lat="42.374761" lon="2.303815">
        <ele>1298.80</ele>
        <time>2014-07-21T13:38:50.70Z</time>
      </trkpt>
      <trkpt lat="42.374799" lon="2.303799">
        <ele>1297.80</ele>
        <time>2014-07-21T14:53:11.58Z</time>
      </trkpt>
      <trkpt lat="42.374840" lon="2.303796">
        <ele>1296.80</ele>
        <time>2014-07-21T16:09:54.14Z</time>
      </trkpt>
      <trkpt lat="42.374880" lon="2.303810">
        <ele>1295.80</ele>
        <time>2014-07-21T17:27:05.36Z</time>
      </trkpt>
      <trkpt lat="42.374915" lon="2.303845">
        <ele>1295.00</ele>
        <time>2014-07-21T18:48:23.12Z</time>
      </trkpt>
      <trkpt lat="42.374958" lon="2.303977">
        <ele>1293.60</ele>
        <time>2014-07-21T22:07:29.51Z</time>
      </trkpt>
      <trkpt lat="42.375001" lon="2.304119">
        <ele>1292.40</ele>
        <time>2014-07-22T01:39:17.99Z</time>
      </trkpt>
      <trkpt lat="42.375046" lon="2.304216">
        <ele>1291.60</ele>
        <time>2014-07-22T04:17:23Z</time>
      </trkpt>
      <trkpt lat="42.375069" lon="2.304265">
        <ele>1290.80</ele>
        <time>2014-07-22T05:37:30.44Z</time>
      </trkpt>
      <trkpt lat="42.375096" lon="2.304324">
        <ele>1289.80</ele>
        <time>2014-07-22T07:13:17.66Z</time>
      </trkpt>
      <trkpt lat="42.375125" lon="2.304387">
        <ele>1288.80</ele>
        <time>2014-07-22T08:55:44.54Z</time>
      </trkpt>
      <trkpt lat="42.375159" lon="2.304446">
        <ele>1287.60</ele>
        <time>2014-07-22T10:39:00.96Z</time>
      </trkpt>
      <trkpt lat="42.375204" lon="2.304497">
        <ele>1286.00</ele>
        <time>2014-07-22T12:28:39.73Z</time>
      </trkpt>
      <trkpt lat="42.375252" lon="2.304540">
        <ele>1284.60</ele>
        <time>2014-07-22T14:16:11.80Z</time>
      </trkpt>
      <trkpt lat="42.375309" lon="2.304578">
        <ele>1283.20</ele>
        <time>2014-07-22T16:14:54.01Z</time>
      </trkpt>
      <trkpt lat="42.375397" lon="2.304605">
        <ele>1281.20</ele>
        <time>2014-07-22T19:03:28.50Z</time>
      </trkpt>
      <trkpt lat="42.375459" lon="2.304553">
        <ele>1279.40</ele>
        <time>2014-07-22T21:19:44.21Z</time>
      </trkpt>
      <trkpt lat="42.375473" lon="2.304513">
        <ele>1278.40</ele>
        <time>2014-07-22T22:20:49.51Z</time>
      </trkpt>
      <trkpt lat="42.375463" lon="2.304467">
        <ele>1276.80</ele>
        <time>2014-07-22T23:27:00.22Z</time>
      </trkpt>
      <trkpt lat="42.375407" lon="2.304347">
        <ele>1275.20</ele>
        <time>2014-07-23T02:42:53.91Z</time>
      </trkpt>
      <trkpt lat="42.375360" lon="2.304251">
        <ele>1273.80</ele>
        <time>2014-07-23T05:21:50.85Z</time>
      </trkpt>
      <trkpt lat="42.375350" lon="2.304205">
        <ele>1273.00</ele>
        <time>2014-07-23T06:28:01.56Z</time>
      </trkpt>
      <trkpt lat="42.375341" lon="2.304157">
        <ele>1272.20</ele>
        <time>2014-07-23T07:36:22.42Z</time>
      </trkpt>
      <trkpt lat="42.375315" lon="2.304069">
        <ele>1270.40</ele>
        <time>2014-07-23T09:47:10.80Z</time>
      </trkpt>
      <trkpt lat="42.375286" lon="2.303976">
        <ele>1268.80</ele>
        <time>2014-07-23T12:06:30.01Z</time>
      </trkpt>
      <trkpt lat="42.375284" lon="2.303940">
        <ele>1268.00</ele>
        <time>2014-07-23T12:56:19.55Z</time>
      </trkpt>
      <trkpt lat="42.375287" lon="2.303917">
        <ele>1267.00</ele>
        <time>2014-07-23T13:28:33.61Z</time>
      </trkpt>
      <trkpt lat="42.375282" lon="2.303890">
        <ele>1265.20</ele>
        <time>2014-07-23T14:06:58.64Z</time>
      </trkpt>
      <trkpt lat="42.375274" lon="2.303892">
        <ele>1264.40</ele>
        <time>2014-07-23T14:23:47.48Z</time>
      </trkpt>
      <trkpt lat="42.375297" lon="2.303928">
        <ele>1263.80</ele>
        <time>2014-07-23T15:29:28.80Z</time>
      </trkpt>
      <trkpt lat="42.375321" lon="2.303940">
        <ele>1263.00</ele>
        <time>2014-07-23T16:17:16.72Z</time>
      </trkpt>
      <trkpt lat="42.375346" lon="2.303915">
        <ele>1262.40</ele>
        <time>2014-07-23T17:15:20.82Z</time>
      </trkpt>
      <trkpt lat="42.375372" lon="2.303857">
        <ele>1261.20</ele>
        <time>2014-07-23T18:48:58.83Z</time>
      </trkpt>
      <trkpt lat="42.375441" lon="2.303823">
        <ele>1259.00</ele>
        <time>2014-07-23T21:06:09.83Z</time>
      </trkpt>
      <trkpt lat="42.375461" lon="2.303831">
        <ele>1258.80</ele>
        <time>2014-07-23T21:45:07.54Z</time>
      </trkpt>
      <trkpt lat="42.375535" lon="2.303741">
        <ele>1258.80</ele>
        <time>2014-07-24T00:50:58.79Z</time>
      </trkpt>
      <trkpt lat="42.375515" lon="2.303668">
        <ele>1258.60</ele>
        <time>2014-07-24T02:38:26.15Z</time>
      </trkpt>
      <trkpt lat="42.375483" lon="2.303564">
        <ele>1258.60</ele>
        <time>2014-07-24T05:13:55.41Z</time>
      </trkpt>
      <trkpt lat="42.375463" lon="2.303488">
        <ele>1258.40</ele>
        <time>2014-07-24T07:05:16.26Z</time>
      </trkpt>
      <trkpt lat="42.375438" lon="2.303315">
        <ele>1257.80</ele>
        <time>2014-07-24T11:08:33.69Z</time>
      </trkpt>
      <trkpt lat="42.375433" lon="2.303231">
        <ele>1257.40</ele>
        <time>2014-07-24T13:04:52.18Z</time>
      </trkpt>
      <trkpt lat="42.375437" lon="2.303161">
        <ele>1257.20</ele>
        <time>2014-07-24T14:41:46.11Z</time>
      </trkpt>
      <trkpt lat="42.375491" lon="2.303056">
        <ele>1256.40</ele>
        <time>2014-07-24T17:38:20.52Z</time>
      </trkpt>
      <trkpt lat="42.375655" lon="2.302993">
        <ele>1255.60</ele>
        <time>2014-07-24T22:56:49.85Z</time>
      </trkpt>
      <trkpt lat="42.375692" lon="2.302949">
        <ele>1255.60</ele>
        <time>2014-07-25T00:28:50.46Z</time>
      </trkpt>
      <trkpt lat="42.375711" lon="2.302890">
        <ele>1255.80</ele>
        <time>2014-07-25T01:57:40.20Z</time>
      </trkpt>
      <trkpt lat="42.375711" lon="2.302694">
        <ele>1256.00</ele>
        <time>2014-07-25T06:28:10.65Z</time>
      </trkpt>
      <trkpt lat="42.375698" lon="2.302632">
        <ele>1255.80</ele>
        <time>2014-07-25T07:57:07.57Z</time>
      </trkpt>
      <trkpt lat="42.375610" lon="2.302550">
        <ele>1256.00</ele>
        <time>2014-07-25T11:16:43.05Z</time>
      </trkpt>
      <trkpt lat="42.375495" lon="2.302549">
        <ele>1256.00</ele>
        <time>2014-07-25T14:51:34.13Z</time>
      </trkpt>
      <trkpt lat="42.375432" lon="2.302548">
        <ele>1255.80</ele>
        <time>2014-07-25T16:49:16.54Z</time>
      </trkpt>
      <trkpt lat="42.375365" lon="2.302539">
        <ele>1255.60</ele>
        <time>2014-07-25T18:55:03.72Z</time>
      </trkpt>
      <trkpt lat="42.375294" lon="2.302518">
        <ele>1255.00</ele>
        <time>2014-07-25T21:10:50.17Z</time>
      </trkpt>
      <trkpt lat="42.375141" lon="2.302446">
        <ele>1254.40</ele>
        <time>2014-07-26T02:13:27.37Z</time>
      </trkpt>
      <trkpt lat="42.375061" lon="2.302403">
        <ele>1254.00</ele>
        <time>2014-07-26T04:54:15.99Z</time>
      </trkpt>
      <trkpt lat="42.374899" lon="2.302312">
        <ele>1252.80</ele>
        <time>2014-07-26T10:21:56.70Z</time>
      </trkpt>
      <trkpt lat="42.374656" lon="2.302160">
        <ele>1251.40</ele>
        <time>2014-07-26T18:42:03.18Z</time>
      </trkpt>
      <trkpt lat="42.374575" lon="2.302107">
        <ele>1251.00</ele>
        <time>2014-07-26T21:30:07.93Z</time>
      </trkpt>
      <trkpt lat="42.374405" lon="2.302002">
        <ele>1250.20</ele>
        <time>2014-07-27T03:19:13.92Z</time>
      </trkpt>
      <trkpt lat="42.374148" lon="2.301837">
        <ele>1249.00</ele>
        <time>2014-07-27T12:10:38.19Z</time>
      </trkpt>
      <trkpt lat="42.373889" lon="2.301677">
        <ele>1247.80</ele>
        <time>2014-07-27T21:02:31.07Z</time>
      </trkpt>
      <trkpt lat="42.373636" lon="2.301517">
        <ele>1246.60</ele>
        <time>2014-07-28T05:44:13.37Z</time>
      </trkpt>
      <trkpt lat="42.373470" lon="2.301406">
        <ele>1245.20</ele>
        <time>2014-07-28T11:30:07.57Z</time>
      </trkpt>
      <trkpt lat="42.373393" lon="2.301335">
        <ele>1244.80</ele>
        <time>2014-07-28T14:24:11.14Z</time>
      </trkpt>
      <trkpt lat="42.373264" lon="2.301163">
        <ele>1243.80</ele>
        <time>2014-07-28T20:02:28.31Z</time>
      </trkpt>
      <trkpt lat="42.373154" lon="2.300971">
        <ele>1243.00</ele>
        <time>2014-07-29T01:37:49.01Z</time>
      </trkpt>
      <trkpt lat="42.373106" lon="2.300868">
        <ele>1242.80</ele>
        <time>2014-07-29T04:25:53.87Z</time>
      </trkpt>
      <trkpt lat="42.373073" lon="2.300643">
        <ele>1241.60</ele>
        <time>2014-07-29T09:42:30.19Z</time>
      </trkpt>
      <trkpt lat="42.372997" lon="2.300414">
        <ele>1241.20</ele>
        <time>2014-07-29T15:28:59.78Z</time>
      </trkpt>
      <trkpt lat="42.372876" lon="2.300430">
        <ele>1241.00</ele>
        <time>2014-07-29T19:16:07.72Z</time>
      </trkpt>
      <trkpt lat="42.372622" lon="2.300472">
        <ele>1241.20</ele>
        <time>2014-07-30T03:14:11.25Z</time>
      </trkpt>
      <trkpt lat="42.372426" lon="2.300377">
        <ele>1241.20</ele>
        <time>2014-07-30T09:43:07.76Z</time>
      </trkpt>
      <trkpt lat="42.372369" lon="2.300321">
        <ele>1241.20</ele>
        <time>2014-07-30T11:54:42.72Z</time>
      </trkpt>
      <trkpt lat="42.372194" lon="2.300003">
        <ele>1240.80</ele>
        <time>2014-07-30T21:02:00.39Z</time>
      </trkpt>
      <trkpt lat="42.372156" lon="2.299912">
        <ele>1240.60</ele>
        <time>2014-07-30T23:26:16.90Z</time>
      </trkpt>
      <trkpt lat="42.372018" lon="2.299650">
        <ele>1240.40</ele>
        <time>2014-07-31T06:50:23.70Z</time>
      </trkpt>
      <trkpt lat="42.371956" lon="2.299577">
        <ele>1240.40</ele>
        <time>2014-07-31T09:23:54.92Z</time>
      </trkpt>
      <trkpt lat="42.371732" lon="2.299428">
        <ele>1239.60</ele>
        <time>2014-07-31T17:10:12.08Z</time>
      </trkpt>
      <trkpt lat="42.371650" lon="2.299400">
        <ele>1239.00</ele>
        <time>2014-07-31T19:48:11.75Z</time>
      </trkpt>
      <trkpt lat="42.371470" lon="2.299358">
        <ele>1237.40</ele>
        <time>2014-08-01T01:29:26.27Z</time>
      </trkpt>
      <trkpt lat="42.371373" lon="2.299339">
        <ele>1236.80</ele>
        <time>2014-08-01T04:32:32.65Z</time>
      </trkpt>
      <trkpt lat="42.371275" lon="2.299313">
        <ele>1236.20</ele>
        <time>2014-08-01T07:39:06.89Z</time>
      </trkpt>
      <trkpt lat="42.371178" lon="2.299271">
        <ele>1235.60</ele>
        <time>2014-08-01T10:49:22.78Z</time>
      </trkpt>
      <trkpt lat="42.371091" lon="2.299199">
        <ele>1235.00</ele>
        <time>2014-08-01T13:59:53.36Z</time>
      </trkpt>
      <trkpt lat="42.370956" lon="2.298998">
        <ele>1233.80</ele>
        <time>2014-08-01T20:14:49.56Z</time>
      </trkpt>
      <trkpt lat="42.370901" lon="2.298884">
        <ele>1233.40</ele>
        <time>2014-08-01T23:22:45.18Z</time>
      </trkpt>
      <trkpt lat="42.370784" lon="2.298661">
        <ele>1232.40</ele>
        <time>2014-08-02T05:40:16Z</time>
      </trkpt>
      <trkpt lat="42.370644" lon="2.298471">
        <ele>1230.60</ele>
        <time>2014-08-02T11:50:38.99Z</time>
      </trkpt>
      <trkpt lat="42.370563" lon="2.298389">
        <ele>1230.20</ele>
        <time>2014-08-02T14:59:37.20Z</time>
      </trkpt>
      <trkpt lat="42.370476" lon="2.298318">
        <ele>1229.40</ele>
        <time>2014-08-02T18:09:24.82Z</time>
      </trkpt>
      <trkpt lat="42.370290" lon="2.298191">
        <ele>1228.00</ele>
        <time>2014-08-03T00:38:36.92Z</time>
      </trkpt>
      <trkpt lat="42.370196" lon="2.298129">
        <ele>1227.20</ele>
        <time>2014-08-03T03:53:58.21Z</time>
      </trkpt>
      <trkpt lat="42.370101" lon="2.298065">
        <ele>1226.20</ele>
        <time>2014-08-03T07:12:13.25Z</time>
      </trkpt>
      <trkpt lat="42.370006" lon="2.297999">
        <ele>1225.20</ele>
        <time>2014-08-03T10:31:43.02Z</time>
      </trkpt>
      <trkpt lat="42.369811" lon="2.297872">
        <ele>1223.60</ele>
        <time>2014-08-03T17:16:00.13Z</time>
      </trkpt>
      <trkpt lat="42.369612" lon="2.297737">
        <ele>1222.20</ele>
        <time>2014-08-04T00:11:51.81Z</time>
      </trkpt>
      <trkpt lat="42.369516" lon="2.297660">
        <ele>1221.40</ele>
        <time>2014-08-04T03:40:20.37Z</time>
      </trkpt>
      <trkpt lat="42.369427" lon="2.297574">
        <ele>1220.80</ele>
        <time>2014-08-04T07:04:38.19Z</time>
      </trkpt>
      <trkpt lat="42.369171" lon="2.297310">
        <ele>1219.80</ele>
        <time>2014-08-04T17:05:54.28Z</time>
      </trkpt>
      <trkpt lat="42.368893" lon="2.297101">
        <ele>1218.60</ele>
        <time>2014-08-05T03:00:00.78Z</time>
      </trkpt>
      <trkpt lat="42.368796" lon="2.297036">
        <ele>1218.20</ele>
        <time>2014-08-05T06:22:13.50Z</time>
      </trkpt>
      <trkpt lat="42.368604" lon="2.296910">
        <ele>1217.40</ele>
        <time>2014-08-05T13:00:51.87Z</time>
      </trkpt>
      <trkpt lat="42.368408" lon="2.296790">
        <ele>1216.00</ele>
        <time>2014-08-05T19:42:45.49Z</time>
      </trkpt>
      <trkpt lat="42.368213" lon="2.296672">
        <ele>1214.80</ele>
        <time>2014-08-06T02:21:48.95Z</time>
      </trkpt>
      <trkpt lat="42.368017" lon="2.296556">
        <ele>1213.80</ele>
        <time>2014-08-06T09:01:27.96Z</time>
      </trkpt>
      <trkpt lat="42.367918" lon="2.296499">
        <ele>1213.40</ele>
        <time>2014-08-06T12:22:27.60Z</time>
      </trkpt>
      <trkpt lat="42.367724" lon="2.296389">
        <ele>1212.60</ele>
        <time>2014-08-06T18:55:24.97Z</time>
      </trkpt>
      <trkpt lat="42.367534" lon="2.296274">
        <ele>1211.20</ele>
        <time>2014-08-07T01:24:15.40Z</time>
      </trkpt>
      <trkpt lat="42.367356" lon="2.296143">
        <ele>1210.20</ele>
        <time>2014-08-07T07:42:47.07Z</time>
      </trkpt>
      <trkpt lat="42.367190" lon="2.295978">
        <ele>1209.00</ele>
        <time>2014-08-07T14:07:33.46Z</time>
      </trkpt>
      <trkpt lat="42.367021" lon="2.295822">
        <ele>1207.80</ele>
        <time>2014-08-07T20:29:43.67Z</time>
      </trkpt>
      <trkpt lat="42.366934" lon="2.295748">
        <ele>1207.20</ele>
        <time>2014-08-07T23:41:41.72Z</time>
      </trkpt>
      <trkpt lat="42.366844" lon="2.295684">
        <ele>1206.60</ele>
        <time>2014-08-08T02:51:37.87Z</time>
      </trkpt>
      <trkpt lat="42.366659" lon="2.295568">
        <ele>1205.40</ele>
        <time>2014-08-08T09:12:32.56Z</time>
      </trkpt>
      <trkpt lat="42.366472" lon="2.295448">
        <ele>1204.20</ele>
        <time>2014-08-08T15:39:10.85Z</time>
      </trkpt>
      <trkpt lat="42.366285" lon="2.295325">
        <ele>1203.00</ele>
        <time>2014-08-08T22:07:36.69Z</time>
      </trkpt>
      <trkpt lat="42.366100" lon="2.295199">
        <ele>1201.60</ele>
        <time>2014-08-09T04:34:31.72Z</time>
      </trkpt>
      <trkpt lat="42.365918" lon="2.295067">
        <ele>1200.20</ele>
        <time>2014-08-09T11:00:17.41Z</time>
      </trkpt>
      <trkpt lat="42.365745" lon="2.294915">
        <ele>1199.20</ele>
        <time>2014-08-09T17:25:37.52Z</time>
      </trkpt>
      <trkpt lat="42.365659" lon="2.294839">
        <ele>1198.80</ele>
        <time>2014-08-09T20:37:30.61Z</time>
      </trkpt>
      <trkpt lat="42.365492" lon="2.294684">
        <ele>1197.80</ele>
        <time>2014-08-10T02:55:49.19Z</time>
      </trkpt>
      <trkpt lat="42.365244" lon="2.294446">
        <ele>1196.20</ele>
        <time>2014-08-10T12:23:47.79Z</time>
      </trkpt>
      <trkpt lat="42.364994" lon="2.294205">
        <ele>1195.00</ele>
        <time>2014-08-10T21:57:13.12Z</time>
      </trkpt>
      <trkpt lat="42.364911" lon="2.294125">
        <ele>1194.60</ele>
        <time>2014-08-11T01:07:35.12Z</time>
      </trkpt>
      <trkpt lat="42.364747" lon="2.293973">
        <ele>1193.80</ele>
        <time>2014-08-11T07:18:55.93Z</time>
      </trkpt>
      <trkpt lat="42.364395" lon="2.293710">
        <ele>1192.40</ele>
        <time>2014-08-11T19:50:06.30Z</time>
      </trkpt>
      <trkpt lat="42.364305" lon="2.293656">
        <ele>1192.00</ele>
        <time>2014-08-11T22:54:01.70Z</time>
      </trkpt>
      <trkpt lat="42.364123" lon="2.293548">
        <ele>1190.80</ele>
        <time>2014-08-12T05:05:17.64Z</time>
      </trkpt>
      <trkpt lat="42.363850" lon="2.293389">
        <ele>1189.80</ele>
        <time>2014-08-12T14:20:32.57Z</time>
      </trkpt>
      <trkpt lat="42.363577" lon="2.293226">
        <ele>1188.40</ele>
        <time>2014-08-12T23:37:59.86Z</time>
      </trkpt>
      <trkpt lat="42.363293" lon="2.293083">
        <ele>1187.60</ele>
        <time>2014-08-13T09:04:06.41Z</time>
      </trkpt>
      <trkpt lat="42.363197" lon="2.293042">
        <ele>1187.20</ele>
        <time>2014-08-13T12:12:10.53Z</time>
      </trkpt>
      <trkpt lat="42.362807" lon="2.292919">
        <ele>1186.20</ele>
        <time>2014-08-14T00:40:18.52Z</time>
      </trkpt>
      <trkpt lat="42.362708" lon="2.292898">
        <ele>1185.60</ele>
        <time>2014-08-14T03:47:31.31Z</time>
      </trkpt>
      <trkpt lat="42.362511" lon="2.292860">
        <ele>1185.00</ele>
        <time>2014-08-14T09:59:16.99Z</time>
      </trkpt>
      <trkpt lat="42.362218" lon="2.292798">
        <ele>1183.60</ele>
        <time>2014-08-14T19:13:19.57Z</time>
      </trkpt>
      <trkpt lat="42.362022" lon="2.292757">
        <ele>1182.20</ele>
        <time>2014-08-15T01:23:50.89Z</time>
      </trkpt>
      <trkpt lat="42.361923" lon="2.292729">
        <ele>1181.80</ele>
        <time>2014-08-15T04:32:47.93Z</time>
      </trkpt>
      <trkpt lat="42.361822" lon="2.292706">
        <ele>1181.20</ele>
        <time>2014-08-15T07:44:08.58Z</time>
      </trkpt>
      <trkpt lat="42.361326" lon="2.292589">
        <ele>1180.00</ele>
        <time>2014-08-15T23:24:45.44Z</time>
      </trkpt>
      <trkpt lat="42.360937" lon="2.292542">
        <ele>1178.80</ele>
        <time>2014-08-16T11:34:23.44Z</time>
      </trkpt>
      <trkpt lat="42.360747" lon="2.292537">
        <ele>1178.20</ele>
        <time>2014-08-16T17:29:25.32Z</time>
      </trkpt>
      <trkpt lat="42.360653" lon="2.292539">
        <ele>1177.60</ele>
        <time>2014-08-16T20:25:03.46Z</time>
      </trkpt>
      <trkpt lat="42.360561" lon="2.292558">
        <ele>1177.40</ele>
        <time>2014-08-16T23:18:55.50Z</time>
      </trkpt>
      <trkpt lat="42.360378" lon="2.292627">
        <ele>1176.80</ele>
        <time>2014-08-17T05:13:49.97Z</time>
      </trkpt>
      <trkpt lat="42.360287" lon="2.292668">
        <ele>1176.40</ele>
        <time>2014-08-17T08:13:00.97Z</time>
      </trkpt>
      <trkpt lat="42.360015" lon="2.292799">
        <ele>1174.60</ele>
        <time>2014-08-17T17:12:23.75Z</time>
      </trkpt>
      <trkpt lat="42.359824" lon="2.292877">
        <ele>1173.20</ele>
        <time>2014-08-17T23:25:07.26Z</time>
      </trkpt>
      <trkpt lat="42.359342" lon="2.293063">
        <ele>1171.80</ele>
        <time>2014-08-18T15:01:30.19Z</time>
      </trkpt>
      <trkpt lat="42.359163" lon="2.293179">
        <ele>1171.00</ele>
        <time>2014-08-18T21:12:16.91Z</time>
      </trkpt>
      <trkpt lat="42.359075" lon="2.293240">
        <ele>1170.60</ele>
        <time>2014-08-19T00:16:59.92Z</time>
      </trkpt>
      <trkpt lat="42.358899" lon="2.293369">
        <ele>1169.00</ele>
        <time>2014-08-19T06:30:56.22Z</time>
      </trkpt>
      <trkpt lat="42.358720" lon="2.293500">
        <ele>1167.40</ele>
        <time>2014-08-19T12:51:07.14Z</time>
      </trkpt>
      <trkpt lat="42.358628" lon="2.293554">
        <ele>1166.80</ele>
        <time>2014-08-19T15:58:28.01Z</time>
      </trkpt>
      <trkpt lat="42.358531" lon="2.293591">
        <ele>1166.40</ele>
        <time>2014-08-19T19:06:44.80Z</time>
      </trkpt>
      <trkpt lat="42.358327" lon="2.293606">
        <ele>1165.00</ele>
        <time>2014-08-20T01:28:25.71Z</time>
      </trkpt>
      <trkpt lat="42.358223" lon="2.293604">
        <ele>1164.80</ele>
        <time>2014-08-20T04:42:44.66Z</time>
      </trkpt>
      <trkpt lat="42.358018" lon="2.293595">
        <ele>1163.60</ele>
        <time>2014-08-20T11:05:56.02Z</time>
      </trkpt>
      <trkpt lat="42.357807" lon="2.293567">
        <ele>1162.40</ele>
        <time>2014-08-20T17:42:01.30Z</time>
      </trkpt>
      <trkpt lat="42.357706" lon="2.293526">
        <ele>1161.80</ele>
        <time>2014-08-20T20:59:01.19Z</time>
      </trkpt>
      <trkpt lat="42.357606" lon="2.293472">
        <ele>1161.40</ele>
        <time>2014-08-21T00:20:10.07Z</time>
      </trkpt>
      <trkpt lat="42.357343" lon="2.293229">
        <ele>1160.00</ele>
        <time>2014-08-21T10:15:06.87Z</time>
      </trkpt>
      <trkpt lat="42.357273" lon="2.293140">
        <ele>1159.00</ele>
        <time>2014-08-21T13:14:33.34Z</time>
      </trkpt>
      <trkpt lat="42.357199" lon="2.292983">
        <ele>1157.60</ele>
        <time>2014-08-21T17:31:38.31Z</time>
      </trkpt>
      <trkpt lat="42.357199" lon="2.292853">
        <ele>1156.20</ele>
        <time>2014-08-21T20:31:06.59Z</time>
      </trkpt>
      <trkpt lat="42.357222" lon="2.292798">
        <ele>1155.60</ele>
        <time>2014-08-21T21:58:21.31Z</time>
      </trkpt>
      <trkpt lat="42.357259" lon="2.292741">
        <ele>1155.00</ele>
        <time>2014-08-21T23:43:05.72Z</time>
      </trkpt>
      <trkpt lat="42.357332" lon="2.292620">
        <ele>1154.80</ele>
        <time>2014-08-22T03:18:44.61Z</time>
      </trkpt>
      <trkpt lat="42.357355" lon="2.292558">
        <ele>1155.20</ele>
        <time>2014-08-22T04:54:31.05Z</time>
      </trkpt>
      <trkpt lat="42.357312" lon="2.292372">
        <ele>1155.60</ele>
        <time>2014-08-22T09:23:34.31Z</time>
      </trkpt>
      <trkpt lat="42.357285" lon="2.292321">
        <ele>1155.80</ele>
        <time>2014-08-22T10:50:11.04Z</time>
      </trkpt>
      <trkpt lat="42.357131" lon="2.292076">
        <ele>1155.00</ele>
        <time>2014-08-22T18:14:13.90Z</time>
      </trkpt>
      <trkpt lat="42.357074" lon="2.292028">
        <ele>1153.20</ele>
        <time>2014-08-22T20:19:39.34Z</time>
      </trkpt>
      <trkpt lat="42.357016" lon="2.291990">
        <ele>1152.20</ele>
        <time>2014-08-22T22:20:02.68Z</time>
      </trkpt>
      <trkpt lat="42.356869" lon="2.291879">
        <ele>1152.40</ele>
        <time>2014-08-23T03:34:32.16Z</time>
      </trkpt>
      <trkpt lat="42.356727" lon="2.291741">
        <ele>1152.40</ele>
        <time>2014-08-23T09:01:08.84Z</time>
      </trkpt>
      <trkpt lat="42.356614" lon="2.291637">
        <ele>1152.40</ele>
        <time>2014-08-23T13:16:27.33Z</time>
      </trkpt>
      <trkpt lat="42.356484" lon="2.291545">
        <ele>1152.00</ele>
        <time>2014-08-23T17:50:31.93Z</time>
      </trkpt>
      <trkpt lat="42.356293" lon="2.291403">
        <ele>1151.00</ele>
        <time>2014-08-24T00:37:40.20Z</time>
      </trkpt>
      <trkpt lat="42.356113" lon="2.291191">
        <ele>1150.20</ele>
        <time>2014-08-24T08:03:28.87Z</time>
      </trkpt>
      <trkpt lat="42.356049" lon="2.291141">
        <ele>1149.80</ele>
        <time>2014-08-24T10:21:32.61Z</time>
      </trkpt>
      <trkpt lat="42.355857" lon="2.291064">
        <ele>1148.80</ele>
        <time>2014-08-24T16:35:39.90Z</time>
      </trkpt>
      <trkpt lat="42.355788" lon="2.291098">
        <ele>1148.40</ele>
        <time>2014-08-24T18:52:51.20Z</time>
      </trkpt>
      <trkpt lat="42.355653" lon="2.291135">
        <ele>1148.00</ele>
        <time>2014-08-24T23:10:11.14Z</time>
      </trkpt>
      <trkpt lat="42.355510" lon="2.291073">
        <ele>1147.00</ele>
        <time>2014-08-25T03:50:43.23Z</time>
      </trkpt>
      <trkpt lat="42.355442" lon="2.291027">
        <ele>1147.00</ele>
        <time>2014-08-25T06:12:44.97Z</time>
      </trkpt>
      <trkpt lat="42.355295" lon="2.290956">
        <ele>1146.80</ele>
        <time>2014-08-25T11:04:20.92Z</time>
      </trkpt>
      <trkpt lat="42.355145" lon="2.290944">
        <ele>1146.00</ele>
        <time>2014-08-25T15:45:04.38Z</time>
      </trkpt>
      <trkpt lat="42.355064" lon="2.290948">
        <ele>1145.80</ele>
        <time>2014-08-25T18:16:30.04Z</time>
      </trkpt>
      <trkpt lat="42.354834" lon="2.290985">
        <ele>1144.60</ele>
        <time>2014-08-26T01:29:13.20Z</time>
      </trkpt>
      <trkpt lat="42.354706" lon="2.291029">
        <ele>1143.20</ele>
        <time>2014-08-26T05:35:56.94Z</time>
      </trkpt>
      <trkpt lat="42.354634" lon="2.291057">
        <ele>1143.00</ele>
        <time>2014-08-26T07:55:54.38Z</time>
      </trkpt>
      <trkpt lat="42.354543" lon="2.291056">
        <ele>1143.40</ele>
        <time>2014-08-26T10:45:55.27Z</time>
      </trkpt>
      <trkpt lat="42.354401" lon="2.291046">
        <ele>1144.40</ele>
        <time>2014-08-26T15:11:34.16Z</time>
      </trkpt>
      <trkpt lat="42.354319" lon="2.291023">
        <ele>1145.40</ele>
        <time>2014-08-26T17:48:01.25Z</time>
      </trkpt>
      <trkpt lat="42.354216" lon="2.291034">
        <ele>1146.60</ele>
        <time>2014-08-26T21:01:02.83Z</time>
      </trkpt>
      <trkpt lat="42.354190" lon="2.291036">
        <ele>1147.00</ele>
        <time>2014-08-26T21:49:41.98Z</time>
      </trkpt>
      <trkpt lat="42.354162" lon="2.291037">
        <ele>1147.40</ele>
        <time>2014-08-26T22:42:01.70Z</time>
      </trkpt>
      <trkpt lat="42.354132" lon="2.291041">
        <ele>1147.80</ele>
        <time>2014-08-26T23:38:20.81Z</time>
      </trkpt>
      <trkpt lat="42.354046" lon="2.291078">
        <ele>1148.80</ele>
        <time>2014-08-27T02:26:56.40Z</time>
      </trkpt>
      <trkpt lat="42.354017" lon="2.291085">
        <ele>1149.20</ele>
        <time>2014-08-27T03:21:58.44Z</time>
      </trkpt>
      <trkpt lat="42.353960" lon="2.291104">
        <ele>1149.80</ele>
        <time>2014-08-27T05:11:38.80Z</time>
      </trkpt>
      <trkpt lat="42.353862" lon="2.291070">
        <ele>1150.60</ele>
        <time>2014-08-27T08:20:39.32Z</time>
      </trkpt>
      <trkpt lat="42.353828" lon="2.291021">
        <ele>1151.00</ele>
        <time>2014-08-27T09:53:27.16Z</time>
      </trkpt>
      <trkpt lat="42.353781" lon="2.290950">
        <ele>1151.80</ele>
        <time>2014-08-27T12:05:03.22Z</time>
      </trkpt>
      <trkpt lat="42.353765" lon="2.290920">
        <ele>1152.20</ele>
        <time>2014-08-27T12:56:07.93Z</time>
      </trkpt>
      <trkpt lat="42.353754" lon="2.290838">
        <ele>1153.20</ele>
        <time>2014-08-27T14:51:11.61Z</time>
      </trkpt>
      <trkpt lat="42.353727" lon="2.290756">
        <ele>1154.20</ele>
        <time>2014-08-27T16:55:08.02Z</time>
      </trkpt>
      <trkpt lat="42.353685" lon="2.290710">
        <ele>1154.40</ele>
        <time>2014-08-27T18:36:04.83Z</time>
      </trkpt>
      <trkpt lat="42.353607" lon="2.290697">
        <ele>1154.20</ele>
        <time>2014-08-27T21:02:54.23Z</time>
      </trkpt>
      <trkpt lat="42.353587" lon="2.290703">
        <ele>1154.00</ele>
        <time>2014-08-27T21:41:10.54Z</time>
      </trkpt>
      <trkpt lat="42.353474" lon="2.290704">
        <ele>1153.60</ele>
        <time>2014-08-28T01:12:17.43Z</time>
      </trkpt>
      <trkpt lat="42.353278" lon="2.290698">
        <ele>1154.00</ele>
        <time>2014-08-28T07:18:33.48Z</time>
      </trkpt>
      <trkpt lat="42.353022" lon="2.290717">
        <ele>1155.20</ele>
        <time>2014-08-28T15:17:32.68Z</time>
      </trkpt>
      <trkpt lat="42.352976" lon="2.290721">
        <ele>1156.00</ele>
        <time>2014-08-28T16:43:39.64Z</time>
      </trkpt>
      <trkpt lat="42.352817" lon="2.290738">
        <ele>1157.00</ele>
        <time>2014-08-28T21:41:38.13Z</time>
      </trkpt>
      <trkpt lat="42.352785" lon="2.290729">
        <ele>1157.20</ele>
        <time>2014-08-28T22:42:41.80Z</time>
      </trkpt>
      <trkpt lat="42.352666" lon="2.290734">
        <ele>1158.40</ele>
        <time>2014-08-29T02:25:07.42Z</time>
      </trkpt>
      <trkpt lat="42.352555" lon="2.290819">
        <ele>1159.60</ele>
        <time>2014-08-29T06:23:24.07Z</time>
      </trkpt>
      <trkpt lat="42.352528" lon="2.290840">
        <ele>1160.20</ele>
        <time>2014-08-29T07:21:34.94Z</time>
      </trkpt>
      <trkpt lat="42.352486" lon="2.290893">
        <ele>1160.80</ele>
        <time>2014-08-29T09:08:52.41Z</time>
      </trkpt>
      <trkpt lat="42.352425" lon="2.290963">
        <ele>1161.40</ele>
        <time>2014-08-29T11:38:17.90Z</time>
      </trkpt>
      <trkpt lat="42.352395" lon="2.291001">
        <ele>1162.00</ele>
        <time>2014-08-29T12:55:04.17Z</time>
      </trkpt>
      <trkpt lat="42.352322" lon="2.291056">
        <ele>1163.20</ele>
        <time>2014-08-29T15:31:09.95Z</time>
      </trkpt>
      <trkpt lat="42.352298" lon="2.291069">
        <ele>1163.60</ele>
        <time>2014-08-29T16:19:27.75Z</time>
      </trkpt>
      <trkpt lat="42.352216" lon="2.291100">
        <ele>1164.60</ele>
        <time>2014-08-29T18:58:31.45Z</time>
      </trkpt>
      <trkpt lat="42.352120" lon="2.291135">
        <ele>1165.60</ele>
        <time>2014-08-29T22:04:16.23Z</time>
      </trkpt>
      <trkpt lat="42.352022" lon="2.291160">
        <ele>1166.80</ele>
        <time>2014-08-30T01:10:34.95Z</time>
      </trkpt>
      <trkpt lat="42.351925" lon="2.291172">
        <ele>1167.60</ele>
        <time>2014-08-30T04:12:33.42Z</time>
      </trkpt>
      <trkpt lat="42.351896" lon="2.291170">
        <ele>1168.00</ele>
        <time>2014-08-30T05:06:48.36Z</time>
      </trkpt>
      <trkpt lat="42.351802" lon="2.291157">
        <ele>1169.00</ele>
        <time>2014-08-30T08:03:20.09Z</time>
      </trkpt>
      <trkpt lat="42.351775" lon="2.291138">
        <ele>1169.20</ele>
        <time>2014-08-30T09:00:11.44Z</time>
      </trkpt>
      <trkpt lat="42.351694" lon="2.291097">
        <ele>1170.00</ele>
        <time>2014-08-30T11:41:45.52Z</time>
      </trkpt>
      <trkpt lat="42.351617" lon="2.291057">
        <ele>1171.20</ele>
        <time>2014-08-30T14:15:50.97Z</time>
      </trkpt>
      <trkpt lat="42.351590" lon="2.291047">
        <ele>1171.40</ele>
        <time>2014-08-30T15:08:08.83Z</time>
      </trkpt>
      <trkpt lat="42.351490" lon="2.290989">
        <ele>1172.40</ele>
        <time>2014-08-30T18:31:24.57Z</time>
      </trkpt>
      <trkpt lat="42.351421" lon="2.290941">
        <ele>1173.20</ele>
        <time>2014-08-30T20:56:21.33Z</time>
      </trkpt>
      <trkpt lat="42.351400" lon="2.290926">
        <ele>1173.40</ele>
        <time>2014-08-30T21:40:43.15Z</time>
      </trkpt>
      <trkpt lat="42.351303" lon="2.290853">
        <ele>1174.60</ele>
        <time>2014-08-31T01:08:04.82Z</time>
      </trkpt>
      <trkpt lat="42.351205" lon="2.290784">
        <ele>1175.60</ele>
        <time>2014-08-31T04:34:28.18Z</time>
      </trkpt>
      <trkpt lat="42.351163" lon="2.290746">
        <ele>1176.20</ele>
        <time>2014-08-31T06:08:51.61Z</time>
      </trkpt>
      <trkpt lat="42.351125" lon="2.290703">
        <ele>1176.80</ele>
        <time>2014-08-31T07:41:24.34Z</time>
      </trkpt>
      <trkpt lat="42.351024" lon="2.290635">
        <ele>1178.00</ele>
        <time>2014-08-31T11:12:09.86Z</time>
      </trkpt>
      <trkpt lat="42.350971" lon="2.290600">
        <ele>1178.40</ele>
        <time>2014-08-31T13:02:20.61Z</time>
      </trkpt>
      <trkpt lat="42.350917" lon="2.290568">
        <ele>1179.00</ele>
        <time>2014-08-31T14:52:28.71Z</time>
      </trkpt>
      <trkpt lat="42.350790" lon="2.290520">
        <ele>1180.20</ele>
        <time>2014-08-31T18:58:49.57Z</time>
      </trkpt>
      <trkpt lat="42.350691" lon="2.290447">
        <ele>1181.40</ele>
        <time>2014-08-31T22:29:27.66Z</time>
      </trkpt>
      <trkpt lat="42.350625" lon="2.290378">
        <ele>1182.40</ele>
        <time>2014-09-01T01:05:16.82Z</time>
      </trkpt>
      <trkpt lat="42.350600" lon="2.290355">
        <ele>1182.60</ele>
        <time>2014-09-01T02:01:45.56Z</time>
      </trkpt>
      <trkpt lat="42.350530" lon="2.290299">
        <ele>1183.60</ele>
        <time>2014-09-01T04:33:40.95Z</time>
      </trkpt>
      <trkpt lat="42.350480" lon="2.290249">
        <ele>1184.00</ele>
        <time>2014-09-01T06:29:50.14Z</time>
      </trkpt>
      <trkpt lat="42.350455" lon="2.290223">
        <ele>1184.80</ele>
        <time>2014-09-01T07:28:44.59Z</time>
      </trkpt>
      <trkpt lat="42.350413" lon="2.290062">
        <ele>1186.00</ele>
        <time>2014-09-01T11:24:28.65Z</time>
      </trkpt>
      <trkpt lat="42.350472" lon="2.290029">
        <ele>1186.80</ele>
        <time>2014-09-01T13:23:44.94Z</time>
      </trkpt>
      <trkpt lat="42.350493" lon="2.290050">
        <ele>1187.20</ele>
        <time>2014-09-01T14:12:32Z</time>
      </trkpt>
      <trkpt lat="42.350515" lon="2.290071">
        <ele>1187.20</ele>
        <time>2014-09-01T15:02:49.94Z</time>
      </trkpt>
      <trkpt lat="42.350574" lon="2.290149">
        <ele>1188.40</ele>
        <time>2014-09-01T17:36:56.12Z</time>
      </trkpt>
      <trkpt lat="42.350614" lon="2.290196">
        <ele>1189.00</ele>
        <time>2014-09-01T19:15:54.46Z</time>
      </trkpt>
      <trkpt lat="42.350652" lon="2.290233">
        <ele>1189.60</ele>
        <time>2014-09-01T20:43:22.23Z</time>
      </trkpt>
      <trkpt lat="42.350743" lon="2.290271">
        <ele>1190.60</ele>
        <time>2014-09-01T23:41:17.48Z</time>
      </trkpt>
      <trkpt lat="42.350769" lon="2.290276">
        <ele>1190.80</ele>
        <time>2014-09-02T00:30:21.21Z</time>
      </trkpt>
      <trkpt lat="42.350845" lon="2.290295">
        <ele>1192.00</ele>
        <time>2014-09-02T02:54:44.54Z</time>
      </trkpt>
      <trkpt lat="42.350892" lon="2.290313">
        <ele>1192.60</ele>
        <time>2014-09-02T04:25:59.91Z</time>
      </trkpt>
      <trkpt lat="42.350941" lon="2.290324">
        <ele>1193.20</ele>
        <time>2014-09-02T05:58:47.60Z</time>
      </trkpt>
      <trkpt lat="42.351014" lon="2.290350">
        <ele>1194.40</ele>
        <time>2014-09-02T08:19:49.18Z</time>
      </trkpt>
      <trkpt lat="42.351036" lon="2.290357">
        <ele>1194.60</ele>
        <time>2014-09-02T09:02:02.51Z</time>
      </trkpt>
      <trkpt lat="42.351114" lon="2.290369">
        <ele>1195.40</ele>
        <time>2014-09-02T11:28:42.18Z</time>
      </trkpt>
      <trkpt lat="42.351197" lon="2.290372">
        <ele>1196.00</ele>
        <time>2014-09-02T14:03:49.30Z</time>
      </trkpt>
      <trkpt lat="42.351251" lon="2.290378">
        <ele>1196.60</ele>
        <time>2014-09-02T15:45:02.75Z</time>
      </trkpt>
      <trkpt lat="42.351357" lon="2.290395">
        <ele>1197.60</ele>
        <time>2014-09-02T19:04:27.88Z</time>
      </trkpt>
      <trkpt lat="42.351463" lon="2.290401">
        <ele>1198.60</ele>
        <time>2014-09-02T22:22:40.23Z</time>
      </trkpt>
      <trkpt lat="42.351494" lon="2.290404">
        <ele>1199.00</ele>
        <time>2014-09-02T23:20:44.02Z</time>
      </trkpt>
      <trkpt lat="42.351683" lon="2.290427">
        <ele>1199.80</ele>
        <time>2014-09-03T05:15:15.30Z</time>
      </trkpt>
      <trkpt lat="42.351825" lon="2.290435">
        <ele>1200.40</ele>
        <time>2014-09-03T09:40:46.43Z</time>
      </trkpt>
      <trkpt lat="42.351888" lon="2.290406">
        <ele>1201.00</ele>
        <time>2014-09-03T11:45:05.80Z</time>
      </trkpt>
      <trkpt lat="42.351975" lon="2.290347">
        <ele>1202.00</ele>
        <time>2014-09-03T14:46:54.19Z</time>
      </trkpt>
      <trkpt lat="42.352003" lon="2.290319">
        <ele>1202.20</ele>
        <time>2014-09-03T15:51:56.90Z</time>
      </trkpt>
      <trkpt lat="42.352068" lon="2.290240">
        <ele>1203.60</ele>
        <time>2014-09-03T18:35:10.56Z</time>
      </trkpt>
      <trkpt lat="42.352145" lon="2.290163">
        <ele>1204.80</ele>
        <time>2014-09-03T21:34:03.01Z</time>
      </trkpt>
      <trkpt lat="42.352219" lon="2.290089">
        <ele>1205.80</ele>
        <time>2014-09-04T00:25:57.30Z</time>
      </trkpt>
      <trkpt lat="42.352284" lon="2.290017">
        <ele>1206.80</ele>
        <time>2014-09-04T03:02:53.35Z</time>
      </trkpt>
      <trkpt lat="42.352305" lon="2.289999">
        <ele>1207.20</ele>
        <time>2014-09-04T03:49:19.85Z</time>
      </trkpt>
      <trkpt lat="42.352384" lon="2.289950">
        <ele>1208.20</ele>
        <time>2014-09-04T06:31:41.26Z</time>
      </trkpt>
      <trkpt lat="42.352406" lon="2.289935">
        <ele>1208.40</ele>
        <time>2014-09-04T07:17:42.69Z</time>
      </trkpt>
      <trkpt lat="42.352431" lon="2.289919">
        <ele>1208.60</ele>
        <time>2014-09-04T08:09:22.68Z</time>
      </trkpt>
      <trkpt lat="42.352509" lon="2.289853">
        <ele>1209.40</ele>
        <time>2014-09-04T11:01:14.72Z</time>
      </trkpt>
      <trkpt lat="42.352586" lon="2.289803">
        <ele>1210.40</ele>
        <time>2014-09-04T13:40:48.33Z</time>
      </trkpt>
      <trkpt lat="42.352612" lon="2.289789">
        <ele>1210.60</ele>
        <time>2014-09-04T14:33:05.04Z</time>
      </trkpt>
      <trkpt lat="42.352695" lon="2.289729">
        <ele>1212.00</ele>
        <time>2014-09-04T17:28:53.26Z</time>
      </trkpt>
      <trkpt lat="42.352761" lon="2.289694">
        <ele>1212.60</ele>
        <time>2014-09-04T19:41:19.31Z</time>
      </trkpt>
      <trkpt lat="42.352817" lon="2.289670">
        <ele>1213.20</ele>
        <time>2014-09-04T21:31:03.89Z</time>
      </trkpt>
      <trkpt lat="42.352895" lon="2.289615">
        <ele>1214.20</ele>
        <time>2014-09-05T00:15:23.11Z</time>
      </trkpt>
      <trkpt lat="42.352916" lon="2.289603">
        <ele>1214.40</ele>
        <time>2014-09-05T00:57:58.37Z</time>
      </trkpt>
      <trkpt lat="42.352988" lon="2.289560">
        <ele>1215.20</ele>
        <time>2014-09-05T03:25:00.25Z</time>
      </trkpt>
      <trkpt lat="42.353068" lon="2.289506">
        <ele>1216.00</ele>
        <time>2014-09-05T06:12:01.55Z</time>
      </trkpt>
      <trkpt lat="42.353119" lon="2.289465">
        <ele>1216.60</ele>
        <time>2014-09-05T08:02:51.14Z</time>
      </trkpt>
      <trkpt lat="42.353253" lon="2.289357">
        <ele>1217.60</ele>
        <time>2014-09-05T12:54:14.24Z</time>
      </trkpt>
      <trkpt lat="42.353275" lon="2.289330">
        <ele>1217.60</ele>
        <time>2014-09-05T13:49:43.50Z</time>
      </trkpt>
      <trkpt lat="42.353318" lon="2.289282">
        <ele>1218.60</ele>
        <time>2014-09-05T15:33:51.95Z</time>
      </trkpt>
      <trkpt lat="42.353393" lon="2.289168">
        <ele>1220.00</ele>
        <time>2014-09-05T19:04:35.47Z</time>
      </trkpt>
      <trkpt lat="42.353409" lon="2.289137">
        <ele>1220.40</ele>
        <time>2014-09-05T19:56:47.75Z</time>
      </trkpt>
      <trkpt lat="42.353441" lon="2.289032">
        <ele>1221.20</ele>
        <time>2014-09-05T22:33:36.33Z</time>
      </trkpt>
      <trkpt lat="42.353505" lon="2.288884">
        <ele>1222.20</ele>
        <time>2014-09-06T02:30:21.04Z</time>
      </trkpt>
      <trkpt lat="42.353597" lon="2.288822">
        <ele>1223.20</ele>
        <time>2014-09-06T05:42:21.83Z</time>
      </trkpt>
      <trkpt lat="42.353619" lon="2.288808">
        <ele>1223.40</ele>
        <time>2014-09-06T06:27:46.98Z</time>
      </trkpt>
      <trkpt lat="42.353762" lon="2.288694">
        <ele>1224.40</ele>
        <time>2014-09-06T11:37:51.34Z</time>
      </trkpt>
      <trkpt lat="42.353789" lon="2.288663">
        <ele>1224.60</ele>
        <time>2014-09-06T12:44:00.52Z</time>
      </trkpt>
      <trkpt lat="42.353850" lon="2.288567">
        <ele>1225.80</ele>
        <time>2014-09-06T15:38:48.37Z</time>
      </trkpt>
      <trkpt lat="42.353916" lon="2.288491">
        <ele>1226.60</ele>
        <time>2014-09-06T18:20:42.71Z</time>
      </trkpt>
      <trkpt lat="42.353940" lon="2.288466">
        <ele>1226.80</ele>
        <time>2014-09-06T19:17:17.74Z</time>
      </trkpt>
      <trkpt lat="42.354045" lon="2.288286">
        <ele>1227.20</ele>
        <time>2014-09-07T00:33:54Z</time>
      </trkpt>
      <trkpt lat="42.354075" lon="2.288170">
        <ele>1226.60</ele>
        <time>2014-09-07T03:23:34.53Z</time>
      </trkpt>
      <trkpt lat="42.354099" lon="2.288084">
        <ele>1225.60</ele>
        <time>2014-09-07T05:30:29.55Z</time>
      </trkpt>
      <trkpt lat="42.354110" lon="2.288026">
        <ele>1224.80</ele>
        <time>2014-09-07T06:53:09.79Z</time>
      </trkpt>
      <trkpt lat="42.354030" lon="2.288218">
        <ele>1229.80</ele>
        <time>2014-09-07T11:57:28.38Z</time>
      </trkpt>
      <trkpt lat="42.353996" lon="2.288259">
        <ele>1230.20</ele>
        <time>2014-09-07T13:22:33.30Z</time>
      </trkpt>
      <trkpt lat="42.353988" lon="2.288272">
        <ele>1230.60</ele>
        <time>2014-09-07T13:45:54.67Z</time>
      </trkpt>
      <trkpt lat="42.353971" lon="2.288292">
        <ele>1230.80</ele>
        <time>2014-09-07T14:27:59.76Z</time>
      </trkpt>
      <trkpt lat="42.353904" lon="2.288316">
        <ele>1232.00</ele>
        <time>2014-09-07T16:37:28.75Z</time>
      </trkpt>
      <trkpt lat="42.353829" lon="2.288364">
        <ele>1233.00</ele>
        <time>2014-09-07T19:12:28.67Z</time>
      </trkpt>
      <trkpt lat="42.353789" lon="2.288379">
        <ele>1233.80</ele>
        <time>2014-09-07T20:30:01.42Z</time>
      </trkpt>
      <trkpt lat="42.353772" lon="2.288387">
        <ele>1234.20</ele>
        <time>2014-09-07T21:03:38.96Z</time>
      </trkpt>
      <trkpt lat="42.353731" lon="2.288414">
        <ele>1235.40</ele>
        <time>2014-09-07T22:28:50.15Z</time>
      </trkpt>
      <trkpt lat="42.353701" lon="2.288443">
        <ele>1236.00</ele>
        <time>2014-09-07T23:37:42.89Z</time>
      </trkpt>
      <trkpt lat="42.353670" lon="2.288457">
        <ele>1236.60</ele>
        <time>2014-09-08T00:38:46.22Z</time>
      </trkpt>
      <trkpt lat="42.353624" lon="2.288492">
        <ele>1237.60</ele>
        <time>2014-09-08T02:17:21.77Z</time>
      </trkpt>
      <trkpt lat="42.353601" lon="2.288495">
        <ele>1238.00</ele>
        <time>2014-09-08T03:00:31.88Z</time>
      </trkpt>
      <trkpt lat="42.353583" lon="2.288494">
        <ele>1238.20</ele>
        <time>2014-09-08T03:34:11.27Z</time>
      </trkpt>
      <trkpt lat="42.353543" lon="2.288491">
        <ele>1239.00</ele>
        <time>2014-09-08T04:49:01.92Z</time>
      </trkpt>
      <trkpt lat="42.353531" lon="2.288489">
        <ele>1239.20</ele>
        <time>2014-09-08T05:11:37.21Z</time>
      </trkpt>
      <trkpt lat="42.353503" lon="2.288477">
        <ele>1240.40</ele>
        <time>2014-09-08T06:06:29.49Z</time>
      </trkpt>
      <trkpt lat="42.353486" lon="2.288473">
        <ele>1240.80</ele>
        <time>2014-09-08T06:38:43.69Z</time>
      </trkpt>
      <trkpt lat="42.353454" lon="2.288479">
        <ele>1241.40</ele>
        <time>2014-09-08T07:39:04.97Z</time>
      </trkpt>
      <trkpt lat="42.353420" lon="2.288519">
        <ele>1242.20</ele>
        <time>2014-09-08T09:03:15.17Z</time>
      </trkpt>
      <trkpt lat="42.353403" lon="2.288532">
        <ele>1242.60</ele>
        <time>2014-09-08T09:39:44.01Z</time>
      </trkpt>
      <trkpt lat="42.353305" lon="2.288605">
        <ele>1243.80</ele>
        <time>2014-09-08T13:08:43.67Z</time>
      </trkpt>
      <trkpt lat="42.353242" lon="2.288669">
        <ele>1244.80</ele>
        <time>2014-09-08T15:35:54.19Z</time>
      </trkpt>
      <trkpt lat="42.353177" lon="2.288737">
        <ele>1245.80</ele>
        <time>2014-09-08T18:09:23.86Z</time>
      </trkpt>
      <trkpt lat="42.353157" lon="2.288757">
        <ele>1246.00</ele>
        <time>2014-09-08T18:55:51.49Z</time>
      </trkpt>
      <trkpt lat="42.353095" lon="2.288819">
        <ele>1247.20</ele>
        <time>2014-09-08T21:19:53.15Z</time>
      </trkpt>
      <trkpt lat="42.353054" lon="2.288847">
        <ele>1247.40</ele>
        <time>2014-09-08T22:45:41.14Z</time>
      </trkpt>
      <trkpt lat="42.352959" lon="2.288911">
        <ele>1248.20</ele>
        <time>2014-09-09T02:03:56.83Z</time>
      </trkpt>
      <trkpt lat="42.352895" lon="2.288945">
        <ele>1248.40</ele>
        <time>2014-09-09T04:12:23.92Z</time>
      </trkpt>
      <trkpt lat="42.352813" lon="2.288969">
        <ele>1249.20</ele>
        <time>2014-09-09T06:49:08.18Z</time>
      </trkpt>
      <trkpt lat="42.352767" lon="2.288975">
        <ele>1249.80</ele>
        <time>2014-09-09T08:15:28.40Z</time>
      </trkpt>
      <trkpt lat="42.352701" lon="2.288993">
        <ele>1250.60</ele>
        <time>2014-09-09T10:21:15.38Z</time>
      </trkpt>
      <trkpt lat="42.352683" lon="2.288990">
        <ele>1251.00</ele>
        <time>2014-09-09T10:55:08.32Z</time>
      </trkpt>
      <trkpt lat="42.352647" lon="2.288993">
        <ele>1251.60</ele>
        <time>2014-09-09T12:02:31.35Z</time>
      </trkpt>
      <trkpt lat="42.352620" lon="2.288998">
        <ele>1251.80</ele>
        <time>2014-09-09T12:53:26.10Z</time>
      </trkpt>
      <trkpt lat="42.352557" lon="2.289005">
        <ele>1253.00</ele>
        <time>2014-09-09T14:51:31.78Z</time>
      </trkpt>
      <trkpt lat="42.352535" lon="2.289006">
        <ele>1253.00</ele>
        <time>2014-09-09T15:32:39.24Z</time>
      </trkpt>
      <trkpt lat="42.352357" lon="2.289032">
        <ele>1254.00</ele>
        <time>2014-09-09T21:07:07.89Z</time>
      </trkpt>
      <trkpt lat="42.352328" lon="2.289044">
        <ele>1254.40</ele>
        <time>2014-09-09T22:03:47.21Z</time>
      </trkpt>
      <trkpt lat="42.352231" lon="2.289054">
        <ele>1255.20</ele>
        <time>2014-09-10T01:05:31.84Z</time>
      </trkpt>
      <trkpt lat="42.352119" lon="2.289078">
        <ele>1255.60</ele>
        <time>2014-09-10T04:37:22.82Z</time>
      </trkpt>
      <trkpt lat="42.351922" lon="2.289171">
        <ele>1256.20</ele>
        <time>2014-09-10T11:07:10.65Z</time>
      </trkpt>
      <trkpt lat="42.351875" lon="2.289195">
        <ele>1256.40</ele>
        <time>2014-09-10T12:41:01.72Z</time>
      </trkpt>
      <trkpt lat="42.351831" lon="2.289227">
        <ele>1256.40</ele>
        <time>2014-09-10T14:14:21.11Z</time>
      </trkpt>
      <trkpt lat="42.351685" lon="2.289280">
        <ele>1256.40</ele>
        <time>2014-09-10T18:56:45.54Z</time>
      </trkpt>
      <trkpt lat="42.351519" lon="2.289271">
        <ele>1256.60</ele>
        <time>2014-09-11T00:07:08.07Z</time>
      </trkpt>
      <trkpt lat="42.351466" lon="2.289255">
        <ele>1256.60</ele>
        <time>2014-09-11T01:48:35.12Z</time>
      </trkpt>
      <trkpt lat="42.351413" lon="2.289235">
        <ele>1256.40</ele>
        <time>2014-09-11T03:31:22.80Z</time>
      </trkpt>
      <trkpt lat="42.351233" lon="2.289123">
        <ele>1256.40</ele>
        <time>2014-09-11T09:41:30.73Z</time>
      </trkpt>
      <trkpt lat="42.351167" lon="2.289054">
        <ele>1256.60</ele>
        <time>2014-09-11T12:17:19.86Z</time>
      </trkpt>
      <trkpt lat="42.351003" lon="2.288890">
        <ele>1257.40</ele>
        <time>2014-09-11T18:38:18.71Z</time>
      </trkpt>
      <trkpt lat="42.350939" lon="2.288813">
        <ele>1257.40</ele>
        <time>2014-09-11T21:18:18.45Z</time>
      </trkpt>
      <trkpt lat="42.350709" lon="2.288653">
        <ele>1257.00</ele>
        <time>2014-09-12T05:21:27.70Z</time>
      </trkpt>
      <trkpt lat="42.350585" lon="2.288558">
        <ele>1257.60</ele>
        <time>2014-09-12T09:47:40.69Z</time>
      </trkpt>
      <trkpt lat="42.350455" lon="2.288456">
        <ele>1257.80</ele>
        <time>2014-09-12T14:28:25.56Z</time>
      </trkpt>
      <trkpt lat="42.350268" lon="2.288297">
        <ele>1258.80</ele>
        <time>2014-09-12T21:21:02.09Z</time>
      </trkpt>
      <trkpt lat="42.350236" lon="2.288262">
        <ele>1259.00</ele>
        <time>2014-09-12T22:37:54.41Z</time>
      </trkpt>
      <trkpt lat="42.350182" lon="2.288199">
        <ele>1259.80</ele>
        <time>2014-09-13T00:51:06.80Z</time>
      </trkpt>
      <trkpt lat="42.350118" lon="2.288113">
        <ele>1261.00</ele>
        <time>2014-09-13T03:39:37.38Z</time>
      </trkpt>
      <trkpt lat="42.350101" lon="2.288084">
        <ele>1261.20</ele>
        <time>2014-09-13T04:30:43.81Z</time>
      </trkpt>
      <trkpt lat="42.350057" lon="2.287999">
        <ele>1262.20</ele>
        <time>2014-09-13T06:54:00.90Z</time>
      </trkpt>
      <trkpt lat="42.350031" lon="2.287931">
        <ele>1263.40</ele>
        <time>2014-09-13T08:39:43.43Z</time>
      </trkpt>
      <trkpt lat="42.349986" lon="2.287773">
        <ele>1264.80</ele>
        <time>2014-09-13T12:33:30.85Z</time>
      </trkpt>
      <trkpt lat="42.349955" lon="2.287700">
        <ele>1265.40</ele>
        <time>2014-09-13T14:29:45.61Z</time>
      </trkpt>
      <trkpt lat="42.349927" lon="2.287639">
        <ele>1266.00</ele>
        <time>2014-09-13T16:08:54.37Z</time>
      </trkpt>
      <trkpt lat="42.349889" lon="2.287554">
        <ele>1267.40</ele>
        <time>2014-09-13T18:26:04.09Z</time>
      </trkpt>
      <trkpt lat="42.349874" lon="2.287529">
        <ele>1267.60</ele>
        <time>2014-09-13T19:10:31.75Z</time>
      </trkpt>
      <trkpt lat="42.349853" lon="2.287485">
        <ele>1268.40</ele>
        <time>2014-09-13T20:22:50.84Z</time>
      </trkpt>
      <trkpt lat="42.349834" lon="2.287432">
        <ele>1269.40</ele>
        <time>2014-09-13T21:44:10.79Z</time>
      </trkpt>
      <trkpt lat="42.349830" lon="2.287411">
        <ele>1269.80</ele>
        <time>2014-09-13T22:14:07.33Z</time>
      </trkpt>
      <trkpt lat="42.349788" lon="2.287267">
        <ele>1270.80</ele>
        <time>2014-09-14T01:47:52.07Z</time>
      </trkpt>
      <trkpt lat="42.349701" lon="2.287156">
        <ele>1271.40</ele>
        <time>2014-09-14T05:31:15.91Z</time>
      </trkpt>
      <trkpt lat="42.349677" lon="2.287160">
        <ele>1271.60</ele>
        <time>2014-09-14T06:16:26.49Z</time>
      </trkpt>
      <trkpt lat="42.349654" lon="2.287180">
        <ele>1271.80</ele>
        <time>2014-09-14T07:07:31.15Z</time>
      </trkpt>
      <trkpt lat="42.349627" lon="2.287199">
        <ele>1272.00</ele>
        <time>2014-09-14T08:04:22.52Z</time>
      </trkpt>
      <trkpt lat="42.349571" lon="2.287271">
        <ele>1272.80</ele>
        <time>2014-09-14T10:28:41.71Z</time>
      </trkpt>
      <trkpt lat="42.349535" lon="2.287307">
        <ele>1273.60</ele>
        <time>2014-09-14T11:52:19.54Z</time>
      </trkpt>
      <trkpt lat="42.349521" lon="2.287320">
        <ele>1273.80</ele>
        <time>2014-09-14T12:24:02.86Z</time>
      </trkpt>
      <trkpt lat="42.349461" lon="2.287362">
        <ele>1275.20</ele>
        <time>2014-09-14T14:30:15.21Z</time>
      </trkpt>
      <trkpt lat="42.349408" lon="2.287404">
        <ele>1276.00</ele>
        <time>2014-09-14T16:25:00.09Z</time>
      </trkpt>
      <trkpt lat="42.349390" lon="2.287424">
        <ele>1276.40</ele>
        <time>2014-09-14T17:08:30.89Z</time>
      </trkpt>
      <trkpt lat="42.349349" lon="2.287463">
        <ele>1277.60</ele>
        <time>2014-09-14T18:42:08.76Z</time>
      </trkpt>
      <trkpt lat="42.349320" lon="2.287493">
        <ele>1278.40</ele>
        <time>2014-09-14T19:50:20.69Z</time>
      </trkpt>
      <trkpt lat="42.349299" lon="2.287504">
        <ele>1278.80</ele>
        <time>2014-09-14T20:32:24.90Z</time>
      </trkpt>
      <trkpt lat="42.349250" lon="2.287538">
        <ele>1279.80</ele>
        <time>2014-09-14T22:15:17.61Z</time>
      </trkpt>
      <trkpt lat="42.349223" lon="2.287570">
        <ele>1280.60</ele>
        <time>2014-09-14T23:22:21Z</time>
      </trkpt>
      <trkpt lat="42.349198" lon="2.287606">
        <ele>1281.20</ele>
        <time>2014-09-15T00:30:33.39Z</time>
      </trkpt>
      <trkpt lat="42.349162" lon="2.287658">
        <ele>1282.40</ele>
        <time>2014-09-15T02:08:56.10Z</time>
      </trkpt>
      <trkpt lat="42.349123" lon="2.287691">
        <ele>1283.00</ele>
        <time>2014-09-15T03:34:52.19Z</time>
      </trkpt>
      <trkpt lat="42.349114" lon="2.287706">
        <ele>1283.40</ele>
        <time>2014-09-15T04:01:32.80Z</time>
      </trkpt>
      <trkpt lat="42.349063" lon="2.287791">
        <ele>1284.60</ele>
        <time>2014-09-15T06:32:42.94Z</time>
      </trkpt>
      <trkpt lat="42.349031" lon="2.287834">
        <ele>1286.00</ele>
        <time>2014-09-15T07:56:58.27Z</time>
      </trkpt>
      <trkpt lat="42.348986" lon="2.287883">
        <ele>1286.80</ele>
        <time>2014-09-15T09:44:53.03Z</time>
      </trkpt>
      <trkpt lat="42.348975" lon="2.287897">
        <ele>1287.20</ele>
        <time>2014-09-15T10:13:05.82Z</time>
      </trkpt>
      <trkpt lat="42.348924" lon="2.287959">
        <ele>1288.20</ele>
        <time>2014-09-15T12:21:11.10Z</time>
      </trkpt>
      <trkpt lat="42.348909" lon="2.287977">
        <ele>1288.60</ele>
        <time>2014-09-15T12:58:38.49Z</time>
      </trkpt>
      <trkpt lat="42.348884" lon="2.288017">
        <ele>1289.20</ele>
        <time>2014-09-15T14:10:58.32Z</time>
      </trkpt>
      <trkpt lat="42.348832" lon="2.288091">
        <ele>1289.80</ele>
        <time>2014-09-15T16:31:57.53Z</time>
      </trkpt>
      <trkpt lat="42.348786" lon="2.288162">
        <ele>1290.60</ele>
        <time>2014-09-15T18:42:19.59Z</time>
      </trkpt>
      <trkpt lat="42.348718" lon="2.288255">
        <ele>1291.20</ele>
        <time>2014-09-15T21:42:57.49Z</time>
      </trkpt>
      <trkpt lat="42.348701" lon="2.288279">
        <ele>1291.60</ele>
        <time>2014-09-15T22:28:51.48Z</time>
      </trkpt>
      <trkpt lat="42.348630" lon="2.288422">
        <ele>1292.60</ele>
        <time>2014-09-16T02:26:43.31Z</time>
      </trkpt>
      <trkpt lat="42.348597" lon="2.288473">
        <ele>1293.20</ele>
        <time>2014-09-16T04:00:18.86Z</time>
      </trkpt>
      <trkpt lat="42.348580" lon="2.288496">
        <ele>1293.60</ele>
        <time>2014-09-16T04:45:13.66Z</time>
      </trkpt>
      <trkpt lat="42.348481" lon="2.288646">
        <ele>1294.20</ele>
        <time>2014-09-16T09:22:54.14Z</time>
      </trkpt>
      <trkpt lat="42.348447" lon="2.288706">
        <ele>1294.60</ele>
        <time>2014-09-16T11:07:17.74Z</time>
      </trkpt>
      <trkpt lat="42.348362" lon="2.288860">
        <ele>1295.80</ele>
        <time>2014-09-16T15:32:41Z</time>
      </trkpt>
      <trkpt lat="42.348235" lon="2.289038">
        <ele>1296.80</ele>
        <time>2014-09-16T21:14:17.74Z</time>
      </trkpt>
      <trkpt lat="42.348215" lon="2.289068">
        <ele>1296.80</ele>
        <time>2014-09-16T22:10:04.82Z</time>
      </trkpt>
      <trkpt lat="42.348128" lon="2.289178">
        <ele>1297.80</ele>
        <time>2014-09-17T01:52:32.12Z</time>
      </trkpt>
      <trkpt lat="42.348107" lon="2.289206">
        <ele>1298.00</ele>
        <time>2014-09-17T02:47:36.97Z</time>
      </trkpt>
      <trkpt lat="42.347993" lon="2.289426">
        <ele>1299.00</ele>
        <time>2014-09-17T08:58:36.31Z</time>
      </trkpt>
      <trkpt lat="42.347975" lon="2.289468">
        <ele>1298.80</ele>
        <time>2014-09-17T10:05:38.49Z</time>
      </trkpt>
      <trkpt lat="42.347843" lon="2.289737">
        <ele>1300.00</ele>
        <time>2014-09-17T17:31:28.63Z</time>
      </trkpt>
      <trkpt lat="42.347762" lon="2.289886">
        <ele>1301.40</ele>
        <time>2014-09-17T21:46:52.21Z</time>
      </trkpt>
      <trkpt lat="42.347720" lon="2.289937">
        <ele>1302.20</ele>
        <time>2014-09-17T23:32:18.06Z</time>
      </trkpt>
      <trkpt lat="42.347702" lon="2.289966">
        <ele>1302.80</ele>
        <time>2014-09-18T00:24:35.44Z</time>
      </trkpt>
      <trkpt lat="42.347658" lon="2.290033">
        <ele>1304.00</ele>
        <time>2014-09-18T02:28:20.78Z</time>
      </trkpt>
      <trkpt lat="42.347617" lon="2.290085">
        <ele>1304.80</ele>
        <time>2014-09-18T04:13:20.02Z</time>
      </trkpt>
      <trkpt lat="42.347596" lon="2.290102">
        <ele>1305.00</ele>
        <time>2014-09-18T04:59:03.14Z</time>
      </trkpt>
      <trkpt lat="42.347506" lon="2.290168">
        <ele>1306.40</ele>
        <time>2014-09-18T08:10:18.06Z</time>
      </trkpt>
      <trkpt lat="42.347448" lon="2.290227">
        <ele>1307.40</ele>
        <time>2014-09-18T10:25:51.97Z</time>
      </trkpt>
      <trkpt lat="42.347354" lon="2.290322">
        <ele>1308.40</ele>
        <time>2014-09-18T14:05:03.67Z</time>
      </trkpt>
      <trkpt lat="42.347327" lon="2.290346">
        <ele>1308.60</ele>
        <time>2014-09-18T15:05:24.90Z</time>
      </trkpt>
      <trkpt lat="42.347169" lon="2.290474">
        <ele>1308.20</ele>
        <time>2014-09-18T20:49:27.70Z</time>
      </trkpt>
      <trkpt lat="42.347071" lon="2.290580">
        <ele>1308.20</ele>
        <time>2014-09-19T00:43:51.59Z</time>
      </trkpt>
      <trkpt lat="42.346995" lon="2.290645">
        <ele>1308.00</ele>
        <time>2014-09-19T03:31:49.99Z</time>
      </trkpt>
      <trkpt lat="42.346812" lon="2.290827">
        <ele>1308.40</ele>
        <time>2014-09-19T10:36:08.56Z</time>
      </trkpt>
      <trkpt lat="42.346740" lon="2.290893">
        <ele>1308.20</ele>
        <time>2014-09-19T13:18:37.15Z</time>
      </trkpt>
      <trkpt lat="42.346611" lon="2.290914">
        <ele>1307.60</ele>
        <time>2014-09-19T17:21:21.56Z</time>
      </trkpt>
      <trkpt lat="42.346504" lon="2.290863">
        <ele>1307.80</ele>
        <time>2014-09-19T20:53:18.07Z</time>
      </trkpt>
      <trkpt lat="42.346443" lon="2.290838">
        <ele>1308.40</ele>
        <time>2014-09-19T22:52:22.61Z</time>
      </trkpt>
      <trkpt lat="42.346416" lon="2.290825">
        <ele>1308.80</ele>
        <time>2014-09-19T23:45:55.07Z</time>
      </trkpt>
      <trkpt lat="42.346359" lon="2.290804">
        <ele>1310.00</ele>
        <time>2014-09-20T01:36:17.06Z</time>
      </trkpt>
      <trkpt lat="42.346270" lon="2.290795">
        <ele>1311.40</ele>
        <time>2014-09-20T04:23:01.25Z</time>
      </trkpt>
      <trkpt lat="42.346209" lon="2.290803">
        <ele>1311.80</ele>
        <time>2014-09-20T06:17:31.03Z</time>
      </trkpt>
      <trkpt lat="42.346161" lon="2.290816">
        <ele>1312.40</ele>
        <time>2014-09-20T07:48:58.28Z</time>
      </trkpt>
      <trkpt lat="42.346082" lon="2.290847">
        <ele>1313.40</ele>
        <time>2014-09-20T10:22:38.61Z</time>
      </trkpt>
      <trkpt lat="42.346060" lon="2.290850">
        <ele>1313.60</ele>
        <time>2014-09-20T11:03:57.18Z</time>
      </trkpt>
      <trkpt lat="42.345997" lon="2.290879">
        <ele>1314.60</ele>
        <time>2014-09-20T13:08:16.61Z</time>
      </trkpt>
      <trkpt lat="42.345952" lon="2.290904">
        <ele>1315.80</ele>
        <time>2014-09-20T14:39:09.51Z</time>
      </trkpt>
      <trkpt lat="42.345912" lon="2.290943">
        <ele>1317.00</ele>
        <time>2014-09-20T16:11:16.16Z</time>
      </trkpt>
      <trkpt lat="42.345871" lon="2.290986">
        <ele>1318.60</ele>
        <time>2014-09-20T17:48:11.05Z</time>
      </trkpt>
      <trkpt lat="42.345824" lon="2.291031">
        <ele>1319.00</ele>
        <time>2014-09-20T19:35:45.14Z</time>
      </trkpt>
      <trkpt lat="42.345740" lon="2.291120">
        <ele>1319.80</ele>
        <time>2014-09-20T22:55:04.53Z</time>
      </trkpt>
      <trkpt lat="42.345679" lon="2.291217">
        <ele>1320.20</ele>
        <time>2014-09-21T01:50:56.12Z</time>
      </trkpt>
      <trkpt lat="42.345629" lon="2.291288">
        <ele>1321.20</ele>
        <time>2014-09-21T04:06:20.97Z</time>
      </trkpt>
      <trkpt lat="42.345563" lon="2.291380">
        <ele>1322.60</ele>
        <time>2014-09-21T07:03:23.06Z</time>
      </trkpt>
      <trkpt lat="42.345508" lon="2.291464">
        <ele>1323.60</ele>
        <time>2014-09-21T09:38:20.40Z</time>
      </trkpt>
      <trkpt lat="42.345450" lon="2.291529">
        <ele>1324.20</ele>
        <time>2014-09-21T11:59:02.47Z</time>
      </trkpt>
      <trkpt lat="42.345415" lon="2.291560">
        <ele>1324.80</ele>
        <time>2014-09-21T13:17:11.65Z</time>
      </trkpt>
      <trkpt lat="42.345337" lon="2.291614">
        <ele>1325.80</ele>
        <time>2014-09-21T16:00:53.10Z</time>
      </trkpt>
      <trkpt lat="42.345315" lon="2.291629">
        <ele>1326.00</ele>
        <time>2014-09-21T16:46:54.59Z</time>
      </trkpt>
      <trkpt lat="42.345171" lon="2.291731">
        <ele>1327.00</ele>
        <time>2014-09-21T21:50:34.39Z</time>
      </trkpt>
      <trkpt lat="42.345071" lon="2.291747">
        <ele>1328.20</ele>
        <time>2014-09-22T00:58:41.90Z</time>
      </trkpt>
      <trkpt lat="42.345010" lon="2.291763">
        <ele>1329.20</ele>
        <time>2014-09-22T02:54:46.94Z</time>
      </trkpt>
      <trkpt lat="42.344982" lon="2.291764">
        <ele>1329.40</ele>
        <time>2014-09-22T03:47:06.67Z</time>
      </trkpt>
      <trkpt lat="42.344843" lon="2.291747">
        <ele>1330.40</ele>
        <time>2014-09-22T08:07:51.26Z</time>
      </trkpt>
      <trkpt lat="42.344777" lon="2.291740">
        <ele>1330.60</ele>
        <time>2014-09-22T10:11:32.16Z</time>
      </trkpt>
      <trkpt lat="42.344679" lon="2.291720">
        <ele>1330.80</ele>
        <time>2014-09-22T13:16:41.64Z</time>
      </trkpt>
      <trkpt lat="42.344487" lon="2.291641">
        <ele>1331.60</ele>
        <time>2014-09-22T19:31:36.91Z</time>
      </trkpt>
      <trkpt lat="42.344429" lon="2.291604">
        <ele>1331.80</ele>
        <time>2014-09-22T21:31:24.80Z</time>
      </trkpt>
      <trkpt lat="42.344265" lon="2.291462">
        <ele>1332.60</ele>
        <time>2014-09-23T03:35:10.42Z</time>
      </trkpt>
      <trkpt lat="42.344245" lon="2.291434">
        <ele>1332.60</ele>
        <time>2014-09-23T04:28:56.48Z</time>
      </trkpt>
      <trkpt lat="42.344125" lon="2.291261">
        <ele>1332.00</ele>
        <time>2014-09-23T09:56:32.86Z</time>
      </trkpt>
      <trkpt lat="42.344088" lon="2.291227">
        <ele>1331.40</ele>
        <time>2014-09-23T11:20:06.49Z</time>
      </trkpt>
      <trkpt lat="42.344086" lon="2.291227">
        <ele>1331.20</ele>
        <time>2014-09-23T11:36:55.34Z</time>
      </trkpt>
      <trkpt lat="42.343963" lon="2.291086">
        <ele>1333.60</ele>
        <time>2014-09-23T16:38:06.40Z</time>
      </trkpt>
      <trkpt lat="42.343958" lon="2.291066">
        <ele>1333.60</ele>
        <time>2014-09-23T17:07:15.63Z</time>
      </trkpt>
      <trkpt lat="42.343949" lon="2.291053">
        <ele>1333.60</ele>
        <time>2014-09-23T17:31:51.37Z</time>
      </trkpt>
      <trkpt lat="42.343902" lon="2.290995">
        <ele>1334.00</ele>
        <time>2014-09-23T19:30:42.10Z</time>
      </trkpt>
      <trkpt lat="42.343882" lon="2.290967">
        <ele>1334.20</ele>
        <time>2014-09-23T20:24:28.18Z</time>
      </trkpt>
      <trkpt lat="42.343857" lon="2.290892">
        <ele>1334.80</ele>
        <time>2014-09-23T22:18:04.65Z</time>
      </trkpt>
      <trkpt lat="42.343861" lon="2.290871">
        <ele>1335.00</ele>
        <time>2014-09-23T22:48:01.35Z</time>
      </trkpt>
      <trkpt lat="42.343840" lon="2.290773">
        <ele>1335.60</ele>
        <time>2014-09-24T01:08:55.05Z</time>
      </trkpt>
      <trkpt lat="42.343838" lon="2.290749">
        <ele>1336.00</ele>
        <time>2014-09-24T01:42:16.06Z</time>
      </trkpt>
      <trkpt lat="42.343835" lon="2.290721">
        <ele>1336.40</ele>
        <time>2014-09-24T02:21:20.12Z</time>
      </trkpt>
      <trkpt lat="42.343818" lon="2.290667">
        <ele>1337.00</ele>
        <time>2014-09-24T03:42:22.97Z</time>
      </trkpt>
      <trkpt lat="42.343798" lon="2.290614">
        <ele>1337.80</ele>
        <time>2014-09-24T05:04:33.24Z</time>
      </trkpt>
      <trkpt lat="42.343775" lon="2.290557">
        <ele>1338.20</ele>
        <time>2014-09-24T06:34:13.64Z</time>
      </trkpt>
      <trkpt lat="42.343745" lon="2.290503">
        <ele>1338.60</ele>
        <time>2014-09-24T08:07:30.48Z</time>
      </trkpt>
      <trkpt lat="42.343700" lon="2.290410">
        <ele>1339.40</ele>
        <time>2014-09-24T10:40:59.88Z</time>
      </trkpt>
      <trkpt lat="42.343623" lon="2.290186">
        <ele>1340.40</ele>
        <time>2014-09-24T16:22:07.37Z</time>
      </trkpt>
      <trkpt lat="42.343562" lon="2.290014">
        <ele>1341.20</ele>
        <time>2014-09-24T20:45:33.28Z</time>
      </trkpt>
      <trkpt lat="42.343523" lon="2.289913">
        <ele>1341.80</ele>
        <time>2014-09-24T23:22:54.35Z</time>
      </trkpt>
      <trkpt lat="42.343492" lon="2.289809">
        <ele>1342.20</ele>
        <time>2014-09-25T01:57:45.15Z</time>
      </trkpt>
      <trkpt lat="42.343430" lon="2.289553">
        <ele>1342.40</ele>
        <time>2014-09-25T08:09:44.60Z</time>
      </trkpt>
      <trkpt lat="42.343417" lon="2.289337">
        <ele>1341.80</ele>
        <time>2014-09-25T13:08:59.65Z</time>
      </trkpt>
      <trkpt lat="42.343409" lon="2.289033">
        <ele>1341.40</ele>
        <time>2014-09-25T20:09:02.32Z</time>
      </trkpt>
      <trkpt lat="42.343412" lon="2.288963">
        <ele>1341.40</ele>
        <time>2014-09-25T21:45:51.63Z</time>
      </trkpt>
      <trkpt lat="42.343389" lon="2.288828">
        <ele>1341.20</ele>
        <time>2014-09-26T00:57:09.82Z</time>
      </trkpt>
      <trkpt lat="42.343354" lon="2.288778">
        <ele>1341.00</ele>
        <time>2014-09-26T02:32:15.34Z</time>
      </trkpt>
      <trkpt lat="42.343289" lon="2.288605">
        <ele>1342.20</ele>
        <time>2014-09-26T07:00:14.19Z</time>
      </trkpt>
      <trkpt lat="42.343270" lon="2.288523">
        <ele>1342.80</ele>
        <time>2014-09-26T08:58:54Z</time>
      </trkpt>
      <trkpt lat="42.343247" lon="2.288402">
        <ele>1343.60</ele>
        <time>2014-09-26T11:51:25.21Z</time>
      </trkpt>
      <trkpt lat="42.343215" lon="2.288350">
        <ele>1344.00</ele>
        <time>2014-09-26T13:24:51.26Z</time>
      </trkpt>
      <trkpt lat="42.343174" lon="2.288294">
        <ele>1345.40</ele>
        <time>2014-09-26T15:13:41.83Z</time>
      </trkpt>
      <trkpt lat="42.343122" lon="2.288247">
        <ele>1346.60</ele>
        <time>2014-09-26T17:10:31.78Z</time>
      </trkpt>
      <trkpt lat="42.343078" lon="2.288196">
        <ele>1347.60</ele>
        <time>2014-09-26T18:58:46.40Z</time>
      </trkpt>
      <trkpt lat="42.343036" lon="2.288143">
        <ele>1348.60</ele>
        <time>2014-09-26T20:46:04.32Z</time>
      </trkpt>
      <trkpt lat="42.342987" lon="2.288089">
        <ele>1349.80</ele>
        <time>2014-09-26T22:44:08.48Z</time>
      </trkpt>
      <trkpt lat="42.342964" lon="2.288060">
        <ele>1351.20</ele>
        <time>2014-09-26T23:42:52.66Z</time>
      </trkpt>
      <trkpt lat="42.342951" lon="2.288002">
        <ele>1351.80</ele>
        <time>2014-09-27T01:06:34.15Z</time>
      </trkpt>
      <trkpt lat="42.342986" lon="2.288018">
        <ele>1351.80</ele>
        <time>2014-09-27T02:15:35.34Z</time>
      </trkpt>
      <trkpt lat="42.343075" lon="2.288079">
        <ele>1352.20</ele>
        <time>2014-09-27T05:21:58.82Z</time>
      </trkpt>
      <trkpt lat="42.343143" lon="2.288113">
        <ele>1352.40</ele>
        <time>2014-09-27T07:37:25.08Z</time>
      </trkpt>
      <trkpt lat="42.343258" lon="2.288157">
        <ele>1353.20</ele>
        <time>2014-09-27T11:20:41.43Z</time>
      </trkpt>
      <trkpt lat="42.343359" lon="2.288237">
        <ele>1353.80</ele>
        <time>2014-09-27T14:59:20.42Z</time>
      </trkpt>
      <trkpt lat="42.343399" lon="2.288327">
        <ele>1354.20</ele>
        <time>2014-09-27T17:24:21.28Z</time>
      </trkpt>
      <trkpt lat="42.343442" lon="2.288409">
        <ele>1354.80</ele>
        <time>2014-09-27T19:43:11.25Z</time>
      </trkpt>
      <trkpt lat="42.343511" lon="2.288517">
        <ele>1355.40</ele>
        <time>2014-09-27T23:00:18.64Z</time>
      </trkpt>
      <trkpt lat="42.343573" lon="2.288564">
        <ele>1355.80</ele>
        <time>2014-09-28T01:13:05.02Z</time>
      </trkpt>
      <trkpt lat="42.343600" lon="2.288589">
        <ele>1355.80</ele>
        <time>2014-09-28T02:14:12.46Z</time>
      </trkpt>
      <trkpt lat="42.343702" lon="2.288727">
        <ele>1356.60</ele>
        <time>2014-09-28T06:43:41.86Z</time>
      </trkpt>
      <trkpt lat="42.343716" lon="2.288773">
        <ele>1356.80</ele>
        <time>2014-09-28T07:52:23.45Z</time>
      </trkpt>
      <trkpt lat="42.343755" lon="2.288910">
        <ele>1357.60</ele>
        <time>2014-09-28T11:15:06.75Z</time>
      </trkpt>
      <trkpt lat="42.343841" lon="2.289082">
        <ele>1358.20</ele>
        <time>2014-09-28T16:01:51.46Z</time>
      </trkpt>
      <trkpt lat="42.343879" lon="2.289168">
        <ele>1358.60</ele>
        <time>2014-09-28T18:20:12.76Z</time>
      </trkpt>
      <trkpt lat="42.343954" lon="2.289329">
        <ele>1359.80</ele>
        <time>2014-09-28T22:42:59.97Z</time>
      </trkpt>
      <trkpt lat="42.343972" lon="2.289373">
        <ele>1360.00</ele>
        <time>2014-09-28T23:52:26.52Z</time>
      </trkpt>
      <trkpt lat="42.344041" lon="2.289546">
        <ele>1361.00</ele>
        <time>2014-09-29T04:23:53.32Z</time>
      </trkpt>
      <trkpt lat="42.344099" lon="2.289663">
        <ele>1361.80</ele>
        <time>2014-09-29T07:38:25.18Z</time>
      </trkpt>
      <trkpt lat="42.344116" lon="2.289698">
        <ele>1362.00</ele>
        <time>2014-09-29T08:36:15.03Z</time>
      </trkpt>
      <trkpt lat="42.344202" lon="2.289751">
        <ele>1363.00</ele>
        <time>2014-09-29T11:32:48.07Z</time>
      </trkpt>
      <trkpt lat="42.344230" lon="2.289720">
        <ele>1363.40</ele>
        <time>2014-09-29T12:40:23.61Z</time>
      </trkpt>
      <trkpt lat="42.344245" lon="2.289639">
        <ele>1364.20</ele>
        <time>2014-09-29T14:35:41.89Z</time>
      </trkpt>
      <trkpt lat="42.344233" lon="2.289603">
        <ele>1364.40</ele>
        <time>2014-09-29T15:30:13.78Z</time>
      </trkpt>
      <trkpt lat="42.344164" lon="2.289445">
        <ele>1365.20</ele>
        <time>2014-09-29T19:43:38.33Z</time>
      </trkpt>
      <trkpt lat="42.344151" lon="2.289401">
        <ele>1365.40</ele>
        <time>2014-09-29T20:49:04.20Z</time>
      </trkpt>
      <trkpt lat="42.344098" lon="2.289228">
        <ele>1366.40</ele>
        <time>2014-09-30T01:07:39.74Z</time>
      </trkpt>
      <trkpt lat="42.344068" lon="2.289055">
        <ele>1367.60</ele>
        <time>2014-09-30T05:13:02.02Z</time>
      </trkpt>
      <trkpt lat="42.344017" lon="2.288879">
        <ele>1368.20</ele>
        <time>2014-09-30T09:34:04.26Z</time>
      </trkpt>
      <trkpt lat="42.344003" lon="2.288836">
        <ele>1368.60</ele>
        <time>2014-09-30T10:38:57.15Z</time>
      </trkpt>
      <trkpt lat="42.343984" lon="2.288745">
        <ele>1369.00</ele>
        <time>2014-09-30T12:49:31.57Z</time>
      </trkpt>
      <trkpt lat="42.343966" lon="2.288561">
        <ele>1369.60</ele>
        <time>2014-09-30T17:05:48.97Z</time>
      </trkpt>
      <trkpt lat="42.343945" lon="2.288472">
        <ele>1370.20</ele>
        <time>2014-09-30T19:14:49.28Z</time>
      </trkpt>
      <trkpt lat="42.343917" lon="2.288393">
        <ele>1370.80</ele>
        <time>2014-09-30T21:15:48.09Z</time>
      </trkpt>
      <trkpt lat="42.343883" lon="2.288225">
        <ele>1371.80</ele>
        <time>2014-10-01T01:16:19.31Z</time>
      </trkpt>
      <trkpt lat="42.343862" lon="2.288101">
        <ele>1373.00</ele>
        <time>2014-10-01T04:11:59Z</time>
      </trkpt>
      <trkpt lat="42.343828" lon="2.287969">
        <ele>1374.20</ele>
        <time>2014-10-01T07:25:00.32Z</time>
      </trkpt>
      <trkpt lat="42.343807" lon="2.287886">
        <ele>1374.80</ele>
        <time>2014-10-01T09:26:08.65Z</time>
      </trkpt>
      <trkpt lat="42.343793" lon="2.287846">
        <ele>1375.20</ele>
        <time>2014-10-01T10:27:15.46Z</time>
      </trkpt>
      <trkpt lat="42.343774" lon="2.287736">
        <ele>1376.40</ele>
        <time>2014-10-01T13:03:14.57Z</time>
      </trkpt>
      <trkpt lat="42.343793" lon="2.287710">
        <ele>1376.40</ele>
        <time>2014-10-01T13:53:43.80Z</time>
      </trkpt>
      <trkpt lat="42.343873" lon="2.287706">
        <ele>1377.20</ele>
        <time>2014-10-01T16:23:17.44Z</time>
      </trkpt>
      <trkpt lat="42.343902" lon="2.287732">
        <ele>1377.80</ele>
        <time>2014-10-01T17:28:17.11Z</time>
      </trkpt>
      <trkpt lat="42.343961" lon="2.287791">
        <ele>1378.60</ele>
        <time>2014-10-01T19:45:21.05Z</time>
      </trkpt>
      <trkpt lat="42.343990" lon="2.287814">
        <ele>1379.00</ele>
        <time>2014-10-01T20:48:09.12Z</time>
      </trkpt>
      <trkpt lat="42.344017" lon="2.287834">
        <ele>1379.40</ele>
        <time>2014-10-01T21:45:39.57Z</time>
      </trkpt>
      <trkpt lat="42.344078" lon="2.287866">
        <ele>1380.20</ele>
        <time>2014-10-01T23:47:53.29Z</time>
      </trkpt>
      <trkpt lat="42.344165" lon="2.287924">
        <ele>1381.20</ele>
        <time>2014-10-02T02:49:05.09Z</time>
      </trkpt>
      <trkpt lat="42.344238" lon="2.288000">
        <ele>1382.40</ele>
        <time>2014-10-02T05:41:10.13Z</time>
      </trkpt>
      <trkpt lat="42.344313" lon="2.288175">
        <ele>1383.60</ele>
        <time>2014-10-02T10:20:29.95Z</time>
      </trkpt>
      <trkpt lat="42.344327" lon="2.288213">
        <ele>1383.80</ele>
        <time>2014-10-02T11:19:07.69Z</time>
      </trkpt>
      <trkpt lat="42.344387" lon="2.288353">
        <ele>1384.80</ele>
        <time>2014-10-02T15:02:35.54Z</time>
      </trkpt>
      <trkpt lat="42.344444" lon="2.288440">
        <ele>1385.60</ele>
        <time>2014-10-02T17:43:07.68Z</time>
      </trkpt>
      <trkpt lat="42.344462" lon="2.288466">
        <ele>1386.00</ele>
        <time>2014-10-02T18:32:19.15Z</time>
      </trkpt>
      <trkpt lat="42.344545" lon="2.288564">
        <ele>1387.40</ele>
        <time>2014-10-02T21:58:07.56Z</time>
      </trkpt>
      <trkpt lat="42.344590" lon="2.288609">
        <ele>1388.20</ele>
        <time>2014-10-02T23:42:40.03Z</time>
      </trkpt>
      <trkpt lat="42.344634" lon="2.288648">
        <ele>1389.00</ele>
        <time>2014-10-03T01:20:56.31Z</time>
      </trkpt>
      <trkpt lat="42.344699" lon="2.288696">
        <ele>1390.00</ele>
        <time>2014-10-03T03:39:17.04Z</time>
      </trkpt>
      <trkpt lat="42.344767" lon="2.288742">
        <ele>1391.00</ele>
        <time>2014-10-03T06:01:19.08Z</time>
      </trkpt>
      <trkpt lat="42.344793" lon="2.288749">
        <ele>1391.20</ele>
        <time>2014-10-03T06:50:50.66Z</time>
      </trkpt>
      <trkpt lat="42.344882" lon="2.288775">
        <ele>1392.60</ele>
        <time>2014-10-03T09:40:56.93Z</time>
      </trkpt>
      <trkpt lat="42.344928" lon="2.288771">
        <ele>1393.40</ele>
        <time>2014-10-03T11:07:03.90Z</time>
      </trkpt>
      <trkpt lat="42.344950" lon="2.288755">
        <ele>1393.80</ele>
        <time>2014-10-03T11:53:43.66Z</time>
      </trkpt>
      <trkpt lat="42.345002" lon="2.288684">
        <ele>1394.80</ele>
        <time>2014-10-03T14:11:44.79Z</time>
      </trkpt>
      <trkpt lat="42.345011" lon="2.288650">
        <ele>1395.20</ele>
        <time>2014-10-03T15:01:36.86Z</time>
      </trkpt>
      <trkpt lat="42.345013" lon="2.288529">
        <ele>1396.00</ele>
        <time>2014-10-03T17:48:44.09Z</time>
      </trkpt>
      <trkpt lat="42.344991" lon="2.288453">
        <ele>1396.20</ele>
        <time>2014-10-03T19:41:26.31Z</time>
      </trkpt>
      <trkpt lat="42.344931" lon="2.288362">
        <ele>1397.00</ele>
        <time>2014-10-03T22:29:49.51Z</time>
      </trkpt>
      <trkpt lat="42.344885" lon="2.288263">
        <ele>1397.60</ele>
        <time>2014-10-04T01:11:17.72Z</time>
      </trkpt>
      <trkpt lat="42.344854" lon="2.288195">
        <ele>1398.20</ele>
        <time>2014-10-04T03:01:36.94Z</time>
      </trkpt>
      <trkpt lat="42.344777" lon="2.288025">
        <ele>1399.40</ele>
        <time>2014-10-04T07:36:55.64Z</time>
      </trkpt>
      <trkpt lat="42.344766" lon="2.287991">
        <ele>1399.60</ele>
        <time>2014-10-04T08:28:10.56Z</time>
      </trkpt>
      <trkpt lat="42.344731" lon="2.287835">
        <ele>1400.60</ele>
        <time>2014-10-04T12:13:17.39Z</time>
      </trkpt>
      <trkpt lat="42.344710" lon="2.287720">
        <ele>1401.00</ele>
        <time>2014-10-04T14:56:51.55Z</time>
      </trkpt>
      <trkpt lat="42.344692" lon="2.287644">
        <ele>1401.80</ele>
        <time>2014-10-04T16:47:03.48Z</time>
      </trkpt>
      <trkpt lat="42.344630" lon="2.287499">
        <ele>1402.80</ele>
        <time>2014-10-04T20:38:22.10Z</time>
      </trkpt>
      <trkpt lat="42.344615" lon="2.287464">
        <ele>1403.20</ele>
        <time>2014-10-04T21:34:14.05Z</time>
      </trkpt>
      <trkpt lat="42.344577" lon="2.287356">
        <ele>1404.00</ele>
        <time>2014-10-05T00:19:23.95Z</time>
      </trkpt>
      <trkpt lat="42.344526" lon="2.287220">
        <ele>1405.20</ele>
        <time>2014-10-05T03:49:58.79Z</time>
      </trkpt>
      <trkpt lat="42.344509" lon="2.287191">
        <ele>1405.40</ele>
        <time>2014-10-05T04:41:05.38Z</time>
      </trkpt>
      <trkpt lat="42.344455" lon="2.287082">
        <ele>1406.60</ele>
        <time>2014-10-05T07:42:16.97Z</time>
      </trkpt>
      <trkpt lat="42.344419" lon="2.286960">
        <ele>1407.40</ele>
        <time>2014-10-05T10:43:40.41Z</time>
      </trkpt>
      <trkpt lat="42.344404" lon="2.286924">
        <ele>1407.80</ele>
        <time>2014-10-05T11:40:44.29Z</time>
      </trkpt>
      <trkpt lat="42.344360" lon="2.286819">
        <ele>1408.80</ele>
        <time>2014-10-05T14:27:24.42Z</time>
      </trkpt>
      <trkpt lat="42.344333" lon="2.286741">
        <ele>1409.40</ele>
        <time>2014-10-05T16:26:20.31Z</time>
      </trkpt>
      <trkpt lat="42.344318" lon="2.286705">
        <ele>1410.00</ele>
        <time>2014-10-05T17:23:24.20Z</time>
      </trkpt>
      <trkpt lat="42.344274" lon="2.286606">
        <ele>1411.00</ele>
        <time>2014-10-05T20:02:55.04Z</time>
      </trkpt>
      <trkpt lat="42.344229" lon="2.286506">
        <ele>1412.00</ele>
        <time>2014-10-05T22:44:34.80Z</time>
      </trkpt>
      <trkpt lat="42.344216" lon="2.286469">
        <ele>1412.40</ele>
        <time>2014-10-05T23:41:08.99Z</time>
      </trkpt>
      <trkpt lat="42.344176" lon="2.286320">
        <ele>1413.60</ele>
        <time>2014-10-06T03:20:02.70Z</time>
      </trkpt>
      <trkpt lat="42.344131" lon="2.286226">
        <ele>1414.40</ele>
        <time>2014-10-06T05:54:41.48Z</time>
      </trkpt>
      <trkpt lat="42.344115" lon="2.286195">
        <ele>1414.80</ele>
        <time>2014-10-06T06:46:54.07Z</time>
      </trkpt>
      <trkpt lat="42.344053" lon="2.286067">
        <ele>1416.00</ele>
        <time>2014-10-06T10:18:13.27Z</time>
      </trkpt>
      <trkpt lat="42.343998" lon="2.285992">
        <ele>1416.60</ele>
        <time>2014-10-06T12:44:06.57Z</time>
      </trkpt>
      <trkpt lat="42.343981" lon="2.285965">
        <ele>1417.00</ele>
        <time>2014-10-06T13:33:05.16Z</time>
      </trkpt>
      <trkpt lat="42.343909" lon="2.285916">
        <ele>1418.40</ele>
        <time>2014-10-06T16:03:39.43Z</time>
      </trkpt>
      <trkpt lat="42.343864" lon="2.285889">
        <ele>1419.00</ele>
        <time>2014-10-06T17:35:37.43Z</time>
      </trkpt>
      <trkpt lat="42.343819" lon="2.285850">
        <ele>1419.40</ele>
        <time>2014-10-06T19:15:27.81Z</time>
      </trkpt>
      <trkpt lat="42.343715" lon="2.285798">
        <ele>1420.60</ele>
        <time>2014-10-06T22:42:36.19Z</time>
      </trkpt>
      <trkpt lat="42.343597" lon="2.285749">
        <ele>1422.00</ele>
        <time>2014-10-07T02:33:12.27Z</time>
      </trkpt>
      <trkpt lat="42.343549" lon="2.285709">
        <ele>1422.60</ele>
        <time>2014-10-07T04:18:31.50Z</time>
      </trkpt>
      <trkpt lat="42.343474" lon="2.285658">
        <ele>1423.40</ele>
        <time>2014-10-07T06:55:20.67Z</time>
      </trkpt>
      <trkpt lat="42.343406" lon="2.285592">
        <ele>1424.40</ele>
        <time>2014-10-07T09:31:41.59Z</time>
      </trkpt>
      <trkpt lat="42.343384" lon="2.285567">
        <ele>1424.80</ele>
        <time>2014-10-07T10:25:22.10Z</time>
      </trkpt>
      <trkpt lat="42.343341" lon="2.285514">
        <ele>1425.60</ele>
        <time>2014-10-07T12:14:02.43Z</time>
      </trkpt>
      <trkpt lat="42.343294" lon="2.285423">
        <ele>1426.80</ele>
        <time>2014-10-07T14:47:20.23Z</time>
      </trkpt>
      <trkpt lat="42.343263" lon="2.285360">
        <ele>1427.40</ele>
        <time>2014-10-07T16:31:50.76Z</time>
      </trkpt>
      <trkpt lat="42.343238" lon="2.285293">
        <ele>1428.00</ele>
        <time>2014-10-07T18:15:29.05Z</time>
      </trkpt>
      <trkpt lat="42.343174" lon="2.285166">
        <ele>1429.20</ele>
        <time>2014-10-07T21:47:44.10Z</time>
      </trkpt>
      <trkpt lat="42.343140" lon="2.285113">
        <ele>1429.80</ele>
        <time>2014-10-07T23:24:38.49Z</time>
      </trkpt>
      <trkpt lat="42.343109" lon="2.285056">
        <ele>1430.40</ele>
        <time>2014-10-08T01:02:21.71Z</time>
      </trkpt>
      <trkpt lat="42.343065" lon="2.284961">
        <ele>1431.40</ele>
        <time>2014-10-08T03:37:10.24Z</time>
      </trkpt>
      <trkpt lat="42.343007" lon="2.284863">
        <ele>1432.40</ele>
        <time>2014-10-08T06:30:31.89Z</time>
      </trkpt>
      <trkpt lat="42.342986" lon="2.284827">
        <ele>1432.60</ele>
        <time>2014-10-08T07:33:51.56Z</time>
      </trkpt>
      <trkpt lat="42.342934" lon="2.284733">
        <ele>1433.80</ele>
        <time>2014-10-08T10:15:59.34Z</time>
      </trkpt>
      <trkpt lat="42.342882" lon="2.284639">
        <ele>1434.60</ele>
        <time>2014-10-08T12:58:07.12Z</time>
      </trkpt>
      <trkpt lat="42.342865" lon="2.284610">
        <ele>1434.80</ele>
        <time>2014-10-08T13:49:13.76Z</time>
      </trkpt>
      <trkpt lat="42.342785" lon="2.284498">
        <ele>1436.00</ele>
        <time>2014-10-08T17:24:18.17Z</time>
      </trkpt>
      <trkpt lat="42.342741" lon="2.284407">
        <ele>1437.20</ele>
        <time>2014-10-08T19:54:27.63Z</time>
      </trkpt>
      <trkpt lat="42.342695" lon="2.284276">
        <ele>1438.40</ele>
        <time>2014-10-08T23:14:43.80Z</time>
      </trkpt>
      <trkpt lat="42.342686" lon="2.284243">
        <ele>1438.60</ele>
        <time>2014-10-09T00:03:18.10Z</time>
      </trkpt>
      <trkpt lat="42.342658" lon="2.284144">
        <ele>1439.40</ele>
        <time>2014-10-09T02:29:40.44Z</time>
      </trkpt>
      <trkpt lat="42.342649" lon="2.284042">
        <ele>1440.40</ele>
        <time>2014-10-09T04:51:31.36Z</time>
      </trkpt>
      <trkpt lat="42.342652" lon="2.284004">
        <ele>1440.80</ele>
        <time>2014-10-09T05:44:17.64Z</time>
      </trkpt>
      <trkpt lat="42.342657" lon="2.283923">
        <ele>1441.60</ele>
        <time>2014-10-09T07:36:32.02Z</time>
      </trkpt>
      <trkpt lat="42.342676" lon="2.283725">
        <ele>1442.60</ele>
        <time>2014-10-09T12:12:14.39Z</time>
      </trkpt>
      <trkpt lat="42.342715" lon="2.283575">
        <ele>1443.80</ele>
        <time>2014-10-09T15:51:48.67Z</time>
      </trkpt>
      <trkpt lat="42.342726" lon="2.283540">
        <ele>1444.20</ele>
        <time>2014-10-09T16:44:19.75Z</time>
      </trkpt>
      <trkpt lat="42.342748" lon="2.283465">
        <ele>1444.80</ele>
        <time>2014-10-09T18:35:45.11Z</time>
      </trkpt>
      <trkpt lat="42.342752" lon="2.283428">
        <ele>1445.00</ele>
        <time>2014-10-09T19:27:23.24Z</time>
      </trkpt>
      <trkpt lat="42.342779" lon="2.283282">
        <ele>1446.00</ele>
        <time>2014-10-09T22:55:12.49Z</time>
      </trkpt>
      <trkpt lat="42.342812" lon="2.283134">
        <ele>1447.40</ele>
        <time>2014-10-10T02:28:40.37Z</time>
      </trkpt>
      <trkpt lat="42.342842" lon="2.283063">
        <ele>1447.80</ele>
        <time>2014-10-10T04:21:36.22Z</time>
      </trkpt>
      <trkpt lat="42.342875" lon="2.282944">
        <ele>1448.60</ele>
        <time>2014-10-10T07:17:06.67Z</time>
      </trkpt>
      <trkpt lat="42.342925" lon="2.282782">
        <ele>1450.00</ele>
        <time>2014-10-10T11:19:31.84Z</time>
      </trkpt>
      <trkpt lat="42.342988" lon="2.282625">
        <ele>1451.40</ele>
        <time>2014-10-10T15:26:12.90Z</time>
      </trkpt>
      <trkpt lat="42.343047" lon="2.282517">
        <ele>1452.20</ele>
        <time>2014-10-10T18:31:39.67Z</time>
      </trkpt>
      <trkpt lat="42.343067" lon="2.282482">
        <ele>1452.40</ele>
        <time>2014-10-10T19:32:45.03Z</time>
      </trkpt>
      <trkpt lat="42.343167" lon="2.282310">
        <ele>1453.80</ele>
        <time>2014-10-11T00:34:55.83Z</time>
      </trkpt>
      <trkpt lat="42.343206" lon="2.282239">
        <ele>1454.80</ele>
        <time>2014-10-11T02:37:04.86Z</time>
      </trkpt>
      <trkpt lat="42.343283" lon="2.282090">
        <ele>1455.80</ele>
        <time>2014-10-11T06:48:07.83Z</time>
      </trkpt>
      <trkpt lat="42.343343" lon="2.281985">
        <ele>1456.80</ele>
        <time>2014-10-11T09:51:23.89Z</time>
      </trkpt>
      <trkpt lat="42.343363" lon="2.281950">
        <ele>1457.00</ele>
        <time>2014-10-11T10:52:29.24Z</time>
      </trkpt>
      <trkpt lat="42.343441" lon="2.281798">
        <ele>1458.20</ele>
        <time>2014-10-11T15:08:00.21Z</time>
      </trkpt>
      <trkpt lat="42.343499" lon="2.281679">
        <ele>1459.20</ele>
        <time>2014-10-11T18:24:50.12Z</time>
      </trkpt>
      <trkpt lat="42.343557" lon="2.281567">
        <ele>1460.20</ele>
        <time>2014-10-11T21:33:40.36Z</time>
      </trkpt>
      <trkpt lat="42.343609" lon="2.281453">
        <ele>1461.40</ele>
        <time>2014-10-12T00:38:39.18Z</time>
      </trkpt>
      <trkpt lat="42.343655" lon="2.281342">
        <ele>1462.60</ele>
        <time>2014-10-12T03:34:22.52Z</time>
      </trkpt>
      <trkpt lat="42.343717" lon="2.281189">
        <ele>1463.60</ele>
        <time>2014-10-12T07:35:18.83Z</time>
      </trkpt>
      <trkpt lat="42.343789" lon="2.281042">
        <ele>1465.00</ele>
        <time>2014-10-12T11:38:49.31Z</time>
      </trkpt>
      <trkpt lat="42.343836" lon="2.280922">
        <ele>1466.00</ele>
        <time>2014-10-12T14:46:21.01Z</time>
      </trkpt>
      <trkpt lat="42.343901" lon="2.280762">
        <ele>1467.00</ele>
        <time>2014-10-12T18:58:27.51Z</time>
      </trkpt>
      <trkpt lat="42.343980" lon="2.280555">
        <ele>1468.20</ele>
        <time>2014-10-13T00:20:08.85Z</time>
      </trkpt>
      <trkpt lat="42.344009" lon="2.280477">
        <ele>1468.80</ele>
        <time>2014-10-13T02:20:42.71Z</time>
      </trkpt>
      <trkpt lat="42.344039" lon="2.280402">
        <ele>1469.80</ele>
        <time>2014-10-13T04:18:28.08Z</time>
      </trkpt>
      <trkpt lat="42.344106" lon="2.280251">
        <ele>1470.80</ele>
        <time>2014-10-13T08:21:39.66Z</time>
      </trkpt>
      <trkpt lat="42.344126" lon="2.280220">
        <ele>1471.20</ele>
        <time>2014-10-13T09:18:28.83Z</time>
      </trkpt>
      <trkpt lat="42.344177" lon="2.280114">
        <ele>1472.00</ele>
        <time>2014-10-13T12:13:07.72Z</time>
      </trkpt>
      <trkpt lat="42.344265" lon="2.280007">
        <ele>1472.80</ele>
        <time>2014-10-13T15:54:10.11Z</time>
      </trkpt>
      <trkpt lat="42.344294" lon="2.279997">
        <ele>1473.20</ele>
        <time>2014-10-13T16:50:04.76Z</time>
      </trkpt>
      <trkpt lat="42.344383" lon="2.280025">
        <ele>1474.00</ele>
        <time>2014-10-13T19:40:47.28Z</time>
      </trkpt>
      <trkpt lat="42.344405" lon="2.280059">
        <ele>1474.40</ele>
        <time>2014-10-13T20:43:11.13Z</time>
      </trkpt>
      <trkpt lat="42.344435" lon="2.280183">
        <ele>1475.40</ele>
        <time>2014-10-13T23:43:20.87Z</time>
      </trkpt>
      <trkpt lat="42.344420" lon="2.280342">
        <ele>1477.00</ele>
        <time>2014-10-14T03:24:40.84Z</time>
      </trkpt>
      <trkpt lat="42.344407" lon="2.280377">
        <ele>1477.20</ele>
        <time>2014-10-14T04:18:46.15Z</time>
      </trkpt>
      <trkpt lat="42.344364" lon="2.280487">
        <ele>1478.00</ele>
        <time>2014-10-14T07:10:35.76Z</time>
      </trkpt>
      <trkpt lat="42.344349" lon="2.280567">
        <ele>1478.40</ele>
        <time>2014-10-14T09:04:33.69Z</time>
      </trkpt>
      <trkpt lat="42.344342" lon="2.280608">
        <ele>1478.80</ele>
        <time>2014-10-14T10:02:39.98Z</time>
      </trkpt>
      <trkpt lat="42.344334" lon="2.280645">
        <ele>1479.20</ele>
        <time>2014-10-14T10:55:53.90Z</time>
      </trkpt>
      <trkpt lat="42.344307" lon="2.280791">
        <ele>1480.20</ele>
        <time>2014-10-14T14:23:42.86Z</time>
      </trkpt>
      <trkpt lat="42.344290" lon="2.280937">
        <ele>1481.40</ele>
        <time>2014-10-14T17:47:48.12Z</time>
      </trkpt>
      <trkpt lat="42.344271" lon="2.281126">
        <ele>1482.80</ele>
        <time>2014-10-14T22:11:10.93Z</time>
      </trkpt>
      <trkpt lat="42.344257" lon="2.281237">
        <ele>1484.00</ele>
        <time>2014-10-15T00:46:40.21Z</time>
      </trkpt>
      <trkpt lat="42.344255" lon="2.281384">
        <ele>1485.00</ele>
        <time>2014-10-15T04:09:41.21Z</time>
      </trkpt>
      <trkpt lat="42.344251" lon="2.281420">
        <ele>1485.40</ele>
        <time>2014-10-15T04:59:57.32Z</time>
      </trkpt>
      <trkpt lat="42.344246" lon="2.281492">
        <ele>1486.20</ele>
        <time>2014-10-15T06:39:48.79Z</time>
      </trkpt>
      <trkpt lat="42.344233" lon="2.281675">
        <ele>1487.40</ele>
        <time>2014-10-15T10:53:40.19Z</time>
      </trkpt>
      <trkpt lat="42.344233" lon="2.281712">
        <ele>1487.60</ele>
        <time>2014-10-15T11:44:45.64Z</time>
      </trkpt>
      <trkpt lat="42.344232" lon="2.281788">
        <ele>1488.20</ele>
        <time>2014-10-15T13:29:43.23Z</time>
      </trkpt>
      <trkpt lat="42.344232" lon="2.281825">
        <ele>1488.60</ele>
        <time>2014-10-15T14:20:48.68Z</time>
      </trkpt>
      <trkpt lat="42.344223" lon="2.281934">
        <ele>1489.60</ele>
        <time>2014-10-15T16:52:15.50Z</time>
      </trkpt>
      <trkpt lat="42.344218" lon="2.282048">
        <ele>1490.40</ele>
        <time>2014-10-15T19:29:57.01Z</time>
      </trkpt>
      <trkpt lat="42.344217" lon="2.282083">
        <ele>1490.60</ele>
        <time>2014-10-15T20:18:18.93Z</time>
      </trkpt>
      <trkpt lat="42.344216" lon="2.282231">
        <ele>1492.00</ele>
        <time>2014-10-15T23:42:41.24Z</time>
      </trkpt>
      <trkpt lat="42.344214" lon="2.282305">
        <ele>1492.40</ele>
        <time>2014-10-16T01:24:56.23Z</time>
      </trkpt>
      <trkpt lat="42.344210" lon="2.282414">
        <ele>1493.40</ele>
        <time>2014-10-16T03:55:38Z</time>
      </trkpt>
      <trkpt lat="42.344206" lon="2.282492">
        <ele>1493.80</ele>
        <time>2014-10-16T05:43:35.84Z</time>
      </trkpt>
      <trkpt lat="42.344200" lon="2.282601">
        <ele>1494.60</ele>
        <time>2014-10-16T08:14:31.50Z</time>
      </trkpt>
      <trkpt lat="42.344200" lon="2.282712">
        <ele>1495.60</ele>
        <time>2014-10-16T10:47:47.85Z</time>
      </trkpt>
      <trkpt lat="42.344203" lon="2.282751">
        <ele>1495.80</ele>
        <time>2014-10-16T11:41:56.45Z</time>
      </trkpt>
      <trkpt lat="42.344262" lon="2.282888">
        <ele>1497.00</ele>
        <time>2014-10-16T15:20:53.10Z</time>
      </trkpt>
      <trkpt lat="42.344282" lon="2.282922">
        <ele>1497.20</ele>
        <time>2014-10-16T16:20:53.23Z</time>
      </trkpt>
      <trkpt lat="42.344337" lon="2.283019">
        <ele>1498.00</ele>
        <time>2014-10-16T19:09:42.08Z</time>
      </trkpt>
      <trkpt lat="42.344437" lon="2.283132">
        <ele>1499.00</ele>
        <time>2014-10-16T23:13:06.81Z</time>
      </trkpt>
      <trkpt lat="42.344464" lon="2.283154">
        <ele>1499.20</ele>
        <time>2014-10-17T00:11:59.81Z</time>
      </trkpt>
      <trkpt lat="42.344565" lon="2.283256">
        <ele>1500.60</ele>
        <time>2014-10-17T04:07:27.44Z</time>
      </trkpt>
      <trkpt lat="42.344620" lon="2.283297">
        <ele>1501.20</ele>
        <time>2014-10-17T06:04:46.46Z</time>
      </trkpt>
      <trkpt lat="42.344672" lon="2.283345">
        <ele>1501.80</ele>
        <time>2014-10-17T08:02:22.71Z</time>
      </trkpt>
      <trkpt lat="42.344767" lon="2.283445">
        <ele>1503.00</ele>
        <time>2014-10-17T11:47:14.92Z</time>
      </trkpt>
      <trkpt lat="42.344789" lon="2.283470">
        <ele>1503.40</ele>
        <time>2014-10-17T12:40:55.40Z</time>
      </trkpt>
      <trkpt lat="42.344859" lon="2.283523">
        <ele>1504.20</ele>
        <time>2014-10-17T15:10:47.05Z</time>
      </trkpt>
      <trkpt lat="42.344933" lon="2.283577">
        <ele>1505.40</ele>
        <time>2014-10-17T17:47:51.57Z</time>
      </trkpt>
      <trkpt lat="42.344958" lon="2.283598">
        <ele>1505.80</ele>
        <time>2014-10-17T18:42:50.08Z</time>
      </trkpt>
      <trkpt lat="42.345045" lon="2.283643">
        <ele>1506.60</ele>
        <time>2014-10-17T21:36:50.60Z</time>
      </trkpt>
      <trkpt lat="42.345140" lon="2.283650">
        <ele>1507.80</ele>
        <time>2014-10-18T00:34:35.31Z</time>
      </trkpt>
      <trkpt lat="42.345169" lon="2.283646">
        <ele>1508.00</ele>
        <time>2014-10-18T01:29:02.89Z</time>
      </trkpt>
      <trkpt lat="42.345251" lon="2.283621">
        <ele>1508.80</ele>
        <time>2014-10-18T04:06:05.07Z</time>
      </trkpt>
      <trkpt lat="42.345362" lon="2.283584">
        <ele>1510.00</ele>
        <time>2014-10-18T07:39:39.54Z</time>
      </trkpt>
      <trkpt lat="42.345467" lon="2.283531">
        <ele>1511.20</ele>
        <time>2014-10-18T11:09:01.81Z</time>
      </trkpt>
      <trkpt lat="42.345575" lon="2.283477">
        <ele>1512.40</ele>
        <time>2014-10-18T14:44:08.16Z</time>
      </trkpt>
      <trkpt lat="42.345716" lon="2.283398">
        <ele>1513.60</ele>
        <time>2014-10-18T19:29:14.97Z</time>
      </trkpt>
      <trkpt lat="42.345821" lon="2.283335">
        <ele>1514.60</ele>
        <time>2014-10-18T23:03:50.23Z</time>
      </trkpt>
      <trkpt lat="42.345923" lon="2.283273">
        <ele>1515.60</ele>
        <time>2014-10-19T02:32:44.63Z</time>
      </trkpt>
      <trkpt lat="42.346028" lon="2.283211">
        <ele>1516.80</ele>
        <time>2014-10-19T06:06:46.51Z</time>
      </trkpt>
      <trkpt lat="42.346128" lon="2.283150">
        <ele>1518.00</ele>
        <time>2014-10-19T09:31:42.47Z</time>
      </trkpt>
      <trkpt lat="42.346206" lon="2.283109">
        <ele>1519.20</ele>
        <time>2014-10-19T12:08:02.44Z</time>
      </trkpt>
      <trkpt lat="42.346259" lon="2.283091">
        <ele>1519.60</ele>
        <time>2014-10-19T13:50:07.72Z</time>
      </trkpt>
      <trkpt lat="42.346310" lon="2.283061">
        <ele>1520.20</ele>
        <time>2014-10-19T15:34:01.42Z</time>
      </trkpt>
      <trkpt lat="42.346386" lon="2.283010">
        <ele>1521.40</ele>
        <time>2014-10-19T18:12:30.79Z</time>
      </trkpt>
      <trkpt lat="42.346487" lon="2.282941">
        <ele>1522.40</ele>
        <time>2014-10-19T21:43:53.62Z</time>
      </trkpt>
      <trkpt lat="42.346550" lon="2.282900">
        <ele>1523.20</ele>
        <time>2014-10-19T23:54:29.97Z</time>
      </trkpt>
      <trkpt lat="42.346592" lon="2.282848">
        <ele>1523.60</ele>
        <time>2014-10-20T01:40:51.51Z</time>
      </trkpt>
      <trkpt lat="42.346690" lon="2.282780">
        <ele>1524.60</ele>
        <time>2014-10-20T05:06:37.04Z</time>
      </trkpt>
      <trkpt lat="42.346713" lon="2.282757">
        <ele>1525.00</ele>
        <time>2014-10-20T06:00:02.93Z</time>
      </trkpt>
      <trkpt lat="42.346788" lon="2.282684">
        <ele>1525.80</ele>
        <time>2014-10-20T08:52:39.30Z</time>
      </trkpt>
      <trkpt lat="42.346865" lon="2.282618">
        <ele>1526.80</ele>
        <time>2014-10-20T11:42:56.73Z</time>
      </trkpt>
      <trkpt lat="42.346911" lon="2.282558">
        <ele>1527.40</ele>
        <time>2014-10-20T13:42:18.88Z</time>
      </trkpt>
      <trkpt lat="42.346961" lon="2.282510">
        <ele>1528.00</ele>
        <time>2014-10-20T15:36:51.02Z</time>
      </trkpt>
      <trkpt lat="42.347057" lon="2.282415">
        <ele>1529.20</ele>
        <time>2014-10-20T19:19:03.04Z</time>
      </trkpt>
      <trkpt lat="42.347081" lon="2.282392">
        <ele>1529.40</ele>
        <time>2014-10-20T20:13:59.74Z</time>
      </trkpt>
      <trkpt lat="42.347180" lon="2.282299">
        <ele>1530.40</ele>
        <time>2014-10-20T23:59:09.46Z</time>
      </trkpt>
      <trkpt lat="42.347228" lon="2.282250">
        <ele>1531.00</ele>
        <time>2014-10-21T01:51:29.57Z</time>
      </trkpt>
      <trkpt lat="42.347277" lon="2.282202">
        <ele>1531.60</ele>
        <time>2014-10-21T03:44:30.59Z</time>
      </trkpt>
      <trkpt lat="42.347368" lon="2.282107">
        <ele>1532.80</ele>
        <time>2014-10-21T07:19:14.45Z</time>
      </trkpt>
      <trkpt lat="42.347442" lon="2.282034">
        <ele>1533.80</ele>
        <time>2014-10-21T10:10:19.99Z</time>
      </trkpt>
      <trkpt lat="42.347544" lon="2.281931">
        <ele>1535.00</ele>
        <time>2014-10-21T14:08:06.77Z</time>
      </trkpt>
      <trkpt lat="42.347568" lon="2.281910">
        <ele>1535.40</ele>
        <time>2014-10-21T15:01:30.55Z</time>
      </trkpt>
      <trkpt lat="42.347642" lon="2.281840">
        <ele>1536.20</ele>
        <time>2014-10-21T17:50:11.66Z</time>
      </trkpt>
      <trkpt lat="42.347713" lon="2.281771">
        <ele>1537.20</ele>
        <time>2014-10-21T20:33:30.48Z</time>
      </trkpt>
      <trkpt lat="42.347786" lon="2.281698">
        <ele>1538.20</ele>
        <time>2014-10-21T23:23:05.65Z</time>
      </trkpt>
      <trkpt lat="42.347811" lon="2.281676">
        <ele>1538.40</ele>
        <time>2014-10-22T00:18:48.56Z</time>
      </trkpt>
      <trkpt lat="42.347907" lon="2.281574">
        <ele>1539.60</ele>
        <time>2014-10-22T04:06:50.87Z</time>
      </trkpt>
      <trkpt lat="42.347977" lon="2.281498">
        <ele>1540.80</ele>
        <time>2014-10-22T06:54:31.25Z</time>
      </trkpt>
      <trkpt lat="42.348101" lon="2.281368">
        <ele>1542.00</ele>
        <time>2014-10-22T11:47:35.05Z</time>
      </trkpt>
      <trkpt lat="42.348171" lon="2.281288">
        <ele>1543.00</ele>
        <time>2014-10-22T14:38:46.06Z</time>
      </trkpt>
      <trkpt lat="42.348264" lon="2.281184">
        <ele>1544.20</ele>
        <time>2014-10-22T18:24:10.41Z</time>
      </trkpt>
      <trkpt lat="42.348288" lon="2.281162">
        <ele>1544.40</ele>
        <time>2014-10-22T19:18:19.92Z</time>
      </trkpt>
      <trkpt lat="42.348332" lon="2.281117">
        <ele>1545.00</ele>
        <time>2014-10-22T21:01:22.47Z</time>
      </trkpt>
      <trkpt lat="42.348357" lon="2.281093">
        <ele>1545.20</ele>
        <time>2014-10-22T21:58:38.51Z</time>
      </trkpt>
      <trkpt lat="42.348455" lon="2.281003">
        <ele>1546.40</ele>
        <time>2014-10-23T01:39:55.07Z</time>
      </trkpt>
      <trkpt lat="42.348505" lon="2.280959">
        <ele>1547.00</ele>
        <time>2014-10-23T03:31:20.86Z</time>
      </trkpt>
      <trkpt lat="42.348529" lon="2.280939">
        <ele>1547.40</ele>
        <time>2014-10-23T04:24:00.41Z</time>
      </trkpt>
      <trkpt lat="42.348601" lon="2.280892">
        <ele>1548.60</ele>
        <time>2014-10-23T06:53:21.32Z</time>
      </trkpt>
      <trkpt lat="42.348704" lon="2.280836">
        <ele>1549.80</ele>
        <time>2014-10-23T10:20:44.22Z</time>
      </trkpt>
      <trkpt lat="42.348815" lon="2.280792">
        <ele>1551.00</ele>
        <time>2014-10-23T13:56:49.60Z</time>
      </trkpt>
      <trkpt lat="42.348925" lon="2.280752">
        <ele>1552.20</ele>
        <time>2014-10-23T17:29:37.46Z</time>
      </trkpt>
      <trkpt lat="42.348983" lon="2.280728">
        <ele>1552.80</ele>
        <time>2014-10-23T19:22:56.14Z</time>
      </trkpt>
      <trkpt lat="42.349045" lon="2.280703">
        <ele>1553.20</ele>
        <time>2014-10-23T21:23:48Z</time>
      </trkpt>
      <trkpt lat="42.349160" lon="2.280665">
        <ele>1554.40</ele>
        <time>2014-10-24T01:04:57.64Z</time>
      </trkpt>
      <trkpt lat="42.349191" lon="2.280654">
        <ele>1554.80</ele>
        <time>2014-10-24T02:04:50.06Z</time>
      </trkpt>
      <trkpt lat="42.349252" lon="2.280635">
        <ele>1555.60</ele>
        <time>2014-10-24T04:01:46.62Z</time>
      </trkpt>
      <trkpt lat="42.349326" lon="2.280498">
        <ele>1556.60</ele>
        <time>2014-10-24T07:56:04.29Z</time>
      </trkpt>
      <trkpt lat="42.349259" lon="2.280361">
        <ele>1557.60</ele>
        <time>2014-10-24T11:42:53.72Z</time>
      </trkpt>
      <trkpt lat="42.349227" lon="2.280347">
        <ele>1557.80</ele>
        <time>2014-10-24T12:45:43.57Z</time>
      </trkpt>
      <trkpt lat="42.349164" lon="2.280341">
        <ele>1558.20</ele>
        <time>2014-10-24T14:43:42.96Z</time>
      </trkpt>
      <trkpt lat="42.349134" lon="2.280346">
        <ele>1558.40</ele>
        <time>2014-10-24T15:40:11.20Z</time>
      </trkpt>
      <trkpt lat="42.349047" lon="2.280377">
        <ele>1559.00</ele>
        <time>2014-10-24T18:28:15.86Z</time>
      </trkpt>
      <trkpt lat="42.348926" lon="2.280418">
        <ele>1560.20</ele>
        <time>2014-10-24T22:21:18.06Z</time>
      </trkpt>
      <trkpt lat="42.348810" lon="2.280469">
        <ele>1561.40</ele>
        <time>2014-10-25T02:09:10.16Z</time>
      </trkpt>
      <trkpt lat="42.348720" lon="2.280493">
        <ele>1562.20</ele>
        <time>2014-10-25T05:00:32.68Z</time>
      </trkpt>
      <trkpt lat="42.348691" lon="2.280500">
        <ele>1562.60</ele>
        <time>2014-10-25T05:55:34.73Z</time>
      </trkpt>
      <trkpt lat="42.348582" lon="2.280557">
        <ele>1563.80</ele>
        <time>2014-10-25T09:33:53.74Z</time>
      </trkpt>
      <trkpt lat="42.348502" lon="2.280603">
        <ele>1564.20</ele>
        <time>2014-10-25T12:16:17.39Z</time>
      </trkpt>
      <trkpt lat="42.348444" lon="2.280624">
        <ele>1565.00</ele>
        <time>2014-10-25T14:08:27.59Z</time>
      </trkpt>
      <trkpt lat="42.348331" lon="2.280667">
        <ele>1566.00</ele>
        <time>2014-10-25T17:47:45.61Z</time>
      </trkpt>
      <trkpt lat="42.348239" lon="2.280694">
        <ele>1566.80</ele>
        <time>2014-10-25T20:43:38.05Z</time>
      </trkpt>
      <trkpt lat="42.348209" lon="2.280699">
        <ele>1567.00</ele>
        <time>2014-10-25T21:40:06.29Z</time>
      </trkpt>
      <trkpt lat="42.348116" lon="2.280728">
        <ele>1568.20</ele>
        <time>2014-10-26T00:38:24.29Z</time>
      </trkpt>
      <trkpt lat="42.347968" lon="2.280777">
        <ele>1569.40</ele>
        <time>2014-10-26T05:23:03.63Z</time>
      </trkpt>
      <trkpt lat="42.347846" lon="2.280802">
        <ele>1570.60</ele>
        <time>2014-10-26T09:13:35.04Z</time>
      </trkpt>
      <trkpt lat="42.347725" lon="2.280788">
        <ele>1571.40</ele>
        <time>2014-10-26T13:00:27.92Z</time>
      </trkpt>
      <trkpt lat="42.347700" lon="2.280762">
        <ele>1571.80</ele>
        <time>2014-10-26T13:59:22.43Z</time>
      </trkpt>
      <trkpt lat="42.347643" lon="2.280662">
        <ele>1572.60</ele>
        <time>2014-10-26T16:53:44.63Z</time>
      </trkpt>
      <trkpt lat="42.347635" lon="2.280574">
        <ele>1572.80</ele>
        <time>2014-10-26T18:56:09.97Z</time>
      </trkpt>
      <trkpt lat="42.347652" lon="2.280490">
        <ele>1573.20</ele>
        <time>2014-10-26T20:56:25.18Z</time>
      </trkpt>
      <trkpt lat="42.347696" lon="2.280375">
        <ele>1574.20</ele>
        <time>2014-10-26T23:55:13.37Z</time>
      </trkpt>
      <trkpt lat="42.347737" lon="2.280308">
        <ele>1574.60</ele>
        <time>2014-10-27T01:55:19.72Z</time>
      </trkpt>
      <trkpt lat="42.347802" lon="2.280205">
        <ele>1575.20</ele>
        <time>2014-10-27T05:02:20.26Z</time>
      </trkpt>
      <trkpt lat="42.347883" lon="2.280050">
        <ele>1576.40</ele>
        <time>2014-10-27T09:24:27.01Z</time>
      </trkpt>
      <trkpt lat="42.347981" lon="2.279889">
        <ele>1577.40</ele>
        <time>2014-10-27T14:12:26.44Z</time>
      </trkpt>
      <trkpt lat="42.348034" lon="2.279787">
        <ele>1578.00</ele>
        <time>2014-10-27T17:04:36.06Z</time>
      </trkpt>
      <trkpt lat="42.348068" lon="2.279720">
        <ele>1578.80</ele>
        <time>2014-10-27T18:56:49.15Z</time>
      </trkpt>
      <trkpt lat="42.348122" lon="2.279586">
        <ele>1579.80</ele>
        <time>2014-10-27T22:27:33.38Z</time>
      </trkpt>
      <trkpt lat="42.348152" lon="2.279511">
        <ele>1580.40</ele>
        <time>2014-10-28T00:25:18.39Z</time>
      </trkpt>
      <trkpt lat="42.348168" lon="2.279431">
        <ele>1581.00</ele>
        <time>2014-10-28T02:19:44.36Z</time>
      </trkpt>
      <trkpt lat="42.348192" lon="2.279227">
        <ele>1582.00</ele>
        <time>2014-10-28T07:04:57.47Z</time>
      </trkpt>
      <trkpt lat="42.348197" lon="2.279186">
        <ele>1582.00</ele>
        <time>2014-10-28T08:02:20.03Z</time>
      </trkpt>
      <trkpt lat="42.348212" lon="2.279020">
        <ele>1583.00</ele>
        <time>2014-10-28T11:53:14.66Z</time>
      </trkpt>
      <trkpt lat="42.348215" lon="2.278860">
        <ele>1584.00</ele>
        <time>2014-10-28T15:34:14.08Z</time>
      </trkpt>
      <trkpt lat="42.348216" lon="2.278821">
        <ele>1584.20</ele>
        <time>2014-10-28T16:28:06.97Z</time>
      </trkpt>
      <trkpt lat="42.348220" lon="2.278610">
        <ele>1585.40</ele>
        <time>2014-10-28T21:19:32.95Z</time>
      </trkpt>
      <trkpt lat="42.348232" lon="2.278520">
        <ele>1586.20</ele>
        <time>2014-10-28T23:25:49.33Z</time>
      </trkpt>
      <trkpt lat="42.348246" lon="2.278431">
        <ele>1586.60</ele>
        <time>2014-10-29T01:31:27.67Z</time>
      </trkpt>
      <trkpt lat="42.348291" lon="2.278126">
        <ele>1587.60</ele>
        <time>2014-10-29T08:40:53.86Z</time>
      </trkpt>
      <trkpt lat="42.348291" lon="2.277870">
        <ele>1588.60</ele>
        <time>2014-10-29T14:34:22.07Z</time>
      </trkpt>
      <trkpt lat="42.348290" lon="2.277828">
        <ele>1588.80</ele>
        <time>2014-10-29T15:32:23.35Z</time>
      </trkpt>
      <trkpt lat="42.348281" lon="2.277657">
        <ele>1589.80</ele>
        <time>2014-10-29T19:29:05.66Z</time>
      </trkpt>
      <trkpt lat="42.348277" lon="2.277485">
        <ele>1590.80</ele>
        <time>2014-10-29T23:26:41.98Z</time>
      </trkpt>
      <trkpt lat="42.348291" lon="2.277316">
        <ele>1592.00</ele>
        <time>2014-10-30T03:21:30.40Z</time>
      </trkpt>
      <trkpt lat="42.348330" lon="2.277253">
        <ele>1592.40</ele>
        <time>2014-10-30T05:14:58.60Z</time>
      </trkpt>
      <trkpt lat="42.348387" lon="2.277230">
        <ele>1593.00</ele>
        <time>2014-10-30T07:06:06.02Z</time>
      </trkpt>
      <trkpt lat="42.348419" lon="2.277240">
        <ele>1593.20</ele>
        <time>2014-10-30T08:07:27.46Z</time>
      </trkpt>
      <trkpt lat="42.348449" lon="2.277260">
        <ele>1593.60</ele>
        <time>2014-10-30T09:09:56.30Z</time>
      </trkpt>
      <trkpt lat="42.348561" lon="2.277441">
        <ele>1594.40</ele>
        <time>2014-10-30T14:35:52.91Z</time>
      </trkpt>
      <trkpt lat="42.348565" lon="2.277606">
        <ele>1595.60</ele>
        <time>2014-10-30T18:23:49.56Z</time>
      </trkpt>
      <trkpt lat="42.348572" lon="2.277863">
        <ele>1596.80</ele>
        <time>2014-10-31T00:18:54.98Z</time>
      </trkpt>
      <trkpt lat="42.348573" lon="2.277988">
        <ele>1597.80</ele>
        <time>2014-10-31T03:11:31.12Z</time>
      </trkpt>
      <trkpt lat="42.348577" lon="2.278035">
        <ele>1598.00</ele>
        <time>2014-10-31T04:16:50.53Z</time>
      </trkpt>
      <trkpt lat="42.348616" lon="2.278218">
        <ele>1599.20</ele>
        <time>2014-10-31T08:39:48.74Z</time>
      </trkpt>
      <trkpt lat="42.348635" lon="2.278313">
        <ele>1599.60</ele>
        <time>2014-10-31T10:55:42.01Z</time>
      </trkpt>
      <trkpt lat="42.348669" lon="2.278451">
        <ele>1600.20</ele>
        <time>2014-10-31T14:16:33.03Z</time>
      </trkpt>
      <trkpt lat="42.348718" lon="2.278580">
        <ele>1601.00</ele>
        <time>2014-10-31T17:36:48.78Z</time>
      </trkpt>
      <trkpt lat="42.348728" lon="2.278629">
        <ele>1601.20</ele>
        <time>2014-10-31T18:47:00.06Z</time>
      </trkpt>
      <trkpt lat="42.348775" lon="2.278814">
        <ele>1602.40</ele>
        <time>2014-10-31T23:17:06.44Z</time>
      </trkpt>
      <trkpt lat="42.348872" lon="2.279008">
        <ele>1603.40</ele>
        <time>2014-11-01T04:40:30.69Z</time>
      </trkpt>
      <trkpt lat="42.348933" lon="2.279057">
        <ele>1604.20</ele>
        <time>2014-11-01T06:53:02.60Z</time>
      </trkpt>
      <trkpt lat="42.349003" lon="2.279081">
        <ele>1604.60</ele>
        <time>2014-11-01T09:07:57.16Z</time>
      </trkpt>
      <trkpt lat="42.349109" lon="2.279084">
        <ele>1605.00</ele>
        <time>2014-11-01T12:26:01.73Z</time>
      </trkpt>
      <trkpt lat="42.349210" lon="2.279069">
        <ele>1605.80</ele>
        <time>2014-11-01T15:35:51.22Z</time>
      </trkpt>
      <trkpt lat="42.349303" lon="2.279034">
        <ele>1606.60</ele>
        <time>2014-11-01T18:36:11.68Z</time>
      </trkpt>
      <trkpt lat="42.349363" lon="2.279001">
        <ele>1606.80</ele>
        <time>2014-11-01T20:37:11.71Z</time>
      </trkpt>
      <trkpt lat="42.349449" lon="2.278929">
        <ele>1608.00</ele>
        <time>2014-11-01T23:46:07.89Z</time>
      </trkpt>
      <trkpt lat="42.349479" lon="2.278909">
        <ele>1608.20</ele>
        <time>2014-11-02T00:48:36.72Z</time>
      </trkpt>
      <trkpt lat="42.349606" lon="2.278825">
        <ele>1609.00</ele>
        <time>2014-11-02T05:12:42.45Z</time>
      </trkpt>
      <trkpt lat="42.349708" lon="2.278781">
        <ele>1609.60</ele>
        <time>2014-11-02T08:32:43.01Z</time>
      </trkpt>
      <trkpt lat="42.349745" lon="2.278778">
        <ele>1610.00</ele>
        <time>2014-11-02T09:41:57.93Z</time>
      </trkpt>
      <trkpt lat="42.349892" lon="2.278799">
        <ele>1611.20</ele>
        <time>2014-11-02T14:18:07.33Z</time>
      </trkpt>
      <trkpt lat="42.349925" lon="2.278806">
        <ele>1611.60</ele>
        <time>2014-11-02T15:20:31.61Z</time>
      </trkpt>
      <trkpt lat="42.350022" lon="2.278850">
        <ele>1612.40</ele>
        <time>2014-11-02T18:31:39.45Z</time>
      </trkpt>
      <trkpt lat="42.350121" lon="2.278879">
        <ele>1613.40</ele>
        <time>2014-11-02T21:40:53.82Z</time>
      </trkpt>
      <trkpt lat="42.350152" lon="2.278884">
        <ele>1613.60</ele>
        <time>2014-11-02T22:39:13.34Z</time>
      </trkpt>
      <trkpt lat="42.350286" lon="2.278897">
        <ele>1615.00</ele>
        <time>2014-11-03T02:50:12.49Z</time>
      </trkpt>
      <trkpt lat="42.350379" lon="2.278885">
        <ele>1615.80</ele>
        <time>2014-11-03T05:44:44.53Z</time>
      </trkpt>
      <trkpt lat="42.350410" lon="2.278878">
        <ele>1616.00</ele>
        <time>2014-11-03T06:43:27.49Z</time>
      </trkpt>
      <trkpt lat="42.350531" lon="2.278832">
        <ele>1617.20</ele>
        <time>2014-11-03T10:38:16.03Z</time>
      </trkpt>
      <trkpt lat="42.350598" lon="2.278803">
        <ele>1617.80</ele>
        <time>2014-11-03T12:49:41.21Z</time>
      </trkpt>
      <trkpt lat="42.350684" lon="2.278768">
        <ele>1618.40</ele>
        <time>2014-11-03T15:37:27.89Z</time>
      </trkpt>
      <trkpt lat="42.350796" lon="2.278697">
        <ele>1619.60</ele>
        <time>2014-11-03T19:28:31.91Z</time>
      </trkpt>
      <trkpt lat="42.350874" lon="2.278647">
        <ele>1620.80</ele>
        <time>2014-11-03T22:09:46.75Z</time>
      </trkpt>
      <trkpt lat="42.350957" lon="2.278622">
        <ele>1621.20</ele>
        <time>2014-11-04T00:48:38.27Z</time>
      </trkpt>
      <trkpt lat="42.350986" lon="2.278614">
        <ele>1621.80</ele>
        <time>2014-11-04T01:43:55.87Z</time>
      </trkpt>
      <trkpt lat="42.351094" lon="2.278569">
        <ele>1623.20</ele>
        <time>2014-11-04T05:15:02.98Z</time>
      </trkpt>
      <trkpt lat="42.351146" lon="2.278538">
        <ele>1623.60</ele>
        <time>2014-11-04T07:01:12.51Z</time>
      </trkpt>
      <trkpt lat="42.351229" lon="2.278499">
        <ele>1624.20</ele>
        <time>2014-11-04T09:45:21.30Z</time>
      </trkpt>
      <trkpt lat="42.351329" lon="2.278442">
        <ele>1625.20</ele>
        <time>2014-11-04T13:08:04.66Z</time>
      </trkpt>
      <trkpt lat="42.351436" lon="2.278380">
        <ele>1626.40</ele>
        <time>2014-11-04T16:45:32.15Z</time>
      </trkpt>
      <trkpt lat="42.351550" lon="2.278325">
        <ele>1627.20</ele>
        <time>2014-11-04T20:31:38.83Z</time>
      </trkpt>
      <trkpt lat="42.351600" lon="2.278294">
        <ele>1627.60</ele>
        <time>2014-11-04T22:14:23.86Z</time>
      </trkpt>
      <trkpt lat="42.351674" lon="2.278246">
        <ele>1628.80</ele>
        <time>2014-11-05T00:47:42.63Z</time>
      </trkpt>
      <trkpt lat="42.351756" lon="2.278203">
        <ele>1629.60</ele>
        <time>2014-11-05T03:32:00.43Z</time>
      </trkpt>
      <trkpt lat="42.351784" lon="2.278188">
        <ele>1629.80</ele>
        <time>2014-11-05T04:28:16.09Z</time>
      </trkpt>
      <trkpt lat="42.351884" lon="2.278101">
        <ele>1630.80</ele>
        <time>2014-11-05T08:10:22.48Z</time>
      </trkpt>
      <trkpt lat="42.351908" lon="2.278082">
        <ele>1631.20</ele>
        <time>2014-11-05T09:02:19.34Z</time>
      </trkpt>
      <trkpt lat="42.352019" lon="2.278028">
        <ele>1632.00</ele>
        <time>2014-11-05T12:42:41.48Z</time>
      </trkpt>
      <trkpt lat="42.352098" lon="2.277989">
        <ele>1632.80</ele>
        <time>2014-11-05T15:19:47.84Z</time>
      </trkpt>
      <trkpt lat="42.352125" lon="2.277976">
        <ele>1633.00</ele>
        <time>2014-11-05T16:13:20.27Z</time>
      </trkpt>
      <trkpt lat="42.352240" lon="2.277943">
        <ele>1634.20</ele>
        <time>2014-11-05T19:52:57.75Z</time>
      </trkpt>
      <trkpt lat="42.352333" lon="2.277942">
        <ele>1634.80</ele>
        <time>2014-11-05T22:46:42.82Z</time>
      </trkpt>
      <trkpt lat="42.352395" lon="2.277924">
        <ele>1635.40</ele>
        <time>2014-11-06T00:45:10.81Z</time>
      </trkpt>
      <trkpt lat="42.352548" lon="2.277890">
        <ele>1636.60</ele>
        <time>2014-11-06T05:34:50.93Z</time>
      </trkpt>
      <trkpt lat="42.352578" lon="2.277884">
        <ele>1637.00</ele>
        <time>2014-11-06T06:31:30.28Z</time>
      </trkpt>
      <trkpt lat="42.352672" lon="2.277878">
        <ele>1637.60</ele>
        <time>2014-11-06T09:27:18.84Z</time>
      </trkpt>
      <trkpt lat="42.352792" lon="2.277870">
        <ele>1639.00</ele>
        <time>2014-11-06T13:11:46.43Z</time>
      </trkpt>
      <trkpt lat="42.352911" lon="2.277858">
        <ele>1640.20</ele>
        <time>2014-11-06T16:54:42.61Z</time>
      </trkpt>
      <trkpt lat="42.352970" lon="2.277856">
        <ele>1640.80</ele>
        <time>2014-11-06T18:44:58.23Z</time>
      </trkpt>
      <trkpt lat="42.353000" lon="2.277851">
        <ele>1641.40</ele>
        <time>2014-11-06T19:41:26.46Z</time>
      </trkpt>
      <trkpt lat="42.353142" lon="2.277798">
        <ele>1642.60</ele>
        <time>2014-11-07T00:16:38.21Z</time>
      </trkpt>
      <trkpt lat="42.353223" lon="2.277744">
        <ele>1643.60</ele>
        <time>2014-11-07T03:05:19.94Z</time>
      </trkpt>
      <trkpt lat="42.353332" lon="2.277676">
        <ele>1644.40</ele>
        <time>2014-11-07T06:49:34.17Z</time>
      </trkpt>
      <trkpt lat="42.353360" lon="2.277659">
        <ele>1644.80</ele>
        <time>2014-11-07T07:46:54.25Z</time>
      </trkpt>
      <trkpt lat="42.353461" lon="2.277591">
        <ele>1645.80</ele>
        <time>2014-11-07T11:17:39.67Z</time>
      </trkpt>
      <trkpt lat="42.353553" lon="2.277523">
        <ele>1646.80</ele>
        <time>2014-11-07T14:33:30.46Z</time>
      </trkpt>
      <trkpt lat="42.353576" lon="2.277510">
        <ele>1647.00</ele>
        <time>2014-11-07T15:20:04.49Z</time>
      </trkpt>
      <trkpt lat="42.353675" lon="2.277450">
        <ele>1648.00</ele>
        <time>2014-11-07T18:42:43.99Z</time>
      </trkpt>
      <trkpt lat="42.353723" lon="2.277415">
        <ele>1648.80</ele>
        <time>2014-11-07T20:24:35.94Z</time>
      </trkpt>
      <trkpt lat="42.353773" lon="2.277380">
        <ele>1649.20</ele>
        <time>2014-11-07T22:09:46.15Z</time>
      </trkpt>
      <trkpt lat="42.353869" lon="2.277320">
        <ele>1650.40</ele>
        <time>2014-11-08T01:27:19.54Z</time>
      </trkpt>
      <trkpt lat="42.353893" lon="2.277302">
        <ele>1650.80</ele>
        <time>2014-11-08T02:18:35.38Z</time>
      </trkpt>
      <trkpt lat="42.353988" lon="2.277235">
        <ele>1651.60</ele>
        <time>2014-11-08T05:38:43.84Z</time>
      </trkpt>
      <trkpt lat="42.354060" lon="2.277172">
        <ele>1652.40</ele>
        <time>2014-11-08T08:18:54.90Z</time>
      </trkpt>
      <trkpt lat="42.354084" lon="2.277148">
        <ele>1652.80</ele>
        <time>2014-11-08T09:14:40.04Z</time>
      </trkpt>
      <trkpt lat="42.354158" lon="2.276975">
        <ele>1654.20</ele>
        <time>2014-11-08T13:50:38.36Z</time>
      </trkpt>
      <trkpt lat="42.354121" lon="2.276824">
        <ele>1655.00</ele>
        <time>2014-11-08T17:30:16.40Z</time>
      </trkpt>
      <trkpt lat="42.354097" lon="2.276795">
        <ele>1655.20</ele>
        <time>2014-11-08T18:30:23.12Z</time>
      </trkpt>
      <trkpt lat="42.353973" lon="2.276766">
        <ele>1656.20</ele>
        <time>2014-11-08T22:25:28.84Z</time>
      </trkpt>
      <trkpt lat="42.353856" lon="2.276842">
        <ele>1657.40</ele>
        <time>2014-11-09T02:27:56.62Z</time>
      </trkpt>
      <trkpt lat="42.353799" lon="2.276880">
        <ele>1658.00</ele>
        <time>2014-11-09T04:26:39.31Z</time>
      </trkpt>
      <trkpt lat="42.353740" lon="2.276915">
        <ele>1658.40</ele>
        <time>2014-11-09T06:27:00.46Z</time>
      </trkpt>
      <trkpt lat="42.353622" lon="2.276980">
        <ele>1659.40</ele>
        <time>2014-11-09T10:25:01.50Z</time>
      </trkpt>
      <trkpt lat="42.353594" lon="2.276997">
        <ele>1659.80</ele>
        <time>2014-11-09T11:22:21.58Z</time>
      </trkpt>
      <trkpt lat="42.353539" lon="2.277036">
        <ele>1660.40</ele>
        <time>2014-11-09T13:18:21.94Z</time>
      </trkpt>
      <trkpt lat="42.353394" lon="2.277086">
        <ele>1661.60</ele>
        <time>2014-11-09T17:57:55Z</time>
      </trkpt>
      <trkpt lat="42.353364" lon="2.277089">
        <ele>1661.80</ele>
        <time>2014-11-09T18:54:06.99Z</time>
      </trkpt>
      <trkpt lat="42.353242" lon="2.277099">
        <ele>1662.80</ele>
        <time>2014-11-09T22:42:27.53Z</time>
      </trkpt>
      <trkpt lat="42.353148" lon="2.277077">
        <ele>1663.20</ele>
        <time>2014-11-10T01:40:40.81Z</time>
      </trkpt>
      <trkpt lat="42.353085" lon="2.277049">
        <ele>1664.00</ele>
        <time>2014-11-10T03:44:33.89Z</time>
      </trkpt>
      <trkpt lat="42.352966" lon="2.276997">
        <ele>1665.00</ele>
        <time>2014-11-10T07:38:11.35Z</time>
      </trkpt>
      <trkpt lat="42.352908" lon="2.276970">
        <ele>1665.40</ele>
        <time>2014-11-10T09:32:46.77Z</time>
      </trkpt>
      <trkpt lat="42.352820" lon="2.276922">
        <ele>1666.40</ele>
        <time>2014-11-10T12:30:02.30Z</time>
      </trkpt>
      <trkpt lat="42.352705" lon="2.276857">
        <ele>1667.20</ele>
        <time>2014-11-10T16:22:52.48Z</time>
      </trkpt>
      <trkpt lat="42.352676" lon="2.276846">
        <ele>1667.40</ele>
        <time>2014-11-10T17:19:08.51Z</time>
      </trkpt>
      <trkpt lat="42.352561" lon="2.276816">
        <ele>1668.40</ele>
        <time>2014-11-10T20:57:56.69Z</time>
      </trkpt>
      <trkpt lat="42.352469" lon="2.276803">
        <ele>1669.40</ele>
        <time>2014-11-10T23:50:45.41Z</time>
      </trkpt>
      <trkpt lat="42.352439" lon="2.276803">
        <ele>1669.60</ele>
        <time>2014-11-11T00:46:48.23Z</time>
      </trkpt>
      <trkpt lat="42.352324" lon="2.276811">
        <ele>1670.80</ele>
        <time>2014-11-11T04:21:56.07Z</time>
      </trkpt>
      <trkpt lat="42.352245" lon="2.276839">
        <ele>1671.60</ele>
        <time>2014-11-11T06:54:30.23Z</time>
      </trkpt>
      <trkpt lat="42.352188" lon="2.276848">
        <ele>1672.00</ele>
        <time>2014-11-11T08:41:42.94Z</time>
      </trkpt>
      <trkpt lat="42.352132" lon="2.276855">
        <ele>1672.40</ele>
        <time>2014-11-11T10:26:46.93Z</time>
      </trkpt>
      <trkpt lat="42.352077" lon="2.276860">
        <ele>1673.00</ele>
        <time>2014-11-11T12:09:46Z</time>
      </trkpt>
      <trkpt lat="42.352052" lon="2.276866">
        <ele>1673.20</ele>
        <time>2014-11-11T12:57:12.09Z</time>
      </trkpt>
      <trkpt lat="42.351921" lon="2.276915">
        <ele>1674.60</ele>
        <time>2014-11-11T17:11:07.10Z</time>
      </trkpt>
      <trkpt lat="42.351893" lon="2.276919">
        <ele>1674.80</ele>
        <time>2014-11-11T18:03:43.18Z</time>
      </trkpt>
      <trkpt lat="42.351811" lon="2.276926">
        <ele>1675.60</ele>
        <time>2014-11-11T20:37:13.16Z</time>
      </trkpt>
      <trkpt lat="42.351680" lon="2.276951">
        <ele>1676.80</ele>
        <time>2014-11-12T00:44:22.80Z</time>
      </trkpt>
      <trkpt lat="42.351652" lon="2.276947">
        <ele>1677.00</ele>
        <time>2014-11-12T01:36:58.87Z</time>
      </trkpt>
      <trkpt lat="42.351513" lon="2.276901">
        <ele>1677.80</ele>
        <time>2014-11-12T06:04:19.16Z</time>
      </trkpt>
      <trkpt lat="42.351462" lon="2.276861">
        <ele>1678.20</ele>
        <time>2014-11-12T07:54:26.87Z</time>
      </trkpt>
      <trkpt lat="42.351417" lon="2.276815">
        <ele>1679.00</ele>
        <time>2014-11-12T09:39:48.68Z</time>
      </trkpt>
      <trkpt lat="42.351317" lon="2.276672">
        <ele>1679.80</ele>
        <time>2014-11-12T14:11:37.67Z</time>
      </trkpt>
      <trkpt lat="42.351302" lon="2.276635">
        <ele>1680.20</ele>
        <time>2014-11-12T15:09:53.67Z</time>
      </trkpt>
      <trkpt lat="42.351212" lon="2.276403">
        <ele>1681.20</ele>
        <time>2014-11-12T21:11:39.63Z</time>
      </trkpt>
      <trkpt lat="42.351174" lon="2.276341">
        <ele>1681.60</ele>
        <time>2014-11-12T23:02:52.24Z</time>
      </trkpt>
      <trkpt lat="42.351143" lon="2.276283">
        <ele>1682.20</ele>
        <time>2014-11-13T00:41:41.90Z</time>
      </trkpt>
      <trkpt lat="42.351085" lon="2.276196">
        <ele>1682.80</ele>
        <time>2014-11-13T03:23:28.18Z</time>
      </trkpt>
      <trkpt lat="42.351048" lon="2.276130">
        <ele>1683.60</ele>
        <time>2014-11-13T05:17:50.77Z</time>
      </trkpt>
      <trkpt lat="42.350974" lon="2.276057">
        <ele>1684.40</ele>
        <time>2014-11-13T08:08:56.12Z</time>
      </trkpt>
      <trkpt lat="42.350950" lon="2.276035">
        <ele>1684.60</ele>
        <time>2014-11-13T09:03:05.58Z</time>
      </trkpt>
      <trkpt lat="42.350848" lon="2.275957">
        <ele>1685.80</ele>
        <time>2014-11-13T12:41:58.72Z</time>
      </trkpt>
      <trkpt lat="42.350794" lon="2.275921">
        <ele>1686.00</ele>
        <time>2014-11-13T14:34:26.59Z</time>
      </trkpt>
      <trkpt lat="42.350653" lon="2.275831">
        <ele>1687.00</ele>
        <time>2014-11-13T19:25:42.11Z</time>
      </trkpt>
      <trkpt lat="42.350544" lon="2.275772">
        <ele>1687.80</ele>
        <time>2014-11-13T23:05:01.70Z</time>
      </trkpt>
      <trkpt lat="42.350519" lon="2.275750">
        <ele>1688.00</ele>
        <time>2014-11-14T00:00:44.56Z</time>
      </trkpt>
      <trkpt lat="42.350417" lon="2.275589">
        <ele>1689.20</ele>
        <time>2014-11-14T04:53:32.04Z</time>
      </trkpt>
      <trkpt lat="42.350354" lon="2.275450">
        <ele>1690.60</ele>
        <time>2014-11-14T08:38:40.05Z</time>
      </trkpt>
      <trkpt lat="42.350311" lon="2.275282">
        <ele>1691.60</ele>
        <time>2014-11-14T12:44:08.52Z</time>
      </trkpt>
      <trkpt lat="42.350303" lon="2.275238">
        <ele>1691.80</ele>
        <time>2014-11-14T13:46:42.26Z</time>
      </trkpt>
      <trkpt lat="42.350277" lon="2.275024">
        <ele>1692.60</ele>
        <time>2014-11-14T18:46:08.40Z</time>
      </trkpt>
      <trkpt lat="42.350261" lon="2.274946">
        <ele>1693.20</ele>
        <time>2014-11-14T20:37:54.36Z</time>
      </trkpt>
      <trkpt lat="42.350210" lon="2.274750">
        <ele>1694.20</ele>
        <time>2014-11-15T01:24:48.41Z</time>
      </trkpt>
      <trkpt lat="42.350195" lon="2.274670">
        <ele>1695.20</ele>
        <time>2014-11-15T03:18:45.74Z</time>
      </trkpt>
      <trkpt lat="42.350186" lon="2.274629">
        <ele>1695.40</ele>
        <time>2014-11-15T04:17:48.92Z</time>
      </trkpt>
      <trkpt lat="42.350159" lon="2.274467">
        <ele>1696.40</ele>
        <time>2014-11-15T08:07:06.38Z</time>
      </trkpt>
      <trkpt lat="42.350136" lon="2.274351">
        <ele>1697.20</ele>
        <time>2014-11-15T10:52:55.91Z</time>
      </trkpt>
      <trkpt lat="42.350119" lon="2.274274">
        <ele>1697.60</ele>
        <time>2014-11-15T12:43:53.31Z</time>
      </trkpt>
      <trkpt lat="42.350088" lon="2.274123">
        <ele>1698.60</ele>
        <time>2014-11-15T16:20:16.16Z</time>
      </trkpt>
      <trkpt lat="42.350076" lon="2.274083">
        <ele>1699.00</ele>
        <time>2014-11-15T17:19:52.46Z</time>
      </trkpt>
      <trkpt lat="42.350021" lon="2.273934">
        <ele>1699.80</ele>
        <time>2014-11-15T21:09:49.97Z</time>
      </trkpt>
      <trkpt lat="42.349971" lon="2.273778">
        <ele>1700.80</ele>
        <time>2014-11-16T01:04:36.39Z</time>
      </trkpt>
      <trkpt lat="42.349948" lon="2.273599">
        <ele>1701.80</ele>
        <time>2014-11-16T05:15:27.63Z</time>
      </trkpt>
      <trkpt lat="42.349924" lon="2.273477">
        <ele>1702.60</ele>
        <time>2014-11-16T08:09:46.33Z</time>
      </trkpt>
      <trkpt lat="42.349922" lon="2.273434">
        <ele>1703.00</ele>
        <time>2014-11-16T09:09:15.61Z</time>
      </trkpt>
      <trkpt lat="42.349898" lon="2.273223">
        <ele>1704.20</ele>
        <time>2014-11-16T14:04:01.18Z</time>
      </trkpt>
      <trkpt lat="42.349890" lon="2.273182">
        <ele>1704.60</ele>
        <time>2014-11-16T15:02:34.11Z</time>
      </trkpt>
      <trkpt lat="42.349846" lon="2.273036">
        <ele>1705.40</ele>
        <time>2014-11-16T18:40:16.08Z</time>
      </trkpt>
      <trkpt lat="42.349808" lon="2.272881">
        <ele>1706.40</ele>
        <time>2014-11-16T22:25:44.75Z</time>
      </trkpt>
      <trkpt lat="42.349772" lon="2.272722">
        <ele>1707.60</ele>
        <time>2014-11-17T02:15:21.01Z</time>
      </trkpt>
      <trkpt lat="42.349738" lon="2.272558">
        <ele>1708.60</ele>
        <time>2014-11-17T06:10:31.65Z</time>
      </trkpt>
      <trkpt lat="42.349729" lon="2.272517">
        <ele>1708.80</ele>
        <time>2014-11-17T07:09:34.85Z</time>
      </trkpt>
      <trkpt lat="42.349690" lon="2.272359">
        <ele>1709.80</ele>
        <time>2014-11-17T10:59:34.76Z</time>
      </trkpt>
      <trkpt lat="42.349657" lon="2.272195">
        <ele>1711.00</ele>
        <time>2014-11-17T14:54:15.55Z</time>
      </trkpt>
      <trkpt lat="42.349610" lon="2.272003">
        <ele>1712.00</ele>
        <time>2014-11-17T19:33:31.19Z</time>
      </trkpt>
      <trkpt lat="42.349598" lon="2.271967">
        <ele>1712.20</ele>
        <time>2014-11-17T20:28:02.84Z</time>
      </trkpt>
      <trkpt lat="42.349544" lon="2.271816">
        <ele>1713.20</ele>
        <time>2014-11-18T00:19:39.67Z</time>
      </trkpt>
      <trkpt lat="42.349504" lon="2.271708">
        <ele>1714.40</ele>
        <time>2014-11-18T03:06:27.35Z</time>
      </trkpt>
      <trkpt lat="42.349493" lon="2.271669">
        <ele>1714.60</ele>
        <time>2014-11-18T04:04:05.52Z</time>
      </trkpt>
      <trkpt lat="42.349454" lon="2.271470">
        <ele>1715.60</ele>
        <time>2014-11-18T08:48:21.07Z</time>
      </trkpt>
      <trkpt lat="42.349460" lon="2.271427">
        <ele>1716.00</ele>
        <time>2014-11-18T09:48:46.26Z</time>
      </trkpt>
      <trkpt lat="42.349493" lon="2.271358">
        <ele>1716.20</ele>
        <time>2014-11-18T11:42:14.93Z</time>
      </trkpt>
      <trkpt lat="42.349548" lon="2.271330">
        <ele>1716.80</ele>
        <time>2014-11-18T13:32:02.03Z</time>
      </trkpt>
      <trkpt lat="42.349688" lon="2.271379">
        <ele>1718.00</ele>
        <time>2014-11-18T18:02:11.69Z</time>
      </trkpt>
      <trkpt lat="42.349785" lon="2.271572">
        <ele>1719.00</ele>
        <time>2014-11-18T23:24:27.19Z</time>
      </trkpt>
      <trkpt lat="42.349800" lon="2.271608">
        <ele>1719.40</ele>
        <time>2014-11-19T00:21:30.85Z</time>
      </trkpt>
      <trkpt lat="42.349840" lon="2.271722">
        <ele>1720.20</ele>
        <time>2014-11-19T03:15:45.24Z</time>
      </trkpt>
      <trkpt lat="42.349896" lon="2.271888">
        <ele>1721.40</ele>
        <time>2014-11-19T07:27:42.04Z</time>
      </trkpt>
      <trkpt lat="42.349991" lon="2.272074">
        <ele>1722.60</ele>
        <time>2014-11-19T12:39:52.43Z</time>
      </trkpt>
      <trkpt lat="42.350026" lon="2.272146">
        <ele>1723.00</ele>
        <time>2014-11-19T14:38:51.70Z</time>
      </trkpt>
      <trkpt lat="42.350083" lon="2.272260">
        <ele>1723.60</ele>
        <time>2014-11-19T17:48:54.04Z</time>
      </trkpt>
      <trkpt lat="42.350175" lon="2.272446">
        <ele>1724.60</ele>
        <time>2014-11-19T22:57:55.27Z</time>
      </trkpt>
      <trkpt lat="42.350194" lon="2.272479">
        <ele>1725.00</ele>
        <time>2014-11-19T23:55:40.76Z</time>
      </trkpt>
      <trkpt lat="42.350246" lon="2.272588">
        <ele>1725.80</ele>
        <time>2014-11-20T02:54:48.45Z</time>
      </trkpt>
      <trkpt lat="42.350320" lon="2.272725">
        <ele>1726.60</ele>
        <time>2014-11-20T06:49:05.98Z</time>
      </trkpt>
      <trkpt lat="42.350335" lon="2.272761">
        <ele>1726.80</ele>
        <time>2014-11-20T07:46:09.62Z</time>
      </trkpt>
      <trkpt lat="42.350416" lon="2.272935">
        <ele>1728.00</ele>
        <time>2014-11-20T12:30:05.37Z</time>
      </trkpt>
      <trkpt lat="42.350434" lon="2.272970">
        <ele>1728.40</ele>
        <time>2014-11-20T13:28:57.78Z</time>
      </trkpt>
      <trkpt lat="42.350501" lon="2.273097">
        <ele>1729.20</ele>
        <time>2014-11-20T17:04:24.26Z</time>
      </trkpt>
      <trkpt lat="42.350548" lon="2.273196">
        <ele>1730.20</ele>
        <time>2014-11-20T19:46:51.98Z</time>
      </trkpt>
      <trkpt lat="42.350574" lon="2.273267">
        <ele>1730.40</ele>
        <time>2014-11-20T21:36:16.20Z</time>
      </trkpt>
      <trkpt lat="42.350641" lon="2.273417">
        <ele>1731.60</ele>
        <time>2014-11-21T01:38:15.70Z</time>
      </trkpt>
      <trkpt lat="42.350678" lon="2.273492">
        <ele>1732.40</ele>
        <time>2014-11-21T03:42:45.93Z</time>
      </trkpt>
      <trkpt lat="42.350720" lon="2.273600">
        <ele>1732.80</ele>
        <time>2014-11-21T06:31:15.89Z</time>
      </trkpt>
      <trkpt lat="42.350770" lon="2.273705">
        <ele>1734.00</ele>
        <time>2014-11-21T09:23:43.54Z</time>
      </trkpt>
      <trkpt lat="42.350801" lon="2.273772">
        <ele>1734.60</ele>
        <time>2014-11-21T11:12:51.94Z</time>
      </trkpt>
      <trkpt lat="42.350834" lon="2.273842">
        <ele>1735.00</ele>
        <time>2014-11-21T13:07:30.21Z</time>
      </trkpt>
      <trkpt lat="42.350915" lon="2.273976">
        <ele>1736.20</ele>
        <time>2014-11-21T17:06:31.24Z</time>
      </trkpt>
      <trkpt lat="42.350959" lon="2.274038">
        <ele>1736.60</ele>
        <time>2014-11-21T19:05:12.06Z</time>
      </trkpt>
      <trkpt lat="42.351066" lon="2.274141">
        <ele>1737.60</ele>
        <time>2014-11-21T23:10:31.54Z</time>
      </trkpt>
      <trkpt lat="42.351156" lon="2.274198">
        <ele>1738.40</ele>
        <time>2014-11-22T02:16:10.38Z</time>
      </trkpt>
      <trkpt lat="42.351188" lon="2.274210">
        <ele>1738.60</ele>
        <time>2014-11-22T03:18:12.58Z</time>
      </trkpt>
      <trkpt lat="42.351351" lon="2.274244">
        <ele>1739.40</ele>
        <time>2014-11-22T08:26:19.73Z</time>
      </trkpt>
      <trkpt lat="42.351383" lon="2.274247">
        <ele>1739.40</ele>
        <time>2014-11-22T09:26:15.33Z</time>
      </trkpt>
      <trkpt lat="42.351415" lon="2.274247">
        <ele>1739.80</ele>
        <time>2014-11-22T10:26:02.34Z</time>
      </trkpt>
      <trkpt lat="42.351569" lon="2.274235">
        <ele>1740.80</ele>
        <time>2014-11-22T15:14:13.42Z</time>
      </trkpt>
      <trkpt lat="42.351629" lon="2.274229">
        <ele>1741.40</ele>
        <time>2014-11-22T17:06:37.40Z</time>
      </trkpt>
      <trkpt lat="42.351659" lon="2.274226">
        <ele>1741.80</ele>
        <time>2014-11-22T18:02:49.39Z</time>
      </trkpt>
      <trkpt lat="42.351805" lon="2.274205">
        <ele>1743.20</ele>
        <time>2014-11-22T22:37:07.32Z</time>
      </trkpt>
      <trkpt lat="42.351836" lon="2.274195">
        <ele>1743.40</ele>
        <time>2014-11-22T23:36:39.61Z</time>
      </trkpt>
      <trkpt lat="42.351932" lon="2.274166">
        <ele>1744.20</ele>
        <time>2014-11-23T02:40:25.53Z</time>
      </trkpt>
      <trkpt lat="42.352055" lon="2.274139">
        <ele>1745.20</ele>
        <time>2014-11-23T06:33:13.34Z</time>
      </trkpt>
      <trkpt lat="42.352085" lon="2.274130">
        <ele>1745.40</ele>
        <time>2014-11-23T07:30:37.81Z</time>
      </trkpt>
      <trkpt lat="42.352205" lon="2.274084">
        <ele>1746.40</ele>
        <time>2014-11-23T11:23:38.43Z</time>
      </trkpt>
      <trkpt lat="42.352268" lon="2.274066">
        <ele>1747.00</ele>
        <time>2014-11-23T13:23:56.06Z</time>
      </trkpt>
      <trkpt lat="42.352331" lon="2.274048">
        <ele>1747.60</ele>
        <time>2014-11-23T15:24:13.69Z</time>
      </trkpt>
      <trkpt lat="42.352448" lon="2.274017">
        <ele>1748.60</ele>
        <time>2014-11-23T19:06:57.74Z</time>
      </trkpt>
      <trkpt lat="42.352539" lon="2.273993">
        <ele>1749.40</ele>
        <time>2014-11-23T22:00:10.24Z</time>
      </trkpt>
      <trkpt lat="42.352570" lon="2.273983">
        <ele>1749.80</ele>
        <time>2014-11-23T22:59:42.53Z</time>
      </trkpt>
      <trkpt lat="42.352718" lon="2.273931">
        <ele>1751.20</ele>
        <time>2014-11-24T03:45:22.56Z</time>
      </trkpt>
      <trkpt lat="42.352747" lon="2.273919">
        <ele>1751.40</ele>
        <time>2014-11-24T04:42:01.89Z</time>
      </trkpt>
      <trkpt lat="42.352854" lon="2.273855">
        <ele>1752.40</ele>
        <time>2014-11-24T08:20:35.44Z</time>
      </trkpt>
      <trkpt lat="42.352937" lon="2.273793">
        <ele>1753.40</ele>
        <time>2014-11-24T11:17:42.72Z</time>
      </trkpt>
      <trkpt lat="42.353040" lon="2.273705">
        <ele>1754.40</ele>
        <time>2014-11-24T15:05:17.16Z</time>
      </trkpt>
      <trkpt lat="42.353117" lon="2.273641">
        <ele>1755.00</ele>
        <time>2014-11-24T17:54:06.61Z</time>
      </trkpt>
      <trkpt lat="42.353193" lon="2.273575">
        <ele>1756.00</ele>
        <time>2014-11-24T20:42:49.23Z</time>
      </trkpt>
      <trkpt lat="42.353296" lon="2.273494">
        <ele>1757.00</ele>
        <time>2014-11-25T00:25:23.08Z</time>
      </trkpt>
      <trkpt lat="42.353342" lon="2.273450">
        <ele>1757.40</ele>
        <time>2014-11-25T02:10:37.57Z</time>
      </trkpt>
      <trkpt lat="42.353440" lon="2.273370">
        <ele>1758.60</ele>
        <time>2014-11-25T05:44:26.92Z</time>
      </trkpt>
      <trkpt lat="42.353490" lon="2.273329">
        <ele>1759.20</ele>
        <time>2014-11-25T07:33:40.39Z</time>
      </trkpt>
      <trkpt lat="42.353541" lon="2.273288">
        <ele>1759.60</ele>
        <time>2014-11-25T09:24:29.96Z</time>
      </trkpt>
      <trkpt lat="42.353664" lon="2.273192">
        <ele>1760.80</ele>
        <time>2014-11-25T13:49:46.55Z</time>
      </trkpt>
      <trkpt lat="42.353799" lon="2.273092">
        <ele>1762.20</ele>
        <time>2014-11-25T18:37:18.18Z</time>
      </trkpt>
      <trkpt lat="42.353901" lon="2.272994">
        <ele>1763.20</ele>
        <time>2014-11-25T22:31:00.65Z</time>
      </trkpt>
      <trkpt lat="42.354021" lon="2.272869">
        <ele>1764.40</ele>
        <time>2014-11-26T03:13:55.80Z</time>
      </trkpt>
      <trkpt lat="42.354122" lon="2.272773">
        <ele>1765.40</ele>
        <time>2014-11-26T07:04:31.12Z</time>
      </trkpt>
      <trkpt lat="42.354207" lon="2.272663">
        <ele>1766.40</ele>
        <time>2014-11-26T10:44:14.90Z</time>
      </trkpt>
      <trkpt lat="42.354254" lon="2.272596">
        <ele>1766.80</ele>
        <time>2014-11-26T12:51:47.32Z</time>
      </trkpt>
      <trkpt lat="42.354324" lon="2.272477">
        <ele>1767.60</ele>
        <time>2014-11-26T16:21:46.54Z</time>
      </trkpt>
      <trkpt lat="42.354363" lon="2.272401">
        <ele>1768.40</ele>
        <time>2014-11-26T18:29:31.12Z</time>
      </trkpt>
      <trkpt lat="42.354379" lon="2.272359">
        <ele>1768.60</ele>
        <time>2014-11-26T19:34:45.33Z</time>
      </trkpt>
      <trkpt lat="42.354441" lon="2.272216">
        <ele>1769.80</ele>
        <time>2014-11-26T23:23:39.20Z</time>
      </trkpt>
      <trkpt lat="42.354459" lon="2.272182">
        <ele>1770.20</ele>
        <time>2014-11-27T00:21:23.79Z</time>
      </trkpt>
      <trkpt lat="42.354525" lon="2.272041">
        <ele>1771.00</ele>
        <time>2014-11-27T04:11:49.65Z</time>
      </trkpt>
      <trkpt lat="42.354586" lon="2.271899">
        <ele>1772.00</ele>
        <time>2014-11-27T07:58:35.42Z</time>
      </trkpt>
      <trkpt lat="42.354599" lon="2.271865">
        <ele>1772.20</ele>
        <time>2014-11-27T08:51:26.51Z</time>
      </trkpt>
      <trkpt lat="42.354674" lon="2.271684">
        <ele>1773.40</ele>
        <time>2014-11-27T13:37:56.02Z</time>
      </trkpt>
      <trkpt lat="42.354689" lon="2.271646">
        <ele>1773.80</ele>
        <time>2014-11-27T14:37:24.72Z</time>
      </trkpt>
      <trkpt lat="42.354735" lon="2.271539">
        <ele>1774.60</ele>
        <time>2014-11-27T17:28:18.93Z</time>
      </trkpt>
      <trkpt lat="42.354777" lon="2.271435">
        <ele>1775.40</ele>
        <time>2014-11-27T20:11:56.37Z</time>
      </trkpt>
      <trkpt lat="42.354794" lon="2.271403">
        <ele>1775.60</ele>
        <time>2014-11-27T21:06:21Z</time>
      </trkpt>
      <trkpt lat="42.354811" lon="2.271375">
        <ele>1776.00</ele>
        <time>2014-11-27T21:56:22.83Z</time>
      </trkpt>
      <trkpt lat="42.354883" lon="2.271206">
        <ele>1777.00</ele>
        <time>2014-11-28T02:25:41.94Z</time>
      </trkpt>
      <trkpt lat="42.354948" lon="2.271077">
        <ele>1778.20</ele>
        <time>2014-11-28T06:01:15.40Z</time>
      </trkpt>
      <trkpt lat="42.355026" lon="2.270910">
        <ele>1779.20</ele>
        <time>2014-11-28T10:34:00.41Z</time>
      </trkpt>
      <trkpt lat="42.355041" lon="2.270875">
        <ele>1779.60</ele>
        <time>2014-11-28T11:29:51.95Z</time>
      </trkpt>
      <trkpt lat="42.355078" lon="2.270767">
        <ele>1780.40</ele>
        <time>2014-11-28T14:14:12.83Z</time>
      </trkpt>
      <trkpt lat="42.355122" lon="2.270667">
        <ele>1781.40</ele>
        <time>2014-11-28T16:54:53.55Z</time>
      </trkpt>
      <trkpt lat="42.355143" lon="2.270634">
        <ele>1781.60</ele>
        <time>2014-11-28T17:55:00.99Z</time>
      </trkpt>
      <trkpt lat="42.355192" lon="2.270519">
        <ele>1782.60</ele>
        <time>2014-11-28T20:58:17.12Z</time>
      </trkpt>
      <trkpt lat="42.355229" lon="2.270398">
        <ele>1783.20</ele>
        <time>2014-11-28T23:59:04.43Z</time>
      </trkpt>
      <trkpt lat="42.355239" lon="2.270269">
        <ele>1783.80</ele>
        <time>2014-11-29T02:58:08.83Z</time>
      </trkpt>
      <trkpt lat="42.355201" lon="2.270163">
        <ele>1784.80</ele>
        <time>2014-11-29T05:40:48.04Z</time>
      </trkpt>
      <trkpt lat="42.355177" lon="2.270137">
        <ele>1785.00</ele>
        <time>2014-11-29T06:38:14.20Z</time>
      </trkpt>
      <trkpt lat="42.355148" lon="2.270126">
        <ele>1785.20</ele>
        <time>2014-11-29T07:34:30.22Z</time>
      </trkpt>
      <trkpt lat="42.355087" lon="2.270116">
        <ele>1785.60</ele>
        <time>2014-11-29T09:29:17.94Z</time>
      </trkpt>
      <trkpt lat="42.355023" lon="2.270145">
        <ele>1786.00</ele>
        <time>2014-11-29T11:35:23.47Z</time>
      </trkpt>
      <trkpt lat="42.354938" lon="2.270212">
        <ele>1787.00</ele>
        <time>2014-11-29T14:39:10.04Z</time>
      </trkpt>
      <trkpt lat="42.354913" lon="2.270232">
        <ele>1787.20</ele>
        <time>2014-11-29T15:33:25.48Z</time>
      </trkpt>
      <trkpt lat="42.354833" lon="2.270300">
        <ele>1788.20</ele>
        <time>2014-11-29T18:29:55.35Z</time>
      </trkpt>
      <trkpt lat="42.354806" lon="2.270323">
        <ele>1788.40</ele>
        <time>2014-11-29T19:29:31.63Z</time>
      </trkpt>
      <trkpt lat="42.354780" lon="2.270346">
        <ele>1788.60</ele>
        <time>2014-11-29T20:27:33.57Z</time>
      </trkpt>
      <trkpt lat="42.354712" lon="2.270421">
        <ele>1789.40</ele>
        <time>2014-11-29T23:11:27.11Z</time>
      </trkpt>
      <trkpt lat="42.354639" lon="2.270496">
        <ele>1790.40</ele>
        <time>2014-11-30T02:02:41.21Z</time>
      </trkpt>
      <trkpt lat="42.354614" lon="2.270519">
        <ele>1790.60</ele>
        <time>2014-11-30T02:59:09.88Z</time>
      </trkpt>
      <trkpt lat="42.354484" lon="2.270614">
        <ele>1791.60</ele>
        <time>2014-11-30T07:35:11.22Z</time>
      </trkpt>
      <trkpt lat="42.354458" lon="2.270625">
        <ele>1792.00</ele>
        <time>2014-11-30T08:26:04.78Z</time>
      </trkpt>
      <trkpt lat="42.354404" lon="2.270653">
        <ele>1792.80</ele>
        <time>2014-11-30T10:14:07.03Z</time>
      </trkpt>
      <trkpt lat="42.354298" lon="2.270713">
        <ele>1793.80</ele>
        <time>2014-11-30T13:48:46.62Z</time>
      </trkpt>
      <trkpt lat="42.354272" lon="2.270731">
        <ele>1794.00</ele>
        <time>2014-11-30T14:43:20.34Z</time>
      </trkpt>
      <trkpt lat="42.354196" lon="2.270776">
        <ele>1794.80</ele>
        <time>2014-11-30T17:18:19.33Z</time>
      </trkpt>
      <trkpt lat="42.354115" lon="2.270818">
        <ele>1795.40</ele>
        <time>2014-11-30T20:00:22.70Z</time>
      </trkpt>
      <trkpt lat="42.354060" lon="2.270842">
        <ele>1796.00</ele>
        <time>2014-11-30T21:48:20.49Z</time>
      </trkpt>
      <trkpt lat="42.353961" lon="2.270907">
        <ele>1796.80</ele>
        <time>2014-12-01T01:13:55.08Z</time>
      </trkpt>
      <trkpt lat="42.353937" lon="2.270929">
        <ele>1797.00</ele>
        <time>2014-12-01T02:08:04.49Z</time>
      </trkpt>
      <trkpt lat="42.353859" lon="2.270993">
        <ele>1798.20</ele>
        <time>2014-12-01T04:58:29.59Z</time>
      </trkpt>
      <trkpt lat="42.353735" lon="2.271097">
        <ele>1799.20</ele>
        <time>2014-12-01T09:31:02.58Z</time>
      </trkpt>
      <trkpt lat="42.353644" lon="2.271177">
        <ele>1800.20</ele>
        <time>2014-12-01T12:53:46.80Z</time>
      </trkpt>
      <trkpt lat="42.353578" lon="2.271240">
        <ele>1801.00</ele>
        <time>2014-12-01T15:24:40.48Z</time>
      </trkpt>
      <trkpt lat="42.353532" lon="2.271278">
        <ele>1801.40</ele>
        <time>2014-12-01T17:05:21.71Z</time>
      </trkpt>
      <trkpt lat="42.353440" lon="2.271359">
        <ele>1802.60</ele>
        <time>2014-12-01T20:30:25.08Z</time>
      </trkpt>
      <trkpt lat="42.353420" lon="2.271381">
        <ele>1802.80</ele>
        <time>2014-12-01T21:18:34.25Z</time>
      </trkpt>
      <trkpt lat="42.353327" lon="2.271468">
        <ele>1803.60</ele>
        <time>2014-12-02T00:49:47.63Z</time>
      </trkpt>
      <trkpt lat="42.353254" lon="2.271519">
        <ele>1804.20</ele>
        <time>2014-12-02T03:23:16.74Z</time>
      </trkpt>
      <trkpt lat="42.353183" lon="2.271565">
        <ele>1804.80</ele>
        <time>2014-12-02T05:50:20.62Z</time>
      </trkpt>
      <trkpt lat="42.353108" lon="2.271610">
        <ele>1805.80</ele>
        <time>2014-12-02T08:23:37.05Z</time>
      </trkpt>
      <trkpt lat="42.353059" lon="2.271642">
        <ele>1806.20</ele>
        <time>2014-12-02T10:05:15.87Z</time>
      </trkpt>
      <trkpt lat="42.352980" lon="2.271668">
        <ele>1807.00</ele>
        <time>2014-12-02T12:37:09.45Z</time>
      </trkpt>
      <trkpt lat="42.352932" lon="2.271691">
        <ele>1807.40</ele>
        <time>2014-12-02T14:12:17.34Z</time>
      </trkpt>
      <trkpt lat="42.352853" lon="2.271715">
        <ele>1808.00</ele>
        <time>2014-12-02T16:43:33.20Z</time>
      </trkpt>
      <trkpt lat="42.352808" lon="2.271750">
        <ele>1808.20</ele>
        <time>2014-12-02T18:20:31.32Z</time>
      </trkpt>
      <trkpt lat="42.352754" lon="2.271764">
        <ele>1809.20</ele>
        <time>2014-12-02T20:03:14.50Z</time>
      </trkpt>
      <trkpt lat="42.352642" lon="2.271777">
        <ele>1810.00</ele>
        <time>2014-12-02T23:33:15.13Z</time>
      </trkpt>
      <trkpt lat="42.352616" lon="2.271777">
        <ele>1810.40</ele>
        <time>2014-12-03T00:21:49.57Z</time>
      </trkpt>
      <trkpt lat="42.352506" lon="2.271782">
        <ele>1811.40</ele>
        <time>2014-12-03T03:47:26.87Z</time>
      </trkpt>
      <trkpt lat="42.352480" lon="2.271787">
        <ele>1811.60</ele>
        <time>2014-12-03T04:36:30.60Z</time>
      </trkpt>
      <trkpt lat="42.352346" lon="2.271800">
        <ele>1812.60</ele>
        <time>2014-12-03T08:47:29.75Z</time>
      </trkpt>
      <trkpt lat="42.352318" lon="2.271797">
        <ele>1813.00</ele>
        <time>2014-12-03T09:39:58.21Z</time>
      </trkpt>
      <trkpt lat="42.352262" lon="2.271790">
        <ele>1813.60</ele>
        <time>2014-12-03T11:25:02.20Z</time>
      </trkpt>
      <trkpt lat="42.352234" lon="2.271789">
        <ele>1813.80</ele>
        <time>2014-12-03T12:17:21.92Z</time>
      </trkpt>
      <trkpt lat="42.352129" lon="2.271768">
        <ele>1815.00</ele>
        <time>2014-12-03T15:35:39.66Z</time>
      </trkpt>
      <trkpt lat="42.352102" lon="2.271754">
        <ele>1815.20</ele>
        <time>2014-12-03T16:29:40.80Z</time>
      </trkpt>
      <trkpt lat="42.352004" lon="2.271675">
        <ele>1816.00</ele>
        <time>2014-12-03T20:02:47.63Z</time>
      </trkpt>
      <trkpt lat="42.351967" lon="2.271615">
        <ele>1817.00</ele>
        <time>2014-12-03T21:50:41.14Z</time>
      </trkpt>
      <trkpt lat="42.351958" lon="2.271579">
        <ele>1817.20</ele>
        <time>2014-12-03T22:43:09.39Z</time>
      </trkpt>
      <trkpt lat="42.351935" lon="2.271428">
        <ele>1818.00</ele>
        <time>2014-12-04T02:16:01.12Z</time>
      </trkpt>
      <trkpt lat="42.351922" lon="2.271310">
        <ele>1818.40</ele>
        <time>2014-12-04T05:00:44.24Z</time>
      </trkpt>
      <trkpt lat="42.351925" lon="2.271155">
        <ele>1819.60</ele>
        <time>2014-12-04T08:34:48.81Z</time>
      </trkpt>
      <trkpt lat="42.351913" lon="2.270961">
        <ele>1820.60</ele>
        <time>2014-12-04T13:03:35.93Z</time>
      </trkpt>
      <trkpt lat="42.351912" lon="2.270920">
        <ele>1820.80</ele>
        <time>2014-12-04T14:00:14.22Z</time>
      </trkpt>
      <trkpt lat="42.351901" lon="2.270762">
        <ele>1821.80</ele>
        <time>2014-12-04T17:39:20.86Z</time>
      </trkpt>
      <trkpt lat="42.351899" lon="2.270653">
        <ele>1822.60</ele>
        <time>2014-12-04T20:09:53.19Z</time>
      </trkpt>
      <trkpt lat="42.351895" lon="2.270617">
        <ele>1823.20</ele>
        <time>2014-12-04T21:00:08.94Z</time>
      </trkpt>
      <trkpt lat="42.351868" lon="2.270397">
        <ele>1824.40</ele>
        <time>2014-12-05T02:08:03.31Z</time>
      </trkpt>
      <trkpt lat="42.351856" lon="2.270203">
        <ele>1825.80</ele>
        <time>2014-12-05T06:36:50.44Z</time>
      </trkpt>
      <trkpt lat="42.351849" lon="2.270079">
        <ele>1826.60</ele>
        <time>2014-12-05T09:28:32.51Z</time>
      </trkpt>
      <trkpt lat="42.351847" lon="2.270042">
        <ele>1826.80</ele>
        <time>2014-12-05T10:19:45.78Z</time>
      </trkpt>
      <trkpt lat="42.351827" lon="2.269893">
        <ele>1828.20</ele>
        <time>2014-12-05T13:48:50.87Z</time>
      </trkpt>
      <trkpt lat="42.351819" lon="2.269818">
        <ele>1828.80</ele>
        <time>2014-12-05T15:33:28.25Z</time>
      </trkpt>
      <trkpt lat="42.351810" lon="2.269741">
        <ele>1829.20</ele>
        <time>2014-12-05T17:21:06.21Z</time>
      </trkpt>
      <trkpt lat="42.351786" lon="2.269628">
        <ele>1830.20</ele>
        <time>2014-12-05T20:03:26.04Z</time>
      </trkpt>
      <trkpt lat="42.351771" lon="2.269552">
        <ele>1830.60</ele>
        <time>2014-12-05T21:52:02.54Z</time>
      </trkpt>
      <trkpt lat="42.351744" lon="2.269396">
        <ele>1831.40</ele>
        <time>2014-12-06T01:33:15.26Z</time>
      </trkpt>
      <trkpt lat="42.351705" lon="2.269248">
        <ele>1832.40</ele>
        <time>2014-12-06T05:10:11.68Z</time>
      </trkpt>
      <trkpt lat="42.351697" lon="2.269210">
        <ele>1832.60</ele>
        <time>2014-12-06T06:04:44.84Z</time>
      </trkpt>
      <trkpt lat="42.351651" lon="2.269028">
        <ele>1833.80</ele>
        <time>2014-12-06T10:30:19.10Z</time>
      </trkpt>
      <trkpt lat="42.351616" lon="2.268967">
        <ele>1834.60</ele>
        <time>2014-12-06T12:16:56.57Z</time>
      </trkpt>
      <trkpt lat="42.351600" lon="2.268934">
        <ele>1835.00</ele>
        <time>2014-12-06T13:11:26.11Z</time>
      </trkpt>
      <trkpt lat="42.351512" lon="2.268724">
        <ele>1836.20</ele>
        <time>2014-12-06T18:44:44.63Z</time>
      </trkpt>
      <trkpt lat="42.351452" lon="2.268588">
        <ele>1837.40</ele>
        <time>2014-12-06T22:23:25.74Z</time>
      </trkpt>
      <trkpt lat="42.351401" lon="2.268504">
        <ele>1838.20</ele>
        <time>2014-12-07T00:53:31.51Z</time>
      </trkpt>
      <trkpt lat="42.351385" lon="2.268474">
        <ele>1838.40</ele>
        <time>2014-12-07T01:44:36.30Z</time>
      </trkpt>
      <trkpt lat="42.351306" lon="2.268345">
        <ele>1839.80</ele>
        <time>2014-12-07T05:35:55.01Z</time>
      </trkpt>
      <trkpt lat="42.351201" lon="2.268139">
        <ele>1841.00</ele>
        <time>2014-12-07T11:21:25.43Z</time>
      </trkpt>
      <trkpt lat="42.351156" lon="2.268057">
        <ele>1842.20</ele>
        <time>2014-12-07T13:42:26.42Z</time>
      </trkpt>
      <trkpt lat="42.351089" lon="2.267904">
        <ele>1843.60</ele>
        <time>2014-12-07T17:47:59.08Z</time>
      </trkpt>
      <trkpt lat="42.351073" lon="2.267870">
        <ele>1843.60</ele>
        <time>2014-12-07T18:43:38.22Z</time>
      </trkpt>
      <trkpt lat="42.351004" lon="2.267718">
        <ele>1844.80</ele>
        <time>2014-12-07T22:49:55.79Z</time>
      </trkpt>
      <trkpt lat="42.350988" lon="2.267689">
        <ele>1844.80</ele>
        <time>2014-12-07T23:39:53.81Z</time>
      </trkpt>
      <trkpt lat="42.350923" lon="2.267576">
        <ele>1845.80</ele>
        <time>2014-12-08T02:57:36.21Z</time>
      </trkpt>
      <trkpt lat="42.350860" lon="2.267467">
        <ele>1846.80</ele>
        <time>2014-12-08T06:08:39.46Z</time>
      </trkpt>
      <trkpt lat="42.350829" lon="2.267376">
        <ele>1848.00</ele>
        <time>2014-12-08T08:27:00.35Z</time>
      </trkpt>
      <trkpt lat="42.350800" lon="2.267281">
        <ele>1848.80</ele>
        <time>2014-12-08T10:48:55.21Z</time>
      </trkpt>
      <trkpt lat="42.350778" lon="2.267221">
        <ele>1849.20</ele>
        <time>2014-12-08T12:21:23.83Z</time>
      </trkpt>
      <trkpt lat="42.350741" lon="2.267099">
        <ele>1849.60</ele>
        <time>2014-12-08T15:23:28.38Z</time>
      </trkpt>
      <trkpt lat="42.350706" lon="2.267019">
        <ele>1850.40</ele>
        <time>2014-12-08T17:31:49.90Z</time>
      </trkpt>
      <trkpt lat="42.350680" lon="2.266932">
        <ele>1851.20</ele>
        <time>2014-12-08T19:41:24.08Z</time>
      </trkpt>
      <trkpt lat="42.350657" lon="2.266883">
        <ele>1851.60</ele>
        <time>2014-12-08T21:01:32.85Z</time>
      </trkpt>
      <trkpt lat="42.350598" lon="2.266722">
        <ele>1852.40</ele>
        <time>2014-12-09T01:09:40.01Z</time>
      </trkpt>
      <trkpt lat="42.350586" lon="2.266689">
        <ele>1852.80</ele>
        <time>2014-12-09T02:00:26.79Z</time>
      </trkpt>
      <trkpt lat="42.350528" lon="2.266516">
        <ele>1854.00</ele>
        <time>2014-12-09T06:22:44.12Z</time>
      </trkpt>
      <trkpt lat="42.350460" lon="2.266350">
        <ele>1855.20</ele>
        <time>2014-12-09T10:44:47.06Z</time>
      </trkpt>
      <trkpt lat="42.350397" lon="2.266186">
        <ele>1856.20</ele>
        <time>2014-12-09T14:59:58.87Z</time>
      </trkpt>
      <trkpt lat="42.350344" lon="2.266054">
        <ele>1857.40</ele>
        <time>2014-12-09T18:27:23.63Z</time>
      </trkpt>
      <trkpt lat="42.350333" lon="2.266020">
        <ele>1857.60</ele>
        <time>2014-12-09T19:18:38.33Z</time>
      </trkpt>
      <trkpt lat="42.350298" lon="2.265927">
        <ele>1858.60</ele>
        <time>2014-12-09T21:42:44.05Z</time>
      </trkpt>
      <trkpt lat="42.350240" lon="2.265769">
        <ele>1859.60</ele>
        <time>2014-12-10T01:46:18.82Z</time>
      </trkpt>
      <trkpt lat="42.350226" lon="2.265736">
        <ele>1859.80</ele>
        <time>2014-12-10T02:38:51.02Z</time>
      </trkpt>
      <trkpt lat="42.350188" lon="2.265601">
        <ele>1861.00</ele>
        <time>2014-12-10T05:58:18.42Z</time>
      </trkpt>
      <trkpt lat="42.350164" lon="2.265497">
        <ele>1861.80</ele>
        <time>2014-12-10T08:28:44.26Z</time>
      </trkpt>
      <trkpt lat="42.350151" lon="2.265425">
        <ele>1862.00</ele>
        <time>2014-12-10T10:11:04.32Z</time>
      </trkpt>
      <trkpt lat="42.350135" lon="2.265319">
        <ele>1863.20</ele>
        <time>2014-12-10T12:40:26.87Z</time>
      </trkpt>
      <trkpt lat="42.350121" lon="2.265205">
        <ele>1863.60</ele>
        <time>2014-12-10T15:20:00.38Z</time>
      </trkpt>
      <trkpt lat="42.350134" lon="2.265061">
        <ele>1864.60</ele>
        <time>2014-12-10T18:40:18.33Z</time>
      </trkpt>
      <trkpt lat="42.350136" lon="2.264987">
        <ele>1865.00</ele>
        <time>2014-12-10T20:22:32.74Z</time>
      </trkpt>
      <trkpt lat="42.350143" lon="2.264915">
        <ele>1865.60</ele>
        <time>2014-12-10T22:02:48.77Z</time>
      </trkpt>
      <trkpt lat="42.350166" lon="2.264742">
        <ele>1866.80</ele>
        <time>2014-12-11T02:05:30.51Z</time>
      </trkpt>
      <trkpt lat="42.350181" lon="2.264598">
        <ele>1867.60</ele>
        <time>2014-12-11T05:26:17.69Z</time>
      </trkpt>
      <trkpt lat="42.350181" lon="2.264563">
        <ele>1867.80</ele>
        <time>2014-12-11T06:14:37.16Z</time>
      </trkpt>
      <trkpt lat="42.350183" lon="2.264528">
        <ele>1868.20</ele>
        <time>2014-12-11T07:03:05.29Z</time>
      </trkpt>
      <trkpt lat="42.350181" lon="2.264459">
        <ele>1869.00</ele>
        <time>2014-12-11T08:38:25.79Z</time>
      </trkpt>
      <trkpt lat="42.350196" lon="2.264325">
        <ele>1870.00</ele>
        <time>2014-12-11T11:45:33.25Z</time>
      </trkpt>
      <trkpt lat="42.350220" lon="2.264190">
        <ele>1871.20</ele>
        <time>2014-12-11T14:57:15.95Z</time>
      </trkpt>
      <trkpt lat="42.350228" lon="2.264087">
        <ele>1872.20</ele>
        <time>2014-12-11T17:20:15.68Z</time>
      </trkpt>
      <trkpt lat="42.350253" lon="2.263916">
        <ele>1873.20</ele>
        <time>2014-12-11T21:20:56.19Z</time>
      </trkpt>
      <trkpt lat="42.350272" lon="2.263818">
        <ele>1873.80</ele>
        <time>2014-12-11T23:40:49.42Z</time>
      </trkpt>
      <trkpt lat="42.350281" lon="2.263758">
        <ele>1874.40</ele>
        <time>2014-12-12T01:05:21.28Z</time>
      </trkpt>
      <trkpt lat="42.350314" lon="2.263641">
        <ele>1875.40</ele>
        <time>2014-12-12T03:58:15.68Z</time>
      </trkpt>
      <trkpt lat="42.350320" lon="2.263610">
        <ele>1875.60</ele>
        <time>2014-12-12T04:42:30.39Z</time>
      </trkpt>
      <trkpt lat="42.350340" lon="2.263483">
        <ele>1876.60</ele>
        <time>2014-12-12T07:41:47.52Z</time>
      </trkpt>
      <trkpt lat="42.350336" lon="2.263353">
        <ele>1877.60</ele>
        <time>2014-12-12T10:41:26.29Z</time>
      </trkpt>
      <trkpt lat="42.350334" lon="2.263318">
        <ele>1878.00</ele>
        <time>2014-12-12T11:29:54.41Z</time>
      </trkpt>
      <trkpt lat="42.350336" lon="2.263174">
        <ele>1879.00</ele>
        <time>2014-12-12T14:48:45.76Z</time>
      </trkpt>
      <trkpt lat="42.350329" lon="2.263064">
        <ele>1880.00</ele>
        <time>2014-12-12T17:21:12.09Z</time>
      </trkpt>
      <trkpt lat="42.350324" lon="2.263028">
        <ele>1880.20</ele>
        <time>2014-12-12T18:11:46.60Z</time>
      </trkpt>
      <trkpt lat="42.350299" lon="2.262826">
        <ele>1881.60</ele>
        <time>2014-12-12T22:54:33.70Z</time>
      </trkpt>
      <trkpt lat="42.350285" lon="2.262693">
        <ele>1882.80</ele>
        <time>2014-12-13T02:00:02.88Z</time>
      </trkpt>
      <trkpt lat="42.350272" lon="2.262600">
        <ele>1883.80</ele>
        <time>2014-12-13T04:10:43.78Z</time>
      </trkpt>
      <trkpt lat="42.350271" lon="2.262536">
        <ele>1884.20</ele>
        <time>2014-12-13T05:39:06.86Z</time>
      </trkpt>
      <trkpt lat="42.350273" lon="2.262435">
        <ele>1884.80</ele>
        <time>2014-12-13T07:58:36.90Z</time>
      </trkpt>
      <trkpt lat="42.350273" lon="2.262308">
        <ele>1886.00</ele>
        <time>2014-12-13T10:53:57.83Z</time>
      </trkpt>
      <trkpt lat="42.350275" lon="2.262140">
        <ele>1887.20</ele>
        <time>2014-12-13T14:45:57.09Z</time>
      </trkpt>
      <trkpt lat="42.350278" lon="2.262103">
        <ele>1887.20</ele>
        <time>2014-12-13T15:37:20.64Z</time>
      </trkpt>
      <trkpt lat="42.350280" lon="2.261953">
        <ele>1888.20</ele>
        <time>2014-12-13T19:04:28.96Z</time>
      </trkpt>
      <trkpt lat="42.350287" lon="2.261883">
        <ele>1888.80</ele>
        <time>2014-12-13T20:42:00.74Z</time>
      </trkpt>
      <trkpt lat="42.350289" lon="2.261846">
        <ele>1889.20</ele>
        <time>2014-12-13T21:33:14.08Z</time>
      </trkpt>
      <trkpt lat="42.350290" lon="2.261809">
        <ele>1889.60</ele>
        <time>2014-12-13T22:24:21.28Z</time>
      </trkpt>
      <trkpt lat="42.350287" lon="2.261661">
        <ele>1890.60</ele>
        <time>2014-12-14T01:48:46.50Z</time>
      </trkpt>
      <trkpt lat="42.350270" lon="2.261488">
        <ele>1891.80</ele>
        <time>2014-12-14T05:49:44.30Z</time>
      </trkpt>
      <trkpt lat="42.350248" lon="2.261325">
        <ele>1892.80</ele>
        <time>2014-12-14T09:38:30.89Z</time>
      </trkpt>
      <trkpt lat="42.350235" lon="2.261230">
        <ele>1893.80</ele>
        <time>2014-12-14T11:51:54.65Z</time>
      </trkpt>
      <trkpt lat="42.350230" lon="2.261198">
        <ele>1894.00</ele>
        <time>2014-12-14T12:37:04.20Z</time>
      </trkpt>
      <trkpt lat="42.350212" lon="2.261064">
        <ele>1895.00</ele>
        <time>2014-12-14T15:45:06.91Z</time>
      </trkpt>
      <trkpt lat="42.350193" lon="2.260924">
        <ele>1896.20</ele>
        <time>2014-12-14T19:01:38.73Z</time>
      </trkpt>
      <trkpt lat="42.350188" lon="2.260890">
        <ele>1896.40</ele>
        <time>2014-12-14T19:49:30.59Z</time>
      </trkpt>
      <trkpt lat="42.350173" lon="2.260759">
        <ele>1897.20</ele>
        <time>2014-12-14T22:52:32.39Z</time>
      </trkpt>
      <trkpt lat="42.350168" lon="2.260661">
        <ele>1898.20</ele>
        <time>2014-12-15T01:08:10.24Z</time>
      </trkpt>
      <trkpt lat="42.350168" lon="2.260628">
        <ele>1898.40</ele>
        <time>2014-12-15T01:53:44.03Z</time>
      </trkpt>
      <trkpt lat="42.350182" lon="2.260470">
        <ele>1899.40</ele>
        <time>2014-12-15T05:33:26.82Z</time>
      </trkpt>
      <trkpt lat="42.350180" lon="2.260439">
        <ele>1899.60</ele>
        <time>2014-12-15T06:16:24.70Z</time>
      </trkpt>
      <trkpt lat="42.350171" lon="2.260342">
        <ele>1900.40</ele>
        <time>2014-12-15T08:31:23.46Z</time>
      </trkpt>
      <trkpt lat="42.350173" lon="2.260249">
        <ele>1901.20</ele>
        <time>2014-12-15T10:39:51.04Z</time>
      </trkpt>
      <trkpt lat="42.350175" lon="2.260217">
        <ele>1901.80</ele>
        <time>2014-12-15T11:24:11.45Z</time>
      </trkpt>
      <trkpt lat="42.350183" lon="2.260050">
        <ele>1902.60</ele>
        <time>2014-12-15T15:15:15.12Z</time>
      </trkpt>
      <trkpt lat="42.350183" lon="2.260018">
        <ele>1903.00</ele>
        <time>2014-12-15T15:59:26.06Z</time>
      </trkpt>
      <trkpt lat="42.350165" lon="2.259894">
        <ele>1904.00</ele>
        <time>2014-12-15T18:53:54.77Z</time>
      </trkpt>
      <trkpt lat="42.350166" lon="2.259828">
        <ele>1904.40</ele>
        <time>2014-12-15T20:25:03.50Z</time>
      </trkpt>
      <trkpt lat="42.350152" lon="2.259735">
        <ele>1905.40</ele>
        <time>2014-12-15T22:36:06.02Z</time>
      </trkpt>
      <trkpt lat="42.350154" lon="2.259638">
        <ele>1905.80</ele>
        <time>2014-12-16T00:50:04.83Z</time>
      </trkpt>
      <trkpt lat="42.350163" lon="2.259571">
        <ele>1906.60</ele>
        <time>2014-12-16T02:24:06.20Z</time>
      </trkpt>
      <trkpt lat="42.350165" lon="2.259475">
        <ele>1907.20</ele>
        <time>2014-12-16T04:36:42.20Z</time>
      </trkpt>
      <trkpt lat="42.350165" lon="2.259442">
        <ele>1907.80</ele>
        <time>2014-12-16T05:22:15.99Z</time>
      </trkpt>
      <trkpt lat="42.350166" lon="2.259408">
        <ele>1908.00</ele>
        <time>2014-12-16T06:09:14.85Z</time>
      </trkpt>
      <trkpt lat="42.350170" lon="2.259275">
        <ele>1908.80</ele>
        <time>2014-12-16T09:13:01.98Z</time>
      </trkpt>
      <trkpt lat="42.350185" lon="2.259147">
        <ele>1910.00</ele>
        <time>2014-12-16T12:11:58.25Z</time>
      </trkpt>
      <trkpt lat="42.350184" lon="2.258952">
        <ele>1911.20</ele>
        <time>2014-12-16T16:41:12.85Z</time>
      </trkpt>
      <trkpt lat="42.350188" lon="2.258888">
        <ele>1911.60</ele>
        <time>2014-12-16T18:09:53.67Z</time>
      </trkpt>
      <trkpt lat="42.350206" lon="2.258825">
        <ele>1912.20</ele>
        <time>2014-12-16T19:43:09.16Z</time>
      </trkpt>
      <trkpt lat="42.350224" lon="2.258697">
        <ele>1913.20</ele>
        <time>2014-12-16T22:43:03.20Z</time>
      </trkpt>
      <trkpt lat="42.350229" lon="2.258668">
        <ele>1913.60</ele>
        <time>2014-12-16T23:24:10.13Z</time>
      </trkpt>
      <trkpt lat="42.350245" lon="2.258543">
        <ele>1914.60</ele>
        <time>2014-12-17T02:19:19.56Z</time>
      </trkpt>
      <trkpt lat="42.350254" lon="2.258510">
        <ele>1914.80</ele>
        <time>2014-12-17T03:07:53.55Z</time>
      </trkpt>
      <trkpt lat="42.350290" lon="2.258422">
        <ele>1915.60</ele>
        <time>2014-12-17T05:26:46Z</time>
      </trkpt>
      <trkpt lat="42.350351" lon="2.258321">
        <ele>1916.40</ele>
        <time>2014-12-17T08:26:51.65Z</time>
      </trkpt>
      <trkpt lat="42.350361" lon="2.258291">
        <ele>1916.60</ele>
        <time>2014-12-17T09:12:18Z</time>
      </trkpt>
      <trkpt lat="42.350403" lon="2.258171">
        <ele>1917.80</ele>
        <time>2014-12-17T12:15:37.48Z</time>
      </trkpt>
      <trkpt lat="42.350417" lon="2.258143">
        <ele>1918.00</ele>
        <time>2014-12-17T13:02:18.05Z</time>
      </trkpt>
      <trkpt lat="42.350462" lon="2.258035">
        <ele>1918.80</ele>
        <time>2014-12-17T15:53:28.95Z</time>
      </trkpt>
      <trkpt lat="42.350502" lon="2.257912">
        <ele>1920.20</ele>
        <time>2014-12-17T18:59:01.37Z</time>
      </trkpt>
      <trkpt lat="42.350557" lon="2.257775">
        <ele>1921.40</ele>
        <time>2014-12-17T22:34:17.10Z</time>
      </trkpt>
      <trkpt lat="42.350575" lon="2.257719">
        <ele>1921.80</ele>
        <time>2014-12-17T23:58:36.01Z</time>
      </trkpt>
      <trkpt lat="42.350605" lon="2.257633">
        <ele>1922.40</ele>
        <time>2014-12-18T02:09:54.16Z</time>
      </trkpt>
      <trkpt lat="42.350666" lon="2.257493">
        <ele>1923.40</ele>
        <time>2014-12-18T05:54:17.59Z</time>
      </trkpt>
      <trkpt lat="42.350719" lon="2.257348">
        <ele>1924.60</ele>
        <time>2014-12-18T09:37:38.47Z</time>
      </trkpt>
      <trkpt lat="42.350758" lon="2.257264">
        <ele>1925.20</ele>
        <time>2014-12-18T11:54:36.42Z</time>
      </trkpt>
      <trkpt lat="42.350785" lon="2.257208">
        <ele>1925.80</ele>
        <time>2014-12-18T13:26:55.49Z</time>
      </trkpt>
      <trkpt lat="42.350842" lon="2.257060">
        <ele>1927.00</ele>
        <time>2014-12-18T17:17:20.97Z</time>
      </trkpt>
      <trkpt lat="42.350873" lon="2.256975">
        <ele>1927.80</ele>
        <time>2014-12-18T19:28:13.22Z</time>
      </trkpt>
      <trkpt lat="42.350881" lon="2.256946">
        <ele>1928.00</ele>
        <time>2014-12-18T20:10:57.52Z</time>
      </trkpt>
      <trkpt lat="42.350922" lon="2.256825">
        <ele>1929.00</ele>
        <time>2014-12-18T23:14:44.67Z</time>
      </trkpt>
      <trkpt lat="42.350935" lon="2.256796">
        <ele>1929.20</ele>
        <time>2014-12-19T00:01:34.48Z</time>
      </trkpt>
      <trkpt lat="42.350976" lon="2.256667">
        <ele>1930.20</ele>
        <time>2014-12-19T03:15:27.32Z</time>
      </trkpt>
      <trkpt lat="42.351002" lon="2.256572">
        <ele>1931.20</ele>
        <time>2014-12-19T05:35:19.54Z</time>
      </trkpt>
      <trkpt lat="42.351034" lon="2.256440">
        <ele>1932.40</ele>
        <time>2014-12-19T08:47:07.85Z</time>
      </trkpt>
      <trkpt lat="42.351056" lon="2.256308">
        <ele>1933.40</ele>
        <time>2014-12-19T11:53:57.48Z</time>
      </trkpt>
      <trkpt lat="42.351061" lon="2.256275">
        <ele>1933.60</ele>
        <time>2014-12-19T12:40:28.10Z</time>
      </trkpt>
      <trkpt lat="42.351075" lon="2.256176">
        <ele>1934.40</ele>
        <time>2014-12-19T14:59:38.14Z</time>
      </trkpt>
      <trkpt lat="42.351105" lon="2.256002">
        <ele>1935.60</ele>
        <time>2014-12-19T19:06:19.53Z</time>
      </trkpt>
      <trkpt lat="42.351109" lon="2.255966">
        <ele>1936.00</ele>
        <time>2014-12-19T19:56:35.32Z</time>
      </trkpt>
      <trkpt lat="42.351121" lon="2.255864">
        <ele>1936.60</ele>
        <time>2014-12-19T22:19:11.49Z</time>
      </trkpt>
      <trkpt lat="42.351137" lon="2.255764">
        <ele>1938.00</ele>
        <time>2014-12-20T00:40:27.50Z</time>
      </trkpt>
      <trkpt lat="42.351148" lon="2.255698">
        <ele>1938.40</ele>
        <time>2014-12-20T02:13:52.31Z</time>
      </trkpt>
      <trkpt lat="42.351162" lon="2.255600">
        <ele>1939.20</ele>
        <time>2014-12-20T04:31:40.99Z</time>
      </trkpt>
      <trkpt lat="42.351184" lon="2.255441">
        <ele>1940.40</ele>
        <time>2014-12-20T08:15:01.55Z</time>
      </trkpt>
      <trkpt lat="42.351220" lon="2.255281">
        <ele>1941.60</ele>
        <time>2014-12-20T12:05:56.75Z</time>
      </trkpt>
      <trkpt lat="42.351225" lon="2.255250">
        <ele>1941.80</ele>
        <time>2014-12-20T12:49:45.26Z</time>
      </trkpt>
      <trkpt lat="42.351252" lon="2.255125">
        <ele>1942.60</ele>
        <time>2014-12-20T15:49:33.58Z</time>
      </trkpt>
      <trkpt lat="42.351281" lon="2.254994">
        <ele>1943.60</ele>
        <time>2014-12-20T18:58:22.13Z</time>
      </trkpt>
      <trkpt lat="42.351286" lon="2.254959">
        <ele>1944.20</ele>
        <time>2014-12-20T19:47:35.22Z</time>
      </trkpt>
      <trkpt lat="42.351303" lon="2.254815">
        <ele>1945.20</ele>
        <time>2014-12-20T23:08:55.52Z</time>
      </trkpt>
      <trkpt lat="42.351316" lon="2.254749">
        <ele>1945.80</ele>
        <time>2014-12-21T00:43:13.86Z</time>
      </trkpt>
      <trkpt lat="42.351330" lon="2.254686">
        <ele>1946.20</ele>
        <time>2014-12-21T02:14:03.66Z</time>
      </trkpt>
      <trkpt lat="42.351365" lon="2.254521">
        <ele>1947.40</ele>
        <time>2014-12-21T06:11:04.26Z</time>
      </trkpt>
      <trkpt lat="42.351381" lon="2.254463">
        <ele>1947.80</ele>
        <time>2014-12-21T07:36:32.83Z</time>
      </trkpt>
      <trkpt lat="42.351383" lon="2.254364">
        <ele>1948.40</ele>
        <time>2014-12-21T09:53:17.11Z</time>
      </trkpt>
      <trkpt lat="42.351393" lon="2.254300">
        <ele>1949.00</ele>
        <time>2014-12-21T11:23:36.11Z</time>
      </trkpt>
      <trkpt lat="42.351407" lon="2.254233">
        <ele>1949.40</ele>
        <time>2014-12-21T12:59:44.01Z</time>
      </trkpt>
      <trkpt lat="42.351429" lon="2.254098">
        <ele>1950.40</ele>
        <time>2014-12-21T16:10:36.15Z</time>
      </trkpt>
      <trkpt lat="42.351432" lon="2.254063">
        <ele>1950.60</ele>
        <time>2014-12-21T16:59:15Z</time>
      </trkpt>
      <trkpt lat="42.351448" lon="2.253925">
        <ele>1951.60</ele>
        <time>2014-12-21T20:12:06.81Z</time>
      </trkpt>
      <trkpt lat="42.351446" lon="2.253855">
        <ele>1952.20</ele>
        <time>2014-12-21T21:48:49.97Z</time>
      </trkpt>
      <trkpt lat="42.351449" lon="2.253786">
        <ele>1952.80</ele>
        <time>2014-12-21T23:24:15.85Z</time>
      </trkpt>
      <trkpt lat="42.351447" lon="2.253605">
        <ele>1953.80</ele>
        <time>2014-12-22T03:34:11.64Z</time>
      </trkpt>
      <trkpt lat="42.351440" lon="2.253535">
        <ele>1954.20</ele>
        <time>2014-12-22T05:11:43.32Z</time>
      </trkpt>
      <trkpt lat="42.351421" lon="2.253436">
        <ele>1955.00</ele>
        <time>2014-12-22T07:32:56.56Z</time>
      </trkpt>
      <trkpt lat="42.351414" lon="2.253339">
        <ele>1956.00</ele>
        <time>2014-12-22T09:47:30.31Z</time>
      </trkpt>
      <trkpt lat="42.351409" lon="2.253309">
        <ele>1956.20</ele>
        <time>2014-12-22T10:29:57.94Z</time>
      </trkpt>
      <trkpt lat="42.351384" lon="2.253187">
        <ele>1957.20</ele>
        <time>2014-12-22T13:24:45.80Z</time>
      </trkpt>
      <trkpt lat="42.351354" lon="2.253075">
        <ele>1958.00</ele>
        <time>2014-12-22T16:09:14.56Z</time>
      </trkpt>
      <trkpt lat="42.351347" lon="2.253046">
        <ele>1958.20</ele>
        <time>2014-12-22T16:51:21.84Z</time>
      </trkpt>
      <trkpt lat="42.351323" lon="2.252924">
        <ele>1959.40</ele>
        <time>2014-12-22T19:45:40.32Z</time>
      </trkpt>
      <trkpt lat="42.351312" lon="2.252896">
        <ele>1959.80</ele>
        <time>2014-12-22T20:29:27.22Z</time>
      </trkpt>
      <trkpt lat="42.351298" lon="2.252743">
        <ele>1960.60</ele>
        <time>2014-12-23T00:02:18.62Z</time>
      </trkpt>
      <trkpt lat="42.351290" lon="2.252683">
        <ele>1961.40</ele>
        <time>2014-12-23T01:26:29.31Z</time>
      </trkpt>
      <trkpt lat="42.351277" lon="2.252623">
        <ele>1961.80</ele>
        <time>2014-12-23T02:52:48.96Z</time>
      </trkpt>
      <trkpt lat="42.351258" lon="2.252474">
        <ele>1963.00</ele>
        <time>2014-12-23T06:21:34.61Z</time>
      </trkpt>
      <trkpt lat="42.351251" lon="2.252444">
        <ele>1963.40</ele>
        <time>2014-12-23T07:05:00.76Z</time>
      </trkpt>
      <trkpt lat="42.351249" lon="2.252322">
        <ele>1964.20</ele>
        <time>2014-12-23T09:53:29.81Z</time>
      </trkpt>
      <trkpt lat="42.351253" lon="2.252231">
        <ele>1964.80</ele>
        <time>2014-12-23T11:59:21.64Z</time>
      </trkpt>
      <trkpt lat="42.351275" lon="2.252142">
        <ele>1965.40</ele>
        <time>2014-12-23T14:08:55.96Z</time>
      </trkpt>
      <trkpt lat="42.351312" lon="2.252036">
        <ele>1966.20</ele>
        <time>2014-12-23T16:50:47.26Z</time>
      </trkpt>
      <trkpt lat="42.351323" lon="2.252009">
        <ele>1966.40</ele>
        <time>2014-12-23T17:33:21.31Z</time>
      </trkpt>
      <trkpt lat="42.351404" lon="2.251913">
        <ele>1967.60</ele>
        <time>2014-12-23T20:54:31.30Z</time>
      </trkpt>
      <trkpt lat="42.351428" lon="2.251902">
        <ele>1967.80</ele>
        <time>2014-12-23T21:41:51.70Z</time>
      </trkpt>
      <trkpt lat="42.351501" lon="2.251832">
        <ele>1968.60</ele>
        <time>2014-12-24T00:29:00.94Z</time>
      </trkpt>
      <trkpt lat="42.351544" lon="2.251801">
        <ele>1969.00</ele>
        <time>2014-12-24T02:00:02.41Z</time>
      </trkpt>
      <trkpt lat="42.351592" lon="2.251780">
        <ele>1969.60</ele>
        <time>2014-12-24T03:34:17.17Z</time>
      </trkpt>
      <trkpt lat="42.351708" lon="2.251722">
        <ele>1970.60</ele>
        <time>2014-12-24T07:25:19.38Z</time>
      </trkpt>
      <trkpt lat="42.351827" lon="2.251659">
        <ele>1971.80</ele>
        <time>2014-12-24T11:24:03.18Z</time>
      </trkpt>
      <trkpt lat="42.351877" lon="2.251645">
        <ele>1972.20</ele>
        <time>2014-12-24T12:59:26.61Z</time>
      </trkpt>
      <trkpt lat="42.351923" lon="2.251629">
        <ele>1973.00</ele>
        <time>2014-12-24T14:28:10.56Z</time>
      </trkpt>
      <trkpt lat="42.352022" lon="2.251609">
        <ele>1974.20</ele>
        <time>2014-12-24T17:35:10.87Z</time>
      </trkpt>
      <trkpt lat="42.352096" lon="2.251598">
        <ele>1974.60</ele>
        <time>2014-12-24T19:54:15.73Z</time>
      </trkpt>
      <trkpt lat="42.352162" lon="2.251579">
        <ele>1975.20</ele>
        <time>2014-12-24T22:00:19.50Z</time>
      </trkpt>
      <trkpt lat="42.352183" lon="2.251577">
        <ele>1975.40</ele>
        <time>2014-12-24T22:39:39.30Z</time>
      </trkpt>
      <trkpt lat="42.352256" lon="2.251579">
        <ele>1976.20</ele>
        <time>2014-12-25T00:56:03.84Z</time>
      </trkpt>
      <trkpt lat="42.352280" lon="2.251573">
        <ele>1976.40</ele>
        <time>2014-12-25T01:41:39.63Z</time>
      </trkpt>
      <trkpt lat="42.352403" lon="2.251579">
        <ele>1977.20</ele>
        <time>2014-12-25T05:31:36.15Z</time>
      </trkpt>
      <trkpt lat="42.352426" lon="2.251584">
        <ele>1977.40</ele>
        <time>2014-12-25T06:15:07.37Z</time>
      </trkpt>
      <trkpt lat="42.352518" lon="2.251596">
        <ele>1978.60</ele>
        <time>2014-12-25T09:07:47.82Z</time>
      </trkpt>
      <trkpt lat="42.352590" lon="2.251593">
        <ele>1979.20</ele>
        <time>2014-12-25T11:22:22.41Z</time>
      </trkpt>
      <trkpt lat="42.352636" lon="2.251589">
        <ele>1979.60</ele>
        <time>2014-12-25T12:48:29.37Z</time>
      </trkpt>
      <trkpt lat="42.352741" lon="2.251575">
        <ele>1980.80</ele>
        <time>2014-12-25T16:05:36.24Z</time>
      </trkpt>
      <trkpt lat="42.352880" lon="2.251572">
        <ele>1982.00</ele>
        <time>2014-12-25T20:25:19.29Z</time>
      </trkpt>
      <trkpt lat="42.352997" lon="2.251582">
        <ele>1983.20</ele>
        <time>2014-12-26T00:04:20.42Z</time>
      </trkpt>
      <trkpt lat="42.353024" lon="2.251582">
        <ele>1983.40</ele>
        <time>2014-12-26T00:54:46.96Z</time>
      </trkpt>
      <trkpt lat="42.353101" lon="2.251582">
        <ele>1984.20</ele>
        <time>2014-12-26T03:18:38.20Z</time>
      </trkpt>
      <trkpt lat="42.353221" lon="2.251558">
        <ele>1985.40</ele>
        <time>2014-12-26T07:05:15.61Z</time>
      </trkpt>
      <trkpt lat="42.353339" lon="2.251529">
        <ele>1986.60</ele>
        <time>2014-12-26T10:49:19.09Z</time>
      </trkpt>
      <trkpt lat="42.353383" lon="2.251516">
        <ele>1987.20</ele>
        <time>2014-12-26T12:13:27.42Z</time>
      </trkpt>
      <trkpt lat="42.353448" lon="2.251498">
        <ele>1987.80</ele>
        <time>2014-12-26T14:17:24.54Z</time>
      </trkpt>
      <trkpt lat="42.353527" lon="2.251454">
        <ele>1988.80</ele>
        <time>2014-12-26T16:57:00.74Z</time>
      </trkpt>
      <trkpt lat="42.353638" lon="2.251422">
        <ele>1989.80</ele>
        <time>2014-12-26T20:29:02.41Z</time>
      </trkpt>
      <trkpt lat="42.353662" lon="2.251411">
        <ele>1990.00</ele>
        <time>2014-12-26T21:16:22.79Z</time>
      </trkpt>
      <trkpt lat="42.353748" lon="2.251362">
        <ele>1990.80</ele>
        <time>2014-12-27T00:10:42.57Z</time>
      </trkpt>
      <trkpt lat="42.353817" lon="2.251327">
        <ele>1991.60</ele>
        <time>2014-12-27T02:28:22.62Z</time>
      </trkpt>
      <trkpt lat="42.353864" lon="2.251301">
        <ele>1992.20</ele>
        <time>2014-12-27T04:03:14.27Z</time>
      </trkpt>
      <trkpt lat="42.353973" lon="2.251227">
        <ele>1993.20</ele>
        <time>2014-12-27T07:51:04.01Z</time>
      </trkpt>
      <trkpt lat="42.354039" lon="2.251193">
        <ele>1994.00</ele>
        <time>2014-12-27T10:03:00.19Z</time>
      </trkpt>
      <trkpt lat="42.354085" lon="2.251175">
        <ele>1994.40</ele>
        <time>2014-12-27T11:32:27.78Z</time>
      </trkpt>
      <trkpt lat="42.354166" lon="2.251116">
        <ele>1995.40</ele>
        <time>2014-12-27T14:24:19.22Z</time>
      </trkpt>
      <trkpt lat="42.354186" lon="2.251104">
        <ele>1995.60</ele>
        <time>2014-12-27T15:05:11.60Z</time>
      </trkpt>
      <trkpt lat="42.354270" lon="2.251044">
        <ele>1996.40</ele>
        <time>2014-12-27T18:02:38.76Z</time>
      </trkpt>
      <trkpt lat="42.354352" lon="2.250985">
        <ele>1997.40</ele>
        <time>2014-12-27T20:56:09.03Z</time>
      </trkpt>
      <trkpt lat="42.354373" lon="2.250974">
        <ele>1997.60</ele>
        <time>2014-12-27T21:38:13.21Z</time>
      </trkpt>
      <trkpt lat="42.354465" lon="2.250916">
        <ele>1998.60</ele>
        <time>2014-12-28T00:47:50.12Z</time>
      </trkpt>
      <trkpt lat="42.354528" lon="2.250866">
        <ele>1999.20</ele>
        <time>2014-12-28T03:04:17.03Z</time>
      </trkpt>
      <trkpt lat="42.354570" lon="2.250834">
        <ele>1999.60</ele>
        <time>2014-12-28T04:34:19.93Z</time>
      </trkpt>
      <trkpt lat="42.354653" lon="2.250777">
        <ele>2000.60</ele>
        <time>2014-12-28T07:28:13.28Z</time>
      </trkpt>
      <trkpt lat="42.354694" lon="2.250741">
        <ele>2001.00</ele>
        <time>2014-12-28T08:59:31.86Z</time>
      </trkpt>
      <trkpt lat="42.354751" lon="2.250689">
        <ele>2001.80</ele>
        <time>2014-12-28T11:07:57.59Z</time>
      </trkpt>
      <trkpt lat="42.354806" lon="2.250627">
        <ele>2002.60</ele>
        <time>2014-12-28T13:21:41.69Z</time>
      </trkpt>
      <trkpt lat="42.354827" lon="2.250606">
        <ele>2002.80</ele>
        <time>2014-12-28T14:10:28.67Z</time>
      </trkpt>
      <trkpt lat="42.354948" lon="2.250475">
        <ele>2004.00</ele>
        <time>2014-12-28T18:59:58.77Z</time>
      </trkpt>
      <trkpt lat="42.355034" lon="2.250298">
        <ele>2005.00</ele>
        <time>2014-12-28T23:52:25.95Z</time>
      </trkpt>
      <trkpt lat="42.355049" lon="2.250261">
        <ele>2005.20</ele>
        <time>2014-12-29T00:50:41.79Z</time>
      </trkpt>
      <trkpt lat="42.355071" lon="2.250182">
        <ele>2005.80</ele>
        <time>2014-12-29T02:47:15.05Z</time>
      </trkpt>
      <trkpt lat="42.355115" lon="2.250075">
        <ele>2006.00</ele>
        <time>2014-12-29T05:36:18.32Z</time>
      </trkpt>
      <trkpt lat="42.355126" lon="2.250039">
        <ele>2006.20</ele>
        <time>2014-12-29T06:30:05.27Z</time>
      </trkpt>
      <trkpt lat="42.355168" lon="2.249796">
        <ele>2007.00</ele>
        <time>2014-12-29T12:14:37.55Z</time>
      </trkpt>
      <trkpt lat="42.355175" lon="2.249755">
        <ele>2007.00</ele>
        <time>2014-12-29T13:12:43.27Z</time>
      </trkpt>
      <trkpt lat="42.355202" lon="2.249502">
        <ele>2008.20</ele>
        <time>2014-12-29T19:05:38.06Z</time>
      </trkpt>
      <trkpt lat="42.355217" lon="2.249241">
        <ele>2009.60</ele>
        <time>2014-12-30T01:07:03.41Z</time>
      </trkpt>
      <trkpt lat="42.355180" lon="2.248976">
        <ele>2010.60</ele>
        <time>2014-12-30T07:19:23.19Z</time>
      </trkpt>
      <trkpt lat="42.355106" lon="2.248650">
        <ele>2011.80</ele>
        <time>2014-12-30T15:10:12.85Z</time>
      </trkpt>
      <trkpt lat="42.355082" lon="2.248548">
        <ele>2012.00</ele>
        <time>2014-12-30T17:38:00.04Z</time>
      </trkpt>
      <trkpt lat="42.355036" lon="2.248341">
        <ele>2012.80</ele>
        <time>2014-12-30T22:36:25.54Z</time>
      </trkpt>
      <trkpt lat="42.354983" lon="2.248086">
        <ele>2013.80</ele>
        <time>2014-12-31T04:42:08.22Z</time>
      </trkpt>
      <trkpt lat="42.354944" lon="2.247820">
        <ele>2014.80</ele>
        <time>2014-12-31T10:56:32.03Z</time>
      </trkpt>
      <trkpt lat="42.354934" lon="2.247712">
        <ele>2015.00</ele>
        <time>2014-12-31T13:26:48.26Z</time>
      </trkpt>
      <trkpt lat="42.354925" lon="2.247659">
        <ele>2015.40</ele>
        <time>2014-12-31T14:41:52.98Z</time>
      </trkpt>
      <trkpt lat="42.354913" lon="2.247551">
        <ele>2016.20</ele>
        <time>2014-12-31T17:12:39.81Z</time>
      </trkpt>
      <trkpt lat="42.354913" lon="2.247434">
        <ele>2016.60</ele>
        <time>2014-12-31T19:54:11.61Z</time>
      </trkpt>
      <trkpt lat="42.354917" lon="2.247261">
        <ele>2017.20</ele>
        <time>2014-12-31T23:53:09.22Z</time>
      </trkpt>
      <trkpt lat="42.354911" lon="2.247090">
        <ele>2017.80</ele>
        <time>2015-01-01T03:49:30.12Z</time>
      </trkpt>
      <trkpt lat="42.354922" lon="2.246980">
        <ele>2018.40</ele>
        <time>2015-01-01T06:22:45.11Z</time>
      </trkpt>
      <trkpt lat="42.354922" lon="2.246924">
        <ele>2018.60</ele>
        <time>2015-01-01T07:40:03.92Z</time>
      </trkpt>
      <trkpt lat="42.354926" lon="2.246753">
        <ele>2019.60</ele>
        <time>2015-01-01T11:36:15.95Z</time>
      </trkpt>
      <trkpt lat="42.354921" lon="2.246588">
        <ele>2020.20</ele>
        <time>2015-01-01T15:24:15.35Z</time>
      </trkpt>
      <trkpt lat="42.354921" lon="2.246474">
        <ele>2020.80</ele>
        <time>2015-01-01T18:01:38.64Z</time>
      </trkpt>
      <trkpt lat="42.354926" lon="2.246245">
        <ele>2021.80</ele>
        <time>2015-01-01T23:17:56.33Z</time>
      </trkpt>
      <trkpt lat="42.354931" lon="2.246191">
        <ele>2022.00</ele>
        <time>2015-01-02T00:33:04.44Z</time>
      </trkpt>
      <trkpt lat="42.354932" lon="2.246136">
        <ele>2022.20</ele>
        <time>2015-01-02T01:49:01.79Z</time>
      </trkpt>
      <trkpt lat="42.354943" lon="2.245979">
        <ele>2022.80</ele>
        <time>2015-01-02T05:26:45.34Z</time>
      </trkpt>
      <trkpt lat="42.354947" lon="2.245818">
        <ele>2023.80</ele>
        <time>2015-01-02T09:09:09.44Z</time>
      </trkpt>
      <trkpt lat="42.354945" lon="2.245764">
        <ele>2023.80</ele>
        <time>2015-01-02T10:23:48.19Z</time>
      </trkpt>
      <trkpt lat="42.354928" lon="2.245485">
        <ele>2025.00</ele>
        <time>2015-01-02T16:50:17.82Z</time>
      </trkpt>
      <trkpt lat="42.354926" lon="2.245430">
        <ele>2025.20</ele>
        <time>2015-01-02T18:06:19.30Z</time>
      </trkpt>
      <trkpt lat="42.354918" lon="2.245371">
        <ele>2025.20</ele>
        <time>2015-01-02T19:29:08.21Z</time>
      </trkpt>
      <trkpt lat="42.354842" lon="2.245195">
        <ele>2025.20</ele>
        <time>2015-01-03T00:10:33.90Z</time>
      </trkpt>
      <trkpt lat="42.354714" lon="2.245077">
        <ele>2025.00</ele>
        <time>2015-01-03T04:59:55.06Z</time>
      </trkpt>
      <trkpt lat="42.354667" lon="2.245041">
        <ele>2025.00</ele>
        <time>2015-01-03T06:40:48.92Z</time>
      </trkpt>
      <trkpt lat="42.354397" lon="2.244754">
        <ele>2024.60</ele>
        <time>2015-01-03T17:22:15.26Z</time>
      </trkpt>
      <trkpt lat="42.354343" lon="2.244517">
        <ele>2024.00</ele>
        <time>2015-01-03T23:04:39.50Z</time>
      </trkpt>
      <trkpt lat="42.354437" lon="2.244291">
        <ele>2023.20</ele>
        <time>2015-01-04T05:02:42.12Z</time>
      </trkpt>
      <trkpt lat="42.354489" lon="2.244231">
        <ele>2023.00</ele>
        <time>2015-01-04T07:10:22.32Z</time>
      </trkpt>
      <trkpt lat="42.354663" lon="2.244068">
        <ele>2023.00</ele>
        <time>2015-01-04T13:45:44.31Z</time>
      </trkpt>
      <trkpt lat="42.354723" lon="2.244017">
        <ele>2023.00</ele>
        <time>2015-01-04T15:58:06.72Z</time>
      </trkpt>
      <trkpt lat="42.355050" lon="2.243780">
        <ele>2021.80</ele>
        <time>2015-01-05T03:31:07.84Z</time>
      </trkpt>
      <trkpt lat="42.355118" lon="2.243725">
        <ele>2021.40</ele>
        <time>2015-01-05T05:59:08.02Z</time>
      </trkpt>
      <trkpt lat="42.355392" lon="2.243490">
        <ele>2021.00</ele>
        <time>2015-01-05T16:05:11.09Z</time>
      </trkpt>
      <trkpt lat="42.355461" lon="2.243428">
        <ele>2020.60</ele>
        <time>2015-01-05T18:39:55.41Z</time>
      </trkpt>
      <trkpt lat="42.355678" lon="2.243246">
        <ele>2020.20</ele>
        <time>2015-01-06T02:36:52.91Z</time>
      </trkpt>
      <trkpt lat="42.355837" lon="2.243145">
        <ele>2019.40</ele>
        <time>2015-01-06T08:05:01.80Z</time>
      </trkpt>
      <trkpt lat="42.355924" lon="2.243111">
        <ele>2019.20</ele>
        <time>2015-01-06T10:54:12.51Z</time>
      </trkpt>
      <trkpt lat="42.356109" lon="2.243081">
        <ele>2018.80</ele>
        <time>2015-01-06T16:42:18.27Z</time>
      </trkpt>
      <trkpt lat="42.356204" lon="2.243084">
        <ele>2018.20</ele>
        <time>2015-01-06T19:39:50.10Z</time>
      </trkpt>
      <trkpt lat="42.356383" lon="2.243158">
        <ele>2018.00</ele>
        <time>2015-01-07T01:29:30.35Z</time>
      </trkpt>
      <trkpt lat="42.356555" lon="2.243266">
        <ele>2017.40</ele>
        <time>2015-01-07T07:23:44.92Z</time>
      </trkpt>
      <trkpt lat="42.356641" lon="2.243319">
        <ele>2017.20</ele>
        <time>2015-01-07T10:20:17.60Z</time>
      </trkpt>
      <trkpt lat="42.356902" lon="2.243494">
        <ele>2016.40</ele>
        <time>2015-01-07T19:24:28.40Z</time>
      </trkpt>
      <trkpt lat="42.356987" lon="2.243546">
        <ele>2016.00</ele>
        <time>2015-01-07T22:18:44.77Z</time>
      </trkpt>
      <trkpt lat="42.357418" lon="2.243731">
        <ele>2014.80</ele>
        <time>2015-01-08T12:23:29.35Z</time>
      </trkpt>
      <trkpt lat="42.357880" lon="2.243751">
        <ele>2014.60</ele>
        <time>2015-01-09T02:47:03.27Z</time>
      </trkpt>
      <trkpt lat="42.358067" lon="2.243734">
        <ele>2013.80</ele>
        <time>2015-01-09T08:37:12.09Z</time>
      </trkpt>
      <trkpt lat="42.358444" lon="2.243661">
        <ele>2012.80</ele>
        <time>2015-01-09T20:28:41.94Z</time>
      </trkpt>
      <trkpt lat="42.358539" lon="2.243638">
        <ele>2012.40</ele>
        <time>2015-01-09T23:28:59.94Z</time>
      </trkpt>
      <trkpt lat="42.358814" lon="2.243553">
        <ele>2011.80</ele>
        <time>2015-01-10T08:15:59.61Z</time>
      </trkpt>
      <trkpt lat="42.359082" lon="2.243445">
        <ele>2011.00</ele>
        <time>2015-01-10T16:58:24.45Z</time>
      </trkpt>
      <trkpt lat="42.359260" lon="2.243362">
        <ele>2010.80</ele>
        <time>2015-01-10T22:50:08.38Z</time>
      </trkpt>
      <trkpt lat="42.359528" lon="2.243249">
        <ele>2009.60</ele>
        <time>2015-01-11T07:34:33.90Z</time>
      </trkpt>
      <trkpt lat="42.359615" lon="2.243195">
        <ele>2009.40</ele>
        <time>2015-01-11T10:33:22.88Z</time>
      </trkpt>
      <trkpt lat="42.359870" lon="2.243034">
        <ele>2008.40</ele>
        <time>2015-01-11T19:19:04.61Z</time>
      </trkpt>
      <trkpt lat="42.360122" lon="2.242879">
        <ele>2007.60</ele>
        <time>2015-01-12T03:56:12.97Z</time>
      </trkpt>
      <trkpt lat="42.360285" lon="2.242779">
        <ele>2007.20</ele>
        <time>2015-01-12T09:30:34.07Z</time>
      </trkpt>
      <trkpt lat="42.360536" lon="2.242653">
        <ele>2006.40</ele>
        <time>2015-01-12T17:50:42.91Z</time>
      </trkpt>
      <trkpt lat="42.360605" lon="2.242575">
        <ele>2006.00</ele>
        <time>2015-01-12T20:38:40.70Z</time>
      </trkpt>
      <trkpt lat="42.360698" lon="2.242367">
        <ele>2005.60</ele>
        <time>2015-01-13T02:14:17.46Z</time>
      </trkpt>
      <trkpt lat="42.360735" lon="2.242114">
        <ele>2004.80</ele>
        <time>2015-01-13T08:10:19.49Z</time>
      </trkpt>
      <trkpt lat="42.360780" lon="2.242005">
        <ele>2004.20</ele>
        <time>2015-01-13T11:02:41.34Z</time>
      </trkpt>
      <trkpt lat="42.360904" lon="2.241825">
        <ele>2003.40</ele>
        <time>2015-01-13T16:42:24.67Z</time>
      </trkpt>
      <trkpt lat="42.360971" lon="2.241743">
        <ele>2003.00</ele>
        <time>2015-01-13T19:31:10.60Z</time>
      </trkpt>
      <trkpt lat="42.361114" lon="2.241584">
        <ele>2002.00</ele>
        <time>2015-01-14T01:16:56.24Z</time>
      </trkpt>
      <trkpt lat="42.361323" lon="2.241384">
        <ele>2001.00</ele>
        <time>2015-01-14T09:15:08.94Z</time>
      </trkpt>
      <trkpt lat="42.361397" lon="2.241328">
        <ele>2000.80</ele>
        <time>2015-01-14T11:53:32.65Z</time>
      </trkpt>
      <trkpt lat="42.361623" lon="2.241148">
        <ele>1999.60</ele>
        <time>2015-01-14T20:03:27.35Z</time>
      </trkpt>
      <trkpt lat="42.361774" lon="2.241016">
        <ele>1999.00</ele>
        <time>2015-01-15T01:39:17.53Z</time>
      </trkpt>
      <trkpt lat="42.361850" lon="2.240951">
        <ele>1998.60</ele>
        <time>2015-01-15T04:27:15.25Z</time>
      </trkpt>
      <trkpt lat="42.362062" lon="2.240740">
        <ele>1997.60</ele>
        <time>2015-01-15T12:38:53.55Z</time>
      </trkpt>
      <trkpt lat="42.362098" lon="2.240649">
        <ele>1997.20</ele>
        <time>2015-01-15T15:01:23.04Z</time>
      </trkpt>
      <trkpt lat="42.362093" lon="2.240455">
        <ele>1996.80</ele>
        <time>2015-01-15T19:29:21.13Z</time>
      </trkpt>
      <trkpt lat="42.361982" lon="2.240359">
        <ele>1997.20</ele>
        <time>2015-01-15T23:35:27.24Z</time>
      </trkpt>
      <trkpt lat="42.361770" lon="2.240365">
        <ele>1997.00</ele>
        <time>2015-01-16T06:11:36.37Z</time>
      </trkpt>
      <trkpt lat="42.361695" lon="2.240384">
        <ele>1997.00</ele>
        <time>2015-01-16T08:34:09.44Z</time>
      </trkpt>
      <trkpt lat="42.361544" lon="2.240415">
        <ele>1997.40</ele>
        <time>2015-01-16T13:19:29.28Z</time>
      </trkpt>
      <trkpt lat="42.361466" lon="2.240433">
        <ele>1997.60</ele>
        <time>2015-01-16T15:47:18.81Z</time>
      </trkpt>
      <trkpt lat="42.361310" lon="2.240468">
        <ele>1997.80</ele>
        <time>2015-01-16T20:42:44.14Z</time>
      </trkpt>
      <trkpt lat="42.361159" lon="2.240513">
        <ele>1997.80</ele>
        <time>2015-01-17T01:31:35.86Z</time>
      </trkpt>
      <trkpt lat="42.360932" lon="2.240565">
        <ele>1998.00</ele>
        <time>2015-01-17T08:41:43.15Z</time>
      </trkpt>
      <trkpt lat="42.360651" lon="2.240624">
        <ele>1998.20</ele>
        <time>2015-01-17T17:32:58.40Z</time>
      </trkpt>
      <trkpt lat="42.360512" lon="2.240654">
        <ele>1998.60</ele>
        <time>2015-01-17T21:55:56.36Z</time>
      </trkpt>
      <trkpt lat="42.360378" lon="2.240685">
        <ele>1998.40</ele>
        <time>2015-01-18T02:09:54.84Z</time>
      </trkpt>
      <trkpt lat="42.360135" lon="2.240740">
        <ele>1999.20</ele>
        <time>2015-01-18T09:50:12.01Z</time>
      </trkpt>
      <trkpt lat="42.360074" lon="2.240746">
        <ele>1999.20</ele>
        <time>2015-01-18T11:44:27.78Z</time>
      </trkpt>
      <trkpt lat="42.359702" lon="2.240798">
        <ele>1999.40</ele>
        <time>2015-01-18T23:23:08.61Z</time>
      </trkpt>
      <trkpt lat="42.359639" lon="2.240802">
        <ele>1999.60</ele>
        <time>2015-01-19T01:20:58.30Z</time>
      </trkpt>
      <trkpt lat="42.359452" lon="2.240788">
        <ele>2000.00</ele>
        <time>2015-01-19T07:10:51.93Z</time>
      </trkpt>
      <trkpt lat="42.359329" lon="2.240742">
        <ele>2000.00</ele>
        <time>2015-01-19T11:09:16.27Z</time>
      </trkpt>
      <trkpt lat="42.359210" lon="2.240682">
        <ele>2000.20</ele>
        <time>2015-01-19T15:06:31.19Z</time>
      </trkpt>
      <trkpt lat="42.358923" lon="2.240513">
        <ele>2000.40</ele>
        <time>2015-01-20T00:51:15.74Z</time>
      </trkpt>
      <trkpt lat="42.358437" lon="2.240173">
        <ele>1999.60</ele>
        <time>2015-01-20T17:53:22.28Z</time>
      </trkpt>
      <trkpt lat="42.358261" lon="2.240027">
        <ele>1999.40</ele>
        <time>2015-01-21T00:19:02.41Z</time>
      </trkpt>
      <trkpt lat="42.358180" lon="2.239869">
        <ele>1999.20</ele>
        <time>2015-01-21T04:44:30.96Z</time>
      </trkpt>
      <trkpt lat="42.358116" lon="2.239690">
        <ele>1998.80</ele>
        <time>2015-01-21T09:19:02.22Z</time>
      </trkpt>
      <trkpt lat="42.358057" lon="2.239510">
        <ele>1998.40</ele>
        <time>2015-01-21T13:50:52.90Z</time>
      </trkpt>
      <trkpt lat="42.357993" lon="2.239322">
        <ele>1998.20</ele>
        <time>2015-01-21T18:36:38.31Z</time>
      </trkpt>
      <trkpt lat="42.357794" lon="2.238738">
        <ele>1997.20</ele>
        <time>2015-01-22T09:24:27.62Z</time>
      </trkpt>
      <trkpt lat="42.357765" lon="2.238639">
        <ele>1997.20</ele>
        <time>2015-01-22T11:51:28.81Z</time>
      </trkpt>
      <trkpt lat="42.357613" lon="2.238279">
        <ele>1996.40</ele>
        <time>2015-01-22T21:23:52.83Z</time>
      </trkpt>
      <trkpt lat="42.357552" lon="2.238218">
        <ele>1996.40</ele>
        <time>2015-01-22T23:45:34.90Z</time>
      </trkpt>
      <trkpt lat="42.357339" lon="2.238142">
        <ele>1996.40</ele>
        <time>2015-01-23T06:37:06.90Z</time>
      </trkpt>
      <trkpt lat="42.357265" lon="2.238127">
        <ele>1996.60</ele>
        <time>2015-01-23T08:56:54.39Z</time>
      </trkpt>
      <trkpt lat="42.356846" lon="2.238064">
        <ele>1997.00</ele>
        <time>2015-01-23T22:04:30.80Z</time>
      </trkpt>
      <trkpt lat="42.356400" lon="2.237978">
        <ele>1997.60</ele>
        <time>2015-01-24T12:06:09.71Z</time>
      </trkpt>
      <trkpt lat="42.356036" lon="2.237866">
        <ele>1998.40</ele>
        <time>2015-01-24T23:43:33.37Z</time>
      </trkpt>
      <trkpt lat="42.355976" lon="2.237836">
        <ele>1998.40</ele>
        <time>2015-01-25T01:43:03.42Z</time>
      </trkpt>
      <trkpt lat="42.355597" lon="2.237553">
        <ele>1999.20</ele>
        <time>2015-01-25T15:11:45.54Z</time>
      </trkpt>
      <trkpt lat="42.355493" lon="2.237464">
        <ele>1999.40</ele>
        <time>2015-01-25T19:01:38.83Z</time>
      </trkpt>
      <trkpt lat="42.355179" lon="2.237148">
        <ele>1999.40</ele>
        <time>2015-01-26T07:12:42.79Z</time>
      </trkpt>
      <trkpt lat="42.354843" lon="2.236815">
        <ele>1998.80</ele>
        <time>2015-01-26T20:10:47.25Z</time>
      </trkpt>
      <trkpt lat="42.354736" lon="2.236695">
        <ele>1998.40</ele>
        <time>2015-01-27T00:30:25.04Z</time>
      </trkpt>
      <trkpt lat="42.354627" lon="2.236578">
        <ele>1998.20</ele>
        <time>2015-01-27T04:50:20.46Z</time>
      </trkpt>
      <trkpt lat="42.354398" lon="2.236351">
        <ele>1997.80</ele>
        <time>2015-01-27T13:40:40.42Z</time>
      </trkpt>
      <trkpt lat="42.354046" lon="2.236035">
        <ele>1997.20</ele>
        <time>2015-01-28T02:49:50.89Z</time>
      </trkpt>
      <trkpt lat="42.353932" lon="2.235920">
        <ele>1997.00</ele>
        <time>2015-01-28T07:15:29.69Z</time>
      </trkpt>
      <trkpt lat="42.353832" lon="2.235782">
        <ele>1997.00</ele>
        <time>2015-01-28T11:42:20.03Z</time>
      </trkpt>
      <trkpt lat="42.353779" lon="2.235600">
        <ele>1996.20</ele>
        <time>2015-01-28T16:12:24.75Z</time>
      </trkpt>
      <trkpt lat="42.353789" lon="2.235501">
        <ele>1996.20</ele>
        <time>2015-01-28T18:30:21.90Z</time>
      </trkpt>
      <trkpt lat="42.353823" lon="2.235406">
        <ele>1996.00</ele>
        <time>2015-01-28T20:56:05.75Z</time>
      </trkpt>
      <trkpt lat="42.353983" lon="2.235194">
        <ele>1995.60</ele>
        <time>2015-01-29T03:54:26.98Z</time>
      </trkpt>
      <trkpt lat="42.354041" lon="2.235134">
        <ele>1995.60</ele>
        <time>2015-01-29T06:10:50.62Z</time>
      </trkpt>
      <trkpt lat="42.354288" lon="2.234900">
        <ele>1995.40</ele>
        <time>2015-01-29T15:34:08.77Z</time>
      </trkpt>
      <trkpt lat="42.354351" lon="2.234835">
        <ele>1995.40</ele>
        <time>2015-01-29T18:02:09.21Z</time>
      </trkpt>
      <trkpt lat="42.354473" lon="2.234699">
        <ele>1995.20</ele>
        <time>2015-01-29T22:57:27.45Z</time>
      </trkpt>
      <trkpt lat="42.354707" lon="2.234387">
        <ele>1994.80</ele>
        <time>2015-01-30T09:11:10.99Z</time>
      </trkpt>
      <trkpt lat="42.355039" lon="2.233755">
        <ele>1994.20</ele>
        <time>2015-01-31T03:01:42.88Z</time>
      </trkpt>
      <trkpt lat="42.355082" lon="2.233657">
        <ele>1994.00</ele>
        <time>2015-01-31T05:39:03.91Z</time>
      </trkpt>
      <trkpt lat="42.355251" lon="2.233272">
        <ele>1993.80</ele>
        <time>2015-01-31T15:57:17.71Z</time>
      </trkpt>
      <trkpt lat="42.355329" lon="2.233076">
        <ele>1993.80</ele>
        <time>2015-01-31T21:04:38.02Z</time>
      </trkpt>
      <trkpt lat="42.355438" lon="2.232666">
        <ele>1993.80</ele>
        <time>2015-02-01T07:06:11.42Z</time>
      </trkpt>
      <trkpt lat="42.355429" lon="2.232559">
        <ele>1993.60</ele>
        <time>2015-02-01T09:34:52.02Z</time>
      </trkpt>
      <trkpt lat="42.355346" lon="2.232382">
        <ele>1993.80</ele>
        <time>2015-02-01T14:24:16.65Z</time>
      </trkpt>
      <trkpt lat="42.355245" lon="2.232221">
        <ele>1993.80</ele>
        <time>2015-02-01T19:15:50.60Z</time>
      </trkpt>
      <trkpt lat="42.355158" lon="2.232053">
        <ele>1993.60</ele>
        <time>2015-02-01T23:59:03.83Z</time>
      </trkpt>
      <trkpt lat="42.355139" lon="2.231950">
        <ele>1993.60</ele>
        <time>2015-02-02T02:25:37.70Z</time>
      </trkpt>
      <trkpt lat="42.355173" lon="2.231753">
        <ele>1993.20</ele>
        <time>2015-02-02T07:04:55.45Z</time>
      </trkpt>
      <trkpt lat="42.355208" lon="2.231668">
        <ele>1993.00</ele>
        <time>2015-02-02T09:19:15.73Z</time>
      </trkpt>
      <trkpt lat="42.355288" lon="2.231505">
        <ele>1992.80</ele>
        <time>2015-02-02T13:49:24.53Z</time>
      </trkpt>
      <trkpt lat="42.355321" lon="2.231425">
        <ele>1992.60</ele>
        <time>2015-02-02T15:55:53.88Z</time>
      </trkpt>
      <trkpt lat="42.355330" lon="2.231332">
        <ele>1992.60</ele>
        <time>2015-02-02T18:05:23.34Z</time>
      </trkpt>
      <trkpt lat="42.355305" lon="2.231249">
        <ele>1992.60</ele>
        <time>2015-02-02T20:09:07.85Z</time>
      </trkpt>
      <trkpt lat="42.355162" lon="2.231161">
        <ele>1992.80</ele>
        <time>2015-02-03T01:02:36.94Z</time>
      </trkpt>
      <trkpt lat="42.354962" lon="2.231255">
        <ele>1992.20</ele>
        <time>2015-02-03T07:38:09.47Z</time>
      </trkpt>
      <trkpt lat="42.354867" lon="2.231300">
        <ele>1991.80</ele>
        <time>2015-02-03T10:46:11.98Z</time>
      </trkpt>
      <trkpt lat="42.354550" lon="2.231427">
        <ele>1990.40</ele>
        <time>2015-02-03T21:03:50.38Z</time>
      </trkpt>
      <trkpt lat="42.354450" lon="2.231438">
        <ele>1990.00</ele>
        <time>2015-02-04T00:11:16.75Z</time>
      </trkpt>
      <trkpt lat="42.354252" lon="2.231416">
        <ele>1989.40</ele>
        <time>2015-02-04T06:22:26.06Z</time>
      </trkpt>
      <trkpt lat="42.353952" lon="2.231328">
        <ele>1988.20</ele>
        <time>2015-02-04T15:55:55.29Z</time>
      </trkpt>
      <trkpt lat="42.353756" lon="2.231251">
        <ele>1987.40</ele>
        <time>2015-02-04T22:17:12.89Z</time>
      </trkpt>
      <trkpt lat="42.353660" lon="2.231208">
        <ele>1986.80</ele>
        <time>2015-02-05T01:26:08.12Z</time>
      </trkpt>
      <trkpt lat="42.353566" lon="2.231175">
        <ele>1985.60</ele>
        <time>2015-02-05T04:27:33.79Z</time>
      </trkpt>
      <trkpt lat="42.353374" lon="2.231117">
        <ele>1984.20</ele>
        <time>2015-02-05T10:35:05.61Z</time>
      </trkpt>
      <trkpt lat="42.353174" lon="2.231059">
        <ele>1983.40</ele>
        <time>2015-02-05T16:57:13.47Z</time>
      </trkpt>
      <trkpt lat="42.353074" lon="2.231029">
        <ele>1982.80</ele>
        <time>2015-02-05T20:08:35.05Z</time>
      </trkpt>
      <trkpt lat="42.352774" lon="2.230948">
        <ele>1981.20</ele>
        <time>2015-02-06T05:40:06.14Z</time>
      </trkpt>
      <trkpt lat="42.352675" lon="2.230976">
        <ele>1980.40</ele>
        <time>2015-02-06T08:49:03.26Z</time>
      </trkpt>
      <trkpt lat="42.352579" lon="2.231036">
        <ele>1979.60</ele>
        <time>2015-02-06T12:06:36.69Z</time>
      </trkpt>
      <trkpt lat="42.352400" lon="2.231186">
        <ele>1978.80</ele>
        <time>2015-02-06T18:39:57.52Z</time>
      </trkpt>
      <trkpt lat="42.352305" lon="2.231259">
        <ele>1978.20</ele>
        <time>2015-02-06T22:04:03.71Z</time>
      </trkpt>
      <trkpt lat="42.352125" lon="2.231414">
        <ele>1977.20</ele>
        <time>2015-02-07T04:42:39.74Z</time>
      </trkpt>
      <trkpt lat="42.351853" lon="2.231617">
        <ele>1975.60</ele>
        <time>2015-02-07T14:22:59.38Z</time>
      </trkpt>
      <trkpt lat="42.351753" lon="2.231658">
        <ele>1975.00</ele>
        <time>2015-02-07T17:38:12.05Z</time>
      </trkpt>
      <trkpt lat="42.351653" lon="2.231700">
        <ele>1974.60</ele>
        <time>2015-02-07T20:53:49Z</time>
      </trkpt>
      <trkpt lat="42.351549" lon="2.231726">
        <ele>1974.20</ele>
        <time>2015-02-08T00:11:24.08Z</time>
      </trkpt>
      <trkpt lat="42.351447" lon="2.231752">
        <ele>1973.40</ele>
        <time>2015-02-08T03:25:18.77Z</time>
      </trkpt>
      <trkpt lat="42.351243" lon="2.231810">
        <ele>1971.40</ele>
        <time>2015-02-08T09:54:45.27Z</time>
      </trkpt>
      <trkpt lat="42.351039" lon="2.231840">
        <ele>1970.20</ele>
        <time>2015-02-08T16:18:07.10Z</time>
      </trkpt>
      <trkpt lat="42.350834" lon="2.231900">
        <ele>1968.60</ele>
        <time>2015-02-08T22:49:57.79Z</time>
      </trkpt>
      <trkpt lat="42.350631" lon="2.231960">
        <ele>1967.20</ele>
        <time>2015-02-09T05:18:09.41Z</time>
      </trkpt>
      <trkpt lat="42.350427" lon="2.232020">
        <ele>1966.00</ele>
        <time>2015-02-09T11:48:10.55Z</time>
      </trkpt>
      <trkpt lat="42.350221" lon="2.232038">
        <ele>1964.40</ele>
        <time>2015-02-09T18:13:50.01Z</time>
      </trkpt>
      <trkpt lat="42.350123" lon="2.232020">
        <ele>1964.00</ele>
        <time>2015-02-09T21:18:35.97Z</time>
      </trkpt>
      <trkpt lat="42.349947" lon="2.231889">
        <ele>1963.00</ele>
        <time>2015-02-10T03:33:52.38Z</time>
      </trkpt>
      <trkpt lat="42.349823" lon="2.231670">
        <ele>1961.60</ele>
        <time>2015-02-10T09:54:47.38Z</time>
      </trkpt>
      <trkpt lat="42.349770" lon="2.231550">
        <ele>1961.00</ele>
        <time>2015-02-10T13:07:48.45Z</time>
      </trkpt>
      <trkpt lat="42.349717" lon="2.231428">
        <ele>1960.60</ele>
        <time>2015-02-10T16:23:12.05Z</time>
      </trkpt>
      <trkpt lat="42.349664" lon="2.231306">
        <ele>1960.00</ele>
        <time>2015-02-10T19:38:35.66Z</time>
      </trkpt>
      <trkpt lat="42.349506" lon="2.230957">
        <ele>1958.80</ele>
        <time>2015-02-11T05:03:41.23Z</time>
      </trkpt>
      <trkpt lat="42.349450" lon="2.230867">
        <ele>1958.20</ele>
        <time>2015-02-11T07:46:07.72Z</time>
      </trkpt>
      <trkpt lat="42.349387" lon="2.230800">
        <ele>1957.40</ele>
        <time>2015-02-11T10:15:49.85Z</time>
      </trkpt>
      <trkpt lat="42.349218" lon="2.230818">
        <ele>1956.00</ele>
        <time>2015-02-11T15:32:32.34Z</time>
      </trkpt>
      <trkpt lat="42.349005" lon="2.231037">
        <ele>1955.80</ele>
        <time>2015-02-11T23:52:19.39Z</time>
      </trkpt>
      <trkpt lat="42.348937" lon="2.231125">
        <ele>1955.80</ele>
        <time>2015-02-12T02:48:06.83Z</time>
      </trkpt>
      <trkpt lat="42.348736" lon="2.231373">
        <ele>1955.20</ele>
        <time>2015-02-12T11:16:18.63Z</time>
      </trkpt>
      <trkpt lat="42.348664" lon="2.231445">
        <ele>1955.00</ele>
        <time>2015-02-12T14:03:34.36Z</time>
      </trkpt>
      <trkpt lat="42.348359" lon="2.231687">
        <ele>1954.20</ele>
        <time>2015-02-13T01:04:07.69Z</time>
      </trkpt>
      <trkpt lat="42.348276" lon="2.231717">
        <ele>1954.20</ele>
        <time>2015-02-13T03:44:37.72Z</time>
      </trkpt>
      <trkpt lat="42.348193" lon="2.231746">
        <ele>1953.80</ele>
        <time>2015-02-13T06:24:46.72Z</time>
      </trkpt>
      <trkpt lat="42.347844" lon="2.231855">
        <ele>1953.20</ele>
        <time>2015-02-13T17:33:56.19Z</time>
      </trkpt>
      <trkpt lat="42.347674" lon="2.231923">
        <ele>1953.00</ele>
        <time>2015-02-13T23:05:07.44Z</time>
      </trkpt>
      <trkpt lat="42.347590" lon="2.231961">
        <ele>1952.80</ele>
        <time>2015-02-14T01:50:35.67Z</time>
      </trkpt>
      <trkpt lat="42.347432" lon="2.232064">
        <ele>1952.20</ele>
        <time>2015-02-14T07:18:14.97Z</time>
      </trkpt>
      <trkpt lat="42.347281" lon="2.232196">
        <ele>1952.00</ele>
        <time>2015-02-14T12:54:06.51Z</time>
      </trkpt>
      <trkpt lat="42.346997" lon="2.232455">
        <ele>1951.60</ele>
        <time>2015-02-14T23:33:57.36Z</time>
      </trkpt>
      <trkpt lat="42.346857" lon="2.232584">
        <ele>1951.40</ele>
        <time>2015-02-15T04:50:23.97Z</time>
      </trkpt>
      <trkpt lat="42.346414" lon="2.232964">
        <ele>1951.80</ele>
        <time>2015-02-15T21:10:20.09Z</time>
      </trkpt>
      <trkpt lat="42.346022" lon="2.233387">
        <ele>1951.60</ele>
        <time>2015-02-16T12:47:04.27Z</time>
      </trkpt>
      <trkpt lat="42.345626" lon="2.233923">
        <ele>1951.60</ele>
        <time>2015-02-17T06:13:32.29Z</time>
      </trkpt>
      <trkpt lat="42.345571" lon="2.233995">
        <ele>1951.40</ele>
        <time>2015-02-17T08:36:30.83Z</time>
      </trkpt>
      <trkpt lat="42.345406" lon="2.234201">
        <ele>1951.20</ele>
        <time>2015-02-17T15:35:57.44Z</time>
      </trkpt>
      <trkpt lat="42.345222" lon="2.234362">
        <ele>1950.80</ele>
        <time>2015-02-17T22:25:20.04Z</time>
      </trkpt>
      <trkpt lat="42.344740" lon="2.234652">
        <ele>1951.00</ele>
        <time>2015-02-18T14:50:50.61Z</time>
      </trkpt>
      <trkpt lat="42.344307" lon="2.234924">
        <ele>1950.60</ele>
        <time>2015-02-19T05:42:43.62Z</time>
      </trkpt>
      <trkpt lat="42.344150" lon="2.234990">
        <ele>1950.60</ele>
        <time>2015-02-19T10:49:52.30Z</time>
      </trkpt>
      <trkpt lat="42.344070" lon="2.235008">
        <ele>1950.80</ele>
        <time>2015-02-19T13:21:22.98Z</time>
      </trkpt>
      <trkpt lat="42.343830" lon="2.235020">
        <ele>1950.40</ele>
        <time>2015-02-19T20:50:03.90Z</time>
      </trkpt>
      <trkpt lat="42.343675" lon="2.234994">
        <ele>1950.20</ele>
        <time>2015-02-20T01:41:51.50Z</time>
      </trkpt>
      <trkpt lat="42.343602" lon="2.234956">
        <ele>1950.20</ele>
        <time>2015-02-20T04:07:59.12Z</time>
      </trkpt>
      <trkpt lat="42.343529" lon="2.234917">
        <ele>1950.00</ele>
        <time>2015-02-20T06:34:36.84Z</time>
      </trkpt>
      <trkpt lat="42.343279" lon="2.234660">
        <ele>1949.80</ele>
        <time>2015-02-20T16:21:11.96Z</time>
      </trkpt>
      <trkpt lat="42.343111" lon="2.234436">
        <ele>1949.60</ele>
        <time>2015-02-20T23:41:51.73Z</time>
      </trkpt>
      <trkpt lat="42.342885" lon="2.234113">
        <ele>1949.20</ele>
        <time>2015-02-21T09:56:01.80Z</time>
      </trkpt>
      <trkpt lat="42.342662" lon="2.233776">
        <ele>1949.20</ele>
        <time>2015-02-21T20:20:37.59Z</time>
      </trkpt>
      <trkpt lat="42.342543" lon="2.233625">
        <ele>1949.00</ele>
        <time>2015-02-22T01:25:25.58Z</time>
      </trkpt>
      <trkpt lat="42.342315" lon="2.233311">
        <ele>1948.60</ele>
        <time>2015-02-22T11:33:14.69Z</time>
      </trkpt>
      <trkpt lat="42.342079" lon="2.232999">
        <ele>1948.20</ele>
        <time>2015-02-22T21:49:41.81Z</time>
      </trkpt>
      <trkpt lat="42.341682" lon="2.232479">
        <ele>1948.00</ele>
        <time>2015-02-23T15:02:01.81Z</time>
      </trkpt>
      <trkpt lat="42.341288" lon="2.231930">
        <ele>1947.60</ele>
        <time>2015-02-24T08:38:41.98Z</time>
      </trkpt>
      <trkpt lat="42.341125" lon="2.231678">
        <ele>1947.60</ele>
        <time>2015-02-24T16:21:06.93Z</time>
      </trkpt>
      <trkpt lat="42.341083" lon="2.231585">
        <ele>1947.60</ele>
        <time>2015-02-24T18:51:36.79Z</time>
      </trkpt>
      <trkpt lat="42.341041" lon="2.231372">
        <ele>1947.60</ele>
        <time>2015-02-24T23:56:01.90Z</time>
      </trkpt>
      <trkpt lat="42.341037" lon="2.230943">
        <ele>1947.40</ele>
        <time>2015-02-25T09:48:29.16Z</time>
      </trkpt>
      <trkpt lat="42.341044" lon="2.230835">
        <ele>1947.40</ele>
        <time>2015-02-25T12:18:11.74Z</time>
      </trkpt>
      <trkpt lat="42.341085" lon="2.230112">
        <ele>1947.40</ele>
        <time>2015-02-26T04:59:31.31Z</time>
      </trkpt>
      <trkpt lat="42.341081" lon="2.229551">
        <ele>1946.80</ele>
        <time>2015-02-26T17:54:14.63Z</time>
      </trkpt>
      <trkpt lat="42.340964" lon="2.229462">
        <ele>1947.00</ele>
        <time>2015-02-26T22:05:00.54Z</time>
      </trkpt>
      <trkpt lat="42.340748" lon="2.229485">
        <ele>1947.20</ele>
        <time>2015-02-27T04:49:47.72Z</time>
      </trkpt>
      <trkpt lat="42.340607" lon="2.229521">
        <ele>1947.40</ele>
        <time>2015-02-27T09:17:51.96Z</time>
      </trkpt>
      <trkpt lat="42.340398" lon="2.229572">
        <ele>1947.20</ele>
        <time>2015-02-27T15:54:37.64Z</time>
      </trkpt>
      <trkpt lat="42.340326" lon="2.229563">
        <ele>1947.40</ele>
        <time>2015-02-27T18:09:42.79Z</time>
      </trkpt>
      <trkpt lat="42.340196" lon="2.229472">
        <ele>1947.40</ele>
        <time>2015-02-27T22:43:10.06Z</time>
      </trkpt>
      <trkpt lat="42.340138" lon="2.229299">
        <ele>1947.40</ele>
        <time>2015-02-28T03:05:29.55Z</time>
      </trkpt>
      <trkpt lat="42.340104" lon="2.229017">
        <ele>1947.20</ele>
        <time>2015-02-28T09:40:03.55Z</time>
      </trkpt>
      <trkpt lat="42.340097" lon="2.228919">
        <ele>1947.20</ele>
        <time>2015-02-28T11:56:01.20Z</time>
      </trkpt>
      <trkpt lat="42.340050" lon="2.228130">
        <ele>1946.80</ele>
        <time>2015-03-01T06:09:06.09Z</time>
      </trkpt>
      <trkpt lat="42.340017" lon="2.227749">
        <ele>1946.60</ele>
        <time>2015-03-01T14:58:50.01Z</time>
      </trkpt>
      <trkpt lat="42.339973" lon="2.227481">
        <ele>1946.20</ele>
        <time>2015-03-01T21:17:56.45Z</time>
      </trkpt>
      <trkpt lat="42.339925" lon="2.227424">
        <ele>1946.00</ele>
        <time>2015-03-01T23:17:15.68Z</time>
      </trkpt>
      <trkpt lat="42.339799" lon="2.227395">
        <ele>1945.60</ele>
        <time>2015-03-02T03:16:02.45Z</time>
      </trkpt>
      <trkpt lat="42.339737" lon="2.227446">
        <ele>1945.40</ele>
        <time>2015-03-02T05:31:36.10Z</time>
      </trkpt>
      <trkpt lat="42.339677" lon="2.227501">
        <ele>1945.60</ele>
        <time>2015-03-02T07:47:00.21Z</time>
      </trkpt>
      <trkpt lat="42.339503" lon="2.227686">
        <ele>1945.60</ele>
        <time>2015-03-02T14:40:27.04Z</time>
      </trkpt>
      <trkpt lat="42.339372" lon="2.227819">
        <ele>1945.80</ele>
        <time>2015-03-02T19:46:26.42Z</time>
      </trkpt>
      <trkpt lat="42.338968" lon="2.228230">
        <ele>1946.20</ele>
        <time>2015-03-03T11:30:47.70Z</time>
      </trkpt>
      <trkpt lat="42.338560" lon="2.228619">
        <ele>1945.40</ele>
        <time>2015-03-04T03:03:18.54Z</time>
      </trkpt>
      <trkpt lat="42.338236" lon="2.228955">
        <ele>1945.20</ele>
        <time>2015-03-04T15:45:59.93Z</time>
      </trkpt>
      <trkpt lat="42.337759" lon="2.229409">
        <ele>1944.80</ele>
        <time>2015-03-05T09:55:35.78Z</time>
      </trkpt>
      <trkpt lat="42.337696" lon="2.229473">
        <ele>1945.00</ele>
        <time>2015-03-05T12:22:47.08Z</time>
      </trkpt>
      <trkpt lat="42.337433" lon="2.229720">
        <ele>1944.20</ele>
        <time>2015-03-05T22:20:55.45Z</time>
      </trkpt>
      <trkpt lat="42.337237" lon="2.229916">
        <ele>1943.80</ele>
        <time>2015-03-06T05:56:16.67Z</time>
      </trkpt>
      <trkpt lat="42.336869" lon="2.230330">
        <ele>1943.60</ele>
        <time>2015-03-06T20:50:27.04Z</time>
      </trkpt>
      <trkpt lat="42.336844" lon="2.230535">
        <ele>1943.40</ele>
        <time>2015-03-07T01:37:22.88Z</time>
      </trkpt>
      <trkpt lat="42.336889" lon="2.230835">
        <ele>1943.40</ele>
        <time>2015-03-07T08:40:07.41Z</time>
      </trkpt>
      <trkpt lat="42.336874" lon="2.231116">
        <ele>1943.80</ele>
        <time>2015-03-07T15:09:11.60Z</time>
      </trkpt>
      <trkpt lat="42.336728" lon="2.231316">
        <ele>1943.60</ele>
        <time>2015-03-07T21:37:22.51Z</time>
      </trkpt>
      <trkpt lat="42.336432" lon="2.231644">
        <ele>1943.20</ele>
        <time>2015-03-08T09:32:12.48Z</time>
      </trkpt>
      <trkpt lat="42.336375" lon="2.231721">
        <ele>1943.00</ele>
        <time>2015-03-08T12:02:41.95Z</time>
      </trkpt>
      <trkpt lat="42.336235" lon="2.231985">
        <ele>1942.80</ele>
        <time>2015-03-08T19:31:24.01Z</time>
      </trkpt>
      <trkpt lat="42.336213" lon="2.232086">
        <ele>1942.80</ele>
        <time>2015-03-08T21:56:48.69Z</time>
      </trkpt>
      <trkpt lat="42.336191" lon="2.232409">
        <ele>1942.60</ele>
        <time>2015-03-09T05:24:46.02Z</time>
      </trkpt>
      <trkpt lat="42.336188" lon="2.232518">
        <ele>1942.60</ele>
        <time>2015-03-09T07:55:24.08Z</time>
      </trkpt>
      <trkpt lat="42.336188" lon="2.233164">
        <ele>1943.20</ele>
        <time>2015-03-09T22:47:31.99Z</time>
      </trkpt>
      <trkpt lat="42.336191" lon="2.233753">
        <ele>1942.20</ele>
        <time>2015-03-10T12:20:58.01Z</time>
      </trkpt>
      <trkpt lat="42.336191" lon="2.233851">
        <ele>1942.00</ele>
        <time>2015-03-10T14:36:18.34Z</time>
      </trkpt>
      <trkpt lat="42.336157" lon="2.234568">
        <ele>1941.60</ele>
        <time>2015-03-11T07:08:31.49Z</time>
      </trkpt>
      <trkpt lat="42.336122" lon="2.234660">
        <ele>1941.20</ele>
        <time>2015-03-11T09:31:25Z</time>
      </trkpt>
      <trkpt lat="42.336024" lon="2.234817">
        <ele>1941.20</ele>
        <time>2015-03-11T14:15:11.81Z</time>
      </trkpt>
      <trkpt lat="42.335913" lon="2.234956">
        <ele>1941.60</ele>
        <time>2015-03-11T18:57:46.77Z</time>
      </trkpt>
      <trkpt lat="42.335800" lon="2.235095">
        <ele>1941.40</ele>
        <time>2015-03-11T23:43:06.94Z</time>
      </trkpt>
      <trkpt lat="42.335742" lon="2.235161">
        <ele>1941.60</ele>
        <time>2015-03-12T02:04:42.64Z</time>
      </trkpt>
      <trkpt lat="42.335352" lon="2.235552">
        <ele>1941.00</ele>
        <time>2015-03-12T17:11:36.14Z</time>
      </trkpt>
      <trkpt lat="42.335289" lon="2.235620">
        <ele>1941.00</ele>
        <time>2015-03-12T19:42:10.49Z</time>
      </trkpt>
      <trkpt lat="42.334863" lon="2.236101">
        <ele>1940.40</ele>
        <time>2015-03-13T12:58:50.24Z</time>
      </trkpt>
      <trkpt lat="42.334807" lon="2.236172">
        <ele>1940.40</ele>
        <time>2015-03-13T15:22:13.52Z</time>
      </trkpt>
      <trkpt lat="42.334401" lon="2.236639">
        <ele>1939.80</ele>
        <time>2015-03-14T07:57:51.46Z</time>
      </trkpt>
      <trkpt lat="42.333967" lon="2.237109">
        <ele>1939.40</ele>
        <time>2015-03-15T01:16:28.98Z</time>
      </trkpt>
      <trkpt lat="42.333901" lon="2.237171">
        <ele>1939.20</ele>
        <time>2015-03-15T03:46:36.07Z</time>
      </trkpt>
      <trkpt lat="42.333654" lon="2.237439">
        <ele>1938.80</ele>
        <time>2015-03-15T13:38:09.09Z</time>
      </trkpt>
      <trkpt lat="42.333277" lon="2.237762">
        <ele>1964.53</ele>
        <time>2015-03-16T03:31:51.40Z</time>
      </trkpt>
      <trkpt lat="42.333286" lon="2.237739">
        <ele>1964.73</ele>
        <time>2015-03-16T04:07:47.82Z</time>
      </trkpt>
      <trkpt lat="42.333295" lon="2.237718">
        <ele>1964.86</ele>
        <time>2015-03-16T04:41:19.26Z</time>
      </trkpt>
      <trkpt lat="42.333309" lon="2.237675">
        <ele>1965.11</ele>
        <time>2015-03-16T05:46:12.71Z</time>
      </trkpt>
      <trkpt lat="42.333313" lon="2.237650">
        <ele>1965.31</ele>
        <time>2015-03-16T06:21:32.28Z</time>
      </trkpt>
      <trkpt lat="42.333317" lon="2.237626">
        <ele>1965.42</ele>
        <time>2015-03-16T06:55:30.95Z</time>
      </trkpt>
      <trkpt lat="42.333322" lon="2.237601">
        <ele>1965.52</ele>
        <time>2015-03-16T07:31:17.03Z</time>
      </trkpt>
      <trkpt lat="42.333331" lon="2.237577">
        <ele>1965.78</ele>
        <time>2015-03-16T08:08:27.03Z</time>
      </trkpt>
      <trkpt lat="42.333341" lon="2.237556">
        <ele>1965.86</ele>
        <time>2015-03-16T08:42:56.96Z</time>
      </trkpt>
      <trkpt lat="42.333348" lon="2.237531">
        <ele>1965.97</ele>
        <time>2015-03-16T09:19:52.19Z</time>
      </trkpt>
      <trkpt lat="42.333351" lon="2.237502">
        <ele>1966.09</ele>
        <time>2015-03-16T10:00:18.67Z</time>
      </trkpt>
      <trkpt lat="42.333342" lon="2.237458">
        <ele>1966.28</ele>
        <time>2015-03-16T11:03:21.70Z</time>
      </trkpt>
      <trkpt lat="42.333332" lon="2.237413">
        <ele>1966.39</ele>
        <time>2015-03-16T12:08:15.43Z</time>
      </trkpt>
      <trkpt lat="42.333320" lon="2.237372">
        <ele>1966.44</ele>
        <time>2015-03-16T13:09:09.46Z</time>
      </trkpt>
      <trkpt lat="42.333325" lon="2.237344">
        <ele>1966.55</ele>
        <time>2015-03-16T13:48:56.40Z</time>
      </trkpt>
      <trkpt lat="42.333316" lon="2.237370">
        <ele>1966.31</ele>
        <time>2015-03-16T14:28:35.37Z</time>
      </trkpt>
      <trkpt lat="42.333316" lon="2.237348">
        <ele>1966.41</ele>
        <time>2015-03-16T14:58:58.39Z</time>
      </trkpt>
      <trkpt lat="42.333320" lon="2.237357">
        <ele>1966.42</ele>
        <time>2015-03-16T15:15:47.23Z</time>
      </trkpt>
      <trkpt lat="42.333327" lon="2.237349">
        <ele>1966.55</ele>
        <time>2015-03-16T15:32:54.44Z</time>
      </trkpt>
      <trkpt lat="42.333336" lon="2.237323">
        <ele>1966.65</ele>
        <time>2015-03-16T16:12:33.41Z</time>
      </trkpt>
      <trkpt lat="42.333330" lon="2.237289">
        <ele>1966.80</ele>
        <time>2015-03-16T17:00:49.96Z</time>
      </trkpt>
      <trkpt lat="42.333338" lon="2.237253">
        <ele>1966.93</ele>
        <time>2015-03-16T17:52:44.95Z</time>
      </trkpt>
      <trkpt lat="42.333355" lon="2.237217">
        <ele>1967.04</ele>
        <time>2015-03-16T18:51:44.76Z</time>
      </trkpt>
      <trkpt lat="42.333368" lon="2.237178">
        <ele>1967.31</ele>
        <time>2015-03-16T19:50:49.82Z</time>
      </trkpt>
      <trkpt lat="42.333378" lon="2.237138">
        <ele>1967.73</ele>
        <time>2015-03-16T20:49:08.80Z</time>
      </trkpt>
      <trkpt lat="42.333390" lon="2.237099">
        <ele>1968.08</ele>
        <time>2015-03-16T21:47:29.27Z</time>
      </trkpt>
      <trkpt lat="42.333398" lon="2.237062">
        <ele>1968.33</ele>
        <time>2015-03-16T22:40:43.70Z</time>
      </trkpt>
      <trkpt lat="42.333406" lon="2.237024">
        <ele>1968.62</ele>
        <time>2015-03-16T23:35:17.74Z</time>
      </trkpt>
      <trkpt lat="42.333414" lon="2.236989">
        <ele>1968.91</ele>
        <time>2015-03-17T00:25:53.46Z</time>
      </trkpt>
      <trkpt lat="42.333423" lon="2.236953">
        <ele>1969.39</ele>
        <time>2015-03-17T01:18:22.55Z</time>
      </trkpt>
      <trkpt lat="42.333428" lon="2.236917">
        <ele>1969.79</ele>
        <time>2015-03-17T02:08:57.85Z</time>
      </trkpt>
      <trkpt lat="42.333434" lon="2.236882">
        <ele>1970.21</ele>
        <time>2015-03-17T02:58:35.06Z</time>
      </trkpt>
      <trkpt lat="42.333440" lon="2.236850">
        <ele>1970.71</ele>
        <time>2015-03-17T03:44:10.68Z</time>
      </trkpt>
      <trkpt lat="42.333446" lon="2.236816">
        <ele>1971.26</ele>
        <time>2015-03-17T04:32:27.23Z</time>
      </trkpt>
      <trkpt lat="42.333452" lon="2.236784">
        <ele>1971.72</ele>
        <time>2015-03-17T05:18:02.84Z</time>
      </trkpt>
      <trkpt lat="42.333458" lon="2.236753">
        <ele>1972.18</ele>
        <time>2015-03-17T06:02:18.22Z</time>
      </trkpt>
      <trkpt lat="42.333465" lon="2.236722">
        <ele>1972.62</ele>
        <time>2015-03-17T06:47:04.18Z</time>
      </trkpt>
      <trkpt lat="42.333472" lon="2.236692">
        <ele>1973.15</ele>
        <time>2015-03-17T07:30:30.99Z</time>
      </trkpt>
      <trkpt lat="42.333479" lon="2.236662">
        <ele>1973.60</ele>
        <time>2015-03-17T08:13:57.81Z</time>
      </trkpt>
      <trkpt lat="42.333484" lon="2.236631">
        <ele>1974.11</ele>
        <time>2015-03-17T08:57:47.03Z</time>
      </trkpt>
      <trkpt lat="42.333491" lon="2.236601">
        <ele>1974.51</ele>
        <time>2015-03-17T09:41:13.85Z</time>
      </trkpt>
      <trkpt lat="42.333497" lon="2.236572">
        <ele>1974.98</ele>
        <time>2015-03-17T10:22:49.25Z</time>
      </trkpt>
      <trkpt lat="42.333504" lon="2.236547">
        <ele>1975.36</ele>
        <time>2015-03-17T10:59:44.48Z</time>
      </trkpt>
      <trkpt lat="42.333504" lon="2.236519">
        <ele>1975.62</ele>
        <time>2015-03-17T11:38:24.67Z</time>
      </trkpt>
      <trkpt lat="42.333505" lon="2.236492">
        <ele>1976.08</ele>
        <time>2015-03-17T12:15:44.81Z</time>
      </trkpt>
      <trkpt lat="42.333509" lon="2.236467">
        <ele>1976.36</ele>
        <time>2015-03-17T12:51:04.38Z</time>
      </trkpt>
      <trkpt lat="42.333516" lon="2.236439">
        <ele>1976.74</ele>
        <time>2015-03-17T13:31:53.66Z</time>
      </trkpt>
      <trkpt lat="42.333523" lon="2.236415">
        <ele>1977.18</ele>
        <time>2015-03-17T14:07:31.60Z</time>
      </trkpt>
      <trkpt lat="42.333530" lon="2.236390">
        <ele>1977.47</ele>
        <time>2015-03-17T14:44:26.82Z</time>
      </trkpt>
      <trkpt lat="42.333536" lon="2.236362">
        <ele>1977.81</ele>
        <time>2015-03-17T15:24:42.53Z</time>
      </trkpt>
      <trkpt lat="42.333543" lon="2.236335">
        <ele>1978.23</ele>
        <time>2015-03-17T16:04:13.46Z</time>
      </trkpt>
      <trkpt lat="42.333550" lon="2.236306">
        <ele>1978.70</ele>
        <time>2015-03-17T16:46:21.38Z</time>
      </trkpt>
      <trkpt lat="42.333555" lon="2.236278">
        <ele>1979.01</ele>
        <time>2015-03-17T17:26:08.31Z</time>
      </trkpt>
      <trkpt lat="42.333564" lon="2.236251">
        <ele>1979.45</ele>
        <time>2015-03-17T18:07:02.57Z</time>
      </trkpt>
      <trkpt lat="42.333574" lon="2.236225">
        <ele>1979.76</ele>
        <time>2015-03-17T18:47:31.20Z</time>
      </trkpt>
      <trkpt lat="42.333588" lon="2.236206">
        <ele>1980.02</ele>
        <time>2015-03-17T19:24:34.16Z</time>
      </trkpt>
      <trkpt lat="42.333597" lon="2.236178">
        <ele>1980.35</ele>
        <time>2015-03-17T20:06:44.19Z</time>
      </trkpt>
      <trkpt lat="42.333604" lon="2.236151">
        <ele>1980.63</ele>
        <time>2015-03-17T20:46:15.12Z</time>
      </trkpt>
      <trkpt lat="42.333610" lon="2.236125">
        <ele>1980.97</ele>
        <time>2015-03-17T21:23:52.12Z</time>
      </trkpt>
      <trkpt lat="42.333618" lon="2.236100">
        <ele>1981.23</ele>
        <time>2015-03-17T22:01:29.48Z</time>
      </trkpt>
      <trkpt lat="42.333623" lon="2.236074">
        <ele>1981.72</ele>
        <time>2015-03-17T22:38:35.65Z</time>
      </trkpt>
      <trkpt lat="42.333631" lon="2.236052">
        <ele>1982.15</ele>
        <time>2015-03-17T23:12:27.28Z</time>
      </trkpt>
      <trkpt lat="42.333637" lon="2.236026">
        <ele>1982.55</ele>
        <time>2015-03-17T23:50:04.28Z</time>
      </trkpt>
      <trkpt lat="42.333647" lon="2.236001">
        <ele>1983.01</ele>
        <time>2015-03-18T00:29:19.70Z</time>
      </trkpt>
      <trkpt lat="42.333655" lon="2.235972">
        <ele>1983.41</ele>
        <time>2015-03-18T01:12:04.63Z</time>
      </trkpt>
      <trkpt lat="42.333663" lon="2.235945">
        <ele>1983.82</ele>
        <time>2015-03-18T01:52:14.98Z</time>
      </trkpt>
      <trkpt lat="42.333672" lon="2.235923">
        <ele>1984.23</ele>
        <time>2015-03-18T02:26:58.51Z</time>
      </trkpt>
      <trkpt lat="42.333680" lon="2.235899">
        <ele>1984.52</ele>
        <time>2015-03-18T03:03:20.08Z</time>
      </trkpt>
      <trkpt lat="42.333688" lon="2.235875">
        <ele>1984.82</ele>
        <time>2015-03-18T03:39:41.64Z</time>
      </trkpt>
      <trkpt lat="42.333693" lon="2.235850">
        <ele>1985.25</ele>
        <time>2015-03-18T04:15:27.71Z</time>
      </trkpt>
      <trkpt lat="42.333699" lon="2.235814">
        <ele>1985.62</ele>
        <time>2015-03-18T05:06:25.69Z</time>
      </trkpt>
      <trkpt lat="42.333704" lon="2.235779">
        <ele>1986.14</ele>
        <time>2015-03-18T05:55:39.58Z</time>
      </trkpt>
      <trkpt lat="42.333706" lon="2.235753">
        <ele>1986.60</ele>
        <time>2015-03-18T06:31:45.68Z</time>
      </trkpt>
      <trkpt lat="42.333710" lon="2.235718">
        <ele>1986.99</ele>
        <time>2015-03-18T07:20:40.36Z</time>
      </trkpt>
      <trkpt lat="42.333716" lon="2.235684">
        <ele>1987.46</ele>
        <time>2015-03-18T08:08:56.90Z</time>
      </trkpt>
      <trkpt lat="42.333719" lon="2.235657">
        <ele>1987.82</ele>
        <time>2015-03-18T08:46:39.35Z</time>
      </trkpt>
      <trkpt lat="42.333723" lon="2.235632">
        <ele>1988.11</ele>
        <time>2015-03-18T09:21:58.92Z</time>
      </trkpt>
      <trkpt lat="42.333724" lon="2.235605">
        <ele>1988.59</ele>
        <time>2015-03-18T09:59:19.04Z</time>
      </trkpt>
      <trkpt lat="42.333727" lon="2.235577">
        <ele>1988.95</ele>
        <time>2015-03-18T10:38:23.47Z</time>
      </trkpt>
      <trkpt lat="42.333731" lon="2.235550">
        <ele>1989.29</ele>
        <time>2015-03-18T11:16:25.28Z</time>
      </trkpt>
      <trkpt lat="42.333733" lon="2.235523">
        <ele>1989.69</ele>
        <time>2015-03-18T11:53:53.81Z</time>
      </trkpt>
      <trkpt lat="42.333735" lon="2.235495">
        <ele>1990.13</ele>
        <time>2015-03-18T12:32:44.80Z</time>
      </trkpt>
      <trkpt lat="42.333737" lon="2.235468">
        <ele>1990.56</ele>
        <time>2015-03-18T13:10:13.33Z</time>
      </trkpt>
      <trkpt lat="42.333739" lon="2.235440">
        <ele>1990.97</ele>
        <time>2015-03-18T13:49:04.32Z</time>
      </trkpt>
      <trkpt lat="42.333741" lon="2.235412">
        <ele>1991.44</ele>
        <time>2015-03-18T14:27:55.31Z</time>
      </trkpt>
      <trkpt lat="42.333742" lon="2.235382">
        <ele>1991.97</ele>
        <time>2015-03-18T15:09:23.75Z</time>
      </trkpt>
      <trkpt lat="42.333743" lon="2.235353">
        <ele>1992.33</ele>
        <time>2015-03-18T15:49:29.41Z</time>
      </trkpt>
      <trkpt lat="42.333745" lon="2.235322">
        <ele>1992.82</ele>
        <time>2015-03-18T16:32:27.95Z</time>
      </trkpt>
      <trkpt lat="42.333751" lon="2.235288">
        <ele>1993.31</ele>
        <time>2015-03-18T17:20:44.49Z</time>
      </trkpt>
      <trkpt lat="42.333752" lon="2.235253">
        <ele>1993.85</ele>
        <time>2015-03-18T18:09:06.88Z</time>
      </trkpt>
      <trkpt lat="42.333754" lon="2.235212">
        <ele>1994.46</ele>
        <time>2015-03-18T19:05:51.69Z</time>
      </trkpt>
      <trkpt lat="42.333758" lon="2.235178">
        <ele>1994.97</ele>
        <time>2015-03-18T19:53:24.51Z</time>
      </trkpt>
      <trkpt lat="42.333757" lon="2.235151">
        <ele>1995.40</ele>
        <time>2015-03-18T20:30:44.64Z</time>
      </trkpt>
      <trkpt lat="42.333759" lon="2.235123">
        <ele>1995.76</ele>
        <time>2015-03-18T21:09:35.63Z</time>
      </trkpt>
      <trkpt lat="42.333759" lon="2.235097">
        <ele>1996.13</ele>
        <time>2015-03-18T21:45:30.09Z</time>
      </trkpt>
      <trkpt lat="42.333755" lon="2.235066">
        <ele>1996.52</ele>
        <time>2015-03-18T22:28:57.70Z</time>
      </trkpt>
      <trkpt lat="42.333751" lon="2.235039">
        <ele>1996.94</ele>
        <time>2015-03-18T23:06:59.51Z</time>
      </trkpt>
      <trkpt lat="42.333748" lon="2.235013">
        <ele>1997.39</ele>
        <time>2015-03-18T23:43:20.05Z</time>
      </trkpt>
      <trkpt lat="42.333750" lon="2.234988">
        <ele>1997.77</ele>
        <time>2015-03-19T00:18:03.74Z</time>
      </trkpt>
      <trkpt lat="42.333748" lon="2.234955">
        <ele>1998.32</ele>
        <time>2015-03-19T01:03:47.42Z</time>
      </trkpt>
      <trkpt lat="42.333748" lon="2.234926">
        <ele>1998.81</ele>
        <time>2015-03-19T01:43:50.47Z</time>
      </trkpt>
      <trkpt lat="42.333743" lon="2.234890">
        <ele>1999.52</ele>
        <time>2015-03-19T02:34:25.76Z</time>
      </trkpt>
      <trkpt lat="42.333745" lon="2.234855">
        <ele>2000.19</ele>
        <time>2015-03-19T03:22:54.64Z</time>
      </trkpt>
      <trkpt lat="42.333744" lon="2.234822">
        <ele>2000.79</ele>
        <time>2015-03-19T04:08:31.44Z</time>
      </trkpt>
      <trkpt lat="42.333743" lon="2.234793">
        <ele>2001.32</ele>
        <time>2015-03-19T04:48:37.11Z</time>
      </trkpt>
      <trkpt lat="42.333741" lon="2.234768">
        <ele>2001.78</ele>
        <time>2015-03-19T05:23:20.80Z</time>
      </trkpt>
      <trkpt lat="42.333742" lon="2.234743">
        <ele>2002.25</ele>
        <time>2015-03-19T05:57:55.42Z</time>
      </trkpt>
      <trkpt lat="42.333742" lon="2.234715">
        <ele>2002.67</ele>
        <time>2015-03-19T06:36:35.61Z</time>
      </trkpt>
      <trkpt lat="42.333742" lon="2.234690">
        <ele>2002.95</ele>
        <time>2015-03-19T07:11:07.20Z</time>
      </trkpt>
      <trkpt lat="42.333739" lon="2.234666">
        <ele>2003.16</ele>
        <time>2015-03-19T07:44:44.16Z</time>
      </trkpt>
      <trkpt lat="42.333737" lon="2.234638">
        <ele>2003.55</ele>
        <time>2015-03-19T08:23:35.15Z</time>
      </trkpt>
      <trkpt lat="42.333734" lon="2.234614">
        <ele>2003.72</ele>
        <time>2015-03-19T08:57:12.12Z</time>
      </trkpt>
      <trkpt lat="42.333731" lon="2.234586">
        <ele>2004.01</ele>
        <time>2015-03-19T09:36:16.55Z</time>
      </trkpt>
      <trkpt lat="42.333727" lon="2.234560">
        <ele>2004.39</ele>
        <time>2015-03-19T10:12:57.17Z</time>
      </trkpt>
      <trkpt lat="42.333724" lon="2.234532">
        <ele>2004.63</ele>
        <time>2015-03-19T10:52:01.60Z</time>
      </trkpt>
      <trkpt lat="42.333720" lon="2.234505">
        <ele>2005.05</ele>
        <time>2015-03-19T11:30:03.41Z</time>
      </trkpt>
      <trkpt lat="42.333714" lon="2.234481">
        <ele>2005.28</ele>
        <time>2015-03-19T12:05:02.79Z</time>
      </trkpt>
      <trkpt lat="42.333712" lon="2.234456">
        <ele>2005.58</ele>
        <time>2015-03-19T12:39:46.48Z</time>
      </trkpt>
      <trkpt lat="42.333709" lon="2.234431">
        <ele>2005.88</ele>
        <time>2015-03-19T13:14:45.19Z</time>
      </trkpt>
      <trkpt lat="42.333702" lon="2.234396">
        <ele>2006.38</ele>
        <time>2015-03-19T14:04:49.69Z</time>
      </trkpt>
      <trkpt lat="42.333699" lon="2.234370">
        <ele>2006.80</ele>
        <time>2015-03-19T14:41:10.24Z</time>
      </trkpt>
      <trkpt lat="42.333695" lon="2.234346">
        <ele>2007.05</ele>
        <time>2015-03-19T15:15:08.89Z</time>
      </trkpt>
      <trkpt lat="42.333692" lon="2.234319">
        <ele>2007.30</ele>
        <time>2015-03-19T15:52:51.34Z</time>
      </trkpt>
      <trkpt lat="42.333688" lon="2.234293">
        <ele>2007.71</ele>
        <time>2015-03-19T16:29:31.97Z</time>
      </trkpt>
      <trkpt lat="42.333686" lon="2.234267">
        <ele>2008.01</ele>
        <time>2015-03-19T17:05:38.06Z</time>
      </trkpt>
      <trkpt lat="42.333684" lon="2.234239">
        <ele>2008.32</ele>
        <time>2015-03-19T17:44:29.05Z</time>
      </trkpt>
      <trkpt lat="42.333678" lon="2.234209">
        <ele>2008.72</ele>
        <time>2015-03-19T18:27:24.34Z</time>
      </trkpt>
      <trkpt lat="42.333673" lon="2.234180">
        <ele>2009.15</ele>
        <time>2015-03-19T19:08:31.89Z</time>
      </trkpt>
      <trkpt lat="42.333670" lon="2.234155">
        <ele>2009.36</ele>
        <time>2015-03-19T19:43:30.60Z</time>
      </trkpt>
      <trkpt lat="42.333670" lon="2.234129">
        <ele>2009.51</ele>
        <time>2015-03-19T20:19:25.06Z</time>
      </trkpt>
      <trkpt lat="42.333668" lon="2.234102">
        <ele>2009.63</ele>
        <time>2015-03-19T20:56:53.59Z</time>
      </trkpt>
      <trkpt lat="42.333664" lon="2.234075">
        <ele>2009.88</ele>
        <time>2015-03-19T21:34:55.40Z</time>
      </trkpt>
      <trkpt lat="42.333659" lon="2.234050">
        <ele>2009.98</ele>
        <time>2015-03-19T22:10:41.48Z</time>
      </trkpt>
      <trkpt lat="42.333656" lon="2.234019">
        <ele>2010.19</ele>
        <time>2015-03-19T22:53:52.18Z</time>
      </trkpt>
      <trkpt lat="42.333655" lon="2.233990">
        <ele>2010.36</ele>
        <time>2015-03-19T23:33:57.84Z</time>
      </trkpt>
      <trkpt lat="42.333655" lon="2.233954">
        <ele>2010.63</ele>
        <time>2015-03-20T00:23:40.94Z</time>
      </trkpt>
      <trkpt lat="42.333654" lon="2.233918">
        <ele>2010.81</ele>
        <time>2015-03-20T01:13:26.15Z</time>
      </trkpt>
      <trkpt lat="42.333654" lon="2.233881">
        <ele>2011.02</ele>
        <time>2015-03-20T02:04:32.11Z</time>
      </trkpt>
      <trkpt lat="42.333654" lon="2.233842">
        <ele>2011.24</ele>
        <time>2015-03-20T02:58:23.80Z</time>
      </trkpt>
      <trkpt lat="42.333653" lon="2.233801">
        <ele>2011.37</ele>
        <time>2015-03-20T03:55:03.07Z</time>
      </trkpt>
      <trkpt lat="42.333653" lon="2.233760">
        <ele>2011.59</ele>
        <time>2015-03-20T04:51:40.49Z</time>
      </trkpt>
      <trkpt lat="42.333648" lon="2.233720">
        <ele>2011.63</ele>
        <time>2015-03-20T05:47:42.10Z</time>
      </trkpt>
      <trkpt lat="42.333648" lon="2.233681">
        <ele>2011.73</ele>
        <time>2015-03-20T06:41:33.79Z</time>
      </trkpt>
      <trkpt lat="42.333645" lon="2.233639">
        <ele>2011.99</ele>
        <time>2015-03-20T07:39:50.28Z</time>
      </trkpt>
      <trkpt lat="42.333642" lon="2.233600">
        <ele>2012.17</ele>
        <time>2015-03-20T08:33:59.42Z</time>
      </trkpt>
      <trkpt lat="42.333644" lon="2.233561">
        <ele>2012.44</ele>
        <time>2015-03-20T09:27:58.88Z</time>
      </trkpt>
      <trkpt lat="42.333645" lon="2.233523">
        <ele>2012.72</ele>
        <time>2015-03-20T10:20:29.71Z</time>
      </trkpt>
      <trkpt lat="42.333640" lon="2.233489">
        <ele>2013.01</ele>
        <time>2015-03-20T11:08:22.29Z</time>
      </trkpt>
      <trkpt lat="42.333637" lon="2.233457">
        <ele>2013.21</ele>
        <time>2015-03-20T11:52:55.17Z</time>
      </trkpt>
      <trkpt lat="42.333638" lon="2.233422">
        <ele>2013.60</ele>
        <time>2015-03-20T12:41:17.57Z</time>
      </trkpt>
      <trkpt lat="42.333636" lon="2.233389">
        <ele>2013.72</ele>
        <time>2015-03-20T13:27:01.25Z</time>
      </trkpt>
      <trkpt lat="42.333634" lon="2.233358">
        <ele>2014.01</ele>
        <time>2015-03-20T14:09:59.80Z</time>
      </trkpt>
      <trkpt lat="42.333634" lon="2.233325">
        <ele>2014.40</ele>
        <time>2015-03-20T14:55:34.31Z</time>
      </trkpt>
      <trkpt lat="42.333636" lon="2.233293">
        <ele>2014.85</ele>
        <time>2015-03-20T15:39:55.41Z</time>
      </trkpt>
      <trkpt lat="42.333636" lon="2.233261">
        <ele>2015.30</ele>
        <time>2015-03-20T16:24:07.06Z</time>
      </trkpt>
      <trkpt lat="42.333638" lon="2.233228">
        <ele>2015.78</ele>
        <time>2015-03-20T17:09:50.74Z</time>
      </trkpt>
      <trkpt lat="42.333638" lon="2.233199">
        <ele>2016.15</ele>
        <time>2015-03-20T17:49:53.80Z</time>
      </trkpt>
      <trkpt lat="42.333637" lon="2.233169">
        <ele>2016.63</ele>
        <time>2015-03-20T18:31:22.24Z</time>
      </trkpt>
      <trkpt lat="42.333637" lon="2.233142">
        <ele>2016.93</ele>
        <time>2015-03-20T19:08:39.57Z</time>
      </trkpt>
      <trkpt lat="42.333639" lon="2.233110">
        <ele>2017.41</ele>
        <time>2015-03-20T19:53:00.67Z</time>
      </trkpt>
      <trkpt lat="42.333638" lon="2.233078">
        <ele>2017.91</ele>
        <time>2015-03-20T20:37:14.68Z</time>
      </trkpt>
      <trkpt lat="42.333638" lon="2.233049">
        <ele>2018.39</ele>
        <time>2015-03-20T21:17:17.74Z</time>
      </trkpt>
      <trkpt lat="42.333639" lon="2.233019">
        <ele>2018.64</ele>
        <time>2015-03-20T21:58:46.18Z</time>
      </trkpt>
      <trkpt lat="42.333637" lon="2.232990">
        <ele>2018.92</ele>
        <time>2015-03-20T22:38:59.67Z</time>
      </trkpt>
      <trkpt lat="42.333638" lon="2.232963">
        <ele>2019.26</ele>
        <time>2015-03-20T23:16:19.80Z</time>
      </trkpt>
      <trkpt lat="42.333640" lon="2.232934">
        <ele>2019.58</ele>
        <time>2015-03-20T23:56:33.29Z</time>
      </trkpt>
      <trkpt lat="42.333639" lon="2.232904">
        <ele>2019.88</ele>
        <time>2015-03-21T00:38:01.73Z</time>
      </trkpt>
      <trkpt lat="42.333638" lon="2.232875">
        <ele>2020.14</ele>
        <time>2015-03-21T01:18:07.40Z</time>
      </trkpt>
      <trkpt lat="42.333638" lon="2.232843">
        <ele>2020.43</ele>
        <time>2015-03-21T02:02:19.04Z</time>
      </trkpt>
      <trkpt lat="42.333635" lon="2.232810">
        <ele>2020.78</ele>
        <time>2015-03-21T02:48:14.15Z</time>
      </trkpt>
      <trkpt lat="42.333637" lon="2.232779">
        <ele>2021.13</ele>
        <time>2015-03-21T03:31:12.70Z</time>
      </trkpt>
      <trkpt lat="42.333640" lon="2.232746">
        <ele>2021.63</ele>
        <time>2015-03-21T04:17:07.81Z</time>
      </trkpt>
      <trkpt lat="42.333640" lon="2.232712">
        <ele>2022.11</ele>
        <time>2015-03-21T05:04:05.18Z</time>
      </trkpt>
      <trkpt lat="42.333642" lon="2.232679">
        <ele>2022.52</ele>
        <time>2015-03-21T05:49:48.86Z</time>
      </trkpt>
      <trkpt lat="42.333644" lon="2.232645">
        <ele>2023.02</ele>
        <time>2015-03-21T06:36:55.14Z</time>
      </trkpt>
      <trkpt lat="42.333647" lon="2.232615">
        <ele>2023.58</ele>
        <time>2015-03-21T07:18:43.70Z</time>
      </trkpt>
      <trkpt lat="42.333648" lon="2.232583">
        <ele>2023.96</ele>
        <time>2015-03-21T08:02:57.71Z</time>
      </trkpt>
      <trkpt lat="42.333649" lon="2.232556">
        <ele>2024.37</ele>
        <time>2015-03-21T08:40:17.85Z</time>
      </trkpt>
      <trkpt lat="42.333652" lon="2.232526">
        <ele>2024.85</ele>
        <time>2015-03-21T09:22:06.40Z</time>
      </trkpt>
      <trkpt lat="42.333653" lon="2.232497">
        <ele>2025.26</ele>
        <time>2015-03-21T10:02:12.07Z</time>
      </trkpt>
      <trkpt lat="42.333655" lon="2.232470">
        <ele>2025.60</ele>
        <time>2015-03-21T10:39:40.60Z</time>
      </trkpt>
      <trkpt lat="42.333657" lon="2.232444">
        <ele>2025.84</ele>
        <time>2015-03-21T11:15:46.69Z</time>
      </trkpt>
      <trkpt lat="42.333659" lon="2.232418">
        <ele>2026.12</ele>
        <time>2015-03-21T11:51:52.79Z</time>
      </trkpt>
      <trkpt lat="42.333661" lon="2.232388">
        <ele>2026.42</ele>
        <time>2015-03-21T12:33:28.79Z</time>
      </trkpt>
      <trkpt lat="42.333664" lon="2.232361">
        <ele>2026.71</ele>
        <time>2015-03-21T13:11:11.25Z</time>
      </trkpt>
      <trkpt lat="42.333665" lon="2.232336">
        <ele>2027.02</ele>
        <time>2015-03-21T13:45:45.88Z</time>
      </trkpt>
      <trkpt lat="42.333668" lon="2.232310">
        <ele>2027.32</ele>
        <time>2015-03-21T14:22:06.42Z</time>
      </trkpt>
      <trkpt lat="42.333669" lon="2.232280">
        <ele>2027.63</ele>
        <time>2015-03-21T15:03:34.86Z</time>
      </trkpt>
      <trkpt lat="42.333671" lon="2.232249">
        <ele>2027.92</ele>
        <time>2015-03-21T15:46:33.41Z</time>
      </trkpt>
      <trkpt lat="42.333667" lon="2.232216">
        <ele>2028.26</ele>
        <time>2015-03-21T16:32:44.43Z</time>
      </trkpt>
      <trkpt lat="42.333668" lon="2.232179">
        <ele>2028.41</ele>
        <time>2015-03-21T17:23:52.44Z</time>
      </trkpt>
      <trkpt lat="42.333675" lon="2.232140">
        <ele>2028.55</ele>
        <time>2015-03-21T18:19:18.03Z</time>
      </trkpt>
      <trkpt lat="42.333678" lon="2.232098">
        <ele>2028.73</ele>
        <time>2015-03-21T19:17:34.52Z</time>
      </trkpt>
      <trkpt lat="42.333684" lon="2.232054">
        <ele>2028.92</ele>
        <time>2015-03-21T20:19:22.04Z</time>
      </trkpt>
      <trkpt lat="42.333688" lon="2.232009">
        <ele>2029.09</ele>
        <time>2015-03-21T21:21:57.78Z</time>
      </trkpt>
      <trkpt lat="42.333690" lon="2.231962">
        <ele>2029.21</ele>
        <time>2015-03-21T22:26:58.82Z</time>
      </trkpt>
      <trkpt lat="42.333696" lon="2.231921">
        <ele>2029.41</ele>
        <time>2015-03-21T23:24:42.17Z</time>
      </trkpt>
      <trkpt lat="42.333698" lon="2.231881">
        <ele>2029.53</ele>
        <time>2015-03-22T00:20:04.30Z</time>
      </trkpt>
      <trkpt lat="42.333700" lon="2.231841">
        <ele>2029.77</ele>
        <time>2015-03-22T01:15:26.43Z</time>
      </trkpt>
      <trkpt lat="42.333701" lon="2.231797">
        <ele>2029.92</ele>
        <time>2015-03-22T02:16:14.16Z</time>
      </trkpt>
      <trkpt lat="42.333700" lon="2.231752">
        <ele>2030.04</ele>
        <time>2015-03-22T03:18:24.71Z</time>
      </trkpt>
      <trkpt lat="42.333700" lon="2.231707">
        <ele>2030.28</ele>
        <time>2015-03-22T04:20:33.59Z</time>
      </trkpt>
      <trkpt lat="42.333701" lon="2.231662">
        <ele>2030.47</ele>
        <time>2015-03-22T05:22:44.14Z</time>
      </trkpt>
      <trkpt lat="42.333701" lon="2.231618">
        <ele>2030.78</ele>
        <time>2015-03-22T06:23:30.15Z</time>
      </trkpt>
      <trkpt lat="42.333701" lon="2.231576">
        <ele>2031.02</ele>
        <time>2015-03-22T07:21:30.43Z</time>
      </trkpt>
      <trkpt lat="42.333701" lon="2.231535">
        <ele>2031.40</ele>
        <time>2015-03-22T08:18:07.85Z</time>
      </trkpt>
      <trkpt lat="42.333700" lon="2.231494">
        <ele>2031.61</ele>
        <time>2015-03-22T09:14:47.11Z</time>
      </trkpt>
      <trkpt lat="42.333700" lon="2.231457">
        <ele>2031.83</ele>
        <time>2015-03-22T10:05:53.07Z</time>
      </trkpt>
      <trkpt lat="42.333698" lon="2.231421">
        <ele>2032.11</ele>
        <time>2015-03-22T10:55:44.59Z</time>
      </trkpt>
      <trkpt lat="42.333698" lon="2.231389">
        <ele>2032.37</ele>
        <time>2015-03-22T11:39:56.23Z</time>
      </trkpt>
      <trkpt lat="42.333697" lon="2.231354">
        <ele>2032.62</ele>
        <time>2015-03-22T12:28:18.63Z</time>
      </trkpt>
      <trkpt lat="42.333695" lon="2.231319">
        <ele>2033.06</ele>
        <time>2015-03-22T13:16:47.51Z</time>
      </trkpt>
      <trkpt lat="42.333694" lon="2.231285">
        <ele>2033.38</ele>
        <time>2015-03-22T14:03:47.11Z</time>
      </trkpt>
      <trkpt lat="42.333695" lon="2.231251">
        <ele>2033.68</ele>
        <time>2015-03-22T14:50:46.71Z</time>
      </trkpt>
      <trkpt lat="42.333700" lon="2.231221">
        <ele>2033.99</ele>
        <time>2015-03-22T15:33:15.03Z</time>
      </trkpt>
      <trkpt lat="42.333703" lon="2.231189">
        <ele>2034.34</ele>
        <time>2015-03-22T16:17:47.91Z</time>
      </trkpt>
      <trkpt lat="42.333711" lon="2.231157">
        <ele>2034.62</ele>
        <time>2015-03-22T17:04:27.08Z</time>
      </trkpt>
      <trkpt lat="42.333727" lon="2.231129">
        <ele>2034.90</ele>
        <time>2015-03-22T17:53:19.64Z</time>
      </trkpt>
      <trkpt lat="42.333743" lon="2.231097">
        <ele>2035.12</ele>
        <time>2015-03-22T18:46:40.87Z</time>
      </trkpt>
      <trkpt lat="42.333764" lon="2.231063">
        <ele>2035.33</ele>
        <time>2015-03-22T19:47:52.21Z</time>
      </trkpt>
      <trkpt lat="42.333787" lon="2.231027">
        <ele>2035.41</ele>
        <time>2015-03-22T20:53:35.02Z</time>
      </trkpt>
      <trkpt lat="42.333798" lon="2.231006">
        <ele>2035.59</ele>
        <time>2015-03-22T21:29:07.73Z</time>
      </trkpt>
      <trkpt lat="42.333808" lon="2.230986">
        <ele>2035.69</ele>
        <time>2015-03-22T22:02:28.50Z</time>
      </trkpt>
      <trkpt lat="42.333820" lon="2.230967">
        <ele>2035.67</ele>
        <time>2015-03-22T22:36:59.28Z</time>
      </trkpt>
      <trkpt lat="42.333832" lon="2.230948">
        <ele>2035.79</ele>
        <time>2015-03-22T23:11:30.06Z</time>
      </trkpt>
      <trkpt lat="42.333853" lon="2.230911">
        <ele>2035.83</ele>
        <time>2015-03-23T00:15:55.46Z</time>
      </trkpt>
      <trkpt lat="42.333873" lon="2.230872">
        <ele>2035.98</ele>
        <time>2015-03-23T01:21:28.62Z</time>
      </trkpt>
      <trkpt lat="42.333891" lon="2.230832">
        <ele>2036.06</ele>
        <time>2015-03-23T02:26:08.99Z</time>
      </trkpt>
      <trkpt lat="42.333910" lon="2.230799">
        <ele>2036.14</ele>
        <time>2015-03-23T03:23:55.04Z</time>
      </trkpt>
      <trkpt lat="42.333935" lon="2.230770">
        <ele>2036.18</ele>
        <time>2015-03-23T04:25:26.62Z</time>
      </trkpt>
      <trkpt lat="42.333958" lon="2.230735">
        <ele>2036.16</ele>
        <time>2015-03-23T05:30:07.11Z</time>
      </trkpt>
      <trkpt lat="42.333970" lon="2.230701">
        <ele>2036.23</ele>
        <time>2015-03-23T06:22:09.11Z</time>
      </trkpt>
      <trkpt lat="42.333979" lon="2.230670">
        <ele>2036.31</ele>
        <time>2015-03-23T07:08:08.88Z</time>
      </trkpt>
      <trkpt lat="42.333994" lon="2.230642">
        <ele>2036.45</ele>
        <time>2015-03-23T07:55:54.25Z</time>
      </trkpt>
      <trkpt lat="42.334009" lon="2.230612">
        <ele>2036.46</ele>
        <time>2015-03-23T08:45:55.40Z</time>
      </trkpt>
      <trkpt lat="42.334022" lon="2.230584">
        <ele>2036.46</ele>
        <time>2015-03-23T09:31:35.23Z</time>
      </trkpt>
      <trkpt lat="42.334038" lon="2.230551">
        <ele>2036.45</ele>
        <time>2015-03-23T10:26:05.42Z</time>
      </trkpt>
      <trkpt lat="42.334052" lon="2.230533">
        <ele>2036.51</ele>
        <time>2015-03-23T11:02:10.47Z</time>
      </trkpt>
      <trkpt lat="42.334064" lon="2.230512">
        <ele>2036.64</ele>
        <time>2015-03-23T11:38:49.88Z</time>
      </trkpt>
      <trkpt lat="42.334078" lon="2.230490">
        <ele>2036.72</ele>
        <time>2015-03-23T12:18:55.31Z</time>
      </trkpt>
      <trkpt lat="42.334092" lon="2.230467">
        <ele>2036.86</ele>
        <time>2015-03-23T13:00:04.12Z</time>
      </trkpt>
      <trkpt lat="42.334107" lon="2.230442">
        <ele>2037.07</ele>
        <time>2015-03-23T13:44:32.19Z</time>
      </trkpt>
      <trkpt lat="42.334120" lon="2.230417">
        <ele>2037.17</ele>
        <time>2015-03-23T14:26:44.96Z</time>
      </trkpt>
      <trkpt lat="42.334135" lon="2.230395">
        <ele>2037.11</ele>
        <time>2015-03-23T15:08:04.97Z</time>
      </trkpt>
      <trkpt lat="42.334146" lon="2.230374">
        <ele>2037.21</ele>
        <time>2015-03-23T15:43:37.67Z</time>
      </trkpt>
      <trkpt lat="42.334155" lon="2.230352">
        <ele>2037.47</ele>
        <time>2015-03-23T16:18:21.20Z</time>
      </trkpt>
      <trkpt lat="42.334166" lon="2.230329">
        <ele>2037.56</ele>
        <time>2015-03-23T16:56:11.14Z</time>
      </trkpt>
      <trkpt lat="42.334178" lon="2.230310">
        <ele>2037.47</ele>
        <time>2015-03-23T17:30:41.92Z</time>
      </trkpt>
      <trkpt lat="42.334192" lon="2.230294">
        <ele>2037.44</ele>
        <time>2015-03-23T18:04:56.31Z</time>
      </trkpt>
      <trkpt lat="42.334205" lon="2.230275">
        <ele>2037.35</ele>
        <time>2015-03-23T18:40:41.59Z</time>
      </trkpt>
      <trkpt lat="42.334218" lon="2.230255">
        <ele>2037.48</ele>
        <time>2015-03-23T19:17:28.40Z</time>
      </trkpt>
      <trkpt lat="42.334231" lon="2.230236">
        <ele>2037.42</ele>
        <time>2015-03-23T19:53:13.68Z</time>
      </trkpt>
      <trkpt lat="42.334246" lon="2.230216">
        <ele>2037.56</ele>
        <time>2015-03-23T20:32:34.54Z</time>
      </trkpt>
      <trkpt lat="42.334262" lon="2.230193">
        <ele>2037.59</ele>
        <time>2015-03-23T21:16:11.59Z</time>
      </trkpt>
      <trkpt lat="42.334280" lon="2.230170">
        <ele>2037.57</ele>
        <time>2015-03-23T22:02:27.08Z</time>
      </trkpt>
      <trkpt lat="42.334301" lon="2.230146">
        <ele>2037.52</ele>
        <time>2015-03-23T22:53:48.66Z</time>
      </trkpt>
      <trkpt lat="42.334322" lon="2.230124">
        <ele>2037.41</ele>
        <time>2015-03-23T23:43:25.99Z</time>
      </trkpt>
      <trkpt lat="42.334342" lon="2.230101">
        <ele>2037.48</ele>
        <time>2015-03-24T00:32:28.49Z</time>
      </trkpt>
      <trkpt lat="42.334362" lon="2.230075">
        <ele>2037.46</ele>
        <time>2015-03-24T01:24:17.77Z</time>
      </trkpt>
      <trkpt lat="42.334380" lon="2.230048">
        <ele>2037.59</ele>
        <time>2015-03-24T02:14:30.51Z</time>
      </trkpt>
      <trkpt lat="42.334396" lon="2.230021">
        <ele>2037.64</ele>
        <time>2015-03-24T03:02:17.94Z</time>
      </trkpt>
      <trkpt lat="42.334410" lon="2.229996">
        <ele>2037.78</ele>
        <time>2015-03-24T03:45:36.82Z</time>
      </trkpt>
      <trkpt lat="42.334422" lon="2.229974">
        <ele>2037.91</ele>
        <time>2015-03-24T04:23:22.35Z</time>
      </trkpt>
      <trkpt lat="42.334436" lon="2.229953">
        <ele>2038.10</ele>
        <time>2015-03-24T05:02:25.59Z</time>
      </trkpt>
      <trkpt lat="42.334452" lon="2.229932">
        <ele>2038.11</ele>
        <time>2015-03-24T05:44:04.52Z</time>
      </trkpt>
      <trkpt lat="42.334464" lon="2.229911">
        <ele>2038.23</ele>
        <time>2015-03-24T06:20:43.93Z</time>
      </trkpt>
      <trkpt lat="42.334484" lon="2.229873">
        <ele>2038.45</ele>
        <time>2015-03-24T07:25:09.27Z</time>
      </trkpt>
      <trkpt lat="42.334504" lon="2.229845">
        <ele>2038.51</ele>
        <time>2015-03-24T08:18:55.59Z</time>
      </trkpt>
      <trkpt lat="42.334532" lon="2.229813">
        <ele>2038.51</ele>
        <time>2015-03-24T09:27:24.37Z</time>
      </trkpt>
      <trkpt lat="42.334544" lon="2.229794">
        <ele>2038.62</ele>
        <time>2015-03-24T10:01:55.14Z</time>
      </trkpt>
      <trkpt lat="42.334558" lon="2.229776">
        <ele>2038.65</ele>
        <time>2015-03-24T10:38:00.18Z</time>
      </trkpt>
      <trkpt lat="42.334571" lon="2.229758">
        <ele>2038.66</ele>
        <time>2015-03-24T11:12:45.40Z</time>
      </trkpt>
      <trkpt lat="42.334584" lon="2.229740">
        <ele>2038.72</ele>
        <time>2015-03-24T11:47:30.63Z</time>
      </trkpt>
      <trkpt lat="42.334604" lon="2.229706">
        <ele>2038.96</ele>
        <time>2015-03-24T12:47:31.09Z</time>
      </trkpt>
      <trkpt lat="42.334622" lon="2.229677">
        <ele>2039.09</ele>
        <time>2015-03-24T13:39:48.86Z</time>
      </trkpt>
      <trkpt lat="42.334644" lon="2.229653">
        <ele>2039.05</ele>
        <time>2015-03-24T14:32:36.89Z</time>
      </trkpt>
      <trkpt lat="42.334660" lon="2.229626">
        <ele>2039.22</ele>
        <time>2015-03-24T15:20:24.32Z</time>
      </trkpt>
      <trkpt lat="42.334681" lon="2.229596">
        <ele>2039.24</ele>
        <time>2015-03-24T16:17:27.88Z</time>
      </trkpt>
      <trkpt lat="42.334701" lon="2.229561">
        <ele>2039.40</ele>
        <time>2015-03-24T17:18:33.55Z</time>
      </trkpt>
      <trkpt lat="42.334722" lon="2.229525">
        <ele>2039.62</ele>
        <time>2015-03-24T18:21:53.52Z</time>
      </trkpt>
      <trkpt lat="42.334740" lon="2.229485">
        <ele>2039.91</ele>
        <time>2015-03-24T19:26:33.85Z</time>
      </trkpt>
      <trkpt lat="42.334756" lon="2.229446">
        <ele>2040.48</ele>
        <time>2015-03-24T20:28:09.81Z</time>
      </trkpt>
      <trkpt lat="42.334772" lon="2.229412">
        <ele>2040.94</ele>
        <time>2015-03-24T21:23:49.57Z</time>
      </trkpt>
      <trkpt lat="42.334790" lon="2.229383">
        <ele>2041.26</ele>
        <time>2015-03-24T22:16:07.32Z</time>
      </trkpt>
      <trkpt lat="42.334812" lon="2.229357">
        <ele>2041.49</ele>
        <time>2015-03-24T23:10:41.93Z</time>
      </trkpt>
      <trkpt lat="42.334833" lon="2.229330">
        <ele>2041.65</ele>
        <time>2015-03-25T00:04:49.49Z</time>
      </trkpt>
      <trkpt lat="42.334850" lon="2.229303">
        <ele>2041.88</ele>
        <time>2015-03-25T00:53:48.32Z</time>
      </trkpt>
      <trkpt lat="42.334869" lon="2.229278">
        <ele>2041.96</ele>
        <time>2015-03-25T01:43:19.40Z</time>
      </trkpt>
      <trkpt lat="42.334888" lon="2.229251">
        <ele>2042.16</ele>
        <time>2015-03-25T02:34:48.32Z</time>
      </trkpt>
      <trkpt lat="42.334906" lon="2.229226">
        <ele>2042.30</ele>
        <time>2015-03-25T03:23:00.11Z</time>
      </trkpt>
      <trkpt lat="42.334922" lon="2.229195">
        <ele>2042.42</ele>
        <time>2015-03-25T04:15:13Z</time>
      </trkpt>
      <trkpt lat="42.334934" lon="2.229161">
        <ele>2042.83</ele>
        <time>2015-03-25T05:07:14.96Z</time>
      </trkpt>
      <trkpt lat="42.334947" lon="2.229124">
        <ele>2043.11</ele>
        <time>2015-03-25T06:03:49.55Z</time>
      </trkpt>
      <trkpt lat="42.334962" lon="2.229087">
        <ele>2043.42</ele>
        <time>2015-03-25T07:02:06.25Z</time>
      </trkpt>
      <trkpt lat="42.334976" lon="2.229050">
        <ele>2043.73</ele>
        <time>2015-03-25T07:59:30.45Z</time>
      </trkpt>
      <trkpt lat="42.334987" lon="2.229014">
        <ele>2044.20</ele>
        <time>2015-03-25T08:53:18.27Z</time>
      </trkpt>
      <trkpt lat="42.334992" lon="2.228978">
        <ele>2044.61</ele>
        <time>2015-03-25T09:43:53.51Z</time>
      </trkpt>
      <trkpt lat="42.335004" lon="2.228947">
        <ele>2044.99</ele>
        <time>2015-03-25T10:32:13.11Z</time>
      </trkpt>
      <trkpt lat="42.335018" lon="2.228916">
        <ele>2045.39</ele>
        <time>2015-03-25T11:22:23.28Z</time>
      </trkpt>
      <trkpt lat="42.335031" lon="2.228886">
        <ele>2045.73</ele>
        <time>2015-03-25T12:10:24.77Z</time>
      </trkpt>
      <trkpt lat="42.335049" lon="2.228861">
        <ele>2046.27</ele>
        <time>2015-03-25T12:58:36.56Z</time>
      </trkpt>
      <trkpt lat="42.335068" lon="2.228833">
        <ele>2046.69</ele>
        <time>2015-03-25T13:51:06.01Z</time>
      </trkpt>
      <trkpt lat="42.335085" lon="2.228808">
        <ele>2047.02</ele>
        <time>2015-03-25T14:38:00.72Z</time>
      </trkpt>
      <trkpt lat="42.335100" lon="2.228784">
        <ele>2047.43</ele>
        <time>2015-03-25T15:21:24.95Z</time>
      </trkpt>
      <trkpt lat="42.335116" lon="2.228762">
        <ele>2047.81</ele>
        <time>2015-03-25T16:04:02.27Z</time>
      </trkpt>
      <trkpt lat="42.335132" lon="2.228737">
        <ele>2048.14</ele>
        <time>2015-03-25T16:49:42.33Z</time>
      </trkpt>
      <trkpt lat="42.335148" lon="2.228715">
        <ele>2048.46</ele>
        <time>2015-03-25T17:32:19.65Z</time>
      </trkpt>
      <trkpt lat="42.335166" lon="2.228692">
        <ele>2048.80</ele>
        <time>2015-03-25T18:18:35.12Z</time>
      </trkpt>
      <trkpt lat="42.335181" lon="2.228669">
        <ele>2049.16</ele>
        <time>2015-03-25T19:00:56.63Z</time>
      </trkpt>
      <trkpt lat="42.335197" lon="2.228647">
        <ele>2049.34</ele>
        <time>2015-03-25T19:43:33.95Z</time>
      </trkpt>
      <trkpt lat="42.335213" lon="2.228624">
        <ele>2049.67</ele>
        <time>2015-03-25T20:27:10.97Z</time>
      </trkpt>
      <trkpt lat="42.335230" lon="2.228601">
        <ele>2049.95</ele>
        <time>2015-03-25T21:12:06.05Z</time>
      </trkpt>
      <trkpt lat="42.335246" lon="2.228578">
        <ele>2050.29</ele>
        <time>2015-03-25T21:55:43.07Z</time>
      </trkpt>
      <trkpt lat="42.335264" lon="2.228552">
        <ele>2050.58</ele>
        <time>2015-03-25T22:44:54.78Z</time>
      </trkpt>
      <trkpt lat="42.335281" lon="2.228527">
        <ele>2050.84</ele>
        <time>2015-03-25T23:31:49.49Z</time>
      </trkpt>
      <trkpt lat="42.335298" lon="2.228502">
        <ele>2051.12</ele>
        <time>2015-03-26T00:18:44.20Z</time>
      </trkpt>
      <trkpt lat="42.335315" lon="2.228476">
        <ele>2051.51</ele>
        <time>2015-03-26T01:06:40.44Z</time>
      </trkpt>
      <trkpt lat="42.335335" lon="2.228446">
        <ele>2051.96</ele>
        <time>2015-03-26T02:02:27.90Z</time>
      </trkpt>
      <trkpt lat="42.335358" lon="2.228417">
        <ele>2052.39</ele>
        <time>2015-03-26T03:01:12.28Z</time>
      </trkpt>
      <trkpt lat="42.335380" lon="2.228389">
        <ele>2052.80</ele>
        <time>2015-03-26T03:57:38.20Z</time>
      </trkpt>
      <trkpt lat="42.335400" lon="2.228362">
        <ele>2053.19</ele>
        <time>2015-03-26T04:50:25.44Z</time>
      </trkpt>
      <trkpt lat="42.335418" lon="2.228341">
        <ele>2053.32</ele>
        <time>2015-03-26T05:34:49.83Z</time>
      </trkpt>
      <trkpt lat="42.335433" lon="2.228321">
        <ele>2053.65</ele>
        <time>2015-03-26T06:14:10.67Z</time>
      </trkpt>
      <trkpt lat="42.335447" lon="2.228300">
        <ele>2053.94</ele>
        <time>2015-03-26T06:53:13.89Z</time>
      </trkpt>
      <trkpt lat="42.335465" lon="2.228278">
        <ele>2054.30</ele>
        <time>2015-03-26T07:38:33.13Z</time>
      </trkpt>
      <trkpt lat="42.335479" lon="2.228256">
        <ele>2054.66</ele>
        <time>2015-03-26T08:18:38.52Z</time>
      </trkpt>
      <trkpt lat="42.335496" lon="2.228235">
        <ele>2054.81</ele>
        <time>2015-03-26T09:01:39.06Z</time>
      </trkpt>
      <trkpt lat="42.335511" lon="2.228214">
        <ele>2055.12</ele>
        <time>2015-03-26T09:41:58.79Z</time>
      </trkpt>
      <trkpt lat="42.335529" lon="2.228192">
        <ele>2055.41</ele>
        <time>2015-03-26T10:27:18.02Z</time>
      </trkpt>
      <trkpt lat="42.335547" lon="2.228171">
        <ele>2055.65</ele>
        <time>2015-03-26T11:11:42.41Z</time>
      </trkpt>
      <trkpt lat="42.335565" lon="2.228148">
        <ele>2055.92</ele>
        <time>2015-03-26T11:57:57.88Z</time>
      </trkpt>
      <trkpt lat="42.335583" lon="2.228126">
        <ele>2056.19</ele>
        <time>2015-03-26T12:43:17.11Z</time>
      </trkpt>
      <trkpt lat="42.335601" lon="2.228105">
        <ele>2056.34</ele>
        <time>2015-03-26T13:27:41.50Z</time>
      </trkpt>
      <trkpt lat="42.335618" lon="2.228083">
        <ele>2056.55</ele>
        <time>2015-03-26T14:11:38.63Z</time>
      </trkpt>
      <trkpt lat="42.335634" lon="2.228062">
        <ele>2056.79</ele>
        <time>2015-03-26T14:53:17.54Z</time>
      </trkpt>
      <trkpt lat="42.335649" lon="2.228039">
        <ele>2057.11</ele>
        <time>2015-03-26T15:35:39.05Z</time>
      </trkpt>
      <trkpt lat="42.335665" lon="2.228015">
        <ele>2057.42</ele>
        <time>2015-03-26T16:20:17.01Z</time>
      </trkpt>
      <trkpt lat="42.335685" lon="2.227996">
        <ele>2057.55</ele>
        <time>2015-03-26T17:05:56.47Z</time>
      </trkpt>
      <trkpt lat="42.335709" lon="2.227972">
        <ele>2057.75</ele>
        <time>2015-03-26T18:01:41.96Z</time>
      </trkpt>
      <trkpt lat="42.335726" lon="2.227950">
        <ele>2058.01</ele>
        <time>2015-03-26T18:45:39.08Z</time>
      </trkpt>
      <trkpt lat="42.335740" lon="2.227924">
        <ele>2058.31</ele>
        <time>2015-03-26T19:30:04.44Z</time>
      </trkpt>
      <trkpt lat="42.335752" lon="2.227902">
        <ele>2058.72</ele>
        <time>2015-03-26T20:07:49.94Z</time>
      </trkpt>
      <trkpt lat="42.335770" lon="2.227883">
        <ele>2058.84</ele>
        <time>2015-03-26T20:50:29.18Z</time>
      </trkpt>
      <trkpt lat="42.335788" lon="2.227864">
        <ele>2058.98</ele>
        <time>2015-03-26T21:33:08.42Z</time>
      </trkpt>
      <trkpt lat="42.335803" lon="2.227846">
        <ele>2059.10</ele>
        <time>2015-03-26T22:10:36.02Z</time>
      </trkpt>
      <trkpt lat="42.335814" lon="2.227821">
        <ele>2059.44</ele>
        <time>2015-03-26T22:50:46.74Z</time>
      </trkpt>
      <trkpt lat="42.335829" lon="2.227800">
        <ele>2059.64</ele>
        <time>2015-03-26T23:31:06.46Z</time>
      </trkpt>
      <trkpt lat="42.335848" lon="2.227782">
        <ele>2059.79</ele>
        <time>2015-03-27T00:14:26.57Z</time>
      </trkpt>
      <trkpt lat="42.335864" lon="2.227764">
        <ele>2059.96</ele>
        <time>2015-03-27T00:53:19.21Z</time>
      </trkpt>
      <trkpt lat="42.335882" lon="2.227743">
        <ele>2060.18</ele>
        <time>2015-03-27T01:37:43.60Z</time>
      </trkpt>
      <trkpt lat="42.335900" lon="2.227723">
        <ele>2060.29</ele>
        <time>2015-03-27T02:21:14.62Z</time>
      </trkpt>
      <trkpt lat="42.335919" lon="2.227699">
        <ele>2060.52</ele>
        <time>2015-03-27T03:09:48.51Z</time>
      </trkpt>
      <trkpt lat="42.335940" lon="2.227676">
        <ele>2060.71</ele>
        <time>2015-03-27T04:00:17.26Z</time>
      </trkpt>
      <trkpt lat="42.335961" lon="2.227653">
        <ele>2060.91</ele>
        <time>2015-03-27T04:50:46Z</time>
      </trkpt>
      <trkpt lat="42.335980" lon="2.227629">
        <ele>2061.20</ele>
        <time>2015-03-27T05:39:19.89Z</time>
      </trkpt>
      <trkpt lat="42.336000" lon="2.227606">
        <ele>2061.33</ele>
        <time>2015-03-27T06:28:22.35Z</time>
      </trkpt>
      <trkpt lat="42.336021" lon="2.227583">
        <ele>2061.59</ele>
        <time>2015-03-27T07:18:51.09Z</time>
      </trkpt>
      <trkpt lat="42.336038" lon="2.227559">
        <ele>2061.86</ele>
        <time>2015-03-27T08:04:45.37Z</time>
      </trkpt>
      <trkpt lat="42.336058" lon="2.227538">
        <ele>2061.98</ele>
        <time>2015-03-27T08:52:03.31Z</time>
      </trkpt>
      <trkpt lat="42.336081" lon="2.227513">
        <ele>2062.26</ele>
        <time>2015-03-27T09:47:10.59Z</time>
      </trkpt>
      <trkpt lat="42.336101" lon="2.227488">
        <ele>2062.50</ele>
        <time>2015-03-27T10:38:03Z</time>
      </trkpt>
      <trkpt lat="42.336123" lon="2.227465">
        <ele>2062.77</ele>
        <time>2015-03-27T11:29:59.66Z</time>
      </trkpt>
      <trkpt lat="42.336143" lon="2.227442">
        <ele>2062.90</ele>
        <time>2015-03-27T12:19:02.12Z</time>
      </trkpt>
      <trkpt lat="42.336161" lon="2.227418">
        <ele>2063.22</ele>
        <time>2015-03-27T13:06:15.11Z</time>
      </trkpt>
      <trkpt lat="42.336179" lon="2.227398">
        <ele>2063.41</ele>
        <time>2015-03-27T13:49:46.13Z</time>
      </trkpt>
      <trkpt lat="42.336197" lon="2.227377">
        <ele>2063.74</ele>
        <time>2015-03-27T14:34:10.51Z</time>
      </trkpt>
      <trkpt lat="42.336216" lon="2.227354">
        <ele>2064.08</ele>
        <time>2015-03-27T15:21:48.49Z</time>
      </trkpt>
      <trkpt lat="42.336232" lon="2.227329">
        <ele>2064.45</ele>
        <time>2015-03-27T16:07:28.53Z</time>
      </trkpt>
      <trkpt lat="42.336251" lon="2.227307">
        <ele>2064.80</ele>
        <time>2015-03-27T16:54:11.93Z</time>
      </trkpt>
      <trkpt lat="42.336272" lon="2.227286">
        <ele>2064.98</ele>
        <time>2015-03-27T17:42:59.22Z</time>
      </trkpt>
      <trkpt lat="42.336292" lon="2.227263">
        <ele>2065.36</ele>
        <time>2015-03-27T18:32:01.68Z</time>
      </trkpt>
      <trkpt lat="42.336312" lon="2.227244">
        <ele>2065.57</ele>
        <time>2015-03-27T19:17:41.13Z</time>
      </trkpt>
      <trkpt lat="42.336333" lon="2.227226">
        <ele>2065.74</ele>
        <time>2015-03-27T20:04:07.84Z</time>
      </trkpt>
      <trkpt lat="42.336355" lon="2.227212">
        <ele>2065.89</ele>
        <time>2015-03-27T20:49:33.12Z</time>
      </trkpt>
      <trkpt lat="42.336380" lon="2.227197">
        <ele>2065.94</ele>
        <time>2015-03-27T21:40:38.74Z</time>
      </trkpt>
      <trkpt lat="42.336406" lon="2.227177">
        <ele>2066.23</ele>
        <time>2015-03-27T22:36:31.39Z</time>
      </trkpt>
      <trkpt lat="42.336431" lon="2.227158">
        <ele>2066.41</ele>
        <time>2015-03-27T23:30:05.69Z</time>
      </trkpt>
      <trkpt lat="42.336456" lon="2.227138">
        <ele>2066.64</ele>
        <time>2015-03-28T00:24:21.38Z</time>
      </trkpt>
      <trkpt lat="42.336480" lon="2.227119">
        <ele>2066.87</ele>
        <time>2015-03-28T01:16:18.44Z</time>
      </trkpt>
      <trkpt lat="42.336505" lon="2.227099">
        <ele>2067.18</ele>
        <time>2015-03-28T02:10:34.12Z</time>
      </trkpt>
      <trkpt lat="42.336532" lon="2.227077">
        <ele>2067.49</ele>
        <time>2015-03-28T03:09:27.25Z</time>
      </trkpt>
      <trkpt lat="42.336558" lon="2.227057">
        <ele>2067.77</ele>
        <time>2015-03-28T04:05:19.90Z</time>
      </trkpt>
      <trkpt lat="42.336582" lon="2.227035">
        <ele>2068.16</ele>
        <time>2015-03-28T04:59:29.60Z</time>
      </trkpt>
      <trkpt lat="42.336609" lon="2.227013">
        <ele>2068.48</ele>
        <time>2015-03-28T05:58:22.72Z</time>
      </trkpt>
      <trkpt lat="42.336634" lon="2.226992">
        <ele>2068.85</ele>
        <time>2015-03-28T06:53:21.36Z</time>
      </trkpt>
      <trkpt lat="42.336657" lon="2.226971">
        <ele>2069.25</ele>
        <time>2015-03-28T07:45:11.78Z</time>
      </trkpt>
      <trkpt lat="42.336682" lon="2.226952">
        <ele>2069.50</ele>
        <time>2015-03-28T08:38:46.08Z</time>
      </trkpt>
      <trkpt lat="42.336704" lon="2.226934">
        <ele>2069.91</ele>
        <time>2015-03-28T09:26:48.09Z</time>
      </trkpt>
      <trkpt lat="42.336724" lon="2.226918">
        <ele>2070.21</ele>
        <time>2015-03-28T10:10:12.63Z</time>
      </trkpt>
      <trkpt lat="42.336744" lon="2.226900">
        <ele>2070.70</ele>
        <time>2015-03-28T10:55:05.32Z</time>
      </trkpt>
      <trkpt lat="42.336768" lon="2.226881">
        <ele>2071.03</ele>
        <time>2015-03-28T11:47:02.37Z</time>
      </trkpt>
      <trkpt lat="42.336788" lon="2.226855">
        <ele>2071.75</ele>
        <time>2015-03-28T12:38:51.59Z</time>
      </trkpt>
      <trkpt lat="42.336803" lon="2.226832">
        <ele>2072.37</ele>
        <time>2015-03-28T13:21:13.07Z</time>
      </trkpt>
      <trkpt lat="42.336824" lon="2.226814">
        <ele>2072.69</ele>
        <time>2015-03-28T14:07:39.77Z</time>
      </trkpt>
      <trkpt lat="42.336848" lon="2.226798">
        <ele>2072.84</ele>
        <time>2015-03-28T14:57:38.95Z</time>
      </trkpt>
      <trkpt lat="42.336870" lon="2.226780">
        <ele>2073.24</ele>
        <time>2015-03-28T15:45:40.96Z</time>
      </trkpt>
      <trkpt lat="42.336893" lon="2.226762">
        <ele>2073.45</ele>
        <time>2015-03-28T16:35:19.46Z</time>
      </trkpt>
      <trkpt lat="42.336916" lon="2.226745">
        <ele>2073.76</ele>
        <time>2015-03-28T17:24:17.33Z</time>
      </trkpt>
      <trkpt lat="42.336935" lon="2.226729">
        <ele>2073.98</ele>
        <time>2015-03-28T18:06:06.04Z</time>
      </trkpt>
      <trkpt lat="42.336958" lon="2.226709">
        <ele>2074.31</ele>
        <time>2015-03-28T18:57:10.87Z</time>
      </trkpt>
      <trkpt lat="42.336980" lon="2.226697">
        <ele>2074.41</ele>
        <time>2015-03-28T19:41:29.85Z</time>
      </trkpt>
      <trkpt lat="42.337006" lon="2.226680">
        <ele>2074.69</ele>
        <time>2015-03-28T20:35:26.85Z</time>
      </trkpt>
      <trkpt lat="42.337028" lon="2.226663">
        <ele>2075.07</ele>
        <time>2015-03-28T21:22:46.86Z</time>
      </trkpt>
      <trkpt lat="42.337050" lon="2.226648">
        <ele>2075.31</ele>
        <time>2015-03-28T22:08:48.43Z</time>
      </trkpt>
      <trkpt lat="42.337072" lon="2.226634">
        <ele>2075.54</ele>
        <time>2015-03-28T22:54:13.71Z</time>
      </trkpt>
      <trkpt lat="42.337093" lon="2.226618">
        <ele>2075.91</ele>
        <time>2015-03-28T23:39:15.34Z</time>
      </trkpt>
      <trkpt lat="42.337118" lon="2.226598">
        <ele>2076.39</ele>
        <time>2015-03-29T00:33:31.02Z</time>
      </trkpt>
      <trkpt lat="42.337142" lon="2.226579">
        <ele>2076.71</ele>
        <time>2015-03-29T01:25:28.07Z</time>
      </trkpt>
      <trkpt lat="42.337166" lon="2.226559">
        <ele>2077.26</ele>
        <time>2015-03-29T02:18:07.77Z</time>
      </trkpt>
      <trkpt lat="42.337188" lon="2.226543">
        <ele>2077.43</ele>
        <time>2015-03-29T03:04:47.61Z</time>
      </trkpt>
      <trkpt lat="42.337210" lon="2.226525">
        <ele>2077.86</ele>
        <time>2015-03-29T03:52:49.62Z</time>
      </trkpt>
      <trkpt lat="42.337233" lon="2.226508">
        <ele>2078.11</ele>
        <time>2015-03-29T04:41:47.49Z</time>
      </trkpt>
      <trkpt lat="42.337253" lon="2.226493">
        <ele>2078.31</ele>
        <time>2015-03-29T05:24:30.85Z</time>
      </trkpt>
      <trkpt lat="42.337274" lon="2.226480">
        <ele>2078.59</ele>
        <time>2015-03-29T06:07:39.57Z</time>
      </trkpt>
      <trkpt lat="42.337295" lon="2.226462">
        <ele>2078.81</ele>
        <time>2015-03-29T06:54:06.26Z</time>
      </trkpt>
      <trkpt lat="42.337317" lon="2.226448">
        <ele>2079.03</ele>
        <time>2015-03-29T07:39:31.55Z</time>
      </trkpt>
      <trkpt lat="42.337341" lon="2.226435">
        <ele>2079.09</ele>
        <time>2015-03-29T08:27:49.44Z</time>
      </trkpt>
      <trkpt lat="42.337360" lon="2.226414">
        <ele>2079.53</ele>
        <time>2015-03-29T09:13:39.66Z</time>
      </trkpt>
      <trkpt lat="42.337374" lon="2.226390">
        <ele>2080.23</ele>
        <time>2015-03-29T09:55:52.91Z</time>
      </trkpt>
      <trkpt lat="42.337391" lon="2.226370">
        <ele>2080.89</ele>
        <time>2015-03-29T10:37:58.29Z</time>
      </trkpt>
      <trkpt lat="42.337411" lon="2.226354">
        <ele>2081.15</ele>
        <time>2015-03-29T11:21:22.83Z</time>
      </trkpt>
      <trkpt lat="42.337431" lon="2.226338">
        <ele>2081.59</ele>
        <time>2015-03-29T12:04:47.36Z</time>
      </trkpt>
      <trkpt lat="42.337450" lon="2.226320">
        <ele>2081.92</ele>
        <time>2015-03-29T12:48:07.45Z</time>
      </trkpt>
      <trkpt lat="42.337470" lon="2.226306">
        <ele>2082.23</ele>
        <time>2015-03-29T13:30:11.67Z</time>
      </trkpt>
      <trkpt lat="42.337489" lon="2.226291">
        <ele>2082.41</ele>
        <time>2015-03-29T14:11:17.59Z</time>
      </trkpt>
      <trkpt lat="42.337507" lon="2.226277">
        <ele>2082.77</ele>
        <time>2015-03-29T14:50:04.97Z</time>
      </trkpt>
      <trkpt lat="42.337526" lon="2.226262">
        <ele>2083.13</ele>
        <time>2015-03-29T15:31:10.89Z</time>
      </trkpt>
      <trkpt lat="42.337545" lon="2.226248">
        <ele>2083.47</ele>
        <time>2015-03-29T16:11:36.10Z</time>
      </trkpt>
      <trkpt lat="42.337564" lon="2.226234">
        <ele>2083.66</ele>
        <time>2015-03-29T16:52:01.31Z</time>
      </trkpt>
      <trkpt lat="42.337585" lon="2.226220">
        <ele>2083.97</ele>
        <time>2015-03-29T17:35:45.59Z</time>
      </trkpt>
      <trkpt lat="42.337602" lon="2.226202">
        <ele>2084.43</ele>
        <time>2015-03-29T18:16:05.46Z</time>
      </trkpt>
      <trkpt lat="42.337622" lon="2.226188">
        <ele>2084.70</ele>
        <time>2015-03-29T18:58:09.67Z</time>
      </trkpt>
      <trkpt lat="42.337643" lon="2.226172">
        <ele>2085.00</ele>
        <time>2015-03-29T19:43:11.30Z</time>
      </trkpt>
      <trkpt lat="42.337663" lon="2.226156">
        <ele>2085.28</ele>
        <time>2015-03-29T20:26:35.83Z</time>
      </trkpt>
      <trkpt lat="42.337684" lon="2.226138">
        <ele>2085.61</ele>
        <time>2015-03-29T21:13:02.52Z</time>
      </trkpt>
      <trkpt lat="42.337705" lon="2.226122">
        <ele>2085.93</ele>
        <time>2015-03-29T21:58:04.15Z</time>
      </trkpt>
      <trkpt lat="42.337727" lon="2.226103">
        <ele>2086.21</ele>
        <time>2015-03-29T22:46:49.89Z</time>
      </trkpt>
      <trkpt lat="42.337748" lon="2.226084">
        <ele>2086.68</ele>
        <time>2015-03-29T23:34:01.78Z</time>
      </trkpt>
      <trkpt lat="42.337768" lon="2.226068">
        <ele>2086.94</ele>
        <time>2015-03-30T00:17:26.32Z</time>
      </trkpt>
      <trkpt lat="42.337785" lon="2.226052">
        <ele>2087.28</ele>
        <time>2015-03-30T00:56:07.72Z</time>
      </trkpt>
      <trkpt lat="42.337806" lon="2.226036">
        <ele>2087.45</ele>
        <time>2015-03-30T01:41:09.34Z</time>
      </trkpt>
      <trkpt lat="42.337828" lon="2.226017">
        <ele>2087.75</ele>
        <time>2015-03-30T02:29:55.08Z</time>
      </trkpt>
      <trkpt lat="42.337848" lon="2.226000">
        <ele>2088.06</ele>
        <time>2015-03-30T03:14:02.75Z</time>
      </trkpt>
      <trkpt lat="42.337867" lon="2.225983">
        <ele>2088.34</ele>
        <time>2015-03-30T03:56:36.20Z</time>
      </trkpt>
      <trkpt lat="42.337889" lon="2.225967">
        <ele>2088.58</ele>
        <time>2015-03-30T04:43:16.03Z</time>
      </trkpt>
      <trkpt lat="42.337911" lon="2.225950">
        <ele>2088.89</ele>
        <time>2015-03-30T05:30:36.04Z</time>
      </trkpt>
      <trkpt lat="42.337934" lon="2.225932">
        <ele>2089.16</ele>
        <time>2015-03-30T06:20:14.51Z</time>
      </trkpt>
      <trkpt lat="42.337955" lon="2.225913">
        <ele>2089.52</ele>
        <time>2015-03-30T07:07:26.41Z</time>
      </trkpt>
      <trkpt lat="42.337977" lon="2.225897">
        <ele>2089.71</ele>
        <time>2015-03-30T07:54:06.24Z</time>
      </trkpt>
      <trkpt lat="42.337998" lon="2.225876">
        <ele>2090.22</ele>
        <time>2015-03-30T08:42:53.51Z</time>
      </trkpt>
      <trkpt lat="42.338018" lon="2.225857">
        <ele>2090.76</ele>
        <time>2015-03-30T09:28:32.93Z</time>
      </trkpt>
      <trkpt lat="42.338035" lon="2.225841">
        <ele>2091.09</ele>
        <time>2015-03-30T10:07:14.33Z</time>
      </trkpt>
      <trkpt lat="42.338056" lon="2.225827">
        <ele>2091.22</ele>
        <time>2015-03-30T10:50:58.60Z</time>
      </trkpt>
      <trkpt lat="42.338071" lon="2.225805">
        <ele>2091.78</ele>
        <time>2015-03-30T11:32:18.53Z</time>
      </trkpt>
      <trkpt lat="42.338089" lon="2.225787">
        <ele>2092.06</ele>
        <time>2015-03-30T12:14:07.61Z</time>
      </trkpt>
      <trkpt lat="42.338105" lon="2.225767">
        <ele>2092.43</ele>
        <time>2015-03-30T12:54:49.50Z</time>
      </trkpt>
      <trkpt lat="42.338120" lon="2.225747">
        <ele>2092.81</ele>
        <time>2015-03-30T13:34:10.29Z</time>
      </trkpt>
      <trkpt lat="42.338136" lon="2.225729">
        <ele>2093.18</ele>
        <time>2015-03-30T14:13:02.90Z</time>
      </trkpt>
      <trkpt lat="42.338152" lon="2.225711">
        <ele>2093.43</ele>
        <time>2015-03-30T14:51:55.50Z</time>
      </trkpt>
      <trkpt lat="42.338169" lon="2.225692">
        <ele>2093.72</ele>
        <time>2015-03-30T15:33:07.29Z</time>
      </trkpt>
      <trkpt lat="42.338182" lon="2.225670">
        <ele>2094.31</ele>
        <time>2015-03-30T16:12:01.04Z</time>
      </trkpt>
      <trkpt lat="42.338198" lon="2.225654">
        <ele>2094.55</ele>
        <time>2015-03-30T16:49:11.33Z</time>
      </trkpt>
      <trkpt lat="42.338214" lon="2.225631">
        <ele>2095.09</ele>
        <time>2015-03-30T17:32:48.29Z</time>
      </trkpt>
      <trkpt lat="42.338229" lon="2.225609">
        <ele>2095.57</ele>
        <time>2015-03-30T18:14:08.21Z</time>
      </trkpt>
      <trkpt lat="42.338245" lon="2.225588">
        <ele>2095.96</ele>
        <time>2015-03-30T18:55:47.07Z</time>
      </trkpt>
      <trkpt lat="42.338261" lon="2.225567">
        <ele>2096.42</ele>
        <time>2015-03-30T19:37:25.93Z</time>
      </trkpt>
      <trkpt lat="42.338277" lon="2.225547">
        <ele>2096.79</ele>
        <time>2015-03-30T20:18:07.82Z</time>
      </trkpt>
      <trkpt lat="42.338294" lon="2.225531">
        <ele>2096.97</ele>
        <time>2015-03-30T20:56:49.21Z</time>
      </trkpt>
      <trkpt lat="42.338307" lon="2.225508">
        <ele>2097.47</ele>
        <time>2015-03-30T21:36:48.23Z</time>
      </trkpt>
      <trkpt lat="42.338320" lon="2.225485">
        <ele>2097.99</ele>
        <time>2015-03-30T22:16:47.25Z</time>
      </trkpt>
      <trkpt lat="42.338337" lon="2.225466">
        <ele>2098.19</ele>
        <time>2015-03-30T22:57:59.03Z</time>
      </trkpt>
      <trkpt lat="42.338352" lon="2.225445">
        <ele>2098.42</ele>
        <time>2015-03-30T23:38:18.70Z</time>
      </trkpt>
      <trkpt lat="42.338365" lon="2.225422">
        <ele>2098.81</ele>
        <time>2015-03-31T00:18:17.72Z</time>
      </trkpt>
      <trkpt lat="42.338381" lon="2.225403">
        <ele>2098.99</ele>
        <time>2015-03-31T00:58:04.15Z</time>
      </trkpt>
      <trkpt lat="42.338394" lon="2.225382">
        <ele>2099.39</ele>
        <time>2015-03-31T01:35:53.76Z</time>
      </trkpt>
      <trkpt lat="42.338408" lon="2.225362">
        <ele>2099.55</ele>
        <time>2015-03-31T02:13:56.06Z</time>
      </trkpt>
      <trkpt lat="42.338422" lon="2.225346">
        <ele>2099.78</ele>
        <time>2015-03-31T02:48:10.40Z</time>
      </trkpt>
      <trkpt lat="42.338436" lon="2.225325">
        <ele>2100.04</ele>
        <time>2015-03-31T03:27:13.56Z</time>
      </trkpt>
      <trkpt lat="42.338453" lon="2.225302">
        <ele>2100.40</ele>
        <time>2015-03-31T04:12:08.57Z</time>
      </trkpt>
      <trkpt lat="42.338472" lon="2.225287">
        <ele>2100.29</ele>
        <time>2015-03-31T04:53:14.48Z</time>
      </trkpt>
      <trkpt lat="42.338492" lon="2.225278">
        <ele>2099.97</ele>
        <time>2015-03-31T05:32:37.13Z</time>
      </trkpt>
      <trkpt lat="42.338510" lon="2.225251">
        <ele>2100.24</ele>
        <time>2015-03-31T06:22:49.76Z</time>
      </trkpt>
      <trkpt lat="42.338525" lon="2.225224">
        <ele>2100.75</ele>
        <time>2015-03-31T07:09:28.33Z</time>
      </trkpt>
      <trkpt lat="42.338542" lon="2.225200">
        <ele>2101.01</ele>
        <time>2015-03-31T07:55:22.55Z</time>
      </trkpt>
      <trkpt lat="42.338558" lon="2.225172">
        <ele>2101.51</ele>
        <time>2015-03-31T08:44:14.97Z</time>
      </trkpt>
      <trkpt lat="42.338573" lon="2.225155">
        <ele>2101.74</ele>
        <time>2015-03-31T09:20:48.42Z</time>
      </trkpt>
      <trkpt lat="42.338589" lon="2.225138">
        <ele>2101.72</ele>
        <time>2015-03-31T09:58:48.94Z</time>
      </trkpt>
      <trkpt lat="42.338601" lon="2.225117">
        <ele>2102.15</ele>
        <time>2015-03-31T10:35:28.25Z</time>
      </trkpt>
      <trkpt lat="42.338612" lon="2.225095">
        <ele>2102.60</ele>
        <time>2015-03-31T11:12:08.98Z</time>
      </trkpt>
      <trkpt lat="42.338626" lon="2.225073">
        <ele>2102.85</ele>
        <time>2015-03-31T11:52:14.30Z</time>
      </trkpt>
      <trkpt lat="42.338636" lon="2.225053">
        <ele>2103.22</ele>
        <time>2015-03-31T12:25:34.96Z</time>
      </trkpt>
      <trkpt lat="42.338647" lon="2.225032">
        <ele>2103.64</ele>
        <time>2015-03-31T13:01:07.56Z</time>
      </trkpt>
      <trkpt lat="42.338660" lon="2.225014">
        <ele>2103.78</ele>
        <time>2015-03-31T13:35:52.71Z</time>
      </trkpt>
      <trkpt lat="42.338674" lon="2.224992">
        <ele>2104.09</ele>
        <time>2015-03-31T14:15:58.04Z</time>
      </trkpt>
      <trkpt lat="42.338689" lon="2.224974">
        <ele>2104.06</ele>
        <time>2015-03-31T14:53:25.59Z</time>
      </trkpt>
      <trkpt lat="42.338702" lon="2.224955">
        <ele>2104.23</ele>
        <time>2015-03-31T15:29:10.79Z</time>
      </trkpt>
      <trkpt lat="42.338716" lon="2.224935">
        <ele>2104.31</ele>
        <time>2015-03-31T16:07:13.09Z</time>
      </trkpt>
      <trkpt lat="42.338730" lon="2.224916">
        <ele>2104.46</ele>
        <time>2015-03-31T16:44:15.95Z</time>
      </trkpt>
      <trkpt lat="42.338741" lon="2.224897">
        <ele>2104.73</ele>
        <time>2015-03-31T17:17:35.64Z</time>
      </trkpt>
      <trkpt lat="42.338754" lon="2.224875">
        <ele>2104.97</ele>
        <time>2015-03-31T17:56:29.37Z</time>
      </trkpt>
      <trkpt lat="42.338766" lon="2.224855">
        <ele>2105.16</ele>
        <time>2015-03-31T18:32:03.73Z</time>
      </trkpt>
      <trkpt lat="42.338777" lon="2.224833">
        <ele>2105.43</ele>
        <time>2015-03-31T19:08:44.46Z</time>
      </trkpt>
      <trkpt lat="42.338789" lon="2.224813">
        <ele>2105.72</ele>
        <time>2015-03-31T19:44:18.82Z</time>
      </trkpt>
      <trkpt lat="42.338801" lon="2.224794">
        <ele>2105.83</ele>
        <time>2015-03-31T20:18:49.50Z</time>
      </trkpt>
      <trkpt lat="42.338812" lon="2.224774">
        <ele>2106.12</ele>
        <time>2015-03-31T20:53:15.05Z</time>
      </trkpt>
      <trkpt lat="42.338823" lon="2.224753">
        <ele>2106.50</ele>
        <time>2015-03-31T21:28:47.65Z</time>
      </trkpt>
      <trkpt lat="42.338834" lon="2.224733">
        <ele>2106.61</ele>
        <time>2015-03-31T22:03:13.20Z</time>
      </trkpt>
      <trkpt lat="42.338850" lon="2.224706">
        <ele>2106.93</ele>
        <time>2015-03-31T22:51:00.50Z</time>
      </trkpt>
      <trkpt lat="42.338861" lon="2.224683">
        <ele>2107.31</ele>
        <time>2015-03-31T23:28:50.33Z</time>
      </trkpt>
      <trkpt lat="42.338871" lon="2.224663">
        <ele>2107.62</ele>
        <time>2015-04-01T00:02:10.99Z</time>
      </trkpt>
      <trkpt lat="42.338882" lon="2.224642">
        <ele>2107.84</ele>
        <time>2015-04-01T00:37:43.58Z</time>
      </trkpt>
      <trkpt lat="42.338896" lon="2.224618">
        <ele>2108.14</ele>
        <time>2015-04-01T01:19:56.79Z</time>
      </trkpt>
      <trkpt lat="42.338909" lon="2.224596">
        <ele>2108.43</ele>
        <time>2015-04-01T01:58:50.52Z</time>
      </trkpt>
      <trkpt lat="42.338919" lon="2.224572">
        <ele>2108.89</ele>
        <time>2015-04-01T02:36:53.26Z</time>
      </trkpt>
      <trkpt lat="42.338934" lon="2.224543">
        <ele>2109.31</ele>
        <time>2015-04-01T03:25:45.98Z</time>
      </trkpt>
      <trkpt lat="42.338946" lon="2.224520">
        <ele>2109.67</ele>
        <time>2015-04-01T04:04:38.60Z</time>
      </trkpt>
      <trkpt lat="42.338957" lon="2.224500">
        <ele>2109.94</ele>
        <time>2015-04-01T04:39:04.14Z</time>
      </trkpt>
      <trkpt lat="42.338968" lon="2.224479">
        <ele>2110.35</ele>
        <time>2015-04-01T05:14:36.73Z</time>
      </trkpt>
      <trkpt lat="42.338979" lon="2.224459">
        <ele>2110.65</ele>
        <time>2015-04-01T05:49:02.28Z</time>
      </trkpt>
      <trkpt lat="42.338993" lon="2.224432">
        <ele>2111.01</ele>
        <time>2015-04-01T06:34:34.96Z</time>
      </trkpt>
      <trkpt lat="42.339005" lon="2.224414">
        <ele>2111.21</ele>
        <time>2015-04-01T07:08:03.37Z</time>
      </trkpt>
      <trkpt lat="42.339013" lon="2.224390">
        <ele>2111.79</ele>
        <time>2015-04-01T07:44:24.78Z</time>
      </trkpt>
      <trkpt lat="42.339023" lon="2.224369">
        <ele>2112.09</ele>
        <time>2015-04-01T08:18:54.58Z</time>
      </trkpt>
      <trkpt lat="42.339039" lon="2.224340">
        <ele>2112.34</ele>
        <time>2015-04-01T09:08:52.97Z</time>
      </trkpt>
      <trkpt lat="42.339055" lon="2.224316">
        <ele>2112.57</ele>
        <time>2015-04-01T09:53:30.85Z</time>
      </trkpt>
      <trkpt lat="42.339071" lon="2.224287">
        <ele>2112.85</ele>
        <time>2015-04-01T10:43:29.24Z</time>
      </trkpt>
      <trkpt lat="42.339081" lon="2.224265">
        <ele>2113.14</ele>
        <time>2015-04-01T11:19:09.16Z</time>
      </trkpt>
      <trkpt lat="42.339094" lon="2.224243">
        <ele>2113.31</ele>
        <time>2015-04-01T11:58:02.89Z</time>
      </trkpt>
      <trkpt lat="42.339109" lon="2.224221">
        <ele>2113.55</ele>
        <time>2015-04-01T12:39:22.79Z</time>
      </trkpt>
      <trkpt lat="42.339123" lon="2.224192">
        <ele>2113.89</ele>
        <time>2015-04-01T13:27:12.70Z</time>
      </trkpt>
      <trkpt lat="42.339134" lon="2.224169">
        <ele>2114.17</ele>
        <time>2015-04-01T14:05:02.52Z</time>
      </trkpt>
      <trkpt lat="42.339146" lon="2.224145">
        <ele>2114.42</ele>
        <time>2015-04-01T14:45:03.30Z</time>
      </trkpt>
      <trkpt lat="42.339158" lon="2.224119">
        <ele>2114.91</ele>
        <time>2015-04-01T15:27:23.04Z</time>
      </trkpt>
      <trkpt lat="42.339169" lon="2.224093">
        <ele>2115.39</ele>
        <time>2015-04-01T16:08:45.23Z</time>
      </trkpt>
      <trkpt lat="42.339184" lon="2.224066">
        <ele>2115.66</ele>
        <time>2015-04-01T16:55:23.78Z</time>
      </trkpt>
      <trkpt lat="42.339196" lon="2.224038">
        <ele>2116.12</ele>
        <time>2015-04-01T17:40:05.51Z</time>
      </trkpt>
      <trkpt lat="42.339208" lon="2.224005">
        <ele>2116.84</ele>
        <time>2015-04-01T18:30:52.74Z</time>
      </trkpt>
      <trkpt lat="42.339221" lon="2.223983">
        <ele>2117.05</ele>
        <time>2015-04-01T19:09:46.46Z</time>
      </trkpt>
      <trkpt lat="42.339234" lon="2.223957">
        <ele>2117.41</ele>
        <time>2015-04-01T19:53:07.30Z</time>
      </trkpt>
      <trkpt lat="42.339250" lon="2.223934">
        <ele>2117.52</ele>
        <time>2015-04-01T20:36:44.24Z</time>
      </trkpt>
      <trkpt lat="42.339262" lon="2.223908">
        <ele>2117.91</ele>
        <time>2015-04-01T21:19:03.97Z</time>
      </trkpt>
      <trkpt lat="42.339274" lon="2.223883">
        <ele>2118.32</ele>
        <time>2015-04-01T22:00:13.81Z</time>
      </trkpt>
      <trkpt lat="42.339285" lon="2.223857">
        <ele>2118.78</ele>
        <time>2015-04-01T22:41:36Z</time>
      </trkpt>
      <trkpt lat="42.339296" lon="2.223836">
        <ele>2118.91</ele>
        <time>2015-04-01T23:17:08.58Z</time>
      </trkpt>
      <trkpt lat="42.339310" lon="2.223812">
        <ele>2119.11</ele>
        <time>2015-04-01T23:59:21.78Z</time>
      </trkpt>
      <trkpt lat="42.339322" lon="2.223787">
        <ele>2119.34</ele>
        <time>2015-04-02T00:40:31.62Z</time>
      </trkpt>
      <trkpt lat="42.339335" lon="2.223761">
        <ele>2119.62</ele>
        <time>2015-04-02T01:23:52.46Z</time>
      </trkpt>
      <trkpt lat="42.339346" lon="2.223736">
        <ele>2120.00</ele>
        <time>2015-04-02T02:04:03.09Z</time>
      </trkpt>
      <trkpt lat="42.339359" lon="2.223711">
        <ele>2120.24</ele>
        <time>2015-04-02T02:46:15.72Z</time>
      </trkpt>
      <trkpt lat="42.339371" lon="2.223687">
        <ele>2120.60</ele>
        <time>2015-04-02T03:26:16.49Z</time>
      </trkpt>
      <trkpt lat="42.339382" lon="2.223661">
        <ele>2120.89</ele>
        <time>2015-04-02T04:07:38.68Z</time>
      </trkpt>
      <trkpt lat="42.339394" lon="2.223639">
        <ele>2121.02</ele>
        <time>2015-04-02T04:45:24.09Z</time>
      </trkpt>
      <trkpt lat="42.339405" lon="2.223612">
        <ele>2121.44</ele>
        <time>2015-04-02T05:27:58.52Z</time>
      </trkpt>
      <trkpt lat="42.339415" lon="2.223585">
        <ele>2121.86</ele>
        <time>2015-04-02T06:09:40.76Z</time>
      </trkpt>
      <trkpt lat="42.339427" lon="2.223561">
        <ele>2122.16</ele>
        <time>2015-04-02T06:49:41.53Z</time>
      </trkpt>
      <trkpt lat="42.339441" lon="2.223539">
        <ele>2122.21</ele>
        <time>2015-04-02T07:29:46.83Z</time>
      </trkpt>
      <trkpt lat="42.339454" lon="2.223513">
        <ele>2122.61</ele>
        <time>2015-04-02T08:13:07.67Z</time>
      </trkpt>
      <trkpt lat="42.339465" lon="2.223487">
        <ele>2123.06</ele>
        <time>2015-04-02T08:54:29.85Z</time>
      </trkpt>
      <trkpt lat="42.339476" lon="2.223461">
        <ele>2123.43</ele>
        <time>2015-04-02T09:35:52.03Z</time>
      </trkpt>
      <trkpt lat="42.339485" lon="2.223434">
        <ele>2123.97</ele>
        <time>2015-04-02T10:16:46.10Z</time>
      </trkpt>
      <trkpt lat="42.339496" lon="2.223407">
        <ele>2124.43</ele>
        <time>2015-04-02T10:59:20.52Z</time>
      </trkpt>
      <trkpt lat="42.339507" lon="2.223383">
        <ele>2124.88</ele>
        <time>2015-04-02T11:38:20.33Z</time>
      </trkpt>
      <trkpt lat="42.339518" lon="2.223359">
        <ele>2125.20</ele>
        <time>2015-04-02T12:17:20.14Z</time>
      </trkpt>
      <trkpt lat="42.339538" lon="2.223370">
        <ele>2124.25</ele>
        <time>2015-04-02T12:57:40.20Z</time>
      </trkpt>
      <trkpt lat="42.339546" lon="2.223340">
        <ele>2124.93</ele>
        <time>2015-04-02T13:41:42.70Z</time>
      </trkpt>
      <trkpt lat="42.339559" lon="2.223321">
        <ele>2125.05</ele>
        <time>2015-04-02T14:17:27.88Z</time>
      </trkpt>
      <trkpt lat="42.339574" lon="2.223300">
        <ele>2125.10</ele>
        <time>2015-04-02T14:57:47.52Z</time>
      </trkpt>
      <trkpt lat="42.339587" lon="2.223279">
        <ele>2125.31</ele>
        <time>2015-04-02T15:35:37.11Z</time>
      </trkpt>
      <trkpt lat="42.339595" lon="2.223253">
        <ele>2125.71</ele>
        <time>2015-04-02T16:14:30.56Z</time>
      </trkpt>
      <trkpt lat="42.339604" lon="2.223229">
        <ele>2126.10</ele>
        <time>2015-04-02T16:51:40.37Z</time>
      </trkpt>
      <trkpt lat="42.339612" lon="2.223204">
        <ele>2126.42</ele>
        <time>2015-04-02T17:29:17.55Z</time>
      </trkpt>
      <trkpt lat="42.339624" lon="2.223176">
        <ele>2126.89</ele>
        <time>2015-04-02T18:13:59.28Z</time>
      </trkpt>
      <trkpt lat="42.339636" lon="2.223154">
        <ele>2127.03</ele>
        <time>2015-04-02T18:51:44.69Z</time>
      </trkpt>
      <trkpt lat="42.339647" lon="2.223132">
        <ele>2127.25</ele>
        <time>2015-04-02T19:28:25.39Z</time>
      </trkpt>
      <trkpt lat="42.339660" lon="2.223103">
        <ele>2127.69</ele>
        <time>2015-04-02T20:15:15.56Z</time>
      </trkpt>
      <trkpt lat="42.339670" lon="2.223082">
        <ele>2127.86</ele>
        <time>2015-04-02T20:49:45.35Z</time>
      </trkpt>
      <trkpt lat="42.339686" lon="2.223053">
        <ele>2128.16</ele>
        <time>2015-04-02T21:39:43.71Z</time>
      </trkpt>
      <trkpt lat="42.339698" lon="2.223026">
        <ele>2128.34</ele>
        <time>2015-04-02T22:23:14.08Z</time>
      </trkpt>
      <trkpt lat="42.339714" lon="2.223005">
        <ele>2128.39</ele>
        <time>2015-04-02T23:04:52.92Z</time>
      </trkpt>
      <trkpt lat="42.339726" lon="2.222980">
        <ele>2128.51</ele>
        <time>2015-04-02T23:46:02.75Z</time>
      </trkpt>
      <trkpt lat="42.339735" lon="2.222949">
        <ele>2128.91</ele>
        <time>2015-04-03T00:32:02.30Z</time>
      </trkpt>
      <trkpt lat="42.339744" lon="2.222925">
        <ele>2129.20</ele>
        <time>2015-04-03T01:09:12.11Z</time>
      </trkpt>
      <trkpt lat="42.339755" lon="2.222904">
        <ele>2129.24</ele>
        <time>2015-04-03T01:44:44.69Z</time>
      </trkpt>
      <trkpt lat="42.339766" lon="2.222879">
        <ele>2129.56</ele>
        <time>2015-04-03T02:24:55.30Z</time>
      </trkpt>
      <trkpt lat="42.339778" lon="2.222859">
        <ele>2129.72</ele>
        <time>2015-04-03T03:00:29.64Z</time>
      </trkpt>
      <trkpt lat="42.339791" lon="2.222839">
        <ele>2129.92</ele>
        <time>2015-04-03T03:37:16.34Z</time>
      </trkpt>
      <trkpt lat="42.339801" lon="2.222818">
        <ele>2130.22</ele>
        <time>2015-04-03T04:11:46.13Z</time>
      </trkpt>
      <trkpt lat="42.339813" lon="2.222799">
        <ele>2130.49</ele>
        <time>2015-04-03T04:46:16.79Z</time>
      </trkpt>
      <trkpt lat="42.339826" lon="2.222779">
        <ele>2130.72</ele>
        <time>2015-04-03T05:23:03.49Z</time>
      </trkpt>
      <trkpt lat="42.339840" lon="2.222762">
        <ele>2130.97</ele>
        <time>2015-04-03T05:58:12.23Z</time>
      </trkpt>
      <trkpt lat="42.339853" lon="2.222744">
        <ele>2131.13</ele>
        <time>2015-04-03T06:32:57.36Z</time>
      </trkpt>
      <trkpt lat="42.339867" lon="2.222726">
        <ele>2131.32</ele>
        <time>2015-04-03T07:09:02.32Z</time>
      </trkpt>
      <trkpt lat="42.339886" lon="2.222702">
        <ele>2131.61</ele>
        <time>2015-04-03T07:57:36.12Z</time>
      </trkpt>
      <trkpt lat="42.339906" lon="2.222682">
        <ele>2131.90</ele>
        <time>2015-04-03T08:44:03.96Z</time>
      </trkpt>
      <trkpt lat="42.339925" lon="2.222664">
        <ele>2132.05</ele>
        <time>2015-04-03T09:27:24.01Z</time>
      </trkpt>
      <trkpt lat="42.339948" lon="2.222648">
        <ele>2132.13</ele>
        <time>2015-04-03T10:15:43.04Z</time>
      </trkpt>
      <trkpt lat="42.339972" lon="2.222628">
        <ele>2132.34</ele>
        <time>2015-04-03T11:08:22.71Z</time>
      </trkpt>
      <trkpt lat="42.339990" lon="2.222618">
        <ele>2132.32</ele>
        <time>2015-04-03T11:44:43.90Z</time>
      </trkpt>
      <trkpt lat="42.340006" lon="2.222607">
        <ele>2132.53</ele>
        <time>2015-04-03T12:18:15.70Z</time>
      </trkpt>
      <trkpt lat="42.340025" lon="2.222596">
        <ele>2132.94</ele>
        <time>2015-04-03T12:56:52.30Z</time>
      </trkpt>
      <trkpt lat="42.340045" lon="2.222586">
        <ele>2133.37</ele>
        <time>2015-04-03T13:36:42.39Z</time>
      </trkpt>
      <trkpt lat="42.340064" lon="2.222574">
        <ele>2133.78</ele>
        <time>2015-04-03T14:15:52.83Z</time>
      </trkpt>
      <trkpt lat="42.340079" lon="2.222563">
        <ele>2134.03</ele>
        <time>2015-04-03T14:47:45.37Z</time>
      </trkpt>
      <trkpt lat="42.340096" lon="2.222553">
        <ele>2134.32</ele>
        <time>2015-04-03T15:22:23.30Z</time>
      </trkpt>
      <trkpt lat="42.340120" lon="2.222536">
        <ele>2134.91</ele>
        <time>2015-04-03T16:12:59.99Z</time>
      </trkpt>
      <trkpt lat="42.340134" lon="2.222522">
        <ele>2135.39</ele>
        <time>2015-04-03T16:45:31.47Z</time>
      </trkpt>
      <trkpt lat="42.340149" lon="2.222506">
        <ele>2135.83</ele>
        <time>2015-04-03T17:21:12.64Z</time>
      </trkpt>
      <trkpt lat="42.340163" lon="2.222487">
        <ele>2136.04</ele>
        <time>2015-04-03T17:58:15.48Z</time>
      </trkpt>
      <trkpt lat="42.340177" lon="2.222468">
        <ele>2136.15</ele>
        <time>2015-04-03T18:35:18.32Z</time>
      </trkpt>
      <trkpt lat="42.340191" lon="2.222442">
        <ele>2136.21</ele>
        <time>2015-04-03T19:19:43.56Z</time>
      </trkpt>
      <trkpt lat="42.340192" lon="2.222410">
        <ele>2136.35</ele>
        <time>2015-04-03T20:03:57.29Z</time>
      </trkpt>
      <trkpt lat="42.340177" lon="2.222392">
        <ele>2136.45</ele>
        <time>2015-04-03T20:41:24.82Z</time>
      </trkpt>
      <trkpt lat="42.340156" lon="2.222372">
        <ele>2136.54</ele>
        <time>2015-04-03T21:29:23.57Z</time>
      </trkpt>
      <trkpt lat="42.340134" lon="2.222348">
        <ele>2136.58</ele>
        <time>2015-04-03T22:22:11.50Z</time>
      </trkpt>
      <trkpt lat="42.340112" lon="2.222318">
        <ele>2136.76</ele>
        <time>2015-04-03T23:20:32.93Z</time>
      </trkpt>
      <trkpt lat="42.340087" lon="2.222299">
        <ele>2136.73</ele>
        <time>2015-04-04T00:14:07.18Z</time>
      </trkpt>
      <trkpt lat="42.340062" lon="2.222282">
        <ele>2136.81</ele>
        <time>2015-04-04T01:06:23.61Z</time>
      </trkpt>
      <trkpt lat="42.340031" lon="2.222278">
        <ele>2136.81</ele>
        <time>2015-04-04T02:04:34.29Z</time>
      </trkpt>
      <trkpt lat="42.339996" lon="2.222288">
        <ele>2136.85</ele>
        <time>2015-04-04T03:11:24.11Z</time>
      </trkpt>
      <trkpt lat="42.339976" lon="2.222291">
        <ele>2137.04</ele>
        <time>2015-04-04T03:48:59.73Z</time>
      </trkpt>
      <trkpt lat="42.339941" lon="2.222296">
        <ele>2137.42</ele>
        <time>2015-04-04T04:54:44.84Z</time>
      </trkpt>
      <trkpt lat="42.339910" lon="2.222308">
        <ele>2137.71</ele>
        <time>2015-04-04T05:54:59.19Z</time>
      </trkpt>
      <trkpt lat="42.339882" lon="2.222314">
        <ele>2137.97</ele>
        <time>2015-04-04T06:47:56.95Z</time>
      </trkpt>
      <trkpt lat="42.339856" lon="2.222315">
        <ele>2138.24</ele>
        <time>2015-04-04T07:36:32.58Z</time>
      </trkpt>
      <trkpt lat="42.339830" lon="2.222320">
        <ele>2138.55</ele>
        <time>2015-04-04T08:25:36.32Z</time>
      </trkpt>
      <trkpt lat="42.339806" lon="2.222326">
        <ele>2138.79</ele>
        <time>2015-04-04T09:11:12.12Z</time>
      </trkpt>
      <trkpt lat="42.339780" lon="2.222331">
        <ele>2139.06</ele>
        <time>2015-04-04T10:00:15.86Z</time>
      </trkpt>
      <trkpt lat="42.339762" lon="2.222334">
        <ele>2139.23</ele>
        <time>2015-04-04T10:34:08.81Z</time>
      </trkpt>
      <trkpt lat="42.339740" lon="2.222315">
        <ele>2139.51</ele>
        <time>2015-04-04T11:22:54.52Z</time>
      </trkpt>
      <trkpt lat="42.339732" lon="2.222279">
        <ele>2139.79</ele>
        <time>2015-04-04T12:14:49.21Z</time>
      </trkpt>
      <trkpt lat="42.339734" lon="2.222252">
        <ele>2139.89</ele>
        <time>2015-04-04T12:52:17.53Z</time>
      </trkpt>
      <trkpt lat="42.339736" lon="2.222225">
        <ele>2139.86</ele>
        <time>2015-04-04T13:29:45.84Z</time>
      </trkpt>
      <trkpt lat="42.339752" lon="2.222201">
        <ele>2140.08</ele>
        <time>2015-04-04T14:14:23.71Z</time>
      </trkpt>
      <trkpt lat="42.339769" lon="2.222184">
        <ele>2140.11</ele>
        <time>2015-04-04T14:53:53.37Z</time>
      </trkpt>
      <trkpt lat="42.339778" lon="2.222155">
        <ele>2140.58</ele>
        <time>2015-04-04T15:37:19.39Z</time>
      </trkpt>
      <trkpt lat="42.339774" lon="2.222131">
        <ele>2140.94</ele>
        <time>2015-04-04T16:11:17.85Z</time>
      </trkpt>
      <trkpt lat="42.339764" lon="2.222111">
        <ele>2141.35</ele>
        <time>2015-04-04T16:44:38.48Z</time>
      </trkpt>
      <trkpt lat="42.339746" lon="2.222092">
        <ele>2141.74</ele>
        <time>2015-04-04T17:27:17.66Z</time>
      </trkpt>
      <trkpt lat="42.339728" lon="2.222079">
        <ele>2142.06</ele>
        <time>2015-04-04T18:05:24.86Z</time>
      </trkpt>
      <trkpt lat="42.339711" lon="2.222067">
        <ele>2142.41</ele>
        <time>2015-04-04T18:41:14.25Z</time>
      </trkpt>
      <trkpt lat="42.339691" lon="2.222049">
        <ele>2143.01</ele>
        <time>2015-04-04T19:26:06.89Z</time>
      </trkpt>
      <trkpt lat="42.339669" lon="2.222031">
        <ele>2143.63</ele>
        <time>2015-04-04T20:14:08.87Z</time>
      </trkpt>
      <trkpt lat="42.339649" lon="2.222014">
        <ele>2144.28</ele>
        <time>2015-04-04T20:58:16.52Z</time>
      </trkpt>
      <trkpt lat="42.339630" lon="2.221992">
        <ele>2144.82</ele>
        <time>2015-04-04T21:44:59.85Z</time>
      </trkpt>
      <trkpt lat="42.339608" lon="2.221972">
        <ele>2145.38</ele>
        <time>2015-04-04T22:34:30.97Z</time>
      </trkpt>
      <trkpt lat="42.339591" lon="2.221956">
        <ele>2145.84</ele>
        <time>2015-04-04T23:13:12.35Z</time>
      </trkpt>
      <trkpt lat="42.339574" lon="2.221936">
        <ele>2146.26</ele>
        <time>2015-04-04T23:55:17.69Z</time>
      </trkpt>
      <trkpt lat="42.339560" lon="2.221916">
        <ele>2146.77</ele>
        <time>2015-04-05T00:33:19.97Z</time>
      </trkpt>
      <trkpt lat="42.339541" lon="2.221899">
        <ele>2147.16</ele>
        <time>2015-04-05T01:15:53.40Z</time>
      </trkpt>
      <trkpt lat="42.339525" lon="2.221883">
        <ele>2147.59</ele>
        <time>2015-04-05T01:53:03.68Z</time>
      </trkpt>
      <trkpt lat="42.339509" lon="2.221865">
        <ele>2147.86</ele>
        <time>2015-04-05T02:31:56.27Z</time>
      </trkpt>
      <trkpt lat="42.339494" lon="2.221848">
        <ele>2148.22</ele>
        <time>2015-04-05T03:08:29.70Z</time>
      </trkpt>
      <trkpt lat="42.339475" lon="2.221832">
        <ele>2148.51</ele>
        <time>2015-04-05T03:50:18.38Z</time>
      </trkpt>
      <trkpt lat="42.339455" lon="2.221814">
        <ele>2148.86</ele>
        <time>2015-04-05T04:35:11.03Z</time>
      </trkpt>
      <trkpt lat="42.339435" lon="2.221796">
        <ele>2149.22</ele>
        <time>2015-04-05T05:20:03.67Z</time>
      </trkpt>
      <trkpt lat="42.339416" lon="2.221777">
        <ele>2149.74</ele>
        <time>2015-04-05T06:04:12.13Z</time>
      </trkpt>
      <trkpt lat="42.339399" lon="2.221765">
        <ele>2150.08</ele>
        <time>2015-04-05T06:40:01.52Z</time>
      </trkpt>
      <trkpt lat="42.339380" lon="2.221750">
        <ele>2150.42</ele>
        <time>2015-04-05T07:21:07.42Z</time>
      </trkpt>
      <trkpt lat="42.339360" lon="2.221737">
        <ele>2150.81</ele>
        <time>2015-04-05T08:02:34.63Z</time>
      </trkpt>
      <trkpt lat="42.339339" lon="2.221719">
        <ele>2151.29</ele>
        <time>2015-04-05T08:49:01.30Z</time>
      </trkpt>
      <trkpt lat="42.339318" lon="2.221701">
        <ele>2151.62</ele>
        <time>2015-04-05T09:35:27.97Z</time>
      </trkpt>
      <trkpt lat="42.339299" lon="2.221686">
        <ele>2152.10</ele>
        <time>2015-04-05T10:16:33.87Z</time>
      </trkpt>
      <trkpt lat="42.339278" lon="2.221671">
        <ele>2152.43</ele>
        <time>2015-04-05T11:00:55.79Z</time>
      </trkpt>
      <trkpt lat="42.339259" lon="2.221654">
        <ele>2152.82</ele>
        <time>2015-04-05T11:43:29.23Z</time>
      </trkpt>
      <trkpt lat="42.339241" lon="2.221636">
        <ele>2153.21</ele>
        <time>2015-04-05T12:25:18.29Z</time>
      </trkpt>
      <trkpt lat="42.339221" lon="2.221620">
        <ele>2153.67</ele>
        <time>2015-04-05T13:08:42.81Z</time>
      </trkpt>
      <trkpt lat="42.339207" lon="2.221604">
        <ele>2153.97</ele>
        <time>2015-04-05T13:42:57.14Z</time>
      </trkpt>
      <trkpt lat="42.339190" lon="2.221577">
        <ele>2154.48</ele>
        <time>2015-04-05T14:31:55.85Z</time>
      </trkpt>
      <trkpt lat="42.339179" lon="2.221557">
        <ele>2154.61</ele>
        <time>2015-04-05T15:06:21.39Z</time>
      </trkpt>
      <trkpt lat="42.339160" lon="2.221534">
        <ele>2155.05</ele>
        <time>2015-04-05T15:53:59.31Z</time>
      </trkpt>
      <trkpt lat="42.339141" lon="2.221510">
        <ele>2155.39</ele>
        <time>2015-04-05T16:42:33.13Z</time>
      </trkpt>
      <trkpt lat="42.339128" lon="2.221489">
        <ele>2155.58</ele>
        <time>2015-04-05T17:20:22.73Z</time>
      </trkpt>
      <trkpt lat="42.339110" lon="2.221463">
        <ele>2155.85</ele>
        <time>2015-04-05T18:09:34.33Z</time>
      </trkpt>
      <trkpt lat="42.339094" lon="2.221437">
        <ele>2156.09</ele>
        <time>2015-04-05T18:56:17.47Z</time>
      </trkpt>
      <trkpt lat="42.339076" lon="2.221424">
        <ele>2156.22</ele>
        <time>2015-04-05T19:34:24.67Z</time>
      </trkpt>
      <trkpt lat="42.339055" lon="2.221423">
        <ele>2156.33</ele>
        <time>2015-04-05T20:13:40.10Z</time>
      </trkpt>
      <trkpt lat="42.339035" lon="2.221424">
        <ele>2156.31</ele>
        <time>2015-04-05T20:51:03.51Z</time>
      </trkpt>
      <trkpt lat="42.339014" lon="2.221432">
        <ele>2156.44</ele>
        <time>2015-04-05T21:31:49.03Z</time>
      </trkpt>
      <trkpt lat="42.338994" lon="2.221440">
        <ele>2156.52</ele>
        <time>2015-04-05T22:10:46.85Z</time>
      </trkpt>
      <trkpt lat="42.338973" lon="2.221449">
        <ele>2156.64</ele>
        <time>2015-04-05T22:51:56.12Z</time>
      </trkpt>
      <trkpt lat="42.338951" lon="2.221456">
        <ele>2156.72</ele>
        <time>2015-04-05T23:34:09.48Z</time>
      </trkpt>
      <trkpt lat="42.338930" lon="2.221467">
        <ele>2156.81</ele>
        <time>2015-04-06T00:16:13.74Z</time>
      </trkpt>
      <trkpt lat="42.338910" lon="2.221481">
        <ele>2156.99</ele>
        <time>2015-04-06T00:58:17.94Z</time>
      </trkpt>
      <trkpt lat="42.338891" lon="2.221494">
        <ele>2157.07</ele>
        <time>2015-04-06T01:38:04.62Z</time>
      </trkpt>
      <trkpt lat="42.338871" lon="2.221507">
        <ele>2157.18</ele>
        <time>2015-04-06T02:19:31.84Z</time>
      </trkpt>
      <trkpt lat="42.338851" lon="2.221518">
        <ele>2157.36</ele>
        <time>2015-04-06T02:59:51.91Z</time>
      </trkpt>
      <trkpt lat="42.338833" lon="2.221530">
        <ele>2157.48</ele>
        <time>2015-04-06T03:37:21.28Z</time>
      </trkpt>
      <trkpt lat="42.338817" lon="2.221542">
        <ele>2157.61</ele>
        <time>2015-04-06T04:11:31.95Z</time>
      </trkpt>
      <trkpt lat="42.338800" lon="2.221555">
        <ele>2157.81</ele>
        <time>2015-04-06T04:48:00.91Z</time>
      </trkpt>
      <trkpt lat="42.338782" lon="2.221569">
        <ele>2158.07</ele>
        <time>2015-04-06T05:26:48.29Z</time>
      </trkpt>
      <trkpt lat="42.338764" lon="2.221582">
        <ele>2158.24</ele>
        <time>2015-04-06T06:04:55.50Z</time>
      </trkpt>
      <trkpt lat="42.338746" lon="2.221601">
        <ele>2158.63</ele>
        <time>2015-04-06T06:47:34.69Z</time>
      </trkpt>
      <trkpt lat="42.338729" lon="2.221611">
        <ele>2158.89</ele>
        <time>2015-04-06T07:22:12.63Z</time>
      </trkpt>
      <trkpt lat="42.338710" lon="2.221621">
        <ele>2159.27</ele>
        <time>2015-04-06T08:00:17.91Z</time>
      </trkpt>
      <trkpt lat="42.338690" lon="2.221632">
        <ele>2159.54</ele>
        <time>2015-04-06T08:40:37.98Z</time>
      </trkpt>
      <trkpt lat="42.338672" lon="2.221643">
        <ele>2159.94</ele>
        <time>2015-04-06T09:17:31.98Z</time>
      </trkpt>
      <trkpt lat="42.338654" lon="2.221657">
        <ele>2160.38</ele>
        <time>2015-04-06T09:56:19.35Z</time>
      </trkpt>
      <trkpt lat="42.338636" lon="2.221670">
        <ele>2160.72</ele>
        <time>2015-04-06T10:34:26.56Z</time>
      </trkpt>
      <trkpt lat="42.338617" lon="2.221681">
        <ele>2161.20</ele>
        <time>2015-04-06T11:13:03.18Z</time>
      </trkpt>
      <trkpt lat="42.338599" lon="2.221693">
        <ele>2161.71</ele>
        <time>2015-04-06T11:50:32.55Z</time>
      </trkpt>
      <trkpt lat="42.338577" lon="2.221706">
        <ele>2162.11</ele>
        <time>2015-04-06T12:35:23.60Z</time>
      </trkpt>
      <trkpt lat="42.338555" lon="2.221719">
        <ele>2162.68</ele>
        <time>2015-04-06T13:20:14.65Z</time>
      </trkpt>
      <trkpt lat="42.338532" lon="2.221733">
        <ele>2163.18</ele>
        <time>2015-04-06T14:07:21.75Z</time>
      </trkpt>
      <trkpt lat="42.338509" lon="2.221749">
        <ele>2163.73</ele>
        <time>2015-04-06T14:55:40.80Z</time>
      </trkpt>
      <trkpt lat="42.338487" lon="2.221761">
        <ele>2164.28</ele>
        <time>2015-04-06T15:39:59.76Z</time>
      </trkpt>
      <trkpt lat="42.338467" lon="2.221774">
        <ele>2164.89</ele>
        <time>2015-04-06T16:21:26.98Z</time>
      </trkpt>
      <trkpt lat="42.338454" lon="2.221792">
        <ele>2165.38</ele>
        <time>2015-04-06T16:56:12.14Z</time>
      </trkpt>
      <trkpt lat="42.338438" lon="2.221808">
        <ele>2165.92</ele>
        <time>2015-04-06T17:33:22.43Z</time>
      </trkpt>
      <trkpt lat="42.338423" lon="2.221824">
        <ele>2166.52</ele>
        <time>2015-04-06T18:09:03.62Z</time>
      </trkpt>
      <trkpt lat="42.338408" lon="2.221844">
        <ele>2167.29</ele>
        <time>2015-04-06T18:48:24.40Z</time>
      </trkpt>
      <trkpt lat="42.338393" lon="2.221862">
        <ele>2167.97</ele>
        <time>2015-04-06T19:25:51.96Z</time>
      </trkpt>
      <trkpt lat="42.338376" lon="2.221880">
        <ele>2168.62</ele>
        <time>2015-04-06T20:06:11.81Z</time>
      </trkpt>
      <trkpt lat="42.338359" lon="2.221894">
        <ele>2169.21</ele>
        <time>2015-04-06T20:43:22.71Z</time>
      </trkpt>
      <trkpt lat="42.338340" lon="2.221909">
        <ele>2169.94</ele>
        <time>2015-04-06T21:24:28.62Z</time>
      </trkpt>
      <trkpt lat="42.338327" lon="2.221932">
        <ele>2170.80</ele>
        <time>2015-04-06T22:04:27.64Z</time>
      </trkpt>
      <trkpt lat="42.338312" lon="2.221952">
        <ele>2171.57</ele>
        <time>2015-04-06T22:43:48.43Z</time>
      </trkpt>
      <trkpt lat="42.338298" lon="2.221973">
        <ele>2172.49</ele>
        <time>2015-04-06T23:22:51.59Z</time>
      </trkpt>
      <trkpt lat="42.338283" lon="2.221987">
        <ele>2173.18</ele>
        <time>2015-04-06T23:56:54.32Z</time>
      </trkpt>
      <trkpt lat="42.338276" lon="2.222013">
        <ele>2174.17</ele>
        <time>2015-04-07T00:35:07.07Z</time>
      </trkpt>
      <trkpt lat="42.338267" lon="2.222039">
        <ele>2175.28</ele>
        <time>2015-04-07T01:14:45.89Z</time>
      </trkpt>
      <trkpt lat="42.338264" lon="2.222066">
        <ele>2176.22</ele>
        <time>2015-04-07T01:52:28.19Z</time>
      </trkpt>
      <trkpt lat="42.338245" lon="2.222079">
        <ele>2177.06</ele>
        <time>2015-04-07T02:32:14.87Z</time>
      </trkpt>
      <trkpt lat="42.338237" lon="2.222104">
        <ele>2178.06</ele>
        <time>2015-04-07T03:09:52.09Z</time>
      </trkpt>
      <trkpt lat="42.338222" lon="2.222119">
        <ele>2178.71</ele>
        <time>2015-04-07T03:44:42.99Z</time>
      </trkpt>
      <trkpt lat="42.338206" lon="2.222141">
        <ele>2179.81</ele>
        <time>2015-04-07T04:27:20.24Z</time>
      </trkpt>
      <trkpt lat="42.338185" lon="2.222144">
        <ele>2180.28</ele>
        <time>2015-04-07T05:06:47.30Z</time>
      </trkpt>
      <trkpt lat="42.338175" lon="2.222167">
        <ele>2181.24</ele>
        <time>2015-04-07T05:43:38.26Z</time>
      </trkpt>
      <trkpt lat="42.338156" lon="2.222172">
        <ele>2181.64</ele>
        <time>2015-04-07T06:19:47.96Z</time>
      </trkpt>
      <trkpt lat="42.338142" lon="2.222195">
        <ele>2182.74</ele>
        <time>2015-04-07T07:00:56.68Z</time>
      </trkpt>
      <trkpt lat="42.338128" lon="2.222217">
        <ele>2183.88</ele>
        <time>2015-04-07T07:41:02.01Z</time>
      </trkpt>
      <trkpt lat="42.338114" lon="2.222237">
        <ele>2184.69</ele>
        <time>2015-04-07T08:19:04.32Z</time>
      </trkpt>
      <trkpt lat="42.338098" lon="2.222256">
        <ele>2185.39</ele>
        <time>2015-04-07T08:58:50.76Z</time>
      </trkpt>
      <trkpt lat="42.338084" lon="2.222271">
        <ele>2186.05</ele>
        <time>2015-04-07T09:32:12.63Z</time>
      </trkpt>
      <trkpt lat="42.338074" lon="2.222291">
        <ele>2186.78</ele>
        <time>2015-04-07T10:05:33.30Z</time>
      </trkpt>
      <trkpt lat="42.338058" lon="2.222311">
        <ele>2187.56</ele>
        <time>2015-04-07T10:46:15.19Z</time>
      </trkpt>
      <trkpt lat="42.338040" lon="2.222324">
        <ele>2188.02</ele>
        <time>2015-04-07T11:24:22.41Z</time>
      </trkpt>
      <trkpt lat="42.338021" lon="2.222335">
        <ele>2188.51</ele>
        <time>2015-04-07T12:02:59.02Z</time>
      </trkpt>
      <trkpt lat="42.338009" lon="2.222354">
        <ele>2189.11</ele>
        <time>2015-04-07T12:37:29.73Z</time>
      </trkpt>
      <trkpt lat="42.338002" lon="2.222378">
        <ele>2189.99</ele>
        <time>2015-04-07T13:13:07.53Z</time>
      </trkpt>
      <trkpt lat="42.337985" lon="2.222389">
        <ele>2190.49</ele>
        <time>2015-04-07T13:48:19.88Z</time>
      </trkpt>
      <trkpt lat="42.337971" lon="2.222405">
        <ele>2191.06</ele>
        <time>2015-04-07T14:22:34.22Z</time>
      </trkpt>
      <trkpt lat="42.337953" lon="2.222417">
        <ele>2191.55</ele>
        <time>2015-04-07T15:00:03.60Z</time>
      </trkpt>
      <trkpt lat="42.337930" lon="2.222428">
        <ele>2192.04</ele>
        <time>2015-04-07T15:45:38.13Z</time>
      </trkpt>
      <trkpt lat="42.337910" lon="2.222441">
        <ele>2192.72</ele>
        <time>2015-04-07T16:27:05.35Z</time>
      </trkpt>
      <trkpt lat="42.337892" lon="2.222457">
        <ele>2193.33</ele>
        <time>2015-04-07T17:07:19.61Z</time>
      </trkpt>
      <trkpt lat="42.337874" lon="2.222475">
        <ele>2194.13</ele>
        <time>2015-04-07T17:49:08.70Z</time>
      </trkpt>
      <trkpt lat="42.337854" lon="2.222485">
        <ele>2194.79</ele>
        <time>2015-04-07T18:28:58.80Z</time>
      </trkpt>
      <trkpt lat="42.337836" lon="2.222500">
        <ele>2195.42</ele>
        <time>2015-04-07T19:08:28.57Z</time>
      </trkpt>
      <trkpt lat="42.337819" lon="2.222522">
        <ele>2196.11</ele>
        <time>2015-04-07T19:52:25.65Z</time>
      </trkpt>
      <trkpt lat="42.337812" lon="2.222550">
        <ele>2196.82</ele>
        <time>2015-04-07T20:33:14.79Z</time>
      </trkpt>
      <trkpt lat="42.337808" lon="2.222581">
        <ele>2197.62</ele>
        <time>2015-04-07T21:16:42.24Z</time>
      </trkpt>
      <trkpt lat="42.337802" lon="2.222609">
        <ele>2198.38</ele>
        <time>2015-04-07T21:56:57.79Z</time>
      </trkpt>
      <trkpt lat="42.337796" lon="2.222632">
        <ele>2199.07</ele>
        <time>2015-04-07T22:30:38.74Z</time>
      </trkpt>
      <trkpt lat="42.337790" lon="2.222659">
        <ele>2199.84</ele>
        <time>2015-04-07T23:09:34.82Z</time>
      </trkpt>
      <trkpt lat="42.337780" lon="2.222686">
        <ele>2200.64</ele>
        <time>2015-04-07T23:51:17.12Z</time>
      </trkpt>
      <trkpt lat="42.337770" lon="2.222707">
        <ele>2201.24</ele>
        <time>2015-04-08T00:25:46.95Z</time>
      </trkpt>
      <trkpt lat="42.337760" lon="2.222729">
        <ele>2201.65</ele>
        <time>2015-04-08T01:01:26.91Z</time>
      </trkpt>
      <trkpt lat="42.337744" lon="2.222751">
        <ele>2202.16</ele>
        <time>2015-04-08T01:44:04.17Z</time>
      </trkpt>
      <trkpt lat="42.337726" lon="2.222765">
        <ele>2202.35</ele>
        <time>2015-04-08T02:22:51.55Z</time>
      </trkpt>
      <trkpt lat="42.337708" lon="2.222770">
        <ele>2202.32</ele>
        <time>2015-04-08T02:57:11.34Z</time>
      </trkpt>
      <trkpt lat="42.337688" lon="2.222770">
        <ele>2202.11</ele>
        <time>2015-04-08T03:34:33.22Z</time>
      </trkpt>
      <trkpt lat="42.337668" lon="2.222770">
        <ele>2202.06</ele>
        <time>2015-04-08T04:11:55.10Z</time>
      </trkpt>
      <trkpt lat="42.337650" lon="2.222776">
        <ele>2202.05</ele>
        <time>2015-04-08T04:46:33.14Z</time>
      </trkpt>
      <trkpt lat="42.337637" lon="2.222796">
        <ele>2201.88</ele>
        <time>2015-04-08T05:23:19.88Z</time>
      </trkpt>
      <trkpt lat="42.337626" lon="2.222823">
        <ele>2201.54</ele>
        <time>2015-04-08T06:05:54.36Z</time>
      </trkpt>
      <trkpt lat="42.337630" lon="2.222848">
        <ele>2201.31</ele>
        <time>2015-04-08T06:41:13.80Z</time>
      </trkpt>
      <trkpt lat="42.337648" lon="2.222844">
        <ele>2201.48</ele>
        <time>2015-04-08T07:15:18.53Z</time>
      </trkpt>
      <trkpt lat="42.337652" lon="2.222854">
        <ele>2201.34</ele>
        <time>2015-04-08T07:32:07.37Z</time>
      </trkpt>
      <trkpt lat="42.337643" lon="2.222843">
        <ele>2201.45</ele>
        <time>2015-04-08T07:54:46.97Z</time>
      </trkpt>
      <trkpt lat="42.337618" lon="2.222844">
        <ele>2201.39</ele>
        <time>2015-04-08T08:41:30.55Z</time>
      </trkpt>
      <trkpt lat="42.337604" lon="2.222861">
        <ele>2201.21</ele>
        <time>2015-04-08T09:16:39.31Z</time>
      </trkpt>
      <trkpt lat="42.337600" lon="2.222885">
        <ele>2201.03</ele>
        <time>2015-04-08T09:50:37.84Z</time>
      </trkpt>
      <trkpt lat="42.337623" lon="2.222911">
        <ele>2200.81</ele>
        <time>2015-04-08T10:46:37.61Z</time>
      </trkpt>
      <trkpt lat="42.337661" lon="2.222904">
        <ele>2200.89</ele>
        <time>2015-04-08T11:58:16.49Z</time>
      </trkpt>
      <trkpt lat="42.337693" lon="2.222894">
        <ele>2201.00</ele>
        <time>2015-04-08T12:59:37.95Z</time>
      </trkpt>
      <trkpt lat="42.337732" lon="2.222877">
        <ele>2201.24</ele>
        <time>2015-04-08T14:16:10.95Z</time>
      </trkpt>
      <trkpt lat="42.337773" lon="2.222855">
        <ele>2201.63</ele>
        <time>2015-04-08T15:38:35.12Z</time>
      </trkpt>
      <trkpt lat="42.337817" lon="2.222830">
        <ele>2201.09</ele>
        <time>2015-04-08T17:07:44.60Z</time>
      </trkpt>
      <trkpt lat="42.337861" lon="2.222802">
        <ele>2200.43</ele>
        <time>2015-04-08T18:38:35.15Z</time>
      </trkpt>
      <trkpt lat="42.337903" lon="2.222768">
        <ele>2199.77</ele>
        <time>2015-04-08T20:10:01.61Z</time>
      </trkpt>
      <trkpt lat="42.337945" lon="2.222726">
        <ele>2197.96</ele>
        <time>2015-04-08T21:47:36.14Z</time>
      </trkpt>
      <trkpt lat="42.337989" lon="2.222678">
        <ele>2196.32</ele>
        <time>2015-04-08T23:33:12.07Z</time>
      </trkpt>
      <trkpt lat="42.338038" lon="2.222628">
        <ele>2194.73</ele>
        <time>2015-04-09T01:27:51.93Z</time>
      </trkpt>
      <trkpt lat="42.338085" lon="2.222579">
        <ele>2193.11</ele>
        <time>2015-04-09T03:18:43.26Z</time>
      </trkpt>
      <trkpt lat="42.338124" lon="2.222533">
        <ele>2191.71</ele>
        <time>2015-04-09T04:55:23.15Z</time>
      </trkpt>
      <trkpt lat="42.338159" lon="2.222487">
        <ele>2190.45</ele>
        <time>2015-04-09T06:26:33.02Z</time>
      </trkpt>
      <trkpt lat="42.338191" lon="2.222441">
        <ele>2188.61</ele>
        <time>2015-04-09T07:53:46.94Z</time>
      </trkpt>
      <trkpt lat="42.338215" lon="2.222388">
        <ele>2186.89</ele>
        <time>2015-04-09T09:19:36.94Z</time>
      </trkpt>
      <trkpt lat="42.338236" lon="2.222339">
        <ele>2185.28</ele>
        <time>2015-04-09T10:37:50.03Z</time>
      </trkpt>
      <trkpt lat="42.338258" lon="2.222297">
        <ele>2183.87</ele>
        <time>2015-04-09T11:48:55.25Z</time>
      </trkpt>
      <trkpt lat="42.338276" lon="2.222259">
        <ele>2182.71</ele>
        <time>2015-04-09T12:51:14.87Z</time>
      </trkpt>
      <trkpt lat="42.338289" lon="2.222226">
        <ele>2181.79</ele>
        <time>2015-04-09T13:42:53.24Z</time>
      </trkpt>
      <trkpt lat="42.338294" lon="2.222187">
        <ele>2180.36</ele>
        <time>2015-04-09T14:37:32.94Z</time>
      </trkpt>
      <trkpt lat="42.338294" lon="2.222143">
        <ele>2178.77</ele>
        <time>2015-04-09T15:38:18.68Z</time>
      </trkpt>
      <trkpt lat="42.338288" lon="2.222101">
        <ele>2177.20</ele>
        <time>2015-04-09T16:37:23.10Z</time>
      </trkpt>
      <trkpt lat="42.338279" lon="2.222065">
        <ele>2176.02</ele>
        <time>2015-04-09T17:29:51.97Z</time>
      </trkpt>
      <trkpt lat="42.338273" lon="2.222032">
        <ele>2174.91</ele>
        <time>2015-04-09T18:16:47.78Z</time>
      </trkpt>
      <trkpt lat="42.338273" lon="2.222001">
        <ele>2173.77</ele>
        <time>2015-04-09T18:59:36.37Z</time>
      </trkpt>
      <trkpt lat="42.338279" lon="2.221975">
        <ele>2172.77</ele>
        <time>2015-04-09T19:37:13.22Z</time>
      </trkpt>
      <trkpt lat="42.338290" lon="2.221952">
        <ele>2171.75</ele>
        <time>2015-04-09T20:15:03.06Z</time>
      </trkpt>
      <trkpt lat="42.338302" lon="2.221924">
        <ele>2170.80</ele>
        <time>2015-04-09T20:59:44.82Z</time>
      </trkpt>
      <trkpt lat="42.338317" lon="2.221890">
        <ele>2169.67</ele>
        <time>2015-04-09T21:54:25.60Z</time>
      </trkpt>
      <trkpt lat="42.338340" lon="2.221852">
        <ele>2168.32</ele>
        <time>2015-04-09T23:02:15.07Z</time>
      </trkpt>
      <trkpt lat="42.338365" lon="2.221817">
        <ele>2167.06</ele>
        <time>2015-04-10T00:09:27.85Z</time>
      </trkpt>
      <trkpt lat="42.338391" lon="2.221782">
        <ele>2165.80</ele>
        <time>2015-04-10T01:17:59.31Z</time>
      </trkpt>
      <trkpt lat="42.338422" lon="2.221745">
        <ele>2164.44</ele>
        <time>2015-04-10T02:35:13.28Z</time>
      </trkpt>
      <trkpt lat="42.338462" lon="2.221704">
        <ele>2163.05</ele>
        <time>2015-04-10T04:08:58.65Z</time>
      </trkpt>
      <trkpt lat="42.338512" lon="2.221660">
        <ele>2161.61</ele>
        <time>2015-04-10T06:00:24.76Z</time>
      </trkpt>
      <trkpt lat="42.338577" lon="2.221616">
        <ele>2160.51</ele>
        <time>2015-04-10T08:16:12.07Z</time>
      </trkpt>
      <trkpt lat="42.338651" lon="2.221572">
        <ele>2159.38</ele>
        <time>2015-04-10T10:47:12.85Z</time>
      </trkpt>
      <trkpt lat="42.338729" lon="2.221533">
        <ele>2158.22</ele>
        <time>2015-04-10T13:22:34.22Z</time>
      </trkpt>
      <trkpt lat="42.338806" lon="2.221485">
        <ele>2157.48</ele>
        <time>2015-04-10T16:00:57.69Z</time>
      </trkpt>
      <trkpt lat="42.338887" lon="2.221440">
        <ele>2157.10</ele>
        <time>2015-04-10T18:44:33.07Z</time>
      </trkpt>
      <trkpt lat="42.338960" lon="2.221401">
        <ele>2156.80</ele>
        <time>2015-04-10T21:11:10.87Z</time>
      </trkpt>
      <trkpt lat="42.339016" lon="2.221371">
        <ele>2156.66</ele>
        <time>2015-04-10T23:03:42.37Z</time>
      </trkpt>
      <trkpt lat="42.339058" lon="2.221343">
        <ele>2156.67</ele>
        <time>2015-04-11T00:31:10.91Z</time>
      </trkpt>
      <trkpt lat="42.339086" lon="2.221307">
        <ele>2156.76</ele>
        <time>2015-04-11T01:43:20.85Z</time>
      </trkpt>
      <trkpt lat="42.339094" lon="2.221266">
        <ele>2156.93</ele>
        <time>2015-04-11T02:41:54.34Z</time>
      </trkpt>
      <trkpt lat="42.339091" lon="2.221228">
        <ele>2157.19</ele>
        <time>2015-04-11T03:34:40.80Z</time>
      </trkpt>
      <trkpt lat="42.339083" lon="2.221197">
        <ele>2157.31</ele>
        <time>2015-04-11T04:20:01.40Z</time>
      </trkpt>
      <trkpt lat="42.339072" lon="2.221168">
        <ele>2157.41</ele>
        <time>2015-04-11T05:05:02.15Z</time>
      </trkpt>
      <trkpt lat="42.339062" lon="2.221138">
        <ele>2157.54</ele>
        <time>2015-04-11T05:50:28.91Z</time>
      </trkpt>
      <trkpt lat="42.339060" lon="2.221108">
        <ele>2157.69</ele>
        <time>2015-04-11T06:32:04.70Z</time>
      </trkpt>
      <trkpt lat="42.339063" lon="2.221076">
        <ele>2157.86</ele>
        <time>2015-04-11T07:16:37.36Z</time>
      </trkpt>
      <trkpt lat="42.339073" lon="2.221052">
        <ele>2157.97</ele>
        <time>2015-04-11T07:54:40.10Z</time>
      </trkpt>
      <trkpt lat="42.339084" lon="2.221022">
        <ele>2158.05</ele>
        <time>2015-04-11T08:40:54.82Z</time>
      </trkpt>
      <trkpt lat="42.339096" lon="2.220989">
        <ele>2158.22</ele>
        <time>2015-04-11T09:31:42.05Z</time>
      </trkpt>
      <trkpt lat="42.339105" lon="2.220956">
        <ele>2158.37</ele>
        <time>2015-04-11T10:20:16.50Z</time>
      </trkpt>
      <trkpt lat="42.339112" lon="2.220923">
        <ele>2158.51</ele>
        <time>2015-04-11T11:07:41.13Z</time>
      </trkpt>
      <trkpt lat="42.339118" lon="2.220894">
        <ele>2158.63</ele>
        <time>2015-04-11T11:49:16.32Z</time>
      </trkpt>
      <trkpt lat="42.339124" lon="2.220865">
        <ele>2158.79</ele>
        <time>2015-04-11T12:30:51.52Z</time>
      </trkpt>
      <trkpt lat="42.339130" lon="2.220835">
        <ele>2158.91</ele>
        <time>2015-04-11T13:13:46.60Z</time>
      </trkpt>
      <trkpt lat="42.339133" lon="2.220802">
        <ele>2158.91</ele>
        <time>2015-04-11T13:59:41.47Z</time>
      </trkpt>
      <trkpt lat="42.339136" lon="2.220773">
        <ele>2159.00</ele>
        <time>2015-04-11T14:40:07.73Z</time>
      </trkpt>
      <trkpt lat="42.339140" lon="2.220746">
        <ele>2158.91</ele>
        <time>2015-04-11T15:18:09.36Z</time>
      </trkpt>
      <trkpt lat="42.339144" lon="2.220720">
        <ele>2158.94</ele>
        <time>2015-04-11T15:54:49.79Z</time>
      </trkpt>
      <trkpt lat="42.339150" lon="2.220678">
        <ele>2158.96</ele>
        <time>2015-04-11T16:53:54.17Z</time>
      </trkpt>
      <trkpt lat="42.339157" lon="2.220643">
        <ele>2158.93</ele>
        <time>2015-04-11T17:43:58.43Z</time>
      </trkpt>
      <trkpt lat="42.339172" lon="2.220613">
        <ele>2159.03</ele>
        <time>2015-04-11T18:33:59.40Z</time>
      </trkpt>
      <trkpt lat="42.339181" lon="2.220581">
        <ele>2159.11</ele>
        <time>2015-04-11T19:21:16.26Z</time>
      </trkpt>
      <trkpt lat="42.339183" lon="2.220547">
        <ele>2159.01</ele>
        <time>2015-04-11T20:08:22.29Z</time>
      </trkpt>
      <trkpt lat="42.339187" lon="2.220512">
        <ele>2158.97</ele>
        <time>2015-04-11T20:57:16.73Z</time>
      </trkpt>
      <trkpt lat="42.339187" lon="2.220475">
        <ele>2158.84</ele>
        <time>2015-04-11T21:48:22.42Z</time>
      </trkpt>
      <trkpt lat="42.339196" lon="2.220438">
        <ele>2158.73</ele>
        <time>2015-04-11T22:42:09.85Z</time>
      </trkpt>
      <trkpt lat="42.339208" lon="2.220408">
        <ele>2158.71</ele>
        <time>2015-04-11T23:29:16.16Z</time>
      </trkpt>
      <trkpt lat="42.339219" lon="2.220367">
        <ele>2158.68</ele>
        <time>2015-04-12T00:29:30.13Z</time>
      </trkpt>
      <trkpt lat="42.339238" lon="2.220329">
        <ele>2158.75</ele>
        <time>2015-04-12T01:32:51.36Z</time>
      </trkpt>
      <trkpt lat="42.339245" lon="2.220306">
        <ele>2158.67</ele>
        <time>2015-04-12T02:07:12.28Z</time>
      </trkpt>
      <trkpt lat="42.339254" lon="2.220261">
        <ele>2158.53</ele>
        <time>2015-04-12T03:11:34.90Z</time>
      </trkpt>
      <trkpt lat="42.339242" lon="2.220229">
        <ele>2158.36</ele>
        <time>2015-04-12T04:01:08Z</time>
      </trkpt>
      <trkpt lat="42.339231" lon="2.220207">
        <ele>2158.19</ele>
        <time>2015-04-12T04:37:48.71Z</time>
      </trkpt>
      <trkpt lat="42.339227" lon="2.220156">
        <ele>2157.75</ele>
        <time>2015-04-12T05:48:38.12Z</time>
      </trkpt>
      <trkpt lat="42.339225" lon="2.220119">
        <ele>2157.55</ele>
        <time>2015-04-12T06:39:51.99Z</time>
      </trkpt>
      <trkpt lat="42.339226" lon="2.220077">
        <ele>2157.40</ele>
        <time>2015-04-12T07:37:53.77Z</time>
      </trkpt>
      <trkpt lat="42.339227" lon="2.220028">
        <ele>2157.03</ele>
        <time>2015-04-12T08:45:35.29Z</time>
      </trkpt>
      <trkpt lat="42.339227" lon="2.219974">
        <ele>2156.72</ele>
        <time>2015-04-12T10:00:09.55Z</time>
      </trkpt>
      <trkpt lat="42.339227" lon="2.219919">
        <ele>2156.31</ele>
        <time>2015-04-12T11:16:06.66Z</time>
      </trkpt>
      <trkpt lat="42.339227" lon="2.219861">
        <ele>2155.92</ele>
        <time>2015-04-12T12:36:12.33Z</time>
      </trkpt>
      <trkpt lat="42.339219" lon="2.219803">
        <ele>2155.38</ele>
        <time>2015-04-12T13:57:40.97Z</time>
      </trkpt>
      <trkpt lat="42.339201" lon="2.219747">
        <ele>2154.73</ele>
        <time>2015-04-12T15:22:00.65Z</time>
      </trkpt>
      <trkpt lat="42.339176" lon="2.219690">
        <ele>2153.74</ele>
        <time>2015-04-12T16:53:32.30Z</time>
      </trkpt>
      <trkpt lat="42.339153" lon="2.219627">
        <ele>2152.47</ele>
        <time>2015-04-12T18:30:34.24Z</time>
      </trkpt>
      <trkpt lat="42.339136" lon="2.219554">
        <ele>2151.12</ele>
        <time>2015-04-12T20:16:15.86Z</time>
      </trkpt>
      <trkpt lat="42.339118" lon="2.219479">
        <ele>2149.90</ele>
        <time>2015-04-12T22:05:09.46Z</time>
      </trkpt>
      <trkpt lat="42.339092" lon="2.219404">
        <ele>2148.42</ele>
        <time>2015-04-12T23:59:33.20Z</time>
      </trkpt>
      <trkpt lat="42.339057" lon="2.219333">
        <ele>2147.17</ele>
        <time>2015-04-13T01:57:24.26Z</time>
      </trkpt>
      <trkpt lat="42.339019" lon="2.219267">
        <ele>2146.03</ele>
        <time>2015-04-13T03:52:56Z</time>
      </trkpt>
      <trkpt lat="42.338979" lon="2.219203">
        <ele>2145.02</ele>
        <time>2015-04-13T05:48:40.36Z</time>
      </trkpt>
      <trkpt lat="42.338936" lon="2.219142">
        <ele>2144.11</ele>
        <time>2015-04-13T07:45:04.52Z</time>
      </trkpt>
      <trkpt lat="42.338890" lon="2.219088">
        <ele>2143.44</ele>
        <time>2015-04-13T09:38:51.44Z</time>
      </trkpt>
      <trkpt lat="42.338843" lon="2.219038">
        <ele>2142.68</ele>
        <time>2015-04-13T11:30:33.64Z</time>
      </trkpt>
      <trkpt lat="42.338798" lon="2.218989">
        <ele>2141.75</ele>
        <time>2015-04-13T13:18:28.81Z</time>
      </trkpt>
      <trkpt lat="42.338752" lon="2.218939">
        <ele>2141.00</ele>
        <time>2015-04-13T15:08:43.26Z</time>
      </trkpt>
      <trkpt lat="42.338706" lon="2.218894">
        <ele>2140.15</ele>
        <time>2015-04-13T16:54:46.43Z</time>
      </trkpt>
      <trkpt lat="42.338660" lon="2.218847">
        <ele>2139.07</ele>
        <time>2015-04-13T18:42:28.10Z</time>
      </trkpt>
      <trkpt lat="42.338615" lon="2.218799">
        <ele>2138.19</ele>
        <time>2015-04-13T20:29:31.65Z</time>
      </trkpt>
      <trkpt lat="42.338574" lon="2.218746">
        <ele>2136.90</ele>
        <time>2015-04-13T22:15:28.27Z</time>
      </trkpt>
      <trkpt lat="42.338534" lon="2.218699">
        <ele>2135.69</ele>
        <time>2015-04-13T23:54:27.10Z</time>
      </trkpt>
      <trkpt lat="42.338499" lon="2.218652">
        <ele>2134.46</ele>
        <time>2015-04-14T01:26:35.01Z</time>
      </trkpt>
      <trkpt lat="42.338469" lon="2.218602">
        <ele>2133.22</ele>
        <time>2015-04-14T02:55:30.92Z</time>
      </trkpt>
      <trkpt lat="42.338439" lon="2.218549">
        <ele>2131.71</ele>
        <time>2015-04-14T04:27:42.05Z</time>
      </trkpt>
      <trkpt lat="42.338405" lon="2.218498">
        <ele>2130.21</ele>
        <time>2015-04-14T06:02:32.58Z</time>
      </trkpt>
      <trkpt lat="42.338364" lon="2.218448">
        <ele>2128.99</ele>
        <time>2015-04-14T07:45:40.09Z</time>
      </trkpt>
      <trkpt lat="42.338312" lon="2.218400">
        <ele>2127.63</ele>
        <time>2015-04-14T09:43:16.57Z</time>
      </trkpt>
      <trkpt lat="42.338265" lon="2.218351">
        <ele>2126.36</ele>
        <time>2015-04-14T11:34:07.89Z</time>
      </trkpt>
      <trkpt lat="42.338232" lon="2.218306">
        <ele>2125.09</ele>
        <time>2015-04-14T13:01:40.11Z</time>
      </trkpt>
      <trkpt lat="42.338213" lon="2.218275">
        <ele>2124.16</ele>
        <time>2015-04-14T13:57:16.83Z</time>
      </trkpt>
      <trkpt lat="42.338199" lon="2.218255">
        <ele>2123.52</ele>
        <time>2015-04-14T14:35:19.13Z</time>
      </trkpt>
      <trkpt lat="42.338186" lon="2.218238">
        <ele>2123.09</ele>
        <time>2015-04-14T15:09:05.86Z</time>
      </trkpt>
      <trkpt lat="42.338160" lon="2.218218">
        <ele>2122.33</ele>
        <time>2015-04-14T16:04:58.49Z</time>
      </trkpt>
      <trkpt lat="42.338122" lon="2.218193">
        <ele>2121.36</ele>
        <time>2015-04-14T17:23:55.04Z</time>
      </trkpt>
      <trkpt lat="42.338096" lon="2.218169">
        <ele>2120.51</ele>
        <time>2015-04-14T18:22:43.28Z</time>
      </trkpt>
      <trkpt lat="42.338065" lon="2.218138">
        <ele>2119.61</ele>
        <time>2015-04-14T19:34:44.47Z</time>
      </trkpt>
      <trkpt lat="42.338034" lon="2.218100">
        <ele>2118.44</ele>
        <time>2015-04-14T20:52:53.69Z</time>
      </trkpt>
      <trkpt lat="42.338000" lon="2.218059">
        <ele>2117.19</ele>
        <time>2015-04-14T22:17:59.18Z</time>
      </trkpt>
      <trkpt lat="42.337960" lon="2.218027">
        <ele>2115.52</ele>
        <time>2015-04-14T23:44:48.25Z</time>
      </trkpt>
      <trkpt lat="42.337917" lon="2.217986">
        <ele>2113.62</ele>
        <time>2015-04-15T01:23:05.17Z</time>
      </trkpt>
      <trkpt lat="42.337877" lon="2.217944">
        <ele>2111.90</ele>
        <time>2015-04-15T02:57:40.98Z</time>
      </trkpt>
      <trkpt lat="42.337836" lon="2.217899">
        <ele>2110.09</ele>
        <time>2015-04-15T04:36:19.14Z</time>
      </trkpt>
      <trkpt lat="42.337797" lon="2.217844">
        <ele>2108.05</ele>
        <time>2015-04-15T06:21:34.17Z</time>
      </trkpt>
      <trkpt lat="42.337752" lon="2.217788">
        <ele>2105.93</ele>
        <time>2015-04-15T08:15:47.97Z</time>
      </trkpt>
      <trkpt lat="42.337706" lon="2.217728">
        <ele>2103.93</ele>
        <time>2015-04-15T10:15:10.62Z</time>
      </trkpt>
      <trkpt lat="42.337659" lon="2.217667">
        <ele>2102.00</ele>
        <time>2015-04-15T12:16:51.51Z</time>
      </trkpt>
      <trkpt lat="42.337612" lon="2.217605">
        <ele>2100.42</ele>
        <time>2015-04-15T14:19:30Z</time>
      </trkpt>
      <trkpt lat="42.337567" lon="2.217542">
        <ele>2099.01</ele>
        <time>2015-04-15T16:20:29.04Z</time>
      </trkpt>
      <trkpt lat="42.337533" lon="2.217471">
        <ele>2097.64</ele>
        <time>2015-04-15T18:17:18.65Z</time>
      </trkpt>
      <trkpt lat="42.337452" lon="2.217284">
        <ele>2093.94</ele>
        <time>2015-04-15T23:16:37.54Z</time>
      </trkpt>
      <trkpt lat="42.337404" lon="2.217197">
        <ele>2092.19</ele>
        <time>2015-04-16T01:46:32.86Z</time>
      </trkpt>
      <trkpt lat="42.337358" lon="2.217116">
        <ele>2090.45</ele>
        <time>2015-04-16T04:07:36.48Z</time>
      </trkpt>
      <trkpt lat="42.337272" lon="2.216982">
        <ele>2087.73</ele>
        <time>2015-04-16T08:12:40.58Z</time>
      </trkpt>
      <trkpt lat="42.337239" lon="2.216933">
        <ele>2086.79</ele>
        <time>2015-04-16T09:44:13.09Z</time>
      </trkpt>
      <trkpt lat="42.337214" lon="2.216889">
        <ele>2085.53</ele>
        <time>2015-04-16T11:00:51.47Z</time>
      </trkpt>
      <trkpt lat="42.337193" lon="2.216850">
        <ele>2084.23</ele>
        <time>2015-04-16T12:07:29.45Z</time>
      </trkpt>
      <trkpt lat="42.337175" lon="2.216813">
        <ele>2083.02</ele>
        <time>2015-04-16T13:08:39.62Z</time>
      </trkpt>
      <trkpt lat="42.337163" lon="2.216782">
        <ele>2082.14</ele>
        <time>2015-04-16T13:56:59.15Z</time>
      </trkpt>
      <trkpt lat="42.337152" lon="2.216755">
        <ele>2081.20</ele>
        <time>2015-04-16T14:39:33.64Z</time>
      </trkpt>
      <trkpt lat="42.337136" lon="2.216730">
        <ele>2080.41</ele>
        <time>2015-04-16T15:25:13.66Z</time>
      </trkpt>
      <trkpt lat="42.337163" lon="2.216830">
        <ele>2083.36</ele>
        <time>2015-04-16T17:52:15.03Z</time>
      </trkpt>
      <trkpt lat="42.337173" lon="2.216855">
        <ele>2084.06</ele>
        <time>2015-04-16T18:31:30.35Z</time>
      </trkpt>
      <trkpt lat="42.337185" lon="2.216876">
        <ele>2084.72</ele>
        <time>2015-04-16T19:08:09.70Z</time>
      </trkpt>
      <trkpt lat="42.337205" lon="2.216870">
        <ele>2084.92</ele>
        <time>2015-04-16T19:46:26.04Z</time>
      </trkpt>
      <trkpt lat="42.337218" lon="2.216886">
        <ele>2085.58</ele>
        <time>2015-04-16T20:19:16.09Z</time>
      </trkpt>
      <trkpt lat="42.337227" lon="2.216861">
        <ele>2084.91</ele>
        <time>2015-04-16T20:57:40.17Z</time>
      </trkpt>
      <trkpt lat="42.337225" lon="2.216830">
        <ele>2084.19</ele>
        <time>2015-04-16T21:40:38.57Z</time>
      </trkpt>
      <trkpt lat="42.337217" lon="2.216783">
        <ele>2082.99</ele>
        <time>2015-04-16T22:47:14.87Z</time>
      </trkpt>
      <trkpt lat="42.337199" lon="2.216726">
        <ele>2081.25</ele>
        <time>2015-04-17T00:12:50.78Z</time>
      </trkpt>
      <trkpt lat="42.337177" lon="2.216666">
        <ele>2079.35</ele>
        <time>2015-04-17T01:45:20.36Z</time>
      </trkpt>
      <trkpt lat="42.337156" lon="2.216598">
        <ele>2077.11</ele>
        <time>2015-04-17T03:27:06.75Z</time>
      </trkpt>
      <trkpt lat="42.337144" lon="2.216514">
        <ele>2074.61</ele>
        <time>2015-04-17T05:25:15.72Z</time>
      </trkpt>
      <trkpt lat="42.337143" lon="2.216432">
        <ele>2072.34</ele>
        <time>2015-04-17T07:18:31.10Z</time>
      </trkpt>
      <trkpt lat="42.337152" lon="2.216352">
        <ele>2070.34</ele>
        <time>2015-04-17T09:10:16.18Z</time>
      </trkpt>
      <trkpt lat="42.337161" lon="2.216266">
        <ele>2068.17</ele>
        <time>2015-04-17T11:10:13.13Z</time>
      </trkpt>
      <trkpt lat="42.337173" lon="2.216178">
        <ele>2066.05</ele>
        <time>2015-04-17T13:13:47.78Z</time>
      </trkpt>
      <trkpt lat="42.337183" lon="2.216085">
        <ele>2064.01</ele>
        <time>2015-04-17T15:23:34.79Z</time>
      </trkpt>
      <trkpt lat="42.337188" lon="2.215996">
        <ele>2062.45</ele>
        <time>2015-04-17T17:26:50.53Z</time>
      </trkpt>
      <trkpt lat="42.337180" lon="2.215910">
        <ele>2060.73</ele>
        <time>2015-04-17T19:26:32.63Z</time>
      </trkpt>
      <trkpt lat="42.337157" lon="2.215826">
        <ele>2058.77</ele>
        <time>2015-04-17T21:30:14.96Z</time>
      </trkpt>
      <trkpt lat="42.337117" lon="2.215752">
        <ele>2056.53</ele>
        <time>2015-04-17T23:36:51.04Z</time>
      </trkpt>
      <trkpt lat="42.337067" lon="2.215692">
        <ele>2054.46</ele>
        <time>2015-04-18T01:41:42.98Z</time>
      </trkpt>
      <trkpt lat="42.337020" lon="2.215644">
        <ele>2052.51</ele>
        <time>2015-04-18T03:31:44.10Z</time>
      </trkpt>
      <trkpt lat="42.336980" lon="2.215614">
        <ele>2051.01</ele>
        <time>2015-04-18T04:57:10.81Z</time>
      </trkpt>
      <trkpt lat="42.336953" lon="2.215596">
        <ele>2050.14</ele>
        <time>2015-04-18T05:53:24.90Z</time>
      </trkpt>
      <trkpt lat="42.336932" lon="2.215598">
        <ele>2049.69</ele>
        <time>2015-04-18T06:32:44.70Z</time>
      </trkpt>
      <trkpt lat="42.336940" lon="2.215628">
        <ele>2050.55</ele>
        <time>2015-04-18T07:16:47.29Z</time>
      </trkpt>
      <trkpt lat="42.336950" lon="2.215648">
        <ele>2051.19</ele>
        <time>2015-04-18T07:50:07.99Z</time>
      </trkpt>
      <trkpt lat="42.336937" lon="2.215614">
        <ele>2050.13</ele>
        <time>2015-04-18T08:42:59.78Z</time>
      </trkpt>
      <trkpt lat="42.336926" lon="2.215562">
        <ele>2048.77</ele>
        <time>2015-04-18T09:57:41.43Z</time>
      </trkpt>
      <trkpt lat="42.336915" lon="2.215493">
        <ele>2047.02</ele>
        <time>2015-04-18T11:35:10.20Z</time>
      </trkpt>
      <trkpt lat="42.336891" lon="2.215408">
        <ele>2044.74</ele>
        <time>2015-04-18T13:40:49.58Z</time>
      </trkpt>
      <trkpt lat="42.336852" lon="2.215318">
        <ele>2041.92</ele>
        <time>2015-04-18T16:04:53.87Z</time>
      </trkpt>
      <trkpt lat="42.336806" lon="2.215228">
        <ele>2039.09</ele>
        <time>2015-04-18T18:36:00.30Z</time>
      </trkpt>
      <trkpt lat="42.336754" lon="2.215138">
        <ele>2036.21</ele>
        <time>2015-04-18T21:13:45.41Z</time>
      </trkpt>
      <trkpt lat="42.336697" lon="2.215054">
        <ele>2033.51</ele>
        <time>2015-04-18T23:51:13.62Z</time>
      </trkpt>
      <trkpt lat="42.336642" lon="2.214977">
        <ele>2030.92</ele>
        <time>2015-04-19T02:19:05.85Z</time>
      </trkpt>
      <trkpt lat="42.336582" lon="2.214903">
        <ele>2027.92</ele>
        <time>2015-04-19T04:50:47.02Z</time>
      </trkpt>
      <trkpt lat="42.336513" lon="2.214836">
        <ele>2024.99</ele>
        <time>2015-04-19T07:29:27.67Z</time>
      </trkpt>
      <trkpt lat="42.336437" lon="2.214776">
        <ele>2022.04</ele>
        <time>2015-04-19T10:13:51.38Z</time>
      </trkpt>
      <trkpt lat="42.336365" lon="2.214719">
        <ele>2019.34</ele>
        <time>2015-04-19T12:49:42.55Z</time>
      </trkpt>
      <trkpt lat="42.336300" lon="2.214654">
        <ele>2016.51</ele>
        <time>2015-04-19T15:20:43.21Z</time>
      </trkpt>
      <trkpt lat="42.336246" lon="2.214564">
        <ele>2013.64</ele>
        <time>2015-04-19T18:00:48.06Z</time>
      </trkpt>
      <trkpt lat="42.336198" lon="2.214477">
        <ele>2010.86</ele>
        <time>2015-04-19T20:30:43.48Z</time>
      </trkpt>
      <trkpt lat="42.336158" lon="2.214393">
        <ele>2008.42</ele>
        <time>2015-04-19T22:48:42.96Z</time>
      </trkpt>
      <trkpt lat="42.336127" lon="2.214309">
        <ele>2006.50</ele>
        <time>2015-04-20T00:58:22.46Z</time>
      </trkpt>
      <trkpt lat="42.336095" lon="2.214229">
        <ele>2004.51</ele>
        <time>2015-04-20T03:03:59.59Z</time>
      </trkpt>
      <trkpt lat="42.336057" lon="2.214155">
        <ele>2002.61</ele>
        <time>2015-04-20T05:08:25.62Z</time>
      </trkpt>
      <trkpt lat="42.336019" lon="2.214073">
        <ele>2000.42</ele>
        <time>2015-04-20T07:22:04.99Z</time>
      </trkpt>
      <trkpt lat="42.335984" lon="2.213977">
        <ele>1998.22</ele>
        <time>2015-04-20T09:49:54.51Z</time>
      </trkpt>
      <trkpt lat="42.335930" lon="2.213877">
        <ele>1995.68</ele>
        <time>2015-04-20T12:40:56.04Z</time>
      </trkpt>
      <trkpt lat="42.335866" lon="2.213776">
        <ele>1993.43</ele>
        <time>2015-04-20T15:44:39.01Z</time>
      </trkpt>
      <trkpt lat="42.335798" lon="2.213673">
        <ele>1991.42</ele>
        <time>2015-04-20T18:55:21.99Z</time>
      </trkpt>
      <trkpt lat="42.335723" lon="2.213578">
        <ele>1989.89</ele>
        <time>2015-04-20T22:07:19.10Z</time>
      </trkpt>
      <trkpt lat="42.335647" lon="2.213490">
        <ele>1988.23</ele>
        <time>2015-04-21T01:14:12.75Z</time>
      </trkpt>
      <trkpt lat="42.335566" lon="2.213410">
        <ele>1986.94</ele>
        <time>2015-04-21T04:21:34.71Z</time>
      </trkpt>
      <trkpt lat="42.335488" lon="2.213342">
        <ele>1986.17</ele>
        <time>2015-04-21T07:14:56.36Z</time>
      </trkpt>
      <trkpt lat="42.335418" lon="2.213281">
        <ele>1985.59</ele>
        <time>2015-04-21T09:50:30.03Z</time>
      </trkpt>
      <trkpt lat="42.335360" lon="2.213225">
        <ele>1984.91</ele>
        <time>2015-04-21T12:03:37.57Z</time>
      </trkpt>
      <trkpt lat="42.335324" lon="2.213164">
        <ele>1984.31</ele>
        <time>2015-04-21T13:51:25.41Z</time>
      </trkpt>
      <trkpt lat="42.335299" lon="2.213103">
        <ele>1983.61</ele>
        <time>2015-04-21T15:27:44.83Z</time>
      </trkpt>
      <trkpt lat="42.335285" lon="2.213046">
        <ele>1982.98</ele>
        <time>2015-04-21T16:50:41.84Z</time>
      </trkpt>
      <trkpt lat="42.335311" lon="2.213061">
        <ele>1983.29</ele>
        <time>2015-04-21T17:43:30.26Z</time>
      </trkpt>
      <trkpt lat="42.335321" lon="2.213090">
        <ele>1983.56</ele>
        <time>2015-04-21T18:27:41.83Z</time>
      </trkpt>
      <trkpt lat="42.335331" lon="2.213122">
        <ele>1983.91</ele>
        <time>2015-04-21T19:15:40.61Z</time>
      </trkpt>
      <trkpt lat="42.335345" lon="2.213145">
        <ele>1984.16</ele>
        <time>2015-04-21T19:56:49.39Z</time>
      </trkpt>
      <trkpt lat="42.335344" lon="2.213172">
        <ele>1984.48</ele>
        <time>2015-04-21T20:34:09.47Z</time>
      </trkpt>
      <trkpt lat="42.335325" lon="2.213163">
        <ele>1984.33</ele>
        <time>2015-04-21T21:11:46.04Z</time>
      </trkpt>
      <trkpt lat="42.335305" lon="2.213148">
        <ele>1984.16</ele>
        <time>2015-04-21T21:54:29.42Z</time>
      </trkpt>
      <trkpt lat="42.335275" lon="2.213144">
        <ele>1983.96</ele>
        <time>2015-04-21T22:50:48.53Z</time>
      </trkpt>
      <trkpt lat="42.335247" lon="2.213146">
        <ele>1983.91</ele>
        <time>2015-04-21T23:43:11.54Z</time>
      </trkpt>
      <trkpt lat="42.335218" lon="2.213148">
        <ele>1983.81</ele>
        <time>2015-04-22T00:37:26.48Z</time>
      </trkpt>
      <trkpt lat="42.335181" lon="2.213133">
        <ele>1983.46</ele>
        <time>2015-04-22T01:49:36.20Z</time>
      </trkpt>
      <trkpt lat="42.335152" lon="2.213122">
        <ele>1983.14</ele>
        <time>2015-04-22T02:45:52.30Z</time>
      </trkpt>
      <trkpt lat="42.335121" lon="2.213109">
        <ele>1982.81</ele>
        <time>2015-04-22T03:46:30.35Z</time>
      </trkpt>
      <trkpt lat="42.335091" lon="2.213091">
        <ele>1982.37</ele>
        <time>2015-04-22T04:47:49.09Z</time>
      </trkpt>
      <trkpt lat="42.335065" lon="2.213064">
        <ele>1981.62</ele>
        <time>2015-04-22T05:49:03.24Z</time>
      </trkpt>
      <trkpt lat="42.335043" lon="2.213028">
        <ele>1981.04</ele>
        <time>2015-04-22T06:53:33.64Z</time>
      </trkpt>
      <trkpt lat="42.335023" lon="2.212994">
        <ele>1980.54</ele>
        <time>2015-04-22T07:53:34.09Z</time>
      </trkpt>
      <trkpt lat="42.335001" lon="2.212956">
        <ele>1979.93</ele>
        <time>2015-04-22T09:00:13.62Z</time>
      </trkpt>
      <trkpt lat="42.334981" lon="2.212931">
        <ele>1979.42</ele>
        <time>2015-04-22T09:51:06.05Z</time>
      </trkpt>
      <trkpt lat="42.334965" lon="2.212917">
        <ele>1979.00</ele>
        <time>2015-04-22T10:26:42.03Z</time>
      </trkpt>
      <trkpt lat="42.334941" lon="2.212908">
        <ele>1978.61</ele>
        <time>2015-04-22T11:13:13.74Z</time>
      </trkpt>
      <trkpt lat="42.334919" lon="2.212910">
        <ele>1978.31</ele>
        <time>2015-04-22T11:54:25.37Z</time>
      </trkpt>
      <trkpt lat="42.334893" lon="2.212909">
        <ele>1977.92</ele>
        <time>2015-04-22T12:43:00.99Z</time>
      </trkpt>
      <trkpt lat="42.334855" lon="2.212887">
        <ele>1977.19</ele>
        <time>2015-04-22T14:00:14.26Z</time>
      </trkpt>
      <trkpt lat="42.334842" lon="2.212869">
        <ele>1976.73</ele>
        <time>2015-04-22T14:34:59.48Z</time>
      </trkpt>
      <trkpt lat="42.334822" lon="2.212859">
        <ele>1976.34</ele>
        <time>2015-04-22T15:14:49.59Z</time>
      </trkpt>
      <trkpt lat="42.334803" lon="2.212851">
        <ele>1976.02</ele>
        <time>2015-04-22T15:52:00.16Z</time>
      </trkpt>
      <trkpt lat="42.334781" lon="2.212834">
        <ele>1975.55</ele>
        <time>2015-04-22T16:39:20.20Z</time>
      </trkpt>
      <trkpt lat="42.334763" lon="2.212812">
        <ele>1975.07</ele>
        <time>2015-04-22T17:24:39.45Z</time>
      </trkpt>
      <trkpt lat="42.334756" lon="2.212787">
        <ele>1974.66</ele>
        <time>2015-04-22T18:01:34.63Z</time>
      </trkpt>
      <trkpt lat="42.334753" lon="2.212762">
        <ele>1974.39</ele>
        <time>2015-04-22T18:36:33.31Z</time>
      </trkpt>
      <trkpt lat="42.334720" lon="2.212723">
        <ele>1973.64</ele>
        <time>2015-04-22T19:58:25.22Z</time>
      </trkpt>
      <trkpt lat="42.334679" lon="2.212700">
        <ele>1972.63</ele>
        <time>2015-04-22T21:21:20.57Z</time>
      </trkpt>
      <trkpt lat="42.334640" lon="2.212672">
        <ele>1971.61</ele>
        <time>2015-04-22T22:43:49.77Z</time>
      </trkpt>
      <trkpt lat="42.334621" lon="2.212655">
        <ele>1971.15</ele>
        <time>2015-04-22T23:26:23.26Z</time>
      </trkpt>
      <trkpt lat="42.334622" lon="2.212627">
        <ele>1970.94</ele>
        <time>2015-04-23T00:05:06.12Z</time>
      </trkpt>
      <trkpt lat="42.334592" lon="2.212584">
        <ele>1969.93</ele>
        <time>2015-04-23T01:26:45.53Z</time>
      </trkpt>
      <trkpt lat="42.334565" lon="2.212564">
        <ele>1969.28</ele>
        <time>2015-04-23T02:24:16.09Z</time>
      </trkpt>
      <trkpt lat="42.334533" lon="2.212549">
        <ele>1968.41</ele>
        <time>2015-04-23T03:27:32.35Z</time>
      </trkpt>
      <trkpt lat="42.334502" lon="2.212531">
        <ele>1967.68</ele>
        <time>2015-04-23T04:30:33.84Z</time>
      </trkpt>
      <trkpt lat="42.334473" lon="2.212507">
        <ele>1966.75</ele>
        <time>2015-04-23T05:34:04.64Z</time>
      </trkpt>
      <trkpt lat="42.334382" lon="2.212404">
        <ele>1963.88</ele>
        <time>2015-04-23T09:15:44.84Z</time>
      </trkpt>
      <trkpt lat="42.334286" lon="2.212290">
        <ele>1961.15</ele>
        <time>2015-04-23T13:14:23.84Z</time>
      </trkpt>
      <trkpt lat="42.334206" lon="2.212214">
        <ele>1959.30</ele>
        <time>2015-04-23T16:17:01.77Z</time>
      </trkpt>
      <trkpt lat="42.334134" lon="2.212129">
        <ele>1957.31</ele>
        <time>2015-04-23T19:15:33.74Z</time>
      </trkpt>
      <trkpt lat="42.334051" lon="2.212070">
        <ele>1954.91</ele>
        <time>2015-04-23T22:10:43.85Z</time>
      </trkpt>
      <trkpt lat="42.333949" lon="2.212039">
        <ele>1952.33</ele>
        <time>2015-04-24T01:26:02.45Z</time>
      </trkpt>
      <trkpt lat="42.333893" lon="2.211908">
        <ele>1949.87</ele>
        <time>2015-04-24T04:55:01.90Z</time>
      </trkpt>
      <trkpt lat="42.333803" lon="2.211820">
        <ele>1946.65</ele>
        <time>2015-04-24T08:22:29.80Z</time>
      </trkpt>
      <trkpt lat="42.333691" lon="2.211755">
        <ele>1942.97</ele>
        <time>2015-04-24T12:10:10.94Z</time>
      </trkpt>
      <trkpt lat="42.333587" lon="2.211679">
        <ele>1939.58</ele>
        <time>2015-04-24T15:51:01Z</time>
      </trkpt>
      <trkpt lat="42.333503" lon="2.211597">
        <ele>1937.10</ele>
        <time>2015-04-24T19:04:32.60Z</time>
      </trkpt>
      <trkpt lat="42.333393" lon="2.211489">
        <ele>1933.94</ele>
        <time>2015-04-24T23:18:28.34Z</time>
      </trkpt>
      <trkpt lat="42.333322" lon="2.211401">
        <ele>1931.90</ele>
        <time>2015-04-25T02:18:22.53Z</time>
      </trkpt>
      <trkpt lat="42.333282" lon="2.211280">
        <ele>1930.54</ele>
        <time>2015-04-25T05:21:26Z</time>
      </trkpt>
      <trkpt lat="42.333265" lon="2.211134">
        <ele>1929.66</ele>
        <time>2015-04-25T08:45:33.36Z</time>
      </trkpt>
      <trkpt lat="42.333272" lon="2.211101">
        <ele>1929.61</ele>
        <time>2015-04-25T09:32:58.23Z</time>
      </trkpt>
      <trkpt lat="42.333264" lon="2.211068">
        <ele>1929.31</ele>
        <time>2015-04-25T10:20:56.04Z</time>
      </trkpt>
      <trkpt lat="42.333246" lon="2.211041">
        <ele>1928.82</ele>
        <time>2015-04-25T11:11:08.81Z</time>
      </trkpt>
      <trkpt lat="42.333220" lon="2.211027">
        <ele>1928.25</ele>
        <time>2015-04-25T12:03:25.66Z</time>
      </trkpt>
      <trkpt lat="42.333162" lon="2.210878">
        <ele>1926.73</ele>
        <time>2015-04-25T15:55:59.60Z</time>
      </trkpt>
      <trkpt lat="42.333145" lon="2.210820">
        <ele>1926.40</ele>
        <time>2015-04-25T17:22:09.74Z</time>
      </trkpt>
      <trkpt lat="42.333128" lon="2.210765">
        <ele>1926.01</ele>
        <time>2015-04-25T18:44:29.64Z</time>
      </trkpt>
      <trkpt lat="42.333106" lon="2.210712">
        <ele>1925.62</ele>
        <time>2015-04-25T20:08:26.46Z</time>
      </trkpt>
      <trkpt lat="42.333086" lon="2.210664">
        <ele>1925.49</ele>
        <time>2015-04-25T21:24:32.26Z</time>
      </trkpt>
      <trkpt lat="42.333069" lon="2.210618">
        <ele>1925.26</ele>
        <time>2015-04-25T22:35:33.83Z</time>
      </trkpt>
      <trkpt lat="42.333058" lon="2.210577">
        <ele>1925.05</ele>
        <time>2015-04-25T23:35:48.11Z</time>
      </trkpt>
      <trkpt lat="42.333055" lon="2.210538">
        <ele>1924.96</ele>
        <time>2015-04-26T00:29:57.28Z</time>
      </trkpt>
      <trkpt lat="42.333053" lon="2.210499">
        <ele>1924.81</ele>
        <time>2015-04-26T01:23:56.77Z</time>
      </trkpt>
      <trkpt lat="42.333050" lon="2.210462">
        <ele>1924.61</ele>
        <time>2015-04-26T02:15:21.15Z</time>
      </trkpt>
      <trkpt lat="42.333047" lon="2.210428">
        <ele>1924.53</ele>
        <time>2015-04-26T03:02:38.55Z</time>
      </trkpt>
      <trkpt lat="42.333046" lon="2.210400">
        <ele>1924.43</ele>
        <time>2015-04-26T03:41:21.47Z</time>
      </trkpt>
      <trkpt lat="42.333041" lon="2.210362">
        <ele>1924.27</ele>
        <time>2015-04-26T04:34:39.82Z</time>
      </trkpt>
      <trkpt lat="42.333030" lon="2.210323">
        <ele>1924.02</ele>
        <time>2015-04-26T05:32:18.78Z</time>
      </trkpt>
      <trkpt lat="42.333015" lon="2.210292">
        <ele>1923.82</ele>
        <time>2015-04-26T06:23:28.94Z</time>
      </trkpt>
      <trkpt lat="42.332996" lon="2.210274">
        <ele>1923.62</ele>
        <time>2015-04-26T07:06:49.09Z</time>
      </trkpt>
      <trkpt lat="42.332977" lon="2.210270">
        <ele>1923.46</ele>
        <time>2015-04-26T07:42:44.51Z</time>
      </trkpt>
      <trkpt lat="42.332958" lon="2.210284">
        <ele>1923.34</ele>
        <time>2015-04-26T08:23:09.76Z</time>
      </trkpt>
      <trkpt lat="42.332943" lon="2.210312">
        <ele>1923.47</ele>
        <time>2015-04-26T09:10:55.16Z</time>
      </trkpt>
      <trkpt lat="42.332924" lon="2.210336">
        <ele>1923.43</ele>
        <time>2015-04-26T09:59:29.12Z</time>
      </trkpt>
      <trkpt lat="42.332901" lon="2.210351">
        <ele>1923.32</ele>
        <time>2015-04-26T10:47:11.27Z</time>
      </trkpt>
      <trkpt lat="42.332879" lon="2.210367">
        <ele>1923.31</ele>
        <time>2015-04-26T11:33:51.15Z</time>
      </trkpt>
      <trkpt lat="42.332859" lon="2.210385">
        <ele>1923.29</ele>
        <time>2015-04-26T12:18:43.88Z</time>
      </trkpt>
      <trkpt lat="42.332840" lon="2.210404">
        <ele>1923.38</ele>
        <time>2015-04-26T13:02:52.44Z</time>
      </trkpt>
      <trkpt lat="42.332821" lon="2.210423">
        <ele>1923.32</ele>
        <time>2015-04-26T13:47:00.99Z</time>
      </trkpt>
      <trkpt lat="42.332802" lon="2.210440">
        <ele>1923.37</ele>
        <time>2015-04-26T14:29:34.50Z</time>
      </trkpt>
      <trkpt lat="42.332781" lon="2.210456">
        <ele>1923.35</ele>
        <time>2015-04-26T15:14:36.18Z</time>
      </trkpt>
      <trkpt lat="42.332758" lon="2.210471">
        <ele>1923.23</ele>
        <time>2015-04-26T16:02:18.33Z</time>
      </trkpt>
      <trkpt lat="42.332733" lon="2.210485">
        <ele>1923.06</ele>
        <time>2015-04-26T16:52:51.32Z</time>
      </trkpt>
      <trkpt lat="42.332706" lon="2.210492">
        <ele>1922.83</ele>
        <time>2015-04-26T17:44:12.94Z</time>
      </trkpt>
      <trkpt lat="42.332676" lon="2.210497">
        <ele>1922.64</ele>
        <time>2015-04-26T18:40:41.19Z</time>
      </trkpt>
      <trkpt lat="42.332646" lon="2.210506">
        <ele>1922.37</ele>
        <time>2015-04-26T19:38:05.72Z</time>
      </trkpt>
      <trkpt lat="42.332617" lon="2.210517">
        <ele>1922.12</ele>
        <time>2015-04-26T20:34:21.82Z</time>
      </trkpt>
      <trkpt lat="42.332588" lon="2.210528">
        <ele>1921.81</ele>
        <time>2015-04-26T21:30:37.93Z</time>
      </trkpt>
      <trkpt lat="42.332558" lon="2.210537">
        <ele>1921.60</ele>
        <time>2015-04-26T22:28:02.45Z</time>
      </trkpt>
      <trkpt lat="42.332524" lon="2.210544">
        <ele>1921.26</ele>
        <time>2015-04-26T23:32:17.54Z</time>
      </trkpt>
      <trkpt lat="42.332489" lon="2.210551">
        <ele>1920.92</ele>
        <time>2015-04-27T00:38:23.48Z</time>
      </trkpt>
      <trkpt lat="42.332454" lon="2.210560">
        <ele>1920.53</ele>
        <time>2015-04-27T01:44:57.02Z</time>
      </trkpt>
      <trkpt lat="42.332417" lon="2.210567">
        <ele>1920.15</ele>
        <time>2015-04-27T02:54:44.87Z</time>
      </trkpt>
      <trkpt lat="42.332376" lon="2.210566">
        <ele>1919.79</ele>
        <time>2015-04-27T04:11:21.47Z</time>
      </trkpt>
      <trkpt lat="42.332332" lon="2.210560">
        <ele>1919.25</ele>
        <time>2015-04-27T05:33:58.60Z</time>
      </trkpt>
      <trkpt lat="42.332287" lon="2.210550">
        <ele>1918.73</ele>
        <time>2015-04-27T06:59:10.44Z</time>
      </trkpt>
      <trkpt lat="42.332243" lon="2.210539">
        <ele>1918.23</ele>
        <time>2015-04-27T08:22:46.10Z</time>
      </trkpt>
      <trkpt lat="42.332199" lon="2.210521">
        <ele>1917.69</ele>
        <time>2015-04-27T09:48:38.85Z</time>
      </trkpt>
      <trkpt lat="42.332155" lon="2.210496">
        <ele>1917.11</ele>
        <time>2015-04-27T11:17:48.40Z</time>
      </trkpt>
      <trkpt lat="42.332110" lon="2.210469">
        <ele>1916.61</ele>
        <time>2015-04-27T12:49:46.56Z</time>
      </trkpt>
      <trkpt lat="42.332069" lon="2.210434">
        <ele>1916.17</ele>
        <time>2015-04-27T14:20:21.05Z</time>
      </trkpt>
      <trkpt lat="42.332038" lon="2.210392">
        <ele>1915.84</ele>
        <time>2015-04-27T15:42:19.18Z</time>
      </trkpt>
      <trkpt lat="42.332016" lon="2.210344">
        <ele>1915.63</ele>
        <time>2015-04-27T17:00:19.20Z</time>
      </trkpt>
      <trkpt lat="42.331995" lon="2.210298">
        <ele>1915.49</ele>
        <time>2015-04-27T18:14:59.30Z</time>
      </trkpt>
      <trkpt lat="42.331972" lon="2.210258">
        <ele>1915.17</ele>
        <time>2015-04-27T19:24:58.56Z</time>
      </trkpt>
      <trkpt lat="42.331950" lon="2.210225">
        <ele>1914.87</ele>
        <time>2015-04-27T20:26:20.87Z</time>
      </trkpt>
      <trkpt lat="42.331933" lon="2.210192">
        <ele>1914.79</ele>
        <time>2015-04-27T21:21:53.93Z</time>
      </trkpt>
      <trkpt lat="42.331913" lon="2.210160">
        <ele>1914.52</ele>
        <time>2015-04-27T22:19:46.34Z</time>
      </trkpt>
      <trkpt lat="42.331893" lon="2.210138">
        <ele>1914.50</ele>
        <time>2015-04-27T23:07:55.90Z</time>
      </trkpt>
      <trkpt lat="42.331873" lon="2.210122">
        <ele>1914.31</ele>
        <time>2015-04-27T23:51:20.50Z</time>
      </trkpt>
      <trkpt lat="42.331854" lon="2.210106">
        <ele>1914.23</ele>
        <time>2015-04-28T00:33:09.26Z</time>
      </trkpt>
      <trkpt lat="42.331840" lon="2.210080">
        <ele>1914.01</ele>
        <time>2015-04-28T01:17:34.73Z</time>
      </trkpt>
      <trkpt lat="42.331828" lon="2.210050">
        <ele>1913.86</ele>
        <time>2015-04-28T02:04:41.30Z</time>
      </trkpt>
      <trkpt lat="42.331816" lon="2.210020">
        <ele>1913.70</ele>
        <time>2015-04-28T02:51:47.87Z</time>
      </trkpt>
      <trkpt lat="42.331801" lon="2.209994">
        <ele>1913.46</ele>
        <time>2015-04-28T03:37:20.84Z</time>
      </trkpt>
      <trkpt lat="42.331784" lon="2.209976">
        <ele>1913.24</ele>
        <time>2015-04-28T04:17:40.79Z</time>
      </trkpt>
      <trkpt lat="42.331763" lon="2.209960">
        <ele>1913.16</ele>
        <time>2015-04-28T05:02:42.48Z</time>
      </trkpt>
      <trkpt lat="42.331740" lon="2.209943">
        <ele>1912.92</ele>
        <time>2015-04-28T05:51:40.41Z</time>
      </trkpt>
      <trkpt lat="42.331720" lon="2.209924">
        <ele>1912.70</ele>
        <time>2015-04-28T06:37:19.92Z</time>
      </trkpt>
      <trkpt lat="42.331709" lon="2.209902">
        <ele>1912.43</ele>
        <time>2015-04-28T07:14:00.82Z</time>
      </trkpt>
      <trkpt lat="42.331696" lon="2.209880">
        <ele>1912.24</ele>
        <time>2015-04-28T07:52:54.71Z</time>
      </trkpt>
      <trkpt lat="42.331675" lon="2.209852">
        <ele>1912.05</ele>
        <time>2015-04-28T08:47:59.98Z</time>
      </trkpt>
      <trkpt lat="42.331670" lon="2.209818">
        <ele>1911.71</ele>
        <time>2015-04-28T09:35:52.64Z</time>
      </trkpt>
      <trkpt lat="42.331674" lon="2.209790">
        <ele>1911.51</ele>
        <time>2015-04-28T10:15:15.83Z</time>
      </trkpt>
      <trkpt lat="42.331667" lon="2.209766">
        <ele>1911.36</ele>
        <time>2015-04-28T10:50:53.82Z</time>
      </trkpt>
      <trkpt lat="42.331651" lon="2.209745">
        <ele>1911.17</ele>
        <time>2015-04-28T11:32:32.81Z</time>
      </trkpt>
      <trkpt lat="42.331632" lon="2.209722">
        <ele>1910.98</ele>
        <time>2015-04-28T12:20:10.88Z</time>
      </trkpt>
      <trkpt lat="42.331613" lon="2.209702">
        <ele>1910.79</ele>
        <time>2015-04-28T13:05:09.53Z</time>
      </trkpt>
      <trkpt lat="42.331592" lon="2.209674">
        <ele>1910.64</ele>
        <time>2015-04-28T14:00:14.80Z</time>
      </trkpt>
      <trkpt lat="42.331567" lon="2.209644">
        <ele>1910.49</ele>
        <time>2015-04-28T15:02:40.92Z</time>
      </trkpt>
      <trkpt lat="42.331486" lon="2.209536">
        <ele>1909.71</ele>
        <time>2015-04-28T18:35:09.83Z</time>
      </trkpt>
      <trkpt lat="42.331429" lon="2.209490">
        <ele>1909.35</ele>
        <time>2015-04-28T20:39:09.87Z</time>
      </trkpt>
      <trkpt lat="42.331411" lon="2.209472">
        <ele>1909.29</ele>
        <time>2015-04-28T21:20:59.05Z</time>
      </trkpt>
      <trkpt lat="42.331400" lon="2.209438">
        <ele>1909.02</ele>
        <time>2015-04-28T22:12:14.52Z</time>
      </trkpt>
      <trkpt lat="42.331378" lon="2.209429">
        <ele>1908.73</ele>
        <time>2015-04-28T22:55:10.90Z</time>
      </trkpt>
      <trkpt lat="42.331367" lon="2.209410">
        <ele>1908.41</ele>
        <time>2015-04-28T23:28:30.73Z</time>
      </trkpt>
      <trkpt lat="42.331377" lon="2.209384">
        <ele>1908.26</ele>
        <time>2015-04-29T00:08:59.42Z</time>
      </trkpt>
      <trkpt lat="42.331378" lon="2.209350">
        <ele>1907.83</ele>
        <time>2015-04-29T00:55:59.13Z</time>
      </trkpt>
      <trkpt lat="42.331372" lon="2.209325">
        <ele>1907.60</ele>
        <time>2015-04-29T01:32:17.24Z</time>
      </trkpt>
      <trkpt lat="42.331352" lon="2.209286">
        <ele>1906.88</ele>
        <time>2015-04-29T02:37:50.51Z</time>
      </trkpt>
      <trkpt lat="42.331343" lon="2.209258">
        <ele>1906.41</ele>
        <time>2015-04-29T03:20:00.62Z</time>
      </trkpt>
      <trkpt lat="42.331291" lon="2.209207">
        <ele>1905.12</ele>
        <time>2015-04-29T05:20:00.40Z</time>
      </trkpt>
      <trkpt lat="42.331288" lon="2.209183">
        <ele>1904.74</ele>
        <time>2015-04-29T05:53:37.43Z</time>
      </trkpt>
      <trkpt lat="42.331284" lon="2.209063">
        <ele>1903.73</ele>
        <time>2015-04-29T08:39:31.58Z</time>
      </trkpt>
      <trkpt lat="42.331276" lon="2.209038">
        <ele>1903.46</ele>
        <time>2015-04-29T09:17:09.01Z</time>
      </trkpt>
      <trkpt lat="42.331268" lon="2.208989">
        <ele>1903.04</ele>
        <time>2015-04-29T10:26:27.34Z</time>
      </trkpt>
      <trkpt lat="42.331246" lon="2.208929">
        <ele>1902.22</ele>
        <time>2015-04-29T11:58:57.34Z</time>
      </trkpt>
      <trkpt lat="42.331239" lon="2.208905">
        <ele>1902.01</ele>
        <time>2015-04-29T12:34:35.34Z</time>
      </trkpt>
      <trkpt lat="42.331233" lon="2.208863">
        <ele>1901.55</ele>
        <time>2015-04-29T13:33:40.15Z</time>
      </trkpt>
      <trkpt lat="42.331213" lon="2.208870">
        <ele>1901.28</ele>
        <time>2015-04-29T14:12:15.86Z</time>
      </trkpt>
      <trkpt lat="42.331182" lon="2.208887">
        <ele>1901.05</ele>
        <time>2015-04-29T15:14:45.47Z</time>
      </trkpt>
      <trkpt lat="42.331164" lon="2.208896">
        <ele>1900.88</ele>
        <time>2015-04-29T15:50:36.58Z</time>
      </trkpt>
      <trkpt lat="42.331146" lon="2.208901">
        <ele>1900.62</ele>
        <time>2015-04-29T16:24:56.38Z</time>
      </trkpt>
      <trkpt lat="42.331125" lon="2.208882">
        <ele>1900.12</ele>
        <time>2015-04-29T17:12:08.37Z</time>
      </trkpt>
      <trkpt lat="42.331117" lon="2.208854">
        <ele>1899.62</ele>
        <time>2015-04-29T17:53:35.91Z</time>
      </trkpt>
      <trkpt lat="42.331116" lon="2.208829">
        <ele>1899.26</ele>
        <time>2015-04-29T18:28:10.62Z</time>
      </trkpt>
      <trkpt lat="42.331096" lon="2.208799">
        <ele>1898.32</ele>
        <time>2015-04-29T19:23:58.21Z</time>
      </trkpt>
      <trkpt lat="42.331080" lon="2.208785">
        <ele>1897.80</ele>
        <time>2015-04-29T19:59:34.23Z</time>
      </trkpt>
      <trkpt lat="42.331077" lon="2.208748">
        <ele>1897.12</ele>
        <time>2015-04-29T20:50:58.70Z</time>
      </trkpt>
      <trkpt lat="42.331070" lon="2.208712">
        <ele>1896.41</ele>
        <time>2015-04-29T21:42:23.39Z</time>
      </trkpt>
      <trkpt lat="42.331067" lon="2.208664">
        <ele>1895.71</ele>
        <time>2015-04-29T22:48:55.21Z</time>
      </trkpt>
      <trkpt lat="42.331067" lon="2.208632">
        <ele>1895.22</ele>
        <time>2015-04-29T23:33:06.97Z</time>
      </trkpt>
      <trkpt lat="42.331045" lon="2.208496">
        <ele>1892.52</ele>
        <time>2015-04-30T02:45:23.58Z</time>
      </trkpt>
      <trkpt lat="42.331019" lon="2.208371">
        <ele>1889.62</ele>
        <time>2015-04-30T05:44:44.19Z</time>
      </trkpt>
      <trkpt lat="42.331004" lon="2.208311">
        <ele>1887.89</ele>
        <time>2015-04-30T07:12:12.84Z</time>
      </trkpt>
      <trkpt lat="42.331006" lon="2.208285">
        <ele>1887.18</ele>
        <time>2015-04-30T07:48:19.02Z</time>
      </trkpt>
      <trkpt lat="42.330995" lon="2.208263">
        <ele>1886.05</ele>
        <time>2015-04-30T08:24:59.93Z</time>
      </trkpt>
      <trkpt lat="42.330977" lon="2.208252">
        <ele>1885.04</ele>
        <time>2015-04-30T09:01:53.98Z</time>
      </trkpt>
      <trkpt lat="42.330952" lon="2.208262">
        <ele>1884.53</ele>
        <time>2015-04-30T09:50:36.28Z</time>
      </trkpt>
      <trkpt lat="42.330935" lon="2.208269">
        <ele>1884.10</ele>
        <time>2015-04-30T10:23:48.21Z</time>
      </trkpt>
      <trkpt lat="42.330928" lon="2.208302">
        <ele>1885.02</ele>
        <time>2015-04-30T11:11:13.19Z</time>
      </trkpt>
      <trkpt lat="42.330913" lon="2.208326">
        <ele>1885.31</ele>
        <time>2015-04-30T11:54:37.52Z</time>
      </trkpt>
      <trkpt lat="42.330910" lon="2.208359">
        <ele>1886.05</ele>
        <time>2015-04-30T12:40:32.74Z</time>
      </trkpt>
      <trkpt lat="42.330901" lon="2.208381">
        <ele>1886.16</ele>
        <time>2015-04-30T13:15:16.35Z</time>
      </trkpt>
      <trkpt lat="42.330899" lon="2.208411">
        <ele>1886.77</ele>
        <time>2015-04-30T13:56:52.46Z</time>
      </trkpt>
      <trkpt lat="42.330897" lon="2.208439">
        <ele>1887.24</ele>
        <time>2015-04-30T14:35:43.56Z</time>
      </trkpt>
      <trkpt lat="42.330902" lon="2.208473">
        <ele>1888.05</ele>
        <time>2015-04-30T15:23:36.26Z</time>
      </trkpt>
      <trkpt lat="42.330910" lon="2.208496">
        <ele>1888.79</ele>
        <time>2015-04-30T15:58:42.64Z</time>
      </trkpt>
      <trkpt lat="42.330913" lon="2.208521">
        <ele>1889.21</ele>
        <time>2015-04-30T16:33:41.44Z</time>
      </trkpt>
      <trkpt lat="42.330915" lon="2.208549">
        <ele>1889.86</ele>
        <time>2015-04-30T17:12:32.53Z</time>
      </trkpt>
      <trkpt lat="42.330916" lon="2.208581">
        <ele>1890.53</ele>
        <time>2015-04-30T17:56:46.66Z</time>
      </trkpt>
      <trkpt lat="42.330904" lon="2.208614">
        <ele>1890.89</ele>
        <time>2015-04-30T18:47:34.21Z</time>
      </trkpt>
      <trkpt lat="42.330896" lon="2.208648">
        <ele>1891.11</ele>
        <time>2015-04-30T19:36:50.97Z</time>
      </trkpt>
      <trkpt lat="42.330880" lon="2.208675">
        <ele>1891.11</ele>
        <time>2015-04-30T20:24:38.50Z</time>
      </trkpt>
      <trkpt lat="42.330852" lon="2.208684">
        <ele>1890.59</ele>
        <time>2015-04-30T21:18:24.53Z</time>
      </trkpt>
      <trkpt lat="42.330834" lon="2.208698">
        <ele>1890.35</ele>
        <time>2015-04-30T21:57:11.98Z</time>
      </trkpt>
      <trkpt lat="42.330801" lon="2.208710">
        <ele>1889.38</ele>
        <time>2015-04-30T23:01:02.41Z</time>
      </trkpt>
      <trkpt lat="42.330783" lon="2.208718">
        <ele>1888.86</ele>
        <time>2015-04-30T23:36:26.22Z</time>
      </trkpt>
      <trkpt lat="42.330767" lon="2.208732">
        <ele>1888.54</ele>
        <time>2015-05-01T00:12:02.25Z</time>
      </trkpt>
      <trkpt lat="42.330738" lon="2.208753">
        <ele>1887.84</ele>
        <time>2015-05-01T01:13:29.47Z</time>
      </trkpt>
      <trkpt lat="42.330717" lon="2.208767">
        <ele>1887.38</ele>
        <time>2015-05-01T01:57:13.80Z</time>
      </trkpt>
      <trkpt lat="42.330690" lon="2.208780">
        <ele>1886.61</ele>
        <time>2015-05-01T02:50:46.35Z</time>
      </trkpt>
      <trkpt lat="42.330661" lon="2.208787">
        <ele>1885.76</ele>
        <time>2015-05-01T03:45:48.43Z</time>
      </trkpt>
      <trkpt lat="42.330635" lon="2.208798">
        <ele>1885.00</ele>
        <time>2015-05-01T04:36:42.10Z</time>
      </trkpt>
      <trkpt lat="42.330540" lon="2.208844">
        <ele>1882.52</ele>
        <time>2015-05-01T07:45:12.73Z</time>
      </trkpt>
      <trkpt lat="42.330491" lon="2.208882">
        <ele>1880.91</ele>
        <time>2015-05-01T09:30:43.99Z</time>
      </trkpt>
      <trkpt lat="42.330466" lon="2.208896">
        <ele>1879.99</ele>
        <time>2015-05-01T10:21:17Z</time>
      </trkpt>
      <trkpt lat="42.330450" lon="2.208914">
        <ele>1879.58</ele>
        <time>2015-05-01T11:00:09.72Z</time>
      </trkpt>
      <trkpt lat="42.330432" lon="2.208930">
        <ele>1878.99</ele>
        <time>2015-05-01T11:40:24.07Z</time>
      </trkpt>
      <trkpt lat="42.330394" lon="2.208944">
        <ele>1877.38</ele>
        <time>2015-05-01T12:53:58.81Z</time>
      </trkpt>
      <trkpt lat="42.330363" lon="2.208970">
        <ele>1876.48</ele>
        <time>2015-05-01T14:02:07.47Z</time>
      </trkpt>
      <trkpt lat="42.330360" lon="2.209008">
        <ele>1876.95</ele>
        <time>2015-05-01T14:54:54.37Z</time>
      </trkpt>
      <trkpt lat="42.330348" lon="2.209028">
        <ele>1876.76</ele>
        <time>2015-05-01T15:30:28.90Z</time>
      </trkpt>
      <trkpt lat="42.330329" lon="2.209032">
        <ele>1875.99</ele>
        <time>2015-05-01T16:06:24.33Z</time>
      </trkpt>
      <trkpt lat="42.330247" lon="2.209102">
        <ele>1873.46</ele>
        <time>2015-05-01T19:07:33.40Z</time>
      </trkpt>
      <trkpt lat="42.330191" lon="2.209216">
        <ele>1872.51</ele>
        <time>2015-05-01T22:16:35.79Z</time>
      </trkpt>
      <trkpt lat="42.330177" lon="2.209248">
        <ele>1872.32</ele>
        <time>2015-05-01T23:07:57.14Z</time>
      </trkpt>
      <trkpt lat="42.330162" lon="2.209276">
        <ele>1871.91</ele>
        <time>2015-05-01T23:55:42.63Z</time>
      </trkpt>
      <trkpt lat="42.330129" lon="2.209298">
        <ele>1870.80</ele>
        <time>2015-05-02T01:04:26.59Z</time>
      </trkpt>
      <trkpt lat="42.330107" lon="2.209312">
        <ele>1869.95</ele>
        <time>2015-05-02T01:49:51.93Z</time>
      </trkpt>
      <trkpt lat="42.330090" lon="2.209322">
        <ele>1869.36</ele>
        <time>2015-05-02T02:24:29.91Z</time>
      </trkpt>
      <trkpt lat="42.330040" lon="2.209356">
        <ele>1867.60</ele>
        <time>2015-05-02T04:09:02.96Z</time>
      </trkpt>
      <trkpt lat="42.330017" lon="2.209370">
        <ele>1866.79</ele>
        <time>2015-05-02T04:56:10.14Z</time>
      </trkpt>
      <trkpt lat="42.329992" lon="2.209386">
        <ele>1865.85</ele>
        <time>2015-05-02T05:47:50.33Z</time>
      </trkpt>
      <trkpt lat="42.329966" lon="2.209408">
        <ele>1865.17</ele>
        <time>2015-05-02T06:45:08.02Z</time>
      </trkpt>
      <trkpt lat="42.329944" lon="2.209432">
        <ele>1864.63</ele>
        <time>2015-05-02T07:37:56.14Z</time>
      </trkpt>
      <trkpt lat="42.329925" lon="2.209450">
        <ele>1864.18</ele>
        <time>2015-05-02T08:21:16.33Z</time>
      </trkpt>
      <trkpt lat="42.329903" lon="2.209488">
        <ele>1863.73</ele>
        <time>2015-05-02T09:27:56.05Z</time>
      </trkpt>
      <trkpt lat="42.329899" lon="2.209516">
        <ele>1863.92</ele>
        <time>2015-05-02T10:07:19.30Z</time>
      </trkpt>
      <trkpt lat="42.329893" lon="2.209540">
        <ele>1864.01</ele>
        <time>2015-05-02T10:42:18.80Z</time>
      </trkpt>
      <trkpt lat="42.329884" lon="2.209574">
        <ele>1864.16</ele>
        <time>2015-05-02T11:32:11.51Z</time>
      </trkpt>
      <trkpt lat="42.329868" lon="2.209588">
        <ele>1863.62</ele>
        <time>2015-05-02T12:07:47.54Z</time>
      </trkpt>
      <trkpt lat="42.329852" lon="2.209636">
        <ele>1863.55</ele>
        <time>2015-05-02T13:20:30.89Z</time>
      </trkpt>
      <trkpt lat="42.329841" lon="2.209666">
        <ele>1863.47</ele>
        <time>2015-05-02T14:06:45.94Z</time>
      </trkpt>
      <trkpt lat="42.329828" lon="2.209688">
        <ele>1863.23</ele>
        <time>2015-05-02T14:45:39.87Z</time>
      </trkpt>
      <trkpt lat="42.329800" lon="2.209730">
        <ele>1862.42</ele>
        <time>2015-05-02T16:03:46.54Z</time>
      </trkpt>
      <trkpt lat="42.329776" lon="2.209800">
        <ele>1862.30</ele>
        <time>2015-05-02T17:50:20.84Z</time>
      </trkpt>
      <trkpt lat="42.329777" lon="2.209851">
        <ele>1862.82</ele>
        <time>2015-05-02T19:00:48.65Z</time>
      </trkpt>
      <trkpt lat="42.329780" lon="2.209900">
        <ele>1863.43</ele>
        <time>2015-05-02T20:08:43.13Z</time>
      </trkpt>
      <trkpt lat="42.329784" lon="2.209928">
        <ele>1863.90</ele>
        <time>2015-05-02T20:48:06.39Z</time>
      </trkpt>
      <trkpt lat="42.329782" lon="2.209959">
        <ele>1864.12</ele>
        <time>2015-05-02T21:31:05.09Z</time>
      </trkpt>
      <trkpt lat="42.329784" lon="2.209996">
        <ele>1864.61</ele>
        <time>2015-05-02T22:22:19.43Z</time>
      </trkpt>
      <trkpt lat="42.329791" lon="2.210024">
        <ele>1865.18</ele>
        <time>2015-05-02T23:03:08.84Z</time>
      </trkpt>
      <trkpt lat="42.329785" lon="2.210058">
        <ele>1865.15</ele>
        <time>2015-05-02T23:51:25.55Z</time>
      </trkpt>
      <trkpt lat="42.329768" lon="2.210090">
        <ele>1864.67</ele>
        <time>2015-05-03T00:45:51.03Z</time>
      </trkpt>
      <trkpt lat="42.329753" lon="2.210109">
        <ele>1864.18</ele>
        <time>2015-05-03T01:24:14.55Z</time>
      </trkpt>
      <trkpt lat="42.329727" lon="2.210125">
        <ele>1863.18</ele>
        <time>2015-05-03T02:17:36.43Z</time>
      </trkpt>
      <trkpt lat="42.329702" lon="2.210142">
        <ele>1861.97</ele>
        <time>2015-05-03T03:09:52.96Z</time>
      </trkpt>
      <trkpt lat="42.329676" lon="2.210159">
        <ele>1860.63</ele>
        <time>2015-05-03T04:03:50.03Z</time>
      </trkpt>
      <trkpt lat="42.329658" lon="2.210166">
        <ele>1859.68</ele>
        <time>2015-05-03T04:38:49.45Z</time>
      </trkpt>
      <trkpt lat="42.329639" lon="2.210173">
        <ele>1858.67</ele>
        <time>2015-05-03T05:15:36.82Z</time>
      </trkpt>
      <trkpt lat="42.329623" lon="2.210188">
        <ele>1857.81</ele>
        <time>2015-05-03T05:51:58.98Z</time>
      </trkpt>
      <trkpt lat="42.329610" lon="2.210213">
        <ele>1857.21</ele>
        <time>2015-05-03T06:34:11.88Z</time>
      </trkpt>
      <trkpt lat="42.329591" lon="2.210225">
        <ele>1856.21</ele>
        <time>2015-05-03T07:13:22.38Z</time>
      </trkpt>
      <trkpt lat="42.329584" lon="2.210249">
        <ele>1855.98</ele>
        <time>2015-05-03T07:49:00.43Z</time>
      </trkpt>
      <trkpt lat="42.329579" lon="2.210278">
        <ele>1855.89</ele>
        <time>2015-05-03T08:30:08.13Z</time>
      </trkpt>
      <trkpt lat="42.329565" lon="2.210304">
        <ele>1855.13</ele>
        <time>2015-05-03T09:14:33.66Z</time>
      </trkpt>
      <trkpt lat="42.329554" lon="2.210335">
        <ele>1854.63</ele>
        <time>2015-05-03T10:02:03.20Z</time>
      </trkpt>
      <trkpt lat="42.329547" lon="2.210360">
        <ele>1854.37</ele>
        <time>2015-05-03T10:38:58.55Z</time>
      </trkpt>
      <trkpt lat="42.329530" lon="2.210388">
        <ele>1853.58</ele>
        <time>2015-05-03T11:29:01.09Z</time>
      </trkpt>
      <trkpt lat="42.329508" lon="2.210410">
        <ele>1852.47</ele>
        <time>2015-05-03T12:20:07.90Z</time>
      </trkpt>
      <trkpt lat="42.329481" lon="2.210432">
        <ele>1851.15</ele>
        <time>2015-05-03T13:19:01.13Z</time>
      </trkpt>
      <trkpt lat="42.329457" lon="2.210446">
        <ele>1849.98</ele>
        <time>2015-05-03T14:07:50.89Z</time>
      </trkpt>
      <trkpt lat="42.329427" lon="2.210454">
        <ele>1848.13</ele>
        <time>2015-05-03T15:04:58.43Z</time>
      </trkpt>
      <trkpt lat="42.329406" lon="2.210478">
        <ele>1846.82</ele>
        <time>2015-05-03T15:56:20.12Z</time>
      </trkpt>
      <trkpt lat="42.329388" lon="2.210509">
        <ele>1845.71</ele>
        <time>2015-05-03T16:50:46.71Z</time>
      </trkpt>
      <trkpt lat="42.329368" lon="2.210544">
        <ele>1844.42</ele>
        <time>2015-05-03T17:51:52.57Z</time>
      </trkpt>
      <trkpt lat="42.329349" lon="2.210572">
        <ele>1843.15</ele>
        <time>2015-05-03T18:44:22.17Z</time>
      </trkpt>
      <trkpt lat="42.329345" lon="2.210606">
        <ele>1842.89</ele>
        <time>2015-05-03T19:31:55.19Z</time>
      </trkpt>
      <trkpt lat="42.329347" lon="2.210636">
        <ele>1843.08</ele>
        <time>2015-05-03T20:13:31.36Z</time>
      </trkpt>
      <trkpt lat="42.329353" lon="2.210664">
        <ele>1843.44</ele>
        <time>2015-05-03T20:53:47.22Z</time>
      </trkpt>
      <trkpt lat="42.329357" lon="2.210688">
        <ele>1843.76</ele>
        <time>2015-05-03T21:27:46Z</time>
      </trkpt>
      <trkpt lat="42.329371" lon="2.210710">
        <ele>1844.76</ele>
        <time>2015-05-03T22:07:51.53Z</time>
      </trkpt>
      <trkpt lat="42.329387" lon="2.210726">
        <ele>1845.94</ele>
        <time>2015-05-03T22:45:01.93Z</time>
      </trkpt>
      <trkpt lat="42.329394" lon="2.210752">
        <ele>1846.47</ele>
        <time>2015-05-03T23:23:14.97Z</time>
      </trkpt>
      <trkpt lat="42.329403" lon="2.210778">
        <ele>1847.09</ele>
        <time>2015-05-04T00:02:54.07Z</time>
      </trkpt>
      <trkpt lat="42.329411" lon="2.210802">
        <ele>1847.61</ele>
        <time>2015-05-04T00:39:15.75Z</time>
      </trkpt>
      <trkpt lat="42.329421" lon="2.210824">
        <ele>1848.31</ele>
        <time>2015-05-04T01:14:55.92Z</time>
      </trkpt>
      <trkpt lat="42.329427" lon="2.210848">
        <ele>1848.81</ele>
        <time>2015-05-04T01:49:55.43Z</time>
      </trkpt>
      <trkpt lat="42.329433" lon="2.210874">
        <ele>1849.39</ele>
        <time>2015-05-04T02:27:32.56Z</time>
      </trkpt>
      <trkpt lat="42.329438" lon="2.210902">
        <ele>1849.81</ele>
        <time>2015-05-04T03:07:19.64Z</time>
      </trkpt>
      <trkpt lat="42.329436" lon="2.210927">
        <ele>1849.73</ele>
        <time>2015-05-04T03:42:03.47Z</time>
      </trkpt>
      <trkpt lat="42.329439" lon="2.210952">
        <ele>1850.04</ele>
        <time>2015-05-04T04:17:02.32Z</time>
      </trkpt>
      <trkpt lat="42.329434" lon="2.210984">
        <ele>1849.75</ele>
        <time>2015-05-04T05:02:12.72Z</time>
      </trkpt>
      <trkpt lat="42.329435" lon="2.211012">
        <ele>1849.98</ele>
        <time>2015-05-04T05:40:55.77Z</time>
      </trkpt>
      <trkpt lat="42.329438" lon="2.211043">
        <ele>1850.29</ele>
        <time>2015-05-04T06:24:06.64Z</time>
      </trkpt>
      <trkpt lat="42.329428" lon="2.211068">
        <ele>1849.56</ele>
        <time>2015-05-04T07:03:22.19Z</time>
      </trkpt>
      <trkpt lat="42.329416" lon="2.211087">
        <ele>1848.64</ele>
        <time>2015-05-04T07:37:53.06Z</time>
      </trkpt>
      <trkpt lat="42.329415" lon="2.211115">
        <ele>1848.62</ele>
        <time>2015-05-04T08:16:36.11Z</time>
      </trkpt>
      <trkpt lat="42.329425" lon="2.211149">
        <ele>1849.51</ele>
        <time>2015-05-04T09:07:08.46Z</time>
      </trkpt>
      <trkpt lat="42.329426" lon="2.211174">
        <ele>1849.78</ele>
        <time>2015-05-04T09:41:43.23Z</time>
      </trkpt>
      <trkpt lat="42.329422" lon="2.211198">
        <ele>1849.59</ele>
        <time>2015-05-04T10:15:42.01Z</time>
      </trkpt>
      <trkpt lat="42.329425" lon="2.211236">
        <ele>1849.95</ele>
        <time>2015-05-04T11:08:28.95Z</time>
      </trkpt>
      <trkpt lat="42.329422" lon="2.211265">
        <ele>1849.78</ele>
        <time>2015-05-04T11:48:55.58Z</time>
      </trkpt>
      <trkpt lat="42.329416" lon="2.211294">
        <ele>1849.43</ele>
        <time>2015-05-04T12:30:31.13Z</time>
      </trkpt>
      <trkpt lat="42.329407" lon="2.211332">
        <ele>1848.83</ele>
        <time>2015-05-04T13:25:37.83Z</time>
      </trkpt>
      <trkpt lat="42.329398" lon="2.211366">
        <ele>1848.25</ele>
        <time>2015-05-04T14:15:30.56Z</time>
      </trkpt>
      <trkpt lat="42.329394" lon="2.211390">
        <ele>1848.07</ele>
        <time>2015-05-04T14:49:29.34Z</time>
      </trkpt>
      <trkpt lat="42.329386" lon="2.211414">
        <ele>1847.50</ele>
        <time>2015-05-04T15:25:51.03Z</time>
      </trkpt>
      <trkpt lat="42.329379" lon="2.211439">
        <ele>1846.83</ele>
        <time>2015-05-04T16:02:46.38Z</time>
      </trkpt>
      <trkpt lat="42.329381" lon="2.211466">
        <ele>1847.02</ele>
        <time>2015-05-04T16:40:15.06Z</time>
      </trkpt>
      <trkpt lat="42.329386" lon="2.211493">
        <ele>1847.41</ele>
        <time>2015-05-04T17:18:41.67Z</time>
      </trkpt>
      <trkpt lat="42.329388" lon="2.211519">
        <ele>1847.54</ele>
        <time>2015-05-04T17:54:47.90Z</time>
      </trkpt>
      <trkpt lat="42.329393" lon="2.211549">
        <ele>1847.92</ele>
        <time>2015-05-04T18:37:16.38Z</time>
      </trkpt>
      <trkpt lat="42.329399" lon="2.211576">
        <ele>1848.39</ele>
        <time>2015-05-04T19:16:12.76Z</time>
      </trkpt>
      <trkpt lat="42.329411" lon="2.211600">
        <ele>1849.06</ele>
        <time>2015-05-04T19:56:13.79Z</time>
      </trkpt>
      <trkpt lat="42.329423" lon="2.211632">
        <ele>1849.84</ele>
        <time>2015-05-04T20:45:47.26Z</time>
      </trkpt>
      <trkpt lat="42.329432" lon="2.211656">
        <ele>1850.38</ele>
        <time>2015-05-04T21:22:57.37Z</time>
      </trkpt>
      <trkpt lat="42.329432" lon="2.211680">
        <ele>1850.25</ele>
        <time>2015-05-04T21:56:06.23Z</time>
      </trkpt>
      <trkpt lat="42.329420" lon="2.211706">
        <ele>1849.31</ele>
        <time>2015-05-04T22:38:26.25Z</time>
      </trkpt>
      <trkpt lat="42.329402" lon="2.211744">
        <ele>1848.06</ele>
        <time>2015-05-04T23:40:46.24Z</time>
      </trkpt>
      <trkpt lat="42.329396" lon="2.211777">
        <ele>1847.55</ele>
        <time>2015-05-05T00:27:42.43Z</time>
      </trkpt>
      <trkpt lat="42.329397" lon="2.211802">
        <ele>1847.52</ele>
        <time>2015-05-05T01:02:17.20Z</time>
      </trkpt>
      <trkpt lat="42.329401" lon="2.211827">
        <ele>1847.51</ele>
        <time>2015-05-05T01:37:36.90Z</time>
      </trkpt>
      <trkpt lat="42.329402" lon="2.211864">
        <ele>1847.47</ele>
        <time>2015-05-05T02:28:45.12Z</time>
      </trkpt>
      <trkpt lat="42.329412" lon="2.211892">
        <ele>1847.88</ele>
        <time>2015-05-05T03:11:42.04Z</time>
      </trkpt>
      <trkpt lat="42.329421" lon="2.211922">
        <ele>1848.06</ele>
        <time>2015-05-05T03:56:25.02Z</time>
      </trkpt>
      <trkpt lat="42.329425" lon="2.211951">
        <ele>1848.06</ele>
        <time>2015-05-05T04:37:09.70Z</time>
      </trkpt>
      <trkpt lat="42.329423" lon="2.211987">
        <ele>1847.43</ele>
        <time>2015-05-05T05:27:01.41Z</time>
      </trkpt>
      <trkpt lat="42.329430" lon="2.212016">
        <ele>1847.32</ele>
        <time>2015-05-05T06:09:09.48Z</time>
      </trkpt>
      <trkpt lat="42.329434" lon="2.212058">
        <ele>1846.98</ele>
        <time>2015-05-05T07:07:38.76Z</time>
      </trkpt>
      <trkpt lat="42.329444" lon="2.212102">
        <ele>1846.75</ele>
        <time>2015-05-05T08:11:13.43Z</time>
      </trkpt>
      <trkpt lat="42.329447" lon="2.212131">
        <ele>1846.49</ele>
        <time>2015-05-05T08:51:40.05Z</time>
      </trkpt>
      <trkpt lat="42.329444" lon="2.212168">
        <ele>1845.84</ele>
        <time>2015-05-05T09:43:04.61Z</time>
      </trkpt>
      <trkpt lat="42.329441" lon="2.212198">
        <ele>1845.23</ele>
        <time>2015-05-05T10:24:53.33Z</time>
      </trkpt>
      <trkpt lat="42.329454" lon="2.212221">
        <ele>1845.41</ele>
        <time>2015-05-05T11:04:52.57Z</time>
      </trkpt>
      <trkpt lat="42.329446" lon="2.212249">
        <ele>1844.72</ele>
        <time>2015-05-05T11:46:20.17Z</time>
      </trkpt>
      <trkpt lat="42.329424" lon="2.212266">
        <ele>1843.77</ele>
        <time>2015-05-05T12:33:40.26Z</time>
      </trkpt>
      <trkpt lat="42.329401" lon="2.212269">
        <ele>1842.95</ele>
        <time>2015-05-05T13:16:50.39Z</time>
      </trkpt>
      <trkpt lat="42.329379" lon="2.212277">
        <ele>1842.16</ele>
        <time>2015-05-05T13:59:24.01Z</time>
      </trkpt>
      <trkpt lat="42.329360" lon="2.212299">
        <ele>1841.22</ele>
        <time>2015-05-05T14:46:07.54Z</time>
      </trkpt>
      <trkpt lat="42.329350" lon="2.212330">
        <ele>1840.50</ele>
        <time>2015-05-05T15:32:50.41Z</time>
      </trkpt>
      <trkpt lat="42.329344" lon="2.212366">
        <ele>1839.73</ele>
        <time>2015-05-05T16:23:48.58Z</time>
      </trkpt>
      <trkpt lat="42.329350" lon="2.212393">
        <ele>1839.59</ele>
        <time>2015-05-05T17:02:44.96Z</time>
      </trkpt>
      <trkpt lat="42.329356" lon="2.212438">
        <ele>1839.07</ele>
        <time>2015-05-05T18:05:54.25Z</time>
      </trkpt>
      <trkpt lat="42.329358" lon="2.212469">
        <ele>1838.60</ele>
        <time>2015-05-05T18:48:52.97Z</time>
      </trkpt>
      <trkpt lat="42.329345" lon="2.212510">
        <ele>1837.62</ele>
        <time>2015-05-05T19:50:29.94Z</time>
      </trkpt>
      <trkpt lat="42.329341" lon="2.212541">
        <ele>1837.01</ele>
        <time>2015-05-05T20:33:57.73Z</time>
      </trkpt>
      <trkpt lat="42.329334" lon="2.212604">
        <ele>1835.87</ele>
        <time>2015-05-05T22:01:57.15Z</time>
      </trkpt>
      <trkpt lat="42.329339" lon="2.212759">
        <ele>1833.66</ele>
        <time>2015-05-06T01:36:14.15Z</time>
      </trkpt>
      <trkpt lat="42.329295" lon="2.212821">
        <ele>1831.99</ele>
        <time>2015-05-06T03:34:56.24Z</time>
      </trkpt>
      <trkpt lat="42.329260" lon="2.212828">
        <ele>1831.02</ele>
        <time>2015-05-06T04:41:02.18Z</time>
      </trkpt>
      <trkpt lat="42.329234" lon="2.212850">
        <ele>1830.29</ele>
        <time>2015-05-06T05:38:19.89Z</time>
      </trkpt>
      <trkpt lat="42.329188" lon="2.212905">
        <ele>1828.67</ele>
        <time>2015-05-06T07:33:01.86Z</time>
      </trkpt>
      <trkpt lat="42.329097" lon="2.212961">
        <ele>1826.19</ele>
        <time>2015-05-06T10:39:48.44Z</time>
      </trkpt>
      <trkpt lat="42.328982" lon="2.213004">
        <ele>1823.38</ele>
        <time>2015-05-06T14:22:42.71Z</time>
      </trkpt>
      <trkpt lat="42.328937" lon="2.213016">
        <ele>1822.28</ele>
        <time>2015-05-06T15:48:24.03Z</time>
      </trkpt>
      <trkpt lat="42.328876" lon="2.213110">
        <ele>1820.33</ele>
        <time>2015-05-06T18:41:09.13Z</time>
      </trkpt>
      <trkpt lat="42.328824" lon="2.213243">
        <ele>1818.02</ele>
        <time>2015-05-06T22:08:57.28Z</time>
      </trkpt>
      <trkpt lat="42.328745" lon="2.213279">
        <ele>1815.81</ele>
        <time>2015-05-07T00:44:41.74Z</time>
      </trkpt>
      <trkpt lat="42.328725" lon="2.213272">
        <ele>1815.32</ele>
        <time>2015-05-07T01:23:17.45Z</time>
      </trkpt>
      <trkpt lat="42.328703" lon="2.213264">
        <ele>1814.85</ele>
        <time>2015-05-07T02:05:51.08Z</time>
      </trkpt>
      <trkpt lat="42.328681" lon="2.213266">
        <ele>1814.27</ele>
        <time>2015-05-07T02:47:02.71Z</time>
      </trkpt>
      <trkpt lat="42.328654" lon="2.213276">
        <ele>1813.58</ele>
        <time>2015-05-07T03:39:20.65Z</time>
      </trkpt>
      <trkpt lat="42.328634" lon="2.213295">
        <ele>1812.93</ele>
        <time>2015-05-07T04:25:00.21Z</time>
      </trkpt>
      <trkpt lat="42.328624" lon="2.213322">
        <ele>1812.50</ele>
        <time>2015-05-07T05:06:42.80Z</time>
      </trkpt>
      <trkpt lat="42.328607" lon="2.213366">
        <ele>1811.56</ele>
        <time>2015-05-07T06:15:17.02Z</time>
      </trkpt>
      <trkpt lat="42.328587" lon="2.213385">
        <ele>1810.83</ele>
        <time>2015-05-07T07:00:56.58Z</time>
      </trkpt>
      <trkpt lat="42.328568" lon="2.213412">
        <ele>1810.07</ele>
        <time>2015-05-07T07:52:25.67Z</time>
      </trkpt>
      <trkpt lat="42.328552" lon="2.213447">
        <ele>1809.23</ele>
        <time>2015-05-07T08:49:15.85Z</time>
      </trkpt>
      <trkpt lat="42.328531" lon="2.213485">
        <ele>1808.22</ele>
        <time>2015-05-07T09:54:47.51Z</time>
      </trkpt>
      <trkpt lat="42.328522" lon="2.213524">
        <ele>1807.61</ele>
        <time>2015-05-07T10:51:13.26Z</time>
      </trkpt>
      <trkpt lat="42.328514" lon="2.213559">
        <ele>1807.10</ele>
        <time>2015-05-07T11:41:49.20Z</time>
      </trkpt>
      <trkpt lat="42.328515" lon="2.213586">
        <ele>1806.82</ele>
        <time>2015-05-07T12:19:09.51Z</time>
      </trkpt>
      <trkpt lat="42.328489" lon="2.213610">
        <ele>1805.95</ele>
        <time>2015-05-07T13:17:57.92Z</time>
      </trkpt>
      <trkpt lat="42.328470" lon="2.213610">
        <ele>1805.55</ele>
        <time>2015-05-07T13:53:27.71Z</time>
      </trkpt>
      <trkpt lat="42.328439" lon="2.213621">
        <ele>1804.68</ele>
        <time>2015-05-07T14:53:20.20Z</time>
      </trkpt>
      <trkpt lat="42.328400" lon="2.213637">
        <ele>1803.50</ele>
        <time>2015-05-07T16:09:28.52Z</time>
      </trkpt>
      <trkpt lat="42.328363" lon="2.213659">
        <ele>1802.49</ele>
        <time>2015-05-07T17:24:59.03Z</time>
      </trkpt>
      <trkpt lat="42.328339" lon="2.213679">
        <ele>1801.69</ele>
        <time>2015-05-07T18:17:38.86Z</time>
      </trkpt>
      <trkpt lat="42.328313" lon="2.213697">
        <ele>1800.99</ele>
        <time>2015-05-07T19:12:12.86Z</time>
      </trkpt>
      <trkpt lat="42.328287" lon="2.213721">
        <ele>1800.21</ele>
        <time>2015-05-07T20:11:01.27Z</time>
      </trkpt>
      <trkpt lat="42.328272" lon="2.213742">
        <ele>1799.73</ele>
        <time>2015-05-07T20:51:21.14Z</time>
      </trkpt>
      <trkpt lat="42.328249" lon="2.213750">
        <ele>1799.21</ele>
        <time>2015-05-07T21:35:43.18Z</time>
      </trkpt>
      <trkpt lat="42.328220" lon="2.213741">
        <ele>1798.68</ele>
        <time>2015-05-07T22:31:18.37Z</time>
      </trkpt>
      <trkpt lat="42.328182" lon="2.213726">
        <ele>1797.93</ele>
        <time>2015-05-07T23:45:15.62Z</time>
      </trkpt>
      <trkpt lat="42.328145" lon="2.213708">
        <ele>1797.26</ele>
        <time>2015-05-08T00:58:43.19Z</time>
      </trkpt>
      <trkpt lat="42.328109" lon="2.213716">
        <ele>1796.44</ele>
        <time>2015-05-08T02:06:52.67Z</time>
      </trkpt>
      <trkpt lat="42.328085" lon="2.213758">
        <ele>1795.61</ele>
        <time>2015-05-08T03:20:11.76Z</time>
      </trkpt>
      <trkpt lat="42.328074" lon="2.213820">
        <ele>1794.92</ele>
        <time>2015-05-08T04:48:15.66Z</time>
      </trkpt>
      <trkpt lat="42.328077" lon="2.213879">
        <ele>1794.55</ele>
        <time>2015-05-08T06:09:56.61Z</time>
      </trkpt>
      <trkpt lat="42.328085" lon="2.213925">
        <ele>1794.53</ele>
        <time>2015-05-08T07:15:12.74Z</time>
      </trkpt>
      <trkpt lat="42.328092" lon="2.213977">
        <ele>1794.51</ele>
        <time>2015-05-08T08:28:12.90Z</time>
      </trkpt>
      <trkpt lat="42.328101" lon="2.214022">
        <ele>1794.55</ele>
        <time>2015-05-08T09:32:36.16Z</time>
      </trkpt>
      <trkpt lat="42.328101" lon="2.214063">
        <ele>1794.41</ele>
        <time>2015-05-08T10:29:13.87Z</time>
      </trkpt>
      <trkpt lat="42.328091" lon="2.214097">
        <ele>1794.01</ele>
        <time>2015-05-08T11:19:46.28Z</time>
      </trkpt>
      <trkpt lat="42.328069" lon="2.214129">
        <ele>1793.42</ele>
        <time>2015-05-08T12:20:07.60Z</time>
      </trkpt>
      <trkpt lat="42.328039" lon="2.214161">
        <ele>1792.71</ele>
        <time>2015-05-08T13:31:30.24Z</time>
      </trkpt>
      <trkpt lat="42.328008" lon="2.214200">
        <ele>1792.13</ele>
        <time>2015-05-08T14:50:35.85Z</time>
      </trkpt>
      <trkpt lat="42.327979" lon="2.214243">
        <ele>1791.55</ele>
        <time>2015-05-08T16:10:59.28Z</time>
      </trkpt>
      <trkpt lat="42.327946" lon="2.214280">
        <ele>1790.97</ele>
        <time>2015-05-08T17:31:03.99Z</time>
      </trkpt>
      <trkpt lat="42.327912" lon="2.214311">
        <ele>1790.17</ele>
        <time>2015-05-08T18:47:40.19Z</time>
      </trkpt>
      <trkpt lat="42.327884" lon="2.214335">
        <ele>1789.57</ele>
        <time>2015-05-08T19:49:35.94Z</time>
      </trkpt>
      <trkpt lat="42.327854" lon="2.214351">
        <ele>1788.93</ele>
        <time>2015-05-08T20:49:50.72Z</time>
      </trkpt>
      <trkpt lat="42.327820" lon="2.214363">
        <ele>1788.24</ele>
        <time>2015-05-08T21:55:29.53Z</time>
      </trkpt>
      <trkpt lat="42.327793" lon="2.214371">
        <ele>1787.65</ele>
        <time>2015-05-08T22:47:07.83Z</time>
      </trkpt>
      <trkpt lat="42.327774" lon="2.214382">
        <ele>1787.11</ele>
        <time>2015-05-08T23:25:44.50Z</time>
      </trkpt>
      <trkpt lat="42.327753" lon="2.214397">
        <ele>1786.31</ele>
        <time>2015-05-09T00:10:06.54Z</time>
      </trkpt>
      <trkpt lat="42.327735" lon="2.214399">
        <ele>1785.78</ele>
        <time>2015-05-09T00:43:51.02Z</time>
      </trkpt>
      <trkpt lat="42.327709" lon="2.214401">
        <ele>1784.89</ele>
        <time>2015-05-09T01:32:30.18Z</time>
      </trkpt>
      <trkpt lat="42.327687" lon="2.214409">
        <ele>1784.07</ele>
        <time>2015-05-09T02:15:03.81Z</time>
      </trkpt>
      <trkpt lat="42.327669" lon="2.214422">
        <ele>1783.36</ele>
        <time>2015-05-09T02:53:11.10Z</time>
      </trkpt>
      <trkpt lat="42.327653" lon="2.214436">
        <ele>1782.67</ele>
        <time>2015-05-09T03:28:47.16Z</time>
      </trkpt>
      <trkpt lat="42.327634" lon="2.214453">
        <ele>1781.82</ele>
        <time>2015-05-09T04:11:20.74Z</time>
      </trkpt>
      <trkpt lat="42.327615" lon="2.214468">
        <ele>1781.01</ele>
        <time>2015-05-09T04:52:26.75Z</time>
      </trkpt>
      <trkpt lat="42.327590" lon="2.214476">
        <ele>1780.18</ele>
        <time>2015-05-09T05:40:26.46Z</time>
      </trkpt>
      <trkpt lat="42.327560" lon="2.214479">
        <ele>1779.02</ele>
        <time>2015-05-09T06:36:38.46Z</time>
      </trkpt>
      <trkpt lat="42.327529" lon="2.214486">
        <ele>1777.98</ele>
        <time>2015-05-09T07:35:21.46Z</time>
      </trkpt>
      <trkpt lat="42.327497" lon="2.214501">
        <ele>1776.71</ele>
        <time>2015-05-09T08:38:37.76Z</time>
      </trkpt>
      <trkpt lat="42.327470" lon="2.214520">
        <ele>1775.61</ele>
        <time>2015-05-09T09:35:29.38Z</time>
      </trkpt>
      <trkpt lat="42.327447" lon="2.214538">
        <ele>1774.89</ele>
        <time>2015-05-09T10:25:07.99Z</time>
      </trkpt>
      <trkpt lat="42.327433" lon="2.214561">
        <ele>1774.26</ele>
        <time>2015-05-09T11:06:16.96Z</time>
      </trkpt>
      <trkpt lat="42.327422" lon="2.214587">
        <ele>1773.75</ele>
        <time>2015-05-09T11:47:39.49Z</time>
      </trkpt>
      <trkpt lat="42.327409" lon="2.214614">
        <ele>1773.19</ele>
        <time>2015-05-09T12:32:09.72Z</time>
      </trkpt>
      <trkpt lat="42.327399" lon="2.214647">
        <ele>1772.63</ele>
        <time>2015-05-09T13:21:25.31Z</time>
      </trkpt>
      <trkpt lat="42.327390" lon="2.214682">
        <ele>1772.28</ele>
        <time>2015-05-09T14:12:36.28Z</time>
      </trkpt>
      <trkpt lat="42.327371" lon="2.214725">
        <ele>1771.33</ele>
        <time>2015-05-09T15:21:47.73Z</time>
      </trkpt>
      <trkpt lat="42.327338" lon="2.214764">
        <ele>1770.06</ele>
        <time>2015-05-09T16:43:39.88Z</time>
      </trkpt>
      <trkpt lat="42.327298" lon="2.214800">
        <ele>1768.47</ele>
        <time>2015-05-09T18:13:25.49Z</time>
      </trkpt>
      <trkpt lat="42.327272" lon="2.214835">
        <ele>1767.33</ele>
        <time>2015-05-09T19:21:57.31Z</time>
      </trkpt>
      <trkpt lat="42.327262" lon="2.214867">
        <ele>1766.82</ele>
        <time>2015-05-09T20:09:56.40Z</time>
      </trkpt>
      <trkpt lat="42.327254" lon="2.214890">
        <ele>1766.51</ele>
        <time>2015-05-09T20:45:02.88Z</time>
      </trkpt>
      <trkpt lat="42.327239" lon="2.214907">
        <ele>1766.00</ele>
        <time>2015-05-09T21:21:36.49Z</time>
      </trkpt>
      <trkpt lat="42.327214" lon="2.214939">
        <ele>1765.02</ele>
        <time>2015-05-09T22:25:54.71Z</time>
      </trkpt>
      <trkpt lat="42.327196" lon="2.214970">
        <ele>1764.52</ele>
        <time>2015-05-09T23:20:21.37Z</time>
      </trkpt>
      <trkpt lat="42.327170" lon="2.215021">
        <ele>1763.82</ele>
        <time>2015-05-10T00:45:55.29Z</time>
      </trkpt>
      <trkpt lat="42.327136" lon="2.215065">
        <ele>1762.94</ele>
        <time>2015-05-10T02:13:49.89Z</time>
      </trkpt>
      <trkpt lat="42.327102" lon="2.215098">
        <ele>1762.10</ele>
        <time>2015-05-10T03:32:00.77Z</time>
      </trkpt>
      <trkpt lat="42.327061" lon="2.215128">
        <ele>1761.16</ele>
        <time>2015-05-10T04:59:05.99Z</time>
      </trkpt>
      <trkpt lat="42.327040" lon="2.215154">
        <ele>1760.53</ele>
        <time>2015-05-10T05:52:17.21Z</time>
      </trkpt>
      <trkpt lat="42.327025" lon="2.215191">
        <ele>1760.13</ele>
        <time>2015-05-10T06:50:34.24Z</time>
      </trkpt>
      <trkpt lat="42.327018" lon="2.215218">
        <ele>1759.83</ele>
        <time>2015-05-10T07:30:05.39Z</time>
      </trkpt>
      <trkpt lat="42.327006" lon="2.215248">
        <ele>1759.41</ele>
        <time>2015-05-10T08:17:12.13Z</time>
      </trkpt>
      <trkpt lat="42.326990" lon="2.215268">
        <ele>1759.01</ele>
        <time>2015-05-10T08:57:54.22Z</time>
      </trkpt>
      <trkpt lat="42.326971" lon="2.215282">
        <ele>1758.56</ele>
        <time>2015-05-10T09:38:19.53Z</time>
      </trkpt>
      <trkpt lat="42.326955" lon="2.215298">
        <ele>1758.03</ele>
        <time>2015-05-10T10:15:29.96Z</time>
      </trkpt>
      <trkpt lat="42.326945" lon="2.215332">
        <ele>1757.49</ele>
        <time>2015-05-10T11:06:02.42Z</time>
      </trkpt>
      <trkpt lat="42.326930" lon="2.215365">
        <ele>1756.78</ele>
        <time>2015-05-10T11:59:32.75Z</time>
      </trkpt>
      <trkpt lat="42.326911" lon="2.215390">
        <ele>1755.93</ele>
        <time>2015-05-10T12:49:04.02Z</time>
      </trkpt>
      <trkpt lat="42.326897" lon="2.215423">
        <ele>1755.37</ele>
        <time>2015-05-10T13:41:37.10Z</time>
      </trkpt>
      <trkpt lat="42.326886" lon="2.215454">
        <ele>1754.75</ele>
        <time>2015-05-10T14:29:06.73Z</time>
      </trkpt>
      <trkpt lat="42.326869" lon="2.215476">
        <ele>1754.28</ele>
        <time>2015-05-10T15:13:04.04Z</time>
      </trkpt>
      <trkpt lat="42.326851" lon="2.215494">
        <ele>1753.76</ele>
        <time>2015-05-10T15:54:53.28Z</time>
      </trkpt>
      <trkpt lat="42.326835" lon="2.215520">
        <ele>1753.26</ele>
        <time>2015-05-10T16:41:36.73Z</time>
      </trkpt>
      <trkpt lat="42.326820" lon="2.215550">
        <ele>1752.81</ele>
        <time>2015-05-10T17:31:38.11Z</time>
      </trkpt>
      <trkpt lat="42.326809" lon="2.215575">
        <ele>1752.31</ele>
        <time>2015-05-10T18:11:49.09Z</time>
      </trkpt>
      <trkpt lat="42.326800" lon="2.215607">
        <ele>1751.99</ele>
        <time>2015-05-10T18:59:06.43Z</time>
      </trkpt>
      <trkpt lat="42.326796" lon="2.215635">
        <ele>1751.58</ele>
        <time>2015-05-10T19:38:29.80Z</time>
      </trkpt>
      <trkpt lat="42.326792" lon="2.215661">
        <ele>1751.24</ele>
        <time>2015-05-10T20:15:10.65Z</time>
      </trkpt>
      <trkpt lat="42.326785" lon="2.215687">
        <ele>1750.83</ele>
        <time>2015-05-10T20:53:23.77Z</time>
      </trkpt>
      <trkpt lat="42.326781" lon="2.215730">
        <ele>1750.35</ele>
        <time>2015-05-10T21:53:15.41Z</time>
      </trkpt>
      <trkpt lat="42.326785" lon="2.215758">
        <ele>1750.16</ele>
        <time>2015-05-10T22:32:38.77Z</time>
      </trkpt>
      <trkpt lat="42.326800" lon="2.215784">
        <ele>1750.08</ele>
        <time>2015-05-10T23:18:11.87Z</time>
      </trkpt>
      <trkpt lat="42.326815" lon="2.215805">
        <ele>1749.96</ele>
        <time>2015-05-10T23:58:31.77Z</time>
      </trkpt>
      <trkpt lat="42.326818" lon="2.215831">
        <ele>1749.75</ele>
        <time>2015-05-11T00:34:52.55Z</time>
      </trkpt>
      <trkpt lat="42.326808" lon="2.215854">
        <ele>1748.90</ele>
        <time>2015-05-11T01:11:43.80Z</time>
      </trkpt>
      <trkpt lat="42.326793" lon="2.215870">
        <ele>1748.32</ele>
        <time>2015-05-11T01:47:25.14Z</time>
      </trkpt>
      <trkpt lat="42.326772" lon="2.215891">
        <ele>1747.51</ele>
        <time>2015-05-11T02:36:12.59Z</time>
      </trkpt>
      <trkpt lat="42.326757" lon="2.215912">
        <ele>1746.73</ele>
        <time>2015-05-11T03:16:32.48Z</time>
      </trkpt>
      <trkpt lat="42.326747" lon="2.215939">
        <ele>1745.81</ele>
        <time>2015-05-11T03:58:15.13Z</time>
      </trkpt>
      <trkpt lat="42.326739" lon="2.215973">
        <ele>1744.83</ele>
        <time>2015-05-11T04:47:32.07Z</time>
      </trkpt>
      <trkpt lat="42.326736" lon="2.216010">
        <ele>1743.77</ele>
        <time>2015-05-11T05:38:56.75Z</time>
      </trkpt>
      <trkpt lat="42.326737" lon="2.216042">
        <ele>1742.81</ele>
        <time>2015-05-11T06:23:11.06Z</time>
      </trkpt>
      <trkpt lat="42.326740" lon="2.216088">
        <ele>1741.59</ele>
        <time>2015-05-11T07:26:58.02Z</time>
      </trkpt>
      <trkpt lat="42.326740" lon="2.216148">
        <ele>1740.04</ele>
        <time>2015-05-11T08:49:50.40Z</time>
      </trkpt>
      <trkpt lat="42.326755" lon="2.216201">
        <ele>1739.12</ele>
        <time>2015-05-11T10:08:13.50Z</time>
      </trkpt>
      <trkpt lat="42.326772" lon="2.216246">
        <ele>1738.42</ele>
        <time>2015-05-11T11:18:01.44Z</time>
      </trkpt>
      <trkpt lat="42.326776" lon="2.216271">
        <ele>1738.01</ele>
        <time>2015-05-11T11:53:21.23Z</time>
      </trkpt>
      <trkpt lat="42.326781" lon="2.216305">
        <ele>1737.32</ele>
        <time>2015-05-11T12:41:14.11Z</time>
      </trkpt>
      <trkpt lat="42.326805" lon="2.216430">
        <ele>1735.21</ele>
        <time>2015-05-11T15:39:36.85Z</time>
      </trkpt>
      <trkpt lat="42.326817" lon="2.216574">
        <ele>1732.56</ele>
        <time>2015-05-11T18:59:46.12Z</time>
      </trkpt>
      <trkpt lat="42.326839" lon="2.216690">
        <ele>1730.44</ele>
        <time>2015-05-11T21:45:10.64Z</time>
      </trkpt>
      <trkpt lat="42.326902" lon="2.216805">
        <ele>1728.50</ele>
        <time>2015-05-12T01:02:52.30Z</time>
      </trkpt>
      <trkpt lat="42.326969" lon="2.216907">
        <ele>1726.17</ele>
        <time>2015-05-12T04:11:19.73Z</time>
      </trkpt>
      <trkpt lat="42.326950" lon="2.217029">
        <ele>1723.28</ele>
        <time>2015-05-12T07:03:32.09Z</time>
      </trkpt>
      <trkpt lat="42.326909" lon="2.217085">
        <ele>1722.32</ele>
        <time>2015-05-12T08:52:23.52Z</time>
      </trkpt>
      <trkpt lat="42.326929" lon="2.217105">
        <ele>1721.73</ele>
        <time>2015-05-12T09:38:51.56Z</time>
      </trkpt>
      <trkpt lat="42.327022" lon="2.217134">
        <ele>1721.32</ele>
        <time>2015-05-12T12:37:09.75Z</time>
      </trkpt>
      <trkpt lat="42.327030" lon="2.217241">
        <ele>1719.37</ele>
        <time>2015-05-12T15:05:42.35Z</time>
      </trkpt>
      <trkpt lat="42.327012" lon="2.217235">
        <ele>1719.24</ele>
        <time>2015-05-12T15:40:20.40Z</time>
      </trkpt>
      <trkpt lat="42.326980" lon="2.217212">
        <ele>1719.42</ele>
        <time>2015-05-12T16:48:02.39Z</time>
      </trkpt>
      <trkpt lat="42.326957" lon="2.217218">
        <ele>1719.11</ele>
        <time>2015-05-12T17:31:48.06Z</time>
      </trkpt>
      <trkpt lat="42.326927" lon="2.217231">
        <ele>1719.25</ele>
        <time>2015-05-12T18:30:39.24Z</time>
      </trkpt>
      <trkpt lat="42.326896" lon="2.217245">
        <ele>1719.60</ele>
        <time>2015-05-12T19:31:42.73Z</time>
      </trkpt>
      <trkpt lat="42.326871" lon="2.217262">
        <ele>1719.67</ele>
        <time>2015-05-12T20:23:59.29Z</time>
      </trkpt>
      <trkpt lat="42.326841" lon="2.217270">
        <ele>1719.74</ele>
        <time>2015-05-12T21:21:06.84Z</time>
      </trkpt>
      <trkpt lat="42.326781" lon="2.217305">
        <ele>1719.53</ele>
        <time>2015-05-12T23:23:11.28Z</time>
      </trkpt>
      <trkpt lat="42.326751" lon="2.217324">
        <ele>1719.19</ele>
        <time>2015-05-13T00:25:04.48Z</time>
      </trkpt>
      <trkpt lat="42.326722" lon="2.217340">
        <ele>1718.76</ele>
        <time>2015-05-13T01:23:35.24Z</time>
      </trkpt>
      <trkpt lat="42.326688" lon="2.217348">
        <ele>1718.57</ele>
        <time>2015-05-13T02:28:03.67Z</time>
      </trkpt>
      <trkpt lat="42.326655" lon="2.217364">
        <ele>1717.94</ele>
        <time>2015-05-13T03:33:33.25Z</time>
      </trkpt>
      <trkpt lat="42.326618" lon="2.217380">
        <ele>1717.35</ele>
        <time>2015-05-13T04:46:07.53Z</time>
      </trkpt>
      <trkpt lat="42.326580" lon="2.217400">
        <ele>1716.71</ele>
        <time>2015-05-13T06:02:18.21Z</time>
      </trkpt>
      <trkpt lat="42.326543" lon="2.217421">
        <ele>1716.01</ele>
        <time>2015-05-13T07:17:16.03Z</time>
      </trkpt>
      <trkpt lat="42.326506" lon="2.217437">
        <ele>1715.62</ele>
        <time>2015-05-13T08:29:50.31Z</time>
      </trkpt>
      <trkpt lat="42.326467" lon="2.217449">
        <ele>1715.39</ele>
        <time>2015-05-13T09:44:33.66Z</time>
      </trkpt>
      <trkpt lat="42.326426" lon="2.217454">
        <ele>1715.28</ele>
        <time>2015-05-13T11:01:28.16Z</time>
      </trkpt>
      <trkpt lat="42.326386" lon="2.217454">
        <ele>1715.35</ele>
        <time>2015-05-13T12:16:11.92Z</time>
      </trkpt>
      <trkpt lat="42.326343" lon="2.217445">
        <ele>1715.02</ele>
        <time>2015-05-13T13:37:29.33Z</time>
      </trkpt>
      <trkpt lat="42.326302" lon="2.217430">
        <ele>1714.87</ele>
        <time>2015-05-13T14:56:50.34Z</time>
      </trkpt>
      <trkpt lat="42.326261" lon="2.217409">
        <ele>1714.63</ele>
        <time>2015-05-13T16:18:44.67Z</time>
      </trkpt>
      <trkpt lat="42.326224" lon="2.217384">
        <ele>1714.65</ele>
        <time>2015-05-13T17:36:00.84Z</time>
      </trkpt>
      <trkpt lat="42.326192" lon="2.217351">
        <ele>1714.68</ele>
        <time>2015-05-13T18:51:11.49Z</time>
      </trkpt>
      <trkpt lat="42.326165" lon="2.217312">
        <ele>1714.86</ele>
        <time>2015-05-13T20:04:59.38Z</time>
      </trkpt>
      <trkpt lat="42.326144" lon="2.217268">
        <ele>1715.12</ele>
        <time>2015-05-13T21:17:19.63Z</time>
      </trkpt>
      <trkpt lat="42.326128" lon="2.217222">
        <ele>1715.41</ele>
        <time>2015-05-13T22:27:32.65Z</time>
      </trkpt>
      <trkpt lat="42.326113" lon="2.217184">
        <ele>1715.02</ele>
        <time>2015-05-13T23:27:02.61Z</time>
      </trkpt>
      <trkpt lat="42.326101" lon="2.217154">
        <ele>1714.69</ele>
        <time>2015-05-14T00:14:09.38Z</time>
      </trkpt>
      <trkpt lat="42.326094" lon="2.217129">
        <ele>1714.33</ele>
        <time>2015-05-14T00:51:04.83Z</time>
      </trkpt>
      <trkpt lat="42.326088" lon="2.217104">
        <ele>1714.15</ele>
        <time>2015-05-14T01:27:23.11Z</time>
      </trkpt>
      <trkpt lat="42.326084" lon="2.217076">
        <ele>1713.96</ele>
        <time>2015-05-14T02:06:46.50Z</time>
      </trkpt>
      <trkpt lat="42.326083" lon="2.217046">
        <ele>1713.89</ele>
        <time>2015-05-14T02:48:15.24Z</time>
      </trkpt>
      <trkpt lat="42.326083" lon="2.217013">
        <ele>1713.85</ele>
        <time>2015-05-14T03:33:50.08Z</time>
      </trkpt>
      <trkpt lat="42.326083" lon="2.216978">
        <ele>1713.72</ele>
        <time>2015-05-14T04:22:10.67Z</time>
      </trkpt>
      <trkpt lat="42.326079" lon="2.216945">
        <ele>1713.54</ele>
        <time>2015-05-14T05:08:22.01Z</time>
      </trkpt>
      <trkpt lat="42.326071" lon="2.216910">
        <ele>1713.22</ele>
        <time>2015-05-14T05:58:58.06Z</time>
      </trkpt>
      <trkpt lat="42.326062" lon="2.216868">
        <ele>1712.91</ele>
        <time>2015-05-14T06:59:22.02Z</time>
      </trkpt>
      <trkpt lat="42.326054" lon="2.216822">
        <ele>1712.61</ele>
        <time>2015-05-14T08:04:38.27Z</time>
      </trkpt>
      <trkpt lat="42.326046" lon="2.216773">
        <ele>1712.39</ele>
        <time>2015-05-14T09:13:56.92Z</time>
      </trkpt>
      <trkpt lat="42.326035" lon="2.216718">
        <ele>1711.88</ele>
        <time>2015-05-14T10:32:38.82Z</time>
      </trkpt>
      <trkpt lat="42.326025" lon="2.216660">
        <ele>1711.47</ele>
        <time>2015-05-14T11:54:54.49Z</time>
      </trkpt>
      <trkpt lat="42.326015" lon="2.216597">
        <ele>1711.59</ele>
        <time>2015-05-14T13:23:54.52Z</time>
      </trkpt>
      <trkpt lat="42.326001" lon="2.216532">
        <ele>1711.36</ele>
        <time>2015-05-14T14:57:25.26Z</time>
      </trkpt>
      <trkpt lat="42.325983" lon="2.216466">
        <ele>1710.95</ele>
        <time>2015-05-14T16:34:35.23Z</time>
      </trkpt>
      <trkpt lat="42.325966" lon="2.216396">
        <ele>1710.65</ele>
        <time>2015-05-14T18:16:21.37Z</time>
      </trkpt>
      <trkpt lat="42.325951" lon="2.216322">
        <ele>1710.14</ele>
        <time>2015-05-14T20:02:20.37Z</time>
      </trkpt>
      <trkpt lat="42.325934" lon="2.216243">
        <ele>1709.58</ele>
        <time>2015-05-14T21:55:59.11Z</time>
      </trkpt>
      <trkpt lat="42.325916" lon="2.216163">
        <ele>1708.83</ele>
        <time>2015-05-14T23:51:29.26Z</time>
      </trkpt>
      <trkpt lat="42.325900" lon="2.216079">
        <ele>1708.12</ele>
        <time>2015-05-15T01:51:18.01Z</time>
      </trkpt>
      <trkpt lat="42.325887" lon="2.215991">
        <ele>1707.41</ele>
        <time>2015-05-15T03:55:15.09Z</time>
      </trkpt>
      <trkpt lat="42.325873" lon="2.215899">
        <ele>1706.57</ele>
        <time>2015-05-15T06:04:59.34Z</time>
      </trkpt>
      <trkpt lat="42.325858" lon="2.215808">
        <ele>1705.72</ele>
        <time>2015-05-15T08:13:46.05Z</time>
      </trkpt>
      <trkpt lat="42.325844" lon="2.215720">
        <ele>1705.12</ele>
        <time>2015-05-15T10:18:05.91Z</time>
      </trkpt>
      <trkpt lat="42.325834" lon="2.215633">
        <ele>1704.88</ele>
        <time>2015-05-15T12:19:42.58Z</time>
      </trkpt>
      <trkpt lat="42.325828" lon="2.215548">
        <ele>1704.74</ele>
        <time>2015-05-15T14:17:38.92Z</time>
      </trkpt>
      <trkpt lat="42.325820" lon="2.215465">
        <ele>1704.47</ele>
        <time>2015-05-15T16:13:15.69Z</time>
      </trkpt>
      <trkpt lat="42.325810" lon="2.215381">
        <ele>1704.10</ele>
        <time>2015-05-15T18:10:46.79Z</time>
      </trkpt>
      <trkpt lat="42.325798" lon="2.215295">
        <ele>1703.78</ele>
        <time>2015-05-15T20:11:39.80Z</time>
      </trkpt>
      <trkpt lat="42.325786" lon="2.215209">
        <ele>1703.39</ele>
        <time>2015-05-15T22:12:32.81Z</time>
      </trkpt>
      <trkpt lat="42.325772" lon="2.215123">
        <ele>1702.92</ele>
        <time>2015-05-16T00:14:10.72Z</time>
      </trkpt>
      <trkpt lat="42.325759" lon="2.215036">
        <ele>1702.63</ele>
        <time>2015-05-16T02:16:46.57Z</time>
      </trkpt>
      <trkpt lat="42.325745" lon="2.214949">
        <ele>1702.21</ele>
        <time>2015-05-16T04:19:45.45Z</time>
      </trkpt>
      <trkpt lat="42.325731" lon="2.214860">
        <ele>1701.87</ele>
        <time>2015-05-16T06:25:26.36Z</time>
      </trkpt>
      <trkpt lat="42.325718" lon="2.214771">
        <ele>1701.43</ele>
        <time>2015-05-16T08:30:44.75Z</time>
      </trkpt>
      <trkpt lat="42.325706" lon="2.214678">
        <ele>1700.80</ele>
        <time>2015-05-16T10:41:08.56Z</time>
      </trkpt>
      <trkpt lat="42.325694" lon="2.214584">
        <ele>1699.74</ele>
        <time>2015-05-16T12:52:54.03Z</time>
      </trkpt>
      <trkpt lat="42.325682" lon="2.214488">
        <ele>1698.68</ele>
        <time>2015-05-16T15:07:22.88Z</time>
      </trkpt>
      <trkpt lat="42.325672" lon="2.214391">
        <ele>1697.63</ele>
        <time>2015-05-16T17:22:39.47Z</time>
      </trkpt>
      <trkpt lat="42.325666" lon="2.214291">
        <ele>1696.74</ele>
        <time>2015-05-16T19:41:14.16Z</time>
      </trkpt>
      <trkpt lat="42.325663" lon="2.214188">
        <ele>1695.94</ele>
        <time>2015-05-16T22:03:36.85Z</time>
      </trkpt>
      <trkpt lat="42.325662" lon="2.214086">
        <ele>1695.34</ele>
        <time>2015-05-17T00:24:30.78Z</time>
      </trkpt>
      <trkpt lat="42.325663" lon="2.213985">
        <ele>1694.92</ele>
        <time>2015-05-17T02:44:01.85Z</time>
      </trkpt>
      <trkpt lat="42.325664" lon="2.213884">
        <ele>1694.42</ele>
        <time>2015-05-17T05:03:32.91Z</time>
      </trkpt>
      <trkpt lat="42.325665" lon="2.213780">
        <ele>1694.01</ele>
        <time>2015-05-17T07:27:12.58Z</time>
      </trkpt>
      <trkpt lat="42.325666" lon="2.213678">
        <ele>1693.68</ele>
        <time>2015-05-17T09:48:06.51Z</time>
      </trkpt>
      <trkpt lat="42.325667" lon="2.213575">
        <ele>1693.24</ele>
        <time>2015-05-17T12:10:23.31Z</time>
      </trkpt>
      <trkpt lat="42.325666" lon="2.213471">
        <ele>1692.33</ele>
        <time>2015-05-17T14:34:02.98Z</time>
      </trkpt>
      <trkpt lat="42.325668" lon="2.213365">
        <ele>1691.79</ele>
        <time>2015-05-17T17:00:30.53Z</time>
      </trkpt>
      <trkpt lat="42.325669" lon="2.213258">
        <ele>1690.98</ele>
        <time>2015-05-17T19:28:18.80Z</time>
      </trkpt>
      <trkpt lat="42.325670" lon="2.213149">
        <ele>1689.96</ele>
        <time>2015-05-17T21:58:52.81Z</time>
      </trkpt>
      <trkpt lat="42.325671" lon="2.213037">
        <ele>1689.14</ele>
        <time>2015-05-18T00:33:35.42Z</time>
      </trkpt>
      <trkpt lat="42.325667" lon="2.212924">
        <ele>1689.04</ele>
        <time>2015-05-18T03:09:50.95Z</time>
      </trkpt>
      <trkpt lat="42.325653" lon="2.212810">
        <ele>1688.52</ele>
        <time>2015-05-18T05:49:28.08Z</time>
      </trkpt>
      <trkpt lat="42.325632" lon="2.212696">
        <ele>1688.30</ele>
        <time>2015-05-18T08:31:44.61Z</time>
      </trkpt>
      <trkpt lat="42.325602" lon="2.212583">
        <ele>1688.01</ele>
        <time>2015-05-18T11:17:34.91Z</time>
      </trkpt>
      <trkpt lat="42.325568" lon="2.212471">
        <ele>1687.61</ele>
        <time>2015-05-18T14:04:48.84Z</time>
      </trkpt>
      <trkpt lat="42.325531" lon="2.212359">
        <ele>1686.62</ele>
        <time>2015-05-18T16:54:15.26Z</time>
      </trkpt>
      <trkpt lat="42.325499" lon="2.212244">
        <ele>1685.97</ele>
        <time>2015-05-18T19:43:58.51Z</time>
      </trkpt>
      <trkpt lat="42.325468" lon="2.212128">
        <ele>1685.34</ele>
        <time>2015-05-18T22:34:20.72Z</time>
      </trkpt>
      <trkpt lat="42.325436" lon="2.212014">
        <ele>1684.53</ele>
        <time>2015-05-19T01:22:46.46Z</time>
      </trkpt>
      <trkpt lat="42.325409" lon="2.211900">
        <ele>1683.33</ele>
        <time>2015-05-19T04:08:07.11Z</time>
      </trkpt>
      <trkpt lat="42.325391" lon="2.211788">
        <ele>1681.85</ele>
        <time>2015-05-19T06:46:25.86Z</time>
      </trkpt>
      <trkpt lat="42.325388" lon="2.211678">
        <ele>1680.82</ele>
        <time>2015-05-19T09:18:28.28Z</time>
      </trkpt>
      <trkpt lat="42.325396" lon="2.211570">
        <ele>1680.16</ele>
        <time>2015-05-19T11:48:23.57Z</time>
      </trkpt>
      <trkpt lat="42.325409" lon="2.211474">
        <ele>1679.64</ele>
        <time>2015-05-19T14:03:11.90Z</time>
      </trkpt>
      <trkpt lat="42.325423" lon="2.211390">
        <ele>1679.36</ele>
        <time>2015-05-19T16:02:08.07Z</time>
      </trkpt>
      <trkpt lat="42.325440" lon="2.211318">
        <ele>1678.41</ele>
        <time>2015-05-19T17:46:31.94Z</time>
      </trkpt>
      <trkpt lat="42.325459" lon="2.211253">
        <ele>1677.71</ele>
        <time>2015-05-19T19:23:04.54Z</time>
      </trkpt>
      <trkpt lat="42.325481" lon="2.211194">
        <ele>1677.50</ele>
        <time>2015-05-19T20:54:20.83Z</time>
      </trkpt>
      <trkpt lat="42.325501" lon="2.211136">
        <ele>1677.05</ele>
        <time>2015-05-19T22:22:44.67Z</time>
      </trkpt>
      <trkpt lat="42.325520" lon="2.211086">
        <ele>1676.73</ele>
        <time>2015-05-19T23:40:23.69Z</time>
      </trkpt>
      <trkpt lat="42.325538" lon="2.211040">
        <ele>1676.50</ele>
        <time>2015-05-20T00:52:16.95Z</time>
      </trkpt>
      <trkpt lat="42.325556" lon="2.210998">
        <ele>1676.28</ele>
        <time>2015-05-20T01:59:20.20Z</time>
      </trkpt>
      <trkpt lat="42.325576" lon="2.210948">
        <ele>1676.18</ele>
        <time>2015-05-20T03:17:51.52Z</time>
      </trkpt>
      <trkpt lat="42.325595" lon="2.210894">
        <ele>1675.78</ele>
        <time>2015-05-20T04:40:27.69Z</time>
      </trkpt>
      <trkpt lat="42.325615" lon="2.210838">
        <ele>1675.40</ele>
        <time>2015-05-20T06:06:21.78Z</time>
      </trkpt>
      <trkpt lat="42.325636" lon="2.210778">
        <ele>1674.50</ele>
        <time>2015-05-20T07:38:03.29Z</time>
      </trkpt>
      <trkpt lat="42.325661" lon="2.210719">
        <ele>1673.52</ele>
        <time>2015-05-20T09:11:59Z</time>
      </trkpt>
      <trkpt lat="42.325690" lon="2.210660">
        <ele>1672.73</ele>
        <time>2015-05-20T10:49:50.57Z</time>
      </trkpt>
      <trkpt lat="42.325724" lon="2.210598">
        <ele>1671.91</ele>
        <time>2015-05-20T12:36:27.95Z</time>
      </trkpt>
      <trkpt lat="42.325761" lon="2.210537">
        <ele>1671.12</ele>
        <time>2015-05-20T14:25:26.90Z</time>
      </trkpt>
      <trkpt lat="42.325803" lon="2.210476">
        <ele>1670.42</ele>
        <time>2015-05-20T16:20:34.95Z</time>
      </trkpt>
      <trkpt lat="42.325849" lon="2.210418">
        <ele>1670.39</ele>
        <time>2015-05-20T18:18:04.21Z</time>
      </trkpt>
      <trkpt lat="42.325897" lon="2.210357">
        <ele>1669.96</ele>
        <time>2015-05-20T20:21:07.04Z</time>
      </trkpt>
      <trkpt lat="42.325945" lon="2.210292">
        <ele>1669.19</ele>
        <time>2015-05-20T22:28:00.70Z</time>
      </trkpt>
      <trkpt lat="42.325995" lon="2.210226">
        <ele>1668.03</ele>
        <time>2015-05-21T00:38:32.05Z</time>
      </trkpt>
      <trkpt lat="42.326050" lon="2.210158">
        <ele>1667.27</ele>
        <time>2015-05-21T02:57:44.74Z</time>
      </trkpt>
      <trkpt lat="42.326108" lon="2.210087">
        <ele>1666.69</ele>
        <time>2015-05-21T05:23:53.48Z</time>
      </trkpt>
      <trkpt lat="42.326167" lon="2.210012">
        <ele>1666.02</ele>
        <time>2015-05-21T07:55:09.38Z</time>
      </trkpt>
      <trkpt lat="42.326225" lon="2.209930">
        <ele>1665.31</ele>
        <time>2015-05-21T10:31:54.14Z</time>
      </trkpt>
      <trkpt lat="42.326281" lon="2.209846">
        <ele>1664.62</ele>
        <time>2015-05-21T13:08:07.77Z</time>
      </trkpt>
      <trkpt lat="42.326338" lon="2.209762">
        <ele>1664.11</ele>
        <time>2015-05-21T15:45:36.83Z</time>
      </trkpt>
      <trkpt lat="42.326395" lon="2.209674">
        <ele>1663.91</ele>
        <time>2015-05-21T18:27:12.70Z</time>
      </trkpt>
      <trkpt lat="42.326449" lon="2.209577">
        <ele>1663.79</ele>
        <time>2015-05-21T21:14:55.54Z</time>
      </trkpt>
      <trkpt lat="42.326500" lon="2.209478">
        <ele>1662.97</ele>
        <time>2015-05-22T00:01:35.29Z</time>
      </trkpt>
      <trkpt lat="42.326550" lon="2.209372">
        <ele>1662.54</ele>
        <time>2015-05-22T02:55:15.52Z</time>
      </trkpt>
      <trkpt lat="42.326599" lon="2.209267">
        <ele>1662.42</ele>
        <time>2015-05-22T05:46:45.71Z</time>
      </trkpt>
      <trkpt lat="42.326643" lon="2.209159">
        <ele>1662.03</ele>
        <time>2015-05-22T08:37:05Z</time>
      </trkpt>
      <trkpt lat="42.326673" lon="2.209046">
        <ele>1661.92</ele>
        <time>2015-05-22T11:22:55.15Z</time>
      </trkpt>
      <trkpt lat="42.326686" lon="2.208930">
        <ele>1661.27</ele>
        <time>2015-05-22T14:04:58.25Z</time>
      </trkpt>
      <trkpt lat="42.326685" lon="2.208835">
        <ele>1660.91</ele>
        <time>2015-05-22T16:16:11.98Z</time>
      </trkpt>
      <trkpt lat="42.326680" lon="2.208758">
        <ele>1661.05</ele>
        <time>2015-05-22T18:02:57.78Z</time>
      </trkpt>
      <trkpt lat="42.326673" lon="2.208706">
        <ele>1660.91</ele>
        <time>2015-05-22T19:15:58.03Z</time>
      </trkpt>
      <trkpt lat="42.326667" lon="2.208678">
        <ele>1660.81</ele>
        <time>2015-05-22T19:56:13.98Z</time>
      </trkpt>
      <trkpt lat="42.326682" lon="2.208692">
        <ele>1661.32</ele>
        <time>2015-05-22T20:30:16.84Z</time>
      </trkpt>
      <trkpt lat="42.326682" lon="2.208692">
        <ele>1661.39</ele>
        <time>2015-05-22T20:47:05.68Z</time>
      </trkpt>
      <trkpt lat="42.326702" lon="2.208770">
        <ele>1661.82</ele>
        <time>2015-05-22T22:41:07.51Z</time>
      </trkpt>
      <trkpt lat="42.326697" lon="2.208749">
        <ele>1661.79</ele>
        <time>2015-05-22T23:11:35.87Z</time>
      </trkpt>
      <trkpt lat="42.326689" lon="2.208725">
        <ele>1661.56</ele>
        <time>2015-05-22T23:47:57.63Z</time>
      </trkpt>
      <trkpt lat="42.326678" lon="2.208697">
        <ele>1661.19</ele>
        <time>2015-05-23T00:31:45.34Z</time>
      </trkpt>
      <trkpt lat="42.326663" lon="2.208662">
        <ele>1660.79</ele>
        <time>2015-05-23T01:27:38Z</time>
      </trkpt>
      <trkpt lat="42.326642" lon="2.208622">
        <ele>1660.19</ele>
        <time>2015-05-23T02:35:23.71Z</time>
      </trkpt>
      <trkpt lat="42.326614" lon="2.208577">
        <ele>1659.83</ele>
        <time>2015-05-23T03:56:37.99Z</time>
      </trkpt>
      <trkpt lat="42.326577" lon="2.208530">
        <ele>1659.49</ele>
        <time>2015-05-23T05:31:27.71Z</time>
      </trkpt>
      <trkpt lat="42.326531" lon="2.208482">
        <ele>1658.71</ele>
        <time>2015-05-23T07:20:00.12Z</time>
      </trkpt>
      <trkpt lat="42.326480" lon="2.208436">
        <ele>1657.61</ele>
        <time>2015-05-23T09:14:31.39Z</time>
      </trkpt>
      <trkpt lat="42.326424" lon="2.208390">
        <ele>1656.36</ele>
        <time>2015-05-23T11:16:55.55Z</time>
      </trkpt>
      <trkpt lat="42.326369" lon="2.208339">
        <ele>1655.25</ele>
        <time>2015-05-23T13:21:30.38Z</time>
      </trkpt>
      <trkpt lat="42.326310" lon="2.208287">
        <ele>1654.61</ele>
        <time>2015-05-23T15:33:04.06Z</time>
      </trkpt>
      <trkpt lat="42.326246" lon="2.208236">
        <ele>1653.69</ele>
        <time>2015-05-23T17:51:50.54Z</time>
      </trkpt>
      <trkpt lat="42.326181" lon="2.208182">
        <ele>1652.69</ele>
        <time>2015-05-23T20:14:21.25Z</time>
      </trkpt>
      <trkpt lat="42.326116" lon="2.208123">
        <ele>1651.55</ele>
        <time>2015-05-23T22:40:35.93Z</time>
      </trkpt>
      <trkpt lat="42.326049" lon="2.208059">
        <ele>1650.52</ele>
        <time>2015-05-24T01:13:50.29Z</time>
      </trkpt>
      <trkpt lat="42.325979" lon="2.207992">
        <ele>1650.12</ele>
        <time>2015-05-24T03:54:02.77Z</time>
      </trkpt>
      <trkpt lat="42.325906" lon="2.207926">
        <ele>1649.34</ele>
        <time>2015-05-24T06:38:05.36Z</time>
      </trkpt>
      <trkpt lat="42.325830" lon="2.207858">
        <ele>1648.39</ele>
        <time>2015-05-24T09:28:19.77Z</time>
      </trkpt>
      <trkpt lat="42.325752" lon="2.207789">
        <ele>1647.11</ele>
        <time>2015-05-24T12:22:27.02Z</time>
      </trkpt>
      <trkpt lat="42.325674" lon="2.207717">
        <ele>1646.41</ele>
        <time>2015-05-24T15:18:52.40Z</time>
      </trkpt>
      <trkpt lat="42.325599" lon="2.207635">
        <ele>1645.73</ele>
        <time>2015-05-24T18:19:02.59Z</time>
      </trkpt>
      <trkpt lat="42.325529" lon="2.207545">
        <ele>1645.16</ele>
        <time>2015-05-24T21:19:28.54Z</time>
      </trkpt>
      <trkpt lat="42.325468" lon="2.207444">
        <ele>1644.42</ele>
        <time>2015-05-25T00:19:36.74Z</time>
      </trkpt>
      <trkpt lat="42.325414" lon="2.207334">
        <ele>1643.36</ele>
        <time>2015-05-25T03:21:59.55Z</time>
      </trkpt>
      <trkpt lat="42.325364" lon="2.207220">
        <ele>1642.37</ele>
        <time>2015-05-25T06:25:04.64Z</time>
      </trkpt>
      <trkpt lat="42.325310" lon="2.207107">
        <ele>1641.01</ele>
        <time>2015-05-25T09:30:55.44Z</time>
      </trkpt>
      <trkpt lat="42.325257" lon="2.206995">
        <ele>1640.06</ele>
        <time>2015-05-25T12:34:35.90Z</time>
      </trkpt>
      <trkpt lat="42.325205" lon="2.206886">
        <ele>1639.31</ele>
        <time>2015-05-25T15:33:46.61Z</time>
      </trkpt>
      <trkpt lat="42.325156" lon="2.206776">
        <ele>1639.17</ele>
        <time>2015-05-25T18:31:09.68Z</time>
      </trkpt>
      <trkpt lat="42.325119" lon="2.206661">
        <ele>1639.68</ele>
        <time>2015-05-25T21:24:23.65Z</time>
      </trkpt>
      <trkpt lat="42.325102" lon="2.206540">
        <ele>1637.52</ele>
        <time>2015-05-26T00:14:30.99Z</time>
      </trkpt>
      <trkpt lat="42.325105" lon="2.206416">
        <ele>1636.21</ele>
        <time>2015-05-26T03:05:53.01Z</time>
      </trkpt>
      <trkpt lat="42.325126" lon="2.206295">
        <ele>1634.57</ele>
        <time>2015-05-26T05:57:33.49Z</time>
      </trkpt>
      <trkpt lat="42.325156" lon="2.206176">
        <ele>1633.17</ele>
        <time>2015-05-26T08:51:13.20Z</time>
      </trkpt>
      <trkpt lat="42.325187" lon="2.206056">
        <ele>1632.53</ele>
        <time>2015-05-26T11:46:47.82Z</time>
      </trkpt>
      <trkpt lat="42.325219" lon="2.205936">
        <ele>1632.38</ele>
        <time>2015-05-26T14:42:59.93Z</time>
      </trkpt>
      <trkpt lat="42.325249" lon="2.205814">
        <ele>1632.06</ele>
        <time>2015-05-26T17:40:35.25Z</time>
      </trkpt>
      <trkpt lat="42.325281" lon="2.205691">
        <ele>1632.14</ele>
        <time>2015-05-26T20:40:41.57Z</time>
      </trkpt>
      <trkpt lat="42.325319" lon="2.205570">
        <ele>1631.75</ele>
        <time>2015-05-26T23:42:16.61Z</time>
      </trkpt>
      <trkpt lat="42.325359" lon="2.205447">
        <ele>1630.38</ele>
        <time>2015-05-27T02:47:52.76Z</time>
      </trkpt>
      <trkpt lat="42.325399" lon="2.205324">
        <ele>1628.94</ele>
        <time>2015-05-27T05:53:28.89Z</time>
      </trkpt>
      <trkpt lat="42.325442" lon="2.205199">
        <ele>1627.76</ele>
        <time>2015-05-27T09:03:54.69Z</time>
      </trkpt>
      <trkpt lat="42.325482" lon="2.205069">
        <ele>1626.71</ele>
        <time>2015-05-27T12:18:24.17Z</time>
      </trkpt>
      <trkpt lat="42.325521" lon="2.204939">
        <ele>1626.21</ele>
        <time>2015-05-27T15:32:11.04Z</time>
      </trkpt>
      <trkpt lat="42.325557" lon="2.204812">
        <ele>1625.75</ele>
        <time>2015-05-27T18:40:03.20Z</time>
      </trkpt>
      <trkpt lat="42.325585" lon="2.204694">
        <ele>1625.14</ele>
        <time>2015-05-27T21:31:13.72Z</time>
      </trkpt>
      <trkpt lat="42.325605" lon="2.204592">
        <ele>1625.49</ele>
        <time>2015-05-27T23:56:59.16Z</time>
      </trkpt>
      <trkpt lat="42.325610" lon="2.204499">
        <ele>1625.18</ele>
        <time>2015-05-28T02:05:46.83Z</time>
      </trkpt>
      <trkpt lat="42.325596" lon="2.204413">
        <ele>1625.29</ele>
        <time>2015-05-28T04:07:24.77Z</time>
      </trkpt>
      <trkpt lat="42.325558" lon="2.204343">
        <ele>1626.07</ele>
        <time>2015-05-28T06:07:21.86Z</time>
      </trkpt>
      <trkpt lat="42.325500" lon="2.204293">
        <ele>1625.54</ele>
        <time>2015-05-28T08:15:51.55Z</time>
      </trkpt>
      <trkpt lat="42.325435" lon="2.204256">
        <ele>1624.47</ele>
        <time>2015-05-28T10:27:36.61Z</time>
      </trkpt>
      <trkpt lat="42.325371" lon="2.204218">
        <ele>1623.48</ele>
        <time>2015-05-28T12:38:11.42Z</time>
      </trkpt>
      <trkpt lat="42.325308" lon="2.204174">
        <ele>1622.73</ele>
        <time>2015-05-28T14:50:39.23Z</time>
      </trkpt>
      <trkpt lat="42.325247" lon="2.204116">
        <ele>1621.43</ele>
        <time>2015-05-28T17:09:57.42Z</time>
      </trkpt>
      <trkpt lat="42.325193" lon="2.204041">
        <ele>1620.21</ele>
        <time>2015-05-28T19:34:33.46Z</time>
      </trkpt>
      <trkpt lat="42.325154" lon="2.203947">
        <ele>1619.63</ele>
        <time>2015-05-28T22:03:26.52Z</time>
      </trkpt>
      <trkpt lat="42.325132" lon="2.203841">
        <ele>1618.64</ele>
        <time>2015-05-29T00:35:30.86Z</time>
      </trkpt>
      <trkpt lat="42.325120" lon="2.203728">
        <ele>1616.75</ele>
        <time>2015-05-29T03:13:11.86Z</time>
      </trkpt>
      <trkpt lat="42.325111" lon="2.203615">
        <ele>1614.89</ele>
        <time>2015-05-29T05:50:10.93Z</time>
      </trkpt>
      <trkpt lat="42.325103" lon="2.203494">
        <ele>1613.85</ele>
        <time>2015-05-29T08:37:58.84Z</time>
      </trkpt>
      <trkpt lat="42.325097" lon="2.203370">
        <ele>1612.87</ele>
        <time>2015-05-29T11:29:37.35Z</time>
      </trkpt>
      <trkpt lat="42.325091" lon="2.203246">
        <ele>1612.32</ele>
        <time>2015-05-29T14:21:15.85Z</time>
      </trkpt>
      <trkpt lat="42.325081" lon="2.203121">
        <ele>1611.84</ele>
        <time>2015-05-29T17:14:55.72Z</time>
      </trkpt>
      <trkpt lat="42.325068" lon="2.202995">
        <ele>1611.17</ele>
        <time>2015-05-29T20:10:39.18Z</time>
      </trkpt>
      <trkpt lat="42.325057" lon="2.202872">
        <ele>1610.54</ele>
        <time>2015-05-29T23:01:47.13Z</time>
      </trkpt>
      <trkpt lat="42.325050" lon="2.202750">
        <ele>1609.82</ele>
        <time>2015-05-30T01:50:48.31Z</time>
      </trkpt>
      <trkpt lat="42.325052" lon="2.202627">
        <ele>1608.51</ele>
        <time>2015-05-30T04:40:44.43Z</time>
      </trkpt>
      <trkpt lat="42.325067" lon="2.202502">
        <ele>1607.71</ele>
        <time>2015-05-30T07:35:39.40Z</time>
      </trkpt>
      <trkpt lat="42.325097" lon="2.202381">
        <ele>1605.67</ele>
        <time>2015-05-30T10:31:56.13Z</time>
      </trkpt>
      <trkpt lat="42.325135" lon="2.202262">
        <ele>1604.39</ele>
        <time>2015-05-30T13:30:58.84Z</time>
      </trkpt>
      <trkpt lat="42.325181" lon="2.202143">
        <ele>1603.32</ele>
        <time>2015-05-30T16:36:27.60Z</time>
      </trkpt>
      <trkpt lat="42.325230" lon="2.202025">
        <ele>1602.23</ele>
        <time>2015-05-30T19:43:23.77Z</time>
      </trkpt>
      <trkpt lat="42.325286" lon="2.201914">
        <ele>1601.19</ele>
        <time>2015-05-30T22:49:00.55Z</time>
      </trkpt>
      <trkpt lat="42.325349" lon="2.201809">
        <ele>1599.92</ele>
        <time>2015-05-31T01:55:47.39Z</time>
      </trkpt>
      <trkpt lat="42.325412" lon="2.201714">
        <ele>1599.29</ele>
        <time>2015-05-31T04:52:03.61Z</time>
      </trkpt>
      <trkpt lat="42.325475" lon="2.201629">
        <ele>1599.11</ele>
        <time>2015-05-31T07:38:18.26Z</time>
      </trkpt>
      <trkpt lat="42.325533" lon="2.201543">
        <ele>1598.85</ele>
        <time>2015-05-31T10:19:05.34Z</time>
      </trkpt>
      <trkpt lat="42.325590" lon="2.201446">
        <ele>1597.91</ele>
        <time>2015-05-31T13:10:14.06Z</time>
      </trkpt>
      <trkpt lat="42.325641" lon="2.201345">
        <ele>1596.21</ele>
        <time>2015-05-31T15:59:10.33Z</time>
      </trkpt>
      <trkpt lat="42.325691" lon="2.201236">
        <ele>1594.01</ele>
        <time>2015-05-31T18:56:21.11Z</time>
      </trkpt>
      <trkpt lat="42.325749" lon="2.201133">
        <ele>1592.69</ele>
        <time>2015-05-31T21:55:11.12Z</time>
      </trkpt>
      <trkpt lat="42.325807" lon="2.201037">
        <ele>1592.28</ele>
        <time>2015-06-01T00:46:25.64Z</time>
      </trkpt>
      <trkpt lat="42.325870" lon="2.200945">
        <ele>1591.73</ele>
        <time>2015-06-01T03:39:38.07Z</time>
      </trkpt>
      <trkpt lat="42.325945" lon="2.200856">
        <ele>1591.08</ele>
        <time>2015-06-01T06:46:02.02Z</time>
      </trkpt>
      <trkpt lat="42.326022" lon="2.200767">
        <ele>1589.41</ele>
        <time>2015-06-01T09:55:15.46Z</time>
      </trkpt>
      <trkpt lat="42.326097" lon="2.200688">
        <ele>1588.73</ele>
        <time>2015-06-01T12:52:51.08Z</time>
      </trkpt>
      <trkpt lat="42.326164" lon="2.200608">
        <ele>1588.38</ele>
        <time>2015-06-01T15:39:49.07Z</time>
      </trkpt>
      <trkpt lat="42.326212" lon="2.200520">
        <ele>1588.24</ele>
        <time>2015-06-01T18:10:51.97Z</time>
      </trkpt>
      <trkpt lat="42.326253" lon="2.200426">
        <ele>1588.88</ele>
        <time>2015-06-01T20:41:36.74Z</time>
      </trkpt>
      <trkpt lat="42.326281" lon="2.200325">
        <ele>1588.41</ele>
        <time>2015-06-01T23:10:36.08Z</time>
      </trkpt>
      <trkpt lat="42.326316" lon="2.200229">
        <ele>1588.21</ele>
        <time>2015-06-02T01:38:26.71Z</time>
      </trkpt>
      <trkpt lat="42.326369" lon="2.200145">
        <ele>1588.14</ele>
        <time>2015-06-02T04:10:58.54Z</time>
      </trkpt>
      <trkpt lat="42.326427" lon="2.200058">
        <ele>1587.96</ele>
        <time>2015-06-02T06:52:46.93Z</time>
      </trkpt>
      <trkpt lat="42.326474" lon="2.199953">
        <ele>1588.04</ele>
        <time>2015-06-02T09:42:19.24Z</time>
      </trkpt>
      <trkpt lat="42.326493" lon="2.199837">
        <ele>1587.29</ele>
        <time>2015-06-02T12:26:25.64Z</time>
      </trkpt>
      <trkpt lat="42.326491" lon="2.199720">
        <ele>1585.51</ele>
        <time>2015-06-02T15:08:04.41Z</time>
      </trkpt>
      <trkpt lat="42.326472" lon="2.199603">
        <ele>1584.97</ele>
        <time>2015-06-02T17:53:31.75Z</time>
      </trkpt>
      <trkpt lat="42.326442" lon="2.199482">
        <ele>1583.76</ele>
        <time>2015-06-02T20:49:48.27Z</time>
      </trkpt>
      <trkpt lat="42.326397" lon="2.199365">
        <ele>1582.36</ele>
        <time>2015-06-02T23:51:58.06Z</time>
      </trkpt>
      <trkpt lat="42.326356" lon="2.199249">
        <ele>1581.32</ele>
        <time>2015-06-03T02:49:33.48Z</time>
      </trkpt>
      <trkpt lat="42.326326" lon="2.199133">
        <ele>1580.84</ele>
        <time>2015-06-03T05:39:18.01Z</time>
      </trkpt>
      <trkpt lat="42.326300" lon="2.199007">
        <ele>1579.31</ele>
        <time>2015-06-03T08:39:59.17Z</time>
      </trkpt>
      <trkpt lat="42.326289" lon="2.198862">
        <ele>1578.51</ele>
        <time>2015-06-03T12:01:18.93Z</time>
      </trkpt>
      <trkpt lat="42.326292" lon="2.198725">
        <ele>1577.88</ele>
        <time>2015-06-03T15:10:37.59Z</time>
      </trkpt>
      <trkpt lat="42.326292" lon="2.198593">
        <ele>1577.19</ele>
        <time>2015-06-03T18:12:56.91Z</time>
      </trkpt>
      <trkpt lat="42.326285" lon="2.198461">
        <ele>1576.57</ele>
        <time>2015-06-03T21:15:44.33Z</time>
      </trkpt>
      <trkpt lat="42.326273" lon="2.198329">
        <ele>1575.87</ele>
        <time>2015-06-04T00:19:26.03Z</time>
      </trkpt>
      <trkpt lat="42.326255" lon="2.198206">
        <ele>1574.74</ele>
        <time>2015-06-04T03:12:37.26Z</time>
      </trkpt>
      <trkpt lat="42.326233" lon="2.198089">
        <ele>1573.56</ele>
        <time>2015-06-04T05:59:22.16Z</time>
      </trkpt>
      <trkpt lat="42.326208" lon="2.197976">
        <ele>1572.71</ele>
        <time>2015-06-04T08:42:17.20Z</time>
      </trkpt>
      <trkpt lat="42.326178" lon="2.197861">
        <ele>1571.92</ele>
        <time>2015-06-04T11:30:43.56Z</time>
      </trkpt>
      <trkpt lat="42.326153" lon="2.197746">
        <ele>1571.39</ele>
        <time>2015-06-04T14:16:17.50Z</time>
      </trkpt>
      <trkpt lat="42.326134" lon="2.197625">
        <ele>1570.71</ele>
        <time>2015-06-04T17:07:08.91Z</time>
      </trkpt>
      <trkpt lat="42.326123" lon="2.197498">
        <ele>1570.33</ele>
        <time>2015-06-04T20:03:45.86Z</time>
      </trkpt>
      <trkpt lat="42.326119" lon="2.197369">
        <ele>1568.81</ele>
        <time>2015-06-04T23:02:05.98Z</time>
      </trkpt>
      <trkpt lat="42.326128" lon="2.197238">
        <ele>1567.74</ele>
        <time>2015-06-05T02:03:49.22Z</time>
      </trkpt>
      <trkpt lat="42.326150" lon="2.197106">
        <ele>1566.66</ele>
        <time>2015-06-05T05:10:43.08Z</time>
      </trkpt>
      <trkpt lat="42.326175" lon="2.196969">
        <ele>1565.42</ele>
        <time>2015-06-05T08:25:37.52Z</time>
      </trkpt>
      <trkpt lat="42.326204" lon="2.196833">
        <ele>1564.34</ele>
        <time>2015-06-05T11:41:07.77Z</time>
      </trkpt>
      <trkpt lat="42.326234" lon="2.196699">
        <ele>1563.35</ele>
        <time>2015-06-05T14:54:30.84Z</time>
      </trkpt>
      <trkpt lat="42.326260" lon="2.196561">
        <ele>1562.43</ele>
        <time>2015-06-05T18:11:12.91Z</time>
      </trkpt>
      <trkpt lat="42.326283" lon="2.196419">
        <ele>1561.29</ele>
        <time>2015-06-05T21:32:00.07Z</time>
      </trkpt>
      <trkpt lat="42.326305" lon="2.196274">
        <ele>1560.73</ele>
        <time>2015-06-06T00:56:27.17Z</time>
      </trkpt>
      <trkpt lat="42.326326" lon="2.196128">
        <ele>1560.43</ele>
        <time>2015-06-06T04:21:53.57Z</time>
      </trkpt>
      <trkpt lat="42.326343" lon="2.195981">
        <ele>1559.59</ele>
        <time>2015-06-06T07:47:24.11Z</time>
      </trkpt>
      <trkpt lat="42.326357" lon="2.195835">
        <ele>1558.51</ele>
        <time>2015-06-06T11:10:44.99Z</time>
      </trkpt>
      <trkpt lat="42.326373" lon="2.195692">
        <ele>1558.21</ele>
        <time>2015-06-06T14:30:30.85Z</time>
      </trkpt>
      <trkpt lat="42.326386" lon="2.195550">
        <ele>1557.90</ele>
        <time>2015-06-06T17:48:08.76Z</time>
      </trkpt>
      <trkpt lat="42.326389" lon="2.195410">
        <ele>1557.07</ele>
        <time>2015-06-06T21:01:35.92Z</time>
      </trkpt>
      <trkpt lat="42.326387" lon="2.195273">
        <ele>1555.92</ele>
        <time>2015-06-07T00:10:51.79Z</time>
      </trkpt>
      <trkpt lat="42.326388" lon="2.195135">
        <ele>1554.98</ele>
        <time>2015-06-07T03:21:28.88Z</time>
      </trkpt>
      <trkpt lat="42.326387" lon="2.194995">
        <ele>1553.95</ele>
        <time>2015-06-07T06:34:51.71Z</time>
      </trkpt>
      <trkpt lat="42.326385" lon="2.194859">
        <ele>1553.32</ele>
        <time>2015-06-07T09:42:44.73Z</time>
      </trkpt>
      <trkpt lat="42.326375" lon="2.194721">
        <ele>1552.57</ele>
        <time>2015-06-07T12:54:16.07Z</time>
      </trkpt>
      <trkpt lat="42.326334" lon="2.194591">
        <ele>1551.81</ele>
        <time>2015-06-07T16:09:28.94Z</time>
      </trkpt>
      <trkpt lat="42.326287" lon="2.194467">
        <ele>1550.85</ele>
        <time>2015-06-07T19:21:57.06Z</time>
      </trkpt>
      <trkpt lat="42.326233" lon="2.194350">
        <ele>1550.45</ele>
        <time>2015-06-07T22:32:27.56Z</time>
      </trkpt>
      <trkpt lat="42.326166" lon="2.194246">
        <ele>1549.61</ele>
        <time>2015-06-08T01:42:59.51Z</time>
      </trkpt>
      <trkpt lat="42.326092" lon="2.194145">
        <ele>1548.31</ele>
        <time>2015-06-08T04:59:23.71Z</time>
      </trkpt>
      <trkpt lat="42.326028" lon="2.194038">
        <ele>1546.22</ele>
        <time>2015-06-08T08:09:29.81Z</time>
      </trkpt>
      <trkpt lat="42.325976" lon="2.193916">
        <ele>1544.92</ele>
        <time>2015-06-08T11:24:00.32Z</time>
      </trkpt>
      <trkpt lat="42.325939" lon="2.193785">
        <ele>1543.99</ele>
        <time>2015-06-08T14:37:42.07Z</time>
      </trkpt>
      <trkpt lat="42.325905" lon="2.193650">
        <ele>1543.35</ele>
        <time>2015-06-08T17:54:41.40Z</time>
      </trkpt>
      <trkpt lat="42.325864" lon="2.193519">
        <ele>1542.23</ele>
        <time>2015-06-08T21:11:10.62Z</time>
      </trkpt>
      <trkpt lat="42.325837" lon="2.193387">
        <ele>1541.86</ele>
        <time>2015-06-09T00:20:20.96Z</time>
      </trkpt>
      <trkpt lat="42.325823" lon="2.193253">
        <ele>1541.14</ele>
        <time>2015-06-09T03:27:16.43Z</time>
      </trkpt>
      <trkpt lat="42.325823" lon="2.193115">
        <ele>1540.64</ele>
        <time>2015-06-09T06:37:53.07Z</time>
      </trkpt>
      <trkpt lat="42.325822" lon="2.192981">
        <ele>1540.15</ele>
        <time>2015-06-09T09:42:58.78Z</time>
      </trkpt>
      <trkpt lat="42.325818" lon="2.192845">
        <ele>1539.43</ele>
        <time>2015-06-09T12:50:58.59Z</time>
      </trkpt>
      <trkpt lat="42.325813" lon="2.192716">
        <ele>1538.62</ele>
        <time>2015-06-09T15:49:24.04Z</time>
      </trkpt>
      <trkpt lat="42.325804" lon="2.192592">
        <ele>1537.61</ele>
        <time>2015-06-09T18:41:29.85Z</time>
      </trkpt>
      <trkpt lat="42.325796" lon="2.192461">
        <ele>1537.06</ele>
        <time>2015-06-09T21:43:03.35Z</time>
      </trkpt>
      <trkpt lat="42.325781" lon="2.192330">
        <ele>1536.68</ele>
        <time>2015-06-10T00:46:09.31Z</time>
      </trkpt>
      <trkpt lat="42.325760" lon="2.192200">
        <ele>1535.95</ele>
        <time>2015-06-10T03:49:57.13Z</time>
      </trkpt>
      <trkpt lat="42.325735" lon="2.192068">
        <ele>1534.97</ele>
        <time>2015-06-10T06:58:09.77Z</time>
      </trkpt>
      <trkpt lat="42.325713" lon="2.191931">
        <ele>1534.13</ele>
        <time>2015-06-10T10:11:48.29Z</time>
      </trkpt>
      <trkpt lat="42.325689" lon="2.191798">
        <ele>1533.22</ele>
        <time>2015-06-10T13:20:54.14Z</time>
      </trkpt>
      <trkpt lat="42.325661" lon="2.191666">
        <ele>1532.19</ele>
        <time>2015-06-10T16:30:34.91Z</time>
      </trkpt>
      <trkpt lat="42.325636" lon="2.191529">
        <ele>1531.18</ele>
        <time>2015-06-10T19:45:29.43Z</time>
      </trkpt>
      <trkpt lat="42.325608" lon="2.191395">
        <ele>1530.06</ele>
        <time>2015-06-10T22:57:49.63Z</time>
      </trkpt>
      <trkpt lat="42.325571" lon="2.191259">
        <ele>1528.30</ele>
        <time>2015-06-11T02:17:59.44Z</time>
      </trkpt>
      <trkpt lat="42.325548" lon="2.191115">
        <ele>1527.62</ele>
        <time>2015-06-11T05:41:28.68Z</time>
      </trkpt>
      <trkpt lat="42.325536" lon="2.190967">
        <ele>1526.91</ele>
        <time>2015-06-11T09:07:07.66Z</time>
      </trkpt>
      <trkpt lat="42.325516" lon="2.190825">
        <ele>1525.72</ele>
        <time>2015-06-11T12:26:47.49Z</time>
      </trkpt>
      <trkpt lat="42.325498" lon="2.190686">
        <ele>1524.49</ele>
        <time>2015-06-11T15:41:42.43Z</time>
      </trkpt>
      <trkpt lat="42.325493" lon="2.190544">
        <ele>1523.89</ele>
        <time>2015-06-11T18:58:03.97Z</time>
      </trkpt>
      <trkpt lat="42.325499" lon="2.190400">
        <ele>1523.17</ele>
        <time>2015-06-11T22:17:16.85Z</time>
      </trkpt>
      <trkpt lat="42.325512" lon="2.190257">
        <ele>1522.62</ele>
        <time>2015-06-12T01:36:17.18Z</time>
      </trkpt>
      <trkpt lat="42.325523" lon="2.190113">
        <ele>1521.10</ele>
        <time>2015-06-12T04:56:14.65Z</time>
      </trkpt>
      <trkpt lat="42.325538" lon="2.189967">
        <ele>1519.79</ele>
        <time>2015-06-12T08:19:50.61Z</time>
      </trkpt>
      <trkpt lat="42.325555" lon="2.189821">
        <ele>1519.10</ele>
        <time>2015-06-12T11:43:59.44Z</time>
      </trkpt>
      <trkpt lat="42.325573" lon="2.189677">
        <ele>1518.08</ele>
        <time>2015-06-12T15:05:42.74Z</time>
      </trkpt>
      <trkpt lat="42.325592" lon="2.189533">
        <ele>1516.44</ele>
        <time>2015-06-12T18:27:45.22Z</time>
      </trkpt>
      <trkpt lat="42.325618" lon="2.189392">
        <ele>1515.22</ele>
        <time>2015-06-12T21:48:28.49Z</time>
      </trkpt>
      <trkpt lat="42.325648" lon="2.189256">
        <ele>1514.01</ele>
        <time>2015-06-13T01:04:30.39Z</time>
      </trkpt>
      <trkpt lat="42.325680" lon="2.189126">
        <ele>1513.31</ele>
        <time>2015-06-13T04:13:45.51Z</time>
      </trkpt>
      <trkpt lat="42.325705" lon="2.189001">
        <ele>1512.94</ele>
        <time>2015-06-13T07:12:37.15Z</time>
      </trkpt>
      <trkpt lat="42.325732" lon="2.188852">
        <ele>1512.68</ele>
        <time>2015-06-13T10:44:30.92Z</time>
      </trkpt>
      <trkpt lat="42.325746" lon="2.188703">
        <ele>1512.01</ele>
        <time>2015-06-13T14:11:58.52Z</time>
      </trkpt>
      <trkpt lat="42.325752" lon="2.188555">
        <ele>1510.82</ele>
        <time>2015-06-13T17:36:42.34Z</time>
      </trkpt>
      <trkpt lat="42.325759" lon="2.188411">
        <ele>1509.19</ele>
        <time>2015-06-13T20:56:02Z</time>
      </trkpt>
      <trkpt lat="42.325777" lon="2.188272">
        <ele>1507.95</ele>
        <time>2015-06-14T00:10:56.90Z</time>
      </trkpt>
      <trkpt lat="42.325801" lon="2.188133">
        <ele>1506.73</ele>
        <time>2015-06-14T03:28:06.39Z</time>
      </trkpt>
      <trkpt lat="42.325834" lon="2.187992">
        <ele>1505.73</ele>
        <time>2015-06-14T06:52:23.17Z</time>
      </trkpt>
      <trkpt lat="42.325877" lon="2.187853">
        <ele>1504.92</ele>
        <time>2015-06-14T10:20:30.44Z</time>
      </trkpt>
      <trkpt lat="42.325921" lon="2.187714">
        <ele>1504.71</ele>
        <time>2015-06-14T13:49:21.40Z</time>
      </trkpt>
      <trkpt lat="42.325953" lon="2.187573">
        <ele>1504.51</ele>
        <time>2015-06-14T17:13:04.80Z</time>
      </trkpt>
      <trkpt lat="42.325968" lon="2.187431">
        <ele>1503.88</ele>
        <time>2015-06-14T20:31:12.42Z</time>
      </trkpt>
      <trkpt lat="42.325973" lon="2.187289">
        <ele>1503.03</ele>
        <time>2015-06-14T23:47:33.87Z</time>
      </trkpt>
      <trkpt lat="42.325975" lon="2.187145">
        <ele>1501.81</ele>
        <time>2015-06-15T03:06:29.83Z</time>
      </trkpt>
      <trkpt lat="42.325983" lon="2.187000">
        <ele>1500.67</ele>
        <time>2015-06-15T06:27:19.97Z</time>
      </trkpt>
      <trkpt lat="42.325978" lon="2.186858">
        <ele>1500.76</ele>
        <time>2015-06-15T09:43:41.42Z</time>
      </trkpt>
      <trkpt lat="42.325958" lon="2.186721">
        <ele>1501.28</ele>
        <time>2015-06-15T12:56:34.38Z</time>
      </trkpt>
      <trkpt lat="42.325927" lon="2.186592">
        <ele>1500.63</ele>
        <time>2015-06-15T16:03:55.70Z</time>
      </trkpt>
      <trkpt lat="42.325891" lon="2.186464">
        <ele>1499.01</ele>
        <time>2015-06-15T19:13:05.21Z</time>
      </trkpt>
      <trkpt lat="42.325866" lon="2.186334">
        <ele>1497.24</ele>
        <time>2015-06-15T22:18:37.35Z</time>
      </trkpt>
      <trkpt lat="42.325857" lon="2.186193">
        <ele>1495.25</ele>
        <time>2015-06-16T01:34:06.07Z</time>
      </trkpt>
      <trkpt lat="42.325855" lon="2.186051">
        <ele>1494.21</ele>
        <time>2015-06-16T04:50:16.34Z</time>
      </trkpt>
      <trkpt lat="42.325856" lon="2.185907">
        <ele>1494.21</ele>
        <time>2015-06-16T08:09:10.74Z</time>
      </trkpt>
      <trkpt lat="42.325854" lon="2.185761">
        <ele>1494.13</ele>
        <time>2015-06-16T11:30:52.45Z</time>
      </trkpt>
      <trkpt lat="42.325842" lon="2.185619">
        <ele>1493.58</ele>
        <time>2015-06-16T14:48:17.21Z</time>
      </trkpt>
      <trkpt lat="42.325820" lon="2.185481">
        <ele>1492.33</ele>
        <time>2015-06-16T18:03:16.70Z</time>
      </trkpt>
      <trkpt lat="42.325794" lon="2.185345">
        <ele>1491.04</ele>
        <time>2015-06-16T21:17:18.31Z</time>
      </trkpt>
      <trkpt lat="42.325770" lon="2.185211">
        <ele>1490.09</ele>
        <time>2015-06-17T00:27:44.68Z</time>
      </trkpt>
      <trkpt lat="42.325750" lon="2.185075">
        <ele>1489.59</ele>
        <time>2015-06-17T03:39:16.38Z</time>
      </trkpt>
      <trkpt lat="42.325730" lon="2.184938">
        <ele>1488.73</ele>
        <time>2015-06-17T06:52:09.38Z</time>
      </trkpt>
      <trkpt lat="42.325712" lon="2.184803">
        <ele>1487.66</ele>
        <time>2015-06-17T10:01:37.90Z</time>
      </trkpt>
      <trkpt lat="42.325692" lon="2.184667">
        <ele>1486.31</ele>
        <time>2015-06-17T13:13:09.62Z</time>
      </trkpt>
      <trkpt lat="42.325669" lon="2.184541">
        <ele>1484.95</ele>
        <time>2015-06-17T16:12:25.36Z</time>
      </trkpt>
      <trkpt lat="42.325649" lon="2.184414">
        <ele>1483.81</ele>
        <time>2015-06-17T19:11:46.53Z</time>
      </trkpt>
      <trkpt lat="42.325627" lon="2.184284">
        <ele>1483.21</ele>
        <time>2015-06-17T22:15:58.84Z</time>
      </trkpt>
      <trkpt lat="42.325604" lon="2.184155">
        <ele>1482.56</ele>
        <time>2015-06-18T01:19:16.12Z</time>
      </trkpt>
      <trkpt lat="42.325586" lon="2.184025">
        <ele>1482.06</ele>
        <time>2015-06-18T04:21:57.12Z</time>
      </trkpt>
      <trkpt lat="42.325561" lon="2.183897">
        <ele>1481.27</ele>
        <time>2015-06-18T07:24:48.97Z</time>
      </trkpt>
      <trkpt lat="42.325530" lon="2.183778">
        <ele>1480.98</ele>
        <time>2015-06-18T10:19:05.33Z</time>
      </trkpt>
      <trkpt lat="42.325498" lon="2.183658">
        <ele>1480.88</ele>
        <time>2015-06-18T13:15:17.41Z</time>
      </trkpt>
      <trkpt lat="42.325454" lon="2.183545">
        <ele>1480.28</ele>
        <time>2015-06-18T16:11:41.65Z</time>
      </trkpt>
      <trkpt lat="42.325391" lon="2.183443">
        <ele>1478.79</ele>
        <time>2015-06-18T19:15:16.53Z</time>
      </trkpt>
      <trkpt lat="42.325337" lon="2.183338">
        <ele>1477.75</ele>
        <time>2015-06-18T22:11:56.63Z</time>
      </trkpt>
      <trkpt lat="42.325289" lon="2.183229">
        <ele>1475.95</ele>
        <time>2015-06-19T01:07:10.98Z</time>
      </trkpt>
      <trkpt lat="42.325250" lon="2.183119">
        <ele>1474.33</ele>
        <time>2015-06-19T03:55:41.24Z</time>
      </trkpt>
      <trkpt lat="42.325221" lon="2.183003">
        <ele>1473.42</ele>
        <time>2015-06-19T06:44:49.47Z</time>
      </trkpt>
      <trkpt lat="42.325199" lon="2.182878">
        <ele>1472.81</ele>
        <time>2015-06-19T09:42:18.32Z</time>
      </trkpt>
      <trkpt lat="42.325179" lon="2.182751">
        <ele>1472.40</ele>
        <time>2015-06-19T12:41:39.57Z</time>
      </trkpt>
      <trkpt lat="42.325157" lon="2.182631">
        <ele>1471.31</ele>
        <time>2015-06-19T15:32:25.77Z</time>
      </trkpt>
      <trkpt lat="42.325138" lon="2.182530">
        <ele>1470.51</ele>
        <time>2015-06-19T17:56:22.86Z</time>
      </trkpt>
      <trkpt lat="42.325125" lon="2.182442">
        <ele>1469.53</ele>
        <time>2015-06-19T20:00:20.03Z</time>
      </trkpt>
      <trkpt lat="42.325124" lon="2.182369">
        <ele>1468.99</ele>
        <time>2015-06-19T21:41:10.95Z</time>
      </trkpt>
      <trkpt lat="42.325137" lon="2.182310">
        <ele>1468.76</ele>
        <time>2015-06-19T23:06:13.11Z</time>
      </trkpt>
      <trkpt lat="42.325157" lon="2.182272">
        <ele>1468.91</ele>
        <time>2015-06-20T00:10:38.83Z</time>
      </trkpt>
      <trkpt lat="42.325186" lon="2.182261">
        <ele>1469.54</ele>
        <time>2015-06-20T01:06:54.97Z</time>
      </trkpt>
      <trkpt lat="42.325215" lon="2.182261">
        <ele>1470.27</ele>
        <time>2015-06-20T02:01:05.69Z</time>
      </trkpt>
      <trkpt lat="42.325242" lon="2.182260">
        <ele>1470.80</ele>
        <time>2015-06-20T02:51:33.37Z</time>
      </trkpt>
      <trkpt lat="42.325271" lon="2.182253">
        <ele>1471.42</ele>
        <time>2015-06-20T03:46:35.45Z</time>
      </trkpt>
      <trkpt lat="42.325302" lon="2.182243">
        <ele>1471.81</ele>
        <time>2015-06-20T04:46:07.83Z</time>
      </trkpt>
      <trkpt lat="42.325331" lon="2.182230">
        <ele>1472.13</ele>
        <time>2015-06-20T05:43:12.44Z</time>
      </trkpt>
      <trkpt lat="42.325359" lon="2.182217">
        <ele>1472.50</ele>
        <time>2015-06-20T06:38:30.83Z</time>
      </trkpt>
      <trkpt lat="42.325387" lon="2.182204">
        <ele>1472.61</ele>
        <time>2015-06-20T07:33:49.23Z</time>
      </trkpt>
      <trkpt lat="42.325414" lon="2.182195">
        <ele>1472.98</ele>
        <time>2015-06-20T08:25:46.32Z</time>
      </trkpt>
      <trkpt lat="42.325442" lon="2.182187">
        <ele>1473.11</ele>
        <time>2015-06-20T09:19:14.21Z</time>
      </trkpt>
      <trkpt lat="42.325467" lon="2.182179">
        <ele>1473.42</ele>
        <time>2015-06-20T10:07:13.92Z</time>
      </trkpt>
      <trkpt lat="42.325490" lon="2.182172">
        <ele>1473.53</ele>
        <time>2015-06-20T10:51:16.54Z</time>
      </trkpt>
      <trkpt lat="42.325514" lon="2.182162">
        <ele>1473.62</ele>
        <time>2015-06-20T11:38:11.56Z</time>
      </trkpt>
      <trkpt lat="42.325540" lon="2.182156">
        <ele>1473.94</ele>
        <time>2015-06-20T12:27:28.12Z</time>
      </trkpt>
      <trkpt lat="42.325567" lon="2.182151">
        <ele>1474.12</ele>
        <time>2015-06-20T13:18:22.89Z</time>
      </trkpt>
      <trkpt lat="42.325590" lon="2.182150">
        <ele>1474.32</ele>
        <time>2015-06-20T14:01:22.38Z</time>
      </trkpt>
      <trkpt lat="42.325610" lon="2.182148">
        <ele>1474.41</ele>
        <time>2015-06-20T14:38:50.38Z</time>
      </trkpt>
      <trkpt lat="42.325631" lon="2.182146">
        <ele>1474.60</ele>
        <time>2015-06-20T15:18:10.18Z</time>
      </trkpt>
      <trkpt lat="42.325650" lon="2.182142">
        <ele>1474.64</ele>
        <time>2015-06-20T15:54:05.62Z</time>
      </trkpt>
      <trkpt lat="42.325673" lon="2.182138">
        <ele>1474.73</ele>
        <time>2015-06-20T16:37:25Z</time>
      </trkpt>
      <trkpt lat="42.325696" lon="2.182129">
        <ele>1474.80</ele>
        <time>2015-06-20T17:22:08.89Z</time>
      </trkpt>
      <trkpt lat="42.325732" lon="2.182117">
        <ele>1474.62</ele>
        <time>2015-06-20T18:31:25.01Z</time>
      </trkpt>
      <trkpt lat="42.325752" lon="2.182112">
        <ele>1474.74</ele>
        <time>2015-06-20T19:09:24.86Z</time>
      </trkpt>
      <trkpt lat="42.325774" lon="2.182109">
        <ele>1474.82</ele>
        <time>2015-06-20T19:50:43.43Z</time>
      </trkpt>
      <trkpt lat="42.325795" lon="2.182110">
        <ele>1475.01</ele>
        <time>2015-06-20T20:29:58.86Z</time>
      </trkpt>
      <trkpt lat="42.325816" lon="2.182111">
        <ele>1475.22</ele>
        <time>2015-06-20T21:09:14.30Z</time>
      </trkpt>
      <trkpt lat="42.325838" lon="2.182112">
        <ele>1475.59</ele>
        <time>2015-06-20T21:50:21.76Z</time>
      </trkpt>
      <trkpt lat="42.325858" lon="2.182115">
        <ele>1475.71</ele>
        <time>2015-06-20T22:27:57.38Z</time>
      </trkpt>
      <trkpt lat="42.325877" lon="2.182119">
        <ele>1476.01</ele>
        <time>2015-06-20T23:03:52.81Z</time>
      </trkpt>
      <trkpt lat="42.325900" lon="2.182123">
        <ele>1476.31</ele>
        <time>2015-06-20T23:47:12.20Z</time>
      </trkpt>
      <trkpt lat="42.325922" lon="2.182125">
        <ele>1476.59</ele>
        <time>2015-06-21T00:28:23.83Z</time>
      </trkpt>
      <trkpt lat="42.325944" lon="2.182127">
        <ele>1476.72</ele>
        <time>2015-06-21T01:09:35.46Z</time>
      </trkpt>
      <trkpt lat="42.325964" lon="2.182127">
        <ele>1476.95</ele>
        <time>2015-06-21T01:46:57.34Z</time>
      </trkpt>
      <trkpt lat="42.325984" lon="2.182127">
        <ele>1477.02</ele>
        <time>2015-06-21T02:24:19.22Z</time>
      </trkpt>
      <trkpt lat="42.326002" lon="2.182129">
        <ele>1477.29</ele>
        <time>2015-06-21T02:58:03.71Z</time>
      </trkpt>
      <trkpt lat="42.326037" lon="2.182143">
        <ele>1477.93</ele>
        <time>2015-06-21T04:06:14.96Z</time>
      </trkpt>
      <trkpt lat="42.326071" lon="2.182147">
        <ele>1478.31</ele>
        <time>2015-06-21T05:10:00.55Z</time>
      </trkpt>
      <trkpt lat="42.326108" lon="2.182146">
        <ele>1478.58</ele>
        <time>2015-06-21T06:19:08.85Z</time>
      </trkpt>
      <trkpt lat="42.326126" lon="2.182147">
        <ele>1478.53</ele>
        <time>2015-06-21T06:52:48.25Z</time>
      </trkpt>
      <trkpt lat="42.326146" lon="2.182147">
        <ele>1478.52</ele>
        <time>2015-06-21T07:30:10.13Z</time>
      </trkpt>
      <trkpt lat="42.326166" lon="2.182148">
        <ele>1478.51</ele>
        <time>2015-06-21T08:07:33.54Z</time>
      </trkpt>
      <trkpt lat="42.326189" lon="2.182152">
        <ele>1478.73</ele>
        <time>2015-06-21T08:50:52.93Z</time>
      </trkpt>
      <trkpt lat="42.326208" lon="2.182157">
        <ele>1478.87</ele>
        <time>2015-06-21T09:27:02.65Z</time>
      </trkpt>
      <trkpt lat="42.326226" lon="2.182166">
        <ele>1479.14</ele>
        <time>2015-06-21T10:02:53.78Z</time>
      </trkpt>
      <trkpt lat="42.326243" lon="2.182172">
        <ele>1479.38</ele>
        <time>2015-06-21T10:35:43.19Z</time>
      </trkpt>
      <trkpt lat="42.326263" lon="2.182173">
        <ele>1479.39</ele>
        <time>2015-06-21T11:13:06.60Z</time>
      </trkpt>
      <trkpt lat="42.326284" lon="2.182172">
        <ele>1479.37</ele>
        <time>2015-06-21T11:52:22.03Z</time>
      </trkpt>
      <trkpt lat="42.326303" lon="2.182177">
        <ele>1479.43</ele>
        <time>2015-06-21T12:28:31.75Z</time>
      </trkpt>
      <trkpt lat="42.326321" lon="2.182184">
        <ele>1479.74</ele>
        <time>2015-06-21T13:03:31.19Z</time>
      </trkpt>
      <trkpt lat="42.326338" lon="2.182193">
        <ele>1480.04</ele>
        <time>2015-06-21T13:37:37.55Z</time>
      </trkpt>
      <trkpt lat="42.326356" lon="2.182198">
        <ele>1480.10</ele>
        <time>2015-06-21T14:11:57.35Z</time>
      </trkpt>
      <trkpt lat="42.326390" lon="2.182210">
        <ele>1480.62</ele>
        <time>2015-06-21T15:17:36.16Z</time>
      </trkpt>
      <trkpt lat="42.326423" lon="2.182212">
        <ele>1480.71</ele>
        <time>2015-06-21T16:19:18.98Z</time>
      </trkpt>
      <trkpt lat="42.326442" lon="2.182216">
        <ele>1481.06</ele>
        <time>2015-06-21T16:55:14.41Z</time>
      </trkpt>
      <trkpt lat="42.326461" lon="2.182219">
        <ele>1481.19</ele>
        <time>2015-06-21T17:30:58.65Z</time>
      </trkpt>
      <trkpt lat="42.326494" lon="2.182226">
        <ele>1481.52</ele>
        <time>2015-06-21T18:33:22.97Z</time>
      </trkpt>
      <trkpt lat="42.326516" lon="2.182233">
        <ele>1481.85</ele>
        <time>2015-06-21T19:15:36.35Z</time>
      </trkpt>
      <trkpt lat="42.326538" lon="2.182255">
        <ele>1482.80</ele>
        <time>2015-06-21T20:06:43.20Z</time>
      </trkpt>
      <trkpt lat="42.326549" lon="2.182280">
        <ele>1483.72</ele>
        <time>2015-06-21T20:46:54.19Z</time>
      </trkpt>
      <trkpt lat="42.326570" lon="2.182297">
        <ele>1484.45</ele>
        <time>2015-06-21T21:32:37.55Z</time>
      </trkpt>
      <trkpt lat="42.326589" lon="2.182320">
        <ele>1485.49</ele>
        <time>2015-06-21T22:20:15.73Z</time>
      </trkpt>
      <trkpt lat="42.326611" lon="2.182328">
        <ele>1485.86</ele>
        <time>2015-06-21T23:02:49.36Z</time>
      </trkpt>
      <trkpt lat="42.326630" lon="2.182322">
        <ele>1485.71</ele>
        <time>2015-06-21T23:39:16.42Z</time>
      </trkpt>
      <trkpt lat="42.326661" lon="2.182313">
        <ele>1485.62</ele>
        <time>2015-06-22T00:38:30.48Z</time>
      </trkpt>
      <trkpt lat="42.326690" lon="2.182310">
        <ele>1485.41</ele>
        <time>2015-06-22T01:32:50.70Z</time>
      </trkpt>
      <trkpt lat="42.326720" lon="2.182321">
        <ele>1485.75</ele>
        <time>2015-06-22T02:30:54.89Z</time>
      </trkpt>
      <trkpt lat="42.326753" lon="2.182336">
        <ele>1486.23</ele>
        <time>2015-06-22T03:35:57.28Z</time>
      </trkpt>
      <trkpt lat="42.326772" lon="2.182336">
        <ele>1486.18</ele>
        <time>2015-06-22T04:11:27.06Z</time>
      </trkpt>
      <trkpt lat="42.326790" lon="2.182336">
        <ele>1486.12</ele>
        <time>2015-06-22T04:45:04.76Z</time>
      </trkpt>
      <trkpt lat="42.326823" lon="2.182344">
        <ele>1486.37</ele>
        <time>2015-06-22T05:47:42.80Z</time>
      </trkpt>
      <trkpt lat="42.326854" lon="2.182351">
        <ele>1486.50</ele>
        <time>2015-06-22T06:46:25.80Z</time>
      </trkpt>
      <trkpt lat="42.326887" lon="2.182356">
        <ele>1486.58</ele>
        <time>2015-06-22T07:48:28.04Z</time>
      </trkpt>
      <trkpt lat="42.326919" lon="2.182368">
        <ele>1486.92</ele>
        <time>2015-06-22T08:50:30.35Z</time>
      </trkpt>
      <trkpt lat="42.326952" lon="2.182372">
        <ele>1486.97</ele>
        <time>2015-06-22T09:52:24.28Z</time>
      </trkpt>
      <trkpt lat="42.326983" lon="2.182376">
        <ele>1487.04</ele>
        <time>2015-06-22T10:50:34.97Z</time>
      </trkpt>
      <trkpt lat="42.327018" lon="2.182386">
        <ele>1487.33</ele>
        <time>2015-06-22T11:57:24.83Z</time>
      </trkpt>
      <trkpt lat="42.327051" lon="2.182397">
        <ele>1487.61</ele>
        <time>2015-06-22T13:00:54.60Z</time>
      </trkpt>
      <trkpt lat="42.327085" lon="2.182405">
        <ele>1487.99</ele>
        <time>2015-06-22T14:05:23.04Z</time>
      </trkpt>
      <trkpt lat="42.327117" lon="2.182414">
        <ele>1488.28</ele>
        <time>2015-06-22T15:06:26.77Z</time>
      </trkpt>
      <trkpt lat="42.327150" lon="2.182421">
        <ele>1488.54</ele>
        <time>2015-06-22T16:08:51.08Z</time>
      </trkpt>
      <trkpt lat="42.327182" lon="2.182431">
        <ele>1488.90</ele>
        <time>2015-06-22T17:10:12.58Z</time>
      </trkpt>
      <trkpt lat="42.327213" lon="2.182437">
        <ele>1489.18</ele>
        <time>2015-06-22T18:08:42.89Z</time>
      </trkpt>
      <trkpt lat="42.327245" lon="2.182445">
        <ele>1489.43</ele>
        <time>2015-06-22T19:09:30.65Z</time>
      </trkpt>
      <trkpt lat="42.327275" lon="2.182451">
        <ele>1489.72</ele>
        <time>2015-06-22T20:06:10.03Z</time>
      </trkpt>
      <trkpt lat="42.327309" lon="2.182453">
        <ele>1489.94</ele>
        <time>2015-06-22T21:09:44.83Z</time>
      </trkpt>
      <trkpt lat="42.327341" lon="2.182462">
        <ele>1490.34</ele>
        <time>2015-06-22T22:10:48.56Z</time>
      </trkpt>
      <trkpt lat="42.327371" lon="2.182471">
        <ele>1490.79</ele>
        <time>2015-06-22T23:08:13.10Z</time>
      </trkpt>
      <trkpt lat="42.327402" lon="2.182474">
        <ele>1490.81</ele>
        <time>2015-06-23T00:06:16.89Z</time>
      </trkpt>
      <trkpt lat="42.327435" lon="2.182474">
        <ele>1490.91</ele>
        <time>2015-06-23T01:07:56Z</time>
      </trkpt>
      <trkpt lat="42.327466" lon="2.182475">
        <ele>1490.95</ele>
        <time>2015-06-23T02:05:51.90Z</time>
      </trkpt>
      <trkpt lat="42.327499" lon="2.182477">
        <ele>1491.02</ele>
        <time>2015-06-23T03:07:34.71Z</time>
      </trkpt>
      <trkpt lat="42.327531" lon="2.182480">
        <ele>1491.21</ele>
        <time>2015-06-23T04:07:30.33Z</time>
      </trkpt>
      <trkpt lat="42.327564" lon="2.182482">
        <ele>1491.59</ele>
        <time>2015-06-23T05:09:13.14Z</time>
      </trkpt>
      <trkpt lat="42.327599" lon="2.182488">
        <ele>1491.86</ele>
        <time>2015-06-23T06:15:07.81Z</time>
      </trkpt>
      <trkpt lat="42.327632" lon="2.182490">
        <ele>1492.07</ele>
        <time>2015-06-23T07:16:50.63Z</time>
      </trkpt>
      <trkpt lat="42.327666" lon="2.182495">
        <ele>1492.42</ele>
        <time>2015-06-23T08:20:44.28Z</time>
      </trkpt>
      <trkpt lat="42.327699" lon="2.182495">
        <ele>1492.57</ele>
        <time>2015-06-23T09:22:23.38Z</time>
      </trkpt>
      <trkpt lat="42.327730" lon="2.182502">
        <ele>1492.93</ele>
        <time>2015-06-23T10:21:06.39Z</time>
      </trkpt>
      <trkpt lat="42.327762" lon="2.182507">
        <ele>1493.36</ele>
        <time>2015-06-23T11:21:17.25Z</time>
      </trkpt>
      <trkpt lat="42.327797" lon="2.182510">
        <ele>1493.51</ele>
        <time>2015-06-23T12:26:48.41Z</time>
      </trkpt>
      <trkpt lat="42.327832" lon="2.182514">
        <ele>1493.81</ele>
        <time>2015-06-23T13:32:25.68Z</time>
      </trkpt>
      <trkpt lat="42.327865" lon="2.182519">
        <ele>1494.26</ele>
        <time>2015-06-23T14:34:27.92Z</time>
      </trkpt>
      <trkpt lat="42.327899" lon="2.182524">
        <ele>1494.62</ele>
        <time>2015-06-23T15:38:21.57Z</time>
      </trkpt>
      <trkpt lat="42.327918" lon="2.182527">
        <ele>1494.87</ele>
        <time>2015-06-23T16:14:05.82Z</time>
      </trkpt>
      <trkpt lat="42.327950" lon="2.182535">
        <ele>1495.40</ele>
        <time>2015-06-23T17:14:53.58Z</time>
      </trkpt>
      <trkpt lat="42.327977" lon="2.182547">
        <ele>1495.97</ele>
        <time>2015-06-23T18:07:59.31Z</time>
      </trkpt>
      <trkpt lat="42.328009" lon="2.182544">
        <ele>1495.94</ele>
        <time>2015-06-23T19:07:54.92Z</time>
      </trkpt>
      <trkpt lat="42.328043" lon="2.182547">
        <ele>1496.25</ele>
        <time>2015-06-23T20:11:34.22Z</time>
      </trkpt>
      <trkpt lat="42.328075" lon="2.182560">
        <ele>1496.78</ele>
        <time>2015-06-23T21:13:59.52Z</time>
      </trkpt>
      <trkpt lat="42.328110" lon="2.182566">
        <ele>1496.86</ele>
        <time>2015-06-23T22:19:54.19Z</time>
      </trkpt>
      <trkpt lat="42.328143" lon="2.182576">
        <ele>1497.24</ele>
        <time>2015-06-23T23:23:04.98Z</time>
      </trkpt>
      <trkpt lat="42.328177" lon="2.182584">
        <ele>1497.42</ele>
        <time>2015-06-24T00:27:33.41Z</time>
      </trkpt>
      <trkpt lat="42.328211" lon="2.182593">
        <ele>1497.61</ele>
        <time>2015-06-24T01:32:16.90Z</time>
      </trkpt>
      <trkpt lat="42.328241" lon="2.182604">
        <ele>1498.09</ele>
        <time>2015-06-24T02:30:21.09Z</time>
      </trkpt>
      <trkpt lat="42.328275" lon="2.182616">
        <ele>1498.32</ele>
        <time>2015-06-24T03:35:59.89Z</time>
      </trkpt>
      <trkpt lat="42.328309" lon="2.182625">
        <ele>1498.54</ele>
        <time>2015-06-24T04:40:43.38Z</time>
      </trkpt>
      <trkpt lat="42.328344" lon="2.182635">
        <ele>1498.78</ele>
        <time>2015-06-24T05:47:33.24Z</time>
      </trkpt>
      <trkpt lat="42.328376" lon="2.182653">
        <ele>1498.97</ele>
        <time>2015-06-24T06:52:18.04Z</time>
      </trkpt>
      <trkpt lat="42.328406" lon="2.182672">
        <ele>1499.25</ele>
        <time>2015-06-24T07:54:11.23Z</time>
      </trkpt>
      <trkpt lat="42.328424" lon="2.182682">
        <ele>1499.38</ele>
        <time>2015-06-24T08:30:32.48Z</time>
      </trkpt>
      <trkpt lat="42.328454" lon="2.182701">
        <ele>1499.69</ele>
        <time>2015-06-24T09:32:25.66Z</time>
      </trkpt>
      <trkpt lat="42.328487" lon="2.182717">
        <ele>1499.78</ele>
        <time>2015-06-24T10:37:55.22Z</time>
      </trkpt>
      <trkpt lat="42.328520" lon="2.182732">
        <ele>1499.84</ele>
        <time>2015-06-24T11:42:57.60Z</time>
      </trkpt>
      <trkpt lat="42.328552" lon="2.182755">
        <ele>1500.12</ele>
        <time>2015-06-24T12:50:39.57Z</time>
      </trkpt>
      <trkpt lat="42.328578" lon="2.182782">
        <ele>1500.71</ele>
        <time>2015-06-24T13:51:53.86Z</time>
      </trkpt>
      <trkpt lat="42.328594" lon="2.182795">
        <ele>1500.99</ele>
        <time>2015-06-24T14:26:46.05Z</time>
      </trkpt>
      <trkpt lat="42.328621" lon="2.182817">
        <ele>1501.27</ele>
        <time>2015-06-24T15:25:39.30Z</time>
      </trkpt>
      <trkpt lat="42.328651" lon="2.182836">
        <ele>1501.26</ele>
        <time>2015-06-24T16:27:32.48Z</time>
      </trkpt>
      <trkpt lat="42.328676" lon="2.182860">
        <ele>1501.56</ele>
        <time>2015-06-24T17:24:48.88Z</time>
      </trkpt>
      <trkpt lat="42.328701" lon="2.182882">
        <ele>1501.78</ele>
        <time>2015-06-24T18:20:32.09Z</time>
      </trkpt>
      <trkpt lat="42.328726" lon="2.182908">
        <ele>1502.04</ele>
        <time>2015-06-24T19:19:27Z</time>
      </trkpt>
      <trkpt lat="42.328753" lon="2.182939">
        <ele>1502.45</ele>
        <time>2015-06-24T20:25:36.84Z</time>
      </trkpt>
      <trkpt lat="42.328779" lon="2.182964">
        <ele>1502.72</ele>
        <time>2015-06-24T21:25:12.61Z</time>
      </trkpt>
      <trkpt lat="42.328802" lon="2.182989">
        <ele>1503.06</ele>
        <time>2015-06-24T22:20:20.04Z</time>
      </trkpt>
      <trkpt lat="42.328822" lon="2.183024">
        <ele>1503.68</ele>
        <time>2015-06-24T23:21:25.92Z</time>
      </trkpt>
      <trkpt lat="42.328848" lon="2.183051">
        <ele>1503.91</ele>
        <time>2015-06-25T00:22:40.21Z</time>
      </trkpt>
      <trkpt lat="42.328875" lon="2.183075">
        <ele>1504.01</ele>
        <time>2015-06-25T01:23:01.76Z</time>
      </trkpt>
      <trkpt lat="42.328898" lon="2.183108">
        <ele>1504.79</ele>
        <time>2015-06-25T02:25:40.16Z</time>
      </trkpt>
      <trkpt lat="42.328928" lon="2.183132">
        <ele>1504.75</ele>
        <time>2015-06-25T03:30:47.10Z</time>
      </trkpt>
      <trkpt lat="42.328954" lon="2.183160">
        <ele>1505.07</ele>
        <time>2015-06-25T04:32:52.43Z</time>
      </trkpt>
      <trkpt lat="42.328982" lon="2.183193">
        <ele>1505.47</ele>
        <time>2015-06-25T05:42:15.32Z</time>
      </trkpt>
      <trkpt lat="42.329007" lon="2.183224">
        <ele>1505.89</ele>
        <time>2015-06-25T06:45:37Z</time>
      </trkpt>
      <trkpt lat="42.329019" lon="2.183244">
        <ele>1506.24</ele>
        <time>2015-06-25T07:21:11.56Z</time>
      </trkpt>
      <trkpt lat="42.329046" lon="2.183270">
        <ele>1506.32</ele>
        <time>2015-06-25T08:23:06.71Z</time>
      </trkpt>
      <trkpt lat="42.329073" lon="2.183298">
        <ele>1506.55</ele>
        <time>2015-06-25T09:26:40.37Z</time>
      </trkpt>
      <trkpt lat="42.329099" lon="2.183324">
        <ele>1506.65</ele>
        <time>2015-06-25T10:27:04.78Z</time>
      </trkpt>
      <trkpt lat="42.329124" lon="2.183349">
        <ele>1506.70</ele>
        <time>2015-06-25T11:25:09.79Z</time>
      </trkpt>
      <trkpt lat="42.329154" lon="2.183367">
        <ele>1506.51</ele>
        <time>2015-06-25T12:26:28.60Z</time>
      </trkpt>
      <trkpt lat="42.329179" lon="2.183398">
        <ele>1506.71</ele>
        <time>2015-06-25T13:29:50.27Z</time>
      </trkpt>
      <trkpt lat="42.329199" lon="2.183433">
        <ele>1507.39</ele>
        <time>2015-06-25T14:30:56.14Z</time>
      </trkpt>
      <trkpt lat="42.329224" lon="2.183460">
        <ele>1507.53</ele>
        <time>2015-06-25T15:30:42.15Z</time>
      </trkpt>
      <trkpt lat="42.329243" lon="2.183490">
        <ele>1507.99</ele>
        <time>2015-06-25T16:25:15.78Z</time>
      </trkpt>
      <trkpt lat="42.329265" lon="2.183521">
        <ele>1508.25</ele>
        <time>2015-06-25T17:24:36.83Z</time>
      </trkpt>
      <trkpt lat="42.329288" lon="2.183551">
        <ele>1508.67</ele>
        <time>2015-06-25T18:24:18.39Z</time>
      </trkpt>
      <trkpt lat="42.329310" lon="2.183583">
        <ele>1509.08</ele>
        <time>2015-06-25T19:24:39.67Z</time>
      </trkpt>
      <trkpt lat="42.329331" lon="2.183619">
        <ele>1509.52</ele>
        <time>2015-06-25T20:27:59.84Z</time>
      </trkpt>
      <trkpt lat="42.329349" lon="2.183656">
        <ele>1509.98</ele>
        <time>2015-06-25T21:29:10.33Z</time>
      </trkpt>
      <trkpt lat="42.329368" lon="2.183693">
        <ele>1510.40</ele>
        <time>2015-06-25T22:31:23.62Z</time>
      </trkpt>
      <trkpt lat="42.329389" lon="2.183726">
        <ele>1510.65</ele>
        <time>2015-06-25T23:31:31.90Z</time>
      </trkpt>
      <trkpt lat="42.329410" lon="2.183752">
        <ele>1510.62</ele>
        <time>2015-06-26T00:24:43.07Z</time>
      </trkpt>
      <trkpt lat="42.329436" lon="2.183778">
        <ele>1510.51</ele>
        <time>2015-06-26T01:25:07.47Z</time>
      </trkpt>
      <trkpt lat="42.329454" lon="2.183817">
        <ele>1511.05</ele>
        <time>2015-06-26T02:28:37.50Z</time>
      </trkpt>
      <trkpt lat="42.329464" lon="2.183837">
        <ele>1511.34</ele>
        <time>2015-06-26T03:01:58.36Z</time>
      </trkpt>
      <trkpt lat="42.329484" lon="2.183875">
        <ele>1511.87</ele>
        <time>2015-06-26T04:06:23.91Z</time>
      </trkpt>
      <trkpt lat="42.329504" lon="2.183912">
        <ele>1512.23</ele>
        <time>2015-06-26T05:09:42.25Z</time>
      </trkpt>
      <trkpt lat="42.329524" lon="2.183947">
        <ele>1512.52</ele>
        <time>2015-06-26T06:10:48.11Z</time>
      </trkpt>
      <trkpt lat="42.329543" lon="2.183984">
        <ele>1512.96</ele>
        <time>2015-06-26T07:13:01.38Z</time>
      </trkpt>
      <trkpt lat="42.329557" lon="2.184004">
        <ele>1513.12</ele>
        <time>2015-06-26T07:51:03.86Z</time>
      </trkpt>
      <trkpt lat="42.329571" lon="2.184019">
        <ele>1513.15</ele>
        <time>2015-06-26T08:24:25.83Z</time>
      </trkpt>
      <trkpt lat="42.329592" lon="2.184059">
        <ele>1513.55</ele>
        <time>2015-06-26T09:32:11.41Z</time>
      </trkpt>
      <trkpt lat="42.329602" lon="2.184083">
        <ele>1513.86</ele>
        <time>2015-06-26T10:10:14.40Z</time>
      </trkpt>
      <trkpt lat="42.329612" lon="2.184105">
        <ele>1514.01</ele>
        <time>2015-06-26T10:45:54.56Z</time>
      </trkpt>
      <trkpt lat="42.329622" lon="2.184127">
        <ele>1514.31</ele>
        <time>2015-06-26T11:21:34.72Z</time>
      </trkpt>
      <trkpt lat="42.329646" lon="2.184160">
        <ele>1514.55</ele>
        <time>2015-06-26T12:25:30.86Z</time>
      </trkpt>
      <trkpt lat="42.329658" lon="2.184179">
        <ele>1514.80</ele>
        <time>2015-06-26T13:00:01.72Z</time>
      </trkpt>
      <trkpt lat="42.329670" lon="2.184200">
        <ele>1514.94</ele>
        <time>2015-06-26T13:36:41.23Z</time>
      </trkpt>
      <trkpt lat="42.329693" lon="2.184235">
        <ele>1515.17</ele>
        <time>2015-06-26T14:41:21.87Z</time>
      </trkpt>
      <trkpt lat="42.329717" lon="2.184265">
        <ele>1515.27</ele>
        <time>2015-06-26T15:42:24.93Z</time>
      </trkpt>
      <trkpt lat="42.329746" lon="2.184292">
        <ele>1515.40</ele>
        <time>2015-06-26T16:48:11.26Z</time>
      </trkpt>
      <trkpt lat="42.329761" lon="2.184307">
        <ele>1515.38</ele>
        <time>2015-06-26T17:23:02.26Z</time>
      </trkpt>
      <trkpt lat="42.329775" lon="2.184322">
        <ele>1515.47</ele>
        <time>2015-06-26T17:56:24.23Z</time>
      </trkpt>
      <trkpt lat="42.329791" lon="2.184336">
        <ele>1515.44</ele>
        <time>2015-06-26T18:32:00.26Z</time>
      </trkpt>
      <trkpt lat="42.329847" lon="2.184408">
        <ele>1516.00</ele>
        <time>2015-06-26T20:56:20.74Z</time>
      </trkpt>
      <trkpt lat="42.329869" lon="2.184441">
        <ele>1516.32</ele>
        <time>2015-06-26T21:57:43.12Z</time>
      </trkpt>
      <trkpt lat="42.329895" lon="2.184476">
        <ele>1516.71</ele>
        <time>2015-06-26T23:06:14.86Z</time>
      </trkpt>
      <trkpt lat="42.329919" lon="2.184510">
        <ele>1517.29</ele>
        <time>2015-06-27T00:11:10.50Z</time>
      </trkpt>
      <trkpt lat="42.329947" lon="2.184539">
        <ele>1517.47</ele>
        <time>2015-06-27T01:17:03.52Z</time>
      </trkpt>
      <trkpt lat="42.329971" lon="2.184571">
        <ele>1517.83</ele>
        <time>2015-06-27T02:20:01.02Z</time>
      </trkpt>
      <trkpt lat="42.329993" lon="2.184603">
        <ele>1518.12</ele>
        <time>2015-06-27T03:20:22.28Z</time>
      </trkpt>
      <trkpt lat="42.330020" lon="2.184630">
        <ele>1518.33</ele>
        <time>2015-06-27T04:23:06.07Z</time>
      </trkpt>
      <trkpt lat="42.330048" lon="2.184656">
        <ele>1518.53</ele>
        <time>2015-06-27T05:26:33.07Z</time>
      </trkpt>
      <trkpt lat="42.330073" lon="2.184687">
        <ele>1518.83</ele>
        <time>2015-06-27T06:29:54.73Z</time>
      </trkpt>
      <trkpt lat="42.330097" lon="2.184720">
        <ele>1519.23</ele>
        <time>2015-06-27T07:33:50.85Z</time>
      </trkpt>
      <trkpt lat="42.330122" lon="2.184751">
        <ele>1519.54</ele>
        <time>2015-06-27T08:37:12.50Z</time>
      </trkpt>
      <trkpt lat="42.330136" lon="2.184767">
        <ele>1519.67</ele>
        <time>2015-06-27T09:11:26.95Z</time>
      </trkpt>
      <trkpt lat="42.330159" lon="2.184795">
        <ele>1519.82</ele>
        <time>2015-06-27T10:09:15.49Z</time>
      </trkpt>
      <trkpt lat="42.330187" lon="2.184829">
        <ele>1520.11</ele>
        <time>2015-06-27T11:19:33.25Z</time>
      </trkpt>
      <trkpt lat="42.330202" lon="2.184846">
        <ele>1520.26</ele>
        <time>2015-06-27T11:56:06.82Z</time>
      </trkpt>
      <trkpt lat="42.330219" lon="2.184884">
        <ele>1520.71</ele>
        <time>2015-06-27T12:57:27.52Z</time>
      </trkpt>
      <trkpt lat="42.330236" lon="2.184920">
        <ele>1521.14</ele>
        <time>2015-06-27T13:56:27.45Z</time>
      </trkpt>
      <trkpt lat="42.330261" lon="2.184947">
        <ele>1521.24</ele>
        <time>2015-06-27T14:56:13.44Z</time>
      </trkpt>
      <trkpt lat="42.330286" lon="2.184976">
        <ele>1521.36</ele>
        <time>2015-06-27T15:57:45.12Z</time>
      </trkpt>
      <trkpt lat="42.330314" lon="2.185005">
        <ele>1521.51</ele>
        <time>2015-06-27T17:03:38.13Z</time>
      </trkpt>
      <trkpt lat="42.330333" lon="2.185045">
        <ele>1521.91</ele>
        <time>2015-06-27T18:09:18.11Z</time>
      </trkpt>
      <trkpt lat="42.330342" lon="2.185067">
        <ele>1522.25</ele>
        <time>2015-06-27T18:44:01.73Z</time>
      </trkpt>
      <trkpt lat="42.330363" lon="2.185105">
        <ele>1522.65</ele>
        <time>2015-06-27T19:49:33.31Z</time>
      </trkpt>
      <trkpt lat="42.330374" lon="2.185127">
        <ele>1522.99</ele>
        <time>2015-06-27T20:26:14.23Z</time>
      </trkpt>
      <trkpt lat="42.330382" lon="2.185149">
        <ele>1523.12</ele>
        <time>2015-06-27T21:00:05.95Z</time>
      </trkpt>
      <trkpt lat="42.330396" lon="2.185189">
        <ele>1523.71</ele>
        <time>2015-06-27T22:01:13.39Z</time>
      </trkpt>
      <trkpt lat="42.330412" lon="2.185231">
        <ele>1524.29</ele>
        <time>2015-06-27T23:06:28.79Z</time>
      </trkpt>
      <trkpt lat="42.330433" lon="2.185266">
        <ele>1524.46</ele>
        <time>2015-06-28T00:08:44.21Z</time>
      </trkpt>
      <trkpt lat="42.330441" lon="2.185289">
        <ele>1524.79</ele>
        <time>2015-06-28T00:43:50.60Z</time>
      </trkpt>
      <trkpt lat="42.330457" lon="2.185330">
        <ele>1525.17</ele>
        <time>2015-06-28T01:47:52.52Z</time>
      </trkpt>
      <trkpt lat="42.330467" lon="2.185373">
        <ele>1525.67</ele>
        <time>2015-06-28T02:50:08Z</time>
      </trkpt>
      <trkpt lat="42.330481" lon="2.185415">
        <ele>1526.05</ele>
        <time>2015-06-28T03:53:45.89Z</time>
      </trkpt>
      <trkpt lat="42.330498" lon="2.185452">
        <ele>1526.17</ele>
        <time>2015-06-28T04:53:55.93Z</time>
      </trkpt>
      <trkpt lat="42.330509" lon="2.185488">
        <ele>1526.42</ele>
        <time>2015-06-28T05:47:43.96Z</time>
      </trkpt>
      <trkpt lat="42.330515" lon="2.185531">
        <ele>1526.95</ele>
        <time>2015-06-28T06:48:10.20Z</time>
      </trkpt>
      <trkpt lat="42.330524" lon="2.185572">
        <ele>1527.26</ele>
        <time>2015-06-28T07:47:14.40Z</time>
      </trkpt>
      <trkpt lat="42.330538" lon="2.185612">
        <ele>1527.21</ele>
        <time>2015-06-28T08:48:21.85Z</time>
      </trkpt>
      <trkpt lat="42.330553" lon="2.185656">
        <ele>1527.21</ele>
        <time>2015-06-28T09:55:17.05Z</time>
      </trkpt>
      <trkpt lat="42.330561" lon="2.185679">
        <ele>1527.15</ele>
        <time>2015-06-28T10:30:23.43Z</time>
      </trkpt>
      <trkpt lat="42.330570" lon="2.185703">
        <ele>1527.08</ele>
        <time>2015-06-28T11:07:33.50Z</time>
      </trkpt>
      <trkpt lat="42.330578" lon="2.185730">
        <ele>1527.01</ele>
        <time>2015-06-28T11:47:43.96Z</time>
      </trkpt>
      <trkpt lat="42.330585" lon="2.185759">
        <ele>1527.12</ele>
        <time>2015-06-28T12:29:51.98Z</time>
      </trkpt>
      <trkpt lat="42.330592" lon="2.185785">
        <ele>1527.11</ele>
        <time>2015-06-28T13:08:04.98Z</time>
      </trkpt>
      <trkpt lat="42.330614" lon="2.185903">
        <ele>1527.67</ele>
        <time>2015-06-28T15:56:09.57Z</time>
      </trkpt>
      <trkpt lat="42.330645" lon="2.186030">
        <ele>1528.15</ele>
        <time>2015-06-28T19:00:52.63Z</time>
      </trkpt>
      <trkpt lat="42.330689" lon="2.186150">
        <ele>1527.82</ele>
        <time>2015-06-28T22:05:52.71Z</time>
      </trkpt>
      <trkpt lat="42.330732" lon="2.186269">
        <ele>1527.74</ele>
        <time>2015-06-29T01:08:48.93Z</time>
      </trkpt>
      <trkpt lat="42.330788" lon="2.186397">
        <ele>1527.16</ele>
        <time>2015-06-29T04:34:14.26Z</time>
      </trkpt>
      <trkpt lat="42.330859" lon="2.186517">
        <ele>1526.61</ele>
        <time>2015-06-29T08:06:31.06Z</time>
      </trkpt>
      <trkpt lat="42.330926" lon="2.186629">
        <ele>1526.71</ele>
        <time>2015-06-29T11:25:30.26Z</time>
      </trkpt>
      <trkpt lat="42.330997" lon="2.186753">
        <ele>1527.52</ele>
        <time>2015-06-29T15:02:07.48Z</time>
      </trkpt>
      <trkpt lat="42.331045" lon="2.186795">
        <ele>1527.13</ele>
        <time>2015-06-29T16:48:55.54Z</time>
      </trkpt>
      <trkpt lat="42.331114" lon="2.186878">
        <ele>1527.24</ele>
        <time>2015-06-29T19:41:25.85Z</time>
      </trkpt>
      <trkpt lat="42.331160" lon="2.186924">
        <ele>1526.93</ele>
        <time>2015-06-29T21:28:18.20Z</time>
      </trkpt>
      <trkpt lat="42.331181" lon="2.186952">
        <ele>1526.97</ele>
        <time>2015-06-29T22:23:23.48Z</time>
      </trkpt>
      <trkpt lat="42.331204" lon="2.186980">
        <ele>1526.93</ele>
        <time>2015-06-29T23:21:12Z</time>
      </trkpt>
      <trkpt lat="42.331229" lon="2.187006">
        <ele>1526.77</ele>
        <time>2015-06-30T00:20:06.86Z</time>
      </trkpt>
      <trkpt lat="42.331254" lon="2.187031">
        <ele>1526.63</ele>
        <time>2015-06-30T01:18:11.83Z</time>
      </trkpt>
      <trkpt lat="42.331274" lon="2.187065">
        <ele>1526.87</ele>
        <time>2015-06-30T02:18:12.42Z</time>
      </trkpt>
      <trkpt lat="42.331298" lon="2.187096">
        <ele>1526.86</ele>
        <time>2015-06-30T03:20:12.17Z</time>
      </trkpt>
      <trkpt lat="42.331325" lon="2.187126">
        <ele>1526.62</ele>
        <time>2015-06-30T04:25:28.83Z</time>
      </trkpt>
      <trkpt lat="42.331377" lon="2.187195">
        <ele>1526.71</ele>
        <time>2015-06-30T06:41:33.96Z</time>
      </trkpt>
      <trkpt lat="42.331445" lon="2.187295">
        <ele>1526.49</ele>
        <time>2015-06-30T09:49:13.18Z</time>
      </trkpt>
      <trkpt lat="42.331469" lon="2.187323">
        <ele>1526.19</ele>
        <time>2015-06-30T10:48:25.80Z</time>
      </trkpt>
      <trkpt lat="42.331491" lon="2.187353">
        <ele>1526.03</ele>
        <time>2015-06-30T11:46:47.47Z</time>
      </trkpt>
      <trkpt lat="42.331510" lon="2.187386">
        <ele>1526.04</ele>
        <time>2015-06-30T12:44:33.60Z</time>
      </trkpt>
      <trkpt lat="42.331531" lon="2.187416">
        <ele>1525.93</ele>
        <time>2015-06-30T13:41:37.25Z</time>
      </trkpt>
      <trkpt lat="42.331556" lon="2.187447">
        <ele>1525.72</ele>
        <time>2015-06-30T14:44:58.86Z</time>
      </trkpt>
      <trkpt lat="42.331655" lon="2.187534">
        <ele>1524.33</ele>
        <time>2015-06-30T18:25:32.36Z</time>
      </trkpt>
      <trkpt lat="42.331747" lon="2.187631">
        <ele>1523.79</ele>
        <time>2015-06-30T22:03:27.57Z</time>
      </trkpt>
      <trkpt lat="42.331839" lon="2.187721">
        <ele>1523.44</ele>
        <time>2015-07-01T01:35:34.39Z</time>
      </trkpt>
      <trkpt lat="42.331912" lon="2.187834">
        <ele>1524.51</ele>
        <time>2015-07-01T05:02:49.89Z</time>
      </trkpt>
      <trkpt lat="42.331984" lon="2.187931">
        <ele>1525.21</ele>
        <time>2015-07-01T08:12:40.54Z</time>
      </trkpt>
      <trkpt lat="42.332071" lon="2.188002">
        <ele>1524.71</ele>
        <time>2015-07-01T11:22:30.03Z</time>
      </trkpt>
      <trkpt lat="42.332172" lon="2.188068">
        <ele>1523.86</ele>
        <time>2015-07-01T14:52:03.33Z</time>
      </trkpt>
      <trkpt lat="42.332211" lon="2.188158">
        <ele>1525.39</ele>
        <time>2015-07-01T17:16:08.10Z</time>
      </trkpt>
      <trkpt lat="42.332237" lon="2.188195">
        <ele>1525.54</ele>
        <time>2015-07-01T18:26:38.29Z</time>
      </trkpt>
      <trkpt lat="42.332270" lon="2.188213">
        <ele>1524.89</ele>
        <time>2015-07-01T19:33:06.80Z</time>
      </trkpt>
      <trkpt lat="42.332304" lon="2.188236">
        <ele>1524.37</ele>
        <time>2015-07-01T20:44:07.99Z</time>
      </trkpt>
      <trkpt lat="42.332390" lon="2.188340">
        <ele>1524.19</ele>
        <time>2015-07-02T00:19:38.63Z</time>
      </trkpt>
      <trkpt lat="42.332419" lon="2.188376">
        <ele>1524.15</ele>
        <time>2015-07-02T01:33:10.71Z</time>
      </trkpt>
      <trkpt lat="42.332521" lon="2.188466">
        <ele>1523.19</ele>
        <time>2015-07-02T05:20:41.61Z</time>
      </trkpt>
      <trkpt lat="42.332576" lon="2.188546">
        <ele>1523.71</ele>
        <time>2015-07-02T07:51:34.57Z</time>
      </trkpt>
      <trkpt lat="42.332599" lon="2.188591">
        <ele>1524.27</ele>
        <time>2015-07-02T09:07:07.99Z</time>
      </trkpt>
      <trkpt lat="42.332629" lon="2.188630">
        <ele>1524.41</ele>
        <time>2015-07-02T10:24:51.97Z</time>
      </trkpt>
      <trkpt lat="42.332660" lon="2.188664">
        <ele>1524.41</ele>
        <time>2015-07-02T11:39:25.54Z</time>
      </trkpt>
      <trkpt lat="42.332694" lon="2.188692">
        <ele>1524.13</ele>
        <time>2015-07-02T12:53:47.46Z</time>
      </trkpt>
      <trkpt lat="42.332735" lon="2.188713">
        <ele>1523.47</ele>
        <time>2015-07-02T14:15:41.73Z</time>
      </trkpt>
      <trkpt lat="42.332826" lon="2.188755">
        <ele>1521.63</ele>
        <time>2015-07-02T17:15:19.67Z</time>
      </trkpt>
      <trkpt lat="42.332905" lon="2.188830">
        <ele>1521.22</ele>
        <time>2015-07-02T20:15:38.32Z</time>
      </trkpt>
      <trkpt lat="42.332985" lon="2.188899">
        <ele>1520.64</ele>
        <time>2015-07-02T23:12:53.55Z</time>
      </trkpt>
      <trkpt lat="42.333063" lon="2.188969">
        <ele>1520.45</ele>
        <time>2015-07-03T02:07:46.03Z</time>
      </trkpt>
      <trkpt lat="42.333139" lon="2.189036">
        <ele>1520.60</ele>
        <time>2015-07-03T04:57:14.59Z</time>
      </trkpt>
      <trkpt lat="42.333250" lon="2.189128">
        <ele>1520.82</ele>
        <time>2015-07-03T09:00:26.80Z</time>
      </trkpt>
      <trkpt lat="42.333327" lon="2.189261">
        <ele>1523.23</ele>
        <time>2015-07-03T12:53:45.36Z</time>
      </trkpt>
      <trkpt lat="42.333365" lon="2.189287">
        <ele>1522.69</ele>
        <time>2015-07-03T14:13:18.80Z</time>
      </trkpt>
      <trkpt lat="42.333405" lon="2.189307">
        <ele>1521.62</ele>
        <time>2015-07-03T15:32:59.04Z</time>
      </trkpt>
      <trkpt lat="42.333444" lon="2.189330">
        <ele>1520.71</ele>
        <time>2015-07-03T16:52:28.09Z</time>
      </trkpt>
      <trkpt lat="42.333470" lon="2.189377">
        <ele>1521.08</ele>
        <time>2015-07-03T18:13:32.45Z</time>
      </trkpt>
      <trkpt lat="42.333497" lon="2.189426">
        <ele>1521.44</ele>
        <time>2015-07-03T19:37:56.67Z</time>
      </trkpt>
      <trkpt lat="42.333528" lon="2.189470">
        <ele>1521.14</ele>
        <time>2015-07-03T21:01:53.38Z</time>
      </trkpt>
      <trkpt lat="42.333591" lon="2.189567">
        <ele>1520.16</ele>
        <time>2015-07-04T00:00:12.78Z</time>
      </trkpt>
      <trkpt lat="42.333620" lon="2.189724">
        <ele>1521.66</ele>
        <time>2015-07-04T03:43:42.41Z</time>
      </trkpt>
      <trkpt lat="42.333674" lon="2.189891">
        <ele>1522.38</ele>
        <time>2015-07-04T07:55:26.63Z</time>
      </trkpt>
      <trkpt lat="42.333701" lon="2.190008">
        <ele>1523.31</ele>
        <time>2015-07-04T10:44:43.12Z</time>
      </trkpt>
      <trkpt lat="42.333779" lon="2.190121">
        <ele>1520.97</ele>
        <time>2015-07-04T14:18:14.17Z</time>
      </trkpt>
      <trkpt lat="42.333862" lon="2.190224">
        <ele>1518.48</ele>
        <time>2015-07-04T17:48:39.78Z</time>
      </trkpt>
      <trkpt lat="42.333950" lon="2.190354">
        <ele>1518.83</ele>
        <time>2015-07-04T21:52:06.14Z</time>
      </trkpt>
      <trkpt lat="42.334036" lon="2.190495">
        <ele>1521.23</ele>
        <time>2015-07-05T02:04:33.45Z</time>
      </trkpt>
      <trkpt lat="42.334104" lon="2.190644">
        <ele>1524.41</ele>
        <time>2015-07-05T06:06:23.46Z</time>
      </trkpt>
      <trkpt lat="42.334219" lon="2.190704">
        <ele>1523.35</ele>
        <time>2015-07-05T09:56:39.82Z</time>
      </trkpt>
      <trkpt lat="42.334333" lon="2.190774">
        <ele>1522.37</ele>
        <time>2015-07-05T13:50:33.36Z</time>
      </trkpt>
      <trkpt lat="42.334389" lon="2.190866">
        <ele>1523.59</ele>
        <time>2015-07-05T16:35:08.59Z</time>
      </trkpt>
      <trkpt lat="42.334423" lon="2.190902">
        <ele>1523.49</ele>
        <time>2015-07-05T17:55:48.41Z</time>
      </trkpt>
      <trkpt lat="42.334458" lon="2.190939">
        <ele>1523.22</ele>
        <time>2015-07-05T19:18:47.58Z</time>
      </trkpt>
      <trkpt lat="42.334574" lon="2.191036">
        <ele>1521.88</ele>
        <time>2015-07-05T23:33:34.18Z</time>
      </trkpt>
      <trkpt lat="42.334671" lon="2.191162">
        <ele>1521.95</ele>
        <time>2015-07-06T03:44:48.41Z</time>
      </trkpt>
      <trkpt lat="42.334762" lon="2.191290">
        <ele>1522.40</ele>
        <time>2015-07-06T07:50:03.95Z</time>
      </trkpt>
      <trkpt lat="42.334866" lon="2.191396">
        <ele>1521.56</ele>
        <time>2015-07-06T11:53:20.25Z</time>
      </trkpt>
      <trkpt lat="42.334969" lon="2.191510">
        <ele>1521.06</ele>
        <time>2015-07-06T16:01:57.87Z</time>
      </trkpt>
      <trkpt lat="42.335026" lon="2.191615">
        <ele>1522.11</ele>
        <time>2015-07-06T19:01:52.45Z</time>
      </trkpt>
      <trkpt lat="42.335087" lon="2.191708">
        <ele>1522.71</ele>
        <time>2015-07-06T21:53:34.86Z</time>
      </trkpt>
      <trkpt lat="42.335193" lon="2.191815">
        <ele>1522.32</ele>
        <time>2015-07-07T02:00:40.21Z</time>
      </trkpt>
      <trkpt lat="42.335283" lon="2.191936">
        <ele>1522.90</ele>
        <time>2015-07-07T05:57:43.55Z</time>
      </trkpt>
      <trkpt lat="42.335374" lon="2.192037">
        <ele>1524.07</ele>
        <time>2015-07-07T09:37:37.94Z</time>
      </trkpt>
      <trkpt lat="42.335454" lon="2.192150">
        <ele>1525.53</ele>
        <time>2015-07-07T13:13:42.85Z</time>
      </trkpt>
      <trkpt lat="42.335550" lon="2.192230">
        <ele>1526.24</ele>
        <time>2015-07-07T16:44:21.77Z</time>
      </trkpt>
      <trkpt lat="42.335570" lon="2.192240">
        <ele>1526.27</ele>
        <time>2015-07-07T17:24:11.88Z</time>
      </trkpt>
      <trkpt lat="42.335508" lon="2.192136">
        <ele>1524.75</ele>
        <time>2015-07-07T20:28:42.69Z</time>
      </trkpt>
      <trkpt lat="42.335569" lon="2.191994">
        <ele>1521.07</ele>
        <time>2015-07-08T00:15:31.54Z</time>
      </trkpt>
      <trkpt lat="42.335645" lon="2.191927">
        <ele>1518.90</ele>
        <time>2015-07-08T03:04:59.99Z</time>
      </trkpt>
      <trkpt lat="42.335619" lon="2.191754">
        <ele>1513.93</ele>
        <time>2015-07-08T07:08:48.26Z</time>
      </trkpt>
      <trkpt lat="42.335554" lon="2.191638">
        <ele>1511.02</ele>
        <time>2015-07-08T10:29:49.61Z</time>
      </trkpt>
      <trkpt lat="42.335449" lon="2.191484">
        <ele>1508.41</ele>
        <time>2015-07-08T15:19:09.46Z</time>
      </trkpt>
      <trkpt lat="42.335350" lon="2.191286">
        <ele>1505.67</ele>
        <time>2015-07-08T20:49:16.70Z</time>
      </trkpt>
      <trkpt lat="42.335272" lon="2.191134">
        <ele>1503.89</ele>
        <time>2015-07-09T01:04:49Z</time>
      </trkpt>
      <trkpt lat="42.335183" lon="2.191002">
        <ele>1502.35</ele>
        <time>2015-07-09T05:11:33.13Z</time>
      </trkpt>
      <trkpt lat="42.335112" lon="2.190878">
        <ele>1500.74</ele>
        <time>2015-07-09T08:48:09.81Z</time>
      </trkpt>
      <trkpt lat="42.335054" lon="2.190721">
        <ele>1497.58</ele>
        <time>2015-07-09T12:50:33.25Z</time>
      </trkpt>
      <trkpt lat="42.334963" lon="2.190585">
        <ele>1496.06</ele>
        <time>2015-07-09T17:03:53.49Z</time>
      </trkpt>
      <trkpt lat="42.334872" lon="2.190440">
        <ele>1493.65</ele>
        <time>2015-07-09T21:26:34.58Z</time>
      </trkpt>
      <trkpt lat="42.334791" lon="2.190297">
        <ele>1490.22</ele>
        <time>2015-07-10T01:35:22.60Z</time>
      </trkpt>
      <trkpt lat="42.334699" lon="2.190153">
        <ele>1488.13</ele>
        <time>2015-07-10T05:58:13.71Z</time>
      </trkpt>
      <trkpt lat="42.334651" lon="2.189957">
        <ele>1483.45</ele>
        <time>2015-07-10T10:43:22.83Z</time>
      </trkpt>
      <trkpt lat="42.334601" lon="2.189764">
        <ele>1478.41</ele>
        <time>2015-07-10T15:25:48.98Z</time>
      </trkpt>
      <trkpt lat="42.334562" lon="2.189609">
        <ele>1474.41</ele>
        <time>2015-07-10T19:11:56.31Z</time>
      </trkpt>
      <trkpt lat="42.334539" lon="2.189479">
        <ele>1470.76</ele>
        <time>2015-07-10T22:16:32.69Z</time>
      </trkpt>
      <trkpt lat="42.334523" lon="2.189355">
        <ele>1467.34</ele>
        <time>2015-07-11T01:10:23.02Z</time>
      </trkpt>
      <trkpt lat="42.334487" lon="2.189187">
        <ele>1463.24</ele>
        <time>2015-07-11T05:11:57.06Z</time>
      </trkpt>
      <trkpt lat="42.334443" lon="2.189055">
        <ele>1461.40</ele>
        <time>2015-07-11T08:31:55.54Z</time>
      </trkpt>
      <trkpt lat="42.334449" lon="2.188914">
        <ele>1457.43</ele>
        <time>2015-07-11T11:46:58.54Z</time>
      </trkpt>
      <trkpt lat="42.334462" lon="2.188758">
        <ele>1453.93</ele>
        <time>2015-07-11T15:23:47.02Z</time>
      </trkpt>
      <trkpt lat="42.334477" lon="2.188596">
        <ele>1450.45</ele>
        <time>2015-07-11T19:09:15.69Z</time>
      </trkpt>
      <trkpt lat="42.334478" lon="2.188463">
        <ele>1447.54</ele>
        <time>2015-07-11T22:12:57.01Z</time>
      </trkpt>
      <trkpt lat="42.334484" lon="2.188316">
        <ele>1444.27</ele>
        <time>2015-07-12T01:36:16.39Z</time>
      </trkpt>
      <trkpt lat="42.334491" lon="2.188158">
        <ele>1440.59</ele>
        <time>2015-07-12T05:14:52.21Z</time>
      </trkpt>
      <trkpt lat="42.334479" lon="2.187989">
        <ele>1437.31</ele>
        <time>2015-07-12T09:09:20.47Z</time>
      </trkpt>
      <trkpt lat="42.334483" lon="2.187857">
        <ele>1434.31</ele>
        <time>2015-07-12T12:11:47.55Z</time>
      </trkpt>
      <trkpt lat="42.334463" lon="2.187726">
        <ele>1432.26</ele>
        <time>2015-07-12T15:16:31.67Z</time>
      </trkpt>
      <trkpt lat="42.334462" lon="2.187518">
        <ele>1427.82</ele>
        <time>2015-07-12T20:03:47.50Z</time>
      </trkpt>
      <trkpt lat="42.334460" lon="2.187350">
        <ele>1423.16</ele>
        <time>2015-07-12T23:55:50.26Z</time>
      </trkpt>
      <trkpt lat="42.334410" lon="2.187177">
        <ele>1419.35</ele>
        <time>2015-07-13T04:12:22.23Z</time>
      </trkpt>
      <trkpt lat="42.334349" lon="2.187057">
        <ele>1416.31</ele>
        <time>2015-07-13T07:33:29.91Z</time>
      </trkpt>
      <trkpt lat="42.334284" lon="2.186952">
        <ele>1413.97</ele>
        <time>2015-07-13T10:42:38.39Z</time>
      </trkpt>
      <trkpt lat="42.334237" lon="2.186834">
        <ele>1410.64</ele>
        <time>2015-07-13T13:47:45.26Z</time>
      </trkpt>
      <trkpt lat="42.334141" lon="2.186718">
        <ele>1409.03</ele>
        <time>2015-07-13T17:48:14.14Z</time>
      </trkpt>
      <trkpt lat="42.334058" lon="2.186626">
        <ele>1408.55</ele>
        <time>2015-07-13T21:08:42.33Z</time>
      </trkpt>
      <trkpt lat="42.334002" lon="2.186509">
        <ele>1405.36</ele>
        <time>2015-07-14T00:21:12.11Z</time>
      </trkpt>
      <trkpt lat="42.333951" lon="2.186322">
        <ele>1398.12</ele>
        <time>2015-07-14T04:56:28.50Z</time>
      </trkpt>
      <trkpt lat="42.333871" lon="2.186170">
        <ele>1393.31</ele>
        <time>2015-07-14T09:14:09.97Z</time>
      </trkpt>
      <trkpt lat="42.333749" lon="2.186009">
        <ele>1389.16</ele>
        <time>2015-07-14T14:32:35Z</time>
      </trkpt>
      <trkpt lat="42.333673" lon="2.185936">
        <ele>1387.58</ele>
        <time>2015-07-14T17:26:43.30Z</time>
      </trkpt>
      <trkpt lat="42.333581" lon="2.185812">
        <ele>1383.62</ele>
        <time>2015-07-14T21:29:21.08Z</time>
      </trkpt>
      <trkpt lat="42.333486" lon="2.185681">
        <ele>1379.42</ele>
        <time>2015-07-15T01:42:47.49Z</time>
      </trkpt>
      <trkpt lat="42.333375" lon="2.185559">
        <ele>1377.56</ele>
        <time>2015-07-15T06:09:59.17Z</time>
      </trkpt>
      <trkpt lat="42.333264" lon="2.185436">
        <ele>1385.37</ele>
        <time>2015-07-15T10:38:03.24Z</time>
      </trkpt>
      <trkpt lat="42.333298" lon="2.185278">
        <ele>1385.51</ele>
        <time>2015-07-15T14:25:19.25Z</time>
      </trkpt>
      <trkpt lat="42.333389" lon="2.185154">
        <ele>1380.56</ele>
        <time>2015-07-15T18:26:37.87Z</time>
      </trkpt>
      <trkpt lat="42.333453" lon="2.185046">
        <ele>1377.69</ele>
        <time>2015-07-15T21:37:47.70Z</time>
      </trkpt>
      <trkpt lat="42.333417" lon="2.184917">
        <ele>1381.16</ele>
        <time>2015-07-16T00:48:13.52Z</time>
      </trkpt>
      <trkpt lat="42.333415" lon="2.184793">
        <ele>1381.93</ele>
        <time>2015-07-16T03:39:31.12Z</time>
      </trkpt>
      <trkpt lat="42.333446" lon="2.184656">
        <ele>1380.81</ele>
        <time>2015-07-16T06:57:23.44Z</time>
      </trkpt>
      <trkpt lat="42.333476" lon="2.184518">
        <ele>1379.92</ele>
        <time>2015-07-16T10:16:02.90Z</time>
      </trkpt>
      <trkpt lat="42.333489" lon="2.184368">
        <ele>1379.26</ele>
        <time>2015-07-16T13:44:37.64Z</time>
      </trkpt>
      <trkpt lat="42.333492" lon="2.184228">
        <ele>1378.15</ele>
        <time>2015-07-16T16:58:03.49Z</time>
      </trkpt>
      <trkpt lat="42.333485" lon="2.184106">
        <ele>1377.38</ele>
        <time>2015-07-16T19:47:03.32Z</time>
      </trkpt>
      <trkpt lat="42.333458" lon="2.183951">
        <ele>1376.22</ele>
        <time>2015-07-16T23:26:59.03Z</time>
      </trkpt>
      <trkpt lat="42.333378" lon="2.183816">
        <ele>1375.99</ele>
        <time>2015-07-17T03:25:56.32Z</time>
      </trkpt>
      <trkpt lat="42.333332" lon="2.183709">
        <ele>1374.53</ele>
        <time>2015-07-17T06:16:53.13Z</time>
      </trkpt>
      <trkpt lat="42.333268" lon="2.183555">
        <ele>1373.44</ele>
        <time>2015-07-17T10:20:52.54Z</time>
      </trkpt>
      <trkpt lat="42.333222" lon="2.183389">
        <ele>1371.63</ele>
        <time>2015-07-17T14:25:42.72Z</time>
      </trkpt>
      <trkpt lat="42.333186" lon="2.183223">
        <ele>1369.19</ele>
        <time>2015-07-17T18:24:37.93Z</time>
      </trkpt>
      <trkpt lat="42.333171" lon="2.183071">
        <ele>1365.81</ele>
        <time>2015-07-17T21:56:25.07Z</time>
      </trkpt>
      <trkpt lat="42.333143" lon="2.182927">
        <ele>1363.91</ele>
        <time>2015-07-18T01:22:03.44Z</time>
      </trkpt>
      <trkpt lat="42.333090" lon="2.182780">
        <ele>1362.85</ele>
        <time>2015-07-18T05:07:56.09Z</time>
      </trkpt>
      <trkpt lat="42.333046" lon="2.182624">
        <ele>1361.05</ele>
        <time>2015-07-18T08:58:31.93Z</time>
      </trkpt>
      <trkpt lat="42.332989" lon="2.182460">
        <ele>1359.04</ele>
        <time>2015-07-18T13:08:48.82Z</time>
      </trkpt>
      <trkpt lat="42.332924" lon="2.182331">
        <ele>1357.46</ele>
        <time>2015-07-18T16:44:25.36Z</time>
      </trkpt>
      <trkpt lat="42.332888" lon="2.182215">
        <ele>1355.23</ele>
        <time>2015-07-18T19:38:10.38Z</time>
      </trkpt>
      <trkpt lat="42.332832" lon="2.182090">
        <ele>1353.07</ele>
        <time>2015-07-18T23:00:02.14Z</time>
      </trkpt>
      <trkpt lat="42.332774" lon="2.181937">
        <ele>1350.07</ele>
        <time>2015-07-19T02:57:30.27Z</time>
      </trkpt>
      <trkpt lat="42.332723" lon="2.181787">
        <ele>1348.77</ele>
        <time>2015-07-19T06:45:31.67Z</time>
      </trkpt>
      <trkpt lat="42.332677" lon="2.181617">
        <ele>1346.58</ele>
        <time>2015-07-19T10:55:32.78Z</time>
      </trkpt>
      <trkpt lat="42.332638" lon="2.181437">
        <ele>1343.71</ele>
        <time>2015-07-19T15:14:35.97Z</time>
      </trkpt>
      <trkpt lat="42.332581" lon="2.181292">
        <ele>1341.12</ele>
        <time>2015-07-19T19:01:24.62Z</time>
      </trkpt>
      <trkpt lat="42.332527" lon="2.181156">
        <ele>1338.51</ele>
        <time>2015-07-19T22:34:37.02Z</time>
      </trkpt>
      <trkpt lat="42.332455" lon="2.181028">
        <ele>1337.48</ele>
        <time>2015-07-20T02:16:45.22Z</time>
      </trkpt>
      <trkpt lat="42.332377" lon="2.180870">
        <ele>1336.40</ele>
        <time>2015-07-20T06:39:08.98Z</time>
      </trkpt>
      <trkpt lat="42.332318" lon="2.180737">
        <ele>1335.58</ele>
        <time>2015-07-20T10:13:22.16Z</time>
      </trkpt>
      <trkpt lat="42.332278" lon="2.180615">
        <ele>1334.31</ele>
        <time>2015-07-20T13:17:41.47Z</time>
      </trkpt>
      <trkpt lat="42.332216" lon="2.180483">
        <ele>1334.01</ele>
        <time>2015-07-20T16:53:40.87Z</time>
      </trkpt>
      <trkpt lat="42.332187" lon="2.180358">
        <ele>1333.36</ele>
        <time>2015-07-20T19:54:37.21Z</time>
      </trkpt>
      <trkpt lat="42.332169" lon="2.180232">
        <ele>1332.22</ele>
        <time>2015-07-20T22:51:51.47Z</time>
      </trkpt>
      <trkpt lat="42.332150" lon="2.180102">
        <ele>1331.23</ele>
        <time>2015-07-21T01:54:52.55Z</time>
      </trkpt>
      <trkpt lat="42.332126" lon="2.179968">
        <ele>1330.42</ele>
        <time>2015-07-21T05:05:17.83Z</time>
      </trkpt>
      <trkpt lat="42.332091" lon="2.179814">
        <ele>1329.91</ele>
        <time>2015-07-21T08:47:48.64Z</time>
      </trkpt>
      <trkpt lat="42.332068" lon="2.179665">
        <ele>1328.92</ele>
        <time>2015-07-21T12:18:01.97Z</time>
      </trkpt>
      <trkpt lat="42.332043" lon="2.179532">
        <ele>1328.11</ele>
        <time>2015-07-21T15:27:33.84Z</time>
      </trkpt>
      <trkpt lat="42.332012" lon="2.179400">
        <ele>1327.45</ele>
        <time>2015-07-21T18:38:50.85Z</time>
      </trkpt>
      <trkpt lat="42.331971" lon="2.179271">
        <ele>1327.47</ele>
        <time>2015-07-21T21:52:46.66Z</time>
      </trkpt>
      <trkpt lat="42.331919" lon="2.179058">
        <ele>1325.32</ele>
        <time>2015-07-22T03:02:34.72Z</time>
      </trkpt>
      <trkpt lat="42.331863" lon="2.178844">
        <ele>1321.52</ele>
        <time>2015-07-22T08:16:06.32Z</time>
      </trkpt>
      <trkpt lat="42.331755" lon="2.178725">
        <ele>1320.28</ele>
        <time>2015-07-22T12:36:20.42Z</time>
      </trkpt>
      <trkpt lat="42.331649" lon="2.178637">
        <ele>1319.31</ele>
        <time>2015-07-22T16:28:41.65Z</time>
      </trkpt>
      <trkpt lat="42.331538" lon="2.178509">
        <ele>1318.85</ele>
        <time>2015-07-22T21:01:11.61Z</time>
      </trkpt>
      <trkpt lat="42.331496" lon="2.178362">
        <ele>1316.86</ele>
        <time>2015-07-23T00:38:51.14Z</time>
      </trkpt>
      <trkpt lat="42.331413" lon="2.178201">
        <ele>1315.85</ele>
        <time>2015-07-23T05:09:56.37Z</time>
      </trkpt>
      <trkpt lat="42.331342" lon="2.178019">
        <ele>1313.40</ele>
        <time>2015-07-23T09:54:09.24Z</time>
      </trkpt>
      <trkpt lat="42.331260" lon="2.177847">
        <ele>1310.82</ele>
        <time>2015-07-23T14:36:49.16Z</time>
      </trkpt>
      <trkpt lat="42.331162" lon="2.177663">
        <ele>1308.81</ele>
        <time>2015-07-23T19:50:01.79Z</time>
      </trkpt>
      <trkpt lat="42.331112" lon="2.177561">
        <ele>1307.77</ele>
        <time>2015-07-23T22:39:03.61Z</time>
      </trkpt>
      <trkpt lat="42.331016" lon="2.177389">
        <ele>1305.16</ele>
        <time>2015-07-24T03:36:42.86Z</time>
      </trkpt>
      <trkpt lat="42.330936" lon="2.177273">
        <ele>1303.75</ele>
        <time>2015-07-24T07:15:48.92Z</time>
      </trkpt>
      <trkpt lat="42.330875" lon="2.177163">
        <ele>1301.90</ele>
        <time>2015-07-24T10:25:43.90Z</time>
      </trkpt>
      <trkpt lat="42.330797" lon="2.177097">
        <ele>1301.64</ele>
        <time>2015-07-24T13:17:36.94Z</time>
      </trkpt>
      <trkpt lat="42.330699" lon="2.176988">
        <ele>1299.86</ele>
        <time>2015-07-24T17:14:38.83Z</time>
      </trkpt>
      <trkpt lat="42.330603" lon="2.176917">
        <ele>1299.11</ele>
        <time>2015-07-24T20:39:03.28Z</time>
      </trkpt>
      <trkpt lat="42.330495" lon="2.176801">
        <ele>1295.97</ele>
        <time>2015-07-25T00:56:41.70Z</time>
      </trkpt>
      <trkpt lat="42.330380" lon="2.176706">
        <ele>1293.42</ele>
        <time>2015-07-25T05:08:26.29Z</time>
      </trkpt>
      <trkpt lat="42.330208" lon="2.176630">
        <ele>1291.49</ele>
        <time>2015-07-25T10:46:29.03Z</time>
      </trkpt>
      <trkpt lat="42.330072" lon="2.176527">
        <ele>1287.32</ele>
        <time>2015-07-25T15:37:40.65Z</time>
      </trkpt>
      <trkpt lat="42.329964" lon="2.176481">
        <ele>1285.61</ele>
        <time>2015-07-25T19:09:12.78Z</time>
      </trkpt>
      <trkpt lat="42.329840" lon="2.176451">
        <ele>1284.59</ele>
        <time>2015-07-25T23:04:33.01Z</time>
      </trkpt>
      <trkpt lat="42.329725" lon="2.176405">
        <ele>1282.69</ele>
        <time>2015-07-26T02:48:35.63Z</time>
      </trkpt>
      <trkpt lat="42.329572" lon="2.176368">
        <ele>1279.42</ele>
        <time>2015-07-26T07:38:57.95Z</time>
      </trkpt>
      <trkpt lat="42.329444" lon="2.176368">
        <ele>1278.18</ele>
        <time>2015-07-26T11:38:05.98Z</time>
      </trkpt>
      <trkpt lat="42.329322" lon="2.176379">
        <ele>1277.30</ele>
        <time>2015-07-26T15:26:31.80Z</time>
      </trkpt>
      <trkpt lat="42.329206" lon="2.176397">
        <ele>1276.86</ele>
        <time>2015-07-26T19:04:39.98Z</time>
      </trkpt>
      <trkpt lat="42.329080" lon="2.176389">
        <ele>1274.48</ele>
        <time>2015-07-26T23:00:19.38Z</time>
      </trkpt>
      <trkpt lat="42.328962" lon="2.176377">
        <ele>1271.83</ele>
        <time>2015-07-27T02:41:23.80Z</time>
      </trkpt>
      <trkpt lat="42.328817" lon="2.176379">
        <ele>1269.85</ele>
        <time>2015-07-27T07:12:18.27Z</time>
      </trkpt>
      <trkpt lat="42.328685" lon="2.176376">
        <ele>1268.35</ele>
        <time>2015-07-27T11:18:56.77Z</time>
      </trkpt>
      <trkpt lat="42.328567" lon="2.176329">
        <ele>1265.21</ele>
        <time>2015-07-27T15:08:45.40Z</time>
      </trkpt>
      <trkpt lat="42.328455" lon="2.176290">
        <ele>1262.41</ele>
        <time>2015-07-27T18:44:49.26Z</time>
      </trkpt>
      <trkpt lat="42.328290" lon="2.176250">
        <ele>1259.39</ele>
        <time>2015-07-27T23:57:59.48Z</time>
      </trkpt>
      <trkpt lat="42.328115" lon="2.176240">
        <ele>1258.07</ele>
        <time>2015-07-28T05:25:13.42Z</time>
      </trkpt>
      <trkpt lat="42.327972" lon="2.176217">
        <ele>1256.88</ele>
        <time>2015-07-28T09:54:15.79Z</time>
      </trkpt>
      <trkpt lat="42.327860" lon="2.176200">
        <ele>1256.29</ele>
        <time>2015-07-28T13:24:49.12Z</time>
      </trkpt>
      <trkpt lat="42.327735" lon="2.176186">
        <ele>1255.73</ele>
        <time>2015-07-28T17:19:08.82Z</time>
      </trkpt>
      <trkpt lat="42.327618" lon="2.176150">
        <ele>1254.60</ele>
        <time>2015-07-28T21:03:18.87Z</time>
      </trkpt>
      <trkpt lat="42.327476" lon="2.176127">
        <ele>1253.58</ele>
        <time>2015-07-29T01:30:29.93Z</time>
      </trkpt>
      <trkpt lat="42.327364" lon="2.176105">
        <ele>1251.83</ele>
        <time>2015-07-29T05:01:56.15Z</time>
      </trkpt>
      <trkpt lat="42.327239" lon="2.176088">
        <ele>1250.38</ele>
        <time>2015-07-29T08:56:38.55Z</time>
      </trkpt>
      <trkpt lat="42.327125" lon="2.176094">
        <ele>1249.06</ele>
        <time>2015-07-29T12:29:46.94Z</time>
      </trkpt>
      <trkpt lat="42.326989" lon="2.176100">
        <ele>1247.23</ele>
        <time>2015-07-29T16:43:59.83Z</time>
      </trkpt>
      <trkpt lat="42.326845" lon="2.176124">
        <ele>1245.01</ele>
        <time>2015-07-29T21:15:03.45Z</time>
      </trkpt>
      <trkpt lat="42.326727" lon="2.176146">
        <ele>1243.07</ele>
        <time>2015-07-30T00:57:35.60Z</time>
      </trkpt>
      <trkpt lat="42.326637" lon="2.176210">
        <ele>1243.43</ele>
        <time>2015-07-30T04:07:33.33Z</time>
      </trkpt>
      <trkpt lat="42.326589" lon="2.176236">
        <ele>1243.15</ele>
        <time>2015-07-30T05:44:09.24Z</time>
      </trkpt>
      <trkpt lat="42.326538" lon="2.176256">
        <ele>1242.65</ele>
        <time>2015-07-30T07:23:21.46Z</time>
      </trkpt>
      <trkpt lat="42.326489" lon="2.176272">
        <ele>1241.96</ele>
        <time>2015-07-30T08:57:31.86Z</time>
      </trkpt>
      <trkpt lat="42.326444" lon="2.176304">
        <ele>1242.26</ele>
        <time>2015-07-30T10:32:30.72Z</time>
      </trkpt>
      <trkpt lat="42.326394" lon="2.176335">
        <ele>1242.48</ele>
        <time>2015-07-30T12:15:16.18Z</time>
      </trkpt>
      <trkpt lat="42.326343" lon="2.176350">
        <ele>1242.48</ele>
        <time>2015-07-30T13:52:46.57Z</time>
      </trkpt>
      <trkpt lat="42.326295" lon="2.176361">
        <ele>1242.39</ele>
        <time>2015-07-30T15:23:43.76Z</time>
      </trkpt>
      <trkpt lat="42.326253" lon="2.176371">
        <ele>1242.28</ele>
        <time>2015-07-30T16:43:24.09Z</time>
      </trkpt>
      <trkpt lat="42.326213" lon="2.176388">
        <ele>1242.42</ele>
        <time>2015-07-30T18:01:43.98Z</time>
      </trkpt>
      <trkpt lat="42.326123" lon="2.176425">
        <ele>1242.71</ele>
        <time>2015-07-30T20:57:28.15Z</time>
      </trkpt>
      <trkpt lat="42.326028" lon="2.176455">
        <ele>1242.75</ele>
        <time>2015-07-30T23:59:43.46Z</time>
      </trkpt>
      <trkpt lat="42.325895" lon="2.176460">
        <ele>1241.25</ele>
        <time>2015-07-31T04:08:17.72Z</time>
      </trkpt>
      <trkpt lat="42.325793" lon="2.176467">
        <ele>1239.93</ele>
        <time>2015-07-31T07:19:06.01Z</time>
      </trkpt>
      <trkpt lat="42.325698" lon="2.176453">
        <ele>1237.54</ele>
        <time>2015-07-31T10:17:37.96Z</time>
      </trkpt>
      <trkpt lat="42.325668" lon="2.176444">
        <ele>1236.55</ele>
        <time>2015-07-31T11:15:02.51Z</time>
      </trkpt>
      <trkpt lat="42.325646" lon="2.176434">
        <ele>1235.61</ele>
        <time>2015-07-31T11:58:24.10Z</time>
      </trkpt>
      <trkpt lat="42.325528" lon="2.176419">
        <ele>1233.17</ele>
        <time>2015-07-31T15:39:49.48Z</time>
      </trkpt>
      <trkpt lat="42.325430" lon="2.176460">
        <ele>1234.32</ele>
        <time>2015-07-31T18:51:28.19Z</time>
      </trkpt>
      <trkpt lat="42.325333" lon="2.176502">
        <ele>1235.67</ele>
        <time>2015-07-31T22:01:44.86Z</time>
      </trkpt>
      <trkpt lat="42.325289" lon="2.176464">
        <ele>1233.68</ele>
        <time>2015-07-31T23:39:16.67Z</time>
      </trkpt>
      <trkpt lat="42.325239" lon="2.176419">
        <ele>1231.71</ele>
        <time>2015-08-01T01:31:28.75Z</time>
      </trkpt>
      <trkpt lat="42.325185" lon="2.176379">
        <ele>1230.31</ele>
        <time>2015-08-01T03:26:30.13Z</time>
      </trkpt>
      <trkpt lat="42.325132" lon="2.176347">
        <ele>1229.54</ele>
        <time>2015-08-01T05:14:56.15Z</time>
      </trkpt>
      <trkpt lat="42.325080" lon="2.176312">
        <ele>1228.64</ele>
        <time>2015-08-01T07:03:26.88Z</time>
      </trkpt>
      <trkpt lat="42.325029" lon="2.176270">
        <ele>1227.53</ele>
        <time>2015-08-01T08:54:59.97Z</time>
      </trkpt>
      <trkpt lat="42.324987" lon="2.176225">
        <ele>1226.18</ele>
        <time>2015-08-01T10:35:06.06Z</time>
      </trkpt>
      <trkpt lat="42.324966" lon="2.176199">
        <ele>1225.26</ele>
        <time>2015-08-01T11:28:17.33Z</time>
      </trkpt>
      <trkpt lat="42.324985" lon="2.176218">
        <ele>1226.00</ele>
        <time>2015-08-01T12:12:26Z</time>
      </trkpt>
      <trkpt lat="42.324995" lon="2.176248">
        <ele>1226.93</ele>
        <time>2015-08-01T12:57:53.26Z</time>
      </trkpt>
      <trkpt lat="42.325010" lon="2.176280">
        <ele>1228.02</ele>
        <time>2015-08-01T13:50:13.37Z</time>
      </trkpt>
      <trkpt lat="42.325026" lon="2.176313">
        <ele>1229.16</ele>
        <time>2015-08-01T14:44:43.89Z</time>
      </trkpt>
      <trkpt lat="42.325025" lon="2.176348">
        <ele>1230.30</ele>
        <time>2015-08-01T15:33:06.68Z</time>
      </trkpt>
      <trkpt lat="42.325003" lon="2.176353">
        <ele>1230.72</ele>
        <time>2015-08-01T16:14:47.32Z</time>
      </trkpt>
      <trkpt lat="42.324983" lon="2.176336">
        <ele>1230.11</ele>
        <time>2015-08-01T16:58:55.15Z</time>
      </trkpt>
      <trkpt lat="42.324957" lon="2.176319">
        <ele>1229.68</ele>
        <time>2015-08-01T17:52:52.27Z</time>
      </trkpt>
      <trkpt lat="42.324926" lon="2.176297">
        <ele>1228.99</ele>
        <time>2015-08-01T18:58:16.46Z</time>
      </trkpt>
      <trkpt lat="42.324892" lon="2.176272">
        <ele>1228.01</ele>
        <time>2015-08-01T20:10:34.42Z</time>
      </trkpt>
      <trkpt lat="42.324861" lon="2.176252">
        <ele>1227.40</ele>
        <time>2015-08-01T21:14:44.41Z</time>
      </trkpt>
      <trkpt lat="42.324824" lon="2.176241">
        <ele>1227.01</ele>
        <time>2015-08-01T22:25:30.89Z</time>
      </trkpt>
      <trkpt lat="42.324788" lon="2.176230">
        <ele>1226.62</ele>
        <time>2015-08-01T23:34:27.97Z</time>
      </trkpt>
      <trkpt lat="42.324750" lon="2.176221">
        <ele>1226.33</ele>
        <time>2015-08-02T00:46:32.35Z</time>
      </trkpt>
      <trkpt lat="42.324707" lon="2.176212">
        <ele>1226.08</ele>
        <time>2015-08-02T02:07:49.76Z</time>
      </trkpt>
      <trkpt lat="42.324667" lon="2.176207">
        <ele>1225.75</ele>
        <time>2015-08-02T03:22:52.63Z</time>
      </trkpt>
      <trkpt lat="42.324625" lon="2.176206">
        <ele>1225.60</ele>
        <time>2015-08-02T04:41:21.31Z</time>
      </trkpt>
      <trkpt lat="42.324532" lon="2.176191">
        <ele>1225.01</ele>
        <time>2015-08-02T07:36:19.91Z</time>
      </trkpt>
      <trkpt lat="42.324413" lon="2.176198">
        <ele>1225.11</ele>
        <time>2015-08-02T11:18:51.71Z</time>
      </trkpt>
      <trkpt lat="42.324313" lon="2.176192">
        <ele>1224.88</ele>
        <time>2015-08-02T14:25:52.13Z</time>
      </trkpt>
      <trkpt lat="42.324188" lon="2.176135">
        <ele>1222.83</ele>
        <time>2015-08-02T18:32:18.78Z</time>
      </trkpt>
      <trkpt lat="42.324040" lon="2.176038">
        <ele>1219.24</ele>
        <time>2015-08-02T23:39:33.82Z</time>
      </trkpt>
      <trkpt lat="42.323882" lon="2.175944">
        <ele>1216.25</ele>
        <time>2015-08-03T05:02:02.33Z</time>
      </trkpt>
      <trkpt lat="42.323745" lon="2.175844">
        <ele>1213.34</ele>
        <time>2015-08-03T09:52:52.82Z</time>
      </trkpt>
      <trkpt lat="42.323618" lon="2.175784">
        <ele>1211.82</ele>
        <time>2015-08-03T14:04:12.24Z</time>
      </trkpt>
      <trkpt lat="42.323486" lon="2.175707">
        <ele>1210.34</ele>
        <time>2015-08-03T18:32:46.14Z</time>
      </trkpt>
      <trkpt lat="42.323362" lon="2.175663">
        <ele>1209.65</ele>
        <time>2015-08-03T22:32:16.18Z</time>
      </trkpt>
      <trkpt lat="42.323230" lon="2.175632">
        <ele>1208.87</ele>
        <time>2015-08-04T02:42:33.99Z</time>
      </trkpt>
      <trkpt lat="42.323165" lon="2.175626">
        <ele>1208.58</ele>
        <time>2015-08-04T04:44:17.05Z</time>
      </trkpt>
      <trkpt lat="42.323099" lon="2.175623">
        <ele>1208.32</ele>
        <time>2015-08-04T06:47:39.43Z</time>
      </trkpt>
      <trkpt lat="42.323025" lon="2.175619">
        <ele>1208.01</ele>
        <time>2015-08-04T09:06:01.01Z</time>
      </trkpt>
      <trkpt lat="42.322968" lon="2.175625">
        <ele>1208.20</ele>
        <time>2015-08-04T10:52:49.69Z</time>
      </trkpt>
      <trkpt lat="42.322915" lon="2.175637">
        <ele>1208.45</ele>
        <time>2015-08-04T12:33:13.34Z</time>
      </trkpt>
      <trkpt lat="42.322870" lon="2.175658">
        <ele>1209.19</ele>
        <time>2015-08-04T14:02:09.39Z</time>
      </trkpt>
      <trkpt lat="42.322835" lon="2.175673">
        <ele>1209.74</ele>
        <time>2015-08-04T15:10:44.93Z</time>
      </trkpt>
      <trkpt lat="42.322800" lon="2.175680">
        <ele>1209.93</ele>
        <time>2015-08-04T16:16:50.88Z</time>
      </trkpt>
      <trkpt lat="42.322756" lon="2.175676">
        <ele>1209.77</ele>
        <time>2015-08-04T17:39:14.15Z</time>
      </trkpt>
      <trkpt lat="42.322699" lon="2.175671">
        <ele>1209.43</ele>
        <time>2015-08-04T19:25:56.93Z</time>
      </trkpt>
      <trkpt lat="42.322646" lon="2.175657">
        <ele>1208.80</ele>
        <time>2015-08-04T21:06:50.16Z</time>
      </trkpt>
      <trkpt lat="42.322594" lon="2.175641">
        <ele>1207.97</ele>
        <time>2015-08-04T22:46:27.98Z</time>
      </trkpt>
      <trkpt lat="42.322537" lon="2.175626">
        <ele>1207.14</ele>
        <time>2015-08-05T00:34:57.16Z</time>
      </trkpt>
      <trkpt lat="42.322480" lon="2.175609">
        <ele>1205.92</ele>
        <time>2015-08-05T02:24:00.01Z</time>
      </trkpt>
      <trkpt lat="42.322429" lon="2.175595">
        <ele>1204.21</ele>
        <time>2015-08-05T04:01:13.37Z</time>
      </trkpt>
      <trkpt lat="42.322369" lon="2.175581">
        <ele>1202.41</ele>
        <time>2015-08-05T05:54:58.36Z</time>
      </trkpt>
      <trkpt lat="42.322306" lon="2.175569">
        <ele>1200.52</ele>
        <time>2015-08-05T07:53:49.97Z</time>
      </trkpt>
      <trkpt lat="42.322243" lon="2.175568">
        <ele>1199.14</ele>
        <time>2015-08-05T09:51:32.38Z</time>
      </trkpt>
      <trkpt lat="42.322100" lon="2.175585">
        <ele>1196.75</ele>
        <time>2015-08-05T14:19:43.63Z</time>
      </trkpt>
      <trkpt lat="42.321964" lon="2.175610">
        <ele>1194.62</ele>
        <time>2015-08-05T18:36:08.57Z</time>
      </trkpt>
      <trkpt lat="42.321807" lon="2.175648">
        <ele>1193.30</ele>
        <time>2015-08-05T23:34:06.92Z</time>
      </trkpt>
      <trkpt lat="42.321648" lon="2.175712">
        <ele>1192.30</ele>
        <time>2015-08-06T04:44:02.43Z</time>
      </trkpt>
      <trkpt lat="42.321481" lon="2.175791">
        <ele>1192.13</ele>
        <time>2015-08-06T10:14:34.14Z</time>
      </trkpt>
      <trkpt lat="42.321400" lon="2.175828">
        <ele>1192.04</ele>
        <time>2015-08-06T12:54:17.63Z</time>
      </trkpt>
      <trkpt lat="42.321328" lon="2.175852">
        <ele>1192.18</ele>
        <time>2015-08-06T15:12:49.90Z</time>
      </trkpt>
      <trkpt lat="42.321261" lon="2.175849">
        <ele>1191.21</ele>
        <time>2015-08-06T17:18:04.32Z</time>
      </trkpt>
      <trkpt lat="42.321194" lon="2.175832">
        <ele>1189.91</ele>
        <time>2015-08-06T19:25:25.64Z</time>
      </trkpt>
      <trkpt lat="42.321120" lon="2.175812">
        <ele>1188.60</ele>
        <time>2015-08-06T21:46:24.59Z</time>
      </trkpt>
      <trkpt lat="42.321032" lon="2.175772">
        <ele>1185.65</ele>
        <time>2015-08-07T00:39:51.06Z</time>
      </trkpt>
      <trkpt lat="42.320875" lon="2.175714">
        <ele>1180.25</ele>
        <time>2015-08-07T05:43:54.53Z</time>
      </trkpt>
      <trkpt lat="42.320725" lon="2.175741">
        <ele>1176.66</ele>
        <time>2015-08-07T10:26:36.89Z</time>
      </trkpt>
      <trkpt lat="42.320570" lon="2.175841">
        <ele>1174.96</ele>
        <time>2015-08-07T15:47:27.05Z</time>
      </trkpt>
      <trkpt lat="42.320406" lon="2.175902">
        <ele>1173.85</ele>
        <time>2015-08-07T21:05:13Z</time>
      </trkpt>
      <trkpt lat="42.320259" lon="2.175937">
        <ele>1172.12</ele>
        <time>2015-08-08T01:44:04.21Z</time>
      </trkpt>
      <trkpt lat="42.320114" lon="2.175944">
        <ele>1169.84</ele>
        <time>2015-08-08T06:15:08.20Z</time>
      </trkpt>
      <trkpt lat="42.319974" lon="2.175925">
        <ele>1166.57</ele>
        <time>2015-08-08T10:38:00.17Z</time>
      </trkpt>
      <trkpt lat="42.319837" lon="2.175886">
        <ele>1162.26</ele>
        <time>2015-08-08T14:59:33.55Z</time>
      </trkpt>
      <trkpt lat="42.319677" lon="2.175865">
        <ele>1158.42</ele>
        <time>2015-08-08T19:59:52.85Z</time>
      </trkpt>
      <trkpt lat="42.319506" lon="2.175882">
        <ele>1155.81</ele>
        <time>2015-08-09T01:20:12.64Z</time>
      </trkpt>
      <trkpt lat="42.319356" lon="2.175922">
        <ele>1154.14</ele>
        <time>2015-08-09T06:05:50.47Z</time>
      </trkpt>
      <trkpt lat="42.319197" lon="2.175946">
        <ele>1151.76</ele>
        <time>2015-08-09T11:04:44.08Z</time>
      </trkpt>
      <trkpt lat="42.319017" lon="2.175986">
        <ele>1149.62</ele>
        <time>2015-08-09T16:45:31.56Z</time>
      </trkpt>
      <trkpt lat="42.318928" lon="2.176007">
        <ele>1148.61</ele>
        <time>2015-08-09T19:34:18.62Z</time>
      </trkpt>
      <trkpt lat="42.318752" lon="2.176035">
        <ele>1146.12</ele>
        <time>2015-08-10T01:05:23.20Z</time>
      </trkpt>
      <trkpt lat="42.318598" lon="2.176096">
        <ele>1144.54</ele>
        <time>2015-08-10T06:05:10.84Z</time>
      </trkpt>
      <trkpt lat="42.318459" lon="2.176129">
        <ele>1144.18</ele>
        <time>2015-08-10T10:28:50.16Z</time>
      </trkpt>
      <trkpt lat="42.318305" lon="2.176104">
        <ele>1141.62</ele>
        <time>2015-08-10T15:18:36.55Z</time>
      </trkpt>
      <trkpt lat="42.318146" lon="2.176059">
        <ele>1139.39</ele>
        <time>2015-08-10T20:22:05.58Z</time>
      </trkpt>
      <trkpt lat="42.318044" lon="2.176028">
        <ele>1137.79</ele>
        <time>2015-08-10T23:37:24.32Z</time>
      </trkpt>
      <trkpt lat="42.317877" lon="2.175963">
        <ele>1133.12</ele>
        <time>2015-08-11T05:02:03.85Z</time>
      </trkpt>
      <trkpt lat="42.317761" lon="2.175910">
        <ele>1129.61</ele>
        <time>2015-08-11T08:50:48.76Z</time>
      </trkpt>
      <trkpt lat="42.317716" lon="2.175863">
        <ele>1127.51</ele>
        <time>2015-08-11T10:37:02.13Z</time>
      </trkpt>
      <trkpt lat="42.317702" lon="2.175832">
        <ele>1126.64</ele>
        <time>2015-08-11T11:27:12.90Z</time>
      </trkpt>
      <trkpt lat="42.317705" lon="2.175806">
        <ele>1126.04</ele>
        <time>2015-08-11T12:03:33.99Z</time>
      </trkpt>
      <trkpt lat="42.317710" lon="2.175780">
        <ele>1125.45</ele>
        <time>2015-08-11T12:40:40.69Z</time>
      </trkpt>
      <trkpt lat="42.317684" lon="2.175758">
        <ele>1124.45</ele>
        <time>2015-08-11T13:37:58.57Z</time>
      </trkpt>
      <trkpt lat="42.317664" lon="2.175748">
        <ele>1123.94</ele>
        <time>2015-08-11T14:17:48.76Z</time>
      </trkpt>
      <trkpt lat="42.317630" lon="2.175731">
        <ele>1123.04</ele>
        <time>2015-08-11T15:25:32.08Z</time>
      </trkpt>
      <trkpt lat="42.317594" lon="2.175704">
        <ele>1122.00</ele>
        <time>2015-08-11T16:42:26.46Z</time>
      </trkpt>
      <trkpt lat="42.317553" lon="2.175667">
        <ele>1120.64</ele>
        <time>2015-08-11T18:14:31.57Z</time>
      </trkpt>
      <trkpt lat="42.317508" lon="2.175633">
        <ele>1119.56</ele>
        <time>2015-08-11T19:50:49.63Z</time>
      </trkpt>
      <trkpt lat="42.317466" lon="2.175597">
        <ele>1117.71</ele>
        <time>2015-08-11T21:23:43.52Z</time>
      </trkpt>
      <trkpt lat="42.317438" lon="2.175557">
        <ele>1116.21</ele>
        <time>2015-08-11T22:39:48.92Z</time>
      </trkpt>
      <trkpt lat="42.317435" lon="2.175556">
        <ele>1099.01</ele>
        <time>2015-08-11T22:56:37.77Z</time>
      </trkpt>
      <trkpt lat="42.317443" lon="2.175505">
        <ele>1097.49</ele>
        <time>2015-08-12T00:08:38.99Z</time>
      </trkpt>
      <trkpt lat="42.317457" lon="2.175389">
        <ele>1093.84</ele>
        <time>2015-08-12T02:51:00.91Z</time>
      </trkpt>
      <trkpt lat="42.317418" lon="2.175368">
        <ele>1092.24</ele>
        <time>2015-08-12T04:09:26.34Z</time>
      </trkpt>
      <trkpt lat="42.317403" lon="2.175363">
        <ele>1092.03</ele>
        <time>2015-08-12T04:38:18.07Z</time>
      </trkpt>
      <trkpt lat="42.317342" lon="2.175345">
        <ele>1091.21</ele>
        <time>2015-08-12T06:34:56.68Z</time>
      </trkpt>
      <trkpt lat="42.317326" lon="2.175354">
        <ele>1090.84</ele>
        <time>2015-08-12T07:07:19.13Z</time>
      </trkpt>
      <trkpt lat="42.317305" lon="2.175347">
        <ele>1090.25</ele>
        <time>2015-08-12T07:47:43.55Z</time>
      </trkpt>
      <trkpt lat="42.317271" lon="2.175409">
        <ele>1090.21</ele>
        <time>2015-08-12T09:34:21.48Z</time>
      </trkpt>
      <trkpt lat="42.317256" lon="2.175433">
        <ele>1090.01</ele>
        <time>2015-08-12T10:17:46.14Z</time>
      </trkpt>
      <trkpt lat="42.317231" lon="2.175474">
        <ele>1089.63</ele>
        <time>2015-08-12T11:31:10.87Z</time>
      </trkpt>
      <trkpt lat="42.317206" lon="2.175511">
        <ele>1089.24</ele>
        <time>2015-08-12T12:40:25.18Z</time>
      </trkpt>
      <trkpt lat="42.317177" lon="2.175553">
        <ele>1089.06</ele>
        <time>2015-08-12T13:59:48.15Z</time>
      </trkpt>
      <trkpt lat="42.317151" lon="2.175598">
        <ele>1088.65</ele>
        <time>2015-08-12T15:18:41.63Z</time>
      </trkpt>
      <trkpt lat="42.317128" lon="2.175648">
        <ele>1088.48</ele>
        <time>2015-08-12T16:40:02.40Z</time>
      </trkpt>
      <trkpt lat="42.317067" lon="2.175901">
        <ele>1088.41</ele>
        <time>2015-08-12T22:47:39.12Z</time>
      </trkpt>
      <trkpt lat="42.317007" lon="2.176217">
        <ele>1088.67</ele>
        <time>2015-08-13T06:18:20.76Z</time>
      </trkpt>
      <trkpt lat="42.317014" lon="2.176462">
        <ele>1089.43</ele>
        <time>2015-08-13T11:57:02.94Z</time>
      </trkpt>
      <trkpt lat="42.317039" lon="2.176622">
        <ele>1090.04</ele>
        <time>2015-08-13T15:42:57.52Z</time>
      </trkpt>
      <trkpt lat="42.317060" lon="2.176790">
        <ele>1090.05</ele>
        <time>2015-08-13T19:38:19.89Z</time>
      </trkpt>
      <trkpt lat="42.317073" lon="2.176854">
        <ele>1090.01</ele>
        <time>2015-08-13T21:10:01.09Z</time>
      </trkpt>
      <trkpt lat="42.317076" lon="2.177009">
        <ele>1090.41</ele>
        <time>2015-08-14T00:44:12.78Z</time>
      </trkpt>
      <trkpt lat="42.317076" lon="2.177036">
        <ele>1090.61</ele>
        <time>2015-08-14T01:21:30.69Z</time>
      </trkpt>
      <trkpt lat="42.317083" lon="2.177160">
        <ele>1090.68</ele>
        <time>2015-08-14T04:13:18.43Z</time>
      </trkpt>
      <trkpt lat="42.317060" lon="2.177497">
        <ele>1090.69</ele>
        <time>2015-08-14T12:00:49.65Z</time>
      </trkpt>
      <trkpt lat="42.317024" lon="2.177885">
        <ele>1090.29</ele>
        <time>2015-08-14T21:01:01.52Z</time>
      </trkpt>
      <trkpt lat="42.317061" lon="2.178302">
        <ele>1089.27</ele>
        <time>2015-08-15T06:41:12.84Z</time>
      </trkpt>
      <trkpt lat="42.317074" lon="2.178365">
        <ele>1089.01</ele>
        <time>2015-08-15T08:11:34.16Z</time>
      </trkpt>
      <trkpt lat="42.317124" lon="2.178594">
        <ele>1089.05</ele>
        <time>2015-08-15T13:41:25.18Z</time>
      </trkpt>
      <trkpt lat="42.317149" lon="2.178676">
        <ele>1088.89</ele>
        <time>2015-08-15T15:43:56.86Z</time>
      </trkpt>
      <trkpt lat="42.317169" lon="2.178757">
        <ele>1089.43</ele>
        <time>2015-08-15T17:41:55.02Z</time>
      </trkpt>
      <trkpt lat="42.317125" lon="2.178713">
        <ele>1088.62</ele>
        <time>2015-08-15T19:24:09.05Z</time>
      </trkpt>
      <trkpt lat="42.317074" lon="2.178637">
        <ele>1087.62</ele>
        <time>2015-08-15T21:45:55.70Z</time>
      </trkpt>
      <trkpt lat="42.317067" lon="2.178623">
        <ele>1087.21</ele>
        <time>2015-08-15T22:09:16.49Z</time>
      </trkpt>
      <trkpt lat="42.317067" lon="2.178617">
        <ele>1086.85</ele>
        <time>2015-08-15T22:26:05.33Z</time>
      </trkpt>
      <trkpt lat="42.317000" lon="2.178624">
        <ele>1086.69</ele>
        <time>2015-08-16T00:31:38.01Z</time>
      </trkpt>
      <trkpt lat="42.316978" lon="2.178620">
        <ele>1086.08</ele>
        <time>2015-08-16T01:13:06.27Z</time>
      </trkpt>
      <trkpt lat="42.316959" lon="2.178616">
        <ele>1085.22</ele>
        <time>2015-08-16T01:49:01.70Z</time>
      </trkpt>
      <trkpt lat="42.316926" lon="2.178614">
        <ele>1084.03</ele>
        <time>2015-08-16T02:50:44.52Z</time>
      </trkpt>
      <trkpt lat="42.316895" lon="2.178618">
        <ele>1082.61</ele>
        <time>2015-08-16T03:48:55.21Z</time>
      </trkpt>
      <trkpt lat="42.316880" lon="2.178619">
        <ele>1082.29</ele>
        <time>2015-08-16T04:16:58.66Z</time>
      </trkpt>
      <trkpt lat="42.316866" lon="2.178621">
        <ele>1081.46</ele>
        <time>2015-08-16T04:43:16.71Z</time>
      </trkpt>
      <trkpt lat="42.316853" lon="2.178613">
        <ele>1080.48</ele>
        <time>2015-08-16T05:09:57.71Z</time>
      </trkpt>
      <trkpt lat="42.316804" lon="2.178588">
        <ele>1078.22</ele>
        <time>2015-08-16T06:47:48.19Z</time>
      </trkpt>
      <trkpt lat="42.316793" lon="2.178587">
        <ele>1078.02</ele>
        <time>2015-08-16T07:08:24Z</time>
      </trkpt>
      <trkpt lat="42.316784" lon="2.178587">
        <ele>1077.41</ele>
        <time>2015-08-16T07:25:12.85Z</time>
      </trkpt>
      <trkpt lat="42.316769" lon="2.178571">
        <ele>1077.26</ele>
        <time>2015-08-16T08:00:54.32Z</time>
      </trkpt>
      <trkpt lat="42.316752" lon="2.178577">
        <ele>1076.68</ele>
        <time>2015-08-16T08:33:43.74Z</time>
      </trkpt>
      <trkpt lat="42.316737" lon="2.178556">
        <ele>1075.82</ele>
        <time>2015-08-16T09:14:03.84Z</time>
      </trkpt>
      <trkpt lat="42.316709" lon="2.178549">
        <ele>1074.70</ele>
        <time>2015-08-16T10:07:15.64Z</time>
      </trkpt>
      <trkpt lat="42.316705" lon="2.178553">
        <ele>1074.42</ele>
        <time>2015-08-16T10:24:04.49Z</time>
      </trkpt>
      <trkpt lat="42.316684" lon="2.178569">
        <ele>1073.89</ele>
        <time>2015-08-16T11:09:06.33Z</time>
      </trkpt>
      <trkpt lat="42.316620" lon="2.178552">
        <ele>1072.70</ele>
        <time>2015-08-16T13:10:57.42Z</time>
      </trkpt>
      <trkpt lat="42.316586" lon="2.178559">
        <ele>1071.30</ele>
        <time>2015-08-16T14:15:12.53Z</time>
      </trkpt>
      <trkpt lat="42.316534" lon="2.178553">
        <ele>1070.22</ele>
        <time>2015-08-16T15:52:42.59Z</time>
      </trkpt>
      <trkpt lat="42.316498" lon="2.178532">
        <ele>1069.44</ele>
        <time>2015-08-16T17:05:57.37Z</time>
      </trkpt>
      <trkpt lat="42.316484" lon="2.178521">
        <ele>1068.61</ele>
        <time>2015-08-16T17:36:12.32Z</time>
      </trkpt>
      <trkpt lat="42.316434" lon="2.178495">
        <ele>1067.21</ele>
        <time>2015-08-16T19:16:17.06Z</time>
      </trkpt>
      <trkpt lat="42.316407" lon="2.178469">
        <ele>1066.05</ele>
        <time>2015-08-16T20:18:12.46Z</time>
      </trkpt>
      <trkpt lat="42.316404" lon="2.178462">
        <ele>1065.81</ele>
        <time>2015-08-16T20:35:01.30Z</time>
      </trkpt>
      <trkpt lat="42.316353" lon="2.178446">
        <ele>1064.83</ele>
        <time>2015-08-16T22:12:49.91Z</time>
      </trkpt>
      <trkpt lat="42.316322" lon="2.178428">
        <ele>1063.42</ele>
        <time>2015-08-16T23:15:51.57Z</time>
      </trkpt>
      <trkpt lat="42.316293" lon="2.178400">
        <ele>1062.22</ele>
        <time>2015-08-17T00:22:25.75Z</time>
      </trkpt>
      <trkpt lat="42.316256" lon="2.178370">
        <ele>1060.89</ele>
        <time>2015-08-17T01:43:01.53Z</time>
      </trkpt>
      <trkpt lat="42.316215" lon="2.178330">
        <ele>1059.26</ele>
        <time>2015-08-17T03:17:28.47Z</time>
      </trkpt>
      <trkpt lat="42.316188" lon="2.178290">
        <ele>1058.26</ele>
        <time>2015-08-17T04:32:17.60Z</time>
      </trkpt>
      <trkpt lat="42.316139" lon="2.178226">
        <ele>1056.46</ele>
        <time>2015-08-17T06:39:33.65Z</time>
      </trkpt>
      <trkpt lat="42.316101" lon="2.178186">
        <ele>1055.46</ele>
        <time>2015-08-17T08:09:31.46Z</time>
      </trkpt>
      <trkpt lat="42.316064" lon="2.178134">
        <ele>1053.61</ele>
        <time>2015-08-17T09:49:13Z</time>
      </trkpt>
      <trkpt lat="42.316038" lon="2.178079">
        <ele>1052.41</ele>
        <time>2015-08-17T11:19:23.78Z</time>
      </trkpt>
      <trkpt lat="42.316011" lon="2.178023">
        <ele>1051.65</ele>
        <time>2015-08-17T12:51:45Z</time>
      </trkpt>
      <trkpt lat="42.315996" lon="2.178007">
        <ele>1051.46</ele>
        <time>2015-08-17T13:27:26.48Z</time>
      </trkpt>
      <trkpt lat="42.315966" lon="2.177980">
        <ele>1050.61</ele>
        <time>2015-08-17T14:34:45.91Z</time>
      </trkpt>
      <trkpt lat="42.315947" lon="2.177970">
        <ele>1049.90</ele>
        <time>2015-08-17T15:12:51.30Z</time>
      </trkpt>
      <trkpt lat="42.315906" lon="2.177967">
        <ele>1048.43</ele>
        <time>2015-08-17T16:29:33.88Z</time>
      </trkpt>
      <trkpt lat="42.315866" lon="2.177959">
        <ele>1047.04</ele>
        <time>2015-08-17T17:45:06.40Z</time>
      </trkpt>
      <trkpt lat="42.315830" lon="2.177940">
        <ele>1045.83</ele>
        <time>2015-08-17T18:57:18.21Z</time>
      </trkpt>
      <trkpt lat="42.315787" lon="2.177920">
        <ele>1044.63</ele>
        <time>2015-08-17T20:22:15.36Z</time>
      </trkpt>
      <trkpt lat="42.315745" lon="2.177905">
        <ele>1043.08</ele>
        <time>2015-08-17T21:43:24.71Z</time>
      </trkpt>
      <trkpt lat="42.315701" lon="2.177866">
        <ele>1041.66</ele>
        <time>2015-08-17T23:21:41.81Z</time>
      </trkpt>
      <trkpt lat="42.315670" lon="2.177843">
        <ele>1040.83</ele>
        <time>2015-08-18T00:27:45.32Z</time>
      </trkpt>
      <trkpt lat="42.315654" lon="2.177833">
        <ele>1040.41</ele>
        <time>2015-08-18T01:00:41.10Z</time>
      </trkpt>
      <trkpt lat="42.315602" lon="2.177815">
        <ele>1039.02</ele>
        <time>2015-08-18T02:40:57.90Z</time>
      </trkpt>
      <trkpt lat="42.315590" lon="2.177806">
        <ele>1038.89</ele>
        <time>2015-08-18T03:06:36.04Z</time>
      </trkpt>
      <trkpt lat="42.315566" lon="2.177785">
        <ele>1037.82</ele>
        <time>2015-08-18T04:00:00.30Z</time>
      </trkpt>
      <trkpt lat="42.315529" lon="2.177731">
        <ele>1037.48</ele>
        <time>2015-08-18T05:41:42.40Z</time>
      </trkpt>
      <trkpt lat="42.315503" lon="2.177706">
        <ele>1037.06</ele>
        <time>2015-08-18T06:41:18.43Z</time>
      </trkpt>
      <trkpt lat="42.315487" lon="2.177694">
        <ele>1036.66</ele>
        <time>2015-08-18T07:15:29.28Z</time>
      </trkpt>
      <trkpt lat="42.315462" lon="2.177670">
        <ele>1035.29</ele>
        <time>2015-08-18T08:12:45.92Z</time>
      </trkpt>
      <trkpt lat="42.315455" lon="2.177659">
        <ele>1034.85</ele>
        <time>2015-08-18T08:32:48.84Z</time>
      </trkpt>
      <trkpt lat="42.315451" lon="2.177642">
        <ele>1034.68</ele>
        <time>2015-08-18T08:57:27.55Z</time>
      </trkpt>
      <trkpt lat="42.315446" lon="2.177626">
        <ele>1034.23</ele>
        <time>2015-08-18T09:21:27.32Z</time>
      </trkpt>
      <trkpt lat="42.315421" lon="2.177569">
        <ele>1033.42</ele>
        <time>2015-08-18T10:53:00.51Z</time>
      </trkpt>
      <trkpt lat="42.315405" lon="2.177547">
        <ele>1033.01</ele>
        <time>2015-08-18T11:35:38.23Z</time>
      </trkpt>
      <trkpt lat="42.315388" lon="2.177508">
        <ele>1032.69</ele>
        <time>2015-08-18T12:38:10.72Z</time>
      </trkpt>
      <trkpt lat="42.315381" lon="2.177490">
        <ele>1032.50</ele>
        <time>2015-08-18T13:06:16.46Z</time>
      </trkpt>
      <trkpt lat="42.315363" lon="2.177421">
        <ele>1032.47</ele>
        <time>2015-08-18T14:47:21.20Z</time>
      </trkpt>
      <trkpt lat="42.315365" lon="2.177418">
        <ele>1032.26</ele>
        <time>2015-08-18T15:04:10.05Z</time>
      </trkpt>
      <trkpt lat="42.315348" lon="2.177345">
        <ele>1031.85</ele>
        <time>2015-08-18T16:49:53.85Z</time>
      </trkpt>
      <trkpt lat="42.315344" lon="2.177325">
        <ele>1031.46</ele>
        <time>2015-08-18T17:18:31.17Z</time>
      </trkpt>
      <trkpt lat="42.315334" lon="2.177305">
        <ele>1031.10</ele>
        <time>2015-08-18T17:51:52.34Z</time>
      </trkpt>
      <trkpt lat="42.315300" lon="2.177226">
        <ele>1030.65</ele>
        <time>2015-08-18T19:58:08.85Z</time>
      </trkpt>
      <trkpt lat="42.315286" lon="2.177168">
        <ele>1030.07</ele>
        <time>2015-08-18T21:22:26.02Z</time>
      </trkpt>
      <trkpt lat="42.315279" lon="2.177140">
        <ele>1029.67</ele>
        <time>2015-08-18T22:03:15.94Z</time>
      </trkpt>
      <trkpt lat="42.315273" lon="2.177110">
        <ele>1029.41</ele>
        <time>2015-08-18T22:46:11.93Z</time>
      </trkpt>
      <trkpt lat="42.315269" lon="2.177019">
        <ele>1029.01</ele>
        <time>2015-08-19T00:52:08.06Z</time>
      </trkpt>
      <trkpt lat="42.315276" lon="2.176956">
        <ele>1028.25</ele>
        <time>2015-08-19T02:20:08.64Z</time>
      </trkpt>
      <trkpt lat="42.315283" lon="2.176886">
        <ele>1028.02</ele>
        <time>2015-08-19T03:57:43.62Z</time>
      </trkpt>
      <trkpt lat="42.315295" lon="2.176813">
        <ele>1027.49</ele>
        <time>2015-08-19T05:41:02.16Z</time>
      </trkpt>
      <trkpt lat="42.315299" lon="2.176780">
        <ele>1027.29</ele>
        <time>2015-08-19T06:27:13.97Z</time>
      </trkpt>
      <trkpt lat="42.315300" lon="2.176743">
        <ele>1026.89</ele>
        <time>2015-08-19T07:18:22.88Z</time>
      </trkpt>
      <trkpt lat="42.315308" lon="2.176664">
        <ele>1025.85</ele>
        <time>2015-08-19T09:08:32.15Z</time>
      </trkpt>
      <trkpt lat="42.315317" lon="2.176629">
        <ele>1025.63</ele>
        <time>2015-08-19T09:59:43.64Z</time>
      </trkpt>
      <trkpt lat="42.315312" lon="2.176609">
        <ele>1025.64</ele>
        <time>2015-08-19T10:28:53.58Z</time>
      </trkpt>
      <trkpt lat="42.315292" lon="2.176513">
        <ele>1024.90</ele>
        <time>2015-08-19T12:46:40.62Z</time>
      </trkpt>
      <trkpt lat="42.315288" lon="2.176476">
        <ele>1024.65</ele>
        <time>2015-08-19T13:38:20.08Z</time>
      </trkpt>
      <trkpt lat="42.315274" lon="2.176377">
        <ele>1023.62</ele>
        <time>2015-08-19T15:57:34.72Z</time>
      </trkpt>
      <trkpt lat="42.315274" lon="2.176340">
        <ele>1023.01</ele>
        <time>2015-08-19T16:48:41.58Z</time>
      </trkpt>
      <trkpt lat="42.315267" lon="2.176306">
        <ele>1022.63</ele>
        <time>2015-08-19T17:37:26.97Z</time>
      </trkpt>
      <trkpt lat="42.315256" lon="2.176226">
        <ele>1021.62</ele>
        <time>2015-08-19T19:29:51.68Z</time>
      </trkpt>
      <trkpt lat="42.315249" lon="2.176188">
        <ele>1021.29</ele>
        <time>2015-08-19T20:23:57.70Z</time>
      </trkpt>
      <trkpt lat="42.315238" lon="2.176022">
        <ele>1019.81</ele>
        <time>2015-08-20T00:14:12.27Z</time>
      </trkpt>
      <trkpt lat="42.315236" lon="2.175984">
        <ele>1019.45</ele>
        <time>2015-08-20T01:06:49.98Z</time>
      </trkpt>
      <trkpt lat="42.315220" lon="2.175935">
        <ele>1019.23</ele>
        <time>2015-08-20T02:20:49.87Z</time>
      </trkpt>
      <trkpt lat="42.315195" lon="2.175916">
        <ele>1018.86</ele>
        <time>2015-08-20T03:14:24.43Z</time>
      </trkpt>
      <trkpt lat="42.315136" lon="2.175869">
        <ele>1018.07</ele>
        <time>2015-08-20T05:22:20.10Z</time>
      </trkpt>
      <trkpt lat="42.315126" lon="2.175854">
        <ele>1017.88</ele>
        <time>2015-08-20T05:50:14.12Z</time>
      </trkpt>
      <trkpt lat="42.315107" lon="2.175842">
        <ele>1017.49</ele>
        <time>2015-08-20T06:29:24.73Z</time>
      </trkpt>
      <trkpt lat="42.315097" lon="2.175840">
        <ele>1017.22</ele>
        <time>2015-08-20T06:48:17.86Z</time>
      </trkpt>
      <trkpt lat="42.315081" lon="2.175828">
        <ele>1017.21</ele>
        <time>2015-08-20T07:22:28.71Z</time>
      </trkpt>
      <trkpt lat="42.315082" lon="2.175825">
        <ele>1017.07</ele>
        <time>2015-08-20T07:39:17.56Z</time>
      </trkpt>
      <trkpt lat="42.315035" lon="2.175808">
        <ele>1016.50</ele>
        <time>2015-08-20T09:10:11.16Z</time>
      </trkpt>
      <trkpt lat="42.314996" lon="2.175777">
        <ele>1016.08</ele>
        <time>2015-08-20T10:34:42.06Z</time>
      </trkpt>
      <trkpt lat="42.314981" lon="2.175766">
        <ele>1015.87</ele>
        <time>2015-08-20T11:06:34.78Z</time>
      </trkpt>
      <trkpt lat="42.314947" lon="2.175738">
        <ele>1015.26</ele>
        <time>2015-08-20T12:20:57.03Z</time>
      </trkpt>
      <trkpt lat="42.314900" lon="2.175714">
        <ele>1014.28</ele>
        <time>2015-08-20T13:54:48.52Z</time>
      </trkpt>
      <trkpt lat="42.314873" lon="2.175701">
        <ele>1013.90</ele>
        <time>2015-08-20T14:48:21.15Z</time>
      </trkpt>
      <trkpt lat="42.314829" lon="2.175682">
        <ele>1012.82</ele>
        <time>2015-08-20T16:14:38.63Z</time>
      </trkpt>
      <trkpt lat="42.314774" lon="2.175645">
        <ele>1011.68</ele>
        <time>2015-08-20T18:09:24.49Z</time>
      </trkpt>
      <trkpt lat="42.314752" lon="2.175625">
        <ele>1011.03</ele>
        <time>2015-08-20T18:58:55.97Z</time>
      </trkpt>
      <trkpt lat="42.314735" lon="2.175604">
        <ele>1010.02</ele>
        <time>2015-08-20T19:41:56.91Z</time>
      </trkpt>
      <trkpt lat="42.314691" lon="2.175538">
        <ele>1008.61</ele>
        <time>2015-08-20T21:44:42.65Z</time>
      </trkpt>
      <trkpt lat="42.314671" lon="2.175502">
        <ele>1007.67</ele>
        <time>2015-08-20T22:46:54.98Z</time>
      </trkpt>
      <trkpt lat="42.314662" lon="2.175484">
        <ele>1006.85</ele>
        <time>2015-08-20T23:16:56.04Z</time>
      </trkpt>
      <trkpt lat="42.314642" lon="2.175482">
        <ele>1006.42</ele>
        <time>2015-08-20T23:54:24.04Z</time>
      </trkpt>
      <trkpt lat="42.314636" lon="2.175489">
        <ele>1006.49</ele>
        <time>2015-08-21T00:11:12.89Z</time>
      </trkpt>
      <trkpt lat="42.314631" lon="2.175549">
        <ele>1006.09</ele>
        <time>2015-08-21T01:34:37.71Z</time>
      </trkpt>
      <trkpt lat="42.314624" lon="2.175562">
        <ele>1005.64</ele>
        <time>2015-08-21T01:56:50.68Z</time>
      </trkpt>
      <trkpt lat="42.314617" lon="2.175573">
        <ele>1005.05</ele>
        <time>2015-08-21T02:16:53.60Z</time>
      </trkpt>
      <trkpt lat="42.314587" lon="2.175542">
        <ele>1004.42</ele>
        <time>2015-08-21T03:27:25.76Z</time>
      </trkpt>
      <trkpt lat="42.314563" lon="2.175507">
        <ele>1003.82</ele>
        <time>2015-08-21T04:33:22.27Z</time>
      </trkpt>
      <trkpt lat="42.314527" lon="2.175470">
        <ele>1002.81</ele>
        <time>2015-08-21T05:57:50.82Z</time>
      </trkpt>
      <trkpt lat="42.314515" lon="2.175431">
        <ele>1001.62</ele>
        <time>2015-08-21T06:56:12.18Z</time>
      </trkpt>
      <trkpt lat="42.314492" lon="2.175347">
        <ele>1000.21</ele>
        <time>2015-08-21T08:59:56.87Z</time>
      </trkpt>
      <trkpt lat="42.314486" lon="2.175323">
        <ele>999.66</ele>
        <time>2015-08-21T09:34:56.82Z</time>
      </trkpt>
      <trkpt lat="42.314487" lon="2.175297">
        <ele>999.24</ele>
        <time>2015-08-21T10:10:54.85Z</time>
      </trkpt>
      <trkpt lat="42.314486" lon="2.175255">
        <ele>998.50</ele>
        <time>2015-08-21T11:08:58Z</time>
      </trkpt>
      <trkpt lat="42.314481" lon="2.175234">
        <ele>998.05</ele>
        <time>2015-08-21T11:39:26.68Z</time>
      </trkpt>
      <trkpt lat="42.314476" lon="2.175212">
        <ele>997.68</ele>
        <time>2015-08-21T12:11:14.43Z</time>
      </trkpt>
      <trkpt lat="42.314464" lon="2.175125">
        <ele>996.44</ele>
        <time>2015-08-21T14:13:30.16Z</time>
      </trkpt>
      <trkpt lat="42.314482" lon="2.175036">
        <ele>995.09</ele>
        <time>2015-08-21T16:20:58.25Z</time>
      </trkpt>
      <trkpt lat="42.314491" lon="2.174978">
        <ele>994.45</ele>
        <time>2015-08-21T17:42:50.53Z</time>
      </trkpt>
      <trkpt lat="42.314467" lon="2.174909">
        <ele>994.27</ele>
        <time>2015-08-21T19:28:11.01Z</time>
      </trkpt>
      <trkpt lat="42.314462" lon="2.174878">
        <ele>993.66</ele>
        <time>2015-08-21T20:12:00.99Z</time>
      </trkpt>
      <trkpt lat="42.314437" lon="2.174814">
        <ele>993.22</ele>
        <time>2015-08-21T21:52:00.59Z</time>
      </trkpt>
      <trkpt lat="42.314409" lon="2.174747">
        <ele>992.41</ele>
        <time>2015-08-21T23:38:19.71Z</time>
      </trkpt>
      <trkpt lat="42.314392" lon="2.174721">
        <ele>992.09</ele>
        <time>2015-08-22T00:26:16.49Z</time>
      </trkpt>
      <trkpt lat="42.314370" lon="2.174698">
        <ele>991.45</ele>
        <time>2015-08-22T01:18:13.55Z</time>
      </trkpt>
      <trkpt lat="42.314328" lon="2.174629">
        <ele>990.22</ele>
        <time>2015-08-22T03:21:41.38Z</time>
      </trkpt>
      <trkpt lat="42.314292" lon="2.174591">
        <ele>989.84</ele>
        <time>2015-08-22T04:47:00.51Z</time>
      </trkpt>
      <trkpt lat="42.314250" lon="2.174545">
        <ele>989.08</ele>
        <time>2015-08-22T06:27:58.82Z</time>
      </trkpt>
      <trkpt lat="42.314207" lon="2.174504">
        <ele>988.63</ele>
        <time>2015-08-22T08:06:16.48Z</time>
      </trkpt>
      <trkpt lat="42.314183" lon="2.174473">
        <ele>987.89</ele>
        <time>2015-08-22T09:08:16.72Z</time>
      </trkpt>
      <trkpt lat="42.314144" lon="2.174436">
        <ele>986.65</ele>
        <time>2015-08-22T10:37:16.89Z</time>
      </trkpt>
      <trkpt lat="42.314127" lon="2.174423">
        <ele>986.04</ele>
        <time>2015-08-22T11:13:46.06Z</time>
      </trkpt>
      <trkpt lat="42.314109" lon="2.174402">
        <ele>985.22</ele>
        <time>2015-08-22T11:58:10.84Z</time>
      </trkpt>
      <trkpt lat="42.314069" lon="2.174371">
        <ele>984.01</ele>
        <time>2015-08-22T13:24:18.70Z</time>
      </trkpt>
      <trkpt lat="42.314055" lon="2.174366">
        <ele>983.81</ele>
        <time>2015-08-22T13:51:21.82Z</time>
      </trkpt>
      <trkpt lat="42.314036" lon="2.174349">
        <ele>983.03</ele>
        <time>2015-08-22T14:33:55.57Z</time>
      </trkpt>
      <trkpt lat="42.314037" lon="2.174345">
        <ele>982.84</ele>
        <time>2015-08-22T14:50:44.42Z</time>
      </trkpt>
      <trkpt lat="42.313967" lon="2.174252">
        <ele>980.64</ele>
        <time>2015-08-22T17:54:04.13Z</time>
      </trkpt>
      <trkpt lat="42.313960" lon="2.174255">
        <ele>980.48</ele>
        <time>2015-08-22T18:10:52.97Z</time>
      </trkpt>
      <trkpt lat="42.313947" lon="2.174247">
        <ele>980.26</ele>
        <time>2015-08-22T18:37:33.98Z</time>
      </trkpt>
      <trkpt lat="42.313925" lon="2.174250">
        <ele>979.89</ele>
        <time>2015-08-22T19:18:52.56Z</time>
      </trkpt>
      <trkpt lat="42.313913" lon="2.174261">
        <ele>979.43</ele>
        <time>2015-08-22T19:45:57.59Z</time>
      </trkpt>
      <trkpt lat="42.313909" lon="2.174267">
        <ele>979.22</ele>
        <time>2015-08-22T20:02:46.43Z</time>
      </trkpt>
      <trkpt lat="42.313832" lon="2.174248">
        <ele>977.87</ele>
        <time>2015-08-22T22:29:00.18Z</time>
      </trkpt>
      <trkpt lat="42.313793" lon="2.174248">
        <ele>977.20</ele>
        <time>2015-08-22T23:41:51.85Z</time>
      </trkpt>
      <trkpt lat="42.313757" lon="2.174252">
        <ele>976.62</ele>
        <time>2015-08-23T00:49:20.83Z</time>
      </trkpt>
      <trkpt lat="42.313685" lon="2.174207">
        <ele>975.61</ele>
        <time>2015-08-23T03:17:31.87Z</time>
      </trkpt>
      <trkpt lat="42.313632" lon="2.174157">
        <ele>974.10</ele>
        <time>2015-08-23T05:18:15.64Z</time>
      </trkpt>
      <trkpt lat="42.313595" lon="2.174150">
        <ele>973.29</ele>
        <time>2015-08-23T06:28:03.51Z</time>
      </trkpt>
      <trkpt lat="42.313575" lon="2.174152">
        <ele>973.02</ele>
        <time>2015-08-23T07:05:31.51Z</time>
      </trkpt>
      <trkpt lat="42.313541" lon="2.174155">
        <ele>972.44</ele>
        <time>2015-08-23T08:09:10.81Z</time>
      </trkpt>
      <trkpt lat="42.313524" lon="2.174169">
        <ele>972.02</ele>
        <time>2015-08-23T08:46:21.95Z</time>
      </trkpt>
      <trkpt lat="42.313501" lon="2.174182">
        <ele>971.89</ele>
        <time>2015-08-23T09:32:56.25Z</time>
      </trkpt>
      <trkpt lat="42.313456" lon="2.174198">
        <ele>970.87</ele>
        <time>2015-08-23T10:59:51.92Z</time>
      </trkpt>
      <trkpt lat="42.313382" lon="2.174218">
        <ele>969.47</ele>
        <time>2015-08-23T13:20:50.91Z</time>
      </trkpt>
      <trkpt lat="42.313359" lon="2.174218">
        <ele>968.63</ele>
        <time>2015-08-23T14:03:49.08Z</time>
      </trkpt>
      <trkpt lat="42.313337" lon="2.174214">
        <ele>968.03</ele>
        <time>2015-08-23T14:45:17.33Z</time>
      </trkpt>
      <trkpt lat="42.313267" lon="2.174193">
        <ele>966.81</ele>
        <time>2015-08-23T16:59:14.68Z</time>
      </trkpt>
      <trkpt lat="42.313242" lon="2.174182">
        <ele>965.81</ele>
        <time>2015-08-23T17:48:21.63Z</time>
      </trkpt>
      <trkpt lat="42.313222" lon="2.174168">
        <ele>965.44</ele>
        <time>2015-08-23T18:30:26.06Z</time>
      </trkpt>
      <trkpt lat="42.313205" lon="2.174161">
        <ele>965.47</ele>
        <time>2015-08-23T19:03:38.03Z</time>
      </trkpt>
      <trkpt lat="42.313186" lon="2.174162">
        <ele>965.30</ele>
        <time>2015-08-23T19:39:09.43Z</time>
      </trkpt>
      <trkpt lat="42.313186" lon="2.174163">
        <ele>965.24</ele>
        <time>2015-08-23T19:55:58.28Z</time>
      </trkpt>
      <trkpt lat="42.313135" lon="2.174152">
        <ele>964.41</ele>
        <time>2015-08-23T21:32:27.33Z</time>
      </trkpt>
      <trkpt lat="42.313136" lon="2.174152">
        <ele>964.46</ele>
        <time>2015-08-23T21:49:16.18Z</time>
      </trkpt>
      <trkpt lat="42.313114" lon="2.174144">
        <ele>964.48</ele>
        <time>2015-08-23T22:31:49.85Z</time>
      </trkpt>
      <trkpt lat="42.313091" lon="2.174137">
        <ele>964.02</ele>
        <time>2015-08-23T23:15:52.50Z</time>
      </trkpt>
      <trkpt lat="42.313074" lon="2.174141">
        <ele>963.70</ele>
        <time>2015-08-23T23:48:06.72Z</time>
      </trkpt>
      <trkpt lat="42.313065" lon="2.174148">
        <ele>963.23</ele>
        <time>2015-08-24T00:07:30.53Z</time>
      </trkpt>
      <trkpt lat="42.313024" lon="2.174153">
        <ele>962.02</ele>
        <time>2015-08-24T01:24:25.03Z</time>
      </trkpt>
      <trkpt lat="42.313006" lon="2.174168">
        <ele>961.61</ele>
        <time>2015-08-24T02:03:55.06Z</time>
      </trkpt>
      <trkpt lat="42.313001" lon="2.174177">
        <ele>961.24</ele>
        <time>2015-08-24T02:20:43.91Z</time>
      </trkpt>
      <trkpt lat="42.312999" lon="2.174180">
        <ele>961.07</ele>
        <time>2015-08-24T02:37:32.76Z</time>
      </trkpt>
      <trkpt lat="42.312925" lon="2.174194">
        <ele>960.10</ele>
        <time>2015-08-24T04:57:08.50Z</time>
      </trkpt>
      <trkpt lat="42.312804" lon="2.174165">
        <ele>958.85</ele>
        <time>2015-08-24T08:46:43.24Z</time>
      </trkpt>
      <trkpt lat="42.312716" lon="2.174105">
        <ele>957.67</ele>
        <time>2015-08-24T11:50:50.39Z</time>
      </trkpt>
      <trkpt lat="42.312613" lon="2.174045">
        <ele>957.03</ele>
        <time>2015-08-24T15:20:21.72Z</time>
      </trkpt>
      <trkpt lat="42.312503" lon="2.173965">
        <ele>956.44</ele>
        <time>2015-08-24T19:13:42.14Z</time>
      </trkpt>
      <trkpt lat="42.312430" lon="2.173903">
        <ele>955.42</ele>
        <time>2015-08-24T21:54:45.04Z</time>
      </trkpt>
      <trkpt lat="42.312373" lon="2.173856">
        <ele>955.08</ele>
        <time>2015-08-24T23:59:28.49Z</time>
      </trkpt>
      <trkpt lat="42.312258" lon="2.173693">
        <ele>955.29</ele>
        <time>2015-08-25T05:10:42.83Z</time>
      </trkpt>
      <trkpt lat="42.312234" lon="2.173667">
        <ele>954.82</ele>
        <time>2015-08-25T06:08:09.91Z</time>
      </trkpt>
      <trkpt lat="42.312210" lon="2.173651">
        <ele>954.81</ele>
        <time>2015-08-25T06:58:09.32Z</time>
      </trkpt>
      <trkpt lat="42.312187" lon="2.173620">
        <ele>954.22</ele>
        <time>2015-08-25T07:58:49.38Z</time>
      </trkpt>
      <trkpt lat="42.312169" lon="2.173572">
        <ele>953.24</ele>
        <time>2015-08-25T09:13:10.56Z</time>
      </trkpt>
      <trkpt lat="42.312132" lon="2.173567">
        <ele>952.03</ele>
        <time>2015-08-25T10:22:38.70Z</time>
      </trkpt>
      <trkpt lat="42.312118" lon="2.173567">
        <ele>951.49</ele>
        <time>2015-08-25T10:48:48.01Z</time>
      </trkpt>
      <trkpt lat="42.312077" lon="2.173531">
        <ele>950.88</ele>
        <time>2015-08-25T12:20:07.69Z</time>
      </trkpt>
      <trkpt lat="42.312025" lon="2.173478">
        <ele>949.89</ele>
        <time>2015-08-25T14:21:46.80Z</time>
      </trkpt>
      <trkpt lat="42.311999" lon="2.173448">
        <ele>949.64</ele>
        <time>2015-08-25T15:25:37.99Z</time>
      </trkpt>
      <trkpt lat="42.311918" lon="2.173377">
        <ele>947.87</ele>
        <time>2015-08-25T18:25:58.20Z</time>
      </trkpt>
      <trkpt lat="42.311871" lon="2.173329">
        <ele>947.47</ele>
        <time>2015-08-25T20:16:00.28Z</time>
      </trkpt>
      <trkpt lat="42.311788" lon="2.173285">
        <ele>946.83</ele>
        <time>2015-08-25T23:02:33.44Z</time>
      </trkpt>
      <trkpt lat="42.311732" lon="2.173254">
        <ele>945.62</ele>
        <time>2015-08-26T00:55:36.31Z</time>
      </trkpt>
      <trkpt lat="42.311676" lon="2.173202">
        <ele>944.21</ele>
        <time>2015-08-26T03:02:31.02Z</time>
      </trkpt>
      <trkpt lat="42.311630" lon="2.173131">
        <ele>944.27</ele>
        <time>2015-08-26T05:12:55.69Z</time>
      </trkpt>
      <trkpt lat="42.311527" lon="2.172965">
        <ele>943.47</ele>
        <time>2015-08-26T10:12:18.06Z</time>
      </trkpt>
      <trkpt lat="42.311496" lon="2.172929">
        <ele>943.28</ele>
        <time>2015-08-26T11:28:38.48Z</time>
      </trkpt>
      <trkpt lat="42.311443" lon="2.172866">
        <ele>941.62</ele>
        <time>2015-08-26T13:40:28.43Z</time>
      </trkpt>
      <trkpt lat="42.311423" lon="2.172846">
        <ele>940.82</ele>
        <time>2015-08-26T14:26:56.71Z</time>
      </trkpt>
      <trkpt lat="42.311405" lon="2.172835">
        <ele>940.04</ele>
        <time>2015-08-26T15:03:50.88Z</time>
      </trkpt>
      <trkpt lat="42.311358" lon="2.172841">
        <ele>939.04</ele>
        <time>2015-08-26T16:32:02.72Z</time>
      </trkpt>
      <trkpt lat="42.311343" lon="2.172843">
        <ele>938.82</ele>
        <time>2015-08-26T17:00:12.28Z</time>
      </trkpt>
      <trkpt lat="42.311336" lon="2.172833">
        <ele>938.66</ele>
        <time>2015-08-26T17:19:13.69Z</time>
      </trkpt>
      <trkpt lat="42.311286" lon="2.172826">
        <ele>938.41</ele>
        <time>2015-08-26T18:53:08.35Z</time>
      </trkpt>
      <trkpt lat="42.311263" lon="2.172835">
        <ele>938.42</ele>
        <time>2015-08-26T19:37:52.28Z</time>
      </trkpt>
      <trkpt lat="42.311153" lon="2.172830">
        <ele>938.01</ele>
        <time>2015-08-26T23:03:29.59Z</time>
      </trkpt>
      <trkpt lat="42.311130" lon="2.172793">
        <ele>937.67</ele>
        <time>2015-08-27T00:10:16.30Z</time>
      </trkpt>
      <trkpt lat="42.311065" lon="2.172686">
        <ele>936.86</ele>
        <time>2015-08-27T03:21:34.87Z</time>
      </trkpt>
      <trkpt lat="42.311030" lon="2.172636">
        <ele>936.41</ele>
        <time>2015-08-27T04:56:41.94Z</time>
      </trkpt>
      <trkpt lat="42.310999" lon="2.172600">
        <ele>936.30</ele>
        <time>2015-08-27T06:13:02.36Z</time>
      </trkpt>
      <trkpt lat="42.310936" lon="2.172562">
        <ele>936.09</ele>
        <time>2015-08-27T08:21:54.96Z</time>
      </trkpt>
      <trkpt lat="42.310894" lon="2.172538">
        <ele>935.46</ele>
        <time>2015-08-27T09:47:06Z</time>
      </trkpt>
    </trkseg>
  </trk>
</gpx>
